<?xml version="1.0" encoding="UTF-8" standalone="no" ?>
<gpx xmlns="http://www.topografix.com/GPX/1/1" xmlns:xsi="http://www.w3.org/2001/XMLSchema-instance" xsi:schemaLocation="http://www.topografix.com/GPX/1/1 http://www.topografix.com/GPX/1/1/gpx.xsd" version="1.1" creator="VisuGPX - https://www.visugpx.com">
  <metadata>
    <name>Randonnée dans l'après-midi</name>
  </metadata>
  <trk>
    <name><![CDATA[Randonnée dans l'après-midi_1]]></name>
    <trkseg>
      <trkpt lat="42.79747" lon="-0.01723">
        <ele>1454.6</ele>
        <time>2023-10-31T08:16:46Z</time>
      </trkpt>
      <trkpt lat="42.79747" lon="-0.01724">
        <ele>1454.5</ele>
        <time>2023-10-31T08:16:47Z</time>
      </trkpt>
      <trkpt lat="42.79747" lon="-0.01724">
        <ele>1454.5</ele>
        <time>2023-10-31T08:16:48Z</time>
      </trkpt>
      <trkpt lat="42.79747" lon="-0.01723">
        <ele>1454.5</ele>
        <time>2023-10-31T08:16:49Z</time>
      </trkpt>
      <trkpt lat="42.79747" lon="-0.01723">
        <ele>1454.5</ele>
        <time>2023-10-31T08:16:50Z</time>
      </trkpt>
      <trkpt lat="42.79747" lon="-0.01723">
        <ele>1454.5</ele>
        <time>2023-10-31T08:16:51Z</time>
      </trkpt>
      <trkpt lat="42.79747" lon="-0.01723">
        <ele>1454.5</ele>
        <time>2023-10-31T08:16:52Z</time>
      </trkpt>
      <trkpt lat="42.79747" lon="-0.01723">
        <ele>1454.5</ele>
        <time>2023-10-31T08:16:53Z</time>
      </trkpt>
      <trkpt lat="42.79747" lon="-0.01722">
        <ele>1454.5</ele>
        <time>2023-10-31T08:16:54Z</time>
      </trkpt>
      <trkpt lat="42.79747" lon="-0.01722">
        <ele>1454.5</ele>
        <time>2023-10-31T08:16:55Z</time>
      </trkpt>
      <trkpt lat="42.79747" lon="-0.01722">
        <ele>1454.5</ele>
        <time>2023-10-31T08:16:56Z</time>
      </trkpt>
      <trkpt lat="42.79747" lon="-0.01722">
        <ele>1454.5</ele>
        <time>2023-10-31T08:16:57Z</time>
      </trkpt>
      <trkpt lat="42.79747" lon="-0.01722">
        <ele>1454.5</ele>
        <time>2023-10-31T08:16:58Z</time>
      </trkpt>
      <trkpt lat="42.79748" lon="-0.01721">
        <ele>1454.5</ele>
        <time>2023-10-31T08:16:59Z</time>
      </trkpt>
      <trkpt lat="42.79748" lon="-0.01721">
        <ele>1454.5</ele>
        <time>2023-10-31T08:17:00Z</time>
      </trkpt>
      <trkpt lat="42.79748" lon="-0.01721">
        <ele>1454.4</ele>
        <time>2023-10-31T08:17:01Z</time>
      </trkpt>
      <trkpt lat="42.79748" lon="-0.01721">
        <ele>1454.4</ele>
        <time>2023-10-31T08:17:02Z</time>
      </trkpt>
      <trkpt lat="42.79748" lon="-0.01721">
        <ele>1454.4</ele>
        <time>2023-10-31T08:17:03Z</time>
      </trkpt>
      <trkpt lat="42.79748" lon="-0.0172">
        <ele>1454.4</ele>
        <time>2023-10-31T08:17:04Z</time>
      </trkpt>
      <trkpt lat="42.79748" lon="-0.0172">
        <ele>1454.4</ele>
        <time>2023-10-31T08:17:05Z</time>
      </trkpt>
      <trkpt lat="42.79748" lon="-0.0172">
        <ele>1454.4</ele>
        <time>2023-10-31T08:17:06Z</time>
      </trkpt>
      <trkpt lat="42.79748" lon="-0.0172">
        <ele>1454.4</ele>
        <time>2023-10-31T08:17:07Z</time>
      </trkpt>
      <trkpt lat="42.79748" lon="-0.0172">
        <ele>1454.4</ele>
        <time>2023-10-31T08:17:08Z</time>
      </trkpt>
      <trkpt lat="42.79748" lon="-0.01719">
        <ele>1454.4</ele>
        <time>2023-10-31T08:17:09Z</time>
      </trkpt>
      <trkpt lat="42.79748" lon="-0.01719">
        <ele>1454.4</ele>
        <time>2023-10-31T08:17:10Z</time>
      </trkpt>
      <trkpt lat="42.79748" lon="-0.01719">
        <ele>1454.4</ele>
        <time>2023-10-31T08:17:11Z</time>
      </trkpt>
      <trkpt lat="42.79748" lon="-0.01719">
        <ele>1454.4</ele>
        <time>2023-10-31T08:17:12Z</time>
      </trkpt>
      <trkpt lat="42.79748" lon="-0.01719">
        <ele>1454.4</ele>
        <time>2023-10-31T08:17:13Z</time>
      </trkpt>
      <trkpt lat="42.79748" lon="-0.01718">
        <ele>1454.4</ele>
        <time>2023-10-31T08:17:14Z</time>
      </trkpt>
      <trkpt lat="42.79748" lon="-0.01718">
        <ele>1454.4</ele>
        <time>2023-10-31T08:17:15Z</time>
      </trkpt>
      <trkpt lat="42.79748" lon="-0.01718">
        <ele>1454.4</ele>
        <time>2023-10-31T08:17:16Z</time>
      </trkpt>
      <trkpt lat="42.79749" lon="-0.01718">
        <ele>1454.4</ele>
        <time>2023-10-31T08:17:17Z</time>
      </trkpt>
      <trkpt lat="42.79748" lon="-0.01717">
        <ele>1454.3</ele>
        <time>2023-10-31T08:17:18Z</time>
      </trkpt>
      <trkpt lat="42.79746" lon="-0.01715">
        <ele>1454.3</ele>
        <time>2023-10-31T08:17:19Z</time>
      </trkpt>
      <trkpt lat="42.79746" lon="-0.01715">
        <ele>1454.2</ele>
        <time>2023-10-31T08:17:20Z</time>
      </trkpt>
      <trkpt lat="42.79746" lon="-0.01714">
        <ele>1454.2</ele>
        <time>2023-10-31T08:17:21Z</time>
      </trkpt>
      <trkpt lat="42.79745" lon="-0.01713">
        <ele>1454.2</ele>
        <time>2023-10-31T08:17:22Z</time>
      </trkpt>
      <trkpt lat="42.79745" lon="-0.01713">
        <ele>1454.2</ele>
        <time>2023-10-31T08:17:23Z</time>
      </trkpt>
      <trkpt lat="42.79745" lon="-0.01712">
        <ele>1454.1</ele>
        <time>2023-10-31T08:17:24Z</time>
      </trkpt>
      <trkpt lat="42.79744" lon="-0.01711">
        <ele>1454.1</ele>
        <time>2023-10-31T08:17:25Z</time>
      </trkpt>
      <trkpt lat="42.79743" lon="-0.01709">
        <ele>1454.1</ele>
        <time>2023-10-31T08:17:26Z</time>
      </trkpt>
      <trkpt lat="42.79743" lon="-0.01707">
        <ele>1454</ele>
        <time>2023-10-31T08:17:27Z</time>
      </trkpt>
      <trkpt lat="42.79742" lon="-0.01706">
        <ele>1454</ele>
        <time>2023-10-31T08:17:28Z</time>
      </trkpt>
      <trkpt lat="42.79743" lon="-0.01707">
        <ele>1453.9</ele>
        <time>2023-10-31T08:17:29Z</time>
      </trkpt>
      <trkpt lat="42.79744" lon="-0.01708">
        <ele>1453.9</ele>
        <time>2023-10-31T08:17:30Z</time>
      </trkpt>
      <trkpt lat="42.79744" lon="-0.01709">
        <ele>1453.9</ele>
        <time>2023-10-31T08:17:31Z</time>
      </trkpt>
      <trkpt lat="42.79745" lon="-0.0171">
        <ele>1453.8</ele>
        <time>2023-10-31T08:17:32Z</time>
      </trkpt>
      <trkpt lat="42.79745" lon="-0.01711">
        <ele>1453.8</ele>
        <time>2023-10-31T08:17:33Z</time>
      </trkpt>
      <trkpt lat="42.79746" lon="-0.01713">
        <ele>1453.7</ele>
        <time>2023-10-31T08:17:35Z</time>
      </trkpt>
      <trkpt lat="42.79746" lon="-0.01713">
        <ele>1453.7</ele>
        <time>2023-10-31T08:17:36Z</time>
      </trkpt>
      <trkpt lat="42.79746" lon="-0.01713">
        <ele>1453.7</ele>
        <time>2023-10-31T08:17:37Z</time>
      </trkpt>
      <trkpt lat="42.79745" lon="-0.01712">
        <ele>1453.7</ele>
        <time>2023-10-31T08:17:38Z</time>
      </trkpt>
      <trkpt lat="42.79745" lon="-0.01713">
        <ele>1453.7</ele>
        <time>2023-10-31T08:17:39Z</time>
      </trkpt>
      <trkpt lat="42.79745" lon="-0.01713">
        <ele>1453.7</ele>
        <time>2023-10-31T08:17:40Z</time>
      </trkpt>
      <trkpt lat="42.79745" lon="-0.01713">
        <ele>1453.7</ele>
        <time>2023-10-31T08:17:41Z</time>
      </trkpt>
      <trkpt lat="42.79744" lon="-0.01712">
        <ele>1453.6</ele>
        <time>2023-10-31T08:17:42Z</time>
      </trkpt>
      <trkpt lat="42.79744" lon="-0.01711">
        <ele>1453.6</ele>
        <time>2023-10-31T08:17:43Z</time>
      </trkpt>
      <trkpt lat="42.79744" lon="-0.01711">
        <ele>1453.6</ele>
        <time>2023-10-31T08:17:44Z</time>
      </trkpt>
      <trkpt lat="42.79743" lon="-0.01711">
        <ele>1453.6</ele>
        <time>2023-10-31T08:17:45Z</time>
      </trkpt>
      <trkpt lat="42.79743" lon="-0.0171">
        <ele>1453.6</ele>
        <time>2023-10-31T08:17:46Z</time>
      </trkpt>
      <trkpt lat="42.79743" lon="-0.0171">
        <ele>1453.6</ele>
        <time>2023-10-31T08:17:47Z</time>
      </trkpt>
      <trkpt lat="42.79743" lon="-0.0171">
        <ele>1453.6</ele>
        <time>2023-10-31T08:17:48Z</time>
      </trkpt>
      <trkpt lat="42.79743" lon="-0.0171">
        <ele>1453.6</ele>
        <time>2023-10-31T08:17:49Z</time>
      </trkpt>
      <trkpt lat="42.79743" lon="-0.0171">
        <ele>1453.6</ele>
        <time>2023-10-31T08:17:50Z</time>
      </trkpt>
      <trkpt lat="42.79743" lon="-0.0171">
        <ele>1453.6</ele>
        <time>2023-10-31T08:17:51Z</time>
      </trkpt>
      <trkpt lat="42.79744" lon="-0.01708">
        <ele>1453.5</ele>
        <time>2023-10-31T08:17:52Z</time>
      </trkpt>
      <trkpt lat="42.79744" lon="-0.01708">
        <ele>1453.5</ele>
        <time>2023-10-31T08:17:53Z</time>
      </trkpt>
      <trkpt lat="42.79743" lon="-0.01708">
        <ele>1453.4</ele>
        <time>2023-10-31T08:17:54Z</time>
      </trkpt>
      <trkpt lat="42.79743" lon="-0.01708">
        <ele>1453.4</ele>
        <time>2023-10-31T08:17:55Z</time>
      </trkpt>
      <trkpt lat="42.79743" lon="-0.01708">
        <ele>1453.4</ele>
        <time>2023-10-31T08:17:56Z</time>
      </trkpt>
      <trkpt lat="42.79743" lon="-0.01708">
        <ele>1453.4</ele>
        <time>2023-10-31T08:17:57Z</time>
      </trkpt>
      <trkpt lat="42.7974" lon="-0.01708">
        <ele>1453.3</ele>
        <time>2023-10-31T08:17:58Z</time>
      </trkpt>
      <trkpt lat="42.7974" lon="-0.01708">
        <ele>1453.3</ele>
        <time>2023-10-31T08:17:59Z</time>
      </trkpt>
      <trkpt lat="42.7974" lon="-0.01708">
        <ele>1453.3</ele>
        <time>2023-10-31T08:18:00Z</time>
      </trkpt>
      <trkpt lat="42.7974" lon="-0.01708">
        <ele>1453.3</ele>
        <time>2023-10-31T08:18:01Z</time>
      </trkpt>
      <trkpt lat="42.7974" lon="-0.01708">
        <ele>1453.3</ele>
        <time>2023-10-31T08:18:02Z</time>
      </trkpt>
      <trkpt lat="42.7974" lon="-0.01708">
        <ele>1453.3</ele>
        <time>2023-10-31T08:18:03Z</time>
      </trkpt>
      <trkpt lat="42.7974" lon="-0.01708">
        <ele>1453.3</ele>
        <time>2023-10-31T08:18:04Z</time>
      </trkpt>
      <trkpt lat="42.7974" lon="-0.01708">
        <ele>1453.3</ele>
        <time>2023-10-31T08:18:05Z</time>
      </trkpt>
      <trkpt lat="42.7974" lon="-0.01708">
        <ele>1453.3</ele>
        <time>2023-10-31T08:18:06Z</time>
      </trkpt>
      <trkpt lat="42.79741" lon="-0.01708">
        <ele>1453.3</ele>
        <time>2023-10-31T08:18:07Z</time>
      </trkpt>
      <trkpt lat="42.7974" lon="-0.0171">
        <ele>1453.3</ele>
        <time>2023-10-31T08:18:08Z</time>
      </trkpt>
      <trkpt lat="42.7974" lon="-0.0171">
        <ele>1453.3</ele>
        <time>2023-10-31T08:18:09Z</time>
      </trkpt>
      <trkpt lat="42.7974" lon="-0.0171">
        <ele>1453.3</ele>
        <time>2023-10-31T08:18:10Z</time>
      </trkpt>
      <trkpt lat="42.79741" lon="-0.01708">
        <ele>1453.2</ele>
        <time>2023-10-31T08:18:11Z</time>
      </trkpt>
      <trkpt lat="42.79742" lon="-0.01708">
        <ele>1453.2</ele>
        <time>2023-10-31T08:18:12Z</time>
      </trkpt>
      <trkpt lat="42.79742" lon="-0.01708">
        <ele>1453.2</ele>
        <time>2023-10-31T08:18:13Z</time>
      </trkpt>
      <trkpt lat="42.79742" lon="-0.01708">
        <ele>1453.2</ele>
        <time>2023-10-31T08:18:14Z</time>
      </trkpt>
      <trkpt lat="42.79743" lon="-0.01708">
        <ele>1453.1</ele>
        <time>2023-10-31T08:18:15Z</time>
      </trkpt>
      <trkpt lat="42.79743" lon="-0.01708">
        <ele>1453.1</ele>
        <time>2023-10-31T08:18:16Z</time>
      </trkpt>
      <trkpt lat="42.79743" lon="-0.01708">
        <ele>1453.1</ele>
        <time>2023-10-31T08:18:17Z</time>
      </trkpt>
      <trkpt lat="42.79743" lon="-0.01708">
        <ele>1453.1</ele>
        <time>2023-10-31T08:18:18Z</time>
      </trkpt>
      <trkpt lat="42.79743" lon="-0.01708">
        <ele>1453.1</ele>
        <time>2023-10-31T08:18:19Z</time>
      </trkpt>
      <trkpt lat="42.79743" lon="-0.01708">
        <ele>1453.1</ele>
        <time>2023-10-31T08:18:20Z</time>
      </trkpt>
      <trkpt lat="42.79744" lon="-0.01707">
        <ele>1453.1</ele>
        <time>2023-10-31T08:18:21Z</time>
      </trkpt>
      <trkpt lat="42.79744" lon="-0.01707">
        <ele>1453.1</ele>
        <time>2023-10-31T08:18:22Z</time>
      </trkpt>
      <trkpt lat="42.79744" lon="-0.01707">
        <ele>1453.1</ele>
        <time>2023-10-31T08:18:23Z</time>
      </trkpt>
      <trkpt lat="42.79744" lon="-0.01707">
        <ele>1453.1</ele>
        <time>2023-10-31T08:18:24Z</time>
      </trkpt>
      <trkpt lat="42.79744" lon="-0.01707">
        <ele>1453.1</ele>
        <time>2023-10-31T08:18:25Z</time>
      </trkpt>
      <trkpt lat="42.79746" lon="-0.01708">
        <ele>1453</ele>
        <time>2023-10-31T08:18:26Z</time>
      </trkpt>
      <trkpt lat="42.79747" lon="-0.01709">
        <ele>1453</ele>
        <time>2023-10-31T08:18:27Z</time>
      </trkpt>
      <trkpt lat="42.79747" lon="-0.01709">
        <ele>1453</ele>
        <time>2023-10-31T08:18:28Z</time>
      </trkpt>
      <trkpt lat="42.79747" lon="-0.01709">
        <ele>1453</ele>
        <time>2023-10-31T08:18:29Z</time>
      </trkpt>
      <trkpt lat="42.79747" lon="-0.01709">
        <ele>1453</ele>
        <time>2023-10-31T08:18:30Z</time>
      </trkpt>
      <trkpt lat="42.79747" lon="-0.0171">
        <ele>1453</ele>
        <time>2023-10-31T08:18:31Z</time>
      </trkpt>
      <trkpt lat="42.79747" lon="-0.0171">
        <ele>1453</ele>
        <time>2023-10-31T08:18:32Z</time>
      </trkpt>
      <trkpt lat="42.79747" lon="-0.0171">
        <ele>1452.9</ele>
        <time>2023-10-31T08:18:33Z</time>
      </trkpt>
      <trkpt lat="42.79747" lon="-0.01711">
        <ele>1452.9</ele>
        <time>2023-10-31T08:18:34Z</time>
      </trkpt>
      <trkpt lat="42.79747" lon="-0.01711">
        <ele>1452.9</ele>
        <time>2023-10-31T08:18:35Z</time>
      </trkpt>
      <trkpt lat="42.79747" lon="-0.01711">
        <ele>1452.9</ele>
        <time>2023-10-31T08:18:36Z</time>
      </trkpt>
      <trkpt lat="42.79747" lon="-0.01711">
        <ele>1452.9</ele>
        <time>2023-10-31T08:18:37Z</time>
      </trkpt>
      <trkpt lat="42.79747" lon="-0.01712">
        <ele>1452.9</ele>
        <time>2023-10-31T08:18:38Z</time>
      </trkpt>
      <trkpt lat="42.79747" lon="-0.01712">
        <ele>1452.9</ele>
        <time>2023-10-31T08:18:39Z</time>
      </trkpt>
      <trkpt lat="42.79748" lon="-0.01712">
        <ele>1452.9</ele>
        <time>2023-10-31T08:18:40Z</time>
      </trkpt>
      <trkpt lat="42.79748" lon="-0.01713">
        <ele>1452.9</ele>
        <time>2023-10-31T08:18:41Z</time>
      </trkpt>
      <trkpt lat="42.79748" lon="-0.01715">
        <ele>1452.8</ele>
        <time>2023-10-31T08:18:42Z</time>
      </trkpt>
      <trkpt lat="42.79748" lon="-0.01716">
        <ele>1452.8</ele>
        <time>2023-10-31T08:18:43Z</time>
      </trkpt>
      <trkpt lat="42.79748" lon="-0.01718">
        <ele>1452.7</ele>
        <time>2023-10-31T08:18:44Z</time>
      </trkpt>
      <trkpt lat="42.79747" lon="-0.01719">
        <ele>1452.7</ele>
        <time>2023-10-31T08:18:45Z</time>
      </trkpt>
      <trkpt lat="42.79747" lon="-0.0172">
        <ele>1452.7</ele>
        <time>2023-10-31T08:18:46Z</time>
      </trkpt>
      <trkpt lat="42.79747" lon="-0.01721">
        <ele>1452.6</ele>
        <time>2023-10-31T08:18:47Z</time>
      </trkpt>
      <trkpt lat="42.79747" lon="-0.01722">
        <ele>1452.6</ele>
        <time>2023-10-31T08:18:48Z</time>
      </trkpt>
      <trkpt lat="42.79747" lon="-0.01722">
        <ele>1452.6</ele>
        <time>2023-10-31T08:18:49Z</time>
      </trkpt>
      <trkpt lat="42.79747" lon="-0.01722">
        <ele>1452.6</ele>
        <time>2023-10-31T08:18:50Z</time>
      </trkpt>
      <trkpt lat="42.79747" lon="-0.01721">
        <ele>1452.6</ele>
        <time>2023-10-31T08:18:51Z</time>
      </trkpt>
      <trkpt lat="42.79747" lon="-0.01721">
        <ele>1452.6</ele>
        <time>2023-10-31T08:18:52Z</time>
      </trkpt>
      <trkpt lat="42.79747" lon="-0.01721">
        <ele>1452.6</ele>
        <time>2023-10-31T08:18:53Z</time>
      </trkpt>
      <trkpt lat="42.79747" lon="-0.0172">
        <ele>1452.6</ele>
        <time>2023-10-31T08:18:54Z</time>
      </trkpt>
      <trkpt lat="42.79747" lon="-0.0172">
        <ele>1452.6</ele>
        <time>2023-10-31T08:18:55Z</time>
      </trkpt>
      <trkpt lat="42.79747" lon="-0.0172">
        <ele>1452.5</ele>
        <time>2023-10-31T08:18:56Z</time>
      </trkpt>
      <trkpt lat="42.79747" lon="-0.01719">
        <ele>1452.5</ele>
        <time>2023-10-31T08:18:57Z</time>
      </trkpt>
      <trkpt lat="42.79748" lon="-0.01719">
        <ele>1452.5</ele>
        <time>2023-10-31T08:18:58Z</time>
      </trkpt>
      <trkpt lat="42.79748" lon="-0.01718">
        <ele>1452.5</ele>
        <time>2023-10-31T08:18:59Z</time>
      </trkpt>
      <trkpt lat="42.79748" lon="-0.01718">
        <ele>1452.5</ele>
        <time>2023-10-31T08:19:00Z</time>
      </trkpt>
      <trkpt lat="42.79748" lon="-0.01718">
        <ele>1452.5</ele>
        <time>2023-10-31T08:19:01Z</time>
      </trkpt>
      <trkpt lat="42.79748" lon="-0.01717">
        <ele>1452.5</ele>
        <time>2023-10-31T08:19:02Z</time>
      </trkpt>
      <trkpt lat="42.79748" lon="-0.01717">
        <ele>1452.5</ele>
        <time>2023-10-31T08:19:03Z</time>
      </trkpt>
      <trkpt lat="42.79748" lon="-0.01717">
        <ele>1452.5</ele>
        <time>2023-10-31T08:19:04Z</time>
      </trkpt>
      <trkpt lat="42.79748" lon="-0.01717">
        <ele>1452.5</ele>
        <time>2023-10-31T08:19:05Z</time>
      </trkpt>
      <trkpt lat="42.79748" lon="-0.0172">
        <ele>1452.4</ele>
        <time>2023-10-31T08:19:06Z</time>
      </trkpt>
      <trkpt lat="42.79748" lon="-0.0172">
        <ele>1452.4</ele>
        <time>2023-10-31T08:19:07Z</time>
      </trkpt>
      <trkpt lat="42.79747" lon="-0.01718">
        <ele>1452.4</ele>
        <time>2023-10-31T08:19:08Z</time>
      </trkpt>
      <trkpt lat="42.79747" lon="-0.01717">
        <ele>1452.3</ele>
        <time>2023-10-31T08:19:09Z</time>
      </trkpt>
      <trkpt lat="42.79746" lon="-0.01717">
        <ele>1452.3</ele>
        <time>2023-10-31T08:19:10Z</time>
      </trkpt>
      <trkpt lat="42.79747" lon="-0.01718">
        <ele>1452.3</ele>
        <time>2023-10-31T08:19:11Z</time>
      </trkpt>
      <trkpt lat="42.79747" lon="-0.01718">
        <ele>1452.3</ele>
        <time>2023-10-31T08:19:12Z</time>
      </trkpt>
      <trkpt lat="42.79746" lon="-0.01718">
        <ele>1452.3</ele>
        <time>2023-10-31T08:19:13Z</time>
      </trkpt>
      <trkpt lat="42.79746" lon="-0.01718">
        <ele>1452.3</ele>
        <time>2023-10-31T08:19:14Z</time>
      </trkpt>
      <trkpt lat="42.79746" lon="-0.01718">
        <ele>1452.3</ele>
        <time>2023-10-31T08:19:15Z</time>
      </trkpt>
      <trkpt lat="42.79745" lon="-0.01717">
        <ele>1452.2</ele>
        <time>2023-10-31T08:19:16Z</time>
      </trkpt>
      <trkpt lat="42.79746" lon="-0.01717">
        <ele>1452.2</ele>
        <time>2023-10-31T08:19:17Z</time>
      </trkpt>
      <trkpt lat="42.79746" lon="-0.01718">
        <ele>1452.2</ele>
        <time>2023-10-31T08:19:18Z</time>
      </trkpt>
      <trkpt lat="42.79746" lon="-0.01718">
        <ele>1452.2</ele>
        <time>2023-10-31T08:19:19Z</time>
      </trkpt>
      <trkpt lat="42.79747" lon="-0.01718">
        <ele>1452.2</ele>
        <time>2023-10-31T08:19:20Z</time>
      </trkpt>
      <trkpt lat="42.79746" lon="-0.01718">
        <ele>1452.2</ele>
        <time>2023-10-31T08:19:21Z</time>
      </trkpt>
      <trkpt lat="42.79746" lon="-0.01718">
        <ele>1452.2</ele>
        <time>2023-10-31T08:19:22Z</time>
      </trkpt>
      <trkpt lat="42.79746" lon="-0.01718">
        <ele>1452.2</ele>
        <time>2023-10-31T08:19:23Z</time>
      </trkpt>
      <trkpt lat="42.79746" lon="-0.01718">
        <ele>1452.2</ele>
        <time>2023-10-31T08:19:24Z</time>
      </trkpt>
      <trkpt lat="42.79746" lon="-0.01718">
        <ele>1452.2</ele>
        <time>2023-10-31T08:19:25Z</time>
      </trkpt>
      <trkpt lat="42.79747" lon="-0.01719">
        <ele>1452.2</ele>
        <time>2023-10-31T08:19:26Z</time>
      </trkpt>
      <trkpt lat="42.79747" lon="-0.01718">
        <ele>1452.1</ele>
        <time>2023-10-31T08:19:27Z</time>
      </trkpt>
      <trkpt lat="42.79747" lon="-0.01719">
        <ele>1452.1</ele>
        <time>2023-10-31T08:19:28Z</time>
      </trkpt>
      <trkpt lat="42.79747" lon="-0.0172">
        <ele>1452.1</ele>
        <time>2023-10-31T08:19:29Z</time>
      </trkpt>
      <trkpt lat="42.79747" lon="-0.0172">
        <ele>1452.1</ele>
        <time>2023-10-31T08:19:30Z</time>
      </trkpt>
      <trkpt lat="42.79747" lon="-0.01721">
        <ele>1452</ele>
        <time>2023-10-31T08:19:31Z</time>
      </trkpt>
      <trkpt lat="42.79747" lon="-0.0172">
        <ele>1452</ele>
        <time>2023-10-31T08:19:32Z</time>
      </trkpt>
      <trkpt lat="42.79746" lon="-0.01721">
        <ele>1452</ele>
        <time>2023-10-31T08:19:33Z</time>
      </trkpt>
      <trkpt lat="42.79747" lon="-0.01721">
        <ele>1452</ele>
        <time>2023-10-31T08:19:34Z</time>
      </trkpt>
      <trkpt lat="42.79747" lon="-0.01721">
        <ele>1452</ele>
        <time>2023-10-31T08:19:35Z</time>
      </trkpt>
      <trkpt lat="42.79747" lon="-0.01721">
        <ele>1452</ele>
        <time>2023-10-31T08:19:36Z</time>
      </trkpt>
      <trkpt lat="42.79747" lon="-0.01721">
        <ele>1452</ele>
        <time>2023-10-31T08:19:37Z</time>
      </trkpt>
      <trkpt lat="42.79747" lon="-0.01721">
        <ele>1452</ele>
        <time>2023-10-31T08:19:38Z</time>
      </trkpt>
      <trkpt lat="42.79747" lon="-0.0172">
        <ele>1452</ele>
        <time>2023-10-31T08:19:39Z</time>
      </trkpt>
      <trkpt lat="42.79747" lon="-0.0172">
        <ele>1452</ele>
        <time>2023-10-31T08:19:41Z</time>
      </trkpt>
      <trkpt lat="42.79747" lon="-0.0172">
        <ele>1452</ele>
        <time>2023-10-31T08:19:42Z</time>
      </trkpt>
      <trkpt lat="42.79747" lon="-0.0172">
        <ele>1452</ele>
        <time>2023-10-31T08:19:43Z</time>
      </trkpt>
      <trkpt lat="42.79747" lon="-0.0172">
        <ele>1452</ele>
        <time>2023-10-31T08:19:44Z</time>
      </trkpt>
      <trkpt lat="42.79747" lon="-0.0172">
        <ele>1452</ele>
        <time>2023-10-31T08:19:45Z</time>
      </trkpt>
      <trkpt lat="42.79747" lon="-0.0172">
        <ele>1452</ele>
        <time>2023-10-31T08:19:46Z</time>
      </trkpt>
      <trkpt lat="42.79747" lon="-0.0172">
        <ele>1452</ele>
        <time>2023-10-31T08:19:47Z</time>
      </trkpt>
      <trkpt lat="42.79747" lon="-0.0172">
        <ele>1452</ele>
        <time>2023-10-31T08:19:48Z</time>
      </trkpt>
      <trkpt lat="42.79747" lon="-0.0172">
        <ele>1452</ele>
        <time>2023-10-31T08:19:49Z</time>
      </trkpt>
      <trkpt lat="42.79747" lon="-0.0172">
        <ele>1452</ele>
        <time>2023-10-31T08:19:50Z</time>
      </trkpt>
      <trkpt lat="42.79747" lon="-0.0172">
        <ele>1451.9</ele>
        <time>2023-10-31T08:19:51Z</time>
      </trkpt>
      <trkpt lat="42.79747" lon="-0.0172">
        <ele>1451.9</ele>
        <time>2023-10-31T08:19:52Z</time>
      </trkpt>
      <trkpt lat="42.79747" lon="-0.0172">
        <ele>1451.9</ele>
        <time>2023-10-31T08:19:53Z</time>
      </trkpt>
      <trkpt lat="42.79747" lon="-0.01719">
        <ele>1451.9</ele>
        <time>2023-10-31T08:19:54Z</time>
      </trkpt>
      <trkpt lat="42.79747" lon="-0.01719">
        <ele>1451.9</ele>
        <time>2023-10-31T08:19:55Z</time>
      </trkpt>
      <trkpt lat="42.79747" lon="-0.01719">
        <ele>1451.9</ele>
        <time>2023-10-31T08:19:56Z</time>
      </trkpt>
      <trkpt lat="42.79747" lon="-0.01719">
        <ele>1451.9</ele>
        <time>2023-10-31T08:19:57Z</time>
      </trkpt>
      <trkpt lat="42.79747" lon="-0.01719">
        <ele>1451.9</ele>
        <time>2023-10-31T08:19:58Z</time>
      </trkpt>
      <trkpt lat="42.79747" lon="-0.01719">
        <ele>1451.9</ele>
        <time>2023-10-31T08:19:59Z</time>
      </trkpt>
      <trkpt lat="42.79746" lon="-0.01719">
        <ele>1451.9</ele>
        <time>2023-10-31T08:20:00Z</time>
      </trkpt>
      <trkpt lat="42.79746" lon="-0.01719">
        <ele>1451.9</ele>
        <time>2023-10-31T08:20:01Z</time>
      </trkpt>
      <trkpt lat="42.79746" lon="-0.01719">
        <ele>1451.9</ele>
        <time>2023-10-31T08:20:02Z</time>
      </trkpt>
      <trkpt lat="42.79746" lon="-0.01719">
        <ele>1451.9</ele>
        <time>2023-10-31T08:20:03Z</time>
      </trkpt>
      <trkpt lat="42.79746" lon="-0.01719">
        <ele>1451.9</ele>
        <time>2023-10-31T08:20:04Z</time>
      </trkpt>
      <trkpt lat="42.79746" lon="-0.01719">
        <ele>1451.9</ele>
        <time>2023-10-31T08:20:05Z</time>
      </trkpt>
      <trkpt lat="42.79746" lon="-0.01719">
        <ele>1451.9</ele>
        <time>2023-10-31T08:20:06Z</time>
      </trkpt>
      <trkpt lat="42.79746" lon="-0.01719">
        <ele>1451.9</ele>
        <time>2023-10-31T08:20:07Z</time>
      </trkpt>
      <trkpt lat="42.79746" lon="-0.01718">
        <ele>1451.9</ele>
        <time>2023-10-31T08:20:08Z</time>
      </trkpt>
      <trkpt lat="42.79746" lon="-0.01718">
        <ele>1451.9</ele>
        <time>2023-10-31T08:20:09Z</time>
      </trkpt>
      <trkpt lat="42.79746" lon="-0.01718">
        <ele>1451.9</ele>
        <time>2023-10-31T08:20:10Z</time>
      </trkpt>
      <trkpt lat="42.79746" lon="-0.01718">
        <ele>1451.9</ele>
        <time>2023-10-31T08:20:11Z</time>
      </trkpt>
      <trkpt lat="42.79746" lon="-0.01718">
        <ele>1451.9</ele>
        <time>2023-10-31T08:20:12Z</time>
      </trkpt>
      <trkpt lat="42.79746" lon="-0.01718">
        <ele>1451.9</ele>
        <time>2023-10-31T08:20:13Z</time>
      </trkpt>
      <trkpt lat="42.79746" lon="-0.01718">
        <ele>1451.9</ele>
        <time>2023-10-31T08:20:14Z</time>
      </trkpt>
      <trkpt lat="42.79746" lon="-0.01718">
        <ele>1451.9</ele>
        <time>2023-10-31T08:20:15Z</time>
      </trkpt>
      <trkpt lat="42.79746" lon="-0.01718">
        <ele>1451.9</ele>
        <time>2023-10-31T08:20:16Z</time>
      </trkpt>
      <trkpt lat="42.79746" lon="-0.01718">
        <ele>1451.9</ele>
        <time>2023-10-31T08:20:17Z</time>
      </trkpt>
      <trkpt lat="42.79746" lon="-0.01718">
        <ele>1451.9</ele>
        <time>2023-10-31T08:20:18Z</time>
      </trkpt>
      <trkpt lat="42.79746" lon="-0.01718">
        <ele>1451.9</ele>
        <time>2023-10-31T08:20:19Z</time>
      </trkpt>
      <trkpt lat="42.79746" lon="-0.01718">
        <ele>1451.9</ele>
        <time>2023-10-31T08:20:20Z</time>
      </trkpt>
      <trkpt lat="42.79746" lon="-0.01718">
        <ele>1451.9</ele>
        <time>2023-10-31T08:20:21Z</time>
      </trkpt>
      <trkpt lat="42.79746" lon="-0.01717">
        <ele>1451.9</ele>
        <time>2023-10-31T08:20:22Z</time>
      </trkpt>
      <trkpt lat="42.79746" lon="-0.01717">
        <ele>1451.9</ele>
        <time>2023-10-31T08:20:23Z</time>
      </trkpt>
      <trkpt lat="42.79746" lon="-0.01717">
        <ele>1451.9</ele>
        <time>2023-10-31T08:20:24Z</time>
      </trkpt>
      <trkpt lat="42.79746" lon="-0.01717">
        <ele>1451.9</ele>
        <time>2023-10-31T08:20:25Z</time>
      </trkpt>
      <trkpt lat="42.79746" lon="-0.01717">
        <ele>1451.9</ele>
        <time>2023-10-31T08:20:26Z</time>
      </trkpt>
      <trkpt lat="42.79746" lon="-0.01717">
        <ele>1451.9</ele>
        <time>2023-10-31T08:20:27Z</time>
      </trkpt>
      <trkpt lat="42.79746" lon="-0.01717">
        <ele>1451.9</ele>
        <time>2023-10-31T08:20:28Z</time>
      </trkpt>
      <trkpt lat="42.79746" lon="-0.01717">
        <ele>1451.9</ele>
        <time>2023-10-31T08:20:29Z</time>
      </trkpt>
      <trkpt lat="42.79746" lon="-0.01717">
        <ele>1451.9</ele>
        <time>2023-10-31T08:20:30Z</time>
      </trkpt>
      <trkpt lat="42.79746" lon="-0.01717">
        <ele>1451.9</ele>
        <time>2023-10-31T08:20:31Z</time>
      </trkpt>
      <trkpt lat="42.79746" lon="-0.01717">
        <ele>1451.9</ele>
        <time>2023-10-31T08:20:32Z</time>
      </trkpt>
      <trkpt lat="42.79746" lon="-0.01717">
        <ele>1451.9</ele>
        <time>2023-10-31T08:20:33Z</time>
      </trkpt>
      <trkpt lat="42.79746" lon="-0.01717">
        <ele>1451.9</ele>
        <time>2023-10-31T08:20:34Z</time>
      </trkpt>
      <trkpt lat="42.79746" lon="-0.01717">
        <ele>1451.9</ele>
        <time>2023-10-31T08:20:35Z</time>
      </trkpt>
      <trkpt lat="42.79746" lon="-0.01716">
        <ele>1451.9</ele>
        <time>2023-10-31T08:20:36Z</time>
      </trkpt>
      <trkpt lat="42.79746" lon="-0.01716">
        <ele>1451.9</ele>
        <time>2023-10-31T08:20:37Z</time>
      </trkpt>
      <trkpt lat="42.79746" lon="-0.01716">
        <ele>1451.9</ele>
        <time>2023-10-31T08:20:38Z</time>
      </trkpt>
      <trkpt lat="42.79746" lon="-0.01716">
        <ele>1451.9</ele>
        <time>2023-10-31T08:20:39Z</time>
      </trkpt>
      <trkpt lat="42.79746" lon="-0.01716">
        <ele>1451.9</ele>
        <time>2023-10-31T08:20:40Z</time>
      </trkpt>
      <trkpt lat="42.79746" lon="-0.01716">
        <ele>1451.9</ele>
        <time>2023-10-31T08:20:41Z</time>
      </trkpt>
      <trkpt lat="42.79746" lon="-0.01716">
        <ele>1451.9</ele>
        <time>2023-10-31T08:20:42Z</time>
      </trkpt>
      <trkpt lat="42.79746" lon="-0.01716">
        <ele>1451.9</ele>
        <time>2023-10-31T08:20:43Z</time>
      </trkpt>
      <trkpt lat="42.79746" lon="-0.01716">
        <ele>1451.8</ele>
        <time>2023-10-31T08:20:44Z</time>
      </trkpt>
      <trkpt lat="42.79746" lon="-0.01716">
        <ele>1451.8</ele>
        <time>2023-10-31T08:20:45Z</time>
      </trkpt>
      <trkpt lat="42.79746" lon="-0.01715">
        <ele>1451.8</ele>
        <time>2023-10-31T08:20:46Z</time>
      </trkpt>
      <trkpt lat="42.79746" lon="-0.01714">
        <ele>1451.8</ele>
        <time>2023-10-31T08:20:47Z</time>
      </trkpt>
      <trkpt lat="42.79745" lon="-0.01712">
        <ele>1451.7</ele>
        <time>2023-10-31T08:20:48Z</time>
      </trkpt>
      <trkpt lat="42.79745" lon="-0.01711">
        <ele>1451.7</ele>
        <time>2023-10-31T08:20:49Z</time>
      </trkpt>
      <trkpt lat="42.79745" lon="-0.0171">
        <ele>1451.7</ele>
        <time>2023-10-31T08:20:50Z</time>
      </trkpt>
      <trkpt lat="42.79745" lon="-0.01708">
        <ele>1451.6</ele>
        <time>2023-10-31T08:20:51Z</time>
      </trkpt>
      <trkpt lat="42.79745" lon="-0.01707">
        <ele>1451.6</ele>
        <time>2023-10-31T08:20:52Z</time>
      </trkpt>
      <trkpt lat="42.79745" lon="-0.01704">
        <ele>1451.5</ele>
        <time>2023-10-31T08:20:53Z</time>
      </trkpt>
      <trkpt lat="42.79744" lon="-0.01703">
        <ele>1451.5</ele>
        <time>2023-10-31T08:20:54Z</time>
      </trkpt>
      <trkpt lat="42.79744" lon="-0.01702">
        <ele>1451.5</ele>
        <time>2023-10-31T08:20:55Z</time>
      </trkpt>
      <trkpt lat="42.79743" lon="-0.01699">
        <ele>1451.4</ele>
        <time>2023-10-31T08:20:56Z</time>
      </trkpt>
      <trkpt lat="42.79742" lon="-0.01698">
        <ele>1451.4</ele>
        <time>2023-10-31T08:20:57Z</time>
      </trkpt>
      <trkpt lat="42.79742" lon="-0.01697">
        <ele>1451.3</ele>
        <time>2023-10-31T08:20:58Z</time>
      </trkpt>
      <trkpt lat="42.79741" lon="-0.01696">
        <ele>1451.3</ele>
        <time>2023-10-31T08:20:59Z</time>
      </trkpt>
      <trkpt lat="42.79741" lon="-0.01696">
        <ele>1451.3</ele>
        <time>2023-10-31T08:21:00Z</time>
      </trkpt>
      <trkpt lat="42.79741" lon="-0.01697">
        <ele>1451.3</ele>
        <time>2023-10-31T08:21:01Z</time>
      </trkpt>
      <trkpt lat="42.7974" lon="-0.01696">
        <ele>1451.2</ele>
        <time>2023-10-31T08:21:02Z</time>
      </trkpt>
      <trkpt lat="42.7974" lon="-0.01694">
        <ele>1451.2</ele>
        <time>2023-10-31T08:21:03Z</time>
      </trkpt>
      <trkpt lat="42.79738" lon="-0.01692">
        <ele>1451.1</ele>
        <time>2023-10-31T08:21:04Z</time>
      </trkpt>
      <trkpt lat="42.79737" lon="-0.01693">
        <ele>1451.1</ele>
        <time>2023-10-31T08:21:05Z</time>
      </trkpt>
      <trkpt lat="42.79736" lon="-0.01693">
        <ele>1451</ele>
        <time>2023-10-31T08:21:06Z</time>
      </trkpt>
      <trkpt lat="42.79734" lon="-0.01691">
        <ele>1450.9</ele>
        <time>2023-10-31T08:21:07Z</time>
      </trkpt>
      <trkpt lat="42.79732" lon="-0.0169">
        <ele>1450.9</ele>
        <time>2023-10-31T08:21:08Z</time>
      </trkpt>
      <trkpt lat="42.79733" lon="-0.01691">
        <ele>1450.9</ele>
        <time>2023-10-31T08:21:09Z</time>
      </trkpt>
      <trkpt lat="42.79734" lon="-0.01692">
        <ele>1450.8</ele>
        <time>2023-10-31T08:21:10Z</time>
      </trkpt>
      <trkpt lat="42.79735" lon="-0.01693">
        <ele>1450.8</ele>
        <time>2023-10-31T08:21:11Z</time>
      </trkpt>
      <trkpt lat="42.79735" lon="-0.01693">
        <ele>1450.7</ele>
        <time>2023-10-31T08:21:12Z</time>
      </trkpt>
      <trkpt lat="42.79734" lon="-0.01692">
        <ele>1450.7</ele>
        <time>2023-10-31T08:21:13Z</time>
      </trkpt>
      <trkpt lat="42.79734" lon="-0.01691">
        <ele>1450.7</ele>
        <time>2023-10-31T08:21:14Z</time>
      </trkpt>
      <trkpt lat="42.79734" lon="-0.01691">
        <ele>1450.7</ele>
        <time>2023-10-31T08:21:15Z</time>
      </trkpt>
      <trkpt lat="42.79733" lon="-0.0169">
        <ele>1450.6</ele>
        <time>2023-10-31T08:21:16Z</time>
      </trkpt>
      <trkpt lat="42.79733" lon="-0.01689">
        <ele>1450.6</ele>
        <time>2023-10-31T08:21:17Z</time>
      </trkpt>
      <trkpt lat="42.79732" lon="-0.01689">
        <ele>1450.6</ele>
        <time>2023-10-31T08:21:18Z</time>
      </trkpt>
      <trkpt lat="42.79732" lon="-0.01688">
        <ele>1450.5</ele>
        <time>2023-10-31T08:21:19Z</time>
      </trkpt>
      <trkpt lat="42.79731" lon="-0.01688">
        <ele>1450.5</ele>
        <time>2023-10-31T08:21:20Z</time>
      </trkpt>
      <trkpt lat="42.7973" lon="-0.01687">
        <ele>1450.5</ele>
        <time>2023-10-31T08:21:21Z</time>
      </trkpt>
      <trkpt lat="42.7973" lon="-0.01686">
        <ele>1450.4</ele>
        <time>2023-10-31T08:21:22Z</time>
      </trkpt>
      <trkpt lat="42.7973" lon="-0.01686">
        <ele>1450.4</ele>
        <time>2023-10-31T08:21:23Z</time>
      </trkpt>
      <trkpt lat="42.79728" lon="-0.01684">
        <ele>1450.4</ele>
        <time>2023-10-31T08:21:24Z</time>
      </trkpt>
      <trkpt lat="42.79727" lon="-0.01685">
        <ele>1450.3</ele>
        <time>2023-10-31T08:21:25Z</time>
      </trkpt>
      <trkpt lat="42.79727" lon="-0.01684">
        <ele>1450.3</ele>
        <time>2023-10-31T08:21:26Z</time>
      </trkpt>
      <trkpt lat="42.79728" lon="-0.01682">
        <ele>1450.3</ele>
        <time>2023-10-31T08:21:27Z</time>
      </trkpt>
      <trkpt lat="42.79727" lon="-0.01681">
        <ele>1450.2</ele>
        <time>2023-10-31T08:21:28Z</time>
      </trkpt>
      <trkpt lat="42.79726" lon="-0.01681">
        <ele>1450.2</ele>
        <time>2023-10-31T08:21:29Z</time>
      </trkpt>
      <trkpt lat="42.79725" lon="-0.01681">
        <ele>1450.1</ele>
        <time>2023-10-31T08:21:30Z</time>
      </trkpt>
      <trkpt lat="42.79724" lon="-0.01681">
        <ele>1450.1</ele>
        <time>2023-10-31T08:21:31Z</time>
      </trkpt>
      <trkpt lat="42.79723" lon="-0.01681">
        <ele>1450.1</ele>
        <time>2023-10-31T08:21:32Z</time>
      </trkpt>
      <trkpt lat="42.79722" lon="-0.01679">
        <ele>1450</ele>
        <time>2023-10-31T08:21:33Z</time>
      </trkpt>
      <trkpt lat="42.79722" lon="-0.01678">
        <ele>1450</ele>
        <time>2023-10-31T08:21:34Z</time>
      </trkpt>
      <trkpt lat="42.79722" lon="-0.01677">
        <ele>1450</ele>
        <time>2023-10-31T08:21:35Z</time>
      </trkpt>
      <trkpt lat="42.79721" lon="-0.01676">
        <ele>1449.9</ele>
        <time>2023-10-31T08:21:36Z</time>
      </trkpt>
      <trkpt lat="42.79721" lon="-0.01674">
        <ele>1449.9</ele>
        <time>2023-10-31T08:21:37Z</time>
      </trkpt>
      <trkpt lat="42.7972" lon="-0.01673">
        <ele>1449.8</ele>
        <time>2023-10-31T08:21:38Z</time>
      </trkpt>
      <trkpt lat="42.79719" lon="-0.01672">
        <ele>1449.8</ele>
        <time>2023-10-31T08:21:39Z</time>
      </trkpt>
      <trkpt lat="42.79719" lon="-0.01672">
        <ele>1449.8</ele>
        <time>2023-10-31T08:21:40Z</time>
      </trkpt>
      <trkpt lat="42.79719" lon="-0.01672">
        <ele>1449.8</ele>
        <time>2023-10-31T08:21:41Z</time>
      </trkpt>
      <trkpt lat="42.79719" lon="-0.01673">
        <ele>1449.7</ele>
        <time>2023-10-31T08:21:42Z</time>
      </trkpt>
      <trkpt lat="42.79719" lon="-0.01673">
        <ele>1449.7</ele>
        <time>2023-10-31T08:21:43Z</time>
      </trkpt>
      <trkpt lat="42.79719" lon="-0.01673">
        <ele>1449.7</ele>
        <time>2023-10-31T08:21:44Z</time>
      </trkpt>
      <trkpt lat="42.7972" lon="-0.01674">
        <ele>1449.7</ele>
        <time>2023-10-31T08:21:45Z</time>
      </trkpt>
      <trkpt lat="42.7972" lon="-0.01673">
        <ele>1449.7</ele>
        <time>2023-10-31T08:21:47Z</time>
      </trkpt>
      <trkpt lat="42.79719" lon="-0.01674">
        <ele>1449.6</ele>
        <time>2023-10-31T08:21:48Z</time>
      </trkpt>
      <trkpt lat="42.79718" lon="-0.01673">
        <ele>1449.6</ele>
        <time>2023-10-31T08:21:49Z</time>
      </trkpt>
      <trkpt lat="42.79717" lon="-0.01671">
        <ele>1449.5</ele>
        <time>2023-10-31T08:21:50Z</time>
      </trkpt>
      <trkpt lat="42.79717" lon="-0.01671">
        <ele>1449.5</ele>
        <time>2023-10-31T08:21:51Z</time>
      </trkpt>
      <trkpt lat="42.79717" lon="-0.0167">
        <ele>1449.5</ele>
        <time>2023-10-31T08:21:52Z</time>
      </trkpt>
      <trkpt lat="42.79717" lon="-0.01669">
        <ele>1449.4</ele>
        <time>2023-10-31T08:21:53Z</time>
      </trkpt>
      <trkpt lat="42.79716" lon="-0.01669">
        <ele>1449.4</ele>
        <time>2023-10-31T08:21:54Z</time>
      </trkpt>
      <trkpt lat="42.79716" lon="-0.0167">
        <ele>1449.4</ele>
        <time>2023-10-31T08:21:55Z</time>
      </trkpt>
      <trkpt lat="42.79716" lon="-0.01667">
        <ele>1449.3</ele>
        <time>2023-10-31T08:21:56Z</time>
      </trkpt>
      <trkpt lat="42.79716" lon="-0.01666">
        <ele>1449.2</ele>
        <time>2023-10-31T08:21:57Z</time>
      </trkpt>
      <trkpt lat="42.79716" lon="-0.01663">
        <ele>1449.2</ele>
        <time>2023-10-31T08:21:58Z</time>
      </trkpt>
      <trkpt lat="42.79716" lon="-0.01662">
        <ele>1449.1</ele>
        <time>2023-10-31T08:21:59Z</time>
      </trkpt>
      <trkpt lat="42.79716" lon="-0.01661">
        <ele>1449.1</ele>
        <time>2023-10-31T08:22:00Z</time>
      </trkpt>
      <trkpt lat="42.79717" lon="-0.0166">
        <ele>1449.1</ele>
        <time>2023-10-31T08:22:01Z</time>
      </trkpt>
      <trkpt lat="42.79717" lon="-0.01659">
        <ele>1449</ele>
        <time>2023-10-31T08:22:02Z</time>
      </trkpt>
      <trkpt lat="42.79716" lon="-0.01658">
        <ele>1449</ele>
        <time>2023-10-31T08:22:03Z</time>
      </trkpt>
      <trkpt lat="42.79716" lon="-0.01657">
        <ele>1449</ele>
        <time>2023-10-31T08:22:04Z</time>
      </trkpt>
      <trkpt lat="42.79715" lon="-0.01655">
        <ele>1448.9</ele>
        <time>2023-10-31T08:22:05Z</time>
      </trkpt>
      <trkpt lat="42.79714" lon="-0.01653">
        <ele>1449.1</ele>
        <time>2023-10-31T08:22:06Z</time>
      </trkpt>
      <trkpt lat="42.79713" lon="-0.01652">
        <ele>1449.3</ele>
        <time>2023-10-31T08:22:07Z</time>
      </trkpt>
      <trkpt lat="42.79712" lon="-0.01651">
        <ele>1449.5</ele>
        <time>2023-10-31T08:22:08Z</time>
      </trkpt>
      <trkpt lat="42.79712" lon="-0.01649">
        <ele>1449.6</ele>
        <time>2023-10-31T08:22:09Z</time>
      </trkpt>
      <trkpt lat="42.7971" lon="-0.01649">
        <ele>1449.8</ele>
        <time>2023-10-31T08:22:10Z</time>
      </trkpt>
      <trkpt lat="42.79709" lon="-0.01649">
        <ele>1450</ele>
        <time>2023-10-31T08:22:11Z</time>
      </trkpt>
      <trkpt lat="42.79708" lon="-0.01648">
        <ele>1450.2</ele>
        <time>2023-10-31T08:22:12Z</time>
      </trkpt>
      <trkpt lat="42.79707" lon="-0.01648">
        <ele>1450.4</ele>
        <time>2023-10-31T08:22:13Z</time>
      </trkpt>
      <trkpt lat="42.79708" lon="-0.01649">
        <ele>1450.6</ele>
        <time>2023-10-31T08:22:14Z</time>
      </trkpt>
      <trkpt lat="42.79707" lon="-0.01649">
        <ele>1450.8</ele>
        <time>2023-10-31T08:22:15Z</time>
      </trkpt>
      <trkpt lat="42.79708" lon="-0.01648">
        <ele>1451</ele>
        <time>2023-10-31T08:22:16Z</time>
      </trkpt>
      <trkpt lat="42.79708" lon="-0.01646">
        <ele>1450.2</ele>
        <time>2023-10-31T08:22:17Z</time>
      </trkpt>
      <trkpt lat="42.79708" lon="-0.01646">
        <ele>1450.4</ele>
        <time>2023-10-31T08:22:18Z</time>
      </trkpt>
      <trkpt lat="42.79707" lon="-0.01644">
        <ele>1450.6</ele>
        <time>2023-10-31T08:22:19Z</time>
      </trkpt>
      <trkpt lat="42.79707" lon="-0.01647">
        <ele>1450.7</ele>
        <time>2023-10-31T08:22:20Z</time>
      </trkpt>
      <trkpt lat="42.79706" lon="-0.01645">
        <ele>1450.9</ele>
        <time>2023-10-31T08:22:21Z</time>
      </trkpt>
      <trkpt lat="42.79704" lon="-0.01646">
        <ele>1451.1</ele>
        <time>2023-10-31T08:22:22Z</time>
      </trkpt>
      <trkpt lat="42.79703" lon="-0.01646">
        <ele>1455.2</ele>
        <time>2023-10-31T08:22:23Z</time>
      </trkpt>
      <trkpt lat="42.79703" lon="-0.01646">
        <ele>1455.4</ele>
        <time>2023-10-31T08:22:24Z</time>
      </trkpt>
      <trkpt lat="42.79702" lon="-0.01646">
        <ele>1455.5</ele>
        <time>2023-10-31T08:22:25Z</time>
      </trkpt>
      <trkpt lat="42.79702" lon="-0.01644">
        <ele>1455.7</ele>
        <time>2023-10-31T08:22:26Z</time>
      </trkpt>
      <trkpt lat="42.79702" lon="-0.01642">
        <ele>1455.9</ele>
        <time>2023-10-31T08:22:27Z</time>
      </trkpt>
      <trkpt lat="42.797" lon="-0.01641">
        <ele>1456.1</ele>
        <time>2023-10-31T08:22:28Z</time>
      </trkpt>
      <trkpt lat="42.79702" lon="-0.0164">
        <ele>1456.3</ele>
        <time>2023-10-31T08:22:29Z</time>
      </trkpt>
      <trkpt lat="42.79701" lon="-0.0164">
        <ele>1456.5</ele>
        <time>2023-10-31T08:22:30Z</time>
      </trkpt>
      <trkpt lat="42.797" lon="-0.01638">
        <ele>1456.7</ele>
        <time>2023-10-31T08:22:31Z</time>
      </trkpt>
      <trkpt lat="42.797" lon="-0.01637">
        <ele>1456.9</ele>
        <time>2023-10-31T08:22:32Z</time>
      </trkpt>
      <trkpt lat="42.797" lon="-0.01634">
        <ele>1457</ele>
        <time>2023-10-31T08:22:33Z</time>
      </trkpt>
      <trkpt lat="42.797" lon="-0.01633">
        <ele>1457.2</ele>
        <time>2023-10-31T08:22:34Z</time>
      </trkpt>
      <trkpt lat="42.797" lon="-0.01633">
        <ele>1457.4</ele>
        <time>2023-10-31T08:22:35Z</time>
      </trkpt>
      <trkpt lat="42.797" lon="-0.01632">
        <ele>1457.6</ele>
        <time>2023-10-31T08:22:36Z</time>
      </trkpt>
      <trkpt lat="42.797" lon="-0.01631">
        <ele>1457.8</ele>
        <time>2023-10-31T08:22:37Z</time>
      </trkpt>
      <trkpt lat="42.79699" lon="-0.0163">
        <ele>1457.1</ele>
        <time>2023-10-31T08:22:38Z</time>
      </trkpt>
      <trkpt lat="42.79699" lon="-0.01629">
        <ele>1457.3</ele>
        <time>2023-10-31T08:22:39Z</time>
      </trkpt>
      <trkpt lat="42.79699" lon="-0.01629">
        <ele>1457.5</ele>
        <time>2023-10-31T08:22:40Z</time>
      </trkpt>
      <trkpt lat="42.79699" lon="-0.01628">
        <ele>1457.7</ele>
        <time>2023-10-31T08:22:41Z</time>
      </trkpt>
      <trkpt lat="42.79699" lon="-0.01628">
        <ele>1457.7</ele>
        <time>2023-10-31T08:22:42Z</time>
      </trkpt>
      <trkpt lat="42.79699" lon="-0.01629">
        <ele>1457.8</ele>
        <time>2023-10-31T08:22:43Z</time>
      </trkpt>
      <trkpt lat="42.797" lon="-0.01631">
        <ele>1457.9</ele>
        <time>2023-10-31T08:22:44Z</time>
      </trkpt>
      <trkpt lat="42.797" lon="-0.01632">
        <ele>1458</ele>
        <time>2023-10-31T08:22:45Z</time>
      </trkpt>
      <trkpt lat="42.79701" lon="-0.01633">
        <ele>1458.1</ele>
        <time>2023-10-31T08:22:46Z</time>
      </trkpt>
      <trkpt lat="42.79698" lon="-0.01632">
        <ele>1458.4</ele>
        <time>2023-10-31T08:22:47Z</time>
      </trkpt>
      <trkpt lat="42.79697" lon="-0.01633">
        <ele>1458.6</ele>
        <time>2023-10-31T08:22:48Z</time>
      </trkpt>
      <trkpt lat="42.79696" lon="-0.01634">
        <ele>1458.6</ele>
        <time>2023-10-31T08:22:49Z</time>
      </trkpt>
      <trkpt lat="42.79698" lon="-0.01635">
        <ele>1458.9</ele>
        <time>2023-10-31T08:22:50Z</time>
      </trkpt>
      <trkpt lat="42.79698" lon="-0.01637">
        <ele>1459.1</ele>
        <time>2023-10-31T08:22:51Z</time>
      </trkpt>
      <trkpt lat="42.79698" lon="-0.01636">
        <ele>1459.2</ele>
        <time>2023-10-31T08:22:52Z</time>
      </trkpt>
      <trkpt lat="42.79697" lon="-0.01636">
        <ele>1459.3</ele>
        <time>2023-10-31T08:22:53Z</time>
      </trkpt>
      <trkpt lat="42.79696" lon="-0.01635">
        <ele>1459.4</ele>
        <time>2023-10-31T08:22:54Z</time>
      </trkpt>
      <trkpt lat="42.79696" lon="-0.01635">
        <ele>1459.5</ele>
        <time>2023-10-31T08:22:55Z</time>
      </trkpt>
      <trkpt lat="42.79695" lon="-0.01634">
        <ele>1459.6</ele>
        <time>2023-10-31T08:22:56Z</time>
      </trkpt>
      <trkpt lat="42.79695" lon="-0.01638">
        <ele>1459.9</ele>
        <time>2023-10-31T08:22:57Z</time>
      </trkpt>
      <trkpt lat="42.79694" lon="-0.01639">
        <ele>1460</ele>
        <time>2023-10-31T08:22:58Z</time>
      </trkpt>
      <trkpt lat="42.79693" lon="-0.01639">
        <ele>1460.1</ele>
        <time>2023-10-31T08:22:59Z</time>
      </trkpt>
      <trkpt lat="42.79693" lon="-0.01641">
        <ele>1460.2</ele>
        <time>2023-10-31T08:23:00Z</time>
      </trkpt>
      <trkpt lat="42.79691" lon="-0.01641">
        <ele>1460.5</ele>
        <time>2023-10-31T08:23:01Z</time>
      </trkpt>
      <trkpt lat="42.7969" lon="-0.01642">
        <ele>1460.6</ele>
        <time>2023-10-31T08:23:02Z</time>
      </trkpt>
      <trkpt lat="42.7969" lon="-0.01643">
        <ele>1460.7</ele>
        <time>2023-10-31T08:23:03Z</time>
      </trkpt>
      <trkpt lat="42.7969" lon="-0.01644">
        <ele>1460.8</ele>
        <time>2023-10-31T08:23:04Z</time>
      </trkpt>
      <trkpt lat="42.7969" lon="-0.01645">
        <ele>1460.9</ele>
        <time>2023-10-31T08:23:05Z</time>
      </trkpt>
      <trkpt lat="42.7969" lon="-0.01646">
        <ele>1460.9</ele>
        <time>2023-10-31T08:23:06Z</time>
      </trkpt>
      <trkpt lat="42.79689" lon="-0.01649">
        <ele>1461.1</ele>
        <time>2023-10-31T08:23:07Z</time>
      </trkpt>
      <trkpt lat="42.79689" lon="-0.01651">
        <ele>1461.3</ele>
        <time>2023-10-31T08:23:08Z</time>
      </trkpt>
      <trkpt lat="42.79689" lon="-0.01652">
        <ele>1461.3</ele>
        <time>2023-10-31T08:23:09Z</time>
      </trkpt>
      <trkpt lat="42.79688" lon="-0.01654">
        <ele>1461.5</ele>
        <time>2023-10-31T08:23:10Z</time>
      </trkpt>
      <trkpt lat="42.79688" lon="-0.01655">
        <ele>1461.5</ele>
        <time>2023-10-31T08:23:11Z</time>
      </trkpt>
      <trkpt lat="42.79687" lon="-0.01656">
        <ele>1461.6</ele>
        <time>2023-10-31T08:23:12Z</time>
      </trkpt>
      <trkpt lat="42.79687" lon="-0.01656">
        <ele>1461.6</ele>
        <time>2023-10-31T08:23:13Z</time>
      </trkpt>
      <trkpt lat="42.79687" lon="-0.01657">
        <ele>1461.7</ele>
        <time>2023-10-31T08:23:14Z</time>
      </trkpt>
      <trkpt lat="42.79687" lon="-0.01658">
        <ele>1461.7</ele>
        <time>2023-10-31T08:23:15Z</time>
      </trkpt>
      <trkpt lat="42.79686" lon="-0.0166">
        <ele>1461.8</ele>
        <time>2023-10-31T08:23:16Z</time>
      </trkpt>
      <trkpt lat="42.79686" lon="-0.0166">
        <ele>1461.9</ele>
        <time>2023-10-31T08:23:17Z</time>
      </trkpt>
      <trkpt lat="42.79686" lon="-0.01661">
        <ele>1461.9</ele>
        <time>2023-10-31T08:23:18Z</time>
      </trkpt>
      <trkpt lat="42.79685" lon="-0.01662">
        <ele>1462</ele>
        <time>2023-10-31T08:23:19Z</time>
      </trkpt>
      <trkpt lat="42.79685" lon="-0.01663">
        <ele>1462</ele>
        <time>2023-10-31T08:23:20Z</time>
      </trkpt>
      <trkpt lat="42.79685" lon="-0.01665">
        <ele>1462.2</ele>
        <time>2023-10-31T08:23:21Z</time>
      </trkpt>
      <trkpt lat="42.79684" lon="-0.01667">
        <ele>1462.2</ele>
        <time>2023-10-31T08:23:22Z</time>
      </trkpt>
      <trkpt lat="42.79684" lon="-0.01668">
        <ele>1462.3</ele>
        <time>2023-10-31T08:23:23Z</time>
      </trkpt>
      <trkpt lat="42.79684" lon="-0.01669">
        <ele>1462.4</ele>
        <time>2023-10-31T08:23:24Z</time>
      </trkpt>
      <trkpt lat="42.79684" lon="-0.0167">
        <ele>1462.4</ele>
        <time>2023-10-31T08:23:25Z</time>
      </trkpt>
      <trkpt lat="42.79684" lon="-0.0167">
        <ele>1462.5</ele>
        <time>2023-10-31T08:23:26Z</time>
      </trkpt>
      <trkpt lat="42.79684" lon="-0.01672">
        <ele>1462.6</ele>
        <time>2023-10-31T08:23:27Z</time>
      </trkpt>
      <trkpt lat="42.79684" lon="-0.01676">
        <ele>1462.8</ele>
        <time>2023-10-31T08:23:28Z</time>
      </trkpt>
      <trkpt lat="42.79684" lon="-0.01677">
        <ele>1462.9</ele>
        <time>2023-10-31T08:23:29Z</time>
      </trkpt>
      <trkpt lat="42.79685" lon="-0.01678">
        <ele>1463</ele>
        <time>2023-10-31T08:23:30Z</time>
      </trkpt>
      <trkpt lat="42.79685" lon="-0.01679">
        <ele>1463.1</ele>
        <time>2023-10-31T08:23:31Z</time>
      </trkpt>
      <trkpt lat="42.79685" lon="-0.0168">
        <ele>1463.1</ele>
        <time>2023-10-31T08:23:32Z</time>
      </trkpt>
      <trkpt lat="42.79684" lon="-0.0168">
        <ele>1463.3</ele>
        <time>2023-10-31T08:23:33Z</time>
      </trkpt>
      <trkpt lat="42.79683" lon="-0.01682">
        <ele>1463.4</ele>
        <time>2023-10-31T08:23:34Z</time>
      </trkpt>
      <trkpt lat="42.79683" lon="-0.01684">
        <ele>1463.5</ele>
        <time>2023-10-31T08:23:35Z</time>
      </trkpt>
      <trkpt lat="42.79683" lon="-0.01686">
        <ele>1463.7</ele>
        <time>2023-10-31T08:23:36Z</time>
      </trkpt>
      <trkpt lat="42.79682" lon="-0.01686">
        <ele>1463.7</ele>
        <time>2023-10-31T08:23:37Z</time>
      </trkpt>
      <trkpt lat="42.79681" lon="-0.01686">
        <ele>1463.8</ele>
        <time>2023-10-31T08:23:38Z</time>
      </trkpt>
      <trkpt lat="42.79681" lon="-0.01687">
        <ele>1463.9</ele>
        <time>2023-10-31T08:23:39Z</time>
      </trkpt>
      <trkpt lat="42.79681" lon="-0.01687">
        <ele>1463.9</ele>
        <time>2023-10-31T08:23:40Z</time>
      </trkpt>
      <trkpt lat="42.79681" lon="-0.01688">
        <ele>1464</ele>
        <time>2023-10-31T08:23:41Z</time>
      </trkpt>
      <trkpt lat="42.79681" lon="-0.0169">
        <ele>1464.1</ele>
        <time>2023-10-31T08:23:42Z</time>
      </trkpt>
      <trkpt lat="42.79681" lon="-0.01692">
        <ele>1464.2</ele>
        <time>2023-10-31T08:23:43Z</time>
      </trkpt>
      <trkpt lat="42.79681" lon="-0.01693">
        <ele>1464.4</ele>
        <time>2023-10-31T08:23:44Z</time>
      </trkpt>
      <trkpt lat="42.7968" lon="-0.01695">
        <ele>1464.5</ele>
        <time>2023-10-31T08:23:45Z</time>
      </trkpt>
      <trkpt lat="42.7968" lon="-0.01696">
        <ele>1464.5</ele>
        <time>2023-10-31T08:23:46Z</time>
      </trkpt>
      <trkpt lat="42.7968" lon="-0.01697">
        <ele>1464.6</ele>
        <time>2023-10-31T08:23:47Z</time>
      </trkpt>
      <trkpt lat="42.79679" lon="-0.01698">
        <ele>1464.7</ele>
        <time>2023-10-31T08:23:48Z</time>
      </trkpt>
      <trkpt lat="42.79679" lon="-0.01699">
        <ele>1464.8</ele>
        <time>2023-10-31T08:23:49Z</time>
      </trkpt>
      <trkpt lat="42.79679" lon="-0.01701">
        <ele>1464.9</ele>
        <time>2023-10-31T08:23:50Z</time>
      </trkpt>
      <trkpt lat="42.79679" lon="-0.01702">
        <ele>1465</ele>
        <time>2023-10-31T08:23:51Z</time>
      </trkpt>
      <trkpt lat="42.79679" lon="-0.01703">
        <ele>1465.1</ele>
        <time>2023-10-31T08:23:53Z</time>
      </trkpt>
      <trkpt lat="42.79678" lon="-0.01704">
        <ele>1465.1</ele>
        <time>2023-10-31T08:23:54Z</time>
      </trkpt>
      <trkpt lat="42.79679" lon="-0.01705">
        <ele>1465.3</ele>
        <time>2023-10-31T08:23:55Z</time>
      </trkpt>
      <trkpt lat="42.79679" lon="-0.01706">
        <ele>1465.3</ele>
        <time>2023-10-31T08:23:56Z</time>
      </trkpt>
      <trkpt lat="42.79678" lon="-0.01706">
        <ele>1465.4</ele>
        <time>2023-10-31T08:23:57Z</time>
      </trkpt>
      <trkpt lat="42.79678" lon="-0.01708">
        <ele>1465.5</ele>
        <time>2023-10-31T08:23:58Z</time>
      </trkpt>
      <trkpt lat="42.79677" lon="-0.01709">
        <ele>1465.6</ele>
        <time>2023-10-31T08:23:59Z</time>
      </trkpt>
      <trkpt lat="42.79678" lon="-0.01711">
        <ele>1465.7</ele>
        <time>2023-10-31T08:24:00Z</time>
      </trkpt>
      <trkpt lat="42.79677" lon="-0.01712">
        <ele>1465.8</ele>
        <time>2023-10-31T08:24:01Z</time>
      </trkpt>
      <trkpt lat="42.79677" lon="-0.01712">
        <ele>1465.8</ele>
        <time>2023-10-31T08:24:02Z</time>
      </trkpt>
      <trkpt lat="42.79677" lon="-0.01714">
        <ele>1465.9</ele>
        <time>2023-10-31T08:24:03Z</time>
      </trkpt>
      <trkpt lat="42.79677" lon="-0.01716">
        <ele>1466.1</ele>
        <time>2023-10-31T08:24:04Z</time>
      </trkpt>
      <trkpt lat="42.79677" lon="-0.01717">
        <ele>1466.2</ele>
        <time>2023-10-31T08:24:05Z</time>
      </trkpt>
      <trkpt lat="42.79678" lon="-0.0172">
        <ele>1466.3</ele>
        <time>2023-10-31T08:24:06Z</time>
      </trkpt>
      <trkpt lat="42.79677" lon="-0.01721">
        <ele>1466.4</ele>
        <time>2023-10-31T08:24:07Z</time>
      </trkpt>
      <trkpt lat="42.79675" lon="-0.01722">
        <ele>1466.6</ele>
        <time>2023-10-31T08:24:08Z</time>
      </trkpt>
      <trkpt lat="42.79674" lon="-0.01725">
        <ele>1466.8</ele>
        <time>2023-10-31T08:24:09Z</time>
      </trkpt>
      <trkpt lat="42.79675" lon="-0.01726">
        <ele>1466.9</ele>
        <time>2023-10-31T08:24:10Z</time>
      </trkpt>
      <trkpt lat="42.79674" lon="-0.01727">
        <ele>1466.9</ele>
        <time>2023-10-31T08:24:11Z</time>
      </trkpt>
      <trkpt lat="42.79675" lon="-0.01727">
        <ele>1467</ele>
        <time>2023-10-31T08:24:12Z</time>
      </trkpt>
      <trkpt lat="42.79675" lon="-0.01728">
        <ele>1467</ele>
        <time>2023-10-31T08:24:13Z</time>
      </trkpt>
      <trkpt lat="42.79675" lon="-0.01729">
        <ele>1467.1</ele>
        <time>2023-10-31T08:24:14Z</time>
      </trkpt>
      <trkpt lat="42.79675" lon="-0.0173">
        <ele>1467.2</ele>
        <time>2023-10-31T08:24:15Z</time>
      </trkpt>
      <trkpt lat="42.79674" lon="-0.01731">
        <ele>1467.3</ele>
        <time>2023-10-31T08:24:16Z</time>
      </trkpt>
      <trkpt lat="42.79675" lon="-0.01732">
        <ele>1467.3</ele>
        <time>2023-10-31T08:24:17Z</time>
      </trkpt>
      <trkpt lat="42.79675" lon="-0.01732">
        <ele>1467.4</ele>
        <time>2023-10-31T08:24:18Z</time>
      </trkpt>
      <trkpt lat="42.79676" lon="-0.01735">
        <ele>1467.5</ele>
        <time>2023-10-31T08:24:19Z</time>
      </trkpt>
      <trkpt lat="42.79676" lon="-0.01736">
        <ele>1467.6</ele>
        <time>2023-10-31T08:24:20Z</time>
      </trkpt>
      <trkpt lat="42.79676" lon="-0.01738">
        <ele>1467.8</ele>
        <time>2023-10-31T08:24:21Z</time>
      </trkpt>
      <trkpt lat="42.79677" lon="-0.01739">
        <ele>1468</ele>
        <time>2023-10-31T08:24:22Z</time>
      </trkpt>
      <trkpt lat="42.79677" lon="-0.01741">
        <ele>1468.2</ele>
        <time>2023-10-31T08:24:23Z</time>
      </trkpt>
      <trkpt lat="42.79677" lon="-0.01743">
        <ele>1468.3</ele>
        <time>2023-10-31T08:24:24Z</time>
      </trkpt>
      <trkpt lat="42.79677" lon="-0.01744">
        <ele>1468.4</ele>
        <time>2023-10-31T08:24:25Z</time>
      </trkpt>
      <trkpt lat="42.79677" lon="-0.01745">
        <ele>1468.5</ele>
        <time>2023-10-31T08:24:26Z</time>
      </trkpt>
      <trkpt lat="42.79675" lon="-0.01745">
        <ele>1468.7</ele>
        <time>2023-10-31T08:24:27Z</time>
      </trkpt>
      <trkpt lat="42.79676" lon="-0.01745">
        <ele>1468.7</ele>
        <time>2023-10-31T08:24:28Z</time>
      </trkpt>
      <trkpt lat="42.79676" lon="-0.01746">
        <ele>1468.8</ele>
        <time>2023-10-31T08:24:29Z</time>
      </trkpt>
      <trkpt lat="42.79675" lon="-0.01748">
        <ele>1469</ele>
        <time>2023-10-31T08:24:30Z</time>
      </trkpt>
      <trkpt lat="42.79675" lon="-0.0175">
        <ele>1469.2</ele>
        <time>2023-10-31T08:24:31Z</time>
      </trkpt>
      <trkpt lat="42.79675" lon="-0.01752">
        <ele>1469.3</ele>
        <time>2023-10-31T08:24:32Z</time>
      </trkpt>
      <trkpt lat="42.79675" lon="-0.01753">
        <ele>1469.4</ele>
        <time>2023-10-31T08:24:33Z</time>
      </trkpt>
      <trkpt lat="42.79675" lon="-0.01755">
        <ele>1469.6</ele>
        <time>2023-10-31T08:24:34Z</time>
      </trkpt>
      <trkpt lat="42.79674" lon="-0.01757">
        <ele>1469.7</ele>
        <time>2023-10-31T08:24:35Z</time>
      </trkpt>
      <trkpt lat="42.79674" lon="-0.01758">
        <ele>1469.8</ele>
        <time>2023-10-31T08:24:36Z</time>
      </trkpt>
      <trkpt lat="42.79674" lon="-0.0176">
        <ele>1470</ele>
        <time>2023-10-31T08:24:37Z</time>
      </trkpt>
      <trkpt lat="42.79672" lon="-0.0176">
        <ele>1470.1</ele>
        <time>2023-10-31T08:24:38Z</time>
      </trkpt>
      <trkpt lat="42.79673" lon="-0.01762">
        <ele>1470.2</ele>
        <time>2023-10-31T08:24:39Z</time>
      </trkpt>
      <trkpt lat="42.79674" lon="-0.01763">
        <ele>1470.3</ele>
        <time>2023-10-31T08:24:40Z</time>
      </trkpt>
      <trkpt lat="42.79673" lon="-0.01764">
        <ele>1470.4</ele>
        <time>2023-10-31T08:24:41Z</time>
      </trkpt>
      <trkpt lat="42.79673" lon="-0.01765">
        <ele>1470.5</ele>
        <time>2023-10-31T08:24:42Z</time>
      </trkpt>
      <trkpt lat="42.79673" lon="-0.01767">
        <ele>1470.5</ele>
        <time>2023-10-31T08:24:43Z</time>
      </trkpt>
      <trkpt lat="42.79672" lon="-0.01769">
        <ele>1470.7</ele>
        <time>2023-10-31T08:24:44Z</time>
      </trkpt>
      <trkpt lat="42.79671" lon="-0.0177">
        <ele>1470.8</ele>
        <time>2023-10-31T08:24:45Z</time>
      </trkpt>
      <trkpt lat="42.79671" lon="-0.01771">
        <ele>1470.8</ele>
        <time>2023-10-31T08:24:46Z</time>
      </trkpt>
      <trkpt lat="42.79672" lon="-0.01776">
        <ele>1471.1</ele>
        <time>2023-10-31T08:24:47Z</time>
      </trkpt>
      <trkpt lat="42.79672" lon="-0.01776">
        <ele>1471.1</ele>
        <time>2023-10-31T08:24:48Z</time>
      </trkpt>
      <trkpt lat="42.79672" lon="-0.01778">
        <ele>1471.2</ele>
        <time>2023-10-31T08:24:49Z</time>
      </trkpt>
      <trkpt lat="42.79671" lon="-0.01779">
        <ele>1471.3</ele>
        <time>2023-10-31T08:24:50Z</time>
      </trkpt>
      <trkpt lat="42.79671" lon="-0.0178">
        <ele>1471.3</ele>
        <time>2023-10-31T08:24:51Z</time>
      </trkpt>
      <trkpt lat="42.79671" lon="-0.01783">
        <ele>1471.5</ele>
        <time>2023-10-31T08:24:52Z</time>
      </trkpt>
      <trkpt lat="42.7967" lon="-0.01784">
        <ele>1471.5</ele>
        <time>2023-10-31T08:24:53Z</time>
      </trkpt>
      <trkpt lat="42.7967" lon="-0.01785">
        <ele>1471.6</ele>
        <time>2023-10-31T08:24:54Z</time>
      </trkpt>
      <trkpt lat="42.7967" lon="-0.01787">
        <ele>1471.7</ele>
        <time>2023-10-31T08:24:55Z</time>
      </trkpt>
      <trkpt lat="42.79669" lon="-0.01788">
        <ele>1471.8</ele>
        <time>2023-10-31T08:24:56Z</time>
      </trkpt>
      <trkpt lat="42.79669" lon="-0.01789">
        <ele>1471.8</ele>
        <time>2023-10-31T08:24:57Z</time>
      </trkpt>
      <trkpt lat="42.79669" lon="-0.0179">
        <ele>1471.9</ele>
        <time>2023-10-31T08:24:58Z</time>
      </trkpt>
      <trkpt lat="42.79669" lon="-0.01791">
        <ele>1471.9</ele>
        <time>2023-10-31T08:24:59Z</time>
      </trkpt>
      <trkpt lat="42.79669" lon="-0.01792">
        <ele>1472</ele>
        <time>2023-10-31T08:25:00Z</time>
      </trkpt>
      <trkpt lat="42.79669" lon="-0.01793">
        <ele>1472</ele>
        <time>2023-10-31T08:25:01Z</time>
      </trkpt>
      <trkpt lat="42.79669" lon="-0.01794">
        <ele>1472.1</ele>
        <time>2023-10-31T08:25:02Z</time>
      </trkpt>
      <trkpt lat="42.79669" lon="-0.01796">
        <ele>1472.2</ele>
        <time>2023-10-31T08:25:03Z</time>
      </trkpt>
      <trkpt lat="42.79669" lon="-0.01797">
        <ele>1472.3</ele>
        <time>2023-10-31T08:25:04Z</time>
      </trkpt>
      <trkpt lat="42.79668" lon="-0.01799">
        <ele>1472.4</ele>
        <time>2023-10-31T08:25:05Z</time>
      </trkpt>
      <trkpt lat="42.79668" lon="-0.018">
        <ele>1472.4</ele>
        <time>2023-10-31T08:25:06Z</time>
      </trkpt>
      <trkpt lat="42.79668" lon="-0.01801">
        <ele>1472.5</ele>
        <time>2023-10-31T08:25:07Z</time>
      </trkpt>
      <trkpt lat="42.79667" lon="-0.01802">
        <ele>1472.5</ele>
        <time>2023-10-31T08:25:08Z</time>
      </trkpt>
      <trkpt lat="42.79667" lon="-0.01803">
        <ele>1472.6</ele>
        <time>2023-10-31T08:25:09Z</time>
      </trkpt>
      <trkpt lat="42.79667" lon="-0.01803">
        <ele>1472.6</ele>
        <time>2023-10-31T08:25:10Z</time>
      </trkpt>
      <trkpt lat="42.79666" lon="-0.01804">
        <ele>1472.7</ele>
        <time>2023-10-31T08:25:11Z</time>
      </trkpt>
      <trkpt lat="42.79666" lon="-0.01805">
        <ele>1472.7</ele>
        <time>2023-10-31T08:25:12Z</time>
      </trkpt>
      <trkpt lat="42.79666" lon="-0.01806">
        <ele>1472.8</ele>
        <time>2023-10-31T08:25:13Z</time>
      </trkpt>
      <trkpt lat="42.79665" lon="-0.01807">
        <ele>1472.8</ele>
        <time>2023-10-31T08:25:14Z</time>
      </trkpt>
      <trkpt lat="42.79665" lon="-0.01809">
        <ele>1472.9</ele>
        <time>2023-10-31T08:25:15Z</time>
      </trkpt>
      <trkpt lat="42.79664" lon="-0.0181">
        <ele>1473</ele>
        <time>2023-10-31T08:25:16Z</time>
      </trkpt>
      <trkpt lat="42.79664" lon="-0.01811">
        <ele>1473.1</ele>
        <time>2023-10-31T08:25:17Z</time>
      </trkpt>
      <trkpt lat="42.79663" lon="-0.01814">
        <ele>1473.2</ele>
        <time>2023-10-31T08:25:18Z</time>
      </trkpt>
      <trkpt lat="42.79664" lon="-0.01816">
        <ele>1473.4</ele>
        <time>2023-10-31T08:25:19Z</time>
      </trkpt>
      <trkpt lat="42.79664" lon="-0.01817">
        <ele>1473.5</ele>
        <time>2023-10-31T08:25:20Z</time>
      </trkpt>
      <trkpt lat="42.79663" lon="-0.01818">
        <ele>1473.6</ele>
        <time>2023-10-31T08:25:21Z</time>
      </trkpt>
      <trkpt lat="42.79662" lon="-0.01819">
        <ele>1473.6</ele>
        <time>2023-10-31T08:25:22Z</time>
      </trkpt>
      <trkpt lat="42.79661" lon="-0.01819">
        <ele>1473.7</ele>
        <time>2023-10-31T08:25:23Z</time>
      </trkpt>
      <trkpt lat="42.79661" lon="-0.0182">
        <ele>1473.8</ele>
        <time>2023-10-31T08:25:24Z</time>
      </trkpt>
      <trkpt lat="42.7966" lon="-0.01821">
        <ele>1473.8</ele>
        <time>2023-10-31T08:25:25Z</time>
      </trkpt>
      <trkpt lat="42.79659" lon="-0.01823">
        <ele>1473.9</ele>
        <time>2023-10-31T08:25:26Z</time>
      </trkpt>
      <trkpt lat="42.79659" lon="-0.01824">
        <ele>1474.1</ele>
        <time>2023-10-31T08:25:27Z</time>
      </trkpt>
      <trkpt lat="42.79657" lon="-0.01826">
        <ele>1474.2</ele>
        <time>2023-10-31T08:25:28Z</time>
      </trkpt>
      <trkpt lat="42.79657" lon="-0.01826">
        <ele>1474.3</ele>
        <time>2023-10-31T08:25:29Z</time>
      </trkpt>
      <trkpt lat="42.79656" lon="-0.01827">
        <ele>1474.4</ele>
        <time>2023-10-31T08:25:30Z</time>
      </trkpt>
      <trkpt lat="42.79656" lon="-0.01828">
        <ele>1474.4</ele>
        <time>2023-10-31T08:25:31Z</time>
      </trkpt>
      <trkpt lat="42.79655" lon="-0.0183">
        <ele>1474.6</ele>
        <time>2023-10-31T08:25:32Z</time>
      </trkpt>
      <trkpt lat="42.79655" lon="-0.01832">
        <ele>1474.7</ele>
        <time>2023-10-31T08:25:33Z</time>
      </trkpt>
      <trkpt lat="42.79655" lon="-0.01834">
        <ele>1474.8</ele>
        <time>2023-10-31T08:25:34Z</time>
      </trkpt>
      <trkpt lat="42.79654" lon="-0.01835">
        <ele>1474.9</ele>
        <time>2023-10-31T08:25:35Z</time>
      </trkpt>
      <trkpt lat="42.79654" lon="-0.01836">
        <ele>1475</ele>
        <time>2023-10-31T08:25:36Z</time>
      </trkpt>
      <trkpt lat="42.79654" lon="-0.01837">
        <ele>1475.1</ele>
        <time>2023-10-31T08:25:37Z</time>
      </trkpt>
      <trkpt lat="42.79654" lon="-0.01837">
        <ele>1475.1</ele>
        <time>2023-10-31T08:25:38Z</time>
      </trkpt>
      <trkpt lat="42.79654" lon="-0.01838">
        <ele>1475.2</ele>
        <time>2023-10-31T08:25:39Z</time>
      </trkpt>
      <trkpt lat="42.79655" lon="-0.01839">
        <ele>1475.3</ele>
        <time>2023-10-31T08:25:40Z</time>
      </trkpt>
      <trkpt lat="42.79655" lon="-0.01842">
        <ele>1475.5</ele>
        <time>2023-10-31T08:25:41Z</time>
      </trkpt>
      <trkpt lat="42.79654" lon="-0.01843">
        <ele>1475.6</ele>
        <time>2023-10-31T08:25:42Z</time>
      </trkpt>
      <trkpt lat="42.79654" lon="-0.01844">
        <ele>1475.7</ele>
        <time>2023-10-31T08:25:43Z</time>
      </trkpt>
      <trkpt lat="42.79655" lon="-0.01846">
        <ele>1475.8</ele>
        <time>2023-10-31T08:25:44Z</time>
      </trkpt>
      <trkpt lat="42.79655" lon="-0.01849">
        <ele>1476.1</ele>
        <time>2023-10-31T08:25:45Z</time>
      </trkpt>
      <trkpt lat="42.79655" lon="-0.0185">
        <ele>1476.2</ele>
        <time>2023-10-31T08:25:46Z</time>
      </trkpt>
      <trkpt lat="42.79655" lon="-0.01851">
        <ele>1476.3</ele>
        <time>2023-10-31T08:25:47Z</time>
      </trkpt>
      <trkpt lat="42.79655" lon="-0.01852">
        <ele>1476.3</ele>
        <time>2023-10-31T08:25:48Z</time>
      </trkpt>
      <trkpt lat="42.79654" lon="-0.01853">
        <ele>1476.4</ele>
        <time>2023-10-31T08:25:49Z</time>
      </trkpt>
      <trkpt lat="42.79654" lon="-0.01854">
        <ele>1476.5</ele>
        <time>2023-10-31T08:25:50Z</time>
      </trkpt>
      <trkpt lat="42.79654" lon="-0.01856">
        <ele>1476.7</ele>
        <time>2023-10-31T08:25:51Z</time>
      </trkpt>
      <trkpt lat="42.79654" lon="-0.01857">
        <ele>1476.9</ele>
        <time>2023-10-31T08:25:52Z</time>
      </trkpt>
      <trkpt lat="42.79654" lon="-0.01859">
        <ele>1477</ele>
        <time>2023-10-31T08:25:53Z</time>
      </trkpt>
      <trkpt lat="42.79655" lon="-0.0186">
        <ele>1477.2</ele>
        <time>2023-10-31T08:25:54Z</time>
      </trkpt>
      <trkpt lat="42.79654" lon="-0.01861">
        <ele>1477.3</ele>
        <time>2023-10-31T08:25:55Z</time>
      </trkpt>
      <trkpt lat="42.79655" lon="-0.01863">
        <ele>1477.5</ele>
        <time>2023-10-31T08:25:56Z</time>
      </trkpt>
      <trkpt lat="42.79655" lon="-0.01865">
        <ele>1477.7</ele>
        <time>2023-10-31T08:25:57Z</time>
      </trkpt>
      <trkpt lat="42.79655" lon="-0.01866">
        <ele>1477.8</ele>
        <time>2023-10-31T08:25:59Z</time>
      </trkpt>
      <trkpt lat="42.79655" lon="-0.01867">
        <ele>1477.9</ele>
        <time>2023-10-31T08:26:00Z</time>
      </trkpt>
      <trkpt lat="42.79655" lon="-0.01867">
        <ele>1478</ele>
        <time>2023-10-31T08:26:01Z</time>
      </trkpt>
      <trkpt lat="42.79655" lon="-0.01868">
        <ele>1478</ele>
        <time>2023-10-31T08:26:02Z</time>
      </trkpt>
      <trkpt lat="42.79655" lon="-0.01869">
        <ele>1478.1</ele>
        <time>2023-10-31T08:26:03Z</time>
      </trkpt>
      <trkpt lat="42.79655" lon="-0.01869">
        <ele>1478.2</ele>
        <time>2023-10-31T08:26:04Z</time>
      </trkpt>
      <trkpt lat="42.79655" lon="-0.0187">
        <ele>1478.3</ele>
        <time>2023-10-31T08:26:05Z</time>
      </trkpt>
      <trkpt lat="42.79655" lon="-0.01871">
        <ele>1478.4</ele>
        <time>2023-10-31T08:26:06Z</time>
      </trkpt>
      <trkpt lat="42.79655" lon="-0.01872">
        <ele>1478.5</ele>
        <time>2023-10-31T08:26:07Z</time>
      </trkpt>
      <trkpt lat="42.79655" lon="-0.01873">
        <ele>1478.6</ele>
        <time>2023-10-31T08:26:08Z</time>
      </trkpt>
      <trkpt lat="42.79656" lon="-0.01876">
        <ele>1479</ele>
        <time>2023-10-31T08:26:09Z</time>
      </trkpt>
      <trkpt lat="42.79655" lon="-0.01876">
        <ele>1479.1</ele>
        <time>2023-10-31T08:26:10Z</time>
      </trkpt>
      <trkpt lat="42.79655" lon="-0.01877">
        <ele>1479.3</ele>
        <time>2023-10-31T08:26:11Z</time>
      </trkpt>
      <trkpt lat="42.79655" lon="-0.01877">
        <ele>1479.4</ele>
        <time>2023-10-31T08:26:12Z</time>
      </trkpt>
      <trkpt lat="42.79655" lon="-0.01879">
        <ele>1479.8</ele>
        <time>2023-10-31T08:26:13Z</time>
      </trkpt>
      <trkpt lat="42.79655" lon="-0.0188">
        <ele>1479.9</ele>
        <time>2023-10-31T08:26:14Z</time>
      </trkpt>
      <trkpt lat="42.79654" lon="-0.01882">
        <ele>1480.1</ele>
        <time>2023-10-31T08:26:15Z</time>
      </trkpt>
      <trkpt lat="42.79654" lon="-0.01883">
        <ele>1480.2</ele>
        <time>2023-10-31T08:26:16Z</time>
      </trkpt>
      <trkpt lat="42.79655" lon="-0.01884">
        <ele>1480.4</ele>
        <time>2023-10-31T08:26:17Z</time>
      </trkpt>
      <trkpt lat="42.79654" lon="-0.01883">
        <ele>1480.6</ele>
        <time>2023-10-31T08:26:18Z</time>
      </trkpt>
      <trkpt lat="42.79655" lon="-0.01885">
        <ele>1480.8</ele>
        <time>2023-10-31T08:26:19Z</time>
      </trkpt>
      <trkpt lat="42.79655" lon="-0.01886">
        <ele>1481</ele>
        <time>2023-10-31T08:26:20Z</time>
      </trkpt>
      <trkpt lat="42.79655" lon="-0.01888">
        <ele>1481.3</ele>
        <time>2023-10-31T08:26:21Z</time>
      </trkpt>
      <trkpt lat="42.79655" lon="-0.01889">
        <ele>1481.4</ele>
        <time>2023-10-31T08:26:22Z</time>
      </trkpt>
      <trkpt lat="42.79656" lon="-0.01891">
        <ele>1481.7</ele>
        <time>2023-10-31T08:26:23Z</time>
      </trkpt>
      <trkpt lat="42.79656" lon="-0.01892">
        <ele>1481.8</ele>
        <time>2023-10-31T08:26:24Z</time>
      </trkpt>
      <trkpt lat="42.79656" lon="-0.01893">
        <ele>1481.9</ele>
        <time>2023-10-31T08:26:25Z</time>
      </trkpt>
      <trkpt lat="42.79656" lon="-0.01894">
        <ele>1482.1</ele>
        <time>2023-10-31T08:26:26Z</time>
      </trkpt>
      <trkpt lat="42.79655" lon="-0.01895">
        <ele>1482.2</ele>
        <time>2023-10-31T08:26:27Z</time>
      </trkpt>
      <trkpt lat="42.79654" lon="-0.01896">
        <ele>1482.4</ele>
        <time>2023-10-31T08:26:28Z</time>
      </trkpt>
      <trkpt lat="42.79654" lon="-0.01897">
        <ele>1482.6</ele>
        <time>2023-10-31T08:26:29Z</time>
      </trkpt>
      <trkpt lat="42.79654" lon="-0.01898">
        <ele>1482.7</ele>
        <time>2023-10-31T08:26:30Z</time>
      </trkpt>
      <trkpt lat="42.79654" lon="-0.01901">
        <ele>1483</ele>
        <time>2023-10-31T08:26:31Z</time>
      </trkpt>
      <trkpt lat="42.79653" lon="-0.01902">
        <ele>1483.2</ele>
        <time>2023-10-31T08:26:32Z</time>
      </trkpt>
      <trkpt lat="42.79653" lon="-0.01903">
        <ele>1483.4</ele>
        <time>2023-10-31T08:26:33Z</time>
      </trkpt>
      <trkpt lat="42.79652" lon="-0.01904">
        <ele>1483.5</ele>
        <time>2023-10-31T08:26:34Z</time>
      </trkpt>
      <trkpt lat="42.79651" lon="-0.01905">
        <ele>1483.7</ele>
        <time>2023-10-31T08:26:35Z</time>
      </trkpt>
      <trkpt lat="42.79651" lon="-0.01906">
        <ele>1483.8</ele>
        <time>2023-10-31T08:26:36Z</time>
      </trkpt>
      <trkpt lat="42.79651" lon="-0.01908">
        <ele>1484</ele>
        <time>2023-10-31T08:26:37Z</time>
      </trkpt>
      <trkpt lat="42.79651" lon="-0.01909">
        <ele>1484.2</ele>
        <time>2023-10-31T08:26:38Z</time>
      </trkpt>
      <trkpt lat="42.79651" lon="-0.01909">
        <ele>1484.2</ele>
        <time>2023-10-31T08:26:39Z</time>
      </trkpt>
      <trkpt lat="42.79651" lon="-0.01909">
        <ele>1484.2</ele>
        <time>2023-10-31T08:26:40Z</time>
      </trkpt>
      <trkpt lat="42.79651" lon="-0.0191">
        <ele>1484.3</ele>
        <time>2023-10-31T08:26:41Z</time>
      </trkpt>
      <trkpt lat="42.79651" lon="-0.01912">
        <ele>1484.5</ele>
        <time>2023-10-31T08:26:42Z</time>
      </trkpt>
      <trkpt lat="42.79651" lon="-0.01913">
        <ele>1484.7</ele>
        <time>2023-10-31T08:26:43Z</time>
      </trkpt>
      <trkpt lat="42.7965" lon="-0.01915">
        <ele>1484.9</ele>
        <time>2023-10-31T08:26:44Z</time>
      </trkpt>
      <trkpt lat="42.7965" lon="-0.01916">
        <ele>1485.1</ele>
        <time>2023-10-31T08:26:45Z</time>
      </trkpt>
      <trkpt lat="42.79649" lon="-0.01917">
        <ele>1485.3</ele>
        <time>2023-10-31T08:26:46Z</time>
      </trkpt>
      <trkpt lat="42.7965" lon="-0.0192">
        <ele>1485.6</ele>
        <time>2023-10-31T08:26:47Z</time>
      </trkpt>
      <trkpt lat="42.79649" lon="-0.01919">
        <ele>1485.8</ele>
        <time>2023-10-31T08:26:48Z</time>
      </trkpt>
      <trkpt lat="42.79649" lon="-0.01917">
        <ele>1486</ele>
        <time>2023-10-31T08:26:49Z</time>
      </trkpt>
      <trkpt lat="42.79649" lon="-0.01916">
        <ele>1486.1</ele>
        <time>2023-10-31T08:26:50Z</time>
      </trkpt>
      <trkpt lat="42.79649" lon="-0.01916">
        <ele>1486.2</ele>
        <time>2023-10-31T08:26:51Z</time>
      </trkpt>
      <trkpt lat="42.79649" lon="-0.01917">
        <ele>1486.4</ele>
        <time>2023-10-31T08:26:52Z</time>
      </trkpt>
      <trkpt lat="42.7965" lon="-0.01918">
        <ele>1486.4</ele>
        <time>2023-10-31T08:26:53Z</time>
      </trkpt>
      <trkpt lat="42.79649" lon="-0.01918">
        <ele>1486.6</ele>
        <time>2023-10-31T08:26:54Z</time>
      </trkpt>
      <trkpt lat="42.79647" lon="-0.0192">
        <ele>1487</ele>
        <time>2023-10-31T08:26:55Z</time>
      </trkpt>
      <trkpt lat="42.79648" lon="-0.01922">
        <ele>1487.3</ele>
        <time>2023-10-31T08:26:56Z</time>
      </trkpt>
      <trkpt lat="42.79647" lon="-0.01923">
        <ele>1487.5</ele>
        <time>2023-10-31T08:26:57Z</time>
      </trkpt>
      <trkpt lat="42.79646" lon="-0.01924">
        <ele>1487.8</ele>
        <time>2023-10-31T08:26:58Z</time>
      </trkpt>
      <trkpt lat="42.79645" lon="-0.01926">
        <ele>1488.1</ele>
        <time>2023-10-31T08:26:59Z</time>
      </trkpt>
      <trkpt lat="42.79644" lon="-0.01926">
        <ele>1488.2</ele>
        <time>2023-10-31T08:27:00Z</time>
      </trkpt>
      <trkpt lat="42.79644" lon="-0.01927">
        <ele>1488.3</ele>
        <time>2023-10-31T08:27:01Z</time>
      </trkpt>
      <trkpt lat="42.79644" lon="-0.01928">
        <ele>1488.5</ele>
        <time>2023-10-31T08:27:02Z</time>
      </trkpt>
      <trkpt lat="42.79643" lon="-0.0193">
        <ele>1488.8</ele>
        <time>2023-10-31T08:27:03Z</time>
      </trkpt>
      <trkpt lat="42.79642" lon="-0.01931">
        <ele>1489.1</ele>
        <time>2023-10-31T08:27:04Z</time>
      </trkpt>
      <trkpt lat="42.79641" lon="-0.01934">
        <ele>1489.6</ele>
        <time>2023-10-31T08:27:05Z</time>
      </trkpt>
      <trkpt lat="42.79641" lon="-0.01935">
        <ele>1489.7</ele>
        <time>2023-10-31T08:27:06Z</time>
      </trkpt>
      <trkpt lat="42.7964" lon="-0.01936">
        <ele>1489.8</ele>
        <time>2023-10-31T08:27:07Z</time>
      </trkpt>
      <trkpt lat="42.79639" lon="-0.01937">
        <ele>1490.1</ele>
        <time>2023-10-31T08:27:08Z</time>
      </trkpt>
      <trkpt lat="42.79639" lon="-0.01938">
        <ele>1490.3</ele>
        <time>2023-10-31T08:27:09Z</time>
      </trkpt>
      <trkpt lat="42.79638" lon="-0.01938">
        <ele>1490.5</ele>
        <time>2023-10-31T08:27:10Z</time>
      </trkpt>
      <trkpt lat="42.79637" lon="-0.01938">
        <ele>1490.6</ele>
        <time>2023-10-31T08:27:11Z</time>
      </trkpt>
      <trkpt lat="42.79636" lon="-0.01936">
        <ele>1490.9</ele>
        <time>2023-10-31T08:27:12Z</time>
      </trkpt>
      <trkpt lat="42.79635" lon="-0.01935">
        <ele>1491.2</ele>
        <time>2023-10-31T08:27:13Z</time>
      </trkpt>
      <trkpt lat="42.79634" lon="-0.01935">
        <ele>1491.4</ele>
        <time>2023-10-31T08:27:14Z</time>
      </trkpt>
      <trkpt lat="42.79633" lon="-0.01934">
        <ele>1491.9</ele>
        <time>2023-10-31T08:27:15Z</time>
      </trkpt>
      <trkpt lat="42.79632" lon="-0.01934">
        <ele>1492</ele>
        <time>2023-10-31T08:27:16Z</time>
      </trkpt>
      <trkpt lat="42.79631" lon="-0.01935">
        <ele>1492.3</ele>
        <time>2023-10-31T08:27:17Z</time>
      </trkpt>
      <trkpt lat="42.7963" lon="-0.01934">
        <ele>1492.5</ele>
        <time>2023-10-31T08:27:18Z</time>
      </trkpt>
      <trkpt lat="42.79629" lon="-0.01936">
        <ele>1492.7</ele>
        <time>2023-10-31T08:27:19Z</time>
      </trkpt>
      <trkpt lat="42.79628" lon="-0.01937">
        <ele>1493</ele>
        <time>2023-10-31T08:27:20Z</time>
      </trkpt>
      <trkpt lat="42.79628" lon="-0.01939">
        <ele>1493.4</ele>
        <time>2023-10-31T08:27:21Z</time>
      </trkpt>
      <trkpt lat="42.79627" lon="-0.0194">
        <ele>1493.7</ele>
        <time>2023-10-31T08:27:22Z</time>
      </trkpt>
      <trkpt lat="42.79627" lon="-0.01943">
        <ele>1494.1</ele>
        <time>2023-10-31T08:27:23Z</time>
      </trkpt>
      <trkpt lat="42.79627" lon="-0.01943">
        <ele>1494.3</ele>
        <time>2023-10-31T08:27:24Z</time>
      </trkpt>
      <trkpt lat="42.79627" lon="-0.01945">
        <ele>1494.5</ele>
        <time>2023-10-31T08:27:25Z</time>
      </trkpt>
      <trkpt lat="42.79627" lon="-0.01946">
        <ele>1494.7</ele>
        <time>2023-10-31T08:27:26Z</time>
      </trkpt>
      <trkpt lat="42.79627" lon="-0.01947">
        <ele>1494.9</ele>
        <time>2023-10-31T08:27:27Z</time>
      </trkpt>
      <trkpt lat="42.79627" lon="-0.01948">
        <ele>1495.1</ele>
        <time>2023-10-31T08:27:28Z</time>
      </trkpt>
      <trkpt lat="42.79627" lon="-0.0195">
        <ele>1495.4</ele>
        <time>2023-10-31T08:27:29Z</time>
      </trkpt>
      <trkpt lat="42.79626" lon="-0.0195">
        <ele>1495.5</ele>
        <time>2023-10-31T08:27:30Z</time>
      </trkpt>
      <trkpt lat="42.79626" lon="-0.01951">
        <ele>1495.8</ele>
        <time>2023-10-31T08:27:31Z</time>
      </trkpt>
      <trkpt lat="42.79625" lon="-0.01951">
        <ele>1495.9</ele>
        <time>2023-10-31T08:27:32Z</time>
      </trkpt>
      <trkpt lat="42.79625" lon="-0.01951">
        <ele>1496</ele>
        <time>2023-10-31T08:27:33Z</time>
      </trkpt>
      <trkpt lat="42.79624" lon="-0.0195">
        <ele>1496.2</ele>
        <time>2023-10-31T08:27:34Z</time>
      </trkpt>
      <trkpt lat="42.79624" lon="-0.0195">
        <ele>1496.3</ele>
        <time>2023-10-31T08:27:35Z</time>
      </trkpt>
      <trkpt lat="42.79623" lon="-0.01952">
        <ele>1496.8</ele>
        <time>2023-10-31T08:27:36Z</time>
      </trkpt>
      <trkpt lat="42.79624" lon="-0.01954">
        <ele>1497.1</ele>
        <time>2023-10-31T08:27:37Z</time>
      </trkpt>
      <trkpt lat="42.79623" lon="-0.01952">
        <ele>1497.4</ele>
        <time>2023-10-31T08:27:38Z</time>
      </trkpt>
      <trkpt lat="42.79623" lon="-0.01953">
        <ele>1497.5</ele>
        <time>2023-10-31T08:27:39Z</time>
      </trkpt>
      <trkpt lat="42.79622" lon="-0.01953">
        <ele>1497.7</ele>
        <time>2023-10-31T08:27:40Z</time>
      </trkpt>
      <trkpt lat="42.79621" lon="-0.01952">
        <ele>1497.8</ele>
        <time>2023-10-31T08:27:41Z</time>
      </trkpt>
      <trkpt lat="42.7962" lon="-0.01953">
        <ele>1498.2</ele>
        <time>2023-10-31T08:27:42Z</time>
      </trkpt>
      <trkpt lat="42.7962" lon="-0.01953">
        <ele>1498.3</ele>
        <time>2023-10-31T08:27:43Z</time>
      </trkpt>
      <trkpt lat="42.79619" lon="-0.01953">
        <ele>1498.5</ele>
        <time>2023-10-31T08:27:44Z</time>
      </trkpt>
      <trkpt lat="42.79619" lon="-0.01954">
        <ele>1498.7</ele>
        <time>2023-10-31T08:27:45Z</time>
      </trkpt>
      <trkpt lat="42.79619" lon="-0.01954">
        <ele>1498.8</ele>
        <time>2023-10-31T08:27:46Z</time>
      </trkpt>
      <trkpt lat="42.79619" lon="-0.01954">
        <ele>1498.8</ele>
        <time>2023-10-31T08:27:47Z</time>
      </trkpt>
      <trkpt lat="42.79619" lon="-0.01955">
        <ele>1499</ele>
        <time>2023-10-31T08:27:48Z</time>
      </trkpt>
      <trkpt lat="42.79618" lon="-0.01955">
        <ele>1499.1</ele>
        <time>2023-10-31T08:27:49Z</time>
      </trkpt>
      <trkpt lat="42.79617" lon="-0.01956">
        <ele>1499.3</ele>
        <time>2023-10-31T08:27:50Z</time>
      </trkpt>
      <trkpt lat="42.79618" lon="-0.01957">
        <ele>1499.6</ele>
        <time>2023-10-31T08:27:51Z</time>
      </trkpt>
      <trkpt lat="42.79618" lon="-0.01958">
        <ele>1499.8</ele>
        <time>2023-10-31T08:27:52Z</time>
      </trkpt>
      <trkpt lat="42.79618" lon="-0.01959">
        <ele>1500</ele>
        <time>2023-10-31T08:27:53Z</time>
      </trkpt>
      <trkpt lat="42.79618" lon="-0.01961">
        <ele>1500.1</ele>
        <time>2023-10-31T08:27:54Z</time>
      </trkpt>
      <trkpt lat="42.79617" lon="-0.01961">
        <ele>1500.3</ele>
        <time>2023-10-31T08:27:55Z</time>
      </trkpt>
      <trkpt lat="42.79616" lon="-0.01961">
        <ele>1500.5</ele>
        <time>2023-10-31T08:27:56Z</time>
      </trkpt>
      <trkpt lat="42.79616" lon="-0.01961">
        <ele>1500.7</ele>
        <time>2023-10-31T08:27:57Z</time>
      </trkpt>
      <trkpt lat="42.79615" lon="-0.01963">
        <ele>1500.9</ele>
        <time>2023-10-31T08:27:58Z</time>
      </trkpt>
      <trkpt lat="42.79616" lon="-0.01963">
        <ele>1501</ele>
        <time>2023-10-31T08:27:59Z</time>
      </trkpt>
      <trkpt lat="42.79615" lon="-0.01964">
        <ele>1501.2</ele>
        <time>2023-10-31T08:28:00Z</time>
      </trkpt>
      <trkpt lat="42.79615" lon="-0.01966">
        <ele>1501.4</ele>
        <time>2023-10-31T08:28:01Z</time>
      </trkpt>
      <trkpt lat="42.79615" lon="-0.01965">
        <ele>1501.6</ele>
        <time>2023-10-31T08:28:02Z</time>
      </trkpt>
      <trkpt lat="42.79615" lon="-0.01965">
        <ele>1501.6</ele>
        <time>2023-10-31T08:28:03Z</time>
      </trkpt>
      <trkpt lat="42.79615" lon="-0.01965">
        <ele>1501.7</ele>
        <time>2023-10-31T08:28:04Z</time>
      </trkpt>
      <trkpt lat="42.79615" lon="-0.01967">
        <ele>1501.9</ele>
        <time>2023-10-31T08:28:05Z</time>
      </trkpt>
      <trkpt lat="42.79614" lon="-0.01967">
        <ele>1502.2</ele>
        <time>2023-10-31T08:28:06Z</time>
      </trkpt>
      <trkpt lat="42.79614" lon="-0.01968">
        <ele>1502.4</ele>
        <time>2023-10-31T08:28:07Z</time>
      </trkpt>
      <trkpt lat="42.79613" lon="-0.01969">
        <ele>1502.6</ele>
        <time>2023-10-31T08:28:08Z</time>
      </trkpt>
      <trkpt lat="42.79612" lon="-0.01968">
        <ele>1502.9</ele>
        <time>2023-10-31T08:28:09Z</time>
      </trkpt>
      <trkpt lat="42.79612" lon="-0.01968">
        <ele>1503</ele>
        <time>2023-10-31T08:28:10Z</time>
      </trkpt>
      <trkpt lat="42.79613" lon="-0.0197">
        <ele>1503.3</ele>
        <time>2023-10-31T08:28:11Z</time>
      </trkpt>
      <trkpt lat="42.79612" lon="-0.01972">
        <ele>1503.6</ele>
        <time>2023-10-31T08:28:12Z</time>
      </trkpt>
      <trkpt lat="42.79611" lon="-0.01971">
        <ele>1503.8</ele>
        <time>2023-10-31T08:28:13Z</time>
      </trkpt>
      <trkpt lat="42.79611" lon="-0.01972">
        <ele>1504</ele>
        <time>2023-10-31T08:28:14Z</time>
      </trkpt>
      <trkpt lat="42.79611" lon="-0.01973">
        <ele>1504.1</ele>
        <time>2023-10-31T08:28:15Z</time>
      </trkpt>
      <trkpt lat="42.7961" lon="-0.01975">
        <ele>1504.4</ele>
        <time>2023-10-31T08:28:16Z</time>
      </trkpt>
      <trkpt lat="42.7961" lon="-0.01975">
        <ele>1504.5</ele>
        <time>2023-10-31T08:28:17Z</time>
      </trkpt>
      <trkpt lat="42.79609" lon="-0.01975">
        <ele>1504.6</ele>
        <time>2023-10-31T08:28:18Z</time>
      </trkpt>
      <trkpt lat="42.79609" lon="-0.01976">
        <ele>1504.7</ele>
        <time>2023-10-31T08:28:19Z</time>
      </trkpt>
      <trkpt lat="42.79609" lon="-0.01976">
        <ele>1504.8</ele>
        <time>2023-10-31T08:28:20Z</time>
      </trkpt>
      <trkpt lat="42.79608" lon="-0.01977">
        <ele>1504.8</ele>
        <time>2023-10-31T08:28:21Z</time>
      </trkpt>
      <trkpt lat="42.79608" lon="-0.01977">
        <ele>1504.9</ele>
        <time>2023-10-31T08:28:22Z</time>
      </trkpt>
      <trkpt lat="42.79607" lon="-0.01977">
        <ele>1505</ele>
        <time>2023-10-31T08:28:23Z</time>
      </trkpt>
      <trkpt lat="42.79607" lon="-0.01978">
        <ele>1505.1</ele>
        <time>2023-10-31T08:28:24Z</time>
      </trkpt>
      <trkpt lat="42.79607" lon="-0.01978">
        <ele>1505.2</ele>
        <time>2023-10-31T08:28:25Z</time>
      </trkpt>
      <trkpt lat="42.79607" lon="-0.0198">
        <ele>1505.4</ele>
        <time>2023-10-31T08:28:26Z</time>
      </trkpt>
      <trkpt lat="42.79607" lon="-0.01978">
        <ele>1505.6</ele>
        <time>2023-10-31T08:28:27Z</time>
      </trkpt>
      <trkpt lat="42.79607" lon="-0.01979">
        <ele>1505.6</ele>
        <time>2023-10-31T08:28:28Z</time>
      </trkpt>
      <trkpt lat="42.79607" lon="-0.0198">
        <ele>1505.8</ele>
        <time>2023-10-31T08:28:29Z</time>
      </trkpt>
      <trkpt lat="42.79606" lon="-0.01981">
        <ele>1505.9</ele>
        <time>2023-10-31T08:28:30Z</time>
      </trkpt>
      <trkpt lat="42.79608" lon="-0.01981">
        <ele>1506.1</ele>
        <time>2023-10-31T08:28:31Z</time>
      </trkpt>
      <trkpt lat="42.79606" lon="-0.01981">
        <ele>1506.4</ele>
        <time>2023-10-31T08:28:32Z</time>
      </trkpt>
      <trkpt lat="42.79606" lon="-0.01982">
        <ele>1506.6</ele>
        <time>2023-10-31T08:28:33Z</time>
      </trkpt>
      <trkpt lat="42.79606" lon="-0.01984">
        <ele>1506.7</ele>
        <time>2023-10-31T08:28:34Z</time>
      </trkpt>
      <trkpt lat="42.79606" lon="-0.01984">
        <ele>1506.8</ele>
        <time>2023-10-31T08:28:35Z</time>
      </trkpt>
      <trkpt lat="42.79605" lon="-0.01986">
        <ele>1507</ele>
        <time>2023-10-31T08:28:36Z</time>
      </trkpt>
      <trkpt lat="42.79604" lon="-0.01987">
        <ele>1507.1</ele>
        <time>2023-10-31T08:28:37Z</time>
      </trkpt>
      <trkpt lat="42.79605" lon="-0.01987">
        <ele>1507.2</ele>
        <time>2023-10-31T08:28:38Z</time>
      </trkpt>
      <trkpt lat="42.79604" lon="-0.01989">
        <ele>1507.4</ele>
        <time>2023-10-31T08:28:39Z</time>
      </trkpt>
      <trkpt lat="42.79603" lon="-0.01988">
        <ele>1507.6</ele>
        <time>2023-10-31T08:28:40Z</time>
      </trkpt>
      <trkpt lat="42.79604" lon="-0.01991">
        <ele>1508</ele>
        <time>2023-10-31T08:28:41Z</time>
      </trkpt>
      <trkpt lat="42.79603" lon="-0.01991">
        <ele>1508</ele>
        <time>2023-10-31T08:28:42Z</time>
      </trkpt>
      <trkpt lat="42.79603" lon="-0.01991">
        <ele>1508.1</ele>
        <time>2023-10-31T08:28:43Z</time>
      </trkpt>
      <trkpt lat="42.79603" lon="-0.01991">
        <ele>1508.1</ele>
        <time>2023-10-31T08:28:44Z</time>
      </trkpt>
      <trkpt lat="42.79603" lon="-0.01993">
        <ele>1508.3</ele>
        <time>2023-10-31T08:28:45Z</time>
      </trkpt>
      <trkpt lat="42.79603" lon="-0.01996">
        <ele>1508.6</ele>
        <time>2023-10-31T08:28:46Z</time>
      </trkpt>
      <trkpt lat="42.79602" lon="-0.01996">
        <ele>1508.8</ele>
        <time>2023-10-31T08:28:47Z</time>
      </trkpt>
      <trkpt lat="42.79602" lon="-0.01997">
        <ele>1508.8</ele>
        <time>2023-10-31T08:28:48Z</time>
      </trkpt>
      <trkpt lat="42.79601" lon="-0.01998">
        <ele>1509</ele>
        <time>2023-10-31T08:28:49Z</time>
      </trkpt>
      <trkpt lat="42.79602" lon="-0.01998">
        <ele>1509.2</ele>
        <time>2023-10-31T08:28:50Z</time>
      </trkpt>
      <trkpt lat="42.79602" lon="-0.01999">
        <ele>1509.3</ele>
        <time>2023-10-31T08:28:51Z</time>
      </trkpt>
      <trkpt lat="42.79601" lon="-0.02">
        <ele>1509.4</ele>
        <time>2023-10-31T08:28:52Z</time>
      </trkpt>
      <trkpt lat="42.79601" lon="-0.02001">
        <ele>1509.5</ele>
        <time>2023-10-31T08:28:53Z</time>
      </trkpt>
      <trkpt lat="42.79601" lon="-0.02002">
        <ele>1509.6</ele>
        <time>2023-10-31T08:28:54Z</time>
      </trkpt>
      <trkpt lat="42.79601" lon="-0.02003">
        <ele>1509.7</ele>
        <time>2023-10-31T08:28:55Z</time>
      </trkpt>
      <trkpt lat="42.796" lon="-0.02002">
        <ele>1509.9</ele>
        <time>2023-10-31T08:28:56Z</time>
      </trkpt>
      <trkpt lat="42.796" lon="-0.02003">
        <ele>1510</ele>
        <time>2023-10-31T08:28:57Z</time>
      </trkpt>
      <trkpt lat="42.79601" lon="-0.02005">
        <ele>1510.2</ele>
        <time>2023-10-31T08:28:58Z</time>
      </trkpt>
      <trkpt lat="42.79601" lon="-0.02006">
        <ele>1510.3</ele>
        <time>2023-10-31T08:28:59Z</time>
      </trkpt>
      <trkpt lat="42.79601" lon="-0.02007">
        <ele>1510.4</ele>
        <time>2023-10-31T08:29:00Z</time>
      </trkpt>
      <trkpt lat="42.79601" lon="-0.02007">
        <ele>1510.5</ele>
        <time>2023-10-31T08:29:01Z</time>
      </trkpt>
      <trkpt lat="42.79601" lon="-0.02008">
        <ele>1510.6</ele>
        <time>2023-10-31T08:29:02Z</time>
      </trkpt>
      <trkpt lat="42.79601" lon="-0.02009">
        <ele>1510.7</ele>
        <time>2023-10-31T08:29:03Z</time>
      </trkpt>
      <trkpt lat="42.79602" lon="-0.0201">
        <ele>1510.8</ele>
        <time>2023-10-31T08:29:04Z</time>
      </trkpt>
      <trkpt lat="42.79601" lon="-0.02011">
        <ele>1511</ele>
        <time>2023-10-31T08:29:05Z</time>
      </trkpt>
      <trkpt lat="42.79601" lon="-0.02012">
        <ele>1511.1</ele>
        <time>2023-10-31T08:29:06Z</time>
      </trkpt>
      <trkpt lat="42.79601" lon="-0.02013">
        <ele>1511.2</ele>
        <time>2023-10-31T08:29:07Z</time>
      </trkpt>
      <trkpt lat="42.79601" lon="-0.02015">
        <ele>1511.4</ele>
        <time>2023-10-31T08:29:08Z</time>
      </trkpt>
      <trkpt lat="42.79601" lon="-0.02016">
        <ele>1511.6</ele>
        <time>2023-10-31T08:29:09Z</time>
      </trkpt>
      <trkpt lat="42.796" lon="-0.02017">
        <ele>1511.7</ele>
        <time>2023-10-31T08:29:10Z</time>
      </trkpt>
      <trkpt lat="42.79599" lon="-0.02017">
        <ele>1511.8</ele>
        <time>2023-10-31T08:29:11Z</time>
      </trkpt>
      <trkpt lat="42.79598" lon="-0.02017">
        <ele>1512</ele>
        <time>2023-10-31T08:29:12Z</time>
      </trkpt>
      <trkpt lat="42.79597" lon="-0.02016">
        <ele>1512.2</ele>
        <time>2023-10-31T08:29:13Z</time>
      </trkpt>
      <trkpt lat="42.79596" lon="-0.02017">
        <ele>1512.4</ele>
        <time>2023-10-31T08:29:14Z</time>
      </trkpt>
      <trkpt lat="42.79595" lon="-0.02018">
        <ele>1512.5</ele>
        <time>2023-10-31T08:29:15Z</time>
      </trkpt>
      <trkpt lat="42.79595" lon="-0.02017">
        <ele>1512.6</ele>
        <time>2023-10-31T08:29:16Z</time>
      </trkpt>
      <trkpt lat="42.79594" lon="-0.02018">
        <ele>1512.7</ele>
        <time>2023-10-31T08:29:17Z</time>
      </trkpt>
      <trkpt lat="42.79594" lon="-0.02019">
        <ele>1512.9</ele>
        <time>2023-10-31T08:29:18Z</time>
      </trkpt>
      <trkpt lat="42.79593" lon="-0.02022">
        <ele>1513.2</ele>
        <time>2023-10-31T08:29:19Z</time>
      </trkpt>
      <trkpt lat="42.79593" lon="-0.02024">
        <ele>1513.3</ele>
        <time>2023-10-31T08:29:20Z</time>
      </trkpt>
      <trkpt lat="42.79593" lon="-0.02025">
        <ele>1513.4</ele>
        <time>2023-10-31T08:29:21Z</time>
      </trkpt>
      <trkpt lat="42.79593" lon="-0.02026">
        <ele>1513.5</ele>
        <time>2023-10-31T08:29:22Z</time>
      </trkpt>
      <trkpt lat="42.79593" lon="-0.02028">
        <ele>1513.7</ele>
        <time>2023-10-31T08:29:23Z</time>
      </trkpt>
      <trkpt lat="42.79593" lon="-0.02029">
        <ele>1513.8</ele>
        <time>2023-10-31T08:29:24Z</time>
      </trkpt>
      <trkpt lat="42.79593" lon="-0.0203">
        <ele>1513.9</ele>
        <time>2023-10-31T08:29:25Z</time>
      </trkpt>
      <trkpt lat="42.79593" lon="-0.02031">
        <ele>1514</ele>
        <time>2023-10-31T08:29:26Z</time>
      </trkpt>
      <trkpt lat="42.79592" lon="-0.02033">
        <ele>1514.1</ele>
        <time>2023-10-31T08:29:27Z</time>
      </trkpt>
      <trkpt lat="42.79592" lon="-0.02034">
        <ele>1514.2</ele>
        <time>2023-10-31T08:29:28Z</time>
      </trkpt>
      <trkpt lat="42.79592" lon="-0.02035">
        <ele>1514.3</ele>
        <time>2023-10-31T08:29:29Z</time>
      </trkpt>
      <trkpt lat="42.79592" lon="-0.02035">
        <ele>1514.3</ele>
        <time>2023-10-31T08:29:30Z</time>
      </trkpt>
      <trkpt lat="42.79592" lon="-0.02037">
        <ele>1514.5</ele>
        <time>2023-10-31T08:29:31Z</time>
      </trkpt>
      <trkpt lat="42.79591" lon="-0.02037">
        <ele>1514.5</ele>
        <time>2023-10-31T08:29:32Z</time>
      </trkpt>
      <trkpt lat="42.79591" lon="-0.02038">
        <ele>1514.6</ele>
        <time>2023-10-31T08:29:33Z</time>
      </trkpt>
      <trkpt lat="42.7959" lon="-0.02038">
        <ele>1514.6</ele>
        <time>2023-10-31T08:29:34Z</time>
      </trkpt>
      <trkpt lat="42.7959" lon="-0.02038">
        <ele>1514.6</ele>
        <time>2023-10-31T08:29:35Z</time>
      </trkpt>
      <trkpt lat="42.79589" lon="-0.02039">
        <ele>1514.7</ele>
        <time>2023-10-31T08:29:36Z</time>
      </trkpt>
      <trkpt lat="42.79589" lon="-0.02039">
        <ele>1514.8</ele>
        <time>2023-10-31T08:29:37Z</time>
      </trkpt>
      <trkpt lat="42.79588" lon="-0.0204">
        <ele>1514.8</ele>
        <time>2023-10-31T08:29:38Z</time>
      </trkpt>
      <trkpt lat="42.79588" lon="-0.02041">
        <ele>1514.9</ele>
        <time>2023-10-31T08:29:39Z</time>
      </trkpt>
      <trkpt lat="42.79588" lon="-0.02042">
        <ele>1514.9</ele>
        <time>2023-10-31T08:29:40Z</time>
      </trkpt>
      <trkpt lat="42.79587" lon="-0.02044">
        <ele>1515.1</ele>
        <time>2023-10-31T08:29:41Z</time>
      </trkpt>
      <trkpt lat="42.79587" lon="-0.02043">
        <ele>1515.1</ele>
        <time>2023-10-31T08:29:42Z</time>
      </trkpt>
      <trkpt lat="42.79587" lon="-0.02044">
        <ele>1515.1</ele>
        <time>2023-10-31T08:29:43Z</time>
      </trkpt>
      <trkpt lat="42.79587" lon="-0.02044">
        <ele>1515.1</ele>
        <time>2023-10-31T08:29:44Z</time>
      </trkpt>
      <trkpt lat="42.79586" lon="-0.02046">
        <ele>1515.2</ele>
        <time>2023-10-31T08:29:45Z</time>
      </trkpt>
      <trkpt lat="42.79586" lon="-0.02049">
        <ele>1515.4</ele>
        <time>2023-10-31T08:29:46Z</time>
      </trkpt>
      <trkpt lat="42.79586" lon="-0.0205">
        <ele>1515.4</ele>
        <time>2023-10-31T08:29:47Z</time>
      </trkpt>
      <trkpt lat="42.79586" lon="-0.02052">
        <ele>1515.4</ele>
        <time>2023-10-31T08:29:48Z</time>
      </trkpt>
      <trkpt lat="42.79586" lon="-0.02053">
        <ele>1515.5</ele>
        <time>2023-10-31T08:29:49Z</time>
      </trkpt>
      <trkpt lat="42.79586" lon="-0.02054">
        <ele>1515.5</ele>
        <time>2023-10-31T08:29:50Z</time>
      </trkpt>
      <trkpt lat="42.79586" lon="-0.02055">
        <ele>1515.5</ele>
        <time>2023-10-31T08:29:51Z</time>
      </trkpt>
      <trkpt lat="42.79586" lon="-0.02054">
        <ele>1515.6</ele>
        <time>2023-10-31T08:29:52Z</time>
      </trkpt>
      <trkpt lat="42.79586" lon="-0.02055">
        <ele>1515.6</ele>
        <time>2023-10-31T08:29:53Z</time>
      </trkpt>
      <trkpt lat="42.79586" lon="-0.02054">
        <ele>1515.6</ele>
        <time>2023-10-31T08:29:54Z</time>
      </trkpt>
      <trkpt lat="42.79587" lon="-0.02056">
        <ele>1515.6</ele>
        <time>2023-10-31T08:29:55Z</time>
      </trkpt>
      <trkpt lat="42.79588" lon="-0.02058">
        <ele>1515.6</ele>
        <time>2023-10-31T08:29:56Z</time>
      </trkpt>
      <trkpt lat="42.79588" lon="-0.02059">
        <ele>1515.6</ele>
        <time>2023-10-31T08:29:57Z</time>
      </trkpt>
      <trkpt lat="42.79588" lon="-0.02059">
        <ele>1515.7</ele>
        <time>2023-10-31T08:29:58Z</time>
      </trkpt>
      <trkpt lat="42.79589" lon="-0.0206">
        <ele>1515.7</ele>
        <time>2023-10-31T08:29:59Z</time>
      </trkpt>
      <trkpt lat="42.79589" lon="-0.02061">
        <ele>1515.7</ele>
        <time>2023-10-31T08:30:00Z</time>
      </trkpt>
      <trkpt lat="42.7959" lon="-0.02063">
        <ele>1515.7</ele>
        <time>2023-10-31T08:30:01Z</time>
      </trkpt>
      <trkpt lat="42.79589" lon="-0.02061">
        <ele>1515.7</ele>
        <time>2023-10-31T08:30:02Z</time>
      </trkpt>
      <trkpt lat="42.79589" lon="-0.02065">
        <ele>1515.7</ele>
        <time>2023-10-31T08:30:03Z</time>
      </trkpt>
      <trkpt lat="42.79589" lon="-0.02066">
        <ele>1515.7</ele>
        <time>2023-10-31T08:30:04Z</time>
      </trkpt>
      <trkpt lat="42.79589" lon="-0.02068">
        <ele>1515.7</ele>
        <time>2023-10-31T08:30:05Z</time>
      </trkpt>
      <trkpt lat="42.79589" lon="-0.0207">
        <ele>1515.7</ele>
        <time>2023-10-31T08:30:06Z</time>
      </trkpt>
      <trkpt lat="42.79589" lon="-0.02071">
        <ele>1515.7</ele>
        <time>2023-10-31T08:30:07Z</time>
      </trkpt>
      <trkpt lat="42.79589" lon="-0.02072">
        <ele>1515.7</ele>
        <time>2023-10-31T08:30:08Z</time>
      </trkpt>
      <trkpt lat="42.79589" lon="-0.02073">
        <ele>1515.7</ele>
        <time>2023-10-31T08:30:09Z</time>
      </trkpt>
      <trkpt lat="42.79589" lon="-0.02074">
        <ele>1515.7</ele>
        <time>2023-10-31T08:30:10Z</time>
      </trkpt>
      <trkpt lat="42.79589" lon="-0.02074">
        <ele>1515.7</ele>
        <time>2023-10-31T08:30:11Z</time>
      </trkpt>
      <trkpt lat="42.79589" lon="-0.02074">
        <ele>1515.7</ele>
        <time>2023-10-31T08:30:12Z</time>
      </trkpt>
      <trkpt lat="42.79588" lon="-0.02076">
        <ele>1515.7</ele>
        <time>2023-10-31T08:30:13Z</time>
      </trkpt>
      <trkpt lat="42.79588" lon="-0.02079">
        <ele>1515.7</ele>
        <time>2023-10-31T08:30:14Z</time>
      </trkpt>
      <trkpt lat="42.79589" lon="-0.0208">
        <ele>1515.8</ele>
        <time>2023-10-31T08:30:15Z</time>
      </trkpt>
      <trkpt lat="42.79589" lon="-0.02082">
        <ele>1515.8</ele>
        <time>2023-10-31T08:30:16Z</time>
      </trkpt>
      <trkpt lat="42.7959" lon="-0.02084">
        <ele>1515.9</ele>
        <time>2023-10-31T08:30:17Z</time>
      </trkpt>
      <trkpt lat="42.7959" lon="-0.02086">
        <ele>1515.9</ele>
        <time>2023-10-31T08:30:18Z</time>
      </trkpt>
      <trkpt lat="42.79589" lon="-0.02086">
        <ele>1515.9</ele>
        <time>2023-10-31T08:30:19Z</time>
      </trkpt>
      <trkpt lat="42.79588" lon="-0.02088">
        <ele>1516</ele>
        <time>2023-10-31T08:30:20Z</time>
      </trkpt>
      <trkpt lat="42.79588" lon="-0.02089">
        <ele>1516</ele>
        <time>2023-10-31T08:30:21Z</time>
      </trkpt>
      <trkpt lat="42.79588" lon="-0.0209">
        <ele>1516.1</ele>
        <time>2023-10-31T08:30:22Z</time>
      </trkpt>
      <trkpt lat="42.79587" lon="-0.02092">
        <ele>1516.2</ele>
        <time>2023-10-31T08:30:23Z</time>
      </trkpt>
      <trkpt lat="42.79587" lon="-0.02093">
        <ele>1516.2</ele>
        <time>2023-10-31T08:30:24Z</time>
      </trkpt>
      <trkpt lat="42.79586" lon="-0.02094">
        <ele>1516.3</ele>
        <time>2023-10-31T08:30:25Z</time>
      </trkpt>
      <trkpt lat="42.79585" lon="-0.02095">
        <ele>1516.3</ele>
        <time>2023-10-31T08:30:26Z</time>
      </trkpt>
      <trkpt lat="42.79584" lon="-0.02096">
        <ele>1516.4</ele>
        <time>2023-10-31T08:30:27Z</time>
      </trkpt>
      <trkpt lat="42.79582" lon="-0.02097">
        <ele>1516.5</ele>
        <time>2023-10-31T08:30:28Z</time>
      </trkpt>
      <trkpt lat="42.79583" lon="-0.021">
        <ele>1516.6</ele>
        <time>2023-10-31T08:30:29Z</time>
      </trkpt>
      <trkpt lat="42.79582" lon="-0.02101">
        <ele>1516.7</ele>
        <time>2023-10-31T08:30:30Z</time>
      </trkpt>
      <trkpt lat="42.79581" lon="-0.02101">
        <ele>1516.8</ele>
        <time>2023-10-31T08:30:31Z</time>
      </trkpt>
      <trkpt lat="42.79581" lon="-0.02101">
        <ele>1516.8</ele>
        <time>2023-10-31T08:30:32Z</time>
      </trkpt>
      <trkpt lat="42.79579" lon="-0.02103">
        <ele>1517</ele>
        <time>2023-10-31T08:30:33Z</time>
      </trkpt>
      <trkpt lat="42.79578" lon="-0.02104">
        <ele>1517.1</ele>
        <time>2023-10-31T08:30:34Z</time>
      </trkpt>
      <trkpt lat="42.79577" lon="-0.02105">
        <ele>1517.2</ele>
        <time>2023-10-31T08:30:35Z</time>
      </trkpt>
      <trkpt lat="42.79577" lon="-0.02106">
        <ele>1517.3</ele>
        <time>2023-10-31T08:30:36Z</time>
      </trkpt>
      <trkpt lat="42.79577" lon="-0.02107">
        <ele>1517.3</ele>
        <time>2023-10-31T08:30:37Z</time>
      </trkpt>
      <trkpt lat="42.79576" lon="-0.02108">
        <ele>1517.4</ele>
        <time>2023-10-31T08:30:38Z</time>
      </trkpt>
      <trkpt lat="42.79575" lon="-0.02109">
        <ele>1517.5</ele>
        <time>2023-10-31T08:30:39Z</time>
      </trkpt>
      <trkpt lat="42.79575" lon="-0.02111">
        <ele>1517.7</ele>
        <time>2023-10-31T08:30:40Z</time>
      </trkpt>
      <trkpt lat="42.79575" lon="-0.02114">
        <ele>1517.8</ele>
        <time>2023-10-31T08:30:41Z</time>
      </trkpt>
      <trkpt lat="42.79575" lon="-0.02115">
        <ele>1518</ele>
        <time>2023-10-31T08:30:42Z</time>
      </trkpt>
      <trkpt lat="42.79574" lon="-0.02116">
        <ele>1518.1</ele>
        <time>2023-10-31T08:30:43Z</time>
      </trkpt>
      <trkpt lat="42.79574" lon="-0.02116">
        <ele>1518.1</ele>
        <time>2023-10-31T08:30:44Z</time>
      </trkpt>
      <trkpt lat="42.79573" lon="-0.02117">
        <ele>1518.2</ele>
        <time>2023-10-31T08:30:45Z</time>
      </trkpt>
      <trkpt lat="42.79573" lon="-0.02119">
        <ele>1518.4</ele>
        <time>2023-10-31T08:30:46Z</time>
      </trkpt>
      <trkpt lat="42.79574" lon="-0.02121">
        <ele>1518.5</ele>
        <time>2023-10-31T08:30:47Z</time>
      </trkpt>
      <trkpt lat="42.79574" lon="-0.02123">
        <ele>1518.7</ele>
        <time>2023-10-31T08:30:48Z</time>
      </trkpt>
      <trkpt lat="42.79573" lon="-0.02123">
        <ele>1518.7</ele>
        <time>2023-10-31T08:30:49Z</time>
      </trkpt>
      <trkpt lat="42.79573" lon="-0.02124">
        <ele>1518.8</ele>
        <time>2023-10-31T08:30:50Z</time>
      </trkpt>
      <trkpt lat="42.79573" lon="-0.02125">
        <ele>1518.9</ele>
        <time>2023-10-31T08:30:51Z</time>
      </trkpt>
      <trkpt lat="42.79573" lon="-0.02127">
        <ele>1519.1</ele>
        <time>2023-10-31T08:30:52Z</time>
      </trkpt>
      <trkpt lat="42.79572" lon="-0.02127">
        <ele>1519.2</ele>
        <time>2023-10-31T08:30:53Z</time>
      </trkpt>
      <trkpt lat="42.79572" lon="-0.02129">
        <ele>1519.4</ele>
        <time>2023-10-31T08:30:54Z</time>
      </trkpt>
      <trkpt lat="42.79571" lon="-0.02132">
        <ele>1519.7</ele>
        <time>2023-10-31T08:30:55Z</time>
      </trkpt>
      <trkpt lat="42.79571" lon="-0.02133">
        <ele>1519.8</ele>
        <time>2023-10-31T08:30:56Z</time>
      </trkpt>
      <trkpt lat="42.7957" lon="-0.02133">
        <ele>1519.9</ele>
        <time>2023-10-31T08:30:57Z</time>
      </trkpt>
      <trkpt lat="42.79571" lon="-0.02134">
        <ele>1520</ele>
        <time>2023-10-31T08:30:58Z</time>
      </trkpt>
      <trkpt lat="42.79571" lon="-0.02135">
        <ele>1520</ele>
        <time>2023-10-31T08:30:59Z</time>
      </trkpt>
      <trkpt lat="42.7957" lon="-0.02136">
        <ele>1520.2</ele>
        <time>2023-10-31T08:31:00Z</time>
      </trkpt>
      <trkpt lat="42.7957" lon="-0.02138">
        <ele>1520.4</ele>
        <time>2023-10-31T08:31:01Z</time>
      </trkpt>
      <trkpt lat="42.7957" lon="-0.0214">
        <ele>1520.6</ele>
        <time>2023-10-31T08:31:02Z</time>
      </trkpt>
      <trkpt lat="42.79569" lon="-0.0214">
        <ele>1520.7</ele>
        <time>2023-10-31T08:31:03Z</time>
      </trkpt>
      <trkpt lat="42.7957" lon="-0.02141">
        <ele>1520.7</ele>
        <time>2023-10-31T08:31:04Z</time>
      </trkpt>
      <trkpt lat="42.79569" lon="-0.02142">
        <ele>1520.8</ele>
        <time>2023-10-31T08:31:05Z</time>
      </trkpt>
      <trkpt lat="42.79569" lon="-0.02142">
        <ele>1520.9</ele>
        <time>2023-10-31T08:31:06Z</time>
      </trkpt>
      <trkpt lat="42.79568" lon="-0.02143">
        <ele>1521</ele>
        <time>2023-10-31T08:31:07Z</time>
      </trkpt>
      <trkpt lat="42.79567" lon="-0.02143">
        <ele>1521.1</ele>
        <time>2023-10-31T08:31:08Z</time>
      </trkpt>
      <trkpt lat="42.79566" lon="-0.02144">
        <ele>1521.3</ele>
        <time>2023-10-31T08:31:09Z</time>
      </trkpt>
      <trkpt lat="42.79566" lon="-0.02146">
        <ele>1521.4</ele>
        <time>2023-10-31T08:31:10Z</time>
      </trkpt>
      <trkpt lat="42.79565" lon="-0.02147">
        <ele>1521.6</ele>
        <time>2023-10-31T08:31:11Z</time>
      </trkpt>
      <trkpt lat="42.79565" lon="-0.02148">
        <ele>1521.7</ele>
        <time>2023-10-31T08:31:12Z</time>
      </trkpt>
      <trkpt lat="42.79565" lon="-0.0215">
        <ele>1521.9</ele>
        <time>2023-10-31T08:31:13Z</time>
      </trkpt>
      <trkpt lat="42.79565" lon="-0.0215">
        <ele>1522</ele>
        <time>2023-10-31T08:31:14Z</time>
      </trkpt>
      <trkpt lat="42.79564" lon="-0.02152">
        <ele>1522.1</ele>
        <time>2023-10-31T08:31:15Z</time>
      </trkpt>
      <trkpt lat="42.79564" lon="-0.02152">
        <ele>1522.2</ele>
        <time>2023-10-31T08:31:16Z</time>
      </trkpt>
      <trkpt lat="42.79563" lon="-0.02153">
        <ele>1522.3</ele>
        <time>2023-10-31T08:31:17Z</time>
      </trkpt>
      <trkpt lat="42.79563" lon="-0.02154">
        <ele>1522.4</ele>
        <time>2023-10-31T08:31:18Z</time>
      </trkpt>
      <trkpt lat="42.79563" lon="-0.02155">
        <ele>1522.6</ele>
        <time>2023-10-31T08:31:19Z</time>
      </trkpt>
      <trkpt lat="42.79563" lon="-0.02157">
        <ele>1522.8</ele>
        <time>2023-10-31T08:31:20Z</time>
      </trkpt>
      <trkpt lat="42.79562" lon="-0.02157">
        <ele>1522.8</ele>
        <time>2023-10-31T08:31:21Z</time>
      </trkpt>
      <trkpt lat="42.79562" lon="-0.02158">
        <ele>1523</ele>
        <time>2023-10-31T08:31:22Z</time>
      </trkpt>
      <trkpt lat="42.79562" lon="-0.02159">
        <ele>1523.1</ele>
        <time>2023-10-31T08:31:23Z</time>
      </trkpt>
      <trkpt lat="42.79562" lon="-0.02158">
        <ele>1523.2</ele>
        <time>2023-10-31T08:31:24Z</time>
      </trkpt>
      <trkpt lat="42.7956" lon="-0.02161">
        <ele>1523.5</ele>
        <time>2023-10-31T08:31:25Z</time>
      </trkpt>
      <trkpt lat="42.7956" lon="-0.02162">
        <ele>1523.6</ele>
        <time>2023-10-31T08:31:26Z</time>
      </trkpt>
      <trkpt lat="42.79559" lon="-0.02164">
        <ele>1523.9</ele>
        <time>2023-10-31T08:31:27Z</time>
      </trkpt>
      <trkpt lat="42.79559" lon="-0.02165">
        <ele>1524</ele>
        <time>2023-10-31T08:31:28Z</time>
      </trkpt>
      <trkpt lat="42.79559" lon="-0.02166">
        <ele>1524.1</ele>
        <time>2023-10-31T08:31:29Z</time>
      </trkpt>
      <trkpt lat="42.79559" lon="-0.02167">
        <ele>1524.2</ele>
        <time>2023-10-31T08:31:30Z</time>
      </trkpt>
      <trkpt lat="42.79559" lon="-0.02167">
        <ele>1524.3</ele>
        <time>2023-10-31T08:31:31Z</time>
      </trkpt>
      <trkpt lat="42.7956" lon="-0.02168">
        <ele>1524.4</ele>
        <time>2023-10-31T08:31:32Z</time>
      </trkpt>
      <trkpt lat="42.79561" lon="-0.02168">
        <ele>1524.5</ele>
        <time>2023-10-31T08:31:33Z</time>
      </trkpt>
      <trkpt lat="42.79561" lon="-0.02169">
        <ele>1524.6</ele>
        <time>2023-10-31T08:31:34Z</time>
      </trkpt>
      <trkpt lat="42.79561" lon="-0.0217">
        <ele>1524.8</ele>
        <time>2023-10-31T08:31:35Z</time>
      </trkpt>
      <trkpt lat="42.79561" lon="-0.02169">
        <ele>1524.9</ele>
        <time>2023-10-31T08:31:36Z</time>
      </trkpt>
      <trkpt lat="42.79561" lon="-0.02171">
        <ele>1525.2</ele>
        <time>2023-10-31T08:31:37Z</time>
      </trkpt>
      <trkpt lat="42.7956" lon="-0.02174">
        <ele>1525.7</ele>
        <time>2023-10-31T08:31:38Z</time>
      </trkpt>
      <trkpt lat="42.7956" lon="-0.02175">
        <ele>1525.8</ele>
        <time>2023-10-31T08:31:39Z</time>
      </trkpt>
      <trkpt lat="42.7956" lon="-0.02176">
        <ele>1525.9</ele>
        <time>2023-10-31T08:31:40Z</time>
      </trkpt>
      <trkpt lat="42.7956" lon="-0.02177">
        <ele>1526.1</ele>
        <time>2023-10-31T08:31:41Z</time>
      </trkpt>
      <trkpt lat="42.7956" lon="-0.02178">
        <ele>1526.3</ele>
        <time>2023-10-31T08:31:42Z</time>
      </trkpt>
      <trkpt lat="42.7956" lon="-0.02179">
        <ele>1526.4</ele>
        <time>2023-10-31T08:31:43Z</time>
      </trkpt>
      <trkpt lat="42.7956" lon="-0.0218">
        <ele>1526.5</ele>
        <time>2023-10-31T08:31:44Z</time>
      </trkpt>
      <trkpt lat="42.7956" lon="-0.02181">
        <ele>1526.7</ele>
        <time>2023-10-31T08:31:45Z</time>
      </trkpt>
      <trkpt lat="42.7956" lon="-0.02183">
        <ele>1527</ele>
        <time>2023-10-31T08:31:46Z</time>
      </trkpt>
      <trkpt lat="42.79559" lon="-0.02184">
        <ele>1527.2</ele>
        <time>2023-10-31T08:31:47Z</time>
      </trkpt>
      <trkpt lat="42.79559" lon="-0.02185">
        <ele>1527.4</ele>
        <time>2023-10-31T08:31:48Z</time>
      </trkpt>
      <trkpt lat="42.79558" lon="-0.02186">
        <ele>1527.5</ele>
        <time>2023-10-31T08:31:49Z</time>
      </trkpt>
      <trkpt lat="42.79558" lon="-0.02185">
        <ele>1527.6</ele>
        <time>2023-10-31T08:31:50Z</time>
      </trkpt>
      <trkpt lat="42.79558" lon="-0.02185">
        <ele>1527.7</ele>
        <time>2023-10-31T08:31:51Z</time>
      </trkpt>
      <trkpt lat="42.79557" lon="-0.02185">
        <ele>1527.8</ele>
        <time>2023-10-31T08:31:52Z</time>
      </trkpt>
      <trkpt lat="42.79557" lon="-0.02186">
        <ele>1528.1</ele>
        <time>2023-10-31T08:31:53Z</time>
      </trkpt>
      <trkpt lat="42.79557" lon="-0.02187">
        <ele>1528.2</ele>
        <time>2023-10-31T08:31:54Z</time>
      </trkpt>
      <trkpt lat="42.79557" lon="-0.02188">
        <ele>1528.4</ele>
        <time>2023-10-31T08:31:55Z</time>
      </trkpt>
      <trkpt lat="42.79557" lon="-0.02188">
        <ele>1528.5</ele>
        <time>2023-10-31T08:31:56Z</time>
      </trkpt>
      <trkpt lat="42.79557" lon="-0.02188">
        <ele>1528.6</ele>
        <time>2023-10-31T08:31:57Z</time>
      </trkpt>
      <trkpt lat="42.79556" lon="-0.02189">
        <ele>1528.8</ele>
        <time>2023-10-31T08:31:58Z</time>
      </trkpt>
      <trkpt lat="42.79556" lon="-0.02189">
        <ele>1529</ele>
        <time>2023-10-31T08:31:59Z</time>
      </trkpt>
      <trkpt lat="42.79555" lon="-0.0219">
        <ele>1529.1</ele>
        <time>2023-10-31T08:32:00Z</time>
      </trkpt>
      <trkpt lat="42.79555" lon="-0.02191">
        <ele>1529.3</ele>
        <time>2023-10-31T08:32:01Z</time>
      </trkpt>
      <trkpt lat="42.79555" lon="-0.02191">
        <ele>1529.3</ele>
        <time>2023-10-31T08:32:02Z</time>
      </trkpt>
      <trkpt lat="42.79554" lon="-0.02192">
        <ele>1529.5</ele>
        <time>2023-10-31T08:32:03Z</time>
      </trkpt>
      <trkpt lat="42.79554" lon="-0.02194">
        <ele>1529.7</ele>
        <time>2023-10-31T08:32:04Z</time>
      </trkpt>
      <trkpt lat="42.79554" lon="-0.02193">
        <ele>1529.8</ele>
        <time>2023-10-31T08:32:05Z</time>
      </trkpt>
      <trkpt lat="42.79554" lon="-0.02194">
        <ele>1530</ele>
        <time>2023-10-31T08:32:06Z</time>
      </trkpt>
      <trkpt lat="42.79554" lon="-0.02196">
        <ele>1530.3</ele>
        <time>2023-10-31T08:32:07Z</time>
      </trkpt>
      <trkpt lat="42.79554" lon="-0.02198">
        <ele>1530.6</ele>
        <time>2023-10-31T08:32:08Z</time>
      </trkpt>
      <trkpt lat="42.79554" lon="-0.02199">
        <ele>1530.8</ele>
        <time>2023-10-31T08:32:09Z</time>
      </trkpt>
      <trkpt lat="42.79554" lon="-0.022">
        <ele>1530.9</ele>
        <time>2023-10-31T08:32:10Z</time>
      </trkpt>
      <trkpt lat="42.79554" lon="-0.02201">
        <ele>1531</ele>
        <time>2023-10-31T08:32:11Z</time>
      </trkpt>
      <trkpt lat="42.79554" lon="-0.02202">
        <ele>1531.2</ele>
        <time>2023-10-31T08:32:12Z</time>
      </trkpt>
      <trkpt lat="42.79554" lon="-0.02203">
        <ele>1531.3</ele>
        <time>2023-10-31T08:32:13Z</time>
      </trkpt>
      <trkpt lat="42.79554" lon="-0.02202">
        <ele>1531.4</ele>
        <time>2023-10-31T08:32:14Z</time>
      </trkpt>
      <trkpt lat="42.79553" lon="-0.02203">
        <ele>1531.5</ele>
        <time>2023-10-31T08:32:15Z</time>
      </trkpt>
      <trkpt lat="42.79553" lon="-0.02205">
        <ele>1531.8</ele>
        <time>2023-10-31T08:32:16Z</time>
      </trkpt>
      <trkpt lat="42.79553" lon="-0.02205">
        <ele>1531.8</ele>
        <time>2023-10-31T08:32:17Z</time>
      </trkpt>
      <trkpt lat="42.79553" lon="-0.02207">
        <ele>1532.1</ele>
        <time>2023-10-31T08:32:18Z</time>
      </trkpt>
      <trkpt lat="42.79552" lon="-0.0221">
        <ele>1532.4</ele>
        <time>2023-10-31T08:32:19Z</time>
      </trkpt>
      <trkpt lat="42.79552" lon="-0.02211">
        <ele>1532.7</ele>
        <time>2023-10-31T08:32:20Z</time>
      </trkpt>
      <trkpt lat="42.79552" lon="-0.02213">
        <ele>1532.9</ele>
        <time>2023-10-31T08:32:21Z</time>
      </trkpt>
      <trkpt lat="42.79552" lon="-0.02213">
        <ele>1533</ele>
        <time>2023-10-31T08:32:22Z</time>
      </trkpt>
      <trkpt lat="42.79552" lon="-0.02214">
        <ele>1533.1</ele>
        <time>2023-10-31T08:32:23Z</time>
      </trkpt>
      <trkpt lat="42.79551" lon="-0.02214">
        <ele>1533.2</ele>
        <time>2023-10-31T08:32:24Z</time>
      </trkpt>
      <trkpt lat="42.79551" lon="-0.02214">
        <ele>1533.2</ele>
        <time>2023-10-31T08:32:25Z</time>
      </trkpt>
      <trkpt lat="42.7955" lon="-0.02214">
        <ele>1533.4</ele>
        <time>2023-10-31T08:32:26Z</time>
      </trkpt>
      <trkpt lat="42.7955" lon="-0.02216">
        <ele>1533.6</ele>
        <time>2023-10-31T08:32:27Z</time>
      </trkpt>
      <trkpt lat="42.7955" lon="-0.02217">
        <ele>1533.8</ele>
        <time>2023-10-31T08:32:28Z</time>
      </trkpt>
      <trkpt lat="42.79549" lon="-0.02218">
        <ele>1533.9</ele>
        <time>2023-10-31T08:32:29Z</time>
      </trkpt>
      <trkpt lat="42.79549" lon="-0.02219">
        <ele>1534.1</ele>
        <time>2023-10-31T08:32:30Z</time>
      </trkpt>
      <trkpt lat="42.79549" lon="-0.02219">
        <ele>1534.2</ele>
        <time>2023-10-31T08:32:31Z</time>
      </trkpt>
      <trkpt lat="42.79549" lon="-0.02217">
        <ele>1534.4</ele>
        <time>2023-10-31T08:32:32Z</time>
      </trkpt>
      <trkpt lat="42.79548" lon="-0.02218">
        <ele>1534.6</ele>
        <time>2023-10-31T08:32:33Z</time>
      </trkpt>
      <trkpt lat="42.79548" lon="-0.0222">
        <ele>1534.8</ele>
        <time>2023-10-31T08:32:34Z</time>
      </trkpt>
      <trkpt lat="42.79548" lon="-0.02221">
        <ele>1534.9</ele>
        <time>2023-10-31T08:32:35Z</time>
      </trkpt>
      <trkpt lat="42.79549" lon="-0.02221">
        <ele>1534.9</ele>
        <time>2023-10-31T08:32:36Z</time>
      </trkpt>
      <trkpt lat="42.79548" lon="-0.02221">
        <ele>1535</ele>
        <time>2023-10-31T08:32:37Z</time>
      </trkpt>
      <trkpt lat="42.79548" lon="-0.02222">
        <ele>1535.1</ele>
        <time>2023-10-31T08:32:38Z</time>
      </trkpt>
      <trkpt lat="42.79548" lon="-0.02224">
        <ele>1535.3</ele>
        <time>2023-10-31T08:32:39Z</time>
      </trkpt>
      <trkpt lat="42.79548" lon="-0.02224">
        <ele>1535.4</ele>
        <time>2023-10-31T08:32:40Z</time>
      </trkpt>
      <trkpt lat="42.79548" lon="-0.02224">
        <ele>1535.4</ele>
        <time>2023-10-31T08:32:41Z</time>
      </trkpt>
      <trkpt lat="42.79548" lon="-0.02226">
        <ele>1535.7</ele>
        <time>2023-10-31T08:32:42Z</time>
      </trkpt>
      <trkpt lat="42.79548" lon="-0.02228">
        <ele>1535.9</ele>
        <time>2023-10-31T08:32:43Z</time>
      </trkpt>
      <trkpt lat="42.79548" lon="-0.02228">
        <ele>1536</ele>
        <time>2023-10-31T08:32:44Z</time>
      </trkpt>
      <trkpt lat="42.79547" lon="-0.0223">
        <ele>1536.3</ele>
        <time>2023-10-31T08:32:45Z</time>
      </trkpt>
      <trkpt lat="42.79547" lon="-0.02232">
        <ele>1536.5</ele>
        <time>2023-10-31T08:32:46Z</time>
      </trkpt>
      <trkpt lat="42.79546" lon="-0.02232">
        <ele>1536.6</ele>
        <time>2023-10-31T08:32:47Z</time>
      </trkpt>
      <trkpt lat="42.79546" lon="-0.02233">
        <ele>1536.7</ele>
        <time>2023-10-31T08:32:48Z</time>
      </trkpt>
      <trkpt lat="42.79547" lon="-0.02234">
        <ele>1536.8</ele>
        <time>2023-10-31T08:32:49Z</time>
      </trkpt>
      <trkpt lat="42.79547" lon="-0.02234">
        <ele>1536.9</ele>
        <time>2023-10-31T08:32:50Z</time>
      </trkpt>
      <trkpt lat="42.79547" lon="-0.02234">
        <ele>1537</ele>
        <time>2023-10-31T08:32:51Z</time>
      </trkpt>
      <trkpt lat="42.79548" lon="-0.02236">
        <ele>1537.2</ele>
        <time>2023-10-31T08:32:52Z</time>
      </trkpt>
      <trkpt lat="42.79548" lon="-0.02238">
        <ele>1537.5</ele>
        <time>2023-10-31T08:32:53Z</time>
      </trkpt>
      <trkpt lat="42.79548" lon="-0.0224">
        <ele>1537.7</ele>
        <time>2023-10-31T08:32:54Z</time>
      </trkpt>
      <trkpt lat="42.79548" lon="-0.02241">
        <ele>1537.8</ele>
        <time>2023-10-31T08:32:55Z</time>
      </trkpt>
      <trkpt lat="42.79548" lon="-0.02242">
        <ele>1538</ele>
        <time>2023-10-31T08:32:56Z</time>
      </trkpt>
      <trkpt lat="42.79548" lon="-0.02244">
        <ele>1538.1</ele>
        <time>2023-10-31T08:32:57Z</time>
      </trkpt>
      <trkpt lat="42.79549" lon="-0.02245">
        <ele>1538.2</ele>
        <time>2023-10-31T08:32:58Z</time>
      </trkpt>
      <trkpt lat="42.79549" lon="-0.02245">
        <ele>1538.3</ele>
        <time>2023-10-31T08:32:59Z</time>
      </trkpt>
      <trkpt lat="42.79549" lon="-0.02247">
        <ele>1538.4</ele>
        <time>2023-10-31T08:33:00Z</time>
      </trkpt>
      <trkpt lat="42.79548" lon="-0.02248">
        <ele>1538.6</ele>
        <time>2023-10-31T08:33:01Z</time>
      </trkpt>
      <trkpt lat="42.79548" lon="-0.02248">
        <ele>1538.6</ele>
        <time>2023-10-31T08:33:02Z</time>
      </trkpt>
      <trkpt lat="42.79548" lon="-0.02247">
        <ele>1538.7</ele>
        <time>2023-10-31T08:33:03Z</time>
      </trkpt>
      <trkpt lat="42.79548" lon="-0.02248">
        <ele>1538.7</ele>
        <time>2023-10-31T08:33:04Z</time>
      </trkpt>
      <trkpt lat="42.79548" lon="-0.02247">
        <ele>1538.8</ele>
        <time>2023-10-31T08:33:05Z</time>
      </trkpt>
      <trkpt lat="42.79547" lon="-0.02249">
        <ele>1539</ele>
        <time>2023-10-31T08:33:06Z</time>
      </trkpt>
      <trkpt lat="42.79547" lon="-0.0225">
        <ele>1539.1</ele>
        <time>2023-10-31T08:33:07Z</time>
      </trkpt>
      <trkpt lat="42.79548" lon="-0.02252">
        <ele>1539.3</ele>
        <time>2023-10-31T08:33:08Z</time>
      </trkpt>
      <trkpt lat="42.79547" lon="-0.02253">
        <ele>1539.4</ele>
        <time>2023-10-31T08:33:09Z</time>
      </trkpt>
      <trkpt lat="42.79547" lon="-0.02255">
        <ele>1539.6</ele>
        <time>2023-10-31T08:33:10Z</time>
      </trkpt>
      <trkpt lat="42.79547" lon="-0.02254">
        <ele>1539.6</ele>
        <time>2023-10-31T08:33:11Z</time>
      </trkpt>
      <trkpt lat="42.79547" lon="-0.02254">
        <ele>1539.6</ele>
        <time>2023-10-31T08:33:12Z</time>
      </trkpt>
      <trkpt lat="42.79547" lon="-0.02258">
        <ele>1539.9</ele>
        <time>2023-10-31T08:33:13Z</time>
      </trkpt>
      <trkpt lat="42.79547" lon="-0.02259">
        <ele>1540</ele>
        <time>2023-10-31T08:33:14Z</time>
      </trkpt>
      <trkpt lat="42.79547" lon="-0.02259">
        <ele>1540</ele>
        <time>2023-10-31T08:33:15Z</time>
      </trkpt>
      <trkpt lat="42.79548" lon="-0.0226">
        <ele>1540.1</ele>
        <time>2023-10-31T08:33:16Z</time>
      </trkpt>
      <trkpt lat="42.79548" lon="-0.02261">
        <ele>1540.1</ele>
        <time>2023-10-31T08:33:17Z</time>
      </trkpt>
      <trkpt lat="42.79548" lon="-0.02262">
        <ele>1540.2</ele>
        <time>2023-10-31T08:33:18Z</time>
      </trkpt>
      <trkpt lat="42.79548" lon="-0.02263">
        <ele>1540.2</ele>
        <time>2023-10-31T08:33:19Z</time>
      </trkpt>
      <trkpt lat="42.79548" lon="-0.02264">
        <ele>1540.3</ele>
        <time>2023-10-31T08:33:20Z</time>
      </trkpt>
      <trkpt lat="42.79548" lon="-0.02265">
        <ele>1540.4</ele>
        <time>2023-10-31T08:33:21Z</time>
      </trkpt>
      <trkpt lat="42.79547" lon="-0.02266">
        <ele>1540.4</ele>
        <time>2023-10-31T08:33:22Z</time>
      </trkpt>
      <trkpt lat="42.79547" lon="-0.02267">
        <ele>1540.5</ele>
        <time>2023-10-31T08:33:23Z</time>
      </trkpt>
      <trkpt lat="42.79547" lon="-0.02269">
        <ele>1540.6</ele>
        <time>2023-10-31T08:33:24Z</time>
      </trkpt>
      <trkpt lat="42.79546" lon="-0.02269">
        <ele>1540.6</ele>
        <time>2023-10-31T08:33:25Z</time>
      </trkpt>
      <trkpt lat="42.79546" lon="-0.0227">
        <ele>1540.7</ele>
        <time>2023-10-31T08:33:26Z</time>
      </trkpt>
      <trkpt lat="42.79546" lon="-0.02272">
        <ele>1540.7</ele>
        <time>2023-10-31T08:33:27Z</time>
      </trkpt>
      <trkpt lat="42.79545" lon="-0.02276">
        <ele>1540.9</ele>
        <time>2023-10-31T08:33:28Z</time>
      </trkpt>
      <trkpt lat="42.79545" lon="-0.02277">
        <ele>1540.9</ele>
        <time>2023-10-31T08:33:29Z</time>
      </trkpt>
      <trkpt lat="42.79545" lon="-0.02277">
        <ele>1540.9</ele>
        <time>2023-10-31T08:33:30Z</time>
      </trkpt>
      <trkpt lat="42.79546" lon="-0.02278">
        <ele>1541</ele>
        <time>2023-10-31T08:33:31Z</time>
      </trkpt>
      <trkpt lat="42.79545" lon="-0.02279">
        <ele>1541</ele>
        <time>2023-10-31T08:33:32Z</time>
      </trkpt>
      <trkpt lat="42.79544" lon="-0.02281">
        <ele>1541</ele>
        <time>2023-10-31T08:33:33Z</time>
      </trkpt>
      <trkpt lat="42.79544" lon="-0.02281">
        <ele>1541.1</ele>
        <time>2023-10-31T08:33:34Z</time>
      </trkpt>
      <trkpt lat="42.79544" lon="-0.02284">
        <ele>1541.1</ele>
        <time>2023-10-31T08:33:35Z</time>
      </trkpt>
      <trkpt lat="42.79544" lon="-0.02285">
        <ele>1541.1</ele>
        <time>2023-10-31T08:33:36Z</time>
      </trkpt>
      <trkpt lat="42.79544" lon="-0.02286">
        <ele>1541.1</ele>
        <time>2023-10-31T08:33:37Z</time>
      </trkpt>
      <trkpt lat="42.79544" lon="-0.02287">
        <ele>1541.1</ele>
        <time>2023-10-31T08:33:38Z</time>
      </trkpt>
      <trkpt lat="42.79544" lon="-0.02288">
        <ele>1541.1</ele>
        <time>2023-10-31T08:33:39Z</time>
      </trkpt>
      <trkpt lat="42.79544" lon="-0.02289">
        <ele>1541.1</ele>
        <time>2023-10-31T08:33:40Z</time>
      </trkpt>
      <trkpt lat="42.79544" lon="-0.02291">
        <ele>1541.1</ele>
        <time>2023-10-31T08:33:41Z</time>
      </trkpt>
      <trkpt lat="42.79543" lon="-0.02293">
        <ele>1541.1</ele>
        <time>2023-10-31T08:33:42Z</time>
      </trkpt>
      <trkpt lat="42.79543" lon="-0.02294">
        <ele>1541.1</ele>
        <time>2023-10-31T08:33:43Z</time>
      </trkpt>
      <trkpt lat="42.79543" lon="-0.02294">
        <ele>1541.1</ele>
        <time>2023-10-31T08:33:44Z</time>
      </trkpt>
      <trkpt lat="42.79543" lon="-0.02296">
        <ele>1541.1</ele>
        <time>2023-10-31T08:33:45Z</time>
      </trkpt>
      <trkpt lat="42.79544" lon="-0.02297">
        <ele>1541.1</ele>
        <time>2023-10-31T08:33:46Z</time>
      </trkpt>
      <trkpt lat="42.79544" lon="-0.02299">
        <ele>1541.1</ele>
        <time>2023-10-31T08:33:47Z</time>
      </trkpt>
      <trkpt lat="42.79543" lon="-0.02299">
        <ele>1541.1</ele>
        <time>2023-10-31T08:33:48Z</time>
      </trkpt>
      <trkpt lat="42.79543" lon="-0.02299">
        <ele>1541.1</ele>
        <time>2023-10-31T08:33:49Z</time>
      </trkpt>
      <trkpt lat="42.79543" lon="-0.02301">
        <ele>1541.1</ele>
        <time>2023-10-31T08:33:50Z</time>
      </trkpt>
      <trkpt lat="42.79543" lon="-0.02303">
        <ele>1541</ele>
        <time>2023-10-31T08:33:51Z</time>
      </trkpt>
      <trkpt lat="42.79543" lon="-0.02304">
        <ele>1541</ele>
        <time>2023-10-31T08:33:52Z</time>
      </trkpt>
      <trkpt lat="42.79542" lon="-0.02304">
        <ele>1541</ele>
        <time>2023-10-31T08:33:53Z</time>
      </trkpt>
      <trkpt lat="42.79542" lon="-0.02304">
        <ele>1541</ele>
        <time>2023-10-31T08:33:54Z</time>
      </trkpt>
      <trkpt lat="42.79542" lon="-0.02306">
        <ele>1541</ele>
        <time>2023-10-31T08:33:55Z</time>
      </trkpt>
      <trkpt lat="42.79542" lon="-0.02307">
        <ele>1541</ele>
        <time>2023-10-31T08:33:56Z</time>
      </trkpt>
      <trkpt lat="42.79541" lon="-0.02308">
        <ele>1541</ele>
        <time>2023-10-31T08:33:57Z</time>
      </trkpt>
      <trkpt lat="42.79541" lon="-0.02309">
        <ele>1541</ele>
        <time>2023-10-31T08:33:58Z</time>
      </trkpt>
      <trkpt lat="42.79541" lon="-0.02308">
        <ele>1540.9</ele>
        <time>2023-10-31T08:33:59Z</time>
      </trkpt>
      <trkpt lat="42.79541" lon="-0.02308">
        <ele>1540.9</ele>
        <time>2023-10-31T08:34:00Z</time>
      </trkpt>
      <trkpt lat="42.79541" lon="-0.02308">
        <ele>1540.9</ele>
        <time>2023-10-31T08:34:01Z</time>
      </trkpt>
      <trkpt lat="42.7954" lon="-0.0231">
        <ele>1541</ele>
        <time>2023-10-31T08:34:02Z</time>
      </trkpt>
      <trkpt lat="42.79539" lon="-0.02309">
        <ele>1541</ele>
        <time>2023-10-31T08:34:03Z</time>
      </trkpt>
      <trkpt lat="42.79539" lon="-0.02312">
        <ele>1541</ele>
        <time>2023-10-31T08:34:04Z</time>
      </trkpt>
      <trkpt lat="42.79538" lon="-0.02313">
        <ele>1541</ele>
        <time>2023-10-31T08:34:05Z</time>
      </trkpt>
      <trkpt lat="42.79538" lon="-0.02313">
        <ele>1541</ele>
        <time>2023-10-31T08:34:06Z</time>
      </trkpt>
      <trkpt lat="42.79537" lon="-0.02316">
        <ele>1541.1</ele>
        <time>2023-10-31T08:34:07Z</time>
      </trkpt>
      <trkpt lat="42.79536" lon="-0.02316">
        <ele>1541.2</ele>
        <time>2023-10-31T08:34:08Z</time>
      </trkpt>
      <trkpt lat="42.79535" lon="-0.02317">
        <ele>1541.2</ele>
        <time>2023-10-31T08:34:09Z</time>
      </trkpt>
      <trkpt lat="42.79535" lon="-0.02318">
        <ele>1541.3</ele>
        <time>2023-10-31T08:34:10Z</time>
      </trkpt>
      <trkpt lat="42.79534" lon="-0.02318">
        <ele>1541.4</ele>
        <time>2023-10-31T08:34:11Z</time>
      </trkpt>
      <trkpt lat="42.79533" lon="-0.02318">
        <ele>1541.4</ele>
        <time>2023-10-31T08:34:12Z</time>
      </trkpt>
      <trkpt lat="42.79533" lon="-0.02319">
        <ele>1541.5</ele>
        <time>2023-10-31T08:34:13Z</time>
      </trkpt>
      <trkpt lat="42.79533" lon="-0.0232">
        <ele>1541.6</ele>
        <time>2023-10-31T08:34:14Z</time>
      </trkpt>
      <trkpt lat="42.79533" lon="-0.02322">
        <ele>1541.7</ele>
        <time>2023-10-31T08:34:15Z</time>
      </trkpt>
      <trkpt lat="42.79533" lon="-0.02324">
        <ele>1541.8</ele>
        <time>2023-10-31T08:34:16Z</time>
      </trkpt>
      <trkpt lat="42.79533" lon="-0.02323">
        <ele>1541.9</ele>
        <time>2023-10-31T08:34:17Z</time>
      </trkpt>
      <trkpt lat="42.79532" lon="-0.02325">
        <ele>1542.1</ele>
        <time>2023-10-31T08:34:18Z</time>
      </trkpt>
      <trkpt lat="42.79533" lon="-0.02327">
        <ele>1542.3</ele>
        <time>2023-10-31T08:34:19Z</time>
      </trkpt>
      <trkpt lat="42.79533" lon="-0.02327">
        <ele>1542.3</ele>
        <time>2023-10-31T08:34:20Z</time>
      </trkpt>
      <trkpt lat="42.79534" lon="-0.0233">
        <ele>1542.6</ele>
        <time>2023-10-31T08:34:21Z</time>
      </trkpt>
      <trkpt lat="42.79533" lon="-0.0233">
        <ele>1542.7</ele>
        <time>2023-10-31T08:34:22Z</time>
      </trkpt>
      <trkpt lat="42.79533" lon="-0.02331">
        <ele>1542.8</ele>
        <time>2023-10-31T08:34:23Z</time>
      </trkpt>
      <trkpt lat="42.79532" lon="-0.02333">
        <ele>1543</ele>
        <time>2023-10-31T08:34:24Z</time>
      </trkpt>
      <trkpt lat="42.79532" lon="-0.02334">
        <ele>1543.1</ele>
        <time>2023-10-31T08:34:25Z</time>
      </trkpt>
      <trkpt lat="42.79531" lon="-0.02334">
        <ele>1543.2</ele>
        <time>2023-10-31T08:34:26Z</time>
      </trkpt>
      <trkpt lat="42.7953" lon="-0.02335">
        <ele>1543.3</ele>
        <time>2023-10-31T08:34:27Z</time>
      </trkpt>
      <trkpt lat="42.79529" lon="-0.02335">
        <ele>1543.4</ele>
        <time>2023-10-31T08:34:28Z</time>
      </trkpt>
      <trkpt lat="42.79529" lon="-0.02336">
        <ele>1543.5</ele>
        <time>2023-10-31T08:34:29Z</time>
      </trkpt>
      <trkpt lat="42.79528" lon="-0.02336">
        <ele>1543.6</ele>
        <time>2023-10-31T08:34:30Z</time>
      </trkpt>
      <trkpt lat="42.79528" lon="-0.02337">
        <ele>1543.8</ele>
        <time>2023-10-31T08:34:31Z</time>
      </trkpt>
      <trkpt lat="42.79527" lon="-0.02337">
        <ele>1543.9</ele>
        <time>2023-10-31T08:34:32Z</time>
      </trkpt>
      <trkpt lat="42.79527" lon="-0.02337">
        <ele>1543.9</ele>
        <time>2023-10-31T08:34:33Z</time>
      </trkpt>
      <trkpt lat="42.79526" lon="-0.02338">
        <ele>1544</ele>
        <time>2023-10-31T08:34:34Z</time>
      </trkpt>
      <trkpt lat="42.79526" lon="-0.02338">
        <ele>1544.1</ele>
        <time>2023-10-31T08:34:35Z</time>
      </trkpt>
      <trkpt lat="42.79526" lon="-0.02339">
        <ele>1544.1</ele>
        <time>2023-10-31T08:34:36Z</time>
      </trkpt>
      <trkpt lat="42.79526" lon="-0.0234">
        <ele>1544.2</ele>
        <time>2023-10-31T08:34:37Z</time>
      </trkpt>
      <trkpt lat="42.79526" lon="-0.02342">
        <ele>1544.3</ele>
        <time>2023-10-31T08:34:38Z</time>
      </trkpt>
      <trkpt lat="42.79526" lon="-0.02343">
        <ele>1544.4</ele>
        <time>2023-10-31T08:34:39Z</time>
      </trkpt>
      <trkpt lat="42.79526" lon="-0.02345">
        <ele>1544.6</ele>
        <time>2023-10-31T08:34:40Z</time>
      </trkpt>
      <trkpt lat="42.79526" lon="-0.02346">
        <ele>1544.6</ele>
        <time>2023-10-31T08:34:41Z</time>
      </trkpt>
      <trkpt lat="42.79526" lon="-0.02347">
        <ele>1544.7</ele>
        <time>2023-10-31T08:34:42Z</time>
      </trkpt>
      <trkpt lat="42.79526" lon="-0.02348">
        <ele>1544.8</ele>
        <time>2023-10-31T08:34:43Z</time>
      </trkpt>
      <trkpt lat="42.79526" lon="-0.0235">
        <ele>1545</ele>
        <time>2023-10-31T08:34:44Z</time>
      </trkpt>
      <trkpt lat="42.79526" lon="-0.02352">
        <ele>1545.1</ele>
        <time>2023-10-31T08:34:45Z</time>
      </trkpt>
      <trkpt lat="42.79526" lon="-0.02354">
        <ele>1545.2</ele>
        <time>2023-10-31T08:34:46Z</time>
      </trkpt>
      <trkpt lat="42.79525" lon="-0.02354">
        <ele>1545.2</ele>
        <time>2023-10-31T08:34:47Z</time>
      </trkpt>
      <trkpt lat="42.79525" lon="-0.02356">
        <ele>1545.3</ele>
        <time>2023-10-31T08:34:48Z</time>
      </trkpt>
      <trkpt lat="42.79526" lon="-0.02358">
        <ele>1545.4</ele>
        <time>2023-10-31T08:34:49Z</time>
      </trkpt>
      <trkpt lat="42.79526" lon="-0.02359">
        <ele>1545.5</ele>
        <time>2023-10-31T08:34:50Z</time>
      </trkpt>
      <trkpt lat="42.79525" lon="-0.0236">
        <ele>1545.6</ele>
        <time>2023-10-31T08:34:51Z</time>
      </trkpt>
      <trkpt lat="42.79524" lon="-0.02361">
        <ele>1545.6</ele>
        <time>2023-10-31T08:34:52Z</time>
      </trkpt>
      <trkpt lat="42.79525" lon="-0.02362">
        <ele>1545.7</ele>
        <time>2023-10-31T08:34:53Z</time>
      </trkpt>
      <trkpt lat="42.79524" lon="-0.02363">
        <ele>1545.8</ele>
        <time>2023-10-31T08:34:54Z</time>
      </trkpt>
      <trkpt lat="42.79524" lon="-0.02365">
        <ele>1545.8</ele>
        <time>2023-10-31T08:34:55Z</time>
      </trkpt>
      <trkpt lat="42.79524" lon="-0.02367">
        <ele>1545.9</ele>
        <time>2023-10-31T08:34:56Z</time>
      </trkpt>
      <trkpt lat="42.79525" lon="-0.02368">
        <ele>1546</ele>
        <time>2023-10-31T08:34:57Z</time>
      </trkpt>
      <trkpt lat="42.79524" lon="-0.02369">
        <ele>1546</ele>
        <time>2023-10-31T08:34:58Z</time>
      </trkpt>
      <trkpt lat="42.79524" lon="-0.0237">
        <ele>1546.1</ele>
        <time>2023-10-31T08:34:59Z</time>
      </trkpt>
      <trkpt lat="42.79525" lon="-0.02371">
        <ele>1546.1</ele>
        <time>2023-10-31T08:35:00Z</time>
      </trkpt>
      <trkpt lat="42.79525" lon="-0.02373">
        <ele>1546.2</ele>
        <time>2023-10-31T08:35:01Z</time>
      </trkpt>
      <trkpt lat="42.79526" lon="-0.02374">
        <ele>1546.3</ele>
        <time>2023-10-31T08:35:02Z</time>
      </trkpt>
      <trkpt lat="42.79526" lon="-0.02375">
        <ele>1546.3</ele>
        <time>2023-10-31T08:35:03Z</time>
      </trkpt>
      <trkpt lat="42.79526" lon="-0.02377">
        <ele>1546.4</ele>
        <time>2023-10-31T08:35:04Z</time>
      </trkpt>
      <trkpt lat="42.79526" lon="-0.02378">
        <ele>1546.4</ele>
        <time>2023-10-31T08:35:05Z</time>
      </trkpt>
      <trkpt lat="42.79526" lon="-0.02379">
        <ele>1546.5</ele>
        <time>2023-10-31T08:35:06Z</time>
      </trkpt>
      <trkpt lat="42.79526" lon="-0.02379">
        <ele>1546.5</ele>
        <time>2023-10-31T08:35:07Z</time>
      </trkpt>
      <trkpt lat="42.79526" lon="-0.0238">
        <ele>1546.5</ele>
        <time>2023-10-31T08:35:08Z</time>
      </trkpt>
      <trkpt lat="42.79527" lon="-0.02383">
        <ele>1546.7</ele>
        <time>2023-10-31T08:35:09Z</time>
      </trkpt>
      <trkpt lat="42.79527" lon="-0.02384">
        <ele>1546.7</ele>
        <time>2023-10-31T08:35:10Z</time>
      </trkpt>
      <trkpt lat="42.79528" lon="-0.02387">
        <ele>1546.8</ele>
        <time>2023-10-31T08:35:11Z</time>
      </trkpt>
      <trkpt lat="42.79528" lon="-0.02388">
        <ele>1546.8</ele>
        <time>2023-10-31T08:35:12Z</time>
      </trkpt>
      <trkpt lat="42.79528" lon="-0.0239">
        <ele>1546.9</ele>
        <time>2023-10-31T08:35:13Z</time>
      </trkpt>
      <trkpt lat="42.79528" lon="-0.02391">
        <ele>1547</ele>
        <time>2023-10-31T08:35:14Z</time>
      </trkpt>
      <trkpt lat="42.79528" lon="-0.02391">
        <ele>1547</ele>
        <time>2023-10-31T08:35:15Z</time>
      </trkpt>
      <trkpt lat="42.79528" lon="-0.02392">
        <ele>1547</ele>
        <time>2023-10-31T08:35:16Z</time>
      </trkpt>
      <trkpt lat="42.79528" lon="-0.02393">
        <ele>1547.1</ele>
        <time>2023-10-31T08:35:17Z</time>
      </trkpt>
      <trkpt lat="42.79528" lon="-0.02394">
        <ele>1547.1</ele>
        <time>2023-10-31T08:35:18Z</time>
      </trkpt>
      <trkpt lat="42.79528" lon="-0.02397">
        <ele>1547.1</ele>
        <time>2023-10-31T08:35:19Z</time>
      </trkpt>
      <trkpt lat="42.79528" lon="-0.02397">
        <ele>1547.1</ele>
        <time>2023-10-31T08:35:20Z</time>
      </trkpt>
      <trkpt lat="42.79528" lon="-0.02399">
        <ele>1547.1</ele>
        <time>2023-10-31T08:35:21Z</time>
      </trkpt>
      <trkpt lat="42.79528" lon="-0.02399">
        <ele>1547.1</ele>
        <time>2023-10-31T08:35:22Z</time>
      </trkpt>
      <trkpt lat="42.79527" lon="-0.02401">
        <ele>1547.1</ele>
        <time>2023-10-31T08:35:23Z</time>
      </trkpt>
      <trkpt lat="42.79528" lon="-0.02402">
        <ele>1547.1</ele>
        <time>2023-10-31T08:35:24Z</time>
      </trkpt>
      <trkpt lat="42.79528" lon="-0.02402">
        <ele>1547.1</ele>
        <time>2023-10-31T08:35:25Z</time>
      </trkpt>
      <trkpt lat="42.79528" lon="-0.02401">
        <ele>1547.1</ele>
        <time>2023-10-31T08:35:26Z</time>
      </trkpt>
      <trkpt lat="42.79529" lon="-0.02402">
        <ele>1547.1</ele>
        <time>2023-10-31T08:35:27Z</time>
      </trkpt>
      <trkpt lat="42.79529" lon="-0.02403">
        <ele>1547.1</ele>
        <time>2023-10-31T08:35:28Z</time>
      </trkpt>
      <trkpt lat="42.79529" lon="-0.02403">
        <ele>1547.1</ele>
        <time>2023-10-31T08:35:29Z</time>
      </trkpt>
      <trkpt lat="42.7953" lon="-0.02404">
        <ele>1547.1</ele>
        <time>2023-10-31T08:35:30Z</time>
      </trkpt>
      <trkpt lat="42.79531" lon="-0.02405">
        <ele>1547.1</ele>
        <time>2023-10-31T08:35:31Z</time>
      </trkpt>
      <trkpt lat="42.7953" lon="-0.02405">
        <ele>1547.1</ele>
        <time>2023-10-31T08:35:32Z</time>
      </trkpt>
      <trkpt lat="42.7953" lon="-0.02405">
        <ele>1547.1</ele>
        <time>2023-10-31T08:35:33Z</time>
      </trkpt>
      <trkpt lat="42.7953" lon="-0.02405">
        <ele>1547.1</ele>
        <time>2023-10-31T08:35:34Z</time>
      </trkpt>
      <trkpt lat="42.7953" lon="-0.02405">
        <ele>1547.1</ele>
        <time>2023-10-31T08:35:35Z</time>
      </trkpt>
      <trkpt lat="42.7953" lon="-0.02405">
        <ele>1547.1</ele>
        <time>2023-10-31T08:35:36Z</time>
      </trkpt>
      <trkpt lat="42.7953" lon="-0.02405">
        <ele>1547.1</ele>
        <time>2023-10-31T08:35:37Z</time>
      </trkpt>
      <trkpt lat="42.79529" lon="-0.02405">
        <ele>1547.1</ele>
        <time>2023-10-31T08:35:38Z</time>
      </trkpt>
      <trkpt lat="42.79529" lon="-0.02405">
        <ele>1547.1</ele>
        <time>2023-10-31T08:35:39Z</time>
      </trkpt>
      <trkpt lat="42.79529" lon="-0.02405">
        <ele>1547.1</ele>
        <time>2023-10-31T08:35:40Z</time>
      </trkpt>
      <trkpt lat="42.79529" lon="-0.02405">
        <ele>1547.1</ele>
        <time>2023-10-31T08:35:41Z</time>
      </trkpt>
      <trkpt lat="42.79529" lon="-0.02405">
        <ele>1547</ele>
        <time>2023-10-31T08:35:42Z</time>
      </trkpt>
      <trkpt lat="42.79529" lon="-0.02404">
        <ele>1547</ele>
        <time>2023-10-31T08:35:43Z</time>
      </trkpt>
      <trkpt lat="42.79529" lon="-0.02404">
        <ele>1547</ele>
        <time>2023-10-31T08:35:44Z</time>
      </trkpt>
      <trkpt lat="42.79528" lon="-0.02404">
        <ele>1547</ele>
        <time>2023-10-31T08:35:45Z</time>
      </trkpt>
      <trkpt lat="42.79528" lon="-0.02404">
        <ele>1547</ele>
        <time>2023-10-31T08:35:46Z</time>
      </trkpt>
      <trkpt lat="42.79528" lon="-0.02404">
        <ele>1547</ele>
        <time>2023-10-31T08:35:47Z</time>
      </trkpt>
      <trkpt lat="42.79528" lon="-0.02404">
        <ele>1547</ele>
        <time>2023-10-31T08:35:48Z</time>
      </trkpt>
      <trkpt lat="42.79528" lon="-0.02404">
        <ele>1547</ele>
        <time>2023-10-31T08:35:49Z</time>
      </trkpt>
      <trkpt lat="42.79528" lon="-0.02404">
        <ele>1547</ele>
        <time>2023-10-31T08:35:50Z</time>
      </trkpt>
      <trkpt lat="42.79528" lon="-0.02404">
        <ele>1547</ele>
        <time>2023-10-31T08:35:51Z</time>
      </trkpt>
      <trkpt lat="42.79528" lon="-0.02404">
        <ele>1547</ele>
        <time>2023-10-31T08:35:52Z</time>
      </trkpt>
      <trkpt lat="42.79527" lon="-0.02404">
        <ele>1547</ele>
        <time>2023-10-31T08:35:53Z</time>
      </trkpt>
      <trkpt lat="42.79527" lon="-0.02404">
        <ele>1547</ele>
        <time>2023-10-31T08:35:54Z</time>
      </trkpt>
      <trkpt lat="42.79527" lon="-0.02404">
        <ele>1547</ele>
        <time>2023-10-31T08:35:55Z</time>
      </trkpt>
      <trkpt lat="42.79527" lon="-0.02403">
        <ele>1547</ele>
        <time>2023-10-31T08:35:56Z</time>
      </trkpt>
      <trkpt lat="42.79527" lon="-0.02403">
        <ele>1547</ele>
        <time>2023-10-31T08:35:57Z</time>
      </trkpt>
      <trkpt lat="42.79527" lon="-0.02403">
        <ele>1547</ele>
        <time>2023-10-31T08:35:58Z</time>
      </trkpt>
      <trkpt lat="42.79526" lon="-0.02402">
        <ele>1546.9</ele>
        <time>2023-10-31T08:35:59Z</time>
      </trkpt>
      <trkpt lat="42.79527" lon="-0.02402">
        <ele>1546.9</ele>
        <time>2023-10-31T08:36:00Z</time>
      </trkpt>
      <trkpt lat="42.79528" lon="-0.02402">
        <ele>1546.8</ele>
        <time>2023-10-31T08:36:01Z</time>
      </trkpt>
      <trkpt lat="42.79529" lon="-0.02402">
        <ele>1546.8</ele>
        <time>2023-10-31T08:36:02Z</time>
      </trkpt>
      <trkpt lat="42.79529" lon="-0.02402">
        <ele>1546.8</ele>
        <time>2023-10-31T08:36:03Z</time>
      </trkpt>
      <trkpt lat="42.79529" lon="-0.02402">
        <ele>1546.8</ele>
        <time>2023-10-31T08:36:04Z</time>
      </trkpt>
      <trkpt lat="42.79529" lon="-0.02402">
        <ele>1546.8</ele>
        <time>2023-10-31T08:36:05Z</time>
      </trkpt>
      <trkpt lat="42.79529" lon="-0.02402">
        <ele>1546.7</ele>
        <time>2023-10-31T08:36:06Z</time>
      </trkpt>
      <trkpt lat="42.79529" lon="-0.02401">
        <ele>1546.7</ele>
        <time>2023-10-31T08:36:07Z</time>
      </trkpt>
      <trkpt lat="42.79529" lon="-0.02401">
        <ele>1546.7</ele>
        <time>2023-10-31T08:36:08Z</time>
      </trkpt>
      <trkpt lat="42.7953" lon="-0.02401">
        <ele>1546.7</ele>
        <time>2023-10-31T08:36:09Z</time>
      </trkpt>
      <trkpt lat="42.7953" lon="-0.02401">
        <ele>1546.7</ele>
        <time>2023-10-31T08:36:10Z</time>
      </trkpt>
      <trkpt lat="42.7953" lon="-0.02401">
        <ele>1546.7</ele>
        <time>2023-10-31T08:36:11Z</time>
      </trkpt>
      <trkpt lat="42.7953" lon="-0.02401">
        <ele>1546.6</ele>
        <time>2023-10-31T08:36:12Z</time>
      </trkpt>
      <trkpt lat="42.7953" lon="-0.02401">
        <ele>1546.6</ele>
        <time>2023-10-31T08:36:13Z</time>
      </trkpt>
      <trkpt lat="42.7953" lon="-0.02401">
        <ele>1546.6</ele>
        <time>2023-10-31T08:36:14Z</time>
      </trkpt>
      <trkpt lat="42.7953" lon="-0.02401">
        <ele>1546.6</ele>
        <time>2023-10-31T08:36:15Z</time>
      </trkpt>
      <trkpt lat="42.79531" lon="-0.02401">
        <ele>1546.6</ele>
        <time>2023-10-31T08:36:16Z</time>
      </trkpt>
      <trkpt lat="42.79531" lon="-0.02401">
        <ele>1546.6</ele>
        <time>2023-10-31T08:36:17Z</time>
      </trkpt>
      <trkpt lat="42.79531" lon="-0.02401">
        <ele>1546.6</ele>
        <time>2023-10-31T08:36:18Z</time>
      </trkpt>
      <trkpt lat="42.79531" lon="-0.02401">
        <ele>1546.6</ele>
        <time>2023-10-31T08:36:19Z</time>
      </trkpt>
      <trkpt lat="42.79531" lon="-0.02401">
        <ele>1546.6</ele>
        <time>2023-10-31T08:36:20Z</time>
      </trkpt>
      <trkpt lat="42.7953" lon="-0.02401">
        <ele>1546.5</ele>
        <time>2023-10-31T08:36:21Z</time>
      </trkpt>
      <trkpt lat="42.7953" lon="-0.02401">
        <ele>1546.5</ele>
        <time>2023-10-31T08:36:22Z</time>
      </trkpt>
      <trkpt lat="42.7953" lon="-0.02401">
        <ele>1546.5</ele>
        <time>2023-10-31T08:36:23Z</time>
      </trkpt>
      <trkpt lat="42.7953" lon="-0.02401">
        <ele>1546.5</ele>
        <time>2023-10-31T08:36:24Z</time>
      </trkpt>
      <trkpt lat="42.79531" lon="-0.024">
        <ele>1546.5</ele>
        <time>2023-10-31T08:36:25Z</time>
      </trkpt>
      <trkpt lat="42.79532" lon="-0.02399">
        <ele>1546.4</ele>
        <time>2023-10-31T08:36:26Z</time>
      </trkpt>
      <trkpt lat="42.79533" lon="-0.02399">
        <ele>1546.3</ele>
        <time>2023-10-31T08:36:27Z</time>
      </trkpt>
      <trkpt lat="42.79533" lon="-0.02399">
        <ele>1546.3</ele>
        <time>2023-10-31T08:36:28Z</time>
      </trkpt>
      <trkpt lat="42.79533" lon="-0.02399">
        <ele>1546.3</ele>
        <time>2023-10-31T08:36:29Z</time>
      </trkpt>
      <trkpt lat="42.79533" lon="-0.02399">
        <ele>1546.3</ele>
        <time>2023-10-31T08:36:30Z</time>
      </trkpt>
      <trkpt lat="42.79534" lon="-0.02399">
        <ele>1546.2</ele>
        <time>2023-10-31T08:36:31Z</time>
      </trkpt>
      <trkpt lat="42.79534" lon="-0.02399">
        <ele>1546.2</ele>
        <time>2023-10-31T08:36:32Z</time>
      </trkpt>
      <trkpt lat="42.79534" lon="-0.02399">
        <ele>1546.2</ele>
        <time>2023-10-31T08:36:33Z</time>
      </trkpt>
      <trkpt lat="42.79534" lon="-0.02399">
        <ele>1546.2</ele>
        <time>2023-10-31T08:36:34Z</time>
      </trkpt>
      <trkpt lat="42.79535" lon="-0.02398">
        <ele>1546.2</ele>
        <time>2023-10-31T08:36:35Z</time>
      </trkpt>
      <trkpt lat="42.79535" lon="-0.02398">
        <ele>1546.2</ele>
        <time>2023-10-31T08:36:36Z</time>
      </trkpt>
      <trkpt lat="42.79535" lon="-0.02398">
        <ele>1546.1</ele>
        <time>2023-10-31T08:36:37Z</time>
      </trkpt>
      <trkpt lat="42.79535" lon="-0.02398">
        <ele>1546.1</ele>
        <time>2023-10-31T08:36:38Z</time>
      </trkpt>
      <trkpt lat="42.79535" lon="-0.02398">
        <ele>1546.1</ele>
        <time>2023-10-31T08:36:39Z</time>
      </trkpt>
      <trkpt lat="42.79536" lon="-0.02398">
        <ele>1546.1</ele>
        <time>2023-10-31T08:36:40Z</time>
      </trkpt>
      <trkpt lat="42.79536" lon="-0.02398">
        <ele>1546.1</ele>
        <time>2023-10-31T08:36:41Z</time>
      </trkpt>
      <trkpt lat="42.79536" lon="-0.02398">
        <ele>1546.1</ele>
        <time>2023-10-31T08:36:42Z</time>
      </trkpt>
      <trkpt lat="42.79536" lon="-0.02397">
        <ele>1546</ele>
        <time>2023-10-31T08:36:43Z</time>
      </trkpt>
      <trkpt lat="42.79536" lon="-0.02397">
        <ele>1546</ele>
        <time>2023-10-31T08:36:44Z</time>
      </trkpt>
      <trkpt lat="42.79535" lon="-0.02398">
        <ele>1546</ele>
        <time>2023-10-31T08:36:45Z</time>
      </trkpt>
      <trkpt lat="42.79535" lon="-0.02398">
        <ele>1546</ele>
        <time>2023-10-31T08:36:46Z</time>
      </trkpt>
      <trkpt lat="42.79534" lon="-0.02397">
        <ele>1545.9</ele>
        <time>2023-10-31T08:36:47Z</time>
      </trkpt>
      <trkpt lat="42.79533" lon="-0.02398">
        <ele>1545.8</ele>
        <time>2023-10-31T08:36:48Z</time>
      </trkpt>
      <trkpt lat="42.79533" lon="-0.02398">
        <ele>1545.8</ele>
        <time>2023-10-31T08:36:49Z</time>
      </trkpt>
      <trkpt lat="42.79532" lon="-0.02399">
        <ele>1545.6</ele>
        <time>2023-10-31T08:36:50Z</time>
      </trkpt>
      <trkpt lat="42.79532" lon="-0.02399">
        <ele>1545.6</ele>
        <time>2023-10-31T08:36:51Z</time>
      </trkpt>
      <trkpt lat="42.79531" lon="-0.02398">
        <ele>1545.6</ele>
        <time>2023-10-31T08:36:52Z</time>
      </trkpt>
      <trkpt lat="42.79531" lon="-0.02398">
        <ele>1545.6</ele>
        <time>2023-10-31T08:36:53Z</time>
      </trkpt>
      <trkpt lat="42.79531" lon="-0.02398">
        <ele>1545.6</ele>
        <time>2023-10-31T08:36:54Z</time>
      </trkpt>
      <trkpt lat="42.79531" lon="-0.02398">
        <ele>1545.6</ele>
        <time>2023-10-31T08:36:55Z</time>
      </trkpt>
      <trkpt lat="42.79531" lon="-0.02398">
        <ele>1545.6</ele>
        <time>2023-10-31T08:36:56Z</time>
      </trkpt>
      <trkpt lat="42.79531" lon="-0.02398">
        <ele>1545.6</ele>
        <time>2023-10-31T08:36:57Z</time>
      </trkpt>
      <trkpt lat="42.79531" lon="-0.02398">
        <ele>1545.6</ele>
        <time>2023-10-31T08:36:58Z</time>
      </trkpt>
      <trkpt lat="42.79531" lon="-0.02398">
        <ele>1545.6</ele>
        <time>2023-10-31T08:36:59Z</time>
      </trkpt>
      <trkpt lat="42.79531" lon="-0.02398">
        <ele>1545.6</ele>
        <time>2023-10-31T08:37:00Z</time>
      </trkpt>
      <trkpt lat="42.79531" lon="-0.02398">
        <ele>1545.6</ele>
        <time>2023-10-31T08:37:01Z</time>
      </trkpt>
      <trkpt lat="42.79531" lon="-0.02399">
        <ele>1545.5</ele>
        <time>2023-10-31T08:37:02Z</time>
      </trkpt>
      <trkpt lat="42.79532" lon="-0.02399">
        <ele>1545.5</ele>
        <time>2023-10-31T08:37:03Z</time>
      </trkpt>
      <trkpt lat="42.79531" lon="-0.02398">
        <ele>1545.4</ele>
        <time>2023-10-31T08:37:04Z</time>
      </trkpt>
      <trkpt lat="42.79531" lon="-0.02398">
        <ele>1545.4</ele>
        <time>2023-10-31T08:37:05Z</time>
      </trkpt>
      <trkpt lat="42.79532" lon="-0.02396">
        <ele>1545.2</ele>
        <time>2023-10-31T08:37:06Z</time>
      </trkpt>
      <trkpt lat="42.79533" lon="-0.02396">
        <ele>1545.1</ele>
        <time>2023-10-31T08:37:07Z</time>
      </trkpt>
      <trkpt lat="42.79531" lon="-0.02397">
        <ele>1544.9</ele>
        <time>2023-10-31T08:37:08Z</time>
      </trkpt>
      <trkpt lat="42.79531" lon="-0.02397">
        <ele>1544.9</ele>
        <time>2023-10-31T08:37:09Z</time>
      </trkpt>
      <trkpt lat="42.79531" lon="-0.02399">
        <ele>1544.8</ele>
        <time>2023-10-31T08:37:10Z</time>
      </trkpt>
      <trkpt lat="42.7953" lon="-0.02398">
        <ele>1544.7</ele>
        <time>2023-10-31T08:37:11Z</time>
      </trkpt>
      <trkpt lat="42.7953" lon="-0.02398">
        <ele>1544.7</ele>
        <time>2023-10-31T08:37:12Z</time>
      </trkpt>
      <trkpt lat="42.79529" lon="-0.02398">
        <ele>1544.6</ele>
        <time>2023-10-31T08:37:13Z</time>
      </trkpt>
      <trkpt lat="42.7953" lon="-0.02398">
        <ele>1544.6</ele>
        <time>2023-10-31T08:37:14Z</time>
      </trkpt>
      <trkpt lat="42.79531" lon="-0.02398">
        <ele>1544.5</ele>
        <time>2023-10-31T08:37:15Z</time>
      </trkpt>
      <trkpt lat="42.79531" lon="-0.02398">
        <ele>1544.5</ele>
        <time>2023-10-31T08:37:16Z</time>
      </trkpt>
      <trkpt lat="42.79531" lon="-0.02398">
        <ele>1544.4</ele>
        <time>2023-10-31T08:37:17Z</time>
      </trkpt>
      <trkpt lat="42.79531" lon="-0.02399">
        <ele>1544.4</ele>
        <time>2023-10-31T08:37:18Z</time>
      </trkpt>
      <trkpt lat="42.79531" lon="-0.02399">
        <ele>1544.4</ele>
        <time>2023-10-31T08:37:19Z</time>
      </trkpt>
      <trkpt lat="42.79531" lon="-0.02399">
        <ele>1544.4</ele>
        <time>2023-10-31T08:37:20Z</time>
      </trkpt>
      <trkpt lat="42.7953" lon="-0.02399">
        <ele>1544.3</ele>
        <time>2023-10-31T08:37:21Z</time>
      </trkpt>
      <trkpt lat="42.7953" lon="-0.024">
        <ele>1544.3</ele>
        <time>2023-10-31T08:37:22Z</time>
      </trkpt>
      <trkpt lat="42.7953" lon="-0.024">
        <ele>1544.3</ele>
        <time>2023-10-31T08:37:23Z</time>
      </trkpt>
      <trkpt lat="42.79529" lon="-0.02399">
        <ele>1544.3</ele>
        <time>2023-10-31T08:37:24Z</time>
      </trkpt>
      <trkpt lat="42.79529" lon="-0.024">
        <ele>1544.3</ele>
        <time>2023-10-31T08:37:25Z</time>
      </trkpt>
      <trkpt lat="42.79529" lon="-0.024">
        <ele>1544.3</ele>
        <time>2023-10-31T08:37:26Z</time>
      </trkpt>
      <trkpt lat="42.79529" lon="-0.02401">
        <ele>1544.2</ele>
        <time>2023-10-31T08:37:27Z</time>
      </trkpt>
      <trkpt lat="42.79529" lon="-0.02401">
        <ele>1544.2</ele>
        <time>2023-10-31T08:37:28Z</time>
      </trkpt>
      <trkpt lat="42.7953" lon="-0.024">
        <ele>1544.2</ele>
        <time>2023-10-31T08:37:29Z</time>
      </trkpt>
      <trkpt lat="42.79529" lon="-0.024">
        <ele>1544.2</ele>
        <time>2023-10-31T08:37:30Z</time>
      </trkpt>
      <trkpt lat="42.79529" lon="-0.024">
        <ele>1544.2</ele>
        <time>2023-10-31T08:37:31Z</time>
      </trkpt>
      <trkpt lat="42.79531" lon="-0.024">
        <ele>1544.1</ele>
        <time>2023-10-31T08:37:32Z</time>
      </trkpt>
      <trkpt lat="42.79531" lon="-0.02399">
        <ele>1544.1</ele>
        <time>2023-10-31T08:37:33Z</time>
      </trkpt>
      <trkpt lat="42.7953" lon="-0.02399">
        <ele>1544.1</ele>
        <time>2023-10-31T08:37:34Z</time>
      </trkpt>
      <trkpt lat="42.7953" lon="-0.02399">
        <ele>1544.1</ele>
        <time>2023-10-31T08:37:35Z</time>
      </trkpt>
      <trkpt lat="42.79529" lon="-0.02398">
        <ele>1544</ele>
        <time>2023-10-31T08:37:36Z</time>
      </trkpt>
      <trkpt lat="42.79529" lon="-0.02399">
        <ele>1544</ele>
        <time>2023-10-31T08:37:37Z</time>
      </trkpt>
      <trkpt lat="42.79528" lon="-0.02399">
        <ele>1543.9</ele>
        <time>2023-10-31T08:37:38Z</time>
      </trkpt>
      <trkpt lat="42.79528" lon="-0.02398">
        <ele>1543.9</ele>
        <time>2023-10-31T08:37:39Z</time>
      </trkpt>
      <trkpt lat="42.79528" lon="-0.02399">
        <ele>1543.9</ele>
        <time>2023-10-31T08:37:40Z</time>
      </trkpt>
      <trkpt lat="42.79528" lon="-0.02399">
        <ele>1543.9</ele>
        <time>2023-10-31T08:37:41Z</time>
      </trkpt>
      <trkpt lat="42.79529" lon="-0.02399">
        <ele>1543.9</ele>
        <time>2023-10-31T08:37:42Z</time>
      </trkpt>
      <trkpt lat="42.79529" lon="-0.024">
        <ele>1543.8</ele>
        <time>2023-10-31T08:37:43Z</time>
      </trkpt>
      <trkpt lat="42.79529" lon="-0.024">
        <ele>1543.8</ele>
        <time>2023-10-31T08:37:44Z</time>
      </trkpt>
      <trkpt lat="42.79529" lon="-0.024">
        <ele>1543.8</ele>
        <time>2023-10-31T08:37:45Z</time>
      </trkpt>
      <trkpt lat="42.7953" lon="-0.02401">
        <ele>1543.8</ele>
        <time>2023-10-31T08:37:46Z</time>
      </trkpt>
      <trkpt lat="42.7953" lon="-0.02401">
        <ele>1543.8</ele>
        <time>2023-10-31T08:37:47Z</time>
      </trkpt>
      <trkpt lat="42.7953" lon="-0.02402">
        <ele>1543.8</ele>
        <time>2023-10-31T08:37:48Z</time>
      </trkpt>
      <trkpt lat="42.7953" lon="-0.02402">
        <ele>1543.8</ele>
        <time>2023-10-31T08:37:49Z</time>
      </trkpt>
      <trkpt lat="42.7953" lon="-0.02402">
        <ele>1543.8</ele>
        <time>2023-10-31T08:37:50Z</time>
      </trkpt>
      <trkpt lat="42.7953" lon="-0.02402">
        <ele>1543.8</ele>
        <time>2023-10-31T08:37:51Z</time>
      </trkpt>
      <trkpt lat="42.7953" lon="-0.02402">
        <ele>1543.7</ele>
        <time>2023-10-31T08:37:52Z</time>
      </trkpt>
      <trkpt lat="42.7953" lon="-0.02402">
        <ele>1543.7</ele>
        <time>2023-10-31T08:37:53Z</time>
      </trkpt>
      <trkpt lat="42.7953" lon="-0.02402">
        <ele>1543.7</ele>
        <time>2023-10-31T08:37:54Z</time>
      </trkpt>
      <trkpt lat="42.7953" lon="-0.02402">
        <ele>1543.7</ele>
        <time>2023-10-31T08:37:55Z</time>
      </trkpt>
      <trkpt lat="42.7953" lon="-0.02403">
        <ele>1543.7</ele>
        <time>2023-10-31T08:37:56Z</time>
      </trkpt>
      <trkpt lat="42.7953" lon="-0.02403">
        <ele>1543.7</ele>
        <time>2023-10-31T08:37:57Z</time>
      </trkpt>
      <trkpt lat="42.79531" lon="-0.02403">
        <ele>1543.7</ele>
        <time>2023-10-31T08:37:58Z</time>
      </trkpt>
      <trkpt lat="42.79531" lon="-0.02403">
        <ele>1543.7</ele>
        <time>2023-10-31T08:37:59Z</time>
      </trkpt>
      <trkpt lat="42.79531" lon="-0.02403">
        <ele>1543.7</ele>
        <time>2023-10-31T08:38:00Z</time>
      </trkpt>
      <trkpt lat="42.79531" lon="-0.02403">
        <ele>1543.7</ele>
        <time>2023-10-31T08:38:01Z</time>
      </trkpt>
      <trkpt lat="42.79531" lon="-0.02403">
        <ele>1543.7</ele>
        <time>2023-10-31T08:38:02Z</time>
      </trkpt>
      <trkpt lat="42.79531" lon="-0.02403">
        <ele>1543.7</ele>
        <time>2023-10-31T08:38:03Z</time>
      </trkpt>
      <trkpt lat="42.79531" lon="-0.02404">
        <ele>1543.7</ele>
        <time>2023-10-31T08:38:04Z</time>
      </trkpt>
      <trkpt lat="42.79531" lon="-0.02404">
        <ele>1543.7</ele>
        <time>2023-10-31T08:38:05Z</time>
      </trkpt>
      <trkpt lat="42.79531" lon="-0.02404">
        <ele>1543.7</ele>
        <time>2023-10-31T08:38:06Z</time>
      </trkpt>
      <trkpt lat="42.79531" lon="-0.02404">
        <ele>1543.7</ele>
        <time>2023-10-31T08:38:07Z</time>
      </trkpt>
      <trkpt lat="42.79531" lon="-0.02404">
        <ele>1543.7</ele>
        <time>2023-10-31T08:38:08Z</time>
      </trkpt>
      <trkpt lat="42.79531" lon="-0.02404">
        <ele>1543.7</ele>
        <time>2023-10-31T08:38:09Z</time>
      </trkpt>
      <trkpt lat="42.79532" lon="-0.02404">
        <ele>1543.7</ele>
        <time>2023-10-31T08:38:10Z</time>
      </trkpt>
      <trkpt lat="42.79532" lon="-0.02404">
        <ele>1543.7</ele>
        <time>2023-10-31T08:38:11Z</time>
      </trkpt>
      <trkpt lat="42.79532" lon="-0.02405">
        <ele>1543.7</ele>
        <time>2023-10-31T08:38:12Z</time>
      </trkpt>
      <trkpt lat="42.79532" lon="-0.02405">
        <ele>1543.7</ele>
        <time>2023-10-31T08:38:13Z</time>
      </trkpt>
      <trkpt lat="42.79532" lon="-0.02405">
        <ele>1543.7</ele>
        <time>2023-10-31T08:38:14Z</time>
      </trkpt>
      <trkpt lat="42.79532" lon="-0.02405">
        <ele>1543.7</ele>
        <time>2023-10-31T08:38:15Z</time>
      </trkpt>
      <trkpt lat="42.79532" lon="-0.02405">
        <ele>1543.6</ele>
        <time>2023-10-31T08:38:16Z</time>
      </trkpt>
      <trkpt lat="42.79532" lon="-0.02405">
        <ele>1543.6</ele>
        <time>2023-10-31T08:38:17Z</time>
      </trkpt>
      <trkpt lat="42.79532" lon="-0.02405">
        <ele>1543.6</ele>
        <time>2023-10-31T08:38:18Z</time>
      </trkpt>
      <trkpt lat="42.79532" lon="-0.02405">
        <ele>1543.6</ele>
        <time>2023-10-31T08:38:19Z</time>
      </trkpt>
      <trkpt lat="42.79533" lon="-0.02404">
        <ele>1543.6</ele>
        <time>2023-10-31T08:38:20Z</time>
      </trkpt>
      <trkpt lat="42.79534" lon="-0.02405">
        <ele>1543.6</ele>
        <time>2023-10-31T08:38:21Z</time>
      </trkpt>
      <trkpt lat="42.79534" lon="-0.02404">
        <ele>1543.5</ele>
        <time>2023-10-31T08:38:22Z</time>
      </trkpt>
      <trkpt lat="42.79533" lon="-0.02404">
        <ele>1543.5</ele>
        <time>2023-10-31T08:38:23Z</time>
      </trkpt>
      <trkpt lat="42.79534" lon="-0.02407">
        <ele>1543.5</ele>
        <time>2023-10-31T08:38:24Z</time>
      </trkpt>
      <trkpt lat="42.79534" lon="-0.02409">
        <ele>1543.5</ele>
        <time>2023-10-31T08:38:25Z</time>
      </trkpt>
      <trkpt lat="42.79535" lon="-0.0241">
        <ele>1543.5</ele>
        <time>2023-10-31T08:38:26Z</time>
      </trkpt>
      <trkpt lat="42.79534" lon="-0.02412">
        <ele>1543.5</ele>
        <time>2023-10-31T08:38:27Z</time>
      </trkpt>
      <trkpt lat="42.79534" lon="-0.02413">
        <ele>1543.4</ele>
        <time>2023-10-31T08:38:28Z</time>
      </trkpt>
      <trkpt lat="42.79534" lon="-0.02414">
        <ele>1543.4</ele>
        <time>2023-10-31T08:38:29Z</time>
      </trkpt>
      <trkpt lat="42.79533" lon="-0.02415">
        <ele>1543.4</ele>
        <time>2023-10-31T08:38:30Z</time>
      </trkpt>
      <trkpt lat="42.79532" lon="-0.02416">
        <ele>1543.4</ele>
        <time>2023-10-31T08:38:31Z</time>
      </trkpt>
      <trkpt lat="42.79532" lon="-0.02417">
        <ele>1543.4</ele>
        <time>2023-10-31T08:38:32Z</time>
      </trkpt>
      <trkpt lat="42.79531" lon="-0.02418">
        <ele>1543.4</ele>
        <time>2023-10-31T08:38:33Z</time>
      </trkpt>
      <trkpt lat="42.79531" lon="-0.02417">
        <ele>1543.4</ele>
        <time>2023-10-31T08:38:34Z</time>
      </trkpt>
      <trkpt lat="42.79532" lon="-0.02418">
        <ele>1543.4</ele>
        <time>2023-10-31T08:38:35Z</time>
      </trkpt>
      <trkpt lat="42.79531" lon="-0.02419">
        <ele>1543.5</ele>
        <time>2023-10-31T08:38:36Z</time>
      </trkpt>
      <trkpt lat="42.79531" lon="-0.02418">
        <ele>1543.5</ele>
        <time>2023-10-31T08:38:37Z</time>
      </trkpt>
      <trkpt lat="42.79532" lon="-0.02418">
        <ele>1543.5</ele>
        <time>2023-10-31T08:38:38Z</time>
      </trkpt>
      <trkpt lat="42.79532" lon="-0.02421">
        <ele>1543.5</ele>
        <time>2023-10-31T08:38:39Z</time>
      </trkpt>
      <trkpt lat="42.79533" lon="-0.02423">
        <ele>1543.5</ele>
        <time>2023-10-31T08:38:40Z</time>
      </trkpt>
      <trkpt lat="42.79534" lon="-0.02422">
        <ele>1543.5</ele>
        <time>2023-10-31T08:38:41Z</time>
      </trkpt>
      <trkpt lat="42.79535" lon="-0.02423">
        <ele>1543.6</ele>
        <time>2023-10-31T08:38:42Z</time>
      </trkpt>
      <trkpt lat="42.79536" lon="-0.02423">
        <ele>1543.6</ele>
        <time>2023-10-31T08:38:43Z</time>
      </trkpt>
      <trkpt lat="42.79537" lon="-0.02424">
        <ele>1543.6</ele>
        <time>2023-10-31T08:38:44Z</time>
      </trkpt>
      <trkpt lat="42.79537" lon="-0.02426">
        <ele>1543.7</ele>
        <time>2023-10-31T08:38:45Z</time>
      </trkpt>
      <trkpt lat="42.79539" lon="-0.02429">
        <ele>1543.8</ele>
        <time>2023-10-31T08:38:46Z</time>
      </trkpt>
      <trkpt lat="42.7954" lon="-0.02429">
        <ele>1543.9</ele>
        <time>2023-10-31T08:38:47Z</time>
      </trkpt>
      <trkpt lat="42.79542" lon="-0.0243">
        <ele>1543.9</ele>
        <time>2023-10-31T08:38:48Z</time>
      </trkpt>
      <trkpt lat="42.79544" lon="-0.0243">
        <ele>1544</ele>
        <time>2023-10-31T08:38:49Z</time>
      </trkpt>
      <trkpt lat="42.79544" lon="-0.02434">
        <ele>1544.2</ele>
        <time>2023-10-31T08:38:50Z</time>
      </trkpt>
      <trkpt lat="42.79544" lon="-0.02436">
        <ele>1544.3</ele>
        <time>2023-10-31T08:38:51Z</time>
      </trkpt>
      <trkpt lat="42.79545" lon="-0.02438">
        <ele>1544.4</ele>
        <time>2023-10-31T08:38:52Z</time>
      </trkpt>
      <trkpt lat="42.79545" lon="-0.02439">
        <ele>1544.5</ele>
        <time>2023-10-31T08:38:53Z</time>
      </trkpt>
      <trkpt lat="42.79546" lon="-0.02442">
        <ele>1544.7</ele>
        <time>2023-10-31T08:38:54Z</time>
      </trkpt>
      <trkpt lat="42.79546" lon="-0.02444">
        <ele>1544.8</ele>
        <time>2023-10-31T08:38:55Z</time>
      </trkpt>
      <trkpt lat="42.79546" lon="-0.02445">
        <ele>1544.8</ele>
        <time>2023-10-31T08:38:56Z</time>
      </trkpt>
      <trkpt lat="42.79547" lon="-0.02447">
        <ele>1545</ele>
        <time>2023-10-31T08:38:57Z</time>
      </trkpt>
      <trkpt lat="42.79548" lon="-0.02448">
        <ele>1545.1</ele>
        <time>2023-10-31T08:38:58Z</time>
      </trkpt>
      <trkpt lat="42.79548" lon="-0.02452">
        <ele>1545.4</ele>
        <time>2023-10-31T08:38:59Z</time>
      </trkpt>
      <trkpt lat="42.79548" lon="-0.02453">
        <ele>1545.5</ele>
        <time>2023-10-31T08:39:00Z</time>
      </trkpt>
      <trkpt lat="42.79548" lon="-0.02455">
        <ele>1545.6</ele>
        <time>2023-10-31T08:39:01Z</time>
      </trkpt>
      <trkpt lat="42.79549" lon="-0.02457">
        <ele>1545.8</ele>
        <time>2023-10-31T08:39:02Z</time>
      </trkpt>
      <trkpt lat="42.7955" lon="-0.02458">
        <ele>1545.9</ele>
        <time>2023-10-31T08:39:03Z</time>
      </trkpt>
      <trkpt lat="42.79551" lon="-0.02461">
        <ele>1546.1</ele>
        <time>2023-10-31T08:39:04Z</time>
      </trkpt>
      <trkpt lat="42.79551" lon="-0.02463">
        <ele>1546.3</ele>
        <time>2023-10-31T08:39:05Z</time>
      </trkpt>
      <trkpt lat="42.79551" lon="-0.02465">
        <ele>1546.5</ele>
        <time>2023-10-31T08:39:06Z</time>
      </trkpt>
      <trkpt lat="42.79552" lon="-0.02467">
        <ele>1546.6</ele>
        <time>2023-10-31T08:39:07Z</time>
      </trkpt>
      <trkpt lat="42.79553" lon="-0.02468">
        <ele>1546.8</ele>
        <time>2023-10-31T08:39:08Z</time>
      </trkpt>
      <trkpt lat="42.79554" lon="-0.02469">
        <ele>1546.9</ele>
        <time>2023-10-31T08:39:09Z</time>
      </trkpt>
      <trkpt lat="42.79554" lon="-0.02469">
        <ele>1547</ele>
        <time>2023-10-31T08:39:10Z</time>
      </trkpt>
      <trkpt lat="42.79555" lon="-0.02471">
        <ele>1547.2</ele>
        <time>2023-10-31T08:39:11Z</time>
      </trkpt>
      <trkpt lat="42.79556" lon="-0.02472">
        <ele>1547.3</ele>
        <time>2023-10-31T08:39:12Z</time>
      </trkpt>
      <trkpt lat="42.79556" lon="-0.02473">
        <ele>1547.4</ele>
        <time>2023-10-31T08:39:13Z</time>
      </trkpt>
      <trkpt lat="42.79556" lon="-0.02474">
        <ele>1547.5</ele>
        <time>2023-10-31T08:39:14Z</time>
      </trkpt>
      <trkpt lat="42.79557" lon="-0.02476">
        <ele>1547.6</ele>
        <time>2023-10-31T08:39:15Z</time>
      </trkpt>
      <trkpt lat="42.79557" lon="-0.02477">
        <ele>1547.8</ele>
        <time>2023-10-31T08:39:16Z</time>
      </trkpt>
      <trkpt lat="42.79557" lon="-0.02478">
        <ele>1547.8</ele>
        <time>2023-10-31T08:39:17Z</time>
      </trkpt>
      <trkpt lat="42.79557" lon="-0.0248">
        <ele>1548</ele>
        <time>2023-10-31T08:39:18Z</time>
      </trkpt>
      <trkpt lat="42.79558" lon="-0.02481">
        <ele>1548.1</ele>
        <time>2023-10-31T08:39:19Z</time>
      </trkpt>
      <trkpt lat="42.79558" lon="-0.02482">
        <ele>1548.2</ele>
        <time>2023-10-31T08:39:20Z</time>
      </trkpt>
      <trkpt lat="42.79559" lon="-0.02483">
        <ele>1548.2</ele>
        <time>2023-10-31T08:39:21Z</time>
      </trkpt>
      <trkpt lat="42.79558" lon="-0.02484">
        <ele>1548.3</ele>
        <time>2023-10-31T08:39:22Z</time>
      </trkpt>
      <trkpt lat="42.79558" lon="-0.02487">
        <ele>1548.5</ele>
        <time>2023-10-31T08:39:23Z</time>
      </trkpt>
      <trkpt lat="42.79558" lon="-0.02489">
        <ele>1548.7</ele>
        <time>2023-10-31T08:39:24Z</time>
      </trkpt>
      <trkpt lat="42.79559" lon="-0.0249">
        <ele>1548.8</ele>
        <time>2023-10-31T08:39:25Z</time>
      </trkpt>
      <trkpt lat="42.79559" lon="-0.02492">
        <ele>1548.9</ele>
        <time>2023-10-31T08:39:26Z</time>
      </trkpt>
      <trkpt lat="42.79559" lon="-0.02494">
        <ele>1549</ele>
        <time>2023-10-31T08:39:27Z</time>
      </trkpt>
      <trkpt lat="42.79559" lon="-0.02496">
        <ele>1549.2</ele>
        <time>2023-10-31T08:39:28Z</time>
      </trkpt>
      <trkpt lat="42.79559" lon="-0.02497">
        <ele>1549.2</ele>
        <time>2023-10-31T08:39:29Z</time>
      </trkpt>
      <trkpt lat="42.79559" lon="-0.02499">
        <ele>1549.3</ele>
        <time>2023-10-31T08:39:30Z</time>
      </trkpt>
      <trkpt lat="42.79559" lon="-0.025">
        <ele>1549.4</ele>
        <time>2023-10-31T08:39:31Z</time>
      </trkpt>
      <trkpt lat="42.79559" lon="-0.02501">
        <ele>1549.5</ele>
        <time>2023-10-31T08:39:32Z</time>
      </trkpt>
      <trkpt lat="42.79559" lon="-0.02502">
        <ele>1549.5</ele>
        <time>2023-10-31T08:39:33Z</time>
      </trkpt>
      <trkpt lat="42.79559" lon="-0.02502">
        <ele>1549.6</ele>
        <time>2023-10-31T08:39:34Z</time>
      </trkpt>
      <trkpt lat="42.79559" lon="-0.02504">
        <ele>1549.7</ele>
        <time>2023-10-31T08:39:35Z</time>
      </trkpt>
      <trkpt lat="42.79559" lon="-0.02505">
        <ele>1549.7</ele>
        <time>2023-10-31T08:39:36Z</time>
      </trkpt>
      <trkpt lat="42.7956" lon="-0.02506">
        <ele>1549.8</ele>
        <time>2023-10-31T08:39:37Z</time>
      </trkpt>
      <trkpt lat="42.7956" lon="-0.02507">
        <ele>1549.8</ele>
        <time>2023-10-31T08:39:38Z</time>
      </trkpt>
      <trkpt lat="42.79561" lon="-0.02507">
        <ele>1549.9</ele>
        <time>2023-10-31T08:39:39Z</time>
      </trkpt>
      <trkpt lat="42.79561" lon="-0.02508">
        <ele>1550</ele>
        <time>2023-10-31T08:39:40Z</time>
      </trkpt>
      <trkpt lat="42.7956" lon="-0.0251">
        <ele>1550.1</ele>
        <time>2023-10-31T08:39:41Z</time>
      </trkpt>
      <trkpt lat="42.79561" lon="-0.02512">
        <ele>1550.2</ele>
        <time>2023-10-31T08:39:42Z</time>
      </trkpt>
      <trkpt lat="42.79562" lon="-0.02513">
        <ele>1550.3</ele>
        <time>2023-10-31T08:39:43Z</time>
      </trkpt>
      <trkpt lat="42.79563" lon="-0.02513">
        <ele>1550.3</ele>
        <time>2023-10-31T08:39:44Z</time>
      </trkpt>
      <trkpt lat="42.79564" lon="-0.02513">
        <ele>1550.3</ele>
        <time>2023-10-31T08:39:45Z</time>
      </trkpt>
      <trkpt lat="42.79564" lon="-0.02514">
        <ele>1550.4</ele>
        <time>2023-10-31T08:39:46Z</time>
      </trkpt>
      <trkpt lat="42.79565" lon="-0.02515">
        <ele>1550.4</ele>
        <time>2023-10-31T08:39:47Z</time>
      </trkpt>
      <trkpt lat="42.79566" lon="-0.02515">
        <ele>1550.5</ele>
        <time>2023-10-31T08:39:48Z</time>
      </trkpt>
      <trkpt lat="42.79567" lon="-0.02517">
        <ele>1550.6</ele>
        <time>2023-10-31T08:39:49Z</time>
      </trkpt>
      <trkpt lat="42.79566" lon="-0.02519">
        <ele>1550.7</ele>
        <time>2023-10-31T08:39:50Z</time>
      </trkpt>
      <trkpt lat="42.79566" lon="-0.02521">
        <ele>1550.7</ele>
        <time>2023-10-31T08:39:51Z</time>
      </trkpt>
      <trkpt lat="42.79567" lon="-0.02522">
        <ele>1550.8</ele>
        <time>2023-10-31T08:39:52Z</time>
      </trkpt>
      <trkpt lat="42.79567" lon="-0.02522">
        <ele>1550.8</ele>
        <time>2023-10-31T08:39:53Z</time>
      </trkpt>
      <trkpt lat="42.79568" lon="-0.02523">
        <ele>1550.9</ele>
        <time>2023-10-31T08:39:54Z</time>
      </trkpt>
      <trkpt lat="42.79569" lon="-0.02525">
        <ele>1551</ele>
        <time>2023-10-31T08:39:55Z</time>
      </trkpt>
      <trkpt lat="42.7957" lon="-0.02528">
        <ele>1551.1</ele>
        <time>2023-10-31T08:39:56Z</time>
      </trkpt>
      <trkpt lat="42.79569" lon="-0.02529">
        <ele>1551.2</ele>
        <time>2023-10-31T08:39:57Z</time>
      </trkpt>
      <trkpt lat="42.79569" lon="-0.0253">
        <ele>1551.2</ele>
        <time>2023-10-31T08:39:58Z</time>
      </trkpt>
      <trkpt lat="42.79569" lon="-0.02532">
        <ele>1551.3</ele>
        <time>2023-10-31T08:39:59Z</time>
      </trkpt>
      <trkpt lat="42.79569" lon="-0.02532">
        <ele>1551.3</ele>
        <time>2023-10-31T08:40:00Z</time>
      </trkpt>
      <trkpt lat="42.79569" lon="-0.02533">
        <ele>1551.3</ele>
        <time>2023-10-31T08:40:01Z</time>
      </trkpt>
      <trkpt lat="42.79567" lon="-0.02531">
        <ele>1551.5</ele>
        <time>2023-10-31T08:40:02Z</time>
      </trkpt>
      <trkpt lat="42.79567" lon="-0.02533">
        <ele>1551.5</ele>
        <time>2023-10-31T08:40:03Z</time>
      </trkpt>
      <trkpt lat="42.79567" lon="-0.02537">
        <ele>1551.7</ele>
        <time>2023-10-31T08:40:04Z</time>
      </trkpt>
      <trkpt lat="42.79567" lon="-0.02539">
        <ele>1551.9</ele>
        <time>2023-10-31T08:40:05Z</time>
      </trkpt>
      <trkpt lat="42.79567" lon="-0.02541">
        <ele>1552</ele>
        <time>2023-10-31T08:40:06Z</time>
      </trkpt>
      <trkpt lat="42.79566" lon="-0.02543">
        <ele>1552.1</ele>
        <time>2023-10-31T08:40:07Z</time>
      </trkpt>
      <trkpt lat="42.79566" lon="-0.02544">
        <ele>1552.2</ele>
        <time>2023-10-31T08:40:08Z</time>
      </trkpt>
      <trkpt lat="42.79566" lon="-0.02545">
        <ele>1552.3</ele>
        <time>2023-10-31T08:40:09Z</time>
      </trkpt>
      <trkpt lat="42.79565" lon="-0.02546">
        <ele>1552.3</ele>
        <time>2023-10-31T08:40:10Z</time>
      </trkpt>
      <trkpt lat="42.79564" lon="-0.02546">
        <ele>1552.4</ele>
        <time>2023-10-31T08:40:11Z</time>
      </trkpt>
      <trkpt lat="42.79564" lon="-0.02547">
        <ele>1552.5</ele>
        <time>2023-10-31T08:40:12Z</time>
      </trkpt>
      <trkpt lat="42.79564" lon="-0.02548">
        <ele>1552.6</ele>
        <time>2023-10-31T08:40:13Z</time>
      </trkpt>
      <trkpt lat="42.79564" lon="-0.0255">
        <ele>1552.7</ele>
        <time>2023-10-31T08:40:14Z</time>
      </trkpt>
      <trkpt lat="42.79563" lon="-0.0255">
        <ele>1552.8</ele>
        <time>2023-10-31T08:40:15Z</time>
      </trkpt>
      <trkpt lat="42.79563" lon="-0.02552">
        <ele>1552.9</ele>
        <time>2023-10-31T08:40:16Z</time>
      </trkpt>
      <trkpt lat="42.79564" lon="-0.02553">
        <ele>1553</ele>
        <time>2023-10-31T08:40:17Z</time>
      </trkpt>
      <trkpt lat="42.79564" lon="-0.02554">
        <ele>1553.1</ele>
        <time>2023-10-31T08:40:18Z</time>
      </trkpt>
      <trkpt lat="42.79565" lon="-0.02555">
        <ele>1553.2</ele>
        <time>2023-10-31T08:40:19Z</time>
      </trkpt>
      <trkpt lat="42.79566" lon="-0.02557">
        <ele>1553.3</ele>
        <time>2023-10-31T08:40:20Z</time>
      </trkpt>
      <trkpt lat="42.79567" lon="-0.02558">
        <ele>1553.6</ele>
        <time>2023-10-31T08:40:21Z</time>
      </trkpt>
      <trkpt lat="42.79568" lon="-0.0256">
        <ele>1553.7</ele>
        <time>2023-10-31T08:40:22Z</time>
      </trkpt>
      <trkpt lat="42.79568" lon="-0.02561">
        <ele>1553.8</ele>
        <time>2023-10-31T08:40:23Z</time>
      </trkpt>
      <trkpt lat="42.7957" lon="-0.0256">
        <ele>1554.1</ele>
        <time>2023-10-31T08:40:24Z</time>
      </trkpt>
      <trkpt lat="42.7957" lon="-0.02563">
        <ele>1554.3</ele>
        <time>2023-10-31T08:40:25Z</time>
      </trkpt>
      <trkpt lat="42.7957" lon="-0.02564">
        <ele>1554.4</ele>
        <time>2023-10-31T08:40:26Z</time>
      </trkpt>
      <trkpt lat="42.7957" lon="-0.02565">
        <ele>1554.5</ele>
        <time>2023-10-31T08:40:27Z</time>
      </trkpt>
      <trkpt lat="42.7957" lon="-0.02568">
        <ele>1554.7</ele>
        <time>2023-10-31T08:40:28Z</time>
      </trkpt>
      <trkpt lat="42.7957" lon="-0.0257">
        <ele>1554.8</ele>
        <time>2023-10-31T08:40:29Z</time>
      </trkpt>
      <trkpt lat="42.7957" lon="-0.02571">
        <ele>1555</ele>
        <time>2023-10-31T08:40:30Z</time>
      </trkpt>
      <trkpt lat="42.7957" lon="-0.02573">
        <ele>1555.1</ele>
        <time>2023-10-31T08:40:31Z</time>
      </trkpt>
      <trkpt lat="42.79569" lon="-0.02574">
        <ele>1555.2</ele>
        <time>2023-10-31T08:40:32Z</time>
      </trkpt>
      <trkpt lat="42.7957" lon="-0.02574">
        <ele>1555.2</ele>
        <time>2023-10-31T08:40:33Z</time>
      </trkpt>
      <trkpt lat="42.79571" lon="-0.02573">
        <ele>1555.3</ele>
        <time>2023-10-31T08:40:34Z</time>
      </trkpt>
      <trkpt lat="42.79572" lon="-0.02576">
        <ele>1555.5</ele>
        <time>2023-10-31T08:40:35Z</time>
      </trkpt>
      <trkpt lat="42.79572" lon="-0.02577">
        <ele>1555.6</ele>
        <time>2023-10-31T08:40:36Z</time>
      </trkpt>
      <trkpt lat="42.79573" lon="-0.02579">
        <ele>1555.7</ele>
        <time>2023-10-31T08:40:37Z</time>
      </trkpt>
      <trkpt lat="42.79574" lon="-0.0258">
        <ele>1555.8</ele>
        <time>2023-10-31T08:40:38Z</time>
      </trkpt>
      <trkpt lat="42.79575" lon="-0.02581">
        <ele>1555.9</ele>
        <time>2023-10-31T08:40:39Z</time>
      </trkpt>
      <trkpt lat="42.79575" lon="-0.02581">
        <ele>1555.9</ele>
        <time>2023-10-31T08:40:40Z</time>
      </trkpt>
      <trkpt lat="42.79576" lon="-0.02582">
        <ele>1556</ele>
        <time>2023-10-31T08:40:41Z</time>
      </trkpt>
      <trkpt lat="42.79576" lon="-0.02583">
        <ele>1556</ele>
        <time>2023-10-31T08:40:42Z</time>
      </trkpt>
      <trkpt lat="42.79576" lon="-0.02584">
        <ele>1556.1</ele>
        <time>2023-10-31T08:40:43Z</time>
      </trkpt>
      <trkpt lat="42.79575" lon="-0.02585">
        <ele>1556.2</ele>
        <time>2023-10-31T08:40:44Z</time>
      </trkpt>
      <trkpt lat="42.79575" lon="-0.02586">
        <ele>1556.2</ele>
        <time>2023-10-31T08:40:45Z</time>
      </trkpt>
      <trkpt lat="42.79575" lon="-0.02587">
        <ele>1556.3</ele>
        <time>2023-10-31T08:40:46Z</time>
      </trkpt>
      <trkpt lat="42.79576" lon="-0.02587">
        <ele>1556.3</ele>
        <time>2023-10-31T08:40:47Z</time>
      </trkpt>
      <trkpt lat="42.79576" lon="-0.02587">
        <ele>1556.3</ele>
        <time>2023-10-31T08:40:48Z</time>
      </trkpt>
      <trkpt lat="42.79576" lon="-0.02589">
        <ele>1556.4</ele>
        <time>2023-10-31T08:40:49Z</time>
      </trkpt>
      <trkpt lat="42.79576" lon="-0.02589">
        <ele>1556.4</ele>
        <time>2023-10-31T08:40:50Z</time>
      </trkpt>
      <trkpt lat="42.79576" lon="-0.0259">
        <ele>1556.5</ele>
        <time>2023-10-31T08:40:51Z</time>
      </trkpt>
      <trkpt lat="42.79576" lon="-0.02591">
        <ele>1556.5</ele>
        <time>2023-10-31T08:40:52Z</time>
      </trkpt>
      <trkpt lat="42.79576" lon="-0.02592">
        <ele>1556.6</ele>
        <time>2023-10-31T08:40:53Z</time>
      </trkpt>
      <trkpt lat="42.79577" lon="-0.02592">
        <ele>1556.6</ele>
        <time>2023-10-31T08:40:54Z</time>
      </trkpt>
      <trkpt lat="42.79577" lon="-0.02593">
        <ele>1556.6</ele>
        <time>2023-10-31T08:40:55Z</time>
      </trkpt>
      <trkpt lat="42.79578" lon="-0.02594">
        <ele>1556.7</ele>
        <time>2023-10-31T08:40:56Z</time>
      </trkpt>
      <trkpt lat="42.79579" lon="-0.02594">
        <ele>1556.7</ele>
        <time>2023-10-31T08:40:57Z</time>
      </trkpt>
      <trkpt lat="42.7958" lon="-0.02596">
        <ele>1556.7</ele>
        <time>2023-10-31T08:40:58Z</time>
      </trkpt>
      <trkpt lat="42.7958" lon="-0.02597">
        <ele>1556.8</ele>
        <time>2023-10-31T08:40:59Z</time>
      </trkpt>
      <trkpt lat="42.79582" lon="-0.026">
        <ele>1556.8</ele>
        <time>2023-10-31T08:41:00Z</time>
      </trkpt>
      <trkpt lat="42.79582" lon="-0.02602">
        <ele>1556.9</ele>
        <time>2023-10-31T08:41:01Z</time>
      </trkpt>
      <trkpt lat="42.79582" lon="-0.02603">
        <ele>1556.9</ele>
        <time>2023-10-31T08:41:02Z</time>
      </trkpt>
      <trkpt lat="42.79582" lon="-0.02605">
        <ele>1556.9</ele>
        <time>2023-10-31T08:41:03Z</time>
      </trkpt>
      <trkpt lat="42.79582" lon="-0.02606">
        <ele>1556.9</ele>
        <time>2023-10-31T08:41:04Z</time>
      </trkpt>
      <trkpt lat="42.79582" lon="-0.02607">
        <ele>1556.9</ele>
        <time>2023-10-31T08:41:05Z</time>
      </trkpt>
      <trkpt lat="42.79583" lon="-0.02609">
        <ele>1557</ele>
        <time>2023-10-31T08:41:06Z</time>
      </trkpt>
      <trkpt lat="42.79583" lon="-0.0261">
        <ele>1557</ele>
        <time>2023-10-31T08:41:07Z</time>
      </trkpt>
      <trkpt lat="42.79583" lon="-0.02611">
        <ele>1557</ele>
        <time>2023-10-31T08:41:08Z</time>
      </trkpt>
      <trkpt lat="42.79583" lon="-0.02612">
        <ele>1557</ele>
        <time>2023-10-31T08:41:09Z</time>
      </trkpt>
      <trkpt lat="42.79584" lon="-0.02611">
        <ele>1557</ele>
        <time>2023-10-31T08:41:10Z</time>
      </trkpt>
      <trkpt lat="42.79584" lon="-0.02611">
        <ele>1557</ele>
        <time>2023-10-31T08:41:11Z</time>
      </trkpt>
      <trkpt lat="42.79584" lon="-0.02611">
        <ele>1557</ele>
        <time>2023-10-31T08:41:12Z</time>
      </trkpt>
      <trkpt lat="42.79584" lon="-0.02611">
        <ele>1557</ele>
        <time>2023-10-31T08:41:13Z</time>
      </trkpt>
      <trkpt lat="42.79584" lon="-0.02611">
        <ele>1557</ele>
        <time>2023-10-31T08:41:14Z</time>
      </trkpt>
      <trkpt lat="42.79586" lon="-0.02611">
        <ele>1557</ele>
        <time>2023-10-31T08:41:15Z</time>
      </trkpt>
      <trkpt lat="42.79585" lon="-0.02615">
        <ele>1557</ele>
        <time>2023-10-31T08:41:16Z</time>
      </trkpt>
      <trkpt lat="42.79585" lon="-0.02618">
        <ele>1557</ele>
        <time>2023-10-31T08:41:17Z</time>
      </trkpt>
      <trkpt lat="42.79585" lon="-0.02621">
        <ele>1557</ele>
        <time>2023-10-31T08:41:18Z</time>
      </trkpt>
      <trkpt lat="42.79586" lon="-0.02622">
        <ele>1557</ele>
        <time>2023-10-31T08:41:19Z</time>
      </trkpt>
      <trkpt lat="42.79585" lon="-0.02624">
        <ele>1557</ele>
        <time>2023-10-31T08:41:20Z</time>
      </trkpt>
      <trkpt lat="42.79585" lon="-0.02626">
        <ele>1557</ele>
        <time>2023-10-31T08:41:21Z</time>
      </trkpt>
      <trkpt lat="42.79585" lon="-0.02625">
        <ele>1557</ele>
        <time>2023-10-31T08:41:22Z</time>
      </trkpt>
      <trkpt lat="42.79586" lon="-0.02625">
        <ele>1557</ele>
        <time>2023-10-31T08:41:23Z</time>
      </trkpt>
      <trkpt lat="42.79588" lon="-0.02627">
        <ele>1557</ele>
        <time>2023-10-31T08:41:24Z</time>
      </trkpt>
      <trkpt lat="42.79589" lon="-0.02627">
        <ele>1557</ele>
        <time>2023-10-31T08:41:25Z</time>
      </trkpt>
      <trkpt lat="42.79589" lon="-0.0263">
        <ele>1557</ele>
        <time>2023-10-31T08:41:26Z</time>
      </trkpt>
      <trkpt lat="42.79588" lon="-0.02631">
        <ele>1557</ele>
        <time>2023-10-31T08:41:27Z</time>
      </trkpt>
      <trkpt lat="42.79592" lon="-0.02635">
        <ele>1557.1</ele>
        <time>2023-10-31T08:41:28Z</time>
      </trkpt>
      <trkpt lat="42.79594" lon="-0.02637">
        <ele>1557.1</ele>
        <time>2023-10-31T08:41:29Z</time>
      </trkpt>
      <trkpt lat="42.79594" lon="-0.02638">
        <ele>1557.1</ele>
        <time>2023-10-31T08:41:30Z</time>
      </trkpt>
      <trkpt lat="42.79594" lon="-0.02638">
        <ele>1557.2</ele>
        <time>2023-10-31T08:41:31Z</time>
      </trkpt>
      <trkpt lat="42.79595" lon="-0.0264">
        <ele>1557.2</ele>
        <time>2023-10-31T08:41:32Z</time>
      </trkpt>
      <trkpt lat="42.79596" lon="-0.02642">
        <ele>1557.2</ele>
        <time>2023-10-31T08:41:33Z</time>
      </trkpt>
      <trkpt lat="42.79597" lon="-0.02642">
        <ele>1557.2</ele>
        <time>2023-10-31T08:41:34Z</time>
      </trkpt>
      <trkpt lat="42.79598" lon="-0.02644">
        <ele>1557.3</ele>
        <time>2023-10-31T08:41:35Z</time>
      </trkpt>
      <trkpt lat="42.79597" lon="-0.02646">
        <ele>1557.3</ele>
        <time>2023-10-31T08:41:36Z</time>
      </trkpt>
      <trkpt lat="42.79597" lon="-0.02647">
        <ele>1557.4</ele>
        <time>2023-10-31T08:41:37Z</time>
      </trkpt>
      <trkpt lat="42.79598" lon="-0.02647">
        <ele>1557.4</ele>
        <time>2023-10-31T08:41:38Z</time>
      </trkpt>
      <trkpt lat="42.79596" lon="-0.02645">
        <ele>1557.5</ele>
        <time>2023-10-31T08:41:39Z</time>
      </trkpt>
      <trkpt lat="42.79597" lon="-0.02649">
        <ele>1557.6</ele>
        <time>2023-10-31T08:41:40Z</time>
      </trkpt>
      <trkpt lat="42.79597" lon="-0.02653">
        <ele>1557.7</ele>
        <time>2023-10-31T08:41:41Z</time>
      </trkpt>
      <trkpt lat="42.79597" lon="-0.02654">
        <ele>1557.8</ele>
        <time>2023-10-31T08:41:42Z</time>
      </trkpt>
      <trkpt lat="42.79597" lon="-0.02656">
        <ele>1557.8</ele>
        <time>2023-10-31T08:41:43Z</time>
      </trkpt>
      <trkpt lat="42.79597" lon="-0.02658">
        <ele>1557.9</ele>
        <time>2023-10-31T08:41:44Z</time>
      </trkpt>
      <trkpt lat="42.79596" lon="-0.02659">
        <ele>1558</ele>
        <time>2023-10-31T08:41:45Z</time>
      </trkpt>
      <trkpt lat="42.79595" lon="-0.02661">
        <ele>1558</ele>
        <time>2023-10-31T08:41:46Z</time>
      </trkpt>
      <trkpt lat="42.79595" lon="-0.02662">
        <ele>1558.1</ele>
        <time>2023-10-31T08:41:47Z</time>
      </trkpt>
      <trkpt lat="42.79595" lon="-0.02664">
        <ele>1558.2</ele>
        <time>2023-10-31T08:41:48Z</time>
      </trkpt>
      <trkpt lat="42.79596" lon="-0.02665">
        <ele>1558.2</ele>
        <time>2023-10-31T08:41:49Z</time>
      </trkpt>
      <trkpt lat="42.79596" lon="-0.02667">
        <ele>1558.3</ele>
        <time>2023-10-31T08:41:50Z</time>
      </trkpt>
      <trkpt lat="42.79597" lon="-0.0267">
        <ele>1558.5</ele>
        <time>2023-10-31T08:41:51Z</time>
      </trkpt>
      <trkpt lat="42.79597" lon="-0.02672">
        <ele>1558.5</ele>
        <time>2023-10-31T08:41:52Z</time>
      </trkpt>
      <trkpt lat="42.79597" lon="-0.02673">
        <ele>1558.6</ele>
        <time>2023-10-31T08:41:53Z</time>
      </trkpt>
      <trkpt lat="42.79597" lon="-0.02672">
        <ele>1558.6</ele>
        <time>2023-10-31T08:41:54Z</time>
      </trkpt>
      <trkpt lat="42.79598" lon="-0.02674">
        <ele>1558.7</ele>
        <time>2023-10-31T08:41:55Z</time>
      </trkpt>
      <trkpt lat="42.79598" lon="-0.02675">
        <ele>1558.8</ele>
        <time>2023-10-31T08:41:56Z</time>
      </trkpt>
      <trkpt lat="42.79598" lon="-0.02677">
        <ele>1558.9</ele>
        <time>2023-10-31T08:41:57Z</time>
      </trkpt>
      <trkpt lat="42.79599" lon="-0.0268">
        <ele>1559</ele>
        <time>2023-10-31T08:41:58Z</time>
      </trkpt>
      <trkpt lat="42.79598" lon="-0.02681">
        <ele>1559.1</ele>
        <time>2023-10-31T08:41:59Z</time>
      </trkpt>
      <trkpt lat="42.79598" lon="-0.02682">
        <ele>1559.1</ele>
        <time>2023-10-31T08:42:00Z</time>
      </trkpt>
      <trkpt lat="42.79599" lon="-0.02682">
        <ele>1559.2</ele>
        <time>2023-10-31T08:42:01Z</time>
      </trkpt>
      <trkpt lat="42.79599" lon="-0.02684">
        <ele>1559.3</ele>
        <time>2023-10-31T08:42:02Z</time>
      </trkpt>
      <trkpt lat="42.79599" lon="-0.02685">
        <ele>1559.3</ele>
        <time>2023-10-31T08:42:03Z</time>
      </trkpt>
      <trkpt lat="42.79599" lon="-0.02687">
        <ele>1559.4</ele>
        <time>2023-10-31T08:42:04Z</time>
      </trkpt>
      <trkpt lat="42.79599" lon="-0.02689">
        <ele>1559.6</ele>
        <time>2023-10-31T08:42:05Z</time>
      </trkpt>
      <trkpt lat="42.79598" lon="-0.02691">
        <ele>1559.7</ele>
        <time>2023-10-31T08:42:06Z</time>
      </trkpt>
      <trkpt lat="42.79598" lon="-0.02692">
        <ele>1559.7</ele>
        <time>2023-10-31T08:42:07Z</time>
      </trkpt>
      <trkpt lat="42.79598" lon="-0.02694">
        <ele>1559.9</ele>
        <time>2023-10-31T08:42:08Z</time>
      </trkpt>
      <trkpt lat="42.79597" lon="-0.02695">
        <ele>1560</ele>
        <time>2023-10-31T08:42:09Z</time>
      </trkpt>
      <trkpt lat="42.79597" lon="-0.02697">
        <ele>1560.1</ele>
        <time>2023-10-31T08:42:10Z</time>
      </trkpt>
      <trkpt lat="42.79596" lon="-0.02698">
        <ele>1560.2</ele>
        <time>2023-10-31T08:42:11Z</time>
      </trkpt>
      <trkpt lat="42.79597" lon="-0.027">
        <ele>1560.3</ele>
        <time>2023-10-31T08:42:12Z</time>
      </trkpt>
      <trkpt lat="42.79597" lon="-0.02701">
        <ele>1560.4</ele>
        <time>2023-10-31T08:42:13Z</time>
      </trkpt>
      <trkpt lat="42.79597" lon="-0.02702">
        <ele>1560.5</ele>
        <time>2023-10-31T08:42:14Z</time>
      </trkpt>
      <trkpt lat="42.79597" lon="-0.02704">
        <ele>1560.6</ele>
        <time>2023-10-31T08:42:15Z</time>
      </trkpt>
      <trkpt lat="42.79596" lon="-0.02706">
        <ele>1560.7</ele>
        <time>2023-10-31T08:42:16Z</time>
      </trkpt>
      <trkpt lat="42.79595" lon="-0.02709">
        <ele>1561</ele>
        <time>2023-10-31T08:42:17Z</time>
      </trkpt>
      <trkpt lat="42.79594" lon="-0.0271">
        <ele>1561</ele>
        <time>2023-10-31T08:42:18Z</time>
      </trkpt>
      <trkpt lat="42.79594" lon="-0.02711">
        <ele>1561.1</ele>
        <time>2023-10-31T08:42:19Z</time>
      </trkpt>
      <trkpt lat="42.79593" lon="-0.02711">
        <ele>1561.3</ele>
        <time>2023-10-31T08:42:20Z</time>
      </trkpt>
      <trkpt lat="42.79592" lon="-0.02713">
        <ele>1561.4</ele>
        <time>2023-10-31T08:42:21Z</time>
      </trkpt>
      <trkpt lat="42.79591" lon="-0.02714">
        <ele>1561.5</ele>
        <time>2023-10-31T08:42:22Z</time>
      </trkpt>
      <trkpt lat="42.7959" lon="-0.02717">
        <ele>1561.7</ele>
        <time>2023-10-31T08:42:23Z</time>
      </trkpt>
      <trkpt lat="42.7959" lon="-0.02718">
        <ele>1561.8</ele>
        <time>2023-10-31T08:42:24Z</time>
      </trkpt>
      <trkpt lat="42.7959" lon="-0.02719">
        <ele>1561.9</ele>
        <time>2023-10-31T08:42:25Z</time>
      </trkpt>
      <trkpt lat="42.79588" lon="-0.02719">
        <ele>1562.1</ele>
        <time>2023-10-31T08:42:26Z</time>
      </trkpt>
      <trkpt lat="42.79588" lon="-0.02718">
        <ele>1562.1</ele>
        <time>2023-10-31T08:42:27Z</time>
      </trkpt>
      <trkpt lat="42.79588" lon="-0.02718">
        <ele>1562.1</ele>
        <time>2023-10-31T08:42:28Z</time>
      </trkpt>
      <trkpt lat="42.79588" lon="-0.02718">
        <ele>1562.2</ele>
        <time>2023-10-31T08:42:29Z</time>
      </trkpt>
      <trkpt lat="42.79587" lon="-0.02718">
        <ele>1562.2</ele>
        <time>2023-10-31T08:42:30Z</time>
      </trkpt>
      <trkpt lat="42.79587" lon="-0.02718">
        <ele>1562.2</ele>
        <time>2023-10-31T08:42:31Z</time>
      </trkpt>
      <trkpt lat="42.79587" lon="-0.02718">
        <ele>1562.3</ele>
        <time>2023-10-31T08:42:32Z</time>
      </trkpt>
      <trkpt lat="42.79586" lon="-0.02718">
        <ele>1562.3</ele>
        <time>2023-10-31T08:42:33Z</time>
      </trkpt>
      <trkpt lat="42.79586" lon="-0.02717">
        <ele>1562.3</ele>
        <time>2023-10-31T08:42:34Z</time>
      </trkpt>
      <trkpt lat="42.79586" lon="-0.02717">
        <ele>1562.4</ele>
        <time>2023-10-31T08:42:35Z</time>
      </trkpt>
      <trkpt lat="42.79586" lon="-0.02717">
        <ele>1562.4</ele>
        <time>2023-10-31T08:42:36Z</time>
      </trkpt>
      <trkpt lat="42.79585" lon="-0.02717">
        <ele>1562.4</ele>
        <time>2023-10-31T08:42:37Z</time>
      </trkpt>
      <trkpt lat="42.79585" lon="-0.02717">
        <ele>1562.5</ele>
        <time>2023-10-31T08:42:38Z</time>
      </trkpt>
      <trkpt lat="42.79585" lon="-0.02717">
        <ele>1562.5</ele>
        <time>2023-10-31T08:42:39Z</time>
      </trkpt>
      <trkpt lat="42.79588" lon="-0.0272">
        <ele>1563</ele>
        <time>2023-10-31T08:42:40Z</time>
      </trkpt>
      <trkpt lat="42.79589" lon="-0.02719">
        <ele>1563.1</ele>
        <time>2023-10-31T08:42:41Z</time>
      </trkpt>
      <trkpt lat="42.79589" lon="-0.02719">
        <ele>1563.1</ele>
        <time>2023-10-31T08:42:42Z</time>
      </trkpt>
      <trkpt lat="42.79589" lon="-0.02719">
        <ele>1563.1</ele>
        <time>2023-10-31T08:42:43Z</time>
      </trkpt>
      <trkpt lat="42.79589" lon="-0.02719">
        <ele>1563.2</ele>
        <time>2023-10-31T08:42:44Z</time>
      </trkpt>
      <trkpt lat="42.79589" lon="-0.02719">
        <ele>1563.2</ele>
        <time>2023-10-31T08:42:45Z</time>
      </trkpt>
      <trkpt lat="42.79588" lon="-0.02719">
        <ele>1563.3</ele>
        <time>2023-10-31T08:42:46Z</time>
      </trkpt>
      <trkpt lat="42.79588" lon="-0.02719">
        <ele>1563.4</ele>
        <time>2023-10-31T08:42:47Z</time>
      </trkpt>
      <trkpt lat="42.79587" lon="-0.02719">
        <ele>1563.4</ele>
        <time>2023-10-31T08:42:48Z</time>
      </trkpt>
      <trkpt lat="42.79587" lon="-0.0272">
        <ele>1563.5</ele>
        <time>2023-10-31T08:42:49Z</time>
      </trkpt>
      <trkpt lat="42.79587" lon="-0.0272">
        <ele>1563.5</ele>
        <time>2023-10-31T08:42:50Z</time>
      </trkpt>
      <trkpt lat="42.79587" lon="-0.0272">
        <ele>1563.5</ele>
        <time>2023-10-31T08:42:51Z</time>
      </trkpt>
      <trkpt lat="42.79587" lon="-0.0272">
        <ele>1563.5</ele>
        <time>2023-10-31T08:42:52Z</time>
      </trkpt>
      <trkpt lat="42.79588" lon="-0.02721">
        <ele>1563.6</ele>
        <time>2023-10-31T08:42:53Z</time>
      </trkpt>
      <trkpt lat="42.79588" lon="-0.02721">
        <ele>1563.6</ele>
        <time>2023-10-31T08:42:54Z</time>
      </trkpt>
      <trkpt lat="42.79587" lon="-0.0272">
        <ele>1563.8</ele>
        <time>2023-10-31T08:42:55Z</time>
      </trkpt>
      <trkpt lat="42.79587" lon="-0.0272">
        <ele>1563.8</ele>
        <time>2023-10-31T08:42:56Z</time>
      </trkpt>
      <trkpt lat="42.79585" lon="-0.02723">
        <ele>1564.1</ele>
        <time>2023-10-31T08:42:57Z</time>
      </trkpt>
      <trkpt lat="42.79584" lon="-0.02725">
        <ele>1564.4</ele>
        <time>2023-10-31T08:42:58Z</time>
      </trkpt>
      <trkpt lat="42.79582" lon="-0.02726">
        <ele>1564.7</ele>
        <time>2023-10-31T08:42:59Z</time>
      </trkpt>
      <trkpt lat="42.79581" lon="-0.02727">
        <ele>1564.9</ele>
        <time>2023-10-31T08:43:00Z</time>
      </trkpt>
      <trkpt lat="42.79581" lon="-0.02726">
        <ele>1564.9</ele>
        <time>2023-10-31T08:43:01Z</time>
      </trkpt>
      <trkpt lat="42.79581" lon="-0.02725">
        <ele>1565.1</ele>
        <time>2023-10-31T08:43:02Z</time>
      </trkpt>
      <trkpt lat="42.79581" lon="-0.02727">
        <ele>1565.2</ele>
        <time>2023-10-31T08:43:03Z</time>
      </trkpt>
      <trkpt lat="42.79581" lon="-0.02726">
        <ele>1565.3</ele>
        <time>2023-10-31T08:43:04Z</time>
      </trkpt>
      <trkpt lat="42.7958" lon="-0.02728">
        <ele>1565.6</ele>
        <time>2023-10-31T08:43:05Z</time>
      </trkpt>
      <trkpt lat="42.7958" lon="-0.02728">
        <ele>1565.7</ele>
        <time>2023-10-31T08:43:06Z</time>
      </trkpt>
      <trkpt lat="42.7958" lon="-0.02727">
        <ele>1565.9</ele>
        <time>2023-10-31T08:43:07Z</time>
      </trkpt>
      <trkpt lat="42.79581" lon="-0.02728">
        <ele>1566</ele>
        <time>2023-10-31T08:43:08Z</time>
      </trkpt>
      <trkpt lat="42.79579" lon="-0.0273">
        <ele>1566.3</ele>
        <time>2023-10-31T08:43:09Z</time>
      </trkpt>
      <trkpt lat="42.79579" lon="-0.02729">
        <ele>1566.5</ele>
        <time>2023-10-31T08:43:10Z</time>
      </trkpt>
      <trkpt lat="42.79578" lon="-0.0273">
        <ele>1566.6</ele>
        <time>2023-10-31T08:43:11Z</time>
      </trkpt>
      <trkpt lat="42.79577" lon="-0.02731">
        <ele>1566.8</ele>
        <time>2023-10-31T08:43:12Z</time>
      </trkpt>
      <trkpt lat="42.79576" lon="-0.0273">
        <ele>1566.9</ele>
        <time>2023-10-31T08:43:13Z</time>
      </trkpt>
      <trkpt lat="42.79576" lon="-0.02731">
        <ele>1567</ele>
        <time>2023-10-31T08:43:14Z</time>
      </trkpt>
      <trkpt lat="42.79576" lon="-0.02731">
        <ele>1567.1</ele>
        <time>2023-10-31T08:43:15Z</time>
      </trkpt>
      <trkpt lat="42.79575" lon="-0.02732">
        <ele>1567.3</ele>
        <time>2023-10-31T08:43:16Z</time>
      </trkpt>
      <trkpt lat="42.79575" lon="-0.02732">
        <ele>1567.4</ele>
        <time>2023-10-31T08:43:17Z</time>
      </trkpt>
      <trkpt lat="42.79575" lon="-0.02733">
        <ele>1567.5</ele>
        <time>2023-10-31T08:43:18Z</time>
      </trkpt>
      <trkpt lat="42.79574" lon="-0.02734">
        <ele>1567.6</ele>
        <time>2023-10-31T08:43:19Z</time>
      </trkpt>
      <trkpt lat="42.79573" lon="-0.02733">
        <ele>1567.9</ele>
        <time>2023-10-31T08:43:20Z</time>
      </trkpt>
      <trkpt lat="42.79572" lon="-0.02733">
        <ele>1568</ele>
        <time>2023-10-31T08:43:21Z</time>
      </trkpt>
      <trkpt lat="42.79573" lon="-0.02734">
        <ele>1568.1</ele>
        <time>2023-10-31T08:43:22Z</time>
      </trkpt>
      <trkpt lat="42.79572" lon="-0.02735">
        <ele>1568.4</ele>
        <time>2023-10-31T08:43:23Z</time>
      </trkpt>
      <trkpt lat="42.79571" lon="-0.02736">
        <ele>1568.5</ele>
        <time>2023-10-31T08:43:24Z</time>
      </trkpt>
      <trkpt lat="42.79572" lon="-0.02735">
        <ele>1568.6</ele>
        <time>2023-10-31T08:43:25Z</time>
      </trkpt>
      <trkpt lat="42.79572" lon="-0.02736">
        <ele>1568.8</ele>
        <time>2023-10-31T08:43:26Z</time>
      </trkpt>
      <trkpt lat="42.79571" lon="-0.02738">
        <ele>1569.1</ele>
        <time>2023-10-31T08:43:27Z</time>
      </trkpt>
      <trkpt lat="42.79571" lon="-0.02739">
        <ele>1569.3</ele>
        <time>2023-10-31T08:43:28Z</time>
      </trkpt>
      <trkpt lat="42.79571" lon="-0.0274">
        <ele>1569.5</ele>
        <time>2023-10-31T08:43:29Z</time>
      </trkpt>
      <trkpt lat="42.79573" lon="-0.0274">
        <ele>1569.9</ele>
        <time>2023-10-31T08:43:30Z</time>
      </trkpt>
      <trkpt lat="42.79572" lon="-0.0274">
        <ele>1570.1</ele>
        <time>2023-10-31T08:43:31Z</time>
      </trkpt>
      <trkpt lat="42.7957" lon="-0.02741">
        <ele>1570.4</ele>
        <time>2023-10-31T08:43:32Z</time>
      </trkpt>
      <trkpt lat="42.7957" lon="-0.02742">
        <ele>1570.5</ele>
        <time>2023-10-31T08:43:33Z</time>
      </trkpt>
      <trkpt lat="42.79569" lon="-0.02743">
        <ele>1570.8</ele>
        <time>2023-10-31T08:43:34Z</time>
      </trkpt>
      <trkpt lat="42.79569" lon="-0.02744">
        <ele>1570.9</ele>
        <time>2023-10-31T08:43:35Z</time>
      </trkpt>
      <trkpt lat="42.79567" lon="-0.02744">
        <ele>1571.3</ele>
        <time>2023-10-31T08:43:36Z</time>
      </trkpt>
      <trkpt lat="42.79567" lon="-0.02746">
        <ele>1571.5</ele>
        <time>2023-10-31T08:43:37Z</time>
      </trkpt>
      <trkpt lat="42.79567" lon="-0.02747">
        <ele>1571.7</ele>
        <time>2023-10-31T08:43:38Z</time>
      </trkpt>
      <trkpt lat="42.79567" lon="-0.02747">
        <ele>1571.8</ele>
        <time>2023-10-31T08:43:39Z</time>
      </trkpt>
      <trkpt lat="42.79567" lon="-0.02748">
        <ele>1571.9</ele>
        <time>2023-10-31T08:43:40Z</time>
      </trkpt>
      <trkpt lat="42.79568" lon="-0.02749">
        <ele>1572</ele>
        <time>2023-10-31T08:43:41Z</time>
      </trkpt>
      <trkpt lat="42.79567" lon="-0.02751">
        <ele>1572.3</ele>
        <time>2023-10-31T08:43:42Z</time>
      </trkpt>
      <trkpt lat="42.79567" lon="-0.02752">
        <ele>1572.5</ele>
        <time>2023-10-31T08:43:43Z</time>
      </trkpt>
      <trkpt lat="42.79567" lon="-0.02753">
        <ele>1572.6</ele>
        <time>2023-10-31T08:43:44Z</time>
      </trkpt>
      <trkpt lat="42.79567" lon="-0.02754">
        <ele>1572.7</ele>
        <time>2023-10-31T08:43:45Z</time>
      </trkpt>
      <trkpt lat="42.79567" lon="-0.02755">
        <ele>1572.8</ele>
        <time>2023-10-31T08:43:46Z</time>
      </trkpt>
      <trkpt lat="42.79566" lon="-0.02756">
        <ele>1572.9</ele>
        <time>2023-10-31T08:43:47Z</time>
      </trkpt>
      <trkpt lat="42.79566" lon="-0.02756">
        <ele>1573.1</ele>
        <time>2023-10-31T08:43:48Z</time>
      </trkpt>
      <trkpt lat="42.79566" lon="-0.02757">
        <ele>1573.1</ele>
        <time>2023-10-31T08:43:49Z</time>
      </trkpt>
      <trkpt lat="42.79565" lon="-0.02758">
        <ele>1573.3</ele>
        <time>2023-10-31T08:43:50Z</time>
      </trkpt>
      <trkpt lat="42.79565" lon="-0.02759">
        <ele>1573.5</ele>
        <time>2023-10-31T08:43:51Z</time>
      </trkpt>
      <trkpt lat="42.79565" lon="-0.0276">
        <ele>1573.6</ele>
        <time>2023-10-31T08:43:52Z</time>
      </trkpt>
      <trkpt lat="42.79565" lon="-0.02761">
        <ele>1573.7</ele>
        <time>2023-10-31T08:43:53Z</time>
      </trkpt>
      <trkpt lat="42.79566" lon="-0.02762">
        <ele>1573.8</ele>
        <time>2023-10-31T08:43:54Z</time>
      </trkpt>
      <trkpt lat="42.79566" lon="-0.02763">
        <ele>1574</ele>
        <time>2023-10-31T08:43:55Z</time>
      </trkpt>
      <trkpt lat="42.79566" lon="-0.02763">
        <ele>1574.1</ele>
        <time>2023-10-31T08:43:56Z</time>
      </trkpt>
      <trkpt lat="42.79567" lon="-0.02764">
        <ele>1574.2</ele>
        <time>2023-10-31T08:43:57Z</time>
      </trkpt>
      <trkpt lat="42.79567" lon="-0.02767">
        <ele>1574.2</ele>
        <time>2023-10-31T08:43:58Z</time>
      </trkpt>
      <trkpt lat="42.79568" lon="-0.02768">
        <ele>1574.2</ele>
        <time>2023-10-31T08:43:59Z</time>
      </trkpt>
      <trkpt lat="42.79568" lon="-0.0277">
        <ele>1574.2</ele>
        <time>2023-10-31T08:44:00Z</time>
      </trkpt>
      <trkpt lat="42.79568" lon="-0.0277">
        <ele>1574.2</ele>
        <time>2023-10-31T08:44:01Z</time>
      </trkpt>
      <trkpt lat="42.79568" lon="-0.0277">
        <ele>1574.2</ele>
        <time>2023-10-31T08:44:02Z</time>
      </trkpt>
      <trkpt lat="42.79569" lon="-0.0277">
        <ele>1574.2</ele>
        <time>2023-10-31T08:44:03Z</time>
      </trkpt>
      <trkpt lat="42.79569" lon="-0.0277">
        <ele>1574.2</ele>
        <time>2023-10-31T08:44:04Z</time>
      </trkpt>
      <trkpt lat="42.7957" lon="-0.0277">
        <ele>1574.3</ele>
        <time>2023-10-31T08:44:05Z</time>
      </trkpt>
      <trkpt lat="42.7957" lon="-0.0277">
        <ele>1574.3</ele>
        <time>2023-10-31T08:44:06Z</time>
      </trkpt>
      <trkpt lat="42.79571" lon="-0.0277">
        <ele>1574.3</ele>
        <time>2023-10-31T08:44:07Z</time>
      </trkpt>
      <trkpt lat="42.79571" lon="-0.0277">
        <ele>1574.3</ele>
        <time>2023-10-31T08:44:08Z</time>
      </trkpt>
      <trkpt lat="42.79572" lon="-0.02769">
        <ele>1574.3</ele>
        <time>2023-10-31T08:44:09Z</time>
      </trkpt>
      <trkpt lat="42.79572" lon="-0.02769">
        <ele>1574.3</ele>
        <time>2023-10-31T08:44:10Z</time>
      </trkpt>
      <trkpt lat="42.79574" lon="-0.02768">
        <ele>1574.3</ele>
        <time>2023-10-31T08:44:11Z</time>
      </trkpt>
      <trkpt lat="42.79575" lon="-0.02769">
        <ele>1574.3</ele>
        <time>2023-10-31T08:44:12Z</time>
      </trkpt>
      <trkpt lat="42.79576" lon="-0.0277">
        <ele>1574.4</ele>
        <time>2023-10-31T08:44:13Z</time>
      </trkpt>
      <trkpt lat="42.79577" lon="-0.0277">
        <ele>1574.4</ele>
        <time>2023-10-31T08:44:14Z</time>
      </trkpt>
      <trkpt lat="42.79578" lon="-0.0277">
        <ele>1574.4</ele>
        <time>2023-10-31T08:44:15Z</time>
      </trkpt>
      <trkpt lat="42.79579" lon="-0.0277">
        <ele>1574.4</ele>
        <time>2023-10-31T08:44:16Z</time>
      </trkpt>
      <trkpt lat="42.7958" lon="-0.0277">
        <ele>1574.4</ele>
        <time>2023-10-31T08:44:17Z</time>
      </trkpt>
      <trkpt lat="42.79581" lon="-0.02771">
        <ele>1574.4</ele>
        <time>2023-10-31T08:44:18Z</time>
      </trkpt>
      <trkpt lat="42.79582" lon="-0.0277">
        <ele>1574.5</ele>
        <time>2023-10-31T08:44:19Z</time>
      </trkpt>
      <trkpt lat="42.79583" lon="-0.02769">
        <ele>1574.5</ele>
        <time>2023-10-31T08:44:20Z</time>
      </trkpt>
      <trkpt lat="42.79584" lon="-0.02767">
        <ele>1574.6</ele>
        <time>2023-10-31T08:44:21Z</time>
      </trkpt>
      <trkpt lat="42.79585" lon="-0.02766">
        <ele>1574.6</ele>
        <time>2023-10-31T08:44:22Z</time>
      </trkpt>
      <trkpt lat="42.79585" lon="-0.02764">
        <ele>1574.6</ele>
        <time>2023-10-31T08:44:23Z</time>
      </trkpt>
      <trkpt lat="42.79586" lon="-0.02764">
        <ele>1574.7</ele>
        <time>2023-10-31T08:44:24Z</time>
      </trkpt>
      <trkpt lat="42.79588" lon="-0.02763">
        <ele>1574.8</ele>
        <time>2023-10-31T08:44:25Z</time>
      </trkpt>
      <trkpt lat="42.7959" lon="-0.02764">
        <ele>1574.9</ele>
        <time>2023-10-31T08:44:26Z</time>
      </trkpt>
      <trkpt lat="42.79591" lon="-0.02765">
        <ele>1575</ele>
        <time>2023-10-31T08:44:27Z</time>
      </trkpt>
      <trkpt lat="42.79593" lon="-0.02764">
        <ele>1575.1</ele>
        <time>2023-10-31T08:44:28Z</time>
      </trkpt>
      <trkpt lat="42.79594" lon="-0.02763">
        <ele>1575.1</ele>
        <time>2023-10-31T08:44:29Z</time>
      </trkpt>
      <trkpt lat="42.79595" lon="-0.02763">
        <ele>1575.2</ele>
        <time>2023-10-31T08:44:30Z</time>
      </trkpt>
      <trkpt lat="42.79596" lon="-0.02764">
        <ele>1575.3</ele>
        <time>2023-10-31T08:44:31Z</time>
      </trkpt>
      <trkpt lat="42.79597" lon="-0.02764">
        <ele>1575.4</ele>
        <time>2023-10-31T08:44:32Z</time>
      </trkpt>
      <trkpt lat="42.79599" lon="-0.02764">
        <ele>1575.5</ele>
        <time>2023-10-31T08:44:33Z</time>
      </trkpt>
      <trkpt lat="42.79601" lon="-0.02764">
        <ele>1575.7</ele>
        <time>2023-10-31T08:44:34Z</time>
      </trkpt>
      <trkpt lat="42.79602" lon="-0.02764">
        <ele>1575.8</ele>
        <time>2023-10-31T08:44:35Z</time>
      </trkpt>
      <trkpt lat="42.79602" lon="-0.02765">
        <ele>1575.9</ele>
        <time>2023-10-31T08:44:36Z</time>
      </trkpt>
      <trkpt lat="42.79604" lon="-0.02765">
        <ele>1576</ele>
        <time>2023-10-31T08:44:37Z</time>
      </trkpt>
      <trkpt lat="42.79605" lon="-0.02766">
        <ele>1576.1</ele>
        <time>2023-10-31T08:44:38Z</time>
      </trkpt>
      <trkpt lat="42.79605" lon="-0.02767">
        <ele>1576.2</ele>
        <time>2023-10-31T08:44:39Z</time>
      </trkpt>
      <trkpt lat="42.79606" lon="-0.02765">
        <ele>1576.4</ele>
        <time>2023-10-31T08:44:40Z</time>
      </trkpt>
      <trkpt lat="42.79607" lon="-0.02765">
        <ele>1576.5</ele>
        <time>2023-10-31T08:44:41Z</time>
      </trkpt>
      <trkpt lat="42.79608" lon="-0.02767">
        <ele>1576.6</ele>
        <time>2023-10-31T08:44:42Z</time>
      </trkpt>
      <trkpt lat="42.79608" lon="-0.02768">
        <ele>1576.7</ele>
        <time>2023-10-31T08:44:43Z</time>
      </trkpt>
      <trkpt lat="42.79609" lon="-0.02768">
        <ele>1576.7</ele>
        <time>2023-10-31T08:44:44Z</time>
      </trkpt>
      <trkpt lat="42.79609" lon="-0.02768">
        <ele>1576.8</ele>
        <time>2023-10-31T08:44:45Z</time>
      </trkpt>
      <trkpt lat="42.7961" lon="-0.02769">
        <ele>1576.8</ele>
        <time>2023-10-31T08:44:46Z</time>
      </trkpt>
      <trkpt lat="42.7961" lon="-0.02769">
        <ele>1576.9</ele>
        <time>2023-10-31T08:44:47Z</time>
      </trkpt>
      <trkpt lat="42.79611" lon="-0.0277">
        <ele>1577</ele>
        <time>2023-10-31T08:44:48Z</time>
      </trkpt>
      <trkpt lat="42.79611" lon="-0.02771">
        <ele>1577.1</ele>
        <time>2023-10-31T08:44:49Z</time>
      </trkpt>
      <trkpt lat="42.79612" lon="-0.02772">
        <ele>1577.1</ele>
        <time>2023-10-31T08:44:50Z</time>
      </trkpt>
      <trkpt lat="42.79612" lon="-0.02773">
        <ele>1577.2</ele>
        <time>2023-10-31T08:44:51Z</time>
      </trkpt>
      <trkpt lat="42.79612" lon="-0.02775">
        <ele>1577.4</ele>
        <time>2023-10-31T08:44:53Z</time>
      </trkpt>
      <trkpt lat="42.79613" lon="-0.02777">
        <ele>1577.6</ele>
        <time>2023-10-31T08:44:54Z</time>
      </trkpt>
      <trkpt lat="42.79613" lon="-0.02778">
        <ele>1577.7</ele>
        <time>2023-10-31T08:44:55Z</time>
      </trkpt>
      <trkpt lat="42.79613" lon="-0.0278">
        <ele>1577.8</ele>
        <time>2023-10-31T08:44:57Z</time>
      </trkpt>
      <trkpt lat="42.79614" lon="-0.0278">
        <ele>1577.8</ele>
        <time>2023-10-31T08:44:58Z</time>
      </trkpt>
      <trkpt lat="42.79615" lon="-0.02781">
        <ele>1578</ele>
        <time>2023-10-31T08:44:59Z</time>
      </trkpt>
      <trkpt lat="42.79616" lon="-0.02782">
        <ele>1578.1</ele>
        <time>2023-10-31T08:45:00Z</time>
      </trkpt>
      <trkpt lat="42.79616" lon="-0.02784">
        <ele>1578.2</ele>
        <time>2023-10-31T08:45:01Z</time>
      </trkpt>
      <trkpt lat="42.79617" lon="-0.02784">
        <ele>1578.3</ele>
        <time>2023-10-31T08:45:02Z</time>
      </trkpt>
      <trkpt lat="42.79617" lon="-0.02784">
        <ele>1578.3</ele>
        <time>2023-10-31T08:45:03Z</time>
      </trkpt>
      <trkpt lat="42.79618" lon="-0.02785">
        <ele>1578.4</ele>
        <time>2023-10-31T08:45:04Z</time>
      </trkpt>
      <trkpt lat="42.79618" lon="-0.02786">
        <ele>1578.5</ele>
        <time>2023-10-31T08:45:05Z</time>
      </trkpt>
      <trkpt lat="42.79619" lon="-0.02787">
        <ele>1578.6</ele>
        <time>2023-10-31T08:45:06Z</time>
      </trkpt>
      <trkpt lat="42.79619" lon="-0.02788">
        <ele>1578.6</ele>
        <time>2023-10-31T08:45:07Z</time>
      </trkpt>
      <trkpt lat="42.79619" lon="-0.02789">
        <ele>1578.7</ele>
        <time>2023-10-31T08:45:08Z</time>
      </trkpt>
      <trkpt lat="42.7962" lon="-0.02791">
        <ele>1578.8</ele>
        <time>2023-10-31T08:45:09Z</time>
      </trkpt>
      <trkpt lat="42.7962" lon="-0.02792">
        <ele>1579</ele>
        <time>2023-10-31T08:45:10Z</time>
      </trkpt>
      <trkpt lat="42.79621" lon="-0.02793">
        <ele>1579</ele>
        <time>2023-10-31T08:45:11Z</time>
      </trkpt>
      <trkpt lat="42.79621" lon="-0.02793">
        <ele>1579.1</ele>
        <time>2023-10-31T08:45:12Z</time>
      </trkpt>
      <trkpt lat="42.79622" lon="-0.02794">
        <ele>1579.2</ele>
        <time>2023-10-31T08:45:13Z</time>
      </trkpt>
      <trkpt lat="42.79623" lon="-0.02795">
        <ele>1579.3</ele>
        <time>2023-10-31T08:45:14Z</time>
      </trkpt>
      <trkpt lat="42.79623" lon="-0.02796">
        <ele>1579.4</ele>
        <time>2023-10-31T08:45:15Z</time>
      </trkpt>
      <trkpt lat="42.79623" lon="-0.02797">
        <ele>1579.5</ele>
        <time>2023-10-31T08:45:16Z</time>
      </trkpt>
      <trkpt lat="42.79624" lon="-0.02797">
        <ele>1579.5</ele>
        <time>2023-10-31T08:45:17Z</time>
      </trkpt>
      <trkpt lat="42.79624" lon="-0.02799">
        <ele>1579.7</ele>
        <time>2023-10-31T08:45:18Z</time>
      </trkpt>
      <trkpt lat="42.79625" lon="-0.02799">
        <ele>1579.8</ele>
        <time>2023-10-31T08:45:19Z</time>
      </trkpt>
      <trkpt lat="42.79626" lon="-0.028">
        <ele>1579.9</ele>
        <time>2023-10-31T08:45:20Z</time>
      </trkpt>
      <trkpt lat="42.79627" lon="-0.02801">
        <ele>1580</ele>
        <time>2023-10-31T08:45:21Z</time>
      </trkpt>
      <trkpt lat="42.79627" lon="-0.02801">
        <ele>1580.1</ele>
        <time>2023-10-31T08:45:22Z</time>
      </trkpt>
      <trkpt lat="42.79628" lon="-0.02801">
        <ele>1580.1</ele>
        <time>2023-10-31T08:45:23Z</time>
      </trkpt>
      <trkpt lat="42.79628" lon="-0.02802">
        <ele>1580.2</ele>
        <time>2023-10-31T08:45:24Z</time>
      </trkpt>
      <trkpt lat="42.79629" lon="-0.02802">
        <ele>1580.3</ele>
        <time>2023-10-31T08:45:25Z</time>
      </trkpt>
      <trkpt lat="42.7963" lon="-0.02803">
        <ele>1580.5</ele>
        <time>2023-10-31T08:45:26Z</time>
      </trkpt>
      <trkpt lat="42.79631" lon="-0.02803">
        <ele>1580.6</ele>
        <time>2023-10-31T08:45:27Z</time>
      </trkpt>
      <trkpt lat="42.79631" lon="-0.02805">
        <ele>1580.7</ele>
        <time>2023-10-31T08:45:28Z</time>
      </trkpt>
      <trkpt lat="42.79632" lon="-0.02805">
        <ele>1580.8</ele>
        <time>2023-10-31T08:45:29Z</time>
      </trkpt>
      <trkpt lat="42.79632" lon="-0.02807">
        <ele>1580.9</ele>
        <time>2023-10-31T08:45:30Z</time>
      </trkpt>
      <trkpt lat="42.79633" lon="-0.02808">
        <ele>1581.1</ele>
        <time>2023-10-31T08:45:31Z</time>
      </trkpt>
      <trkpt lat="42.79634" lon="-0.02809">
        <ele>1581.2</ele>
        <time>2023-10-31T08:45:32Z</time>
      </trkpt>
      <trkpt lat="42.79635" lon="-0.0281">
        <ele>1581.4</ele>
        <time>2023-10-31T08:45:33Z</time>
      </trkpt>
      <trkpt lat="42.79635" lon="-0.0281">
        <ele>1581.4</ele>
        <time>2023-10-31T08:45:34Z</time>
      </trkpt>
      <trkpt lat="42.79636" lon="-0.02812">
        <ele>1581.6</ele>
        <time>2023-10-31T08:45:35Z</time>
      </trkpt>
      <trkpt lat="42.79636" lon="-0.02814">
        <ele>1581.8</ele>
        <time>2023-10-31T08:45:36Z</time>
      </trkpt>
      <trkpt lat="42.79637" lon="-0.02814">
        <ele>1581.8</ele>
        <time>2023-10-31T08:45:37Z</time>
      </trkpt>
      <trkpt lat="42.79637" lon="-0.02815">
        <ele>1581.9</ele>
        <time>2023-10-31T08:45:38Z</time>
      </trkpt>
      <trkpt lat="42.79638" lon="-0.02816">
        <ele>1582.1</ele>
        <time>2023-10-31T08:45:39Z</time>
      </trkpt>
      <trkpt lat="42.79638" lon="-0.02816">
        <ele>1582.1</ele>
        <time>2023-10-31T08:45:40Z</time>
      </trkpt>
      <trkpt lat="42.79639" lon="-0.02818">
        <ele>1582.3</ele>
        <time>2023-10-31T08:45:41Z</time>
      </trkpt>
      <trkpt lat="42.79639" lon="-0.02818">
        <ele>1582.3</ele>
        <time>2023-10-31T08:45:42Z</time>
      </trkpt>
      <trkpt lat="42.7964" lon="-0.02819">
        <ele>1582.4</ele>
        <time>2023-10-31T08:45:43Z</time>
      </trkpt>
      <trkpt lat="42.7964" lon="-0.0282">
        <ele>1582.6</ele>
        <time>2023-10-31T08:45:44Z</time>
      </trkpt>
      <trkpt lat="42.7964" lon="-0.02821">
        <ele>1582.6</ele>
        <time>2023-10-31T08:45:45Z</time>
      </trkpt>
      <trkpt lat="42.79641" lon="-0.02822">
        <ele>1582.7</ele>
        <time>2023-10-31T08:45:46Z</time>
      </trkpt>
      <trkpt lat="42.79641" lon="-0.02823">
        <ele>1582.8</ele>
        <time>2023-10-31T08:45:47Z</time>
      </trkpt>
      <trkpt lat="42.79641" lon="-0.02824">
        <ele>1582.9</ele>
        <time>2023-10-31T08:45:48Z</time>
      </trkpt>
      <trkpt lat="42.7964" lon="-0.02825">
        <ele>1583</ele>
        <time>2023-10-31T08:45:49Z</time>
      </trkpt>
      <trkpt lat="42.79641" lon="-0.02825">
        <ele>1583</ele>
        <time>2023-10-31T08:45:50Z</time>
      </trkpt>
      <trkpt lat="42.79641" lon="-0.02825">
        <ele>1583</ele>
        <time>2023-10-31T08:45:51Z</time>
      </trkpt>
      <trkpt lat="42.79642" lon="-0.02826">
        <ele>1583.2</ele>
        <time>2023-10-31T08:45:52Z</time>
      </trkpt>
      <trkpt lat="42.79643" lon="-0.02828">
        <ele>1583.5</ele>
        <time>2023-10-31T08:45:53Z</time>
      </trkpt>
      <trkpt lat="42.79644" lon="-0.02829">
        <ele>1583.5</ele>
        <time>2023-10-31T08:45:54Z</time>
      </trkpt>
      <trkpt lat="42.79644" lon="-0.02829">
        <ele>1583.6</ele>
        <time>2023-10-31T08:45:55Z</time>
      </trkpt>
      <trkpt lat="42.79644" lon="-0.02829">
        <ele>1583.7</ele>
        <time>2023-10-31T08:45:56Z</time>
      </trkpt>
      <trkpt lat="42.79645" lon="-0.0283">
        <ele>1583.7</ele>
        <time>2023-10-31T08:45:57Z</time>
      </trkpt>
      <trkpt lat="42.79645" lon="-0.02832">
        <ele>1584</ele>
        <time>2023-10-31T08:45:58Z</time>
      </trkpt>
      <trkpt lat="42.79645" lon="-0.02833">
        <ele>1584.1</ele>
        <time>2023-10-31T08:45:59Z</time>
      </trkpt>
      <trkpt lat="42.79645" lon="-0.02834">
        <ele>1584.1</ele>
        <time>2023-10-31T08:46:00Z</time>
      </trkpt>
      <trkpt lat="42.79645" lon="-0.02835">
        <ele>1584.2</ele>
        <time>2023-10-31T08:46:01Z</time>
      </trkpt>
      <trkpt lat="42.79645" lon="-0.02836">
        <ele>1584.3</ele>
        <time>2023-10-31T08:46:02Z</time>
      </trkpt>
      <trkpt lat="42.79645" lon="-0.02839">
        <ele>1584.7</ele>
        <time>2023-10-31T08:46:03Z</time>
      </trkpt>
      <trkpt lat="42.79647" lon="-0.0284">
        <ele>1584.8</ele>
        <time>2023-10-31T08:46:04Z</time>
      </trkpt>
      <trkpt lat="42.79646" lon="-0.02841">
        <ele>1584.9</ele>
        <time>2023-10-31T08:46:05Z</time>
      </trkpt>
      <trkpt lat="42.79646" lon="-0.0284">
        <ele>1585</ele>
        <time>2023-10-31T08:46:06Z</time>
      </trkpt>
      <trkpt lat="42.79646" lon="-0.02843">
        <ele>1585.2</ele>
        <time>2023-10-31T08:46:07Z</time>
      </trkpt>
      <trkpt lat="42.79647" lon="-0.02844">
        <ele>1585.3</ele>
        <time>2023-10-31T08:46:08Z</time>
      </trkpt>
      <trkpt lat="42.79646" lon="-0.02844">
        <ele>1585.3</ele>
        <time>2023-10-31T08:46:09Z</time>
      </trkpt>
      <trkpt lat="42.79647" lon="-0.02844">
        <ele>1585.4</ele>
        <time>2023-10-31T08:46:10Z</time>
      </trkpt>
      <trkpt lat="42.79647" lon="-0.02845">
        <ele>1585.5</ele>
        <time>2023-10-31T08:46:11Z</time>
      </trkpt>
      <trkpt lat="42.79647" lon="-0.02846">
        <ele>1585.5</ele>
        <time>2023-10-31T08:46:12Z</time>
      </trkpt>
      <trkpt lat="42.79647" lon="-0.02846">
        <ele>1585.6</ele>
        <time>2023-10-31T08:46:13Z</time>
      </trkpt>
      <trkpt lat="42.79647" lon="-0.02847">
        <ele>1585.6</ele>
        <time>2023-10-31T08:46:14Z</time>
      </trkpt>
      <trkpt lat="42.79647" lon="-0.02847">
        <ele>1585.7</ele>
        <time>2023-10-31T08:46:15Z</time>
      </trkpt>
      <trkpt lat="42.79647" lon="-0.02848">
        <ele>1585.7</ele>
        <time>2023-10-31T08:46:16Z</time>
      </trkpt>
      <trkpt lat="42.79647" lon="-0.02849">
        <ele>1585.8</ele>
        <time>2023-10-31T08:46:17Z</time>
      </trkpt>
      <trkpt lat="42.79648" lon="-0.02851">
        <ele>1586</ele>
        <time>2023-10-31T08:46:18Z</time>
      </trkpt>
      <trkpt lat="42.79648" lon="-0.02853">
        <ele>1586.1</ele>
        <time>2023-10-31T08:46:19Z</time>
      </trkpt>
      <trkpt lat="42.79648" lon="-0.02854">
        <ele>1586.3</ele>
        <time>2023-10-31T08:46:20Z</time>
      </trkpt>
      <trkpt lat="42.79648" lon="-0.02856">
        <ele>1586.4</ele>
        <time>2023-10-31T08:46:21Z</time>
      </trkpt>
      <trkpt lat="42.79646" lon="-0.02856">
        <ele>1586.6</ele>
        <time>2023-10-31T08:46:22Z</time>
      </trkpt>
      <trkpt lat="42.79646" lon="-0.02856">
        <ele>1586.6</ele>
        <time>2023-10-31T08:46:23Z</time>
      </trkpt>
      <trkpt lat="42.79645" lon="-0.02855">
        <ele>1586.7</ele>
        <time>2023-10-31T08:46:24Z</time>
      </trkpt>
      <trkpt lat="42.79646" lon="-0.02857">
        <ele>1586.8</ele>
        <time>2023-10-31T08:46:25Z</time>
      </trkpt>
      <trkpt lat="42.79647" lon="-0.02857">
        <ele>1586.9</ele>
        <time>2023-10-31T08:46:26Z</time>
      </trkpt>
      <trkpt lat="42.79647" lon="-0.02858">
        <ele>1586.9</ele>
        <time>2023-10-31T08:46:27Z</time>
      </trkpt>
      <trkpt lat="42.79647" lon="-0.02857">
        <ele>1587</ele>
        <time>2023-10-31T08:46:28Z</time>
      </trkpt>
      <trkpt lat="42.79645" lon="-0.02856">
        <ele>1587.2</ele>
        <time>2023-10-31T08:46:29Z</time>
      </trkpt>
      <trkpt lat="42.79645" lon="-0.02856">
        <ele>1587.2</ele>
        <time>2023-10-31T08:46:30Z</time>
      </trkpt>
      <trkpt lat="42.79645" lon="-0.02857">
        <ele>1587.2</ele>
        <time>2023-10-31T08:46:31Z</time>
      </trkpt>
      <trkpt lat="42.79645" lon="-0.02857">
        <ele>1587.2</ele>
        <time>2023-10-31T08:46:32Z</time>
      </trkpt>
      <trkpt lat="42.79645" lon="-0.02857">
        <ele>1587.3</ele>
        <time>2023-10-31T08:46:33Z</time>
      </trkpt>
      <trkpt lat="42.79645" lon="-0.02858">
        <ele>1587.3</ele>
        <time>2023-10-31T08:46:34Z</time>
      </trkpt>
      <trkpt lat="42.79645" lon="-0.02858">
        <ele>1587.3</ele>
        <time>2023-10-31T08:46:35Z</time>
      </trkpt>
      <trkpt lat="42.79645" lon="-0.02858">
        <ele>1587.3</ele>
        <time>2023-10-31T08:46:36Z</time>
      </trkpt>
      <trkpt lat="42.79645" lon="-0.02858">
        <ele>1587.3</ele>
        <time>2023-10-31T08:46:37Z</time>
      </trkpt>
      <trkpt lat="42.79645" lon="-0.02859">
        <ele>1587.3</ele>
        <time>2023-10-31T08:46:38Z</time>
      </trkpt>
      <trkpt lat="42.79645" lon="-0.02859">
        <ele>1587.4</ele>
        <time>2023-10-31T08:46:39Z</time>
      </trkpt>
      <trkpt lat="42.79645" lon="-0.02859">
        <ele>1587.4</ele>
        <time>2023-10-31T08:46:40Z</time>
      </trkpt>
      <trkpt lat="42.79645" lon="-0.02859">
        <ele>1587.4</ele>
        <time>2023-10-31T08:46:41Z</time>
      </trkpt>
      <trkpt lat="42.79645" lon="-0.0286">
        <ele>1587.4</ele>
        <time>2023-10-31T08:46:42Z</time>
      </trkpt>
      <trkpt lat="42.79645" lon="-0.0286">
        <ele>1587.4</ele>
        <time>2023-10-31T08:46:43Z</time>
      </trkpt>
      <trkpt lat="42.79645" lon="-0.0286">
        <ele>1587.5</ele>
        <time>2023-10-31T08:46:44Z</time>
      </trkpt>
      <trkpt lat="42.79645" lon="-0.02861">
        <ele>1587.5</ele>
        <time>2023-10-31T08:46:45Z</time>
      </trkpt>
      <trkpt lat="42.79645" lon="-0.02861">
        <ele>1587.5</ele>
        <time>2023-10-31T08:46:46Z</time>
      </trkpt>
      <trkpt lat="42.79644" lon="-0.02861">
        <ele>1587.5</ele>
        <time>2023-10-31T08:46:47Z</time>
      </trkpt>
      <trkpt lat="42.79645" lon="-0.0286">
        <ele>1587.6</ele>
        <time>2023-10-31T08:46:48Z</time>
      </trkpt>
      <trkpt lat="42.79646" lon="-0.02859">
        <ele>1587.7</ele>
        <time>2023-10-31T08:46:49Z</time>
      </trkpt>
      <trkpt lat="42.79646" lon="-0.02859">
        <ele>1587.7</ele>
        <time>2023-10-31T08:46:50Z</time>
      </trkpt>
      <trkpt lat="42.79646" lon="-0.02859">
        <ele>1587.7</ele>
        <time>2023-10-31T08:46:51Z</time>
      </trkpt>
      <trkpt lat="42.79646" lon="-0.02859">
        <ele>1587.7</ele>
        <time>2023-10-31T08:46:52Z</time>
      </trkpt>
      <trkpt lat="42.79647" lon="-0.02859">
        <ele>1587.8</ele>
        <time>2023-10-31T08:46:53Z</time>
      </trkpt>
      <trkpt lat="42.79646" lon="-0.02858">
        <ele>1587.8</ele>
        <time>2023-10-31T08:46:54Z</time>
      </trkpt>
      <trkpt lat="42.79646" lon="-0.02858">
        <ele>1587.8</ele>
        <time>2023-10-31T08:46:55Z</time>
      </trkpt>
      <trkpt lat="42.79646" lon="-0.02858">
        <ele>1587.9</ele>
        <time>2023-10-31T08:46:56Z</time>
      </trkpt>
      <trkpt lat="42.79646" lon="-0.02858">
        <ele>1587.9</ele>
        <time>2023-10-31T08:46:57Z</time>
      </trkpt>
      <trkpt lat="42.79646" lon="-0.02858">
        <ele>1588</ele>
        <time>2023-10-31T08:46:58Z</time>
      </trkpt>
      <trkpt lat="42.79647" lon="-0.02858">
        <ele>1588</ele>
        <time>2023-10-31T08:46:59Z</time>
      </trkpt>
      <trkpt lat="42.79647" lon="-0.02858">
        <ele>1588</ele>
        <time>2023-10-31T08:47:00Z</time>
      </trkpt>
      <trkpt lat="42.79647" lon="-0.02858">
        <ele>1588</ele>
        <time>2023-10-31T08:47:01Z</time>
      </trkpt>
      <trkpt lat="42.79647" lon="-0.02859">
        <ele>1588.1</ele>
        <time>2023-10-31T08:47:02Z</time>
      </trkpt>
      <trkpt lat="42.79647" lon="-0.02859">
        <ele>1588.1</ele>
        <time>2023-10-31T08:47:03Z</time>
      </trkpt>
      <trkpt lat="42.79647" lon="-0.02855">
        <ele>1588.3</ele>
        <time>2023-10-31T08:47:04Z</time>
      </trkpt>
      <trkpt lat="42.79647" lon="-0.02858">
        <ele>1588.4</ele>
        <time>2023-10-31T08:47:05Z</time>
      </trkpt>
      <trkpt lat="42.79647" lon="-0.02858">
        <ele>1588.4</ele>
        <time>2023-10-31T08:47:06Z</time>
      </trkpt>
      <trkpt lat="42.79647" lon="-0.02857">
        <ele>1588.4</ele>
        <time>2023-10-31T08:47:07Z</time>
      </trkpt>
      <trkpt lat="42.79647" lon="-0.02858">
        <ele>1588.5</ele>
        <time>2023-10-31T08:47:08Z</time>
      </trkpt>
      <trkpt lat="42.79646" lon="-0.02858">
        <ele>1588.5</ele>
        <time>2023-10-31T08:47:09Z</time>
      </trkpt>
      <trkpt lat="42.79646" lon="-0.02858">
        <ele>1588.6</ele>
        <time>2023-10-31T08:47:10Z</time>
      </trkpt>
      <trkpt lat="42.79646" lon="-0.02858">
        <ele>1588.6</ele>
        <time>2023-10-31T08:47:11Z</time>
      </trkpt>
      <trkpt lat="42.79647" lon="-0.02858">
        <ele>1588.6</ele>
        <time>2023-10-31T08:47:12Z</time>
      </trkpt>
      <trkpt lat="42.79647" lon="-0.02858">
        <ele>1588.6</ele>
        <time>2023-10-31T08:47:13Z</time>
      </trkpt>
      <trkpt lat="42.79647" lon="-0.02858">
        <ele>1588.7</ele>
        <time>2023-10-31T08:47:14Z</time>
      </trkpt>
      <trkpt lat="42.79647" lon="-0.02858">
        <ele>1588.7</ele>
        <time>2023-10-31T08:47:15Z</time>
      </trkpt>
      <trkpt lat="42.79647" lon="-0.02858">
        <ele>1588.7</ele>
        <time>2023-10-31T08:47:16Z</time>
      </trkpt>
      <trkpt lat="42.79647" lon="-0.02859">
        <ele>1588.8</ele>
        <time>2023-10-31T08:47:17Z</time>
      </trkpt>
      <trkpt lat="42.79647" lon="-0.02859">
        <ele>1588.8</ele>
        <time>2023-10-31T08:47:18Z</time>
      </trkpt>
      <trkpt lat="42.79647" lon="-0.02859">
        <ele>1588.8</ele>
        <time>2023-10-31T08:47:19Z</time>
      </trkpt>
      <trkpt lat="42.79646" lon="-0.02858">
        <ele>1588.8</ele>
        <time>2023-10-31T08:47:20Z</time>
      </trkpt>
      <trkpt lat="42.79647" lon="-0.02859">
        <ele>1588.8</ele>
        <time>2023-10-31T08:47:21Z</time>
      </trkpt>
      <trkpt lat="42.79647" lon="-0.02855">
        <ele>1589.1</ele>
        <time>2023-10-31T08:47:22Z</time>
      </trkpt>
      <trkpt lat="42.79646" lon="-0.02856">
        <ele>1589.2</ele>
        <time>2023-10-31T08:47:23Z</time>
      </trkpt>
      <trkpt lat="42.79646" lon="-0.02857">
        <ele>1589.3</ele>
        <time>2023-10-31T08:47:24Z</time>
      </trkpt>
      <trkpt lat="42.79646" lon="-0.02858">
        <ele>1589.4</ele>
        <time>2023-10-31T08:47:25Z</time>
      </trkpt>
      <trkpt lat="42.79646" lon="-0.02858">
        <ele>1589.4</ele>
        <time>2023-10-31T08:47:26Z</time>
      </trkpt>
      <trkpt lat="42.79646" lon="-0.02858">
        <ele>1589.4</ele>
        <time>2023-10-31T08:47:27Z</time>
      </trkpt>
      <trkpt lat="42.79646" lon="-0.02858">
        <ele>1589.5</ele>
        <time>2023-10-31T08:47:28Z</time>
      </trkpt>
      <trkpt lat="42.79646" lon="-0.02857">
        <ele>1589.5</ele>
        <time>2023-10-31T08:47:29Z</time>
      </trkpt>
      <trkpt lat="42.79646" lon="-0.02857">
        <ele>1589.5</ele>
        <time>2023-10-31T08:47:30Z</time>
      </trkpt>
      <trkpt lat="42.79646" lon="-0.02856">
        <ele>1589.6</ele>
        <time>2023-10-31T08:47:31Z</time>
      </trkpt>
      <trkpt lat="42.79646" lon="-0.02856">
        <ele>1589.6</ele>
        <time>2023-10-31T08:47:32Z</time>
      </trkpt>
      <trkpt lat="42.79646" lon="-0.02856">
        <ele>1589.6</ele>
        <time>2023-10-31T08:47:33Z</time>
      </trkpt>
      <trkpt lat="42.79645" lon="-0.02855">
        <ele>1589.6</ele>
        <time>2023-10-31T08:47:34Z</time>
      </trkpt>
      <trkpt lat="42.79645" lon="-0.02855">
        <ele>1589.7</ele>
        <time>2023-10-31T08:47:35Z</time>
      </trkpt>
      <trkpt lat="42.79645" lon="-0.02854">
        <ele>1589.7</ele>
        <time>2023-10-31T08:47:36Z</time>
      </trkpt>
      <trkpt lat="42.79645" lon="-0.02854">
        <ele>1589.7</ele>
        <time>2023-10-31T08:47:37Z</time>
      </trkpt>
      <trkpt lat="42.79645" lon="-0.02854">
        <ele>1589.8</ele>
        <time>2023-10-31T08:47:38Z</time>
      </trkpt>
      <trkpt lat="42.79645" lon="-0.02853">
        <ele>1589.8</ele>
        <time>2023-10-31T08:47:39Z</time>
      </trkpt>
      <trkpt lat="42.79645" lon="-0.02853">
        <ele>1589.9</ele>
        <time>2023-10-31T08:47:40Z</time>
      </trkpt>
      <trkpt lat="42.79645" lon="-0.02852">
        <ele>1589.9</ele>
        <time>2023-10-31T08:47:41Z</time>
      </trkpt>
      <trkpt lat="42.79645" lon="-0.02852">
        <ele>1589.9</ele>
        <time>2023-10-31T08:47:42Z</time>
      </trkpt>
      <trkpt lat="42.79645" lon="-0.02853">
        <ele>1590</ele>
        <time>2023-10-31T08:47:43Z</time>
      </trkpt>
      <trkpt lat="42.79646" lon="-0.02854">
        <ele>1590.2</ele>
        <time>2023-10-31T08:47:44Z</time>
      </trkpt>
      <trkpt lat="42.79646" lon="-0.02855">
        <ele>1590.3</ele>
        <time>2023-10-31T08:47:45Z</time>
      </trkpt>
      <trkpt lat="42.79647" lon="-0.02855">
        <ele>1590.3</ele>
        <time>2023-10-31T08:47:46Z</time>
      </trkpt>
      <trkpt lat="42.79647" lon="-0.02855">
        <ele>1590.4</ele>
        <time>2023-10-31T08:47:47Z</time>
      </trkpt>
      <trkpt lat="42.79647" lon="-0.02855">
        <ele>1590.4</ele>
        <time>2023-10-31T08:47:48Z</time>
      </trkpt>
      <trkpt lat="42.79647" lon="-0.02855">
        <ele>1590.4</ele>
        <time>2023-10-31T08:47:49Z</time>
      </trkpt>
      <trkpt lat="42.79647" lon="-0.02855">
        <ele>1590.4</ele>
        <time>2023-10-31T08:47:50Z</time>
      </trkpt>
      <trkpt lat="42.79647" lon="-0.02855">
        <ele>1590.4</ele>
        <time>2023-10-31T08:47:51Z</time>
      </trkpt>
      <trkpt lat="42.79646" lon="-0.02855">
        <ele>1590.4</ele>
        <time>2023-10-31T08:47:52Z</time>
      </trkpt>
      <trkpt lat="42.79647" lon="-0.02855">
        <ele>1590.5</ele>
        <time>2023-10-31T08:47:53Z</time>
      </trkpt>
      <trkpt lat="42.79647" lon="-0.02855">
        <ele>1590.5</ele>
        <time>2023-10-31T08:47:54Z</time>
      </trkpt>
      <trkpt lat="42.79646" lon="-0.02852">
        <ele>1590.8</ele>
        <time>2023-10-31T08:47:55Z</time>
      </trkpt>
      <trkpt lat="42.79647" lon="-0.02854">
        <ele>1591</ele>
        <time>2023-10-31T08:47:56Z</time>
      </trkpt>
      <trkpt lat="42.79647" lon="-0.02854">
        <ele>1591</ele>
        <time>2023-10-31T08:47:57Z</time>
      </trkpt>
      <trkpt lat="42.79647" lon="-0.02854">
        <ele>1591</ele>
        <time>2023-10-31T08:47:58Z</time>
      </trkpt>
      <trkpt lat="42.79646" lon="-0.02855">
        <ele>1591.2</ele>
        <time>2023-10-31T08:47:59Z</time>
      </trkpt>
      <trkpt lat="42.79646" lon="-0.02855">
        <ele>1591.2</ele>
        <time>2023-10-31T08:48:00Z</time>
      </trkpt>
      <trkpt lat="42.79646" lon="-0.02855">
        <ele>1591.2</ele>
        <time>2023-10-31T08:48:01Z</time>
      </trkpt>
      <trkpt lat="42.79646" lon="-0.02855">
        <ele>1591.2</ele>
        <time>2023-10-31T08:48:02Z</time>
      </trkpt>
      <trkpt lat="42.79646" lon="-0.02855">
        <ele>1591.3</ele>
        <time>2023-10-31T08:48:03Z</time>
      </trkpt>
      <trkpt lat="42.79646" lon="-0.02856">
        <ele>1591.4</ele>
        <time>2023-10-31T08:48:04Z</time>
      </trkpt>
      <trkpt lat="42.79646" lon="-0.02856">
        <ele>1591.5</ele>
        <time>2023-10-31T08:48:05Z</time>
      </trkpt>
      <trkpt lat="42.79647" lon="-0.02856">
        <ele>1591.5</ele>
        <time>2023-10-31T08:48:06Z</time>
      </trkpt>
      <trkpt lat="42.79646" lon="-0.02857">
        <ele>1591.6</ele>
        <time>2023-10-31T08:48:07Z</time>
      </trkpt>
      <trkpt lat="42.79647" lon="-0.02857">
        <ele>1591.6</ele>
        <time>2023-10-31T08:48:08Z</time>
      </trkpt>
      <trkpt lat="42.79647" lon="-0.02855">
        <ele>1591.9</ele>
        <time>2023-10-31T08:48:09Z</time>
      </trkpt>
      <trkpt lat="42.79647" lon="-0.02856">
        <ele>1592</ele>
        <time>2023-10-31T08:48:10Z</time>
      </trkpt>
      <trkpt lat="42.79647" lon="-0.02857">
        <ele>1592.2</ele>
        <time>2023-10-31T08:48:11Z</time>
      </trkpt>
      <trkpt lat="42.79647" lon="-0.02858">
        <ele>1592.3</ele>
        <time>2023-10-31T08:48:12Z</time>
      </trkpt>
      <trkpt lat="42.79647" lon="-0.02858">
        <ele>1592.3</ele>
        <time>2023-10-31T08:48:13Z</time>
      </trkpt>
      <trkpt lat="42.79647" lon="-0.02858">
        <ele>1592.4</ele>
        <time>2023-10-31T08:48:14Z</time>
      </trkpt>
      <trkpt lat="42.79647" lon="-0.02859">
        <ele>1592.5</ele>
        <time>2023-10-31T08:48:15Z</time>
      </trkpt>
      <trkpt lat="42.79647" lon="-0.02859">
        <ele>1592.6</ele>
        <time>2023-10-31T08:48:16Z</time>
      </trkpt>
      <trkpt lat="42.79647" lon="-0.02859">
        <ele>1592.6</ele>
        <time>2023-10-31T08:48:17Z</time>
      </trkpt>
      <trkpt lat="42.79647" lon="-0.02859">
        <ele>1592.6</ele>
        <time>2023-10-31T08:48:18Z</time>
      </trkpt>
      <trkpt lat="42.79647" lon="-0.02859">
        <ele>1592.6</ele>
        <time>2023-10-31T08:48:19Z</time>
      </trkpt>
      <trkpt lat="42.79647" lon="-0.02859">
        <ele>1592.6</ele>
        <time>2023-10-31T08:48:20Z</time>
      </trkpt>
      <trkpt lat="42.79647" lon="-0.02859">
        <ele>1592.6</ele>
        <time>2023-10-31T08:48:21Z</time>
      </trkpt>
      <trkpt lat="42.79647" lon="-0.02859">
        <ele>1592.6</ele>
        <time>2023-10-31T08:48:22Z</time>
      </trkpt>
      <trkpt lat="42.79647" lon="-0.02859">
        <ele>1592.6</ele>
        <time>2023-10-31T08:48:23Z</time>
      </trkpt>
      <trkpt lat="42.79647" lon="-0.02859">
        <ele>1592.6</ele>
        <time>2023-10-31T08:48:24Z</time>
      </trkpt>
      <trkpt lat="42.79646" lon="-0.0286">
        <ele>1592.9</ele>
        <time>2023-10-31T08:48:25Z</time>
      </trkpt>
      <trkpt lat="42.79646" lon="-0.02861">
        <ele>1593</ele>
        <time>2023-10-31T08:48:26Z</time>
      </trkpt>
      <trkpt lat="42.79647" lon="-0.02861">
        <ele>1593.1</ele>
        <time>2023-10-31T08:48:27Z</time>
      </trkpt>
      <trkpt lat="42.79648" lon="-0.02862">
        <ele>1593.3</ele>
        <time>2023-10-31T08:48:28Z</time>
      </trkpt>
      <trkpt lat="42.79648" lon="-0.02862">
        <ele>1593.4</ele>
        <time>2023-10-31T08:48:29Z</time>
      </trkpt>
      <trkpt lat="42.79648" lon="-0.02863">
        <ele>1593.5</ele>
        <time>2023-10-31T08:48:30Z</time>
      </trkpt>
      <trkpt lat="42.79648" lon="-0.02864">
        <ele>1593.6</ele>
        <time>2023-10-31T08:48:31Z</time>
      </trkpt>
      <trkpt lat="42.79649" lon="-0.02864">
        <ele>1593.7</ele>
        <time>2023-10-31T08:48:32Z</time>
      </trkpt>
      <trkpt lat="42.79649" lon="-0.02864">
        <ele>1593.8</ele>
        <time>2023-10-31T08:48:33Z</time>
      </trkpt>
      <trkpt lat="42.7965" lon="-0.02865">
        <ele>1593.9</ele>
        <time>2023-10-31T08:48:34Z</time>
      </trkpt>
      <trkpt lat="42.7965" lon="-0.02865">
        <ele>1594</ele>
        <time>2023-10-31T08:48:35Z</time>
      </trkpt>
      <trkpt lat="42.79651" lon="-0.02865">
        <ele>1594.1</ele>
        <time>2023-10-31T08:48:36Z</time>
      </trkpt>
      <trkpt lat="42.79651" lon="-0.02865">
        <ele>1594.2</ele>
        <time>2023-10-31T08:48:37Z</time>
      </trkpt>
      <trkpt lat="42.79651" lon="-0.02866">
        <ele>1594.3</ele>
        <time>2023-10-31T08:48:38Z</time>
      </trkpt>
      <trkpt lat="42.79651" lon="-0.02867">
        <ele>1594.5</ele>
        <time>2023-10-31T08:48:39Z</time>
      </trkpt>
      <trkpt lat="42.79652" lon="-0.02867">
        <ele>1594.7</ele>
        <time>2023-10-31T08:48:40Z</time>
      </trkpt>
      <trkpt lat="42.79653" lon="-0.02867">
        <ele>1594.8</ele>
        <time>2023-10-31T08:48:41Z</time>
      </trkpt>
      <trkpt lat="42.79654" lon="-0.02868">
        <ele>1595</ele>
        <time>2023-10-31T08:48:42Z</time>
      </trkpt>
      <trkpt lat="42.79654" lon="-0.02868">
        <ele>1595.1</ele>
        <time>2023-10-31T08:48:43Z</time>
      </trkpt>
      <trkpt lat="42.79654" lon="-0.02868">
        <ele>1595.2</ele>
        <time>2023-10-31T08:48:44Z</time>
      </trkpt>
      <trkpt lat="42.79655" lon="-0.02868">
        <ele>1595.3</ele>
        <time>2023-10-31T08:48:45Z</time>
      </trkpt>
      <trkpt lat="42.79656" lon="-0.02869">
        <ele>1595.6</ele>
        <time>2023-10-31T08:48:46Z</time>
      </trkpt>
      <trkpt lat="42.79657" lon="-0.02869">
        <ele>1595.8</ele>
        <time>2023-10-31T08:48:47Z</time>
      </trkpt>
      <trkpt lat="42.79656" lon="-0.0287">
        <ele>1596</ele>
        <time>2023-10-31T08:48:48Z</time>
      </trkpt>
      <trkpt lat="42.79657" lon="-0.02871">
        <ele>1596.2</ele>
        <time>2023-10-31T08:48:49Z</time>
      </trkpt>
      <trkpt lat="42.79657" lon="-0.02871">
        <ele>1596.3</ele>
        <time>2023-10-31T08:48:50Z</time>
      </trkpt>
      <trkpt lat="42.79658" lon="-0.02871">
        <ele>1596.4</ele>
        <time>2023-10-31T08:48:51Z</time>
      </trkpt>
      <trkpt lat="42.79658" lon="-0.02872">
        <ele>1596.5</ele>
        <time>2023-10-31T08:48:52Z</time>
      </trkpt>
      <trkpt lat="42.79659" lon="-0.02872">
        <ele>1596.7</ele>
        <time>2023-10-31T08:48:53Z</time>
      </trkpt>
      <trkpt lat="42.79659" lon="-0.02872">
        <ele>1596.8</ele>
        <time>2023-10-31T08:48:54Z</time>
      </trkpt>
      <trkpt lat="42.79661" lon="-0.02874">
        <ele>1597.1</ele>
        <time>2023-10-31T08:48:55Z</time>
      </trkpt>
      <trkpt lat="42.79661" lon="-0.02873">
        <ele>1597.2</ele>
        <time>2023-10-31T08:48:56Z</time>
      </trkpt>
      <trkpt lat="42.79661" lon="-0.02873">
        <ele>1597.4</ele>
        <time>2023-10-31T08:48:57Z</time>
      </trkpt>
      <trkpt lat="42.79661" lon="-0.02873">
        <ele>1597.5</ele>
        <time>2023-10-31T08:48:58Z</time>
      </trkpt>
      <trkpt lat="42.79662" lon="-0.02874">
        <ele>1597.7</ele>
        <time>2023-10-31T08:48:59Z</time>
      </trkpt>
      <trkpt lat="42.79662" lon="-0.02875">
        <ele>1598</ele>
        <time>2023-10-31T08:49:00Z</time>
      </trkpt>
      <trkpt lat="42.79662" lon="-0.02876">
        <ele>1598.1</ele>
        <time>2023-10-31T08:49:01Z</time>
      </trkpt>
      <trkpt lat="42.79663" lon="-0.02876">
        <ele>1598.3</ele>
        <time>2023-10-31T08:49:02Z</time>
      </trkpt>
      <trkpt lat="42.79662" lon="-0.02875">
        <ele>1598.5</ele>
        <time>2023-10-31T08:49:03Z</time>
      </trkpt>
      <trkpt lat="42.79662" lon="-0.02876">
        <ele>1598.6</ele>
        <time>2023-10-31T08:49:04Z</time>
      </trkpt>
      <trkpt lat="42.79663" lon="-0.02877">
        <ele>1598.8</ele>
        <time>2023-10-31T08:49:06Z</time>
      </trkpt>
      <trkpt lat="42.79663" lon="-0.02876">
        <ele>1598.9</ele>
        <time>2023-10-31T08:49:07Z</time>
      </trkpt>
      <trkpt lat="42.79663" lon="-0.02877">
        <ele>1599</ele>
        <time>2023-10-31T08:49:08Z</time>
      </trkpt>
      <trkpt lat="42.79663" lon="-0.02878">
        <ele>1599.2</ele>
        <time>2023-10-31T08:49:09Z</time>
      </trkpt>
      <trkpt lat="42.79664" lon="-0.02879">
        <ele>1599.5</ele>
        <time>2023-10-31T08:49:10Z</time>
      </trkpt>
      <trkpt lat="42.79664" lon="-0.0288">
        <ele>1599.7</ele>
        <time>2023-10-31T08:49:11Z</time>
      </trkpt>
      <trkpt lat="42.79664" lon="-0.02881">
        <ele>1599.8</ele>
        <time>2023-10-31T08:49:12Z</time>
      </trkpt>
      <trkpt lat="42.79664" lon="-0.02882">
        <ele>1600.1</ele>
        <time>2023-10-31T08:49:13Z</time>
      </trkpt>
      <trkpt lat="42.79665" lon="-0.02884">
        <ele>1600.3</ele>
        <time>2023-10-31T08:49:14Z</time>
      </trkpt>
      <trkpt lat="42.79666" lon="-0.02884">
        <ele>1600.5</ele>
        <time>2023-10-31T08:49:15Z</time>
      </trkpt>
      <trkpt lat="42.79665" lon="-0.02885">
        <ele>1600.7</ele>
        <time>2023-10-31T08:49:16Z</time>
      </trkpt>
      <trkpt lat="42.79666" lon="-0.02886">
        <ele>1600.9</ele>
        <time>2023-10-31T08:49:17Z</time>
      </trkpt>
      <trkpt lat="42.79667" lon="-0.02887">
        <ele>1601.2</ele>
        <time>2023-10-31T08:49:18Z</time>
      </trkpt>
      <trkpt lat="42.79668" lon="-0.02887">
        <ele>1601.4</ele>
        <time>2023-10-31T08:49:19Z</time>
      </trkpt>
      <trkpt lat="42.79669" lon="-0.02889">
        <ele>1601.7</ele>
        <time>2023-10-31T08:49:20Z</time>
      </trkpt>
      <trkpt lat="42.79669" lon="-0.0289">
        <ele>1601.9</ele>
        <time>2023-10-31T08:49:21Z</time>
      </trkpt>
      <trkpt lat="42.79669" lon="-0.02891">
        <ele>1602.1</ele>
        <time>2023-10-31T08:49:22Z</time>
      </trkpt>
      <trkpt lat="42.79669" lon="-0.02892">
        <ele>1602.2</ele>
        <time>2023-10-31T08:49:23Z</time>
      </trkpt>
      <trkpt lat="42.79669" lon="-0.02892">
        <ele>1602.4</ele>
        <time>2023-10-31T08:49:24Z</time>
      </trkpt>
      <trkpt lat="42.79669" lon="-0.02894">
        <ele>1602.7</ele>
        <time>2023-10-31T08:49:25Z</time>
      </trkpt>
      <trkpt lat="42.79669" lon="-0.02893">
        <ele>1602.9</ele>
        <time>2023-10-31T08:49:26Z</time>
      </trkpt>
      <trkpt lat="42.79669" lon="-0.02892">
        <ele>1603.1</ele>
        <time>2023-10-31T08:49:27Z</time>
      </trkpt>
      <trkpt lat="42.79669" lon="-0.02893">
        <ele>1603.4</ele>
        <time>2023-10-31T08:49:28Z</time>
      </trkpt>
      <trkpt lat="42.79669" lon="-0.02894">
        <ele>1603.6</ele>
        <time>2023-10-31T08:49:29Z</time>
      </trkpt>
      <trkpt lat="42.7967" lon="-0.02896">
        <ele>1603.8</ele>
        <time>2023-10-31T08:49:30Z</time>
      </trkpt>
      <trkpt lat="42.7967" lon="-0.02896">
        <ele>1603.9</ele>
        <time>2023-10-31T08:49:31Z</time>
      </trkpt>
      <trkpt lat="42.7967" lon="-0.02897">
        <ele>1604</ele>
        <time>2023-10-31T08:49:32Z</time>
      </trkpt>
      <trkpt lat="42.7967" lon="-0.02897">
        <ele>1604.2</ele>
        <time>2023-10-31T08:49:33Z</time>
      </trkpt>
      <trkpt lat="42.79671" lon="-0.02898">
        <ele>1604.3</ele>
        <time>2023-10-31T08:49:34Z</time>
      </trkpt>
      <trkpt lat="42.79672" lon="-0.02899">
        <ele>1604.7</ele>
        <time>2023-10-31T08:49:35Z</time>
      </trkpt>
      <trkpt lat="42.79673" lon="-0.029">
        <ele>1604.9</ele>
        <time>2023-10-31T08:49:36Z</time>
      </trkpt>
      <trkpt lat="42.79674" lon="-0.02902">
        <ele>1605.2</ele>
        <time>2023-10-31T08:49:37Z</time>
      </trkpt>
      <trkpt lat="42.79674" lon="-0.02902">
        <ele>1605.3</ele>
        <time>2023-10-31T08:49:38Z</time>
      </trkpt>
      <trkpt lat="42.79674" lon="-0.02904">
        <ele>1605.5</ele>
        <time>2023-10-31T08:49:39Z</time>
      </trkpt>
      <trkpt lat="42.79674" lon="-0.02904">
        <ele>1605.6</ele>
        <time>2023-10-31T08:49:40Z</time>
      </trkpt>
      <trkpt lat="42.79674" lon="-0.02903">
        <ele>1605.7</ele>
        <time>2023-10-31T08:49:41Z</time>
      </trkpt>
      <trkpt lat="42.79675" lon="-0.02904">
        <ele>1605.9</ele>
        <time>2023-10-31T08:49:42Z</time>
      </trkpt>
      <trkpt lat="42.79674" lon="-0.02904">
        <ele>1606</ele>
        <time>2023-10-31T08:49:43Z</time>
      </trkpt>
      <trkpt lat="42.79674" lon="-0.02906">
        <ele>1606.2</ele>
        <time>2023-10-31T08:49:44Z</time>
      </trkpt>
      <trkpt lat="42.79673" lon="-0.02905">
        <ele>1606.5</ele>
        <time>2023-10-31T08:49:45Z</time>
      </trkpt>
      <trkpt lat="42.79673" lon="-0.02907">
        <ele>1606.8</ele>
        <time>2023-10-31T08:49:46Z</time>
      </trkpt>
      <trkpt lat="42.79673" lon="-0.02909">
        <ele>1607.1</ele>
        <time>2023-10-31T08:49:47Z</time>
      </trkpt>
      <trkpt lat="42.79674" lon="-0.02909">
        <ele>1607.3</ele>
        <time>2023-10-31T08:49:48Z</time>
      </trkpt>
      <trkpt lat="42.79676" lon="-0.0291">
        <ele>1607.7</ele>
        <time>2023-10-31T08:49:49Z</time>
      </trkpt>
      <trkpt lat="42.79676" lon="-0.02911">
        <ele>1607.8</ele>
        <time>2023-10-31T08:49:50Z</time>
      </trkpt>
      <trkpt lat="42.79677" lon="-0.0291">
        <ele>1607.8</ele>
        <time>2023-10-31T08:49:51Z</time>
      </trkpt>
      <trkpt lat="42.79677" lon="-0.02911">
        <ele>1607.9</ele>
        <time>2023-10-31T08:49:52Z</time>
      </trkpt>
      <trkpt lat="42.79679" lon="-0.02912">
        <ele>1608.3</ele>
        <time>2023-10-31T08:49:53Z</time>
      </trkpt>
      <trkpt lat="42.79679" lon="-0.02914">
        <ele>1608.4</ele>
        <time>2023-10-31T08:49:54Z</time>
      </trkpt>
      <trkpt lat="42.7968" lon="-0.02914">
        <ele>1608.6</ele>
        <time>2023-10-31T08:49:55Z</time>
      </trkpt>
      <trkpt lat="42.79681" lon="-0.02915">
        <ele>1608.8</ele>
        <time>2023-10-31T08:49:56Z</time>
      </trkpt>
      <trkpt lat="42.79681" lon="-0.02915">
        <ele>1608.8</ele>
        <time>2023-10-31T08:49:57Z</time>
      </trkpt>
      <trkpt lat="42.79682" lon="-0.02915">
        <ele>1608.9</ele>
        <time>2023-10-31T08:49:58Z</time>
      </trkpt>
      <trkpt lat="42.79683" lon="-0.02917">
        <ele>1609.2</ele>
        <time>2023-10-31T08:49:59Z</time>
      </trkpt>
      <trkpt lat="42.79685" lon="-0.02916">
        <ele>1609.4</ele>
        <time>2023-10-31T08:50:00Z</time>
      </trkpt>
      <trkpt lat="42.79685" lon="-0.02917">
        <ele>1609.5</ele>
        <time>2023-10-31T08:50:01Z</time>
      </trkpt>
      <trkpt lat="42.79685" lon="-0.02917">
        <ele>1609.5</ele>
        <time>2023-10-31T08:50:02Z</time>
      </trkpt>
      <trkpt lat="42.79685" lon="-0.02917">
        <ele>1609.6</ele>
        <time>2023-10-31T08:50:03Z</time>
      </trkpt>
      <trkpt lat="42.79685" lon="-0.02918">
        <ele>1609.6</ele>
        <time>2023-10-31T08:50:04Z</time>
      </trkpt>
      <trkpt lat="42.79687" lon="-0.02918">
        <ele>1609.9</ele>
        <time>2023-10-31T08:50:05Z</time>
      </trkpt>
      <trkpt lat="42.79688" lon="-0.02919">
        <ele>1610</ele>
        <time>2023-10-31T08:50:06Z</time>
      </trkpt>
      <trkpt lat="42.79687" lon="-0.0292">
        <ele>1610.1</ele>
        <time>2023-10-31T08:50:07Z</time>
      </trkpt>
      <trkpt lat="42.79688" lon="-0.02921">
        <ele>1610.3</ele>
        <time>2023-10-31T08:50:08Z</time>
      </trkpt>
      <trkpt lat="42.79688" lon="-0.02922">
        <ele>1610.4</ele>
        <time>2023-10-31T08:50:09Z</time>
      </trkpt>
      <trkpt lat="42.79688" lon="-0.02922">
        <ele>1610.4</ele>
        <time>2023-10-31T08:50:10Z</time>
      </trkpt>
      <trkpt lat="42.79689" lon="-0.02923">
        <ele>1610.6</ele>
        <time>2023-10-31T08:50:11Z</time>
      </trkpt>
      <trkpt lat="42.79689" lon="-0.02924">
        <ele>1610.7</ele>
        <time>2023-10-31T08:50:12Z</time>
      </trkpt>
      <trkpt lat="42.7969" lon="-0.02925">
        <ele>1610.8</ele>
        <time>2023-10-31T08:50:13Z</time>
      </trkpt>
      <trkpt lat="42.7969" lon="-0.02926">
        <ele>1610.9</ele>
        <time>2023-10-31T08:50:14Z</time>
      </trkpt>
      <trkpt lat="42.79691" lon="-0.02927">
        <ele>1611</ele>
        <time>2023-10-31T08:50:15Z</time>
      </trkpt>
      <trkpt lat="42.79691" lon="-0.02927">
        <ele>1611.1</ele>
        <time>2023-10-31T08:50:16Z</time>
      </trkpt>
      <trkpt lat="42.79691" lon="-0.02928">
        <ele>1611.2</ele>
        <time>2023-10-31T08:50:17Z</time>
      </trkpt>
      <trkpt lat="42.79692" lon="-0.0293">
        <ele>1611.4</ele>
        <time>2023-10-31T08:50:18Z</time>
      </trkpt>
      <trkpt lat="42.79692" lon="-0.02931">
        <ele>1611.5</ele>
        <time>2023-10-31T08:50:19Z</time>
      </trkpt>
      <trkpt lat="42.79693" lon="-0.02931">
        <ele>1611.5</ele>
        <time>2023-10-31T08:50:20Z</time>
      </trkpt>
      <trkpt lat="42.79693" lon="-0.02932">
        <ele>1611.6</ele>
        <time>2023-10-31T08:50:21Z</time>
      </trkpt>
      <trkpt lat="42.79693" lon="-0.02933">
        <ele>1611.7</ele>
        <time>2023-10-31T08:50:22Z</time>
      </trkpt>
      <trkpt lat="42.79694" lon="-0.02933">
        <ele>1611.8</ele>
        <time>2023-10-31T08:50:23Z</time>
      </trkpt>
      <trkpt lat="42.79693" lon="-0.02934">
        <ele>1611.8</ele>
        <time>2023-10-31T08:50:24Z</time>
      </trkpt>
      <trkpt lat="42.79694" lon="-0.02934">
        <ele>1611.9</ele>
        <time>2023-10-31T08:50:25Z</time>
      </trkpt>
      <trkpt lat="42.79695" lon="-0.02934">
        <ele>1612</ele>
        <time>2023-10-31T08:50:26Z</time>
      </trkpt>
      <trkpt lat="42.79696" lon="-0.02935">
        <ele>1612.2</ele>
        <time>2023-10-31T08:50:27Z</time>
      </trkpt>
      <trkpt lat="42.79696" lon="-0.02935">
        <ele>1612.3</ele>
        <time>2023-10-31T08:50:28Z</time>
      </trkpt>
      <trkpt lat="42.79696" lon="-0.02935">
        <ele>1612.3</ele>
        <time>2023-10-31T08:50:29Z</time>
      </trkpt>
      <trkpt lat="42.79696" lon="-0.02937">
        <ele>1612.5</ele>
        <time>2023-10-31T08:50:30Z</time>
      </trkpt>
      <trkpt lat="42.79697" lon="-0.02937">
        <ele>1612.6</ele>
        <time>2023-10-31T08:50:31Z</time>
      </trkpt>
      <trkpt lat="42.79697" lon="-0.02938">
        <ele>1612.7</ele>
        <time>2023-10-31T08:50:32Z</time>
      </trkpt>
      <trkpt lat="42.79698" lon="-0.02939">
        <ele>1612.8</ele>
        <time>2023-10-31T08:50:33Z</time>
      </trkpt>
      <trkpt lat="42.79698" lon="-0.0294">
        <ele>1612.9</ele>
        <time>2023-10-31T08:50:34Z</time>
      </trkpt>
      <trkpt lat="42.79698" lon="-0.02941">
        <ele>1613</ele>
        <time>2023-10-31T08:50:35Z</time>
      </trkpt>
      <trkpt lat="42.79699" lon="-0.02941">
        <ele>1613.1</ele>
        <time>2023-10-31T08:50:36Z</time>
      </trkpt>
      <trkpt lat="42.79699" lon="-0.02942">
        <ele>1613.2</ele>
        <time>2023-10-31T08:50:37Z</time>
      </trkpt>
      <trkpt lat="42.797" lon="-0.02943">
        <ele>1613.3</ele>
        <time>2023-10-31T08:50:38Z</time>
      </trkpt>
      <trkpt lat="42.797" lon="-0.02943">
        <ele>1613.4</ele>
        <time>2023-10-31T08:50:39Z</time>
      </trkpt>
      <trkpt lat="42.79701" lon="-0.02944">
        <ele>1613.5</ele>
        <time>2023-10-31T08:50:40Z</time>
      </trkpt>
      <trkpt lat="42.79702" lon="-0.02944">
        <ele>1613.6</ele>
        <time>2023-10-31T08:50:41Z</time>
      </trkpt>
      <trkpt lat="42.79703" lon="-0.02945">
        <ele>1613.7</ele>
        <time>2023-10-31T08:50:42Z</time>
      </trkpt>
      <trkpt lat="42.79703" lon="-0.02946">
        <ele>1613.9</ele>
        <time>2023-10-31T08:50:43Z</time>
      </trkpt>
      <trkpt lat="42.79703" lon="-0.02947">
        <ele>1614</ele>
        <time>2023-10-31T08:50:44Z</time>
      </trkpt>
      <trkpt lat="42.79704" lon="-0.02948">
        <ele>1614.1</ele>
        <time>2023-10-31T08:50:45Z</time>
      </trkpt>
      <trkpt lat="42.79705" lon="-0.02948">
        <ele>1614.2</ele>
        <time>2023-10-31T08:50:46Z</time>
      </trkpt>
      <trkpt lat="42.79706" lon="-0.02949">
        <ele>1614.4</ele>
        <time>2023-10-31T08:50:47Z</time>
      </trkpt>
      <trkpt lat="42.79707" lon="-0.0295">
        <ele>1614.5</ele>
        <time>2023-10-31T08:50:48Z</time>
      </trkpt>
      <trkpt lat="42.79706" lon="-0.02949">
        <ele>1614.6</ele>
        <time>2023-10-31T08:50:49Z</time>
      </trkpt>
      <trkpt lat="42.79707" lon="-0.0295">
        <ele>1614.8</ele>
        <time>2023-10-31T08:50:50Z</time>
      </trkpt>
      <trkpt lat="42.79708" lon="-0.0295">
        <ele>1614.9</ele>
        <time>2023-10-31T08:50:51Z</time>
      </trkpt>
      <trkpt lat="42.79709" lon="-0.02951">
        <ele>1615</ele>
        <time>2023-10-31T08:50:52Z</time>
      </trkpt>
      <trkpt lat="42.7971" lon="-0.02952">
        <ele>1615.3</ele>
        <time>2023-10-31T08:50:53Z</time>
      </trkpt>
      <trkpt lat="42.79711" lon="-0.02953">
        <ele>1615.4</ele>
        <time>2023-10-31T08:50:54Z</time>
      </trkpt>
      <trkpt lat="42.79711" lon="-0.02953">
        <ele>1615.4</ele>
        <time>2023-10-31T08:50:55Z</time>
      </trkpt>
      <trkpt lat="42.79711" lon="-0.02954">
        <ele>1615.5</ele>
        <time>2023-10-31T08:50:56Z</time>
      </trkpt>
      <trkpt lat="42.79712" lon="-0.02955">
        <ele>1615.6</ele>
        <time>2023-10-31T08:50:57Z</time>
      </trkpt>
      <trkpt lat="42.79712" lon="-0.02956">
        <ele>1615.7</ele>
        <time>2023-10-31T08:50:58Z</time>
      </trkpt>
      <trkpt lat="42.79712" lon="-0.02956">
        <ele>1615.8</ele>
        <time>2023-10-31T08:50:59Z</time>
      </trkpt>
      <trkpt lat="42.79713" lon="-0.02956">
        <ele>1615.9</ele>
        <time>2023-10-31T08:51:00Z</time>
      </trkpt>
      <trkpt lat="42.79714" lon="-0.02957">
        <ele>1616</ele>
        <time>2023-10-31T08:51:01Z</time>
      </trkpt>
      <trkpt lat="42.79714" lon="-0.02957">
        <ele>1616.1</ele>
        <time>2023-10-31T08:51:02Z</time>
      </trkpt>
      <trkpt lat="42.79715" lon="-0.02957">
        <ele>1616.2</ele>
        <time>2023-10-31T08:51:03Z</time>
      </trkpt>
      <trkpt lat="42.79716" lon="-0.02957">
        <ele>1616.3</ele>
        <time>2023-10-31T08:51:04Z</time>
      </trkpt>
      <trkpt lat="42.79716" lon="-0.02957">
        <ele>1616.4</ele>
        <time>2023-10-31T08:51:05Z</time>
      </trkpt>
      <trkpt lat="42.79717" lon="-0.02958">
        <ele>1616.5</ele>
        <time>2023-10-31T08:51:06Z</time>
      </trkpt>
      <trkpt lat="42.79718" lon="-0.02958">
        <ele>1616.6</ele>
        <time>2023-10-31T08:51:07Z</time>
      </trkpt>
      <trkpt lat="42.79718" lon="-0.02959">
        <ele>1616.8</ele>
        <time>2023-10-31T08:51:08Z</time>
      </trkpt>
      <trkpt lat="42.79719" lon="-0.0296">
        <ele>1616.9</ele>
        <time>2023-10-31T08:51:09Z</time>
      </trkpt>
      <trkpt lat="42.7972" lon="-0.0296">
        <ele>1617</ele>
        <time>2023-10-31T08:51:10Z</time>
      </trkpt>
      <trkpt lat="42.79721" lon="-0.0296">
        <ele>1617.1</ele>
        <time>2023-10-31T08:51:11Z</time>
      </trkpt>
      <trkpt lat="42.79722" lon="-0.02961">
        <ele>1617.3</ele>
        <time>2023-10-31T08:51:12Z</time>
      </trkpt>
      <trkpt lat="42.79722" lon="-0.02962">
        <ele>1617.4</ele>
        <time>2023-10-31T08:51:13Z</time>
      </trkpt>
      <trkpt lat="42.79723" lon="-0.02963">
        <ele>1617.5</ele>
        <time>2023-10-31T08:51:14Z</time>
      </trkpt>
      <trkpt lat="42.79723" lon="-0.02964">
        <ele>1617.6</ele>
        <time>2023-10-31T08:51:15Z</time>
      </trkpt>
      <trkpt lat="42.79723" lon="-0.02964">
        <ele>1617.7</ele>
        <time>2023-10-31T08:51:16Z</time>
      </trkpt>
      <trkpt lat="42.79724" lon="-0.02966">
        <ele>1617.8</ele>
        <time>2023-10-31T08:51:17Z</time>
      </trkpt>
      <trkpt lat="42.79724" lon="-0.02968">
        <ele>1618</ele>
        <time>2023-10-31T08:51:18Z</time>
      </trkpt>
      <trkpt lat="42.79724" lon="-0.02967">
        <ele>1618.1</ele>
        <time>2023-10-31T08:51:19Z</time>
      </trkpt>
      <trkpt lat="42.79725" lon="-0.02968">
        <ele>1618.2</ele>
        <time>2023-10-31T08:51:20Z</time>
      </trkpt>
      <trkpt lat="42.79725" lon="-0.02968">
        <ele>1618.2</ele>
        <time>2023-10-31T08:51:21Z</time>
      </trkpt>
      <trkpt lat="42.79725" lon="-0.02969">
        <ele>1618.3</ele>
        <time>2023-10-31T08:51:22Z</time>
      </trkpt>
      <trkpt lat="42.79726" lon="-0.02969">
        <ele>1618.3</ele>
        <time>2023-10-31T08:51:23Z</time>
      </trkpt>
      <trkpt lat="42.79726" lon="-0.02969">
        <ele>1618.4</ele>
        <time>2023-10-31T08:51:24Z</time>
      </trkpt>
      <trkpt lat="42.79728" lon="-0.02969">
        <ele>1618.6</ele>
        <time>2023-10-31T08:51:25Z</time>
      </trkpt>
      <trkpt lat="42.79728" lon="-0.0297">
        <ele>1618.7</ele>
        <time>2023-10-31T08:51:26Z</time>
      </trkpt>
      <trkpt lat="42.79729" lon="-0.0297">
        <ele>1618.8</ele>
        <time>2023-10-31T08:51:27Z</time>
      </trkpt>
      <trkpt lat="42.79729" lon="-0.02971">
        <ele>1618.8</ele>
        <time>2023-10-31T08:51:28Z</time>
      </trkpt>
      <trkpt lat="42.7973" lon="-0.02972">
        <ele>1619</ele>
        <time>2023-10-31T08:51:29Z</time>
      </trkpt>
      <trkpt lat="42.79729" lon="-0.02971">
        <ele>1619.1</ele>
        <time>2023-10-31T08:51:30Z</time>
      </trkpt>
      <trkpt lat="42.7973" lon="-0.02973">
        <ele>1619.3</ele>
        <time>2023-10-31T08:51:31Z</time>
      </trkpt>
      <trkpt lat="42.7973" lon="-0.02973">
        <ele>1619.3</ele>
        <time>2023-10-31T08:51:32Z</time>
      </trkpt>
      <trkpt lat="42.7973" lon="-0.02974">
        <ele>1619.4</ele>
        <time>2023-10-31T08:51:33Z</time>
      </trkpt>
      <trkpt lat="42.79731" lon="-0.02975">
        <ele>1619.5</ele>
        <time>2023-10-31T08:51:34Z</time>
      </trkpt>
      <trkpt lat="42.79732" lon="-0.02975">
        <ele>1619.6</ele>
        <time>2023-10-31T08:51:35Z</time>
      </trkpt>
      <trkpt lat="42.79732" lon="-0.02975">
        <ele>1619.6</ele>
        <time>2023-10-31T08:51:36Z</time>
      </trkpt>
      <trkpt lat="42.79732" lon="-0.02976">
        <ele>1619.7</ele>
        <time>2023-10-31T08:51:37Z</time>
      </trkpt>
      <trkpt lat="42.79732" lon="-0.02977">
        <ele>1619.8</ele>
        <time>2023-10-31T08:51:38Z</time>
      </trkpt>
      <trkpt lat="42.79732" lon="-0.02976">
        <ele>1619.8</ele>
        <time>2023-10-31T08:51:39Z</time>
      </trkpt>
      <trkpt lat="42.79733" lon="-0.02977">
        <ele>1619.9</ele>
        <time>2023-10-31T08:51:40Z</time>
      </trkpt>
      <trkpt lat="42.79734" lon="-0.02979">
        <ele>1620</ele>
        <time>2023-10-31T08:51:41Z</time>
      </trkpt>
      <trkpt lat="42.79734" lon="-0.02979">
        <ele>1620.1</ele>
        <time>2023-10-31T08:51:42Z</time>
      </trkpt>
      <trkpt lat="42.79735" lon="-0.02979">
        <ele>1620.2</ele>
        <time>2023-10-31T08:51:43Z</time>
      </trkpt>
      <trkpt lat="42.79735" lon="-0.0298">
        <ele>1620.2</ele>
        <time>2023-10-31T08:51:44Z</time>
      </trkpt>
      <trkpt lat="42.79736" lon="-0.0298">
        <ele>1620.3</ele>
        <time>2023-10-31T08:51:45Z</time>
      </trkpt>
      <trkpt lat="42.79737" lon="-0.02979">
        <ele>1620.4</ele>
        <time>2023-10-31T08:51:46Z</time>
      </trkpt>
      <trkpt lat="42.79737" lon="-0.02981">
        <ele>1620.5</ele>
        <time>2023-10-31T08:51:47Z</time>
      </trkpt>
      <trkpt lat="42.79738" lon="-0.02981">
        <ele>1620.6</ele>
        <time>2023-10-31T08:51:48Z</time>
      </trkpt>
      <trkpt lat="42.79738" lon="-0.02981">
        <ele>1620.6</ele>
        <time>2023-10-31T08:51:49Z</time>
      </trkpt>
      <trkpt lat="42.79739" lon="-0.02981">
        <ele>1620.7</ele>
        <time>2023-10-31T08:51:50Z</time>
      </trkpt>
      <trkpt lat="42.7974" lon="-0.02982">
        <ele>1620.8</ele>
        <time>2023-10-31T08:51:51Z</time>
      </trkpt>
      <trkpt lat="42.79741" lon="-0.02982">
        <ele>1620.9</ele>
        <time>2023-10-31T08:51:52Z</time>
      </trkpt>
      <trkpt lat="42.79741" lon="-0.02982">
        <ele>1621</ele>
        <time>2023-10-31T08:51:53Z</time>
      </trkpt>
      <trkpt lat="42.79742" lon="-0.02983">
        <ele>1621</ele>
        <time>2023-10-31T08:51:54Z</time>
      </trkpt>
      <trkpt lat="42.79742" lon="-0.02983">
        <ele>1621.1</ele>
        <time>2023-10-31T08:51:55Z</time>
      </trkpt>
      <trkpt lat="42.79742" lon="-0.02984">
        <ele>1621.1</ele>
        <time>2023-10-31T08:51:56Z</time>
      </trkpt>
      <trkpt lat="42.79743" lon="-0.02983">
        <ele>1621.2</ele>
        <time>2023-10-31T08:51:57Z</time>
      </trkpt>
      <trkpt lat="42.79744" lon="-0.02983">
        <ele>1621.3</ele>
        <time>2023-10-31T08:51:58Z</time>
      </trkpt>
      <trkpt lat="42.79744" lon="-0.02983">
        <ele>1621.4</ele>
        <time>2023-10-31T08:51:59Z</time>
      </trkpt>
      <trkpt lat="42.79745" lon="-0.02984">
        <ele>1621.4</ele>
        <time>2023-10-31T08:52:00Z</time>
      </trkpt>
      <trkpt lat="42.79745" lon="-0.02984">
        <ele>1621.5</ele>
        <time>2023-10-31T08:52:01Z</time>
      </trkpt>
      <trkpt lat="42.79746" lon="-0.02984">
        <ele>1621.6</ele>
        <time>2023-10-31T08:52:02Z</time>
      </trkpt>
      <trkpt lat="42.79746" lon="-0.02983">
        <ele>1621.6</ele>
        <time>2023-10-31T08:52:03Z</time>
      </trkpt>
      <trkpt lat="42.79748" lon="-0.02983">
        <ele>1621.8</ele>
        <time>2023-10-31T08:52:04Z</time>
      </trkpt>
      <trkpt lat="42.79748" lon="-0.02983">
        <ele>1621.9</ele>
        <time>2023-10-31T08:52:05Z</time>
      </trkpt>
      <trkpt lat="42.79749" lon="-0.02984">
        <ele>1622</ele>
        <time>2023-10-31T08:52:06Z</time>
      </trkpt>
      <trkpt lat="42.79751" lon="-0.02984">
        <ele>1622.3</ele>
        <time>2023-10-31T08:52:07Z</time>
      </trkpt>
      <trkpt lat="42.79752" lon="-0.02984">
        <ele>1622.5</ele>
        <time>2023-10-31T08:52:08Z</time>
      </trkpt>
      <trkpt lat="42.79753" lon="-0.02984">
        <ele>1622.6</ele>
        <time>2023-10-31T08:52:09Z</time>
      </trkpt>
      <trkpt lat="42.79754" lon="-0.02983">
        <ele>1622.8</ele>
        <time>2023-10-31T08:52:10Z</time>
      </trkpt>
      <trkpt lat="42.79755" lon="-0.02982">
        <ele>1623</ele>
        <time>2023-10-31T08:52:11Z</time>
      </trkpt>
      <trkpt lat="42.79756" lon="-0.02981">
        <ele>1623.2</ele>
        <time>2023-10-31T08:52:12Z</time>
      </trkpt>
      <trkpt lat="42.79757" lon="-0.02982">
        <ele>1623.4</ele>
        <time>2023-10-31T08:52:13Z</time>
      </trkpt>
      <trkpt lat="42.79759" lon="-0.02982">
        <ele>1623.7</ele>
        <time>2023-10-31T08:52:14Z</time>
      </trkpt>
      <trkpt lat="42.7976" lon="-0.02982">
        <ele>1624</ele>
        <time>2023-10-31T08:52:15Z</time>
      </trkpt>
      <trkpt lat="42.79761" lon="-0.02982">
        <ele>1624.2</ele>
        <time>2023-10-31T08:52:16Z</time>
      </trkpt>
      <trkpt lat="42.79762" lon="-0.02982">
        <ele>1624.4</ele>
        <time>2023-10-31T08:52:17Z</time>
      </trkpt>
      <trkpt lat="42.79762" lon="-0.02983">
        <ele>1624.5</ele>
        <time>2023-10-31T08:52:18Z</time>
      </trkpt>
      <trkpt lat="42.79763" lon="-0.02985">
        <ele>1624.7</ele>
        <time>2023-10-31T08:52:19Z</time>
      </trkpt>
      <trkpt lat="42.79763" lon="-0.02986">
        <ele>1624.8</ele>
        <time>2023-10-31T08:52:20Z</time>
      </trkpt>
      <trkpt lat="42.79763" lon="-0.02985">
        <ele>1624.9</ele>
        <time>2023-10-31T08:52:21Z</time>
      </trkpt>
      <trkpt lat="42.79765" lon="-0.02985">
        <ele>1625.2</ele>
        <time>2023-10-31T08:52:22Z</time>
      </trkpt>
      <trkpt lat="42.79763" lon="-0.0299">
        <ele>1625.8</ele>
        <time>2023-10-31T08:52:23Z</time>
      </trkpt>
      <trkpt lat="42.79764" lon="-0.0299">
        <ele>1625.9</ele>
        <time>2023-10-31T08:52:24Z</time>
      </trkpt>
      <trkpt lat="42.79764" lon="-0.02988">
        <ele>1626.1</ele>
        <time>2023-10-31T08:52:25Z</time>
      </trkpt>
      <trkpt lat="42.79765" lon="-0.02989">
        <ele>1626.1</ele>
        <time>2023-10-31T08:52:26Z</time>
      </trkpt>
      <trkpt lat="42.79766" lon="-0.02989">
        <ele>1626.3</ele>
        <time>2023-10-31T08:52:27Z</time>
      </trkpt>
      <trkpt lat="42.79766" lon="-0.02989">
        <ele>1626.4</ele>
        <time>2023-10-31T08:52:28Z</time>
      </trkpt>
      <trkpt lat="42.79766" lon="-0.02989">
        <ele>1626.4</ele>
        <time>2023-10-31T08:52:29Z</time>
      </trkpt>
      <trkpt lat="42.79766" lon="-0.02989">
        <ele>1626.5</ele>
        <time>2023-10-31T08:52:30Z</time>
      </trkpt>
      <trkpt lat="42.79767" lon="-0.0299">
        <ele>1626.6</ele>
        <time>2023-10-31T08:52:31Z</time>
      </trkpt>
      <trkpt lat="42.79767" lon="-0.0299">
        <ele>1626.7</ele>
        <time>2023-10-31T08:52:32Z</time>
      </trkpt>
      <trkpt lat="42.79768" lon="-0.0299">
        <ele>1626.8</ele>
        <time>2023-10-31T08:52:33Z</time>
      </trkpt>
      <trkpt lat="42.79768" lon="-0.0299">
        <ele>1626.8</ele>
        <time>2023-10-31T08:52:34Z</time>
      </trkpt>
      <trkpt lat="42.79769" lon="-0.02991">
        <ele>1627.1</ele>
        <time>2023-10-31T08:52:35Z</time>
      </trkpt>
      <trkpt lat="42.79769" lon="-0.02992">
        <ele>1627.2</ele>
        <time>2023-10-31T08:52:36Z</time>
      </trkpt>
      <trkpt lat="42.7977" lon="-0.02993">
        <ele>1627.4</ele>
        <time>2023-10-31T08:52:37Z</time>
      </trkpt>
      <trkpt lat="42.7977" lon="-0.02993">
        <ele>1627.5</ele>
        <time>2023-10-31T08:52:38Z</time>
      </trkpt>
      <trkpt lat="42.7977" lon="-0.02993">
        <ele>1627.6</ele>
        <time>2023-10-31T08:52:39Z</time>
      </trkpt>
      <trkpt lat="42.79771" lon="-0.02993">
        <ele>1627.8</ele>
        <time>2023-10-31T08:52:40Z</time>
      </trkpt>
      <trkpt lat="42.79771" lon="-0.02993">
        <ele>1627.9</ele>
        <time>2023-10-31T08:52:41Z</time>
      </trkpt>
      <trkpt lat="42.79772" lon="-0.02994">
        <ele>1628</ele>
        <time>2023-10-31T08:52:42Z</time>
      </trkpt>
      <trkpt lat="42.79772" lon="-0.02994">
        <ele>1628.1</ele>
        <time>2023-10-31T08:52:43Z</time>
      </trkpt>
      <trkpt lat="42.79772" lon="-0.02995">
        <ele>1628.2</ele>
        <time>2023-10-31T08:52:44Z</time>
      </trkpt>
      <trkpt lat="42.79773" lon="-0.02994">
        <ele>1628.3</ele>
        <time>2023-10-31T08:52:45Z</time>
      </trkpt>
      <trkpt lat="42.79773" lon="-0.02995">
        <ele>1628.3</ele>
        <time>2023-10-31T08:52:46Z</time>
      </trkpt>
      <trkpt lat="42.79773" lon="-0.02996">
        <ele>1628.4</ele>
        <time>2023-10-31T08:52:47Z</time>
      </trkpt>
      <trkpt lat="42.79774" lon="-0.02996">
        <ele>1628.6</ele>
        <time>2023-10-31T08:52:48Z</time>
      </trkpt>
      <trkpt lat="42.79775" lon="-0.02995">
        <ele>1628.8</ele>
        <time>2023-10-31T08:52:49Z</time>
      </trkpt>
      <trkpt lat="42.79776" lon="-0.02995">
        <ele>1628.9</ele>
        <time>2023-10-31T08:52:50Z</time>
      </trkpt>
      <trkpt lat="42.79776" lon="-0.02995">
        <ele>1628.9</ele>
        <time>2023-10-31T08:52:51Z</time>
      </trkpt>
      <trkpt lat="42.79777" lon="-0.02995">
        <ele>1629.1</ele>
        <time>2023-10-31T08:52:52Z</time>
      </trkpt>
      <trkpt lat="42.79778" lon="-0.02995">
        <ele>1629.3</ele>
        <time>2023-10-31T08:52:53Z</time>
      </trkpt>
      <trkpt lat="42.7978" lon="-0.02994">
        <ele>1629.5</ele>
        <time>2023-10-31T08:52:54Z</time>
      </trkpt>
      <trkpt lat="42.79779" lon="-0.02992">
        <ele>1629.7</ele>
        <time>2023-10-31T08:52:55Z</time>
      </trkpt>
      <trkpt lat="42.79779" lon="-0.02993">
        <ele>1629.9</ele>
        <time>2023-10-31T08:52:56Z</time>
      </trkpt>
      <trkpt lat="42.7978" lon="-0.02994">
        <ele>1630</ele>
        <time>2023-10-31T08:52:57Z</time>
      </trkpt>
      <trkpt lat="42.7978" lon="-0.02995">
        <ele>1630.1</ele>
        <time>2023-10-31T08:52:58Z</time>
      </trkpt>
      <trkpt lat="42.79781" lon="-0.02996">
        <ele>1630.3</ele>
        <time>2023-10-31T08:52:59Z</time>
      </trkpt>
      <trkpt lat="42.79782" lon="-0.02995">
        <ele>1630.5</ele>
        <time>2023-10-31T08:53:00Z</time>
      </trkpt>
      <trkpt lat="42.79782" lon="-0.02995">
        <ele>1630.6</ele>
        <time>2023-10-31T08:53:01Z</time>
      </trkpt>
      <trkpt lat="42.79784" lon="-0.02995">
        <ele>1630.7</ele>
        <time>2023-10-31T08:53:02Z</time>
      </trkpt>
      <trkpt lat="42.79784" lon="-0.02995">
        <ele>1630.8</ele>
        <time>2023-10-31T08:53:03Z</time>
      </trkpt>
      <trkpt lat="42.79786" lon="-0.02995">
        <ele>1631</ele>
        <time>2023-10-31T08:53:04Z</time>
      </trkpt>
      <trkpt lat="42.79787" lon="-0.02995">
        <ele>1631.2</ele>
        <time>2023-10-31T08:53:05Z</time>
      </trkpt>
      <trkpt lat="42.79788" lon="-0.02995">
        <ele>1631.4</ele>
        <time>2023-10-31T08:53:06Z</time>
      </trkpt>
      <trkpt lat="42.79789" lon="-0.02995">
        <ele>1631.5</ele>
        <time>2023-10-31T08:53:07Z</time>
      </trkpt>
      <trkpt lat="42.7979" lon="-0.02995">
        <ele>1631.7</ele>
        <time>2023-10-31T08:53:08Z</time>
      </trkpt>
      <trkpt lat="42.79791" lon="-0.02996">
        <ele>1631.8</ele>
        <time>2023-10-31T08:53:09Z</time>
      </trkpt>
      <trkpt lat="42.79792" lon="-0.02996">
        <ele>1631.9</ele>
        <time>2023-10-31T08:53:10Z</time>
      </trkpt>
      <trkpt lat="42.79793" lon="-0.02997">
        <ele>1632.1</ele>
        <time>2023-10-31T08:53:11Z</time>
      </trkpt>
      <trkpt lat="42.79794" lon="-0.02997">
        <ele>1632.2</ele>
        <time>2023-10-31T08:53:12Z</time>
      </trkpt>
      <trkpt lat="42.79794" lon="-0.02997">
        <ele>1632.3</ele>
        <time>2023-10-31T08:53:13Z</time>
      </trkpt>
      <trkpt lat="42.79795" lon="-0.02997">
        <ele>1632.4</ele>
        <time>2023-10-31T08:53:14Z</time>
      </trkpt>
      <trkpt lat="42.79796" lon="-0.02997">
        <ele>1632.5</ele>
        <time>2023-10-31T08:53:15Z</time>
      </trkpt>
      <trkpt lat="42.79797" lon="-0.02997">
        <ele>1632.7</ele>
        <time>2023-10-31T08:53:16Z</time>
      </trkpt>
      <trkpt lat="42.79798" lon="-0.02997">
        <ele>1632.8</ele>
        <time>2023-10-31T08:53:17Z</time>
      </trkpt>
      <trkpt lat="42.79798" lon="-0.02997">
        <ele>1632.8</ele>
        <time>2023-10-31T08:53:18Z</time>
      </trkpt>
      <trkpt lat="42.79799" lon="-0.02997">
        <ele>1632.9</ele>
        <time>2023-10-31T08:53:19Z</time>
      </trkpt>
      <trkpt lat="42.798" lon="-0.02998">
        <ele>1633</ele>
        <time>2023-10-31T08:53:20Z</time>
      </trkpt>
      <trkpt lat="42.798" lon="-0.02998">
        <ele>1633.1</ele>
        <time>2023-10-31T08:53:21Z</time>
      </trkpt>
      <trkpt lat="42.79801" lon="-0.02999">
        <ele>1633.1</ele>
        <time>2023-10-31T08:53:22Z</time>
      </trkpt>
      <trkpt lat="42.79801" lon="-0.02999">
        <ele>1633.2</ele>
        <time>2023-10-31T08:53:23Z</time>
      </trkpt>
      <trkpt lat="42.79802" lon="-0.02999">
        <ele>1633.3</ele>
        <time>2023-10-31T08:53:24Z</time>
      </trkpt>
      <trkpt lat="42.79802" lon="-0.02999">
        <ele>1633.3</ele>
        <time>2023-10-31T08:53:25Z</time>
      </trkpt>
      <trkpt lat="42.79802" lon="-0.03">
        <ele>1633.4</ele>
        <time>2023-10-31T08:53:26Z</time>
      </trkpt>
      <trkpt lat="42.79802" lon="-0.02999">
        <ele>1633.4</ele>
        <time>2023-10-31T08:53:27Z</time>
      </trkpt>
      <trkpt lat="42.79803" lon="-0.02999">
        <ele>1633.5</ele>
        <time>2023-10-31T08:53:28Z</time>
      </trkpt>
      <trkpt lat="42.79804" lon="-0.03">
        <ele>1633.7</ele>
        <time>2023-10-31T08:53:29Z</time>
      </trkpt>
      <trkpt lat="42.79804" lon="-0.03">
        <ele>1633.7</ele>
        <time>2023-10-31T08:53:30Z</time>
      </trkpt>
      <trkpt lat="42.79804" lon="-0.03">
        <ele>1633.7</ele>
        <time>2023-10-31T08:53:31Z</time>
      </trkpt>
      <trkpt lat="42.79805" lon="-0.03">
        <ele>1633.8</ele>
        <time>2023-10-31T08:53:32Z</time>
      </trkpt>
      <trkpt lat="42.79805" lon="-0.03">
        <ele>1633.8</ele>
        <time>2023-10-31T08:53:33Z</time>
      </trkpt>
      <trkpt lat="42.79805" lon="-0.03001">
        <ele>1633.8</ele>
        <time>2023-10-31T08:53:34Z</time>
      </trkpt>
      <trkpt lat="42.79806" lon="-0.03002">
        <ele>1633.9</ele>
        <time>2023-10-31T08:53:35Z</time>
      </trkpt>
      <trkpt lat="42.79806" lon="-0.03002">
        <ele>1634</ele>
        <time>2023-10-31T08:53:36Z</time>
      </trkpt>
      <trkpt lat="42.79807" lon="-0.03002">
        <ele>1634.1</ele>
        <time>2023-10-31T08:53:37Z</time>
      </trkpt>
      <trkpt lat="42.79807" lon="-0.03002">
        <ele>1634.1</ele>
        <time>2023-10-31T08:53:38Z</time>
      </trkpt>
      <trkpt lat="42.79808" lon="-0.03002">
        <ele>1634.2</ele>
        <time>2023-10-31T08:53:39Z</time>
      </trkpt>
      <trkpt lat="42.79808" lon="-0.03002">
        <ele>1634.3</ele>
        <time>2023-10-31T08:53:40Z</time>
      </trkpt>
      <trkpt lat="42.79809" lon="-0.03002">
        <ele>1634.3</ele>
        <time>2023-10-31T08:53:41Z</time>
      </trkpt>
      <trkpt lat="42.79809" lon="-0.03002">
        <ele>1634.4</ele>
        <time>2023-10-31T08:53:42Z</time>
      </trkpt>
      <trkpt lat="42.79809" lon="-0.03001">
        <ele>1634.4</ele>
        <time>2023-10-31T08:53:43Z</time>
      </trkpt>
      <trkpt lat="42.7981" lon="-0.03002">
        <ele>1634.6</ele>
        <time>2023-10-31T08:53:44Z</time>
      </trkpt>
      <trkpt lat="42.7981" lon="-0.03002">
        <ele>1634.6</ele>
        <time>2023-10-31T08:53:45Z</time>
      </trkpt>
      <trkpt lat="42.79812" lon="-0.03001">
        <ele>1634.7</ele>
        <time>2023-10-31T08:53:46Z</time>
      </trkpt>
      <trkpt lat="42.79813" lon="-0.03001">
        <ele>1634.9</ele>
        <time>2023-10-31T08:53:47Z</time>
      </trkpt>
      <trkpt lat="42.79814" lon="-0.03002">
        <ele>1635.1</ele>
        <time>2023-10-31T08:53:48Z</time>
      </trkpt>
      <trkpt lat="42.79815" lon="-0.03003">
        <ele>1635.2</ele>
        <time>2023-10-31T08:53:49Z</time>
      </trkpt>
      <trkpt lat="42.79816" lon="-0.03003">
        <ele>1635.4</ele>
        <time>2023-10-31T08:53:50Z</time>
      </trkpt>
      <trkpt lat="42.79818" lon="-0.03003">
        <ele>1635.5</ele>
        <time>2023-10-31T08:53:51Z</time>
      </trkpt>
      <trkpt lat="42.79819" lon="-0.03003">
        <ele>1635.6</ele>
        <time>2023-10-31T08:53:52Z</time>
      </trkpt>
      <trkpt lat="42.7982" lon="-0.03004">
        <ele>1635.8</ele>
        <time>2023-10-31T08:53:53Z</time>
      </trkpt>
      <trkpt lat="42.7982" lon="-0.03004">
        <ele>1635.8</ele>
        <time>2023-10-31T08:53:54Z</time>
      </trkpt>
      <trkpt lat="42.79821" lon="-0.03005">
        <ele>1635.9</ele>
        <time>2023-10-31T08:53:55Z</time>
      </trkpt>
      <trkpt lat="42.79821" lon="-0.03005">
        <ele>1636</ele>
        <time>2023-10-31T08:53:56Z</time>
      </trkpt>
      <trkpt lat="42.79822" lon="-0.03006">
        <ele>1636.1</ele>
        <time>2023-10-31T08:53:57Z</time>
      </trkpt>
      <trkpt lat="42.79823" lon="-0.03007">
        <ele>1636.3</ele>
        <time>2023-10-31T08:53:58Z</time>
      </trkpt>
      <trkpt lat="42.79824" lon="-0.03008">
        <ele>1636.4</ele>
        <time>2023-10-31T08:53:59Z</time>
      </trkpt>
      <trkpt lat="42.79824" lon="-0.03009">
        <ele>1636.5</ele>
        <time>2023-10-31T08:54:00Z</time>
      </trkpt>
      <trkpt lat="42.79825" lon="-0.03009">
        <ele>1636.5</ele>
        <time>2023-10-31T08:54:01Z</time>
      </trkpt>
      <trkpt lat="42.79827" lon="-0.03009">
        <ele>1636.7</ele>
        <time>2023-10-31T08:54:02Z</time>
      </trkpt>
      <trkpt lat="42.79828" lon="-0.03009">
        <ele>1636.8</ele>
        <time>2023-10-31T08:54:03Z</time>
      </trkpt>
      <trkpt lat="42.79829" lon="-0.0301">
        <ele>1637</ele>
        <time>2023-10-31T08:54:04Z</time>
      </trkpt>
      <trkpt lat="42.79829" lon="-0.0301">
        <ele>1637</ele>
        <time>2023-10-31T08:54:05Z</time>
      </trkpt>
      <trkpt lat="42.79831" lon="-0.03011">
        <ele>1637.2</ele>
        <time>2023-10-31T08:54:06Z</time>
      </trkpt>
      <trkpt lat="42.79831" lon="-0.03011">
        <ele>1637.3</ele>
        <time>2023-10-31T08:54:07Z</time>
      </trkpt>
      <trkpt lat="42.79832" lon="-0.03012">
        <ele>1637.4</ele>
        <time>2023-10-31T08:54:08Z</time>
      </trkpt>
      <trkpt lat="42.79833" lon="-0.03013">
        <ele>1637.5</ele>
        <time>2023-10-31T08:54:09Z</time>
      </trkpt>
      <trkpt lat="42.79833" lon="-0.03013">
        <ele>1637.6</ele>
        <time>2023-10-31T08:54:10Z</time>
      </trkpt>
      <trkpt lat="42.79834" lon="-0.03014">
        <ele>1637.7</ele>
        <time>2023-10-31T08:54:11Z</time>
      </trkpt>
      <trkpt lat="42.79834" lon="-0.03013">
        <ele>1637.7</ele>
        <time>2023-10-31T08:54:12Z</time>
      </trkpt>
      <trkpt lat="42.79835" lon="-0.03013">
        <ele>1637.8</ele>
        <time>2023-10-31T08:54:13Z</time>
      </trkpt>
      <trkpt lat="42.79836" lon="-0.03013">
        <ele>1637.9</ele>
        <time>2023-10-31T08:54:14Z</time>
      </trkpt>
      <trkpt lat="42.79837" lon="-0.03014">
        <ele>1638.1</ele>
        <time>2023-10-31T08:54:15Z</time>
      </trkpt>
      <trkpt lat="42.79837" lon="-0.03014">
        <ele>1638.1</ele>
        <time>2023-10-31T08:54:16Z</time>
      </trkpt>
      <trkpt lat="42.79838" lon="-0.03015">
        <ele>1638.2</ele>
        <time>2023-10-31T08:54:17Z</time>
      </trkpt>
      <trkpt lat="42.79839" lon="-0.03016">
        <ele>1638.4</ele>
        <time>2023-10-31T08:54:18Z</time>
      </trkpt>
      <trkpt lat="42.79839" lon="-0.03016">
        <ele>1638.4</ele>
        <time>2023-10-31T08:54:19Z</time>
      </trkpt>
      <trkpt lat="42.7984" lon="-0.03016">
        <ele>1638.5</ele>
        <time>2023-10-31T08:54:20Z</time>
      </trkpt>
      <trkpt lat="42.7984" lon="-0.03016">
        <ele>1638.5</ele>
        <time>2023-10-31T08:54:21Z</time>
      </trkpt>
      <trkpt lat="42.79842" lon="-0.03017">
        <ele>1638.8</ele>
        <time>2023-10-31T08:54:22Z</time>
      </trkpt>
      <trkpt lat="42.79843" lon="-0.03017">
        <ele>1638.9</ele>
        <time>2023-10-31T08:54:23Z</time>
      </trkpt>
      <trkpt lat="42.79844" lon="-0.03017">
        <ele>1639</ele>
        <time>2023-10-31T08:54:24Z</time>
      </trkpt>
      <trkpt lat="42.79844" lon="-0.03017">
        <ele>1639</ele>
        <time>2023-10-31T08:54:25Z</time>
      </trkpt>
      <trkpt lat="42.79844" lon="-0.03018">
        <ele>1639.1</ele>
        <time>2023-10-31T08:54:26Z</time>
      </trkpt>
      <trkpt lat="42.79844" lon="-0.03018">
        <ele>1639.1</ele>
        <time>2023-10-31T08:54:27Z</time>
      </trkpt>
      <trkpt lat="42.79844" lon="-0.03018">
        <ele>1639.2</ele>
        <time>2023-10-31T08:54:28Z</time>
      </trkpt>
      <trkpt lat="42.79845" lon="-0.03018">
        <ele>1639.3</ele>
        <time>2023-10-31T08:54:29Z</time>
      </trkpt>
      <trkpt lat="42.79846" lon="-0.03018">
        <ele>1639.4</ele>
        <time>2023-10-31T08:54:30Z</time>
      </trkpt>
      <trkpt lat="42.79847" lon="-0.03018">
        <ele>1639.6</ele>
        <time>2023-10-31T08:54:31Z</time>
      </trkpt>
      <trkpt lat="42.79847" lon="-0.03019">
        <ele>1639.6</ele>
        <time>2023-10-31T08:54:32Z</time>
      </trkpt>
      <trkpt lat="42.79849" lon="-0.0302">
        <ele>1639.9</ele>
        <time>2023-10-31T08:54:33Z</time>
      </trkpt>
      <trkpt lat="42.79849" lon="-0.0302">
        <ele>1640</ele>
        <time>2023-10-31T08:54:34Z</time>
      </trkpt>
      <trkpt lat="42.7985" lon="-0.0302">
        <ele>1640.1</ele>
        <time>2023-10-31T08:54:35Z</time>
      </trkpt>
      <trkpt lat="42.79851" lon="-0.03021">
        <ele>1640.2</ele>
        <time>2023-10-31T08:54:36Z</time>
      </trkpt>
      <trkpt lat="42.79852" lon="-0.0302">
        <ele>1640.3</ele>
        <time>2023-10-31T08:54:37Z</time>
      </trkpt>
      <trkpt lat="42.79853" lon="-0.03021">
        <ele>1640.6</ele>
        <time>2023-10-31T08:54:38Z</time>
      </trkpt>
      <trkpt lat="42.79854" lon="-0.03021">
        <ele>1640.7</ele>
        <time>2023-10-31T08:54:39Z</time>
      </trkpt>
      <trkpt lat="42.79855" lon="-0.03021">
        <ele>1640.9</ele>
        <time>2023-10-31T08:54:40Z</time>
      </trkpt>
      <trkpt lat="42.79856" lon="-0.03021">
        <ele>1641.1</ele>
        <time>2023-10-31T08:54:41Z</time>
      </trkpt>
      <trkpt lat="42.79857" lon="-0.03021">
        <ele>1641.3</ele>
        <time>2023-10-31T08:54:42Z</time>
      </trkpt>
      <trkpt lat="42.7986" lon="-0.0302">
        <ele>1641.9</ele>
        <time>2023-10-31T08:54:43Z</time>
      </trkpt>
      <trkpt lat="42.7986" lon="-0.0302">
        <ele>1642</ele>
        <time>2023-10-31T08:54:44Z</time>
      </trkpt>
      <trkpt lat="42.79861" lon="-0.0302">
        <ele>1642.2</ele>
        <time>2023-10-31T08:54:45Z</time>
      </trkpt>
      <trkpt lat="42.79862" lon="-0.03019">
        <ele>1642.4</ele>
        <time>2023-10-31T08:54:46Z</time>
      </trkpt>
      <trkpt lat="42.79863" lon="-0.03018">
        <ele>1642.5</ele>
        <time>2023-10-31T08:54:47Z</time>
      </trkpt>
      <trkpt lat="42.79864" lon="-0.03018">
        <ele>1642.7</ele>
        <time>2023-10-31T08:54:48Z</time>
      </trkpt>
      <trkpt lat="42.79865" lon="-0.03018">
        <ele>1642.9</ele>
        <time>2023-10-31T08:54:49Z</time>
      </trkpt>
      <trkpt lat="42.79865" lon="-0.03019">
        <ele>1643</ele>
        <time>2023-10-31T08:54:50Z</time>
      </trkpt>
      <trkpt lat="42.79865" lon="-0.0302">
        <ele>1643.2</ele>
        <time>2023-10-31T08:54:51Z</time>
      </trkpt>
      <trkpt lat="42.79865" lon="-0.0302">
        <ele>1643.2</ele>
        <time>2023-10-31T08:54:52Z</time>
      </trkpt>
      <trkpt lat="42.79866" lon="-0.0302">
        <ele>1643.4</ele>
        <time>2023-10-31T08:54:53Z</time>
      </trkpt>
      <trkpt lat="42.79865" lon="-0.03021">
        <ele>1643.6</ele>
        <time>2023-10-31T08:54:54Z</time>
      </trkpt>
      <trkpt lat="42.79865" lon="-0.03022">
        <ele>1643.8</ele>
        <time>2023-10-31T08:54:55Z</time>
      </trkpt>
      <trkpt lat="42.79865" lon="-0.03022">
        <ele>1643.9</ele>
        <time>2023-10-31T08:54:56Z</time>
      </trkpt>
      <trkpt lat="42.79865" lon="-0.03022">
        <ele>1644</ele>
        <time>2023-10-31T08:54:57Z</time>
      </trkpt>
      <trkpt lat="42.79866" lon="-0.03023">
        <ele>1644.3</ele>
        <time>2023-10-31T08:54:58Z</time>
      </trkpt>
      <trkpt lat="42.79866" lon="-0.03023">
        <ele>1644.4</ele>
        <time>2023-10-31T08:54:59Z</time>
      </trkpt>
      <trkpt lat="42.79865" lon="-0.03023">
        <ele>1644.5</ele>
        <time>2023-10-31T08:55:00Z</time>
      </trkpt>
      <trkpt lat="42.79864" lon="-0.03021">
        <ele>1645</ele>
        <time>2023-10-31T08:55:01Z</time>
      </trkpt>
      <trkpt lat="42.79865" lon="-0.03023">
        <ele>1645.4</ele>
        <time>2023-10-31T08:55:02Z</time>
      </trkpt>
      <trkpt lat="42.79865" lon="-0.03024">
        <ele>1645.6</ele>
        <time>2023-10-31T08:55:03Z</time>
      </trkpt>
      <trkpt lat="42.79865" lon="-0.03024">
        <ele>1645.6</ele>
        <time>2023-10-31T08:55:04Z</time>
      </trkpt>
      <trkpt lat="42.79866" lon="-0.03024">
        <ele>1645.8</ele>
        <time>2023-10-31T08:55:05Z</time>
      </trkpt>
      <trkpt lat="42.79866" lon="-0.03023">
        <ele>1645.9</ele>
        <time>2023-10-31T08:55:06Z</time>
      </trkpt>
      <trkpt lat="42.79866" lon="-0.03024">
        <ele>1646.1</ele>
        <time>2023-10-31T08:55:07Z</time>
      </trkpt>
      <trkpt lat="42.79867" lon="-0.03024">
        <ele>1646.2</ele>
        <time>2023-10-31T08:55:08Z</time>
      </trkpt>
      <trkpt lat="42.79867" lon="-0.03025">
        <ele>1646.4</ele>
        <time>2023-10-31T08:55:09Z</time>
      </trkpt>
      <trkpt lat="42.79867" lon="-0.03025">
        <ele>1646.5</ele>
        <time>2023-10-31T08:55:10Z</time>
      </trkpt>
      <trkpt lat="42.79867" lon="-0.03025">
        <ele>1646.5</ele>
        <time>2023-10-31T08:55:11Z</time>
      </trkpt>
      <trkpt lat="42.79867" lon="-0.03025">
        <ele>1646.6</ele>
        <time>2023-10-31T08:55:12Z</time>
      </trkpt>
      <trkpt lat="42.79867" lon="-0.03025">
        <ele>1646.7</ele>
        <time>2023-10-31T08:55:13Z</time>
      </trkpt>
      <trkpt lat="42.79866" lon="-0.03026">
        <ele>1646.9</ele>
        <time>2023-10-31T08:55:14Z</time>
      </trkpt>
      <trkpt lat="42.79866" lon="-0.03028">
        <ele>1647.2</ele>
        <time>2023-10-31T08:55:15Z</time>
      </trkpt>
      <trkpt lat="42.79866" lon="-0.03029">
        <ele>1647.5</ele>
        <time>2023-10-31T08:55:16Z</time>
      </trkpt>
      <trkpt lat="42.79866" lon="-0.03029">
        <ele>1647.5</ele>
        <time>2023-10-31T08:55:17Z</time>
      </trkpt>
      <trkpt lat="42.79866" lon="-0.03027">
        <ele>1647.7</ele>
        <time>2023-10-31T08:55:18Z</time>
      </trkpt>
      <trkpt lat="42.79866" lon="-0.03028">
        <ele>1647.8</ele>
        <time>2023-10-31T08:55:19Z</time>
      </trkpt>
      <trkpt lat="42.79867" lon="-0.03029">
        <ele>1648.1</ele>
        <time>2023-10-31T08:55:20Z</time>
      </trkpt>
      <trkpt lat="42.79868" lon="-0.03028">
        <ele>1648.3</ele>
        <time>2023-10-31T08:55:21Z</time>
      </trkpt>
      <trkpt lat="42.79868" lon="-0.03029">
        <ele>1648.4</ele>
        <time>2023-10-31T08:55:22Z</time>
      </trkpt>
      <trkpt lat="42.79868" lon="-0.03029">
        <ele>1648.5</ele>
        <time>2023-10-31T08:55:23Z</time>
      </trkpt>
      <trkpt lat="42.79868" lon="-0.03029">
        <ele>1648.6</ele>
        <time>2023-10-31T08:55:24Z</time>
      </trkpt>
      <trkpt lat="42.79869" lon="-0.0303">
        <ele>1648.7</ele>
        <time>2023-10-31T08:55:25Z</time>
      </trkpt>
      <trkpt lat="42.7987" lon="-0.0303">
        <ele>1649.1</ele>
        <time>2023-10-31T08:55:27Z</time>
      </trkpt>
      <trkpt lat="42.79871" lon="-0.0303">
        <ele>1649.4</ele>
        <time>2023-10-31T08:55:28Z</time>
      </trkpt>
      <trkpt lat="42.79872" lon="-0.0303">
        <ele>1649.8</ele>
        <time>2023-10-31T08:55:30Z</time>
      </trkpt>
      <trkpt lat="42.79873" lon="-0.0303">
        <ele>1649.9</ele>
        <time>2023-10-31T08:55:31Z</time>
      </trkpt>
      <trkpt lat="42.79874" lon="-0.03029">
        <ele>1650.4</ele>
        <time>2023-10-31T08:55:33Z</time>
      </trkpt>
      <trkpt lat="42.79874" lon="-0.0303">
        <ele>1650.6</ele>
        <time>2023-10-31T08:55:34Z</time>
      </trkpt>
      <trkpt lat="42.79874" lon="-0.03031">
        <ele>1651</ele>
        <time>2023-10-31T08:55:36Z</time>
      </trkpt>
      <trkpt lat="42.79874" lon="-0.03031">
        <ele>1651</ele>
        <time>2023-10-31T08:55:37Z</time>
      </trkpt>
      <trkpt lat="42.79875" lon="-0.03032">
        <ele>1651.2</ele>
        <time>2023-10-31T08:55:38Z</time>
      </trkpt>
      <trkpt lat="42.79875" lon="-0.03032">
        <ele>1651.3</ele>
        <time>2023-10-31T08:55:39Z</time>
      </trkpt>
      <trkpt lat="42.79876" lon="-0.03033">
        <ele>1651.5</ele>
        <time>2023-10-31T08:55:40Z</time>
      </trkpt>
      <trkpt lat="42.79876" lon="-0.03032">
        <ele>1651.7</ele>
        <time>2023-10-31T08:55:41Z</time>
      </trkpt>
      <trkpt lat="42.79876" lon="-0.03032">
        <ele>1651.8</ele>
        <time>2023-10-31T08:55:42Z</time>
      </trkpt>
      <trkpt lat="42.79876" lon="-0.03032">
        <ele>1651.8</ele>
        <time>2023-10-31T08:55:43Z</time>
      </trkpt>
      <trkpt lat="42.79877" lon="-0.03033">
        <ele>1652.2</ele>
        <time>2023-10-31T08:55:44Z</time>
      </trkpt>
      <trkpt lat="42.79876" lon="-0.03033">
        <ele>1652.5</ele>
        <time>2023-10-31T08:55:45Z</time>
      </trkpt>
      <trkpt lat="42.79877" lon="-0.03034">
        <ele>1652.9</ele>
        <time>2023-10-31T08:55:46Z</time>
      </trkpt>
      <trkpt lat="42.79877" lon="-0.03034">
        <ele>1652.9</ele>
        <time>2023-10-31T08:55:47Z</time>
      </trkpt>
      <trkpt lat="42.79878" lon="-0.03033">
        <ele>1653.3</ele>
        <time>2023-10-31T08:55:48Z</time>
      </trkpt>
      <trkpt lat="42.79878" lon="-0.03033">
        <ele>1653.5</ele>
        <time>2023-10-31T08:55:49Z</time>
      </trkpt>
      <trkpt lat="42.79878" lon="-0.03033">
        <ele>1653.7</ele>
        <time>2023-10-31T08:55:50Z</time>
      </trkpt>
      <trkpt lat="42.79879" lon="-0.03035">
        <ele>1654.1</ele>
        <time>2023-10-31T08:55:51Z</time>
      </trkpt>
      <trkpt lat="42.7988" lon="-0.03033">
        <ele>1654.5</ele>
        <time>2023-10-31T08:55:52Z</time>
      </trkpt>
      <trkpt lat="42.79881" lon="-0.03034">
        <ele>1654.6</ele>
        <time>2023-10-31T08:55:53Z</time>
      </trkpt>
      <trkpt lat="42.79881" lon="-0.03034">
        <ele>1654.7</ele>
        <time>2023-10-31T08:55:54Z</time>
      </trkpt>
      <trkpt lat="42.79882" lon="-0.03034">
        <ele>1655</ele>
        <time>2023-10-31T08:55:55Z</time>
      </trkpt>
      <trkpt lat="42.79882" lon="-0.03035">
        <ele>1655.1</ele>
        <time>2023-10-31T08:55:56Z</time>
      </trkpt>
      <trkpt lat="42.79883" lon="-0.03035">
        <ele>1655.4</ele>
        <time>2023-10-31T08:55:57Z</time>
      </trkpt>
      <trkpt lat="42.79884" lon="-0.03035">
        <ele>1655.6</ele>
        <time>2023-10-31T08:55:58Z</time>
      </trkpt>
      <trkpt lat="42.79884" lon="-0.03035">
        <ele>1655.8</ele>
        <time>2023-10-31T08:55:59Z</time>
      </trkpt>
      <trkpt lat="42.79885" lon="-0.03035">
        <ele>1656</ele>
        <time>2023-10-31T08:56:00Z</time>
      </trkpt>
      <trkpt lat="42.79885" lon="-0.03035">
        <ele>1656.2</ele>
        <time>2023-10-31T08:56:01Z</time>
      </trkpt>
      <trkpt lat="42.79886" lon="-0.03035">
        <ele>1656.4</ele>
        <time>2023-10-31T08:56:02Z</time>
      </trkpt>
      <trkpt lat="42.79886" lon="-0.03035">
        <ele>1656.5</ele>
        <time>2023-10-31T08:56:03Z</time>
      </trkpt>
      <trkpt lat="42.79887" lon="-0.03036">
        <ele>1656.7</ele>
        <time>2023-10-31T08:56:04Z</time>
      </trkpt>
      <trkpt lat="42.79887" lon="-0.03037">
        <ele>1657</ele>
        <time>2023-10-31T08:56:05Z</time>
      </trkpt>
      <trkpt lat="42.79887" lon="-0.03037">
        <ele>1657.1</ele>
        <time>2023-10-31T08:56:06Z</time>
      </trkpt>
      <trkpt lat="42.79888" lon="-0.03037">
        <ele>1657.4</ele>
        <time>2023-10-31T08:56:07Z</time>
      </trkpt>
      <trkpt lat="42.79889" lon="-0.03037">
        <ele>1657.7</ele>
        <time>2023-10-31T08:56:08Z</time>
      </trkpt>
      <trkpt lat="42.79889" lon="-0.03037">
        <ele>1657.8</ele>
        <time>2023-10-31T08:56:09Z</time>
      </trkpt>
      <trkpt lat="42.79889" lon="-0.03038">
        <ele>1658</ele>
        <time>2023-10-31T08:56:10Z</time>
      </trkpt>
      <trkpt lat="42.79889" lon="-0.03038">
        <ele>1658.1</ele>
        <time>2023-10-31T08:56:11Z</time>
      </trkpt>
      <trkpt lat="42.79889" lon="-0.03039">
        <ele>1658.3</ele>
        <time>2023-10-31T08:56:12Z</time>
      </trkpt>
      <trkpt lat="42.79889" lon="-0.03039">
        <ele>1658.4</ele>
        <time>2023-10-31T08:56:13Z</time>
      </trkpt>
      <trkpt lat="42.7989" lon="-0.0304">
        <ele>1658.6</ele>
        <time>2023-10-31T08:56:14Z</time>
      </trkpt>
      <trkpt lat="42.7989" lon="-0.0304">
        <ele>1658.7</ele>
        <time>2023-10-31T08:56:15Z</time>
      </trkpt>
      <trkpt lat="42.7989" lon="-0.03039">
        <ele>1658.9</ele>
        <time>2023-10-31T08:56:16Z</time>
      </trkpt>
      <trkpt lat="42.7989" lon="-0.03041">
        <ele>1659.2</ele>
        <time>2023-10-31T08:56:17Z</time>
      </trkpt>
      <trkpt lat="42.79891" lon="-0.03042">
        <ele>1659.5</ele>
        <time>2023-10-31T08:56:18Z</time>
      </trkpt>
      <trkpt lat="42.79892" lon="-0.03042">
        <ele>1659.7</ele>
        <time>2023-10-31T08:56:19Z</time>
      </trkpt>
      <trkpt lat="42.79892" lon="-0.03042">
        <ele>1659.9</ele>
        <time>2023-10-31T08:56:20Z</time>
      </trkpt>
      <trkpt lat="42.79893" lon="-0.03042">
        <ele>1660.1</ele>
        <time>2023-10-31T08:56:21Z</time>
      </trkpt>
      <trkpt lat="42.79894" lon="-0.03042">
        <ele>1660.3</ele>
        <time>2023-10-31T08:56:22Z</time>
      </trkpt>
      <trkpt lat="42.79895" lon="-0.03042">
        <ele>1660.5</ele>
        <time>2023-10-31T08:56:23Z</time>
      </trkpt>
      <trkpt lat="42.79895" lon="-0.03042">
        <ele>1660.7</ele>
        <time>2023-10-31T08:56:24Z</time>
      </trkpt>
      <trkpt lat="42.79894" lon="-0.03043">
        <ele>1661</ele>
        <time>2023-10-31T08:56:25Z</time>
      </trkpt>
      <trkpt lat="42.79894" lon="-0.03043">
        <ele>1661.1</ele>
        <time>2023-10-31T08:56:26Z</time>
      </trkpt>
      <trkpt lat="42.79895" lon="-0.03043">
        <ele>1661.2</ele>
        <time>2023-10-31T08:56:27Z</time>
      </trkpt>
      <trkpt lat="42.79894" lon="-0.03044">
        <ele>1661.5</ele>
        <time>2023-10-31T08:56:28Z</time>
      </trkpt>
      <trkpt lat="42.79894" lon="-0.03044">
        <ele>1661.7</ele>
        <time>2023-10-31T08:56:29Z</time>
      </trkpt>
      <trkpt lat="42.79894" lon="-0.03045">
        <ele>1661.8</ele>
        <time>2023-10-31T08:56:30Z</time>
      </trkpt>
      <trkpt lat="42.79894" lon="-0.03045">
        <ele>1662</ele>
        <time>2023-10-31T08:56:31Z</time>
      </trkpt>
      <trkpt lat="42.79895" lon="-0.03045">
        <ele>1662</ele>
        <time>2023-10-31T08:56:32Z</time>
      </trkpt>
      <trkpt lat="42.79894" lon="-0.03045">
        <ele>1662.2</ele>
        <time>2023-10-31T08:56:33Z</time>
      </trkpt>
      <trkpt lat="42.79895" lon="-0.03045">
        <ele>1662.5</ele>
        <time>2023-10-31T08:56:34Z</time>
      </trkpt>
      <trkpt lat="42.79896" lon="-0.03045">
        <ele>1662.7</ele>
        <time>2023-10-31T08:56:35Z</time>
      </trkpt>
      <trkpt lat="42.79895" lon="-0.03044">
        <ele>1663.1</ele>
        <time>2023-10-31T08:56:36Z</time>
      </trkpt>
      <trkpt lat="42.79895" lon="-0.03044">
        <ele>1663.3</ele>
        <time>2023-10-31T08:56:37Z</time>
      </trkpt>
      <trkpt lat="42.79895" lon="-0.03045">
        <ele>1663.5</ele>
        <time>2023-10-31T08:56:38Z</time>
      </trkpt>
      <trkpt lat="42.79895" lon="-0.03045">
        <ele>1663.6</ele>
        <time>2023-10-31T08:56:39Z</time>
      </trkpt>
      <trkpt lat="42.79895" lon="-0.03046">
        <ele>1663.7</ele>
        <time>2023-10-31T08:56:40Z</time>
      </trkpt>
      <trkpt lat="42.79894" lon="-0.03046">
        <ele>1663.8</ele>
        <time>2023-10-31T08:56:41Z</time>
      </trkpt>
      <trkpt lat="42.79895" lon="-0.03046">
        <ele>1663.9</ele>
        <time>2023-10-31T08:56:42Z</time>
      </trkpt>
      <trkpt lat="42.79895" lon="-0.03046">
        <ele>1664</ele>
        <time>2023-10-31T08:56:43Z</time>
      </trkpt>
      <trkpt lat="42.79895" lon="-0.03046">
        <ele>1664</ele>
        <time>2023-10-31T08:56:44Z</time>
      </trkpt>
      <trkpt lat="42.79895" lon="-0.03045">
        <ele>1664.1</ele>
        <time>2023-10-31T08:56:45Z</time>
      </trkpt>
      <trkpt lat="42.79895" lon="-0.03045">
        <ele>1664.1</ele>
        <time>2023-10-31T08:56:46Z</time>
      </trkpt>
      <trkpt lat="42.79895" lon="-0.03045">
        <ele>1664.2</ele>
        <time>2023-10-31T08:56:47Z</time>
      </trkpt>
      <trkpt lat="42.79896" lon="-0.03045">
        <ele>1664.4</ele>
        <time>2023-10-31T08:56:48Z</time>
      </trkpt>
      <trkpt lat="42.79895" lon="-0.03044">
        <ele>1664.6</ele>
        <time>2023-10-31T08:56:49Z</time>
      </trkpt>
      <trkpt lat="42.79894" lon="-0.03044">
        <ele>1664.9</ele>
        <time>2023-10-31T08:56:50Z</time>
      </trkpt>
      <trkpt lat="42.79894" lon="-0.03043">
        <ele>1665</ele>
        <time>2023-10-31T08:56:51Z</time>
      </trkpt>
      <trkpt lat="42.79895" lon="-0.03044">
        <ele>1665.3</ele>
        <time>2023-10-31T08:56:52Z</time>
      </trkpt>
      <trkpt lat="42.79896" lon="-0.03042">
        <ele>1665.7</ele>
        <time>2023-10-31T08:56:53Z</time>
      </trkpt>
      <trkpt lat="42.79896" lon="-0.03042">
        <ele>1665.8</ele>
        <time>2023-10-31T08:56:54Z</time>
      </trkpt>
      <trkpt lat="42.79896" lon="-0.03044">
        <ele>1666</ele>
        <time>2023-10-31T08:56:55Z</time>
      </trkpt>
      <trkpt lat="42.79896" lon="-0.03044">
        <ele>1666.1</ele>
        <time>2023-10-31T08:56:56Z</time>
      </trkpt>
      <trkpt lat="42.79896" lon="-0.03044">
        <ele>1666.2</ele>
        <time>2023-10-31T08:56:57Z</time>
      </trkpt>
      <trkpt lat="42.79896" lon="-0.03044">
        <ele>1666.2</ele>
        <time>2023-10-31T08:56:58Z</time>
      </trkpt>
      <trkpt lat="42.79896" lon="-0.03044">
        <ele>1666.3</ele>
        <time>2023-10-31T08:56:59Z</time>
      </trkpt>
      <trkpt lat="42.79896" lon="-0.03044">
        <ele>1666.3</ele>
        <time>2023-10-31T08:57:00Z</time>
      </trkpt>
      <trkpt lat="42.79896" lon="-0.03044">
        <ele>1666.3</ele>
        <time>2023-10-31T08:57:01Z</time>
      </trkpt>
      <trkpt lat="42.79896" lon="-0.03044">
        <ele>1666.3</ele>
        <time>2023-10-31T08:57:02Z</time>
      </trkpt>
      <trkpt lat="42.79896" lon="-0.03044">
        <ele>1666.3</ele>
        <time>2023-10-31T08:57:03Z</time>
      </trkpt>
      <trkpt lat="42.79896" lon="-0.03044">
        <ele>1666.3</ele>
        <time>2023-10-31T08:57:04Z</time>
      </trkpt>
      <trkpt lat="42.79895" lon="-0.03044">
        <ele>1666.4</ele>
        <time>2023-10-31T08:57:05Z</time>
      </trkpt>
      <trkpt lat="42.79895" lon="-0.03044">
        <ele>1666.4</ele>
        <time>2023-10-31T08:57:06Z</time>
      </trkpt>
      <trkpt lat="42.79896" lon="-0.03044">
        <ele>1666.4</ele>
        <time>2023-10-31T08:57:07Z</time>
      </trkpt>
      <trkpt lat="42.79896" lon="-0.03044">
        <ele>1666.4</ele>
        <time>2023-10-31T08:57:08Z</time>
      </trkpt>
      <trkpt lat="42.79896" lon="-0.03044">
        <ele>1666.4</ele>
        <time>2023-10-31T08:57:09Z</time>
      </trkpt>
      <trkpt lat="42.79896" lon="-0.03044">
        <ele>1666.4</ele>
        <time>2023-10-31T08:57:10Z</time>
      </trkpt>
      <trkpt lat="42.79896" lon="-0.03044">
        <ele>1666.5</ele>
        <time>2023-10-31T08:57:11Z</time>
      </trkpt>
      <trkpt lat="42.79896" lon="-0.03044">
        <ele>1666.5</ele>
        <time>2023-10-31T08:57:12Z</time>
      </trkpt>
      <trkpt lat="42.79896" lon="-0.03044">
        <ele>1666.5</ele>
        <time>2023-10-31T08:57:13Z</time>
      </trkpt>
      <trkpt lat="42.79896" lon="-0.03044">
        <ele>1666.5</ele>
        <time>2023-10-31T08:57:14Z</time>
      </trkpt>
      <trkpt lat="42.79896" lon="-0.03044">
        <ele>1666.5</ele>
        <time>2023-10-31T08:57:15Z</time>
      </trkpt>
      <trkpt lat="42.79896" lon="-0.03044">
        <ele>1666.5</ele>
        <time>2023-10-31T08:57:16Z</time>
      </trkpt>
      <trkpt lat="42.79896" lon="-0.03044">
        <ele>1666.5</ele>
        <time>2023-10-31T08:57:17Z</time>
      </trkpt>
      <trkpt lat="42.79896" lon="-0.03044">
        <ele>1666.5</ele>
        <time>2023-10-31T08:57:18Z</time>
      </trkpt>
      <trkpt lat="42.79896" lon="-0.03044">
        <ele>1666.5</ele>
        <time>2023-10-31T08:57:19Z</time>
      </trkpt>
      <trkpt lat="42.79896" lon="-0.03044">
        <ele>1666.5</ele>
        <time>2023-10-31T08:57:20Z</time>
      </trkpt>
      <trkpt lat="42.79896" lon="-0.03044">
        <ele>1666.5</ele>
        <time>2023-10-31T08:57:21Z</time>
      </trkpt>
      <trkpt lat="42.79896" lon="-0.03044">
        <ele>1666.5</ele>
        <time>2023-10-31T08:57:22Z</time>
      </trkpt>
      <trkpt lat="42.79896" lon="-0.03044">
        <ele>1666.5</ele>
        <time>2023-10-31T08:57:23Z</time>
      </trkpt>
      <trkpt lat="42.79896" lon="-0.03044">
        <ele>1666.5</ele>
        <time>2023-10-31T08:57:24Z</time>
      </trkpt>
      <trkpt lat="42.79896" lon="-0.03044">
        <ele>1666.5</ele>
        <time>2023-10-31T08:57:25Z</time>
      </trkpt>
      <trkpt lat="42.79896" lon="-0.03044">
        <ele>1666.5</ele>
        <time>2023-10-31T08:57:26Z</time>
      </trkpt>
      <trkpt lat="42.79896" lon="-0.03044">
        <ele>1666.5</ele>
        <time>2023-10-31T08:57:27Z</time>
      </trkpt>
      <trkpt lat="42.79896" lon="-0.03044">
        <ele>1666.5</ele>
        <time>2023-10-31T08:57:29Z</time>
      </trkpt>
      <trkpt lat="42.79895" lon="-0.03044">
        <ele>1666.6</ele>
        <time>2023-10-31T08:57:30Z</time>
      </trkpt>
      <trkpt lat="42.79895" lon="-0.03044">
        <ele>1666.6</ele>
        <time>2023-10-31T08:57:31Z</time>
      </trkpt>
      <trkpt lat="42.79895" lon="-0.03044">
        <ele>1666.6</ele>
        <time>2023-10-31T08:57:32Z</time>
      </trkpt>
      <trkpt lat="42.79895" lon="-0.03044">
        <ele>1666.7</ele>
        <time>2023-10-31T08:57:33Z</time>
      </trkpt>
      <trkpt lat="42.79897" lon="-0.03044">
        <ele>1667.2</ele>
        <time>2023-10-31T08:57:34Z</time>
      </trkpt>
      <trkpt lat="42.79896" lon="-0.03044">
        <ele>1667.4</ele>
        <time>2023-10-31T08:57:35Z</time>
      </trkpt>
      <trkpt lat="42.79896" lon="-0.03044">
        <ele>1667.5</ele>
        <time>2023-10-31T08:57:36Z</time>
      </trkpt>
      <trkpt lat="42.79896" lon="-0.03044">
        <ele>1667.5</ele>
        <time>2023-10-31T08:57:37Z</time>
      </trkpt>
      <trkpt lat="42.79896" lon="-0.03044">
        <ele>1667.6</ele>
        <time>2023-10-31T08:57:38Z</time>
      </trkpt>
      <trkpt lat="42.79895" lon="-0.03044">
        <ele>1667.7</ele>
        <time>2023-10-31T08:57:39Z</time>
      </trkpt>
      <trkpt lat="42.79895" lon="-0.03044">
        <ele>1667.7</ele>
        <time>2023-10-31T08:57:40Z</time>
      </trkpt>
      <trkpt lat="42.79895" lon="-0.03044">
        <ele>1667.8</ele>
        <time>2023-10-31T08:57:41Z</time>
      </trkpt>
      <trkpt lat="42.79895" lon="-0.03044">
        <ele>1667.8</ele>
        <time>2023-10-31T08:57:42Z</time>
      </trkpt>
      <trkpt lat="42.79896" lon="-0.03044">
        <ele>1667.9</ele>
        <time>2023-10-31T08:57:43Z</time>
      </trkpt>
      <trkpt lat="42.79896" lon="-0.03044">
        <ele>1667.9</ele>
        <time>2023-10-31T08:57:44Z</time>
      </trkpt>
      <trkpt lat="42.79896" lon="-0.03044">
        <ele>1667.9</ele>
        <time>2023-10-31T08:57:45Z</time>
      </trkpt>
      <trkpt lat="42.79896" lon="-0.03044">
        <ele>1668</ele>
        <time>2023-10-31T08:57:46Z</time>
      </trkpt>
      <trkpt lat="42.79895" lon="-0.03044">
        <ele>1668</ele>
        <time>2023-10-31T08:57:47Z</time>
      </trkpt>
      <trkpt lat="42.79896" lon="-0.03044">
        <ele>1668.2</ele>
        <time>2023-10-31T08:57:48Z</time>
      </trkpt>
      <trkpt lat="42.79896" lon="-0.03044">
        <ele>1668.3</ele>
        <time>2023-10-31T08:57:49Z</time>
      </trkpt>
      <trkpt lat="42.79896" lon="-0.03044">
        <ele>1668.3</ele>
        <time>2023-10-31T08:57:50Z</time>
      </trkpt>
      <trkpt lat="42.79896" lon="-0.03045">
        <ele>1668.4</ele>
        <time>2023-10-31T08:57:51Z</time>
      </trkpt>
      <trkpt lat="42.79896" lon="-0.03045">
        <ele>1668.5</ele>
        <time>2023-10-31T08:57:52Z</time>
      </trkpt>
      <trkpt lat="42.79896" lon="-0.03045">
        <ele>1668.5</ele>
        <time>2023-10-31T08:57:53Z</time>
      </trkpt>
      <trkpt lat="42.79896" lon="-0.03045">
        <ele>1668.6</ele>
        <time>2023-10-31T08:57:54Z</time>
      </trkpt>
      <trkpt lat="42.79896" lon="-0.03045">
        <ele>1668.7</ele>
        <time>2023-10-31T08:57:55Z</time>
      </trkpt>
      <trkpt lat="42.79895" lon="-0.03046">
        <ele>1668.8</ele>
        <time>2023-10-31T08:57:56Z</time>
      </trkpt>
      <trkpt lat="42.79896" lon="-0.03045">
        <ele>1669.1</ele>
        <time>2023-10-31T08:57:57Z</time>
      </trkpt>
      <trkpt lat="42.79896" lon="-0.03045">
        <ele>1669.2</ele>
        <time>2023-10-31T08:57:58Z</time>
      </trkpt>
      <trkpt lat="42.79896" lon="-0.03046">
        <ele>1669.3</ele>
        <time>2023-10-31T08:57:59Z</time>
      </trkpt>
      <trkpt lat="42.79897" lon="-0.03046">
        <ele>1669.4</ele>
        <time>2023-10-31T08:58:00Z</time>
      </trkpt>
      <trkpt lat="42.79897" lon="-0.03047">
        <ele>1669.6</ele>
        <time>2023-10-31T08:58:01Z</time>
      </trkpt>
      <trkpt lat="42.79897" lon="-0.03048">
        <ele>1669.8</ele>
        <time>2023-10-31T08:58:02Z</time>
      </trkpt>
      <trkpt lat="42.79898" lon="-0.03049">
        <ele>1670</ele>
        <time>2023-10-31T08:58:03Z</time>
      </trkpt>
      <trkpt lat="42.79898" lon="-0.0305">
        <ele>1670.2</ele>
        <time>2023-10-31T08:58:04Z</time>
      </trkpt>
      <trkpt lat="42.79899" lon="-0.03049">
        <ele>1670.5</ele>
        <time>2023-10-31T08:58:05Z</time>
      </trkpt>
      <trkpt lat="42.79899" lon="-0.0305">
        <ele>1670.6</ele>
        <time>2023-10-31T08:58:06Z</time>
      </trkpt>
      <trkpt lat="42.799" lon="-0.03051">
        <ele>1670.8</ele>
        <time>2023-10-31T08:58:07Z</time>
      </trkpt>
      <trkpt lat="42.79901" lon="-0.03052">
        <ele>1671.1</ele>
        <time>2023-10-31T08:58:08Z</time>
      </trkpt>
      <trkpt lat="42.79901" lon="-0.03052">
        <ele>1671.2</ele>
        <time>2023-10-31T08:58:09Z</time>
      </trkpt>
      <trkpt lat="42.79901" lon="-0.03052">
        <ele>1671.3</ele>
        <time>2023-10-31T08:58:10Z</time>
      </trkpt>
      <trkpt lat="42.79902" lon="-0.03053">
        <ele>1671.5</ele>
        <time>2023-10-31T08:58:11Z</time>
      </trkpt>
      <trkpt lat="42.79902" lon="-0.03054">
        <ele>1671.6</ele>
        <time>2023-10-31T08:58:12Z</time>
      </trkpt>
      <trkpt lat="42.79903" lon="-0.03055">
        <ele>1671.8</ele>
        <time>2023-10-31T08:58:13Z</time>
      </trkpt>
      <trkpt lat="42.79904" lon="-0.03055">
        <ele>1672</ele>
        <time>2023-10-31T08:58:14Z</time>
      </trkpt>
      <trkpt lat="42.79903" lon="-0.03056">
        <ele>1672.1</ele>
        <time>2023-10-31T08:58:15Z</time>
      </trkpt>
      <trkpt lat="42.79904" lon="-0.03057">
        <ele>1672.2</ele>
        <time>2023-10-31T08:58:16Z</time>
      </trkpt>
      <trkpt lat="42.79903" lon="-0.03059">
        <ele>1672.6</ele>
        <time>2023-10-31T08:58:17Z</time>
      </trkpt>
      <trkpt lat="42.79904" lon="-0.03058">
        <ele>1672.8</ele>
        <time>2023-10-31T08:58:18Z</time>
      </trkpt>
      <trkpt lat="42.79904" lon="-0.03059">
        <ele>1672.9</ele>
        <time>2023-10-31T08:58:19Z</time>
      </trkpt>
      <trkpt lat="42.79904" lon="-0.03059">
        <ele>1673.1</ele>
        <time>2023-10-31T08:58:20Z</time>
      </trkpt>
      <trkpt lat="42.79904" lon="-0.03059">
        <ele>1673.1</ele>
        <time>2023-10-31T08:58:21Z</time>
      </trkpt>
      <trkpt lat="42.79904" lon="-0.0306">
        <ele>1673.3</ele>
        <time>2023-10-31T08:58:22Z</time>
      </trkpt>
      <trkpt lat="42.79904" lon="-0.03061">
        <ele>1673.4</ele>
        <time>2023-10-31T08:58:23Z</time>
      </trkpt>
      <trkpt lat="42.79904" lon="-0.03062">
        <ele>1673.6</ele>
        <time>2023-10-31T08:58:24Z</time>
      </trkpt>
      <trkpt lat="42.79903" lon="-0.03062">
        <ele>1673.7</ele>
        <time>2023-10-31T08:58:25Z</time>
      </trkpt>
      <trkpt lat="42.79903" lon="-0.03063">
        <ele>1673.8</ele>
        <time>2023-10-31T08:58:26Z</time>
      </trkpt>
      <trkpt lat="42.79903" lon="-0.03063">
        <ele>1673.9</ele>
        <time>2023-10-31T08:58:27Z</time>
      </trkpt>
      <trkpt lat="42.79903" lon="-0.03064">
        <ele>1674</ele>
        <time>2023-10-31T08:58:28Z</time>
      </trkpt>
      <trkpt lat="42.79903" lon="-0.03064">
        <ele>1674.1</ele>
        <time>2023-10-31T08:58:29Z</time>
      </trkpt>
      <trkpt lat="42.79903" lon="-0.03066">
        <ele>1674.4</ele>
        <time>2023-10-31T08:58:30Z</time>
      </trkpt>
      <trkpt lat="42.79903" lon="-0.03067">
        <ele>1674.6</ele>
        <time>2023-10-31T08:58:31Z</time>
      </trkpt>
      <trkpt lat="42.79904" lon="-0.0307">
        <ele>1675.2</ele>
        <time>2023-10-31T08:58:32Z</time>
      </trkpt>
      <trkpt lat="42.79905" lon="-0.03072">
        <ele>1675.4</ele>
        <time>2023-10-31T08:58:33Z</time>
      </trkpt>
      <trkpt lat="42.79904" lon="-0.03071">
        <ele>1675.6</ele>
        <time>2023-10-31T08:58:34Z</time>
      </trkpt>
      <trkpt lat="42.79905" lon="-0.0307">
        <ele>1675.8</ele>
        <time>2023-10-31T08:58:35Z</time>
      </trkpt>
      <trkpt lat="42.79906" lon="-0.0307">
        <ele>1676.1</ele>
        <time>2023-10-31T08:58:36Z</time>
      </trkpt>
      <trkpt lat="42.79906" lon="-0.0307">
        <ele>1676.1</ele>
        <time>2023-10-31T08:58:37Z</time>
      </trkpt>
      <trkpt lat="42.79905" lon="-0.0307">
        <ele>1676.2</ele>
        <time>2023-10-31T08:58:38Z</time>
      </trkpt>
      <trkpt lat="42.79903" lon="-0.03072">
        <ele>1676.9</ele>
        <time>2023-10-31T08:58:39Z</time>
      </trkpt>
      <trkpt lat="42.79903" lon="-0.03073">
        <ele>1677.1</ele>
        <time>2023-10-31T08:58:40Z</time>
      </trkpt>
      <trkpt lat="42.79904" lon="-0.03073">
        <ele>1677.3</ele>
        <time>2023-10-31T08:58:41Z</time>
      </trkpt>
      <trkpt lat="42.79904" lon="-0.03072">
        <ele>1677.4</ele>
        <time>2023-10-31T08:58:42Z</time>
      </trkpt>
      <trkpt lat="42.79904" lon="-0.03073">
        <ele>1677.5</ele>
        <time>2023-10-31T08:58:43Z</time>
      </trkpt>
      <trkpt lat="42.79904" lon="-0.03074">
        <ele>1677.7</ele>
        <time>2023-10-31T08:58:44Z</time>
      </trkpt>
      <trkpt lat="42.79904" lon="-0.03074">
        <ele>1677.8</ele>
        <time>2023-10-31T08:58:45Z</time>
      </trkpt>
      <trkpt lat="42.79904" lon="-0.03073">
        <ele>1677.9</ele>
        <time>2023-10-31T08:58:46Z</time>
      </trkpt>
      <trkpt lat="42.79904" lon="-0.03075">
        <ele>1678.2</ele>
        <time>2023-10-31T08:58:47Z</time>
      </trkpt>
      <trkpt lat="42.79904" lon="-0.03075">
        <ele>1678.3</ele>
        <time>2023-10-31T08:58:48Z</time>
      </trkpt>
      <trkpt lat="42.79905" lon="-0.03076">
        <ele>1678.5</ele>
        <time>2023-10-31T08:58:49Z</time>
      </trkpt>
      <trkpt lat="42.79905" lon="-0.03077">
        <ele>1678.6</ele>
        <time>2023-10-31T08:58:50Z</time>
      </trkpt>
      <trkpt lat="42.79905" lon="-0.03078">
        <ele>1678.7</ele>
        <time>2023-10-31T08:58:51Z</time>
      </trkpt>
      <trkpt lat="42.79905" lon="-0.03079">
        <ele>1678.9</ele>
        <time>2023-10-31T08:58:52Z</time>
      </trkpt>
      <trkpt lat="42.79906" lon="-0.03076">
        <ele>1679.4</ele>
        <time>2023-10-31T08:58:53Z</time>
      </trkpt>
      <trkpt lat="42.79905" lon="-0.03076">
        <ele>1679.5</ele>
        <time>2023-10-31T08:58:54Z</time>
      </trkpt>
      <trkpt lat="42.79906" lon="-0.03079">
        <ele>1680</ele>
        <time>2023-10-31T08:58:55Z</time>
      </trkpt>
      <trkpt lat="42.79906" lon="-0.0308">
        <ele>1680</ele>
        <time>2023-10-31T08:58:56Z</time>
      </trkpt>
      <trkpt lat="42.79906" lon="-0.03081">
        <ele>1680.2</ele>
        <time>2023-10-31T08:58:57Z</time>
      </trkpt>
      <trkpt lat="42.79906" lon="-0.0308">
        <ele>1680.4</ele>
        <time>2023-10-31T08:58:58Z</time>
      </trkpt>
      <trkpt lat="42.79907" lon="-0.0308">
        <ele>1680.7</ele>
        <time>2023-10-31T08:58:59Z</time>
      </trkpt>
      <trkpt lat="42.79908" lon="-0.0308">
        <ele>1680.8</ele>
        <time>2023-10-31T08:59:00Z</time>
      </trkpt>
      <trkpt lat="42.79908" lon="-0.03082">
        <ele>1681</ele>
        <time>2023-10-31T08:59:01Z</time>
      </trkpt>
      <trkpt lat="42.79909" lon="-0.03082">
        <ele>1681.2</ele>
        <time>2023-10-31T08:59:02Z</time>
      </trkpt>
      <trkpt lat="42.79909" lon="-0.03082">
        <ele>1681.3</ele>
        <time>2023-10-31T08:59:03Z</time>
      </trkpt>
      <trkpt lat="42.7991" lon="-0.03083">
        <ele>1681.4</ele>
        <time>2023-10-31T08:59:04Z</time>
      </trkpt>
      <trkpt lat="42.79911" lon="-0.03083">
        <ele>1681.6</ele>
        <time>2023-10-31T08:59:05Z</time>
      </trkpt>
      <trkpt lat="42.7991" lon="-0.03082">
        <ele>1681.8</ele>
        <time>2023-10-31T08:59:06Z</time>
      </trkpt>
      <trkpt lat="42.7991" lon="-0.03082">
        <ele>1681.9</ele>
        <time>2023-10-31T08:59:07Z</time>
      </trkpt>
      <trkpt lat="42.7991" lon="-0.03082">
        <ele>1681.9</ele>
        <time>2023-10-31T08:59:08Z</time>
      </trkpt>
      <trkpt lat="42.79911" lon="-0.03083">
        <ele>1682.1</ele>
        <time>2023-10-31T08:59:09Z</time>
      </trkpt>
      <trkpt lat="42.79911" lon="-0.03083">
        <ele>1682.2</ele>
        <time>2023-10-31T08:59:10Z</time>
      </trkpt>
      <trkpt lat="42.79912" lon="-0.03082">
        <ele>1682.5</ele>
        <time>2023-10-31T08:59:11Z</time>
      </trkpt>
      <trkpt lat="42.79913" lon="-0.03083">
        <ele>1682.8</ele>
        <time>2023-10-31T08:59:12Z</time>
      </trkpt>
      <trkpt lat="42.79913" lon="-0.03084">
        <ele>1682.9</ele>
        <time>2023-10-31T08:59:13Z</time>
      </trkpt>
      <trkpt lat="42.79913" lon="-0.03084">
        <ele>1683</ele>
        <time>2023-10-31T08:59:14Z</time>
      </trkpt>
      <trkpt lat="42.79914" lon="-0.03084">
        <ele>1683.2</ele>
        <time>2023-10-31T08:59:15Z</time>
      </trkpt>
      <trkpt lat="42.79915" lon="-0.03084">
        <ele>1683.4</ele>
        <time>2023-10-31T08:59:16Z</time>
      </trkpt>
      <trkpt lat="42.79915" lon="-0.03084">
        <ele>1683.5</ele>
        <time>2023-10-31T08:59:17Z</time>
      </trkpt>
      <trkpt lat="42.79916" lon="-0.03084">
        <ele>1683.7</ele>
        <time>2023-10-31T08:59:18Z</time>
      </trkpt>
      <trkpt lat="42.79917" lon="-0.03084">
        <ele>1683.9</ele>
        <time>2023-10-31T08:59:19Z</time>
      </trkpt>
      <trkpt lat="42.79918" lon="-0.03083">
        <ele>1684.1</ele>
        <time>2023-10-31T08:59:20Z</time>
      </trkpt>
      <trkpt lat="42.79918" lon="-0.03083">
        <ele>1684.2</ele>
        <time>2023-10-31T08:59:21Z</time>
      </trkpt>
      <trkpt lat="42.79918" lon="-0.03081">
        <ele>1684.5</ele>
        <time>2023-10-31T08:59:22Z</time>
      </trkpt>
      <trkpt lat="42.79919" lon="-0.0308">
        <ele>1684.7</ele>
        <time>2023-10-31T08:59:23Z</time>
      </trkpt>
      <trkpt lat="42.79919" lon="-0.03077">
        <ele>1685.2</ele>
        <time>2023-10-31T08:59:24Z</time>
      </trkpt>
      <trkpt lat="42.79919" lon="-0.03078">
        <ele>1685.2</ele>
        <time>2023-10-31T08:59:25Z</time>
      </trkpt>
      <trkpt lat="42.7992" lon="-0.03077">
        <ele>1685.4</ele>
        <time>2023-10-31T08:59:26Z</time>
      </trkpt>
      <trkpt lat="42.79921" lon="-0.03075">
        <ele>1685.7</ele>
        <time>2023-10-31T08:59:27Z</time>
      </trkpt>
      <trkpt lat="42.79921" lon="-0.03075">
        <ele>1685.9</ele>
        <time>2023-10-31T08:59:28Z</time>
      </trkpt>
      <trkpt lat="42.79922" lon="-0.03075">
        <ele>1686</ele>
        <time>2023-10-31T08:59:29Z</time>
      </trkpt>
      <trkpt lat="42.79922" lon="-0.03077">
        <ele>1686.3</ele>
        <time>2023-10-31T08:59:30Z</time>
      </trkpt>
      <trkpt lat="42.79924" lon="-0.03076">
        <ele>1686.5</ele>
        <time>2023-10-31T08:59:31Z</time>
      </trkpt>
      <trkpt lat="42.79924" lon="-0.03076">
        <ele>1686.7</ele>
        <time>2023-10-31T08:59:32Z</time>
      </trkpt>
      <trkpt lat="42.79925" lon="-0.03076">
        <ele>1686.9</ele>
        <time>2023-10-31T08:59:33Z</time>
      </trkpt>
      <trkpt lat="42.79925" lon="-0.03076">
        <ele>1687</ele>
        <time>2023-10-31T08:59:35Z</time>
      </trkpt>
      <trkpt lat="42.79927" lon="-0.03076">
        <ele>1687.5</ele>
        <time>2023-10-31T08:59:36Z</time>
      </trkpt>
      <trkpt lat="42.79926" lon="-0.03076">
        <ele>1687.6</ele>
        <time>2023-10-31T08:59:37Z</time>
      </trkpt>
      <trkpt lat="42.79927" lon="-0.03075">
        <ele>1687.8</ele>
        <time>2023-10-31T08:59:38Z</time>
      </trkpt>
      <trkpt lat="42.79928" lon="-0.03075">
        <ele>1687.9</ele>
        <time>2023-10-31T08:59:39Z</time>
      </trkpt>
      <trkpt lat="42.79928" lon="-0.03075">
        <ele>1688</ele>
        <time>2023-10-31T08:59:40Z</time>
      </trkpt>
      <trkpt lat="42.79928" lon="-0.03075">
        <ele>1688.1</ele>
        <time>2023-10-31T08:59:41Z</time>
      </trkpt>
      <trkpt lat="42.79928" lon="-0.03075">
        <ele>1688.3</ele>
        <time>2023-10-31T08:59:42Z</time>
      </trkpt>
      <trkpt lat="42.79929" lon="-0.03077">
        <ele>1688.6</ele>
        <time>2023-10-31T08:59:43Z</time>
      </trkpt>
      <trkpt lat="42.7993" lon="-0.03077">
        <ele>1688.8</ele>
        <time>2023-10-31T08:59:44Z</time>
      </trkpt>
      <trkpt lat="42.79931" lon="-0.03077">
        <ele>1689</ele>
        <time>2023-10-31T08:59:45Z</time>
      </trkpt>
      <trkpt lat="42.79931" lon="-0.03078">
        <ele>1689.2</ele>
        <time>2023-10-31T08:59:46Z</time>
      </trkpt>
      <trkpt lat="42.79932" lon="-0.03077">
        <ele>1689.4</ele>
        <time>2023-10-31T08:59:47Z</time>
      </trkpt>
      <trkpt lat="42.79933" lon="-0.03077">
        <ele>1689.5</ele>
        <time>2023-10-31T08:59:48Z</time>
      </trkpt>
      <trkpt lat="42.79934" lon="-0.03079">
        <ele>1690</ele>
        <time>2023-10-31T08:59:49Z</time>
      </trkpt>
      <trkpt lat="42.79935" lon="-0.03079">
        <ele>1690.1</ele>
        <time>2023-10-31T08:59:50Z</time>
      </trkpt>
      <trkpt lat="42.79935" lon="-0.03079">
        <ele>1690.2</ele>
        <time>2023-10-31T08:59:51Z</time>
      </trkpt>
      <trkpt lat="42.79935" lon="-0.0308">
        <ele>1690.3</ele>
        <time>2023-10-31T08:59:52Z</time>
      </trkpt>
      <trkpt lat="42.79936" lon="-0.0308">
        <ele>1690.5</ele>
        <time>2023-10-31T08:59:53Z</time>
      </trkpt>
      <trkpt lat="42.79937" lon="-0.03081">
        <ele>1690.8</ele>
        <time>2023-10-31T08:59:54Z</time>
      </trkpt>
      <trkpt lat="42.79938" lon="-0.03081">
        <ele>1690.9</ele>
        <time>2023-10-31T08:59:55Z</time>
      </trkpt>
      <trkpt lat="42.79938" lon="-0.03081">
        <ele>1691.1</ele>
        <time>2023-10-31T08:59:56Z</time>
      </trkpt>
      <trkpt lat="42.79939" lon="-0.03081">
        <ele>1691.2</ele>
        <time>2023-10-31T08:59:57Z</time>
      </trkpt>
      <trkpt lat="42.79939" lon="-0.03082">
        <ele>1691.3</ele>
        <time>2023-10-31T08:59:58Z</time>
      </trkpt>
      <trkpt lat="42.7994" lon="-0.03082">
        <ele>1691.4</ele>
        <time>2023-10-31T08:59:59Z</time>
      </trkpt>
      <trkpt lat="42.7994" lon="-0.03082">
        <ele>1691.5</ele>
        <time>2023-10-31T09:00:00Z</time>
      </trkpt>
      <trkpt lat="42.79943" lon="-0.03082">
        <ele>1692.2</ele>
        <time>2023-10-31T09:00:01Z</time>
      </trkpt>
      <trkpt lat="42.79942" lon="-0.03084">
        <ele>1692.5</ele>
        <time>2023-10-31T09:00:02Z</time>
      </trkpt>
      <trkpt lat="42.79942" lon="-0.03084">
        <ele>1692.6</ele>
        <time>2023-10-31T09:00:03Z</time>
      </trkpt>
      <trkpt lat="42.79942" lon="-0.03084">
        <ele>1692.7</ele>
        <time>2023-10-31T09:00:04Z</time>
      </trkpt>
      <trkpt lat="42.79944" lon="-0.03085">
        <ele>1693.2</ele>
        <time>2023-10-31T09:00:05Z</time>
      </trkpt>
      <trkpt lat="42.79944" lon="-0.03085">
        <ele>1693.2</ele>
        <time>2023-10-31T09:00:06Z</time>
      </trkpt>
      <trkpt lat="42.79944" lon="-0.03085">
        <ele>1693.3</ele>
        <time>2023-10-31T09:00:07Z</time>
      </trkpt>
      <trkpt lat="42.79945" lon="-0.03085">
        <ele>1693.6</ele>
        <time>2023-10-31T09:00:08Z</time>
      </trkpt>
      <trkpt lat="42.79945" lon="-0.03086">
        <ele>1693.7</ele>
        <time>2023-10-31T09:00:09Z</time>
      </trkpt>
      <trkpt lat="42.79946" lon="-0.03086">
        <ele>1693.8</ele>
        <time>2023-10-31T09:00:10Z</time>
      </trkpt>
      <trkpt lat="42.79945" lon="-0.03085">
        <ele>1694</ele>
        <time>2023-10-31T09:00:11Z</time>
      </trkpt>
      <trkpt lat="42.79946" lon="-0.03084">
        <ele>1694.2</ele>
        <time>2023-10-31T09:00:12Z</time>
      </trkpt>
      <trkpt lat="42.79947" lon="-0.03086">
        <ele>1694.6</ele>
        <time>2023-10-31T09:00:13Z</time>
      </trkpt>
      <trkpt lat="42.79947" lon="-0.03086">
        <ele>1694.7</ele>
        <time>2023-10-31T09:00:14Z</time>
      </trkpt>
      <trkpt lat="42.79947" lon="-0.03087">
        <ele>1694.9</ele>
        <time>2023-10-31T09:00:15Z</time>
      </trkpt>
      <trkpt lat="42.79947" lon="-0.03088">
        <ele>1695</ele>
        <time>2023-10-31T09:00:16Z</time>
      </trkpt>
      <trkpt lat="42.79946" lon="-0.03088">
        <ele>1695.1</ele>
        <time>2023-10-31T09:00:17Z</time>
      </trkpt>
      <trkpt lat="42.79946" lon="-0.03089">
        <ele>1695.3</ele>
        <time>2023-10-31T09:00:18Z</time>
      </trkpt>
      <trkpt lat="42.79947" lon="-0.03088">
        <ele>1695.4</ele>
        <time>2023-10-31T09:00:19Z</time>
      </trkpt>
      <trkpt lat="42.79947" lon="-0.03089">
        <ele>1695.7</ele>
        <time>2023-10-31T09:00:20Z</time>
      </trkpt>
      <trkpt lat="42.79948" lon="-0.0309">
        <ele>1696</ele>
        <time>2023-10-31T09:00:21Z</time>
      </trkpt>
      <trkpt lat="42.79949" lon="-0.0309">
        <ele>1696</ele>
        <time>2023-10-31T09:00:22Z</time>
      </trkpt>
      <trkpt lat="42.79949" lon="-0.03088">
        <ele>1696.4</ele>
        <time>2023-10-31T09:00:23Z</time>
      </trkpt>
      <trkpt lat="42.7995" lon="-0.03088">
        <ele>1696.5</ele>
        <time>2023-10-31T09:00:24Z</time>
      </trkpt>
      <trkpt lat="42.79951" lon="-0.03088">
        <ele>1696.9</ele>
        <time>2023-10-31T09:00:25Z</time>
      </trkpt>
      <trkpt lat="42.79952" lon="-0.03089">
        <ele>1697.1</ele>
        <time>2023-10-31T09:00:26Z</time>
      </trkpt>
      <trkpt lat="42.79952" lon="-0.03089">
        <ele>1697.2</ele>
        <time>2023-10-31T09:00:27Z</time>
      </trkpt>
      <trkpt lat="42.79952" lon="-0.0309">
        <ele>1697.4</ele>
        <time>2023-10-31T09:00:28Z</time>
      </trkpt>
      <trkpt lat="42.79953" lon="-0.0309">
        <ele>1697.5</ele>
        <time>2023-10-31T09:00:29Z</time>
      </trkpt>
      <trkpt lat="42.79953" lon="-0.03091">
        <ele>1697.7</ele>
        <time>2023-10-31T09:00:30Z</time>
      </trkpt>
      <trkpt lat="42.79953" lon="-0.03092">
        <ele>1697.9</ele>
        <time>2023-10-31T09:00:31Z</time>
      </trkpt>
      <trkpt lat="42.79953" lon="-0.03092">
        <ele>1698</ele>
        <time>2023-10-31T09:00:32Z</time>
      </trkpt>
      <trkpt lat="42.79953" lon="-0.03093">
        <ele>1698.1</ele>
        <time>2023-10-31T09:00:33Z</time>
      </trkpt>
      <trkpt lat="42.79954" lon="-0.03093">
        <ele>1698.3</ele>
        <time>2023-10-31T09:00:34Z</time>
      </trkpt>
      <trkpt lat="42.79954" lon="-0.03092">
        <ele>1698.4</ele>
        <time>2023-10-31T09:00:35Z</time>
      </trkpt>
      <trkpt lat="42.79956" lon="-0.03094">
        <ele>1699</ele>
        <time>2023-10-31T09:00:36Z</time>
      </trkpt>
      <trkpt lat="42.79956" lon="-0.03095">
        <ele>1699.3</ele>
        <time>2023-10-31T09:00:37Z</time>
      </trkpt>
      <trkpt lat="42.79956" lon="-0.03096">
        <ele>1699.5</ele>
        <time>2023-10-31T09:00:38Z</time>
      </trkpt>
      <trkpt lat="42.79956" lon="-0.03096">
        <ele>1699.6</ele>
        <time>2023-10-31T09:00:39Z</time>
      </trkpt>
      <trkpt lat="42.79956" lon="-0.03097">
        <ele>1699.8</ele>
        <time>2023-10-31T09:00:40Z</time>
      </trkpt>
      <trkpt lat="42.79957" lon="-0.03098">
        <ele>1700</ele>
        <time>2023-10-31T09:00:41Z</time>
      </trkpt>
      <trkpt lat="42.79957" lon="-0.03099">
        <ele>1700.3</ele>
        <time>2023-10-31T09:00:42Z</time>
      </trkpt>
      <trkpt lat="42.79958" lon="-0.03099">
        <ele>1700.6</ele>
        <time>2023-10-31T09:00:43Z</time>
      </trkpt>
      <trkpt lat="42.79955" lon="-0.03099">
        <ele>1701.5</ele>
        <time>2023-10-31T09:00:44Z</time>
      </trkpt>
      <trkpt lat="42.79956" lon="-0.03101">
        <ele>1701.9</ele>
        <time>2023-10-31T09:00:45Z</time>
      </trkpt>
      <trkpt lat="42.79956" lon="-0.03101">
        <ele>1702.1</ele>
        <time>2023-10-31T09:00:46Z</time>
      </trkpt>
      <trkpt lat="42.79956" lon="-0.03101">
        <ele>1702.1</ele>
        <time>2023-10-31T09:00:47Z</time>
      </trkpt>
      <trkpt lat="42.79957" lon="-0.03102">
        <ele>1702.3</ele>
        <time>2023-10-31T09:00:48Z</time>
      </trkpt>
      <trkpt lat="42.79956" lon="-0.03102">
        <ele>1702.5</ele>
        <time>2023-10-31T09:00:49Z</time>
      </trkpt>
      <trkpt lat="42.79956" lon="-0.03102">
        <ele>1702.5</ele>
        <time>2023-10-31T09:00:50Z</time>
      </trkpt>
      <trkpt lat="42.79957" lon="-0.03102">
        <ele>1702.6</ele>
        <time>2023-10-31T09:00:51Z</time>
      </trkpt>
      <trkpt lat="42.79957" lon="-0.03102">
        <ele>1702.7</ele>
        <time>2023-10-31T09:00:52Z</time>
      </trkpt>
      <trkpt lat="42.79957" lon="-0.03102">
        <ele>1702.8</ele>
        <time>2023-10-31T09:00:53Z</time>
      </trkpt>
      <trkpt lat="42.79957" lon="-0.03102">
        <ele>1702.9</ele>
        <time>2023-10-31T09:00:54Z</time>
      </trkpt>
      <trkpt lat="42.79957" lon="-0.03102">
        <ele>1703</ele>
        <time>2023-10-31T09:00:55Z</time>
      </trkpt>
      <trkpt lat="42.79957" lon="-0.03102">
        <ele>1703</ele>
        <time>2023-10-31T09:00:56Z</time>
      </trkpt>
      <trkpt lat="42.79957" lon="-0.03102">
        <ele>1703.1</ele>
        <time>2023-10-31T09:00:57Z</time>
      </trkpt>
      <trkpt lat="42.79957" lon="-0.03102">
        <ele>1703.1</ele>
        <time>2023-10-31T09:00:58Z</time>
      </trkpt>
      <trkpt lat="42.79957" lon="-0.03102">
        <ele>1703.3</ele>
        <time>2023-10-31T09:00:59Z</time>
      </trkpt>
      <trkpt lat="42.79957" lon="-0.03101">
        <ele>1703.4</ele>
        <time>2023-10-31T09:01:00Z</time>
      </trkpt>
      <trkpt lat="42.79958" lon="-0.03102">
        <ele>1703.5</ele>
        <time>2023-10-31T09:01:01Z</time>
      </trkpt>
      <trkpt lat="42.79959" lon="-0.03102">
        <ele>1703.8</ele>
        <time>2023-10-31T09:01:02Z</time>
      </trkpt>
      <trkpt lat="42.79958" lon="-0.03102">
        <ele>1704</ele>
        <time>2023-10-31T09:01:03Z</time>
      </trkpt>
      <trkpt lat="42.79958" lon="-0.03102">
        <ele>1704.1</ele>
        <time>2023-10-31T09:01:04Z</time>
      </trkpt>
      <trkpt lat="42.79957" lon="-0.03101">
        <ele>1704.3</ele>
        <time>2023-10-31T09:01:05Z</time>
      </trkpt>
      <trkpt lat="42.79957" lon="-0.03101">
        <ele>1704.3</ele>
        <time>2023-10-31T09:01:06Z</time>
      </trkpt>
      <trkpt lat="42.79957" lon="-0.03101">
        <ele>1704.4</ele>
        <time>2023-10-31T09:01:07Z</time>
      </trkpt>
      <trkpt lat="42.79957" lon="-0.03101">
        <ele>1704.4</ele>
        <time>2023-10-31T09:01:08Z</time>
      </trkpt>
      <trkpt lat="42.79957" lon="-0.03101">
        <ele>1704.5</ele>
        <time>2023-10-31T09:01:09Z</time>
      </trkpt>
      <trkpt lat="42.79957" lon="-0.03101">
        <ele>1704.5</ele>
        <time>2023-10-31T09:01:10Z</time>
      </trkpt>
      <trkpt lat="42.79957" lon="-0.03101">
        <ele>1704.5</ele>
        <time>2023-10-31T09:01:11Z</time>
      </trkpt>
      <trkpt lat="42.79957" lon="-0.03101">
        <ele>1704.6</ele>
        <time>2023-10-31T09:01:12Z</time>
      </trkpt>
      <trkpt lat="42.79957" lon="-0.03102">
        <ele>1704.6</ele>
        <time>2023-10-31T09:01:13Z</time>
      </trkpt>
      <trkpt lat="42.79957" lon="-0.03103">
        <ele>1704.9</ele>
        <time>2023-10-31T09:01:14Z</time>
      </trkpt>
      <trkpt lat="42.79957" lon="-0.03104">
        <ele>1705</ele>
        <time>2023-10-31T09:01:15Z</time>
      </trkpt>
      <trkpt lat="42.79957" lon="-0.03104">
        <ele>1705</ele>
        <time>2023-10-31T09:01:16Z</time>
      </trkpt>
      <trkpt lat="42.79957" lon="-0.03105">
        <ele>1705.1</ele>
        <time>2023-10-31T09:01:17Z</time>
      </trkpt>
      <trkpt lat="42.79957" lon="-0.03105">
        <ele>1705.2</ele>
        <time>2023-10-31T09:01:18Z</time>
      </trkpt>
      <trkpt lat="42.79957" lon="-0.03104">
        <ele>1705.3</ele>
        <time>2023-10-31T09:01:19Z</time>
      </trkpt>
      <trkpt lat="42.79957" lon="-0.03105">
        <ele>1705.3</ele>
        <time>2023-10-31T09:01:20Z</time>
      </trkpt>
      <trkpt lat="42.79957" lon="-0.03105">
        <ele>1705.4</ele>
        <time>2023-10-31T09:01:21Z</time>
      </trkpt>
      <trkpt lat="42.79958" lon="-0.03105">
        <ele>1705.4</ele>
        <time>2023-10-31T09:01:22Z</time>
      </trkpt>
      <trkpt lat="42.79958" lon="-0.03105">
        <ele>1705.4</ele>
        <time>2023-10-31T09:01:23Z</time>
      </trkpt>
      <trkpt lat="42.79957" lon="-0.03105">
        <ele>1705.5</ele>
        <time>2023-10-31T09:01:24Z</time>
      </trkpt>
      <trkpt lat="42.79958" lon="-0.03105">
        <ele>1705.5</ele>
        <time>2023-10-31T09:01:25Z</time>
      </trkpt>
      <trkpt lat="42.79958" lon="-0.03105">
        <ele>1705.6</ele>
        <time>2023-10-31T09:01:26Z</time>
      </trkpt>
      <trkpt lat="42.79959" lon="-0.03105">
        <ele>1705.8</ele>
        <time>2023-10-31T09:01:27Z</time>
      </trkpt>
      <trkpt lat="42.7996" lon="-0.03105">
        <ele>1706</ele>
        <time>2023-10-31T09:01:28Z</time>
      </trkpt>
      <trkpt lat="42.7996" lon="-0.03105">
        <ele>1706.1</ele>
        <time>2023-10-31T09:01:29Z</time>
      </trkpt>
      <trkpt lat="42.79961" lon="-0.03105">
        <ele>1706.2</ele>
        <time>2023-10-31T09:01:30Z</time>
      </trkpt>
      <trkpt lat="42.79961" lon="-0.03105">
        <ele>1706.2</ele>
        <time>2023-10-31T09:01:31Z</time>
      </trkpt>
      <trkpt lat="42.79961" lon="-0.03105">
        <ele>1706.3</ele>
        <time>2023-10-31T09:01:32Z</time>
      </trkpt>
      <trkpt lat="42.79961" lon="-0.03106">
        <ele>1706.3</ele>
        <time>2023-10-31T09:01:33Z</time>
      </trkpt>
      <trkpt lat="42.79961" lon="-0.03106">
        <ele>1706.4</ele>
        <time>2023-10-31T09:01:34Z</time>
      </trkpt>
      <trkpt lat="42.79961" lon="-0.03106">
        <ele>1706.5</ele>
        <time>2023-10-31T09:01:35Z</time>
      </trkpt>
      <trkpt lat="42.79961" lon="-0.03106">
        <ele>1706.6</ele>
        <time>2023-10-31T09:01:36Z</time>
      </trkpt>
      <trkpt lat="42.79962" lon="-0.03106">
        <ele>1706.7</ele>
        <time>2023-10-31T09:01:37Z</time>
      </trkpt>
      <trkpt lat="42.79963" lon="-0.03106">
        <ele>1706.8</ele>
        <time>2023-10-31T09:01:38Z</time>
      </trkpt>
      <trkpt lat="42.79964" lon="-0.03106">
        <ele>1707.1</ele>
        <time>2023-10-31T09:01:39Z</time>
      </trkpt>
      <trkpt lat="42.79965" lon="-0.03106">
        <ele>1707.2</ele>
        <time>2023-10-31T09:01:41Z</time>
      </trkpt>
      <trkpt lat="42.79965" lon="-0.03107">
        <ele>1707.3</ele>
        <time>2023-10-31T09:01:42Z</time>
      </trkpt>
      <trkpt lat="42.79966" lon="-0.03107">
        <ele>1707.5</ele>
        <time>2023-10-31T09:01:44Z</time>
      </trkpt>
      <trkpt lat="42.79967" lon="-0.03107">
        <ele>1707.6</ele>
        <time>2023-10-31T09:01:45Z</time>
      </trkpt>
      <trkpt lat="42.79967" lon="-0.03107">
        <ele>1707.8</ele>
        <time>2023-10-31T09:01:46Z</time>
      </trkpt>
      <trkpt lat="42.79967" lon="-0.03106">
        <ele>1707.9</ele>
        <time>2023-10-31T09:01:47Z</time>
      </trkpt>
      <trkpt lat="42.79967" lon="-0.03106">
        <ele>1708</ele>
        <time>2023-10-31T09:01:48Z</time>
      </trkpt>
      <trkpt lat="42.79967" lon="-0.03106">
        <ele>1708</ele>
        <time>2023-10-31T09:01:49Z</time>
      </trkpt>
      <trkpt lat="42.79967" lon="-0.03107">
        <ele>1708.1</ele>
        <time>2023-10-31T09:01:50Z</time>
      </trkpt>
      <trkpt lat="42.79967" lon="-0.03107">
        <ele>1708.1</ele>
        <time>2023-10-31T09:01:51Z</time>
      </trkpt>
      <trkpt lat="42.79968" lon="-0.03107">
        <ele>1708.3</ele>
        <time>2023-10-31T09:01:52Z</time>
      </trkpt>
      <trkpt lat="42.79968" lon="-0.03107">
        <ele>1708.4</ele>
        <time>2023-10-31T09:01:53Z</time>
      </trkpt>
      <trkpt lat="42.79969" lon="-0.03107">
        <ele>1708.5</ele>
        <time>2023-10-31T09:01:54Z</time>
      </trkpt>
      <trkpt lat="42.79969" lon="-0.03107">
        <ele>1708.6</ele>
        <time>2023-10-31T09:01:55Z</time>
      </trkpt>
      <trkpt lat="42.7997" lon="-0.03108">
        <ele>1708.7</ele>
        <time>2023-10-31T09:01:56Z</time>
      </trkpt>
      <trkpt lat="42.7997" lon="-0.03109">
        <ele>1708.9</ele>
        <time>2023-10-31T09:01:57Z</time>
      </trkpt>
      <trkpt lat="42.7997" lon="-0.0311">
        <ele>1709</ele>
        <time>2023-10-31T09:01:58Z</time>
      </trkpt>
      <trkpt lat="42.79971" lon="-0.0311">
        <ele>1709.1</ele>
        <time>2023-10-31T09:01:59Z</time>
      </trkpt>
      <trkpt lat="42.79972" lon="-0.0311">
        <ele>1709.3</ele>
        <time>2023-10-31T09:02:00Z</time>
      </trkpt>
      <trkpt lat="42.79973" lon="-0.0311">
        <ele>1709.4</ele>
        <time>2023-10-31T09:02:01Z</time>
      </trkpt>
      <trkpt lat="42.79973" lon="-0.0311">
        <ele>1709.5</ele>
        <time>2023-10-31T09:02:02Z</time>
      </trkpt>
      <trkpt lat="42.79974" lon="-0.03111">
        <ele>1709.7</ele>
        <time>2023-10-31T09:02:03Z</time>
      </trkpt>
      <trkpt lat="42.79974" lon="-0.03111">
        <ele>1709.8</ele>
        <time>2023-10-31T09:02:04Z</time>
      </trkpt>
      <trkpt lat="42.79975" lon="-0.03111">
        <ele>1709.9</ele>
        <time>2023-10-31T09:02:05Z</time>
      </trkpt>
      <trkpt lat="42.79975" lon="-0.03111">
        <ele>1710</ele>
        <time>2023-10-31T09:02:06Z</time>
      </trkpt>
      <trkpt lat="42.79975" lon="-0.03111">
        <ele>1710</ele>
        <time>2023-10-31T09:02:07Z</time>
      </trkpt>
      <trkpt lat="42.79974" lon="-0.03114">
        <ele>1710.4</ele>
        <time>2023-10-31T09:02:08Z</time>
      </trkpt>
      <trkpt lat="42.79974" lon="-0.03114">
        <ele>1710.5</ele>
        <time>2023-10-31T09:02:09Z</time>
      </trkpt>
      <trkpt lat="42.79975" lon="-0.03114">
        <ele>1710.6</ele>
        <time>2023-10-31T09:02:10Z</time>
      </trkpt>
      <trkpt lat="42.79976" lon="-0.03114">
        <ele>1710.7</ele>
        <time>2023-10-31T09:02:11Z</time>
      </trkpt>
      <trkpt lat="42.79977" lon="-0.03114">
        <ele>1711</ele>
        <time>2023-10-31T09:02:12Z</time>
      </trkpt>
      <trkpt lat="42.79977" lon="-0.03113">
        <ele>1711.2</ele>
        <time>2023-10-31T09:02:13Z</time>
      </trkpt>
      <trkpt lat="42.79977" lon="-0.03113">
        <ele>1711.2</ele>
        <time>2023-10-31T09:02:14Z</time>
      </trkpt>
      <trkpt lat="42.79977" lon="-0.03112">
        <ele>1711.4</ele>
        <time>2023-10-31T09:02:15Z</time>
      </trkpt>
      <trkpt lat="42.79977" lon="-0.03112">
        <ele>1711.4</ele>
        <time>2023-10-31T09:02:16Z</time>
      </trkpt>
      <trkpt lat="42.79977" lon="-0.03112">
        <ele>1711.4</ele>
        <time>2023-10-31T09:02:17Z</time>
      </trkpt>
      <trkpt lat="42.79977" lon="-0.03111">
        <ele>1711.5</ele>
        <time>2023-10-31T09:02:18Z</time>
      </trkpt>
      <trkpt lat="42.79978" lon="-0.03111">
        <ele>1711.5</ele>
        <time>2023-10-31T09:02:19Z</time>
      </trkpt>
      <trkpt lat="42.79978" lon="-0.03111">
        <ele>1711.6</ele>
        <time>2023-10-31T09:02:20Z</time>
      </trkpt>
      <trkpt lat="42.79978" lon="-0.03111">
        <ele>1711.6</ele>
        <time>2023-10-31T09:02:21Z</time>
      </trkpt>
      <trkpt lat="42.79978" lon="-0.03112">
        <ele>1711.7</ele>
        <time>2023-10-31T09:02:22Z</time>
      </trkpt>
      <trkpt lat="42.79979" lon="-0.03112">
        <ele>1711.8</ele>
        <time>2023-10-31T09:02:23Z</time>
      </trkpt>
      <trkpt lat="42.79979" lon="-0.03112">
        <ele>1711.9</ele>
        <time>2023-10-31T09:02:24Z</time>
      </trkpt>
      <trkpt lat="42.79979" lon="-0.03113">
        <ele>1711.9</ele>
        <time>2023-10-31T09:02:25Z</time>
      </trkpt>
      <trkpt lat="42.79979" lon="-0.03113">
        <ele>1712</ele>
        <time>2023-10-31T09:02:26Z</time>
      </trkpt>
      <trkpt lat="42.7998" lon="-0.03113">
        <ele>1712.1</ele>
        <time>2023-10-31T09:02:27Z</time>
      </trkpt>
      <trkpt lat="42.7998" lon="-0.03113">
        <ele>1712.2</ele>
        <time>2023-10-31T09:02:28Z</time>
      </trkpt>
      <trkpt lat="42.79981" lon="-0.03113">
        <ele>1712.3</ele>
        <time>2023-10-31T09:02:29Z</time>
      </trkpt>
      <trkpt lat="42.79981" lon="-0.03113">
        <ele>1712.4</ele>
        <time>2023-10-31T09:02:30Z</time>
      </trkpt>
      <trkpt lat="42.79981" lon="-0.03113">
        <ele>1712.5</ele>
        <time>2023-10-31T09:02:31Z</time>
      </trkpt>
      <trkpt lat="42.79981" lon="-0.03112">
        <ele>1712.5</ele>
        <time>2023-10-31T09:02:32Z</time>
      </trkpt>
      <trkpt lat="42.79982" lon="-0.03112">
        <ele>1712.7</ele>
        <time>2023-10-31T09:02:33Z</time>
      </trkpt>
      <trkpt lat="42.79982" lon="-0.03111">
        <ele>1712.9</ele>
        <time>2023-10-31T09:02:34Z</time>
      </trkpt>
      <trkpt lat="42.79982" lon="-0.0311">
        <ele>1712.9</ele>
        <time>2023-10-31T09:02:35Z</time>
      </trkpt>
      <trkpt lat="42.79983" lon="-0.0311">
        <ele>1713.1</ele>
        <time>2023-10-31T09:02:36Z</time>
      </trkpt>
      <trkpt lat="42.79983" lon="-0.03109">
        <ele>1713.2</ele>
        <time>2023-10-31T09:02:37Z</time>
      </trkpt>
      <trkpt lat="42.79984" lon="-0.03108">
        <ele>1713.4</ele>
        <time>2023-10-31T09:02:38Z</time>
      </trkpt>
      <trkpt lat="42.79984" lon="-0.03108">
        <ele>1713.5</ele>
        <time>2023-10-31T09:02:39Z</time>
      </trkpt>
      <trkpt lat="42.79985" lon="-0.03108">
        <ele>1713.7</ele>
        <time>2023-10-31T09:02:40Z</time>
      </trkpt>
      <trkpt lat="42.79985" lon="-0.03107">
        <ele>1713.8</ele>
        <time>2023-10-31T09:02:41Z</time>
      </trkpt>
      <trkpt lat="42.79986" lon="-0.03106">
        <ele>1713.9</ele>
        <time>2023-10-31T09:02:42Z</time>
      </trkpt>
      <trkpt lat="42.79986" lon="-0.03106">
        <ele>1714</ele>
        <time>2023-10-31T09:02:43Z</time>
      </trkpt>
      <trkpt lat="42.79987" lon="-0.03107">
        <ele>1714.2</ele>
        <time>2023-10-31T09:02:44Z</time>
      </trkpt>
      <trkpt lat="42.79988" lon="-0.03107">
        <ele>1714.4</ele>
        <time>2023-10-31T09:02:45Z</time>
      </trkpt>
      <trkpt lat="42.79988" lon="-0.03107">
        <ele>1714.5</ele>
        <time>2023-10-31T09:02:46Z</time>
      </trkpt>
      <trkpt lat="42.79989" lon="-0.03107">
        <ele>1714.6</ele>
        <time>2023-10-31T09:02:47Z</time>
      </trkpt>
      <trkpt lat="42.79989" lon="-0.03108">
        <ele>1714.8</ele>
        <time>2023-10-31T09:02:48Z</time>
      </trkpt>
      <trkpt lat="42.7999" lon="-0.03108">
        <ele>1714.8</ele>
        <time>2023-10-31T09:02:49Z</time>
      </trkpt>
      <trkpt lat="42.7999" lon="-0.03108">
        <ele>1715</ele>
        <time>2023-10-31T09:02:50Z</time>
      </trkpt>
      <trkpt lat="42.79989" lon="-0.03109">
        <ele>1715.2</ele>
        <time>2023-10-31T09:02:51Z</time>
      </trkpt>
      <trkpt lat="42.79989" lon="-0.03111">
        <ele>1715.4</ele>
        <time>2023-10-31T09:02:52Z</time>
      </trkpt>
      <trkpt lat="42.79989" lon="-0.03112">
        <ele>1715.6</ele>
        <time>2023-10-31T09:02:53Z</time>
      </trkpt>
      <trkpt lat="42.79989" lon="-0.03112">
        <ele>1715.6</ele>
        <time>2023-10-31T09:02:54Z</time>
      </trkpt>
      <trkpt lat="42.79989" lon="-0.03113">
        <ele>1715.8</ele>
        <time>2023-10-31T09:02:55Z</time>
      </trkpt>
      <trkpt lat="42.79989" lon="-0.03113">
        <ele>1715.9</ele>
        <time>2023-10-31T09:02:56Z</time>
      </trkpt>
      <trkpt lat="42.79989" lon="-0.03113">
        <ele>1715.9</ele>
        <time>2023-10-31T09:02:57Z</time>
      </trkpt>
      <trkpt lat="42.79991" lon="-0.03112">
        <ele>1716.3</ele>
        <time>2023-10-31T09:02:58Z</time>
      </trkpt>
      <trkpt lat="42.79991" lon="-0.03111">
        <ele>1716.4</ele>
        <time>2023-10-31T09:02:59Z</time>
      </trkpt>
      <trkpt lat="42.79992" lon="-0.03111">
        <ele>1716.5</ele>
        <time>2023-10-31T09:03:00Z</time>
      </trkpt>
      <trkpt lat="42.79992" lon="-0.03111">
        <ele>1716.7</ele>
        <time>2023-10-31T09:03:01Z</time>
      </trkpt>
      <trkpt lat="42.79992" lon="-0.03113">
        <ele>1717.2</ele>
        <time>2023-10-31T09:03:02Z</time>
      </trkpt>
      <trkpt lat="42.79993" lon="-0.03112">
        <ele>1717.6</ele>
        <time>2023-10-31T09:03:03Z</time>
      </trkpt>
      <trkpt lat="42.79994" lon="-0.03112">
        <ele>1717.8</ele>
        <time>2023-10-31T09:03:04Z</time>
      </trkpt>
      <trkpt lat="42.79995" lon="-0.03112">
        <ele>1718</ele>
        <time>2023-10-31T09:03:05Z</time>
      </trkpt>
      <trkpt lat="42.79996" lon="-0.03113">
        <ele>1718.2</ele>
        <time>2023-10-31T09:03:06Z</time>
      </trkpt>
      <trkpt lat="42.79995" lon="-0.03114">
        <ele>1718.5</ele>
        <time>2023-10-31T09:03:07Z</time>
      </trkpt>
      <trkpt lat="42.79996" lon="-0.03114">
        <ele>1718.7</ele>
        <time>2023-10-31T09:03:08Z</time>
      </trkpt>
      <trkpt lat="42.79997" lon="-0.03114">
        <ele>1719</ele>
        <time>2023-10-31T09:03:09Z</time>
      </trkpt>
      <trkpt lat="42.79998" lon="-0.03113">
        <ele>1719.2</ele>
        <time>2023-10-31T09:03:10Z</time>
      </trkpt>
      <trkpt lat="42.79999" lon="-0.03112">
        <ele>1719.4</ele>
        <time>2023-10-31T09:03:11Z</time>
      </trkpt>
      <trkpt lat="42.79999" lon="-0.03112">
        <ele>1719.5</ele>
        <time>2023-10-31T09:03:12Z</time>
      </trkpt>
      <trkpt lat="42.8" lon="-0.03111">
        <ele>1719.7</ele>
        <time>2023-10-31T09:03:13Z</time>
      </trkpt>
      <trkpt lat="42.8" lon="-0.03111">
        <ele>1719.8</ele>
        <time>2023-10-31T09:03:14Z</time>
      </trkpt>
      <trkpt lat="42.80001" lon="-0.03109">
        <ele>1720.2</ele>
        <time>2023-10-31T09:03:15Z</time>
      </trkpt>
      <trkpt lat="42.80002" lon="-0.03108">
        <ele>1720.5</ele>
        <time>2023-10-31T09:03:16Z</time>
      </trkpt>
      <trkpt lat="42.80003" lon="-0.03107">
        <ele>1720.7</ele>
        <time>2023-10-31T09:03:17Z</time>
      </trkpt>
      <trkpt lat="42.80004" lon="-0.03107">
        <ele>1721</ele>
        <time>2023-10-31T09:03:18Z</time>
      </trkpt>
      <trkpt lat="42.80005" lon="-0.03106">
        <ele>1721.2</ele>
        <time>2023-10-31T09:03:19Z</time>
      </trkpt>
      <trkpt lat="42.80005" lon="-0.03106">
        <ele>1721.3</ele>
        <time>2023-10-31T09:03:20Z</time>
      </trkpt>
      <trkpt lat="42.80006" lon="-0.03105">
        <ele>1721.6</ele>
        <time>2023-10-31T09:03:21Z</time>
      </trkpt>
      <trkpt lat="42.80007" lon="-0.03104">
        <ele>1721.8</ele>
        <time>2023-10-31T09:03:22Z</time>
      </trkpt>
      <trkpt lat="42.80008" lon="-0.03103">
        <ele>1722.1</ele>
        <time>2023-10-31T09:03:23Z</time>
      </trkpt>
      <trkpt lat="42.80008" lon="-0.03102">
        <ele>1722.4</ele>
        <time>2023-10-31T09:03:24Z</time>
      </trkpt>
      <trkpt lat="42.80009" lon="-0.03101">
        <ele>1722.6</ele>
        <time>2023-10-31T09:03:25Z</time>
      </trkpt>
      <trkpt lat="42.80009" lon="-0.031">
        <ele>1722.7</ele>
        <time>2023-10-31T09:03:26Z</time>
      </trkpt>
      <trkpt lat="42.8001" lon="-0.031">
        <ele>1722.9</ele>
        <time>2023-10-31T09:03:27Z</time>
      </trkpt>
      <trkpt lat="42.80011" lon="-0.03099">
        <ele>1723.2</ele>
        <time>2023-10-31T09:03:28Z</time>
      </trkpt>
      <trkpt lat="42.80011" lon="-0.03098">
        <ele>1723.4</ele>
        <time>2023-10-31T09:03:29Z</time>
      </trkpt>
      <trkpt lat="42.80012" lon="-0.03097">
        <ele>1723.6</ele>
        <time>2023-10-31T09:03:30Z</time>
      </trkpt>
      <trkpt lat="42.80012" lon="-0.03097">
        <ele>1723.7</ele>
        <time>2023-10-31T09:03:31Z</time>
      </trkpt>
      <trkpt lat="42.80013" lon="-0.03098">
        <ele>1723.9</ele>
        <time>2023-10-31T09:03:32Z</time>
      </trkpt>
      <trkpt lat="42.80013" lon="-0.03099">
        <ele>1724.1</ele>
        <time>2023-10-31T09:03:33Z</time>
      </trkpt>
      <trkpt lat="42.80013" lon="-0.031">
        <ele>1724.3</ele>
        <time>2023-10-31T09:03:34Z</time>
      </trkpt>
      <trkpt lat="42.80014" lon="-0.03101">
        <ele>1724.5</ele>
        <time>2023-10-31T09:03:35Z</time>
      </trkpt>
      <trkpt lat="42.80014" lon="-0.03102">
        <ele>1724.7</ele>
        <time>2023-10-31T09:03:36Z</time>
      </trkpt>
      <trkpt lat="42.80013" lon="-0.03103">
        <ele>1724.8</ele>
        <time>2023-10-31T09:03:37Z</time>
      </trkpt>
      <trkpt lat="42.80013" lon="-0.03103">
        <ele>1725</ele>
        <time>2023-10-31T09:03:38Z</time>
      </trkpt>
      <trkpt lat="42.80013" lon="-0.03105">
        <ele>1725.2</ele>
        <time>2023-10-31T09:03:39Z</time>
      </trkpt>
      <trkpt lat="42.80013" lon="-0.03105">
        <ele>1725.3</ele>
        <time>2023-10-31T09:03:40Z</time>
      </trkpt>
      <trkpt lat="42.80014" lon="-0.03106">
        <ele>1725.4</ele>
        <time>2023-10-31T09:03:41Z</time>
      </trkpt>
      <trkpt lat="42.80014" lon="-0.03107">
        <ele>1725.6</ele>
        <time>2023-10-31T09:03:42Z</time>
      </trkpt>
      <trkpt lat="42.80014" lon="-0.03107">
        <ele>1725.6</ele>
        <time>2023-10-31T09:03:43Z</time>
      </trkpt>
      <trkpt lat="42.80014" lon="-0.03108">
        <ele>1725.8</ele>
        <time>2023-10-31T09:03:44Z</time>
      </trkpt>
      <trkpt lat="42.80014" lon="-0.03109">
        <ele>1725.9</ele>
        <time>2023-10-31T09:03:45Z</time>
      </trkpt>
      <trkpt lat="42.80014" lon="-0.0311">
        <ele>1726</ele>
        <time>2023-10-31T09:03:46Z</time>
      </trkpt>
      <trkpt lat="42.80014" lon="-0.0311">
        <ele>1726.2</ele>
        <time>2023-10-31T09:03:47Z</time>
      </trkpt>
      <trkpt lat="42.80014" lon="-0.03111">
        <ele>1726.3</ele>
        <time>2023-10-31T09:03:48Z</time>
      </trkpt>
      <trkpt lat="42.80014" lon="-0.03112">
        <ele>1726.3</ele>
        <time>2023-10-31T09:03:49Z</time>
      </trkpt>
      <trkpt lat="42.80014" lon="-0.03113">
        <ele>1726.5</ele>
        <time>2023-10-31T09:03:50Z</time>
      </trkpt>
      <trkpt lat="42.80013" lon="-0.03114">
        <ele>1726.7</ele>
        <time>2023-10-31T09:03:51Z</time>
      </trkpt>
      <trkpt lat="42.80013" lon="-0.03115">
        <ele>1726.8</ele>
        <time>2023-10-31T09:03:52Z</time>
      </trkpt>
      <trkpt lat="42.80013" lon="-0.03116">
        <ele>1727</ele>
        <time>2023-10-31T09:03:53Z</time>
      </trkpt>
      <trkpt lat="42.80013" lon="-0.03117">
        <ele>1727.1</ele>
        <time>2023-10-31T09:03:54Z</time>
      </trkpt>
      <trkpt lat="42.80013" lon="-0.03117">
        <ele>1727.2</ele>
        <time>2023-10-31T09:03:55Z</time>
      </trkpt>
      <trkpt lat="42.80012" lon="-0.03119">
        <ele>1727.4</ele>
        <time>2023-10-31T09:03:56Z</time>
      </trkpt>
      <trkpt lat="42.80012" lon="-0.0312">
        <ele>1727.5</ele>
        <time>2023-10-31T09:03:57Z</time>
      </trkpt>
      <trkpt lat="42.80012" lon="-0.0312">
        <ele>1727.6</ele>
        <time>2023-10-31T09:03:58Z</time>
      </trkpt>
      <trkpt lat="42.80012" lon="-0.03121">
        <ele>1727.7</ele>
        <time>2023-10-31T09:03:59Z</time>
      </trkpt>
      <trkpt lat="42.80012" lon="-0.03122">
        <ele>1727.8</ele>
        <time>2023-10-31T09:04:00Z</time>
      </trkpt>
      <trkpt lat="42.80012" lon="-0.03123">
        <ele>1727.9</ele>
        <time>2023-10-31T09:04:01Z</time>
      </trkpt>
      <trkpt lat="42.80012" lon="-0.03124">
        <ele>1728.1</ele>
        <time>2023-10-31T09:04:02Z</time>
      </trkpt>
      <trkpt lat="42.80013" lon="-0.03125">
        <ele>1728.2</ele>
        <time>2023-10-31T09:04:03Z</time>
      </trkpt>
      <trkpt lat="42.80013" lon="-0.03124">
        <ele>1728.3</ele>
        <time>2023-10-31T09:04:04Z</time>
      </trkpt>
      <trkpt lat="42.80014" lon="-0.03124">
        <ele>1728.5</ele>
        <time>2023-10-31T09:04:05Z</time>
      </trkpt>
      <trkpt lat="42.80014" lon="-0.03124">
        <ele>1728.5</ele>
        <time>2023-10-31T09:04:06Z</time>
      </trkpt>
      <trkpt lat="42.80015" lon="-0.03121">
        <ele>1728.9</ele>
        <time>2023-10-31T09:04:07Z</time>
      </trkpt>
      <trkpt lat="42.80016" lon="-0.03121">
        <ele>1729</ele>
        <time>2023-10-31T09:04:08Z</time>
      </trkpt>
      <trkpt lat="42.80016" lon="-0.03121">
        <ele>1729.1</ele>
        <time>2023-10-31T09:04:09Z</time>
      </trkpt>
      <trkpt lat="42.80017" lon="-0.03121">
        <ele>1729.2</ele>
        <time>2023-10-31T09:04:10Z</time>
      </trkpt>
      <trkpt lat="42.80018" lon="-0.03121">
        <ele>1729.3</ele>
        <time>2023-10-31T09:04:11Z</time>
      </trkpt>
      <trkpt lat="42.80019" lon="-0.03121">
        <ele>1729.4</ele>
        <time>2023-10-31T09:04:12Z</time>
      </trkpt>
      <trkpt lat="42.80019" lon="-0.0312">
        <ele>1729.5</ele>
        <time>2023-10-31T09:04:13Z</time>
      </trkpt>
      <trkpt lat="42.8002" lon="-0.0312">
        <ele>1729.6</ele>
        <time>2023-10-31T09:04:14Z</time>
      </trkpt>
      <trkpt lat="42.8002" lon="-0.0312">
        <ele>1729.7</ele>
        <time>2023-10-31T09:04:15Z</time>
      </trkpt>
      <trkpt lat="42.8002" lon="-0.03119">
        <ele>1729.8</ele>
        <time>2023-10-31T09:04:16Z</time>
      </trkpt>
      <trkpt lat="42.80021" lon="-0.03119">
        <ele>1729.9</ele>
        <time>2023-10-31T09:04:17Z</time>
      </trkpt>
      <trkpt lat="42.80022" lon="-0.03118">
        <ele>1730</ele>
        <time>2023-10-31T09:04:18Z</time>
      </trkpt>
      <trkpt lat="42.80022" lon="-0.03117">
        <ele>1730.2</ele>
        <time>2023-10-31T09:04:19Z</time>
      </trkpt>
      <trkpt lat="42.80023" lon="-0.03116">
        <ele>1730.3</ele>
        <time>2023-10-31T09:04:20Z</time>
      </trkpt>
      <trkpt lat="42.80023" lon="-0.03116">
        <ele>1730.4</ele>
        <time>2023-10-31T09:04:21Z</time>
      </trkpt>
      <trkpt lat="42.80024" lon="-0.03115">
        <ele>1730.5</ele>
        <time>2023-10-31T09:04:22Z</time>
      </trkpt>
      <trkpt lat="42.80025" lon="-0.03114">
        <ele>1730.7</ele>
        <time>2023-10-31T09:04:23Z</time>
      </trkpt>
      <trkpt lat="42.80026" lon="-0.03114">
        <ele>1730.8</ele>
        <time>2023-10-31T09:04:24Z</time>
      </trkpt>
      <trkpt lat="42.80026" lon="-0.03114">
        <ele>1730.9</ele>
        <time>2023-10-31T09:04:25Z</time>
      </trkpt>
      <trkpt lat="42.80027" lon="-0.03114">
        <ele>1731.1</ele>
        <time>2023-10-31T09:04:26Z</time>
      </trkpt>
      <trkpt lat="42.80027" lon="-0.03114">
        <ele>1731.1</ele>
        <time>2023-10-31T09:04:27Z</time>
      </trkpt>
      <trkpt lat="42.80028" lon="-0.03115">
        <ele>1731.2</ele>
        <time>2023-10-31T09:04:28Z</time>
      </trkpt>
      <trkpt lat="42.80028" lon="-0.03115">
        <ele>1731.3</ele>
        <time>2023-10-31T09:04:29Z</time>
      </trkpt>
      <trkpt lat="42.80029" lon="-0.03115">
        <ele>1731.4</ele>
        <time>2023-10-31T09:04:30Z</time>
      </trkpt>
      <trkpt lat="42.80029" lon="-0.03115">
        <ele>1731.5</ele>
        <time>2023-10-31T09:04:31Z</time>
      </trkpt>
      <trkpt lat="42.80029" lon="-0.03115">
        <ele>1731.6</ele>
        <time>2023-10-31T09:04:32Z</time>
      </trkpt>
      <trkpt lat="42.8003" lon="-0.03116">
        <ele>1731.7</ele>
        <time>2023-10-31T09:04:33Z</time>
      </trkpt>
      <trkpt lat="42.8003" lon="-0.03116">
        <ele>1731.8</ele>
        <time>2023-10-31T09:04:34Z</time>
      </trkpt>
      <trkpt lat="42.80031" lon="-0.03117">
        <ele>1731.9</ele>
        <time>2023-10-31T09:04:35Z</time>
      </trkpt>
      <trkpt lat="42.80031" lon="-0.03117">
        <ele>1732</ele>
        <time>2023-10-31T09:04:36Z</time>
      </trkpt>
      <trkpt lat="42.80032" lon="-0.03116">
        <ele>1732.1</ele>
        <time>2023-10-31T09:04:37Z</time>
      </trkpt>
      <trkpt lat="42.80032" lon="-0.03116">
        <ele>1732.1</ele>
        <time>2023-10-31T09:04:38Z</time>
      </trkpt>
      <trkpt lat="42.80032" lon="-0.03116">
        <ele>1732.2</ele>
        <time>2023-10-31T09:04:39Z</time>
      </trkpt>
      <trkpt lat="42.80033" lon="-0.03117">
        <ele>1732.4</ele>
        <time>2023-10-31T09:04:40Z</time>
      </trkpt>
      <trkpt lat="42.80033" lon="-0.03117">
        <ele>1732.4</ele>
        <time>2023-10-31T09:04:41Z</time>
      </trkpt>
      <trkpt lat="42.80034" lon="-0.03116">
        <ele>1732.6</ele>
        <time>2023-10-31T09:04:42Z</time>
      </trkpt>
      <trkpt lat="42.80034" lon="-0.03116">
        <ele>1732.6</ele>
        <time>2023-10-31T09:04:43Z</time>
      </trkpt>
      <trkpt lat="42.80035" lon="-0.03115">
        <ele>1732.7</ele>
        <time>2023-10-31T09:04:44Z</time>
      </trkpt>
      <trkpt lat="42.80035" lon="-0.03115">
        <ele>1732.8</ele>
        <time>2023-10-31T09:04:45Z</time>
      </trkpt>
      <trkpt lat="42.80036" lon="-0.03117">
        <ele>1733</ele>
        <time>2023-10-31T09:04:46Z</time>
      </trkpt>
      <trkpt lat="42.80036" lon="-0.03117">
        <ele>1733.2</ele>
        <time>2023-10-31T09:04:47Z</time>
      </trkpt>
      <trkpt lat="42.80037" lon="-0.03117">
        <ele>1733.3</ele>
        <time>2023-10-31T09:04:48Z</time>
      </trkpt>
      <trkpt lat="42.80037" lon="-0.03117">
        <ele>1733.4</ele>
        <time>2023-10-31T09:04:49Z</time>
      </trkpt>
      <trkpt lat="42.80037" lon="-0.03116">
        <ele>1733.5</ele>
        <time>2023-10-31T09:04:50Z</time>
      </trkpt>
      <trkpt lat="42.80037" lon="-0.03115">
        <ele>1733.6</ele>
        <time>2023-10-31T09:04:51Z</time>
      </trkpt>
      <trkpt lat="42.80038" lon="-0.03114">
        <ele>1733.8</ele>
        <time>2023-10-31T09:04:52Z</time>
      </trkpt>
      <trkpt lat="42.80037" lon="-0.03114">
        <ele>1733.8</ele>
        <time>2023-10-31T09:04:53Z</time>
      </trkpt>
      <trkpt lat="42.80038" lon="-0.03113">
        <ele>1734</ele>
        <time>2023-10-31T09:04:54Z</time>
      </trkpt>
      <trkpt lat="42.80039" lon="-0.03113">
        <ele>1734.1</ele>
        <time>2023-10-31T09:04:55Z</time>
      </trkpt>
      <trkpt lat="42.80038" lon="-0.03113">
        <ele>1734.2</ele>
        <time>2023-10-31T09:04:56Z</time>
      </trkpt>
      <trkpt lat="42.8004" lon="-0.03113">
        <ele>1734.6</ele>
        <time>2023-10-31T09:04:57Z</time>
      </trkpt>
      <trkpt lat="42.8004" lon="-0.03113">
        <ele>1734.7</ele>
        <time>2023-10-31T09:04:58Z</time>
      </trkpt>
      <trkpt lat="42.8004" lon="-0.03112">
        <ele>1734.7</ele>
        <time>2023-10-31T09:04:59Z</time>
      </trkpt>
      <trkpt lat="42.8004" lon="-0.03112">
        <ele>1734.8</ele>
        <time>2023-10-31T09:05:00Z</time>
      </trkpt>
      <trkpt lat="42.8004" lon="-0.03112">
        <ele>1734.9</ele>
        <time>2023-10-31T09:05:01Z</time>
      </trkpt>
      <trkpt lat="42.80041" lon="-0.03111">
        <ele>1735.1</ele>
        <time>2023-10-31T09:05:02Z</time>
      </trkpt>
      <trkpt lat="42.80042" lon="-0.03111">
        <ele>1735.2</ele>
        <time>2023-10-31T09:05:03Z</time>
      </trkpt>
      <trkpt lat="42.80042" lon="-0.03111">
        <ele>1735.3</ele>
        <time>2023-10-31T09:05:04Z</time>
      </trkpt>
      <trkpt lat="42.80042" lon="-0.0311">
        <ele>1735.5</ele>
        <time>2023-10-31T09:05:05Z</time>
      </trkpt>
      <trkpt lat="42.80043" lon="-0.03109">
        <ele>1735.7</ele>
        <time>2023-10-31T09:05:06Z</time>
      </trkpt>
      <trkpt lat="42.80043" lon="-0.03108">
        <ele>1735.9</ele>
        <time>2023-10-31T09:05:07Z</time>
      </trkpt>
      <trkpt lat="42.80044" lon="-0.03107">
        <ele>1736.2</ele>
        <time>2023-10-31T09:05:08Z</time>
      </trkpt>
      <trkpt lat="42.80044" lon="-0.03106">
        <ele>1736.4</ele>
        <time>2023-10-31T09:05:09Z</time>
      </trkpt>
      <trkpt lat="42.80045" lon="-0.03105">
        <ele>1736.7</ele>
        <time>2023-10-31T09:05:10Z</time>
      </trkpt>
      <trkpt lat="42.80045" lon="-0.03104">
        <ele>1736.9</ele>
        <time>2023-10-31T09:05:11Z</time>
      </trkpt>
      <trkpt lat="42.80046" lon="-0.03103">
        <ele>1737.1</ele>
        <time>2023-10-31T09:05:12Z</time>
      </trkpt>
      <trkpt lat="42.80047" lon="-0.03102">
        <ele>1737.3</ele>
        <time>2023-10-31T09:05:13Z</time>
      </trkpt>
      <trkpt lat="42.80047" lon="-0.03102">
        <ele>1737.6</ele>
        <time>2023-10-31T09:05:14Z</time>
      </trkpt>
      <trkpt lat="42.80048" lon="-0.03102">
        <ele>1737.7</ele>
        <time>2023-10-31T09:05:15Z</time>
      </trkpt>
      <trkpt lat="42.80049" lon="-0.03101">
        <ele>1738</ele>
        <time>2023-10-31T09:05:16Z</time>
      </trkpt>
      <trkpt lat="42.80049" lon="-0.03101">
        <ele>1738.2</ele>
        <time>2023-10-31T09:05:17Z</time>
      </trkpt>
      <trkpt lat="42.8005" lon="-0.031">
        <ele>1738.5</ele>
        <time>2023-10-31T09:05:18Z</time>
      </trkpt>
      <trkpt lat="42.8005" lon="-0.03098">
        <ele>1738.7</ele>
        <time>2023-10-31T09:05:19Z</time>
      </trkpt>
      <trkpt lat="42.8005" lon="-0.03097">
        <ele>1739</ele>
        <time>2023-10-31T09:05:20Z</time>
      </trkpt>
      <trkpt lat="42.80051" lon="-0.03096">
        <ele>1739.4</ele>
        <time>2023-10-31T09:05:21Z</time>
      </trkpt>
      <trkpt lat="42.80051" lon="-0.03095">
        <ele>1739.6</ele>
        <time>2023-10-31T09:05:22Z</time>
      </trkpt>
      <trkpt lat="42.80051" lon="-0.03094">
        <ele>1739.8</ele>
        <time>2023-10-31T09:05:23Z</time>
      </trkpt>
      <trkpt lat="42.80052" lon="-0.03094">
        <ele>1740</ele>
        <time>2023-10-31T09:05:24Z</time>
      </trkpt>
      <trkpt lat="42.80053" lon="-0.03094">
        <ele>1740.3</ele>
        <time>2023-10-31T09:05:25Z</time>
      </trkpt>
      <trkpt lat="42.80054" lon="-0.03095">
        <ele>1740.5</ele>
        <time>2023-10-31T09:05:26Z</time>
      </trkpt>
      <trkpt lat="42.80054" lon="-0.03095">
        <ele>1740.7</ele>
        <time>2023-10-31T09:05:27Z</time>
      </trkpt>
      <trkpt lat="42.80055" lon="-0.03095">
        <ele>1740.9</ele>
        <time>2023-10-31T09:05:28Z</time>
      </trkpt>
      <trkpt lat="42.80056" lon="-0.03095">
        <ele>1741.2</ele>
        <time>2023-10-31T09:05:29Z</time>
      </trkpt>
      <trkpt lat="42.80057" lon="-0.03095">
        <ele>1741.4</ele>
        <time>2023-10-31T09:05:30Z</time>
      </trkpt>
      <trkpt lat="42.80057" lon="-0.03094">
        <ele>1741.7</ele>
        <time>2023-10-31T09:05:31Z</time>
      </trkpt>
      <trkpt lat="42.80058" lon="-0.03095">
        <ele>1742</ele>
        <time>2023-10-31T09:05:32Z</time>
      </trkpt>
      <trkpt lat="42.80059" lon="-0.03094">
        <ele>1742.2</ele>
        <time>2023-10-31T09:05:33Z</time>
      </trkpt>
      <trkpt lat="42.8006" lon="-0.03094">
        <ele>1742.4</ele>
        <time>2023-10-31T09:05:34Z</time>
      </trkpt>
      <trkpt lat="42.80061" lon="-0.03094">
        <ele>1742.6</ele>
        <time>2023-10-31T09:05:35Z</time>
      </trkpt>
      <trkpt lat="42.80061" lon="-0.03094">
        <ele>1742.8</ele>
        <time>2023-10-31T09:05:36Z</time>
      </trkpt>
      <trkpt lat="42.80062" lon="-0.03093">
        <ele>1743.1</ele>
        <time>2023-10-31T09:05:37Z</time>
      </trkpt>
      <trkpt lat="42.80063" lon="-0.03092">
        <ele>1743.4</ele>
        <time>2023-10-31T09:05:38Z</time>
      </trkpt>
      <trkpt lat="42.80064" lon="-0.03092">
        <ele>1743.7</ele>
        <time>2023-10-31T09:05:39Z</time>
      </trkpt>
      <trkpt lat="42.80064" lon="-0.03092">
        <ele>1743.9</ele>
        <time>2023-10-31T09:05:40Z</time>
      </trkpt>
      <trkpt lat="42.80065" lon="-0.03093">
        <ele>1744</ele>
        <time>2023-10-31T09:05:41Z</time>
      </trkpt>
      <trkpt lat="42.80065" lon="-0.03093">
        <ele>1744.2</ele>
        <time>2023-10-31T09:05:42Z</time>
      </trkpt>
      <trkpt lat="42.80066" lon="-0.03094">
        <ele>1744.4</ele>
        <time>2023-10-31T09:05:43Z</time>
      </trkpt>
      <trkpt lat="42.80066" lon="-0.03093">
        <ele>1744.6</ele>
        <time>2023-10-31T09:05:44Z</time>
      </trkpt>
      <trkpt lat="42.80067" lon="-0.03093">
        <ele>1744.8</ele>
        <time>2023-10-31T09:05:45Z</time>
      </trkpt>
      <trkpt lat="42.80068" lon="-0.03093">
        <ele>1745</ele>
        <time>2023-10-31T09:05:46Z</time>
      </trkpt>
      <trkpt lat="42.80068" lon="-0.03093">
        <ele>1745.2</ele>
        <time>2023-10-31T09:05:47Z</time>
      </trkpt>
      <trkpt lat="42.80069" lon="-0.03092">
        <ele>1745.4</ele>
        <time>2023-10-31T09:05:48Z</time>
      </trkpt>
      <trkpt lat="42.8007" lon="-0.03093">
        <ele>1745.5</ele>
        <time>2023-10-31T09:05:49Z</time>
      </trkpt>
      <trkpt lat="42.8007" lon="-0.03093">
        <ele>1745.7</ele>
        <time>2023-10-31T09:05:50Z</time>
      </trkpt>
      <trkpt lat="42.8007" lon="-0.03093">
        <ele>1745.8</ele>
        <time>2023-10-31T09:05:51Z</time>
      </trkpt>
      <trkpt lat="42.80071" lon="-0.03094">
        <ele>1745.9</ele>
        <time>2023-10-31T09:05:52Z</time>
      </trkpt>
      <trkpt lat="42.80071" lon="-0.03094">
        <ele>1746.1</ele>
        <time>2023-10-31T09:05:53Z</time>
      </trkpt>
      <trkpt lat="42.80072" lon="-0.03094">
        <ele>1746.2</ele>
        <time>2023-10-31T09:05:54Z</time>
      </trkpt>
      <trkpt lat="42.80072" lon="-0.03094">
        <ele>1746.4</ele>
        <time>2023-10-31T09:05:55Z</time>
      </trkpt>
      <trkpt lat="42.80073" lon="-0.03094">
        <ele>1746.5</ele>
        <time>2023-10-31T09:05:56Z</time>
      </trkpt>
      <trkpt lat="42.80073" lon="-0.03094">
        <ele>1746.7</ele>
        <time>2023-10-31T09:05:57Z</time>
      </trkpt>
      <trkpt lat="42.80074" lon="-0.03093">
        <ele>1746.9</ele>
        <time>2023-10-31T09:05:58Z</time>
      </trkpt>
      <trkpt lat="42.80075" lon="-0.03093">
        <ele>1747.2</ele>
        <time>2023-10-31T09:05:59Z</time>
      </trkpt>
      <trkpt lat="42.80075" lon="-0.03092">
        <ele>1747.3</ele>
        <time>2023-10-31T09:06:00Z</time>
      </trkpt>
      <trkpt lat="42.80076" lon="-0.03092">
        <ele>1747.5</ele>
        <time>2023-10-31T09:06:01Z</time>
      </trkpt>
      <trkpt lat="42.80077" lon="-0.03091">
        <ele>1747.9</ele>
        <time>2023-10-31T09:06:02Z</time>
      </trkpt>
      <trkpt lat="42.80077" lon="-0.03091">
        <ele>1748</ele>
        <time>2023-10-31T09:06:03Z</time>
      </trkpt>
      <trkpt lat="42.80078" lon="-0.03091">
        <ele>1748.3</ele>
        <time>2023-10-31T09:06:04Z</time>
      </trkpt>
      <trkpt lat="42.80078" lon="-0.03091">
        <ele>1748.5</ele>
        <time>2023-10-31T09:06:05Z</time>
      </trkpt>
      <trkpt lat="42.80078" lon="-0.03092">
        <ele>1748.6</ele>
        <time>2023-10-31T09:06:06Z</time>
      </trkpt>
      <trkpt lat="42.80079" lon="-0.03093">
        <ele>1748.9</ele>
        <time>2023-10-31T09:06:07Z</time>
      </trkpt>
      <trkpt lat="42.80079" lon="-0.03094">
        <ele>1749.1</ele>
        <time>2023-10-31T09:06:08Z</time>
      </trkpt>
      <trkpt lat="42.80079" lon="-0.03095">
        <ele>1749.2</ele>
        <time>2023-10-31T09:06:09Z</time>
      </trkpt>
      <trkpt lat="42.80078" lon="-0.03096">
        <ele>1749.4</ele>
        <time>2023-10-31T09:06:10Z</time>
      </trkpt>
      <trkpt lat="42.80078" lon="-0.03097">
        <ele>1749.6</ele>
        <time>2023-10-31T09:06:11Z</time>
      </trkpt>
      <trkpt lat="42.80078" lon="-0.03097">
        <ele>1749.7</ele>
        <time>2023-10-31T09:06:12Z</time>
      </trkpt>
      <trkpt lat="42.80078" lon="-0.03097">
        <ele>1749.8</ele>
        <time>2023-10-31T09:06:13Z</time>
      </trkpt>
      <trkpt lat="42.80078" lon="-0.03098">
        <ele>1749.8</ele>
        <time>2023-10-31T09:06:14Z</time>
      </trkpt>
      <trkpt lat="42.80078" lon="-0.03099">
        <ele>1749.9</ele>
        <time>2023-10-31T09:06:15Z</time>
      </trkpt>
      <trkpt lat="42.80078" lon="-0.03099">
        <ele>1750</ele>
        <time>2023-10-31T09:06:16Z</time>
      </trkpt>
      <trkpt lat="42.80078" lon="-0.031">
        <ele>1750.2</ele>
        <time>2023-10-31T09:06:17Z</time>
      </trkpt>
      <trkpt lat="42.80078" lon="-0.031">
        <ele>1750.3</ele>
        <time>2023-10-31T09:06:18Z</time>
      </trkpt>
      <trkpt lat="42.80078" lon="-0.03101">
        <ele>1750.4</ele>
        <time>2023-10-31T09:06:19Z</time>
      </trkpt>
      <trkpt lat="42.80078" lon="-0.03102">
        <ele>1750.6</ele>
        <time>2023-10-31T09:06:20Z</time>
      </trkpt>
      <trkpt lat="42.80079" lon="-0.03102">
        <ele>1750.8</ele>
        <time>2023-10-31T09:06:21Z</time>
      </trkpt>
      <trkpt lat="42.80079" lon="-0.03102">
        <ele>1750.9</ele>
        <time>2023-10-31T09:06:22Z</time>
      </trkpt>
      <trkpt lat="42.8008" lon="-0.03102">
        <ele>1751</ele>
        <time>2023-10-31T09:06:23Z</time>
      </trkpt>
      <trkpt lat="42.8008" lon="-0.03103">
        <ele>1751.2</ele>
        <time>2023-10-31T09:06:24Z</time>
      </trkpt>
      <trkpt lat="42.80081" lon="-0.03102">
        <ele>1751.3</ele>
        <time>2023-10-31T09:06:25Z</time>
      </trkpt>
      <trkpt lat="42.80082" lon="-0.03102">
        <ele>1751.5</ele>
        <time>2023-10-31T09:06:26Z</time>
      </trkpt>
      <trkpt lat="42.80081" lon="-0.03102">
        <ele>1751.5</ele>
        <time>2023-10-31T09:06:27Z</time>
      </trkpt>
      <trkpt lat="42.80081" lon="-0.03103">
        <ele>1751.6</ele>
        <time>2023-10-31T09:06:28Z</time>
      </trkpt>
      <trkpt lat="42.80081" lon="-0.03103">
        <ele>1751.7</ele>
        <time>2023-10-31T09:06:29Z</time>
      </trkpt>
      <trkpt lat="42.80081" lon="-0.03104">
        <ele>1751.8</ele>
        <time>2023-10-31T09:06:30Z</time>
      </trkpt>
      <trkpt lat="42.80082" lon="-0.03104">
        <ele>1752</ele>
        <time>2023-10-31T09:06:31Z</time>
      </trkpt>
      <trkpt lat="42.80081" lon="-0.03105">
        <ele>1752</ele>
        <time>2023-10-31T09:06:32Z</time>
      </trkpt>
      <trkpt lat="42.80081" lon="-0.03106">
        <ele>1752.1</ele>
        <time>2023-10-31T09:06:33Z</time>
      </trkpt>
      <trkpt lat="42.80081" lon="-0.03106">
        <ele>1752.3</ele>
        <time>2023-10-31T09:06:34Z</time>
      </trkpt>
      <trkpt lat="42.80081" lon="-0.03107">
        <ele>1752.3</ele>
        <time>2023-10-31T09:06:35Z</time>
      </trkpt>
      <trkpt lat="42.80081" lon="-0.03108">
        <ele>1752.5</ele>
        <time>2023-10-31T09:06:36Z</time>
      </trkpt>
      <trkpt lat="42.8008" lon="-0.03108">
        <ele>1752.6</ele>
        <time>2023-10-31T09:06:37Z</time>
      </trkpt>
      <trkpt lat="42.8008" lon="-0.03109">
        <ele>1752.7</ele>
        <time>2023-10-31T09:06:38Z</time>
      </trkpt>
      <trkpt lat="42.8008" lon="-0.03109">
        <ele>1752.8</ele>
        <time>2023-10-31T09:06:39Z</time>
      </trkpt>
      <trkpt lat="42.8008" lon="-0.0311">
        <ele>1752.9</ele>
        <time>2023-10-31T09:06:40Z</time>
      </trkpt>
      <trkpt lat="42.8008" lon="-0.03111">
        <ele>1753</ele>
        <time>2023-10-31T09:06:41Z</time>
      </trkpt>
      <trkpt lat="42.8008" lon="-0.03112">
        <ele>1753.2</ele>
        <time>2023-10-31T09:06:42Z</time>
      </trkpt>
      <trkpt lat="42.8008" lon="-0.03112">
        <ele>1753.3</ele>
        <time>2023-10-31T09:06:43Z</time>
      </trkpt>
      <trkpt lat="42.80079" lon="-0.03113">
        <ele>1753.5</ele>
        <time>2023-10-31T09:06:44Z</time>
      </trkpt>
      <trkpt lat="42.80079" lon="-0.03114">
        <ele>1753.6</ele>
        <time>2023-10-31T09:06:45Z</time>
      </trkpt>
      <trkpt lat="42.8008" lon="-0.03115">
        <ele>1753.7</ele>
        <time>2023-10-31T09:06:46Z</time>
      </trkpt>
      <trkpt lat="42.8008" lon="-0.03116">
        <ele>1753.8</ele>
        <time>2023-10-31T09:06:47Z</time>
      </trkpt>
      <trkpt lat="42.8008" lon="-0.03116">
        <ele>1753.9</ele>
        <time>2023-10-31T09:06:48Z</time>
      </trkpt>
      <trkpt lat="42.8008" lon="-0.03116">
        <ele>1754</ele>
        <time>2023-10-31T09:06:49Z</time>
      </trkpt>
      <trkpt lat="42.8008" lon="-0.03117">
        <ele>1754.1</ele>
        <time>2023-10-31T09:06:50Z</time>
      </trkpt>
      <trkpt lat="42.8008" lon="-0.03117">
        <ele>1754.1</ele>
        <time>2023-10-31T09:06:51Z</time>
      </trkpt>
      <trkpt lat="42.8008" lon="-0.03117">
        <ele>1754.1</ele>
        <time>2023-10-31T09:06:52Z</time>
      </trkpt>
      <trkpt lat="42.8008" lon="-0.03117">
        <ele>1754.2</ele>
        <time>2023-10-31T09:06:53Z</time>
      </trkpt>
      <trkpt lat="42.8008" lon="-0.03118">
        <ele>1754.3</ele>
        <time>2023-10-31T09:06:54Z</time>
      </trkpt>
      <trkpt lat="42.8008" lon="-0.03118">
        <ele>1754.3</ele>
        <time>2023-10-31T09:06:55Z</time>
      </trkpt>
      <trkpt lat="42.8008" lon="-0.03118">
        <ele>1754.4</ele>
        <time>2023-10-31T09:06:56Z</time>
      </trkpt>
      <trkpt lat="42.8008" lon="-0.03118">
        <ele>1754.4</ele>
        <time>2023-10-31T09:06:57Z</time>
      </trkpt>
      <trkpt lat="42.80079" lon="-0.03118">
        <ele>1754.5</ele>
        <time>2023-10-31T09:06:58Z</time>
      </trkpt>
      <trkpt lat="42.80079" lon="-0.03118">
        <ele>1754.6</ele>
        <time>2023-10-31T09:06:59Z</time>
      </trkpt>
      <trkpt lat="42.80078" lon="-0.03118">
        <ele>1754.7</ele>
        <time>2023-10-31T09:07:00Z</time>
      </trkpt>
      <trkpt lat="42.80078" lon="-0.03118">
        <ele>1754.8</ele>
        <time>2023-10-31T09:07:01Z</time>
      </trkpt>
      <trkpt lat="42.80077" lon="-0.03118">
        <ele>1754.9</ele>
        <time>2023-10-31T09:07:02Z</time>
      </trkpt>
      <trkpt lat="42.80076" lon="-0.03119">
        <ele>1755</ele>
        <time>2023-10-31T09:07:03Z</time>
      </trkpt>
      <trkpt lat="42.80076" lon="-0.0312">
        <ele>1755.1</ele>
        <time>2023-10-31T09:07:04Z</time>
      </trkpt>
      <trkpt lat="42.80075" lon="-0.0312">
        <ele>1755.2</ele>
        <time>2023-10-31T09:07:05Z</time>
      </trkpt>
      <trkpt lat="42.80075" lon="-0.03121">
        <ele>1755.4</ele>
        <time>2023-10-31T09:07:06Z</time>
      </trkpt>
      <trkpt lat="42.80075" lon="-0.03122">
        <ele>1755.5</ele>
        <time>2023-10-31T09:07:07Z</time>
      </trkpt>
      <trkpt lat="42.80074" lon="-0.03123">
        <ele>1755.6</ele>
        <time>2023-10-31T09:07:08Z</time>
      </trkpt>
      <trkpt lat="42.80074" lon="-0.03124">
        <ele>1755.7</ele>
        <time>2023-10-31T09:07:09Z</time>
      </trkpt>
      <trkpt lat="42.80074" lon="-0.03125">
        <ele>1755.9</ele>
        <time>2023-10-31T09:07:10Z</time>
      </trkpt>
      <trkpt lat="42.80074" lon="-0.03126">
        <ele>1756</ele>
        <time>2023-10-31T09:07:11Z</time>
      </trkpt>
      <trkpt lat="42.80074" lon="-0.03126">
        <ele>1756</ele>
        <time>2023-10-31T09:07:12Z</time>
      </trkpt>
      <trkpt lat="42.80074" lon="-0.03127">
        <ele>1756.1</ele>
        <time>2023-10-31T09:07:13Z</time>
      </trkpt>
      <trkpt lat="42.80074" lon="-0.03128">
        <ele>1756.2</ele>
        <time>2023-10-31T09:07:14Z</time>
      </trkpt>
      <trkpt lat="42.80074" lon="-0.03129">
        <ele>1756.3</ele>
        <time>2023-10-31T09:07:15Z</time>
      </trkpt>
      <trkpt lat="42.80075" lon="-0.03129">
        <ele>1756.4</ele>
        <time>2023-10-31T09:07:16Z</time>
      </trkpt>
      <trkpt lat="42.80075" lon="-0.0313">
        <ele>1756.6</ele>
        <time>2023-10-31T09:07:17Z</time>
      </trkpt>
      <trkpt lat="42.80075" lon="-0.03131">
        <ele>1756.7</ele>
        <time>2023-10-31T09:07:18Z</time>
      </trkpt>
      <trkpt lat="42.80076" lon="-0.03132">
        <ele>1756.7</ele>
        <time>2023-10-31T09:07:19Z</time>
      </trkpt>
      <trkpt lat="42.80076" lon="-0.03132">
        <ele>1756.8</ele>
        <time>2023-10-31T09:07:20Z</time>
      </trkpt>
      <trkpt lat="42.80076" lon="-0.03132">
        <ele>1756.9</ele>
        <time>2023-10-31T09:07:21Z</time>
      </trkpt>
      <trkpt lat="42.80077" lon="-0.03133">
        <ele>1757</ele>
        <time>2023-10-31T09:07:22Z</time>
      </trkpt>
      <trkpt lat="42.80078" lon="-0.03133">
        <ele>1757.1</ele>
        <time>2023-10-31T09:07:23Z</time>
      </trkpt>
      <trkpt lat="42.80078" lon="-0.03134">
        <ele>1757.2</ele>
        <time>2023-10-31T09:07:24Z</time>
      </trkpt>
      <trkpt lat="42.80079" lon="-0.03134">
        <ele>1757.4</ele>
        <time>2023-10-31T09:07:25Z</time>
      </trkpt>
      <trkpt lat="42.8008" lon="-0.03134">
        <ele>1757.5</ele>
        <time>2023-10-31T09:07:26Z</time>
      </trkpt>
      <trkpt lat="42.80081" lon="-0.03134">
        <ele>1757.6</ele>
        <time>2023-10-31T09:07:27Z</time>
      </trkpt>
      <trkpt lat="42.80081" lon="-0.03135">
        <ele>1757.7</ele>
        <time>2023-10-31T09:07:28Z</time>
      </trkpt>
      <trkpt lat="42.80082" lon="-0.03135">
        <ele>1757.8</ele>
        <time>2023-10-31T09:07:29Z</time>
      </trkpt>
      <trkpt lat="42.80082" lon="-0.03136">
        <ele>1757.9</ele>
        <time>2023-10-31T09:07:30Z</time>
      </trkpt>
      <trkpt lat="42.80082" lon="-0.03136">
        <ele>1757.9</ele>
        <time>2023-10-31T09:07:31Z</time>
      </trkpt>
      <trkpt lat="42.80083" lon="-0.03136">
        <ele>1758</ele>
        <time>2023-10-31T09:07:32Z</time>
      </trkpt>
      <trkpt lat="42.80083" lon="-0.03136">
        <ele>1758.1</ele>
        <time>2023-10-31T09:07:33Z</time>
      </trkpt>
      <trkpt lat="42.80084" lon="-0.03136">
        <ele>1758.1</ele>
        <time>2023-10-31T09:07:34Z</time>
      </trkpt>
      <trkpt lat="42.80084" lon="-0.03136">
        <ele>1758.2</ele>
        <time>2023-10-31T09:07:35Z</time>
      </trkpt>
      <trkpt lat="42.80085" lon="-0.03136">
        <ele>1758.3</ele>
        <time>2023-10-31T09:07:36Z</time>
      </trkpt>
      <trkpt lat="42.80085" lon="-0.03137">
        <ele>1758.4</ele>
        <time>2023-10-31T09:07:37Z</time>
      </trkpt>
      <trkpt lat="42.80086" lon="-0.03137">
        <ele>1758.5</ele>
        <time>2023-10-31T09:07:38Z</time>
      </trkpt>
      <trkpt lat="42.80086" lon="-0.03137">
        <ele>1758.5</ele>
        <time>2023-10-31T09:07:39Z</time>
      </trkpt>
      <trkpt lat="42.80086" lon="-0.03137">
        <ele>1758.6</ele>
        <time>2023-10-31T09:07:40Z</time>
      </trkpt>
      <trkpt lat="42.80087" lon="-0.03138">
        <ele>1758.7</ele>
        <time>2023-10-31T09:07:41Z</time>
      </trkpt>
      <trkpt lat="42.80088" lon="-0.03138">
        <ele>1758.8</ele>
        <time>2023-10-31T09:07:42Z</time>
      </trkpt>
      <trkpt lat="42.80088" lon="-0.03137">
        <ele>1758.8</ele>
        <time>2023-10-31T09:07:43Z</time>
      </trkpt>
      <trkpt lat="42.80088" lon="-0.03136">
        <ele>1759</ele>
        <time>2023-10-31T09:07:44Z</time>
      </trkpt>
      <trkpt lat="42.80089" lon="-0.03135">
        <ele>1759.1</ele>
        <time>2023-10-31T09:07:45Z</time>
      </trkpt>
      <trkpt lat="42.8009" lon="-0.03135">
        <ele>1759.2</ele>
        <time>2023-10-31T09:07:46Z</time>
      </trkpt>
      <trkpt lat="42.8009" lon="-0.03135">
        <ele>1759.4</ele>
        <time>2023-10-31T09:07:47Z</time>
      </trkpt>
      <trkpt lat="42.80091" lon="-0.03136">
        <ele>1759.4</ele>
        <time>2023-10-31T09:07:48Z</time>
      </trkpt>
      <trkpt lat="42.80091" lon="-0.03136">
        <ele>1759.5</ele>
        <time>2023-10-31T09:07:49Z</time>
      </trkpt>
      <trkpt lat="42.80092" lon="-0.03137">
        <ele>1759.7</ele>
        <time>2023-10-31T09:07:50Z</time>
      </trkpt>
      <trkpt lat="42.80092" lon="-0.03138">
        <ele>1759.8</ele>
        <time>2023-10-31T09:07:51Z</time>
      </trkpt>
      <trkpt lat="42.80092" lon="-0.03139">
        <ele>1759.8</ele>
        <time>2023-10-31T09:07:52Z</time>
      </trkpt>
      <trkpt lat="42.80093" lon="-0.03139">
        <ele>1759.9</ele>
        <time>2023-10-31T09:07:53Z</time>
      </trkpt>
      <trkpt lat="42.80093" lon="-0.0314">
        <ele>1760</ele>
        <time>2023-10-31T09:07:54Z</time>
      </trkpt>
      <trkpt lat="42.80094" lon="-0.0314">
        <ele>1760.1</ele>
        <time>2023-10-31T09:07:55Z</time>
      </trkpt>
      <trkpt lat="42.80094" lon="-0.03141">
        <ele>1760.2</ele>
        <time>2023-10-31T09:07:56Z</time>
      </trkpt>
      <trkpt lat="42.80094" lon="-0.03142">
        <ele>1760.3</ele>
        <time>2023-10-31T09:07:57Z</time>
      </trkpt>
      <trkpt lat="42.80095" lon="-0.03142">
        <ele>1760.4</ele>
        <time>2023-10-31T09:07:58Z</time>
      </trkpt>
      <trkpt lat="42.80096" lon="-0.03143">
        <ele>1760.5</ele>
        <time>2023-10-31T09:07:59Z</time>
      </trkpt>
      <trkpt lat="42.80096" lon="-0.03144">
        <ele>1760.6</ele>
        <time>2023-10-31T09:08:00Z</time>
      </trkpt>
      <trkpt lat="42.80097" lon="-0.03144">
        <ele>1760.8</ele>
        <time>2023-10-31T09:08:01Z</time>
      </trkpt>
      <trkpt lat="42.80098" lon="-0.03144">
        <ele>1760.9</ele>
        <time>2023-10-31T09:08:02Z</time>
      </trkpt>
      <trkpt lat="42.80098" lon="-0.03145">
        <ele>1761</ele>
        <time>2023-10-31T09:08:03Z</time>
      </trkpt>
      <trkpt lat="42.80099" lon="-0.03145">
        <ele>1761.1</ele>
        <time>2023-10-31T09:08:04Z</time>
      </trkpt>
      <trkpt lat="42.801" lon="-0.03145">
        <ele>1761.2</ele>
        <time>2023-10-31T09:08:05Z</time>
      </trkpt>
      <trkpt lat="42.80101" lon="-0.03146">
        <ele>1761.3</ele>
        <time>2023-10-31T09:08:06Z</time>
      </trkpt>
      <trkpt lat="42.80101" lon="-0.03147">
        <ele>1761.5</ele>
        <time>2023-10-31T09:08:07Z</time>
      </trkpt>
      <trkpt lat="42.80101" lon="-0.03148">
        <ele>1761.6</ele>
        <time>2023-10-31T09:08:08Z</time>
      </trkpt>
      <trkpt lat="42.80102" lon="-0.03149">
        <ele>1761.8</ele>
        <time>2023-10-31T09:08:09Z</time>
      </trkpt>
      <trkpt lat="42.80102" lon="-0.0315">
        <ele>1761.9</ele>
        <time>2023-10-31T09:08:10Z</time>
      </trkpt>
      <trkpt lat="42.80101" lon="-0.03151">
        <ele>1762.1</ele>
        <time>2023-10-31T09:08:11Z</time>
      </trkpt>
      <trkpt lat="42.80101" lon="-0.03153">
        <ele>1762.2</ele>
        <time>2023-10-31T09:08:12Z</time>
      </trkpt>
      <trkpt lat="42.801" lon="-0.03154">
        <ele>1762.4</ele>
        <time>2023-10-31T09:08:13Z</time>
      </trkpt>
      <trkpt lat="42.801" lon="-0.03155">
        <ele>1762.5</ele>
        <time>2023-10-31T09:08:14Z</time>
      </trkpt>
      <trkpt lat="42.801" lon="-0.03155">
        <ele>1762.6</ele>
        <time>2023-10-31T09:08:15Z</time>
      </trkpt>
      <trkpt lat="42.801" lon="-0.03156">
        <ele>1762.8</ele>
        <time>2023-10-31T09:08:16Z</time>
      </trkpt>
      <trkpt lat="42.80099" lon="-0.03157">
        <ele>1762.9</ele>
        <time>2023-10-31T09:08:17Z</time>
      </trkpt>
      <trkpt lat="42.80099" lon="-0.03158">
        <ele>1763.1</ele>
        <time>2023-10-31T09:08:18Z</time>
      </trkpt>
      <trkpt lat="42.80098" lon="-0.03159">
        <ele>1763.2</ele>
        <time>2023-10-31T09:08:19Z</time>
      </trkpt>
      <trkpt lat="42.80098" lon="-0.03159">
        <ele>1763.3</ele>
        <time>2023-10-31T09:08:20Z</time>
      </trkpt>
      <trkpt lat="42.80098" lon="-0.03161">
        <ele>1763.5</ele>
        <time>2023-10-31T09:08:21Z</time>
      </trkpt>
      <trkpt lat="42.80098" lon="-0.03162">
        <ele>1763.6</ele>
        <time>2023-10-31T09:08:22Z</time>
      </trkpt>
      <trkpt lat="42.80098" lon="-0.03163">
        <ele>1763.8</ele>
        <time>2023-10-31T09:08:23Z</time>
      </trkpt>
      <trkpt lat="42.80099" lon="-0.03164">
        <ele>1763.9</ele>
        <time>2023-10-31T09:08:24Z</time>
      </trkpt>
      <trkpt lat="42.80099" lon="-0.03164">
        <ele>1764</ele>
        <time>2023-10-31T09:08:25Z</time>
      </trkpt>
      <trkpt lat="42.80099" lon="-0.03165">
        <ele>1764.2</ele>
        <time>2023-10-31T09:08:26Z</time>
      </trkpt>
      <trkpt lat="42.80099" lon="-0.03166">
        <ele>1764.3</ele>
        <time>2023-10-31T09:08:27Z</time>
      </trkpt>
      <trkpt lat="42.80099" lon="-0.03167">
        <ele>1764.5</ele>
        <time>2023-10-31T09:08:28Z</time>
      </trkpt>
      <trkpt lat="42.801" lon="-0.03168">
        <ele>1764.6</ele>
        <time>2023-10-31T09:08:29Z</time>
      </trkpt>
      <trkpt lat="42.801" lon="-0.03169">
        <ele>1764.9</ele>
        <time>2023-10-31T09:08:30Z</time>
      </trkpt>
      <trkpt lat="42.801" lon="-0.0317">
        <ele>1765.1</ele>
        <time>2023-10-31T09:08:31Z</time>
      </trkpt>
      <trkpt lat="42.80099" lon="-0.03171">
        <ele>1765.2</ele>
        <time>2023-10-31T09:08:32Z</time>
      </trkpt>
      <trkpt lat="42.80099" lon="-0.03173">
        <ele>1765.5</ele>
        <time>2023-10-31T09:08:33Z</time>
      </trkpt>
      <trkpt lat="42.80099" lon="-0.03175">
        <ele>1765.8</ele>
        <time>2023-10-31T09:08:34Z</time>
      </trkpt>
      <trkpt lat="42.80099" lon="-0.03176">
        <ele>1766</ele>
        <time>2023-10-31T09:08:35Z</time>
      </trkpt>
      <trkpt lat="42.80099" lon="-0.03176">
        <ele>1766.1</ele>
        <time>2023-10-31T09:08:36Z</time>
      </trkpt>
      <trkpt lat="42.80099" lon="-0.03177">
        <ele>1766.3</ele>
        <time>2023-10-31T09:08:37Z</time>
      </trkpt>
      <trkpt lat="42.80099" lon="-0.03179">
        <ele>1766.5</ele>
        <time>2023-10-31T09:08:38Z</time>
      </trkpt>
      <trkpt lat="42.80099" lon="-0.0318">
        <ele>1766.7</ele>
        <time>2023-10-31T09:08:39Z</time>
      </trkpt>
      <trkpt lat="42.80099" lon="-0.03181">
        <ele>1767</ele>
        <time>2023-10-31T09:08:40Z</time>
      </trkpt>
      <trkpt lat="42.80099" lon="-0.03182">
        <ele>1767.1</ele>
        <time>2023-10-31T09:08:41Z</time>
      </trkpt>
      <trkpt lat="42.801" lon="-0.03183">
        <ele>1767.3</ele>
        <time>2023-10-31T09:08:42Z</time>
      </trkpt>
      <trkpt lat="42.801" lon="-0.03184">
        <ele>1767.5</ele>
        <time>2023-10-31T09:08:43Z</time>
      </trkpt>
      <trkpt lat="42.801" lon="-0.03184">
        <ele>1767.6</ele>
        <time>2023-10-31T09:08:44Z</time>
      </trkpt>
      <trkpt lat="42.80101" lon="-0.03185">
        <ele>1767.8</ele>
        <time>2023-10-31T09:08:45Z</time>
      </trkpt>
      <trkpt lat="42.80101" lon="-0.03186">
        <ele>1768</ele>
        <time>2023-10-31T09:08:46Z</time>
      </trkpt>
      <trkpt lat="42.80101" lon="-0.03187">
        <ele>1768.2</ele>
        <time>2023-10-31T09:08:47Z</time>
      </trkpt>
      <trkpt lat="42.80102" lon="-0.03188">
        <ele>1768.3</ele>
        <time>2023-10-31T09:08:48Z</time>
      </trkpt>
      <trkpt lat="42.80102" lon="-0.03189">
        <ele>1768.5</ele>
        <time>2023-10-31T09:08:49Z</time>
      </trkpt>
      <trkpt lat="42.80102" lon="-0.0319">
        <ele>1768.6</ele>
        <time>2023-10-31T09:08:50Z</time>
      </trkpt>
      <trkpt lat="42.80102" lon="-0.0319">
        <ele>1768.8</ele>
        <time>2023-10-31T09:08:51Z</time>
      </trkpt>
      <trkpt lat="42.80102" lon="-0.03191">
        <ele>1769</ele>
        <time>2023-10-31T09:08:52Z</time>
      </trkpt>
      <trkpt lat="42.80102" lon="-0.03192">
        <ele>1769</ele>
        <time>2023-10-31T09:08:53Z</time>
      </trkpt>
      <trkpt lat="42.80102" lon="-0.03193">
        <ele>1769.2</ele>
        <time>2023-10-31T09:08:54Z</time>
      </trkpt>
      <trkpt lat="42.80102" lon="-0.03194">
        <ele>1769.4</ele>
        <time>2023-10-31T09:08:55Z</time>
      </trkpt>
      <trkpt lat="42.80102" lon="-0.03194">
        <ele>1769.4</ele>
        <time>2023-10-31T09:08:56Z</time>
      </trkpt>
      <trkpt lat="42.80102" lon="-0.03195">
        <ele>1769.5</ele>
        <time>2023-10-31T09:08:57Z</time>
      </trkpt>
      <trkpt lat="42.80101" lon="-0.03195">
        <ele>1769.7</ele>
        <time>2023-10-31T09:08:58Z</time>
      </trkpt>
      <trkpt lat="42.80101" lon="-0.03196">
        <ele>1769.9</ele>
        <time>2023-10-31T09:08:59Z</time>
      </trkpt>
      <trkpt lat="42.801" lon="-0.03197">
        <ele>1770</ele>
        <time>2023-10-31T09:09:00Z</time>
      </trkpt>
      <trkpt lat="42.801" lon="-0.03197">
        <ele>1770.2</ele>
        <time>2023-10-31T09:09:01Z</time>
      </trkpt>
      <trkpt lat="42.801" lon="-0.03198">
        <ele>1770.3</ele>
        <time>2023-10-31T09:09:02Z</time>
      </trkpt>
      <trkpt lat="42.801" lon="-0.03198">
        <ele>1770.4</ele>
        <time>2023-10-31T09:09:03Z</time>
      </trkpt>
      <trkpt lat="42.801" lon="-0.03199">
        <ele>1770.6</ele>
        <time>2023-10-31T09:09:04Z</time>
      </trkpt>
      <trkpt lat="42.801" lon="-0.032">
        <ele>1770.8</ele>
        <time>2023-10-31T09:09:05Z</time>
      </trkpt>
      <trkpt lat="42.80101" lon="-0.03201">
        <ele>1771</ele>
        <time>2023-10-31T09:09:06Z</time>
      </trkpt>
      <trkpt lat="42.80101" lon="-0.03202">
        <ele>1771.1</ele>
        <time>2023-10-31T09:09:07Z</time>
      </trkpt>
      <trkpt lat="42.80101" lon="-0.03203">
        <ele>1771.4</ele>
        <time>2023-10-31T09:09:08Z</time>
      </trkpt>
      <trkpt lat="42.80101" lon="-0.03204">
        <ele>1771.5</ele>
        <time>2023-10-31T09:09:09Z</time>
      </trkpt>
      <trkpt lat="42.80101" lon="-0.03205">
        <ele>1771.7</ele>
        <time>2023-10-31T09:09:10Z</time>
      </trkpt>
      <trkpt lat="42.80101" lon="-0.03206">
        <ele>1771.8</ele>
        <time>2023-10-31T09:09:11Z</time>
      </trkpt>
      <trkpt lat="42.80101" lon="-0.03206">
        <ele>1771.9</ele>
        <time>2023-10-31T09:09:12Z</time>
      </trkpt>
      <trkpt lat="42.80101" lon="-0.03207">
        <ele>1772.1</ele>
        <time>2023-10-31T09:09:13Z</time>
      </trkpt>
      <trkpt lat="42.80101" lon="-0.03208">
        <ele>1772.2</ele>
        <time>2023-10-31T09:09:14Z</time>
      </trkpt>
      <trkpt lat="42.80101" lon="-0.03208">
        <ele>1772.2</ele>
        <time>2023-10-31T09:09:15Z</time>
      </trkpt>
      <trkpt lat="42.80101" lon="-0.03209">
        <ele>1772.4</ele>
        <time>2023-10-31T09:09:16Z</time>
      </trkpt>
      <trkpt lat="42.80102" lon="-0.0321">
        <ele>1772.5</ele>
        <time>2023-10-31T09:09:17Z</time>
      </trkpt>
      <trkpt lat="42.80103" lon="-0.0321">
        <ele>1772.8</ele>
        <time>2023-10-31T09:09:18Z</time>
      </trkpt>
      <trkpt lat="42.80103" lon="-0.03211">
        <ele>1772.9</ele>
        <time>2023-10-31T09:09:19Z</time>
      </trkpt>
      <trkpt lat="42.80103" lon="-0.03212">
        <ele>1773.1</ele>
        <time>2023-10-31T09:09:20Z</time>
      </trkpt>
      <trkpt lat="42.80103" lon="-0.03212">
        <ele>1773.1</ele>
        <time>2023-10-31T09:09:21Z</time>
      </trkpt>
      <trkpt lat="42.80103" lon="-0.03213">
        <ele>1773.2</ele>
        <time>2023-10-31T09:09:22Z</time>
      </trkpt>
      <trkpt lat="42.80102" lon="-0.03213">
        <ele>1773.3</ele>
        <time>2023-10-31T09:09:23Z</time>
      </trkpt>
      <trkpt lat="42.80102" lon="-0.03214">
        <ele>1773.5</ele>
        <time>2023-10-31T09:09:24Z</time>
      </trkpt>
      <trkpt lat="42.80102" lon="-0.03215">
        <ele>1773.6</ele>
        <time>2023-10-31T09:09:25Z</time>
      </trkpt>
      <trkpt lat="42.80102" lon="-0.03215">
        <ele>1773.7</ele>
        <time>2023-10-31T09:09:26Z</time>
      </trkpt>
      <trkpt lat="42.80102" lon="-0.03216">
        <ele>1773.9</ele>
        <time>2023-10-31T09:09:27Z</time>
      </trkpt>
      <trkpt lat="42.80102" lon="-0.03217">
        <ele>1774</ele>
        <time>2023-10-31T09:09:28Z</time>
      </trkpt>
      <trkpt lat="42.80103" lon="-0.03217">
        <ele>1774.2</ele>
        <time>2023-10-31T09:09:29Z</time>
      </trkpt>
      <trkpt lat="42.80103" lon="-0.03218">
        <ele>1774.3</ele>
        <time>2023-10-31T09:09:30Z</time>
      </trkpt>
      <trkpt lat="42.80103" lon="-0.03219">
        <ele>1774.4</ele>
        <time>2023-10-31T09:09:31Z</time>
      </trkpt>
      <trkpt lat="42.80103" lon="-0.03219">
        <ele>1774.5</ele>
        <time>2023-10-31T09:09:32Z</time>
      </trkpt>
      <trkpt lat="42.80103" lon="-0.0322">
        <ele>1774.6</ele>
        <time>2023-10-31T09:09:33Z</time>
      </trkpt>
      <trkpt lat="42.80104" lon="-0.03221">
        <ele>1774.8</ele>
        <time>2023-10-31T09:09:34Z</time>
      </trkpt>
      <trkpt lat="42.80104" lon="-0.03221">
        <ele>1774.9</ele>
        <time>2023-10-31T09:09:35Z</time>
      </trkpt>
      <trkpt lat="42.80104" lon="-0.03222">
        <ele>1775</ele>
        <time>2023-10-31T09:09:36Z</time>
      </trkpt>
      <trkpt lat="42.80104" lon="-0.03223">
        <ele>1775.1</ele>
        <time>2023-10-31T09:09:37Z</time>
      </trkpt>
      <trkpt lat="42.80104" lon="-0.03223">
        <ele>1775.2</ele>
        <time>2023-10-31T09:09:38Z</time>
      </trkpt>
      <trkpt lat="42.80104" lon="-0.03224">
        <ele>1775.4</ele>
        <time>2023-10-31T09:09:39Z</time>
      </trkpt>
      <trkpt lat="42.80104" lon="-0.03225">
        <ele>1775.5</ele>
        <time>2023-10-31T09:09:40Z</time>
      </trkpt>
      <trkpt lat="42.80104" lon="-0.03225">
        <ele>1775.6</ele>
        <time>2023-10-31T09:09:41Z</time>
      </trkpt>
      <trkpt lat="42.80103" lon="-0.03226">
        <ele>1775.8</ele>
        <time>2023-10-31T09:09:42Z</time>
      </trkpt>
      <trkpt lat="42.80103" lon="-0.03227">
        <ele>1775.9</ele>
        <time>2023-10-31T09:09:43Z</time>
      </trkpt>
      <trkpt lat="42.80104" lon="-0.03228">
        <ele>1776</ele>
        <time>2023-10-31T09:09:44Z</time>
      </trkpt>
      <trkpt lat="42.80104" lon="-0.03229">
        <ele>1776.2</ele>
        <time>2023-10-31T09:09:45Z</time>
      </trkpt>
      <trkpt lat="42.80104" lon="-0.03229">
        <ele>1776.2</ele>
        <time>2023-10-31T09:09:46Z</time>
      </trkpt>
      <trkpt lat="42.80104" lon="-0.0323">
        <ele>1776.3</ele>
        <time>2023-10-31T09:09:47Z</time>
      </trkpt>
      <trkpt lat="42.80104" lon="-0.0323">
        <ele>1776.5</ele>
        <time>2023-10-31T09:09:48Z</time>
      </trkpt>
      <trkpt lat="42.80105" lon="-0.03231">
        <ele>1776.6</ele>
        <time>2023-10-31T09:09:49Z</time>
      </trkpt>
      <trkpt lat="42.80105" lon="-0.03232">
        <ele>1776.7</ele>
        <time>2023-10-31T09:09:50Z</time>
      </trkpt>
      <trkpt lat="42.80105" lon="-0.03232">
        <ele>1776.8</ele>
        <time>2023-10-31T09:09:51Z</time>
      </trkpt>
      <trkpt lat="42.80105" lon="-0.03233">
        <ele>1776.9</ele>
        <time>2023-10-31T09:09:52Z</time>
      </trkpt>
      <trkpt lat="42.80104" lon="-0.03234">
        <ele>1777.1</ele>
        <time>2023-10-31T09:09:53Z</time>
      </trkpt>
      <trkpt lat="42.80103" lon="-0.03234">
        <ele>1777.3</ele>
        <time>2023-10-31T09:09:54Z</time>
      </trkpt>
      <trkpt lat="42.80102" lon="-0.03234">
        <ele>1777.5</ele>
        <time>2023-10-31T09:09:55Z</time>
      </trkpt>
      <trkpt lat="42.80102" lon="-0.03234">
        <ele>1777.6</ele>
        <time>2023-10-31T09:09:56Z</time>
      </trkpt>
      <trkpt lat="42.80101" lon="-0.03234">
        <ele>1777.7</ele>
        <time>2023-10-31T09:09:57Z</time>
      </trkpt>
      <trkpt lat="42.801" lon="-0.03234">
        <ele>1778</ele>
        <time>2023-10-31T09:09:58Z</time>
      </trkpt>
      <trkpt lat="42.80101" lon="-0.03235">
        <ele>1778.1</ele>
        <time>2023-10-31T09:09:59Z</time>
      </trkpt>
      <trkpt lat="42.80101" lon="-0.03236">
        <ele>1778.2</ele>
        <time>2023-10-31T09:10:00Z</time>
      </trkpt>
      <trkpt lat="42.801" lon="-0.03236">
        <ele>1778.4</ele>
        <time>2023-10-31T09:10:01Z</time>
      </trkpt>
      <trkpt lat="42.80099" lon="-0.03237">
        <ele>1778.5</ele>
        <time>2023-10-31T09:10:02Z</time>
      </trkpt>
      <trkpt lat="42.80099" lon="-0.03237">
        <ele>1778.6</ele>
        <time>2023-10-31T09:10:03Z</time>
      </trkpt>
      <trkpt lat="42.80099" lon="-0.03238">
        <ele>1778.8</ele>
        <time>2023-10-31T09:10:05Z</time>
      </trkpt>
      <trkpt lat="42.80098" lon="-0.03238">
        <ele>1778.8</ele>
        <time>2023-10-31T09:10:06Z</time>
      </trkpt>
      <trkpt lat="42.80098" lon="-0.03239">
        <ele>1779</ele>
        <time>2023-10-31T09:10:07Z</time>
      </trkpt>
      <trkpt lat="42.80097" lon="-0.0324">
        <ele>1779.2</ele>
        <time>2023-10-31T09:10:08Z</time>
      </trkpt>
      <trkpt lat="42.80097" lon="-0.0324">
        <ele>1779.4</ele>
        <time>2023-10-31T09:10:09Z</time>
      </trkpt>
      <trkpt lat="42.80096" lon="-0.03241">
        <ele>1779.5</ele>
        <time>2023-10-31T09:10:10Z</time>
      </trkpt>
      <trkpt lat="42.80096" lon="-0.03242">
        <ele>1779.7</ele>
        <time>2023-10-31T09:10:11Z</time>
      </trkpt>
      <trkpt lat="42.80095" lon="-0.03243">
        <ele>1779.9</ele>
        <time>2023-10-31T09:10:12Z</time>
      </trkpt>
      <trkpt lat="42.80094" lon="-0.03243">
        <ele>1780.1</ele>
        <time>2023-10-31T09:10:14Z</time>
      </trkpt>
      <trkpt lat="42.80093" lon="-0.03244">
        <ele>1780.4</ele>
        <time>2023-10-31T09:10:15Z</time>
      </trkpt>
      <trkpt lat="42.80093" lon="-0.03244">
        <ele>1780.5</ele>
        <time>2023-10-31T09:10:17Z</time>
      </trkpt>
      <trkpt lat="42.80092" lon="-0.03245">
        <ele>1780.8</ele>
        <time>2023-10-31T09:10:18Z</time>
      </trkpt>
      <trkpt lat="42.80091" lon="-0.03245">
        <ele>1780.9</ele>
        <time>2023-10-31T09:10:19Z</time>
      </trkpt>
      <trkpt lat="42.80091" lon="-0.03246">
        <ele>1781</ele>
        <time>2023-10-31T09:10:20Z</time>
      </trkpt>
      <trkpt lat="42.80091" lon="-0.03247">
        <ele>1781.2</ele>
        <time>2023-10-31T09:10:21Z</time>
      </trkpt>
      <trkpt lat="42.8009" lon="-0.03247">
        <ele>1781.3</ele>
        <time>2023-10-31T09:10:22Z</time>
      </trkpt>
      <trkpt lat="42.8009" lon="-0.03248">
        <ele>1781.4</ele>
        <time>2023-10-31T09:10:23Z</time>
      </trkpt>
      <trkpt lat="42.80089" lon="-0.03248">
        <ele>1781.6</ele>
        <time>2023-10-31T09:10:24Z</time>
      </trkpt>
      <trkpt lat="42.80089" lon="-0.03249">
        <ele>1781.7</ele>
        <time>2023-10-31T09:10:25Z</time>
      </trkpt>
      <trkpt lat="42.80088" lon="-0.03249">
        <ele>1781.9</ele>
        <time>2023-10-31T09:10:26Z</time>
      </trkpt>
      <trkpt lat="42.80088" lon="-0.0325">
        <ele>1782</ele>
        <time>2023-10-31T09:10:27Z</time>
      </trkpt>
      <trkpt lat="42.80087" lon="-0.0325">
        <ele>1782.1</ele>
        <time>2023-10-31T09:10:28Z</time>
      </trkpt>
      <trkpt lat="42.80087" lon="-0.03251">
        <ele>1782.3</ele>
        <time>2023-10-31T09:10:29Z</time>
      </trkpt>
      <trkpt lat="42.80087" lon="-0.03251">
        <ele>1782.4</ele>
        <time>2023-10-31T09:10:30Z</time>
      </trkpt>
      <trkpt lat="42.80087" lon="-0.03252">
        <ele>1782.5</ele>
        <time>2023-10-31T09:10:31Z</time>
      </trkpt>
      <trkpt lat="42.80086" lon="-0.03253">
        <ele>1782.6</ele>
        <time>2023-10-31T09:10:32Z</time>
      </trkpt>
      <trkpt lat="42.80086" lon="-0.03254">
        <ele>1782.8</ele>
        <time>2023-10-31T09:10:33Z</time>
      </trkpt>
      <trkpt lat="42.80086" lon="-0.03255">
        <ele>1783</ele>
        <time>2023-10-31T09:10:34Z</time>
      </trkpt>
      <trkpt lat="42.80085" lon="-0.03256">
        <ele>1783.2</ele>
        <time>2023-10-31T09:10:35Z</time>
      </trkpt>
      <trkpt lat="42.80085" lon="-0.03256">
        <ele>1783.2</ele>
        <time>2023-10-31T09:10:36Z</time>
      </trkpt>
      <trkpt lat="42.80085" lon="-0.03257">
        <ele>1783.4</ele>
        <time>2023-10-31T09:10:37Z</time>
      </trkpt>
      <trkpt lat="42.80084" lon="-0.03257">
        <ele>1783.5</ele>
        <time>2023-10-31T09:10:38Z</time>
      </trkpt>
      <trkpt lat="42.80084" lon="-0.03258">
        <ele>1783.7</ele>
        <time>2023-10-31T09:10:39Z</time>
      </trkpt>
      <trkpt lat="42.80084" lon="-0.03259">
        <ele>1783.8</ele>
        <time>2023-10-31T09:10:40Z</time>
      </trkpt>
      <trkpt lat="42.80084" lon="-0.03259">
        <ele>1783.9</ele>
        <time>2023-10-31T09:10:41Z</time>
      </trkpt>
      <trkpt lat="42.80084" lon="-0.0326">
        <ele>1784</ele>
        <time>2023-10-31T09:10:42Z</time>
      </trkpt>
      <trkpt lat="42.80084" lon="-0.03261">
        <ele>1784.2</ele>
        <time>2023-10-31T09:10:43Z</time>
      </trkpt>
      <trkpt lat="42.80084" lon="-0.03261">
        <ele>1784.2</ele>
        <time>2023-10-31T09:10:44Z</time>
      </trkpt>
      <trkpt lat="42.80083" lon="-0.03262">
        <ele>1784.3</ele>
        <time>2023-10-31T09:10:45Z</time>
      </trkpt>
      <trkpt lat="42.80083" lon="-0.03262">
        <ele>1784.4</ele>
        <time>2023-10-31T09:10:46Z</time>
      </trkpt>
      <trkpt lat="42.80083" lon="-0.03263">
        <ele>1784.6</ele>
        <time>2023-10-31T09:10:47Z</time>
      </trkpt>
      <trkpt lat="42.80083" lon="-0.03264">
        <ele>1784.7</ele>
        <time>2023-10-31T09:10:48Z</time>
      </trkpt>
      <trkpt lat="42.80083" lon="-0.03265">
        <ele>1784.8</ele>
        <time>2023-10-31T09:10:49Z</time>
      </trkpt>
      <trkpt lat="42.80084" lon="-0.03265">
        <ele>1785</ele>
        <time>2023-10-31T09:10:50Z</time>
      </trkpt>
      <trkpt lat="42.80085" lon="-0.03265">
        <ele>1785.2</ele>
        <time>2023-10-31T09:10:51Z</time>
      </trkpt>
      <trkpt lat="42.80086" lon="-0.03265">
        <ele>1785.3</ele>
        <time>2023-10-31T09:10:52Z</time>
      </trkpt>
      <trkpt lat="42.80087" lon="-0.03265">
        <ele>1785.5</ele>
        <time>2023-10-31T09:10:53Z</time>
      </trkpt>
      <trkpt lat="42.80088" lon="-0.03265">
        <ele>1785.7</ele>
        <time>2023-10-31T09:10:54Z</time>
      </trkpt>
      <trkpt lat="42.80088" lon="-0.03265">
        <ele>1785.8</ele>
        <time>2023-10-31T09:10:55Z</time>
      </trkpt>
      <trkpt lat="42.80089" lon="-0.03265">
        <ele>1786</ele>
        <time>2023-10-31T09:10:56Z</time>
      </trkpt>
      <trkpt lat="42.8009" lon="-0.03265">
        <ele>1786.2</ele>
        <time>2023-10-31T09:10:57Z</time>
      </trkpt>
      <trkpt lat="42.80089" lon="-0.03265">
        <ele>1786.3</ele>
        <time>2023-10-31T09:10:58Z</time>
      </trkpt>
      <trkpt lat="42.80091" lon="-0.03265">
        <ele>1786.6</ele>
        <time>2023-10-31T09:10:59Z</time>
      </trkpt>
      <trkpt lat="42.80091" lon="-0.03266">
        <ele>1786.7</ele>
        <time>2023-10-31T09:11:00Z</time>
      </trkpt>
      <trkpt lat="42.80091" lon="-0.03267">
        <ele>1786.8</ele>
        <time>2023-10-31T09:11:01Z</time>
      </trkpt>
      <trkpt lat="42.80091" lon="-0.03267">
        <ele>1786.9</ele>
        <time>2023-10-31T09:11:02Z</time>
      </trkpt>
      <trkpt lat="42.80092" lon="-0.03268">
        <ele>1787</ele>
        <time>2023-10-31T09:11:03Z</time>
      </trkpt>
      <trkpt lat="42.80093" lon="-0.03267">
        <ele>1787.2</ele>
        <time>2023-10-31T09:11:04Z</time>
      </trkpt>
      <trkpt lat="42.80094" lon="-0.03267">
        <ele>1787.4</ele>
        <time>2023-10-31T09:11:05Z</time>
      </trkpt>
      <trkpt lat="42.80095" lon="-0.03267">
        <ele>1787.6</ele>
        <time>2023-10-31T09:11:06Z</time>
      </trkpt>
      <trkpt lat="42.80096" lon="-0.03267">
        <ele>1787.7</ele>
        <time>2023-10-31T09:11:07Z</time>
      </trkpt>
      <trkpt lat="42.80096" lon="-0.03268">
        <ele>1787.8</ele>
        <time>2023-10-31T09:11:08Z</time>
      </trkpt>
      <trkpt lat="42.80097" lon="-0.03268">
        <ele>1787.9</ele>
        <time>2023-10-31T09:11:09Z</time>
      </trkpt>
      <trkpt lat="42.80097" lon="-0.03269">
        <ele>1788</ele>
        <time>2023-10-31T09:11:10Z</time>
      </trkpt>
      <trkpt lat="42.80098" lon="-0.03269">
        <ele>1788.1</ele>
        <time>2023-10-31T09:11:11Z</time>
      </trkpt>
      <trkpt lat="42.80098" lon="-0.0327">
        <ele>1788.2</ele>
        <time>2023-10-31T09:11:12Z</time>
      </trkpt>
      <trkpt lat="42.80099" lon="-0.0327">
        <ele>1788.3</ele>
        <time>2023-10-31T09:11:13Z</time>
      </trkpt>
      <trkpt lat="42.80099" lon="-0.03271">
        <ele>1788.5</ele>
        <time>2023-10-31T09:11:14Z</time>
      </trkpt>
      <trkpt lat="42.801" lon="-0.03271">
        <ele>1788.5</ele>
        <time>2023-10-31T09:11:15Z</time>
      </trkpt>
      <trkpt lat="42.801" lon="-0.03272">
        <ele>1788.6</ele>
        <time>2023-10-31T09:11:16Z</time>
      </trkpt>
      <trkpt lat="42.801" lon="-0.03273">
        <ele>1788.7</ele>
        <time>2023-10-31T09:11:17Z</time>
      </trkpt>
      <trkpt lat="42.80101" lon="-0.03273">
        <ele>1788.8</ele>
        <time>2023-10-31T09:11:18Z</time>
      </trkpt>
      <trkpt lat="42.80101" lon="-0.03274">
        <ele>1788.9</ele>
        <time>2023-10-31T09:11:19Z</time>
      </trkpt>
      <trkpt lat="42.80102" lon="-0.03274">
        <ele>1789</ele>
        <time>2023-10-31T09:11:20Z</time>
      </trkpt>
      <trkpt lat="42.80102" lon="-0.03274">
        <ele>1789.1</ele>
        <time>2023-10-31T09:11:21Z</time>
      </trkpt>
      <trkpt lat="42.80103" lon="-0.03274">
        <ele>1789.2</ele>
        <time>2023-10-31T09:11:22Z</time>
      </trkpt>
      <trkpt lat="42.80103" lon="-0.03275">
        <ele>1789.3</ele>
        <time>2023-10-31T09:11:23Z</time>
      </trkpt>
      <trkpt lat="42.80104" lon="-0.03276">
        <ele>1789.4</ele>
        <time>2023-10-31T09:11:24Z</time>
      </trkpt>
      <trkpt lat="42.80104" lon="-0.03276">
        <ele>1789.5</ele>
        <time>2023-10-31T09:11:25Z</time>
      </trkpt>
      <trkpt lat="42.80105" lon="-0.03276">
        <ele>1789.7</ele>
        <time>2023-10-31T09:11:26Z</time>
      </trkpt>
      <trkpt lat="42.80106" lon="-0.03276">
        <ele>1789.8</ele>
        <time>2023-10-31T09:11:27Z</time>
      </trkpt>
      <trkpt lat="42.80106" lon="-0.03276">
        <ele>1789.9</ele>
        <time>2023-10-31T09:11:28Z</time>
      </trkpt>
      <trkpt lat="42.80107" lon="-0.03277">
        <ele>1790</ele>
        <time>2023-10-31T09:11:29Z</time>
      </trkpt>
      <trkpt lat="42.80108" lon="-0.03277">
        <ele>1790.1</ele>
        <time>2023-10-31T09:11:30Z</time>
      </trkpt>
      <trkpt lat="42.80109" lon="-0.03278">
        <ele>1790.3</ele>
        <time>2023-10-31T09:11:31Z</time>
      </trkpt>
      <trkpt lat="42.8011" lon="-0.03278">
        <ele>1790.4</ele>
        <time>2023-10-31T09:11:32Z</time>
      </trkpt>
      <trkpt lat="42.8011" lon="-0.03278">
        <ele>1790.5</ele>
        <time>2023-10-31T09:11:33Z</time>
      </trkpt>
      <trkpt lat="42.80111" lon="-0.03278">
        <ele>1790.6</ele>
        <time>2023-10-31T09:11:34Z</time>
      </trkpt>
      <trkpt lat="42.80112" lon="-0.03278">
        <ele>1790.7</ele>
        <time>2023-10-31T09:11:35Z</time>
      </trkpt>
      <trkpt lat="42.80112" lon="-0.03278">
        <ele>1790.8</ele>
        <time>2023-10-31T09:11:36Z</time>
      </trkpt>
      <trkpt lat="42.80113" lon="-0.03279">
        <ele>1791</ele>
        <time>2023-10-31T09:11:37Z</time>
      </trkpt>
      <trkpt lat="42.80114" lon="-0.03279">
        <ele>1791.1</ele>
        <time>2023-10-31T09:11:38Z</time>
      </trkpt>
      <trkpt lat="42.80115" lon="-0.0328">
        <ele>1791.2</ele>
        <time>2023-10-31T09:11:39Z</time>
      </trkpt>
      <trkpt lat="42.80116" lon="-0.0328">
        <ele>1791.4</ele>
        <time>2023-10-31T09:11:40Z</time>
      </trkpt>
      <trkpt lat="42.80117" lon="-0.0328">
        <ele>1791.5</ele>
        <time>2023-10-31T09:11:41Z</time>
      </trkpt>
      <trkpt lat="42.80117" lon="-0.0328">
        <ele>1791.6</ele>
        <time>2023-10-31T09:11:42Z</time>
      </trkpt>
      <trkpt lat="42.80117" lon="-0.03281">
        <ele>1791.7</ele>
        <time>2023-10-31T09:11:43Z</time>
      </trkpt>
      <trkpt lat="42.80118" lon="-0.03282">
        <ele>1791.8</ele>
        <time>2023-10-31T09:11:44Z</time>
      </trkpt>
      <trkpt lat="42.80119" lon="-0.03282">
        <ele>1791.9</ele>
        <time>2023-10-31T09:11:45Z</time>
      </trkpt>
      <trkpt lat="42.8012" lon="-0.03282">
        <ele>1792</ele>
        <time>2023-10-31T09:11:46Z</time>
      </trkpt>
      <trkpt lat="42.8012" lon="-0.03282">
        <ele>1792.1</ele>
        <time>2023-10-31T09:11:47Z</time>
      </trkpt>
      <trkpt lat="42.80121" lon="-0.03281">
        <ele>1792.3</ele>
        <time>2023-10-31T09:11:48Z</time>
      </trkpt>
      <trkpt lat="42.80122" lon="-0.03281">
        <ele>1792.4</ele>
        <time>2023-10-31T09:11:49Z</time>
      </trkpt>
      <trkpt lat="42.80123" lon="-0.03282">
        <ele>1792.6</ele>
        <time>2023-10-31T09:11:50Z</time>
      </trkpt>
      <trkpt lat="42.80123" lon="-0.03282">
        <ele>1792.6</ele>
        <time>2023-10-31T09:11:51Z</time>
      </trkpt>
      <trkpt lat="42.80124" lon="-0.03283">
        <ele>1792.8</ele>
        <time>2023-10-31T09:11:52Z</time>
      </trkpt>
      <trkpt lat="42.80124" lon="-0.03283">
        <ele>1792.9</ele>
        <time>2023-10-31T09:11:53Z</time>
      </trkpt>
      <trkpt lat="42.80125" lon="-0.03284">
        <ele>1793</ele>
        <time>2023-10-31T09:11:54Z</time>
      </trkpt>
      <trkpt lat="42.80126" lon="-0.03284">
        <ele>1793.1</ele>
        <time>2023-10-31T09:11:55Z</time>
      </trkpt>
      <trkpt lat="42.80127" lon="-0.03285">
        <ele>1793.2</ele>
        <time>2023-10-31T09:11:56Z</time>
      </trkpt>
      <trkpt lat="42.80127" lon="-0.03285">
        <ele>1793.4</ele>
        <time>2023-10-31T09:11:57Z</time>
      </trkpt>
      <trkpt lat="42.80127" lon="-0.03285">
        <ele>1793.4</ele>
        <time>2023-10-31T09:11:58Z</time>
      </trkpt>
      <trkpt lat="42.80128" lon="-0.03286">
        <ele>1793.6</ele>
        <time>2023-10-31T09:11:59Z</time>
      </trkpt>
      <trkpt lat="42.80128" lon="-0.03287">
        <ele>1793.7</ele>
        <time>2023-10-31T09:12:00Z</time>
      </trkpt>
      <trkpt lat="42.80129" lon="-0.03287">
        <ele>1793.8</ele>
        <time>2023-10-31T09:12:01Z</time>
      </trkpt>
      <trkpt lat="42.80129" lon="-0.03288">
        <ele>1793.9</ele>
        <time>2023-10-31T09:12:02Z</time>
      </trkpt>
      <trkpt lat="42.8013" lon="-0.03289">
        <ele>1794</ele>
        <time>2023-10-31T09:12:03Z</time>
      </trkpt>
      <trkpt lat="42.8013" lon="-0.03289">
        <ele>1794.1</ele>
        <time>2023-10-31T09:12:04Z</time>
      </trkpt>
      <trkpt lat="42.80131" lon="-0.03288">
        <ele>1794.1</ele>
        <time>2023-10-31T09:12:05Z</time>
      </trkpt>
      <trkpt lat="42.80132" lon="-0.03288">
        <ele>1794.3</ele>
        <time>2023-10-31T09:12:06Z</time>
      </trkpt>
      <trkpt lat="42.80132" lon="-0.03288">
        <ele>1794.4</ele>
        <time>2023-10-31T09:12:07Z</time>
      </trkpt>
      <trkpt lat="42.80133" lon="-0.03288">
        <ele>1794.6</ele>
        <time>2023-10-31T09:12:08Z</time>
      </trkpt>
      <trkpt lat="42.80134" lon="-0.03289">
        <ele>1794.8</ele>
        <time>2023-10-31T09:12:09Z</time>
      </trkpt>
      <trkpt lat="42.80135" lon="-0.03289">
        <ele>1794.9</ele>
        <time>2023-10-31T09:12:10Z</time>
      </trkpt>
      <trkpt lat="42.80135" lon="-0.03289">
        <ele>1795</ele>
        <time>2023-10-31T09:12:11Z</time>
      </trkpt>
      <trkpt lat="42.80136" lon="-0.0329">
        <ele>1795.1</ele>
        <time>2023-10-31T09:12:12Z</time>
      </trkpt>
      <trkpt lat="42.80137" lon="-0.0329">
        <ele>1795.3</ele>
        <time>2023-10-31T09:12:13Z</time>
      </trkpt>
      <trkpt lat="42.80137" lon="-0.03291">
        <ele>1795.4</ele>
        <time>2023-10-31T09:12:14Z</time>
      </trkpt>
      <trkpt lat="42.80138" lon="-0.0329">
        <ele>1795.6</ele>
        <time>2023-10-31T09:12:15Z</time>
      </trkpt>
      <trkpt lat="42.80139" lon="-0.03291">
        <ele>1795.8</ele>
        <time>2023-10-31T09:12:16Z</time>
      </trkpt>
      <trkpt lat="42.80139" lon="-0.03291">
        <ele>1795.9</ele>
        <time>2023-10-31T09:12:17Z</time>
      </trkpt>
      <trkpt lat="42.80139" lon="-0.03291">
        <ele>1796</ele>
        <time>2023-10-31T09:12:18Z</time>
      </trkpt>
      <trkpt lat="42.8014" lon="-0.03293">
        <ele>1796.3</ele>
        <time>2023-10-31T09:12:19Z</time>
      </trkpt>
      <trkpt lat="42.8014" lon="-0.03292">
        <ele>1796.4</ele>
        <time>2023-10-31T09:12:20Z</time>
      </trkpt>
      <trkpt lat="42.80141" lon="-0.03293">
        <ele>1796.5</ele>
        <time>2023-10-31T09:12:21Z</time>
      </trkpt>
      <trkpt lat="42.80141" lon="-0.03294">
        <ele>1796.7</ele>
        <time>2023-10-31T09:12:22Z</time>
      </trkpt>
      <trkpt lat="42.80142" lon="-0.03294">
        <ele>1796.9</ele>
        <time>2023-10-31T09:12:23Z</time>
      </trkpt>
      <trkpt lat="42.80142" lon="-0.03294">
        <ele>1797.1</ele>
        <time>2023-10-31T09:12:24Z</time>
      </trkpt>
      <trkpt lat="42.80143" lon="-0.03295">
        <ele>1797.3</ele>
        <time>2023-10-31T09:12:25Z</time>
      </trkpt>
      <trkpt lat="42.80143" lon="-0.03295">
        <ele>1797.3</ele>
        <time>2023-10-31T09:12:26Z</time>
      </trkpt>
      <trkpt lat="42.80144" lon="-0.03295">
        <ele>1797.5</ele>
        <time>2023-10-31T09:12:27Z</time>
      </trkpt>
      <trkpt lat="42.80144" lon="-0.03294">
        <ele>1797.6</ele>
        <time>2023-10-31T09:12:28Z</time>
      </trkpt>
      <trkpt lat="42.80145" lon="-0.03294">
        <ele>1797.9</ele>
        <time>2023-10-31T09:12:29Z</time>
      </trkpt>
      <trkpt lat="42.80146" lon="-0.03294">
        <ele>1798.1</ele>
        <time>2023-10-31T09:12:30Z</time>
      </trkpt>
      <trkpt lat="42.80147" lon="-0.03295">
        <ele>1798.3</ele>
        <time>2023-10-31T09:12:31Z</time>
      </trkpt>
      <trkpt lat="42.80147" lon="-0.03295">
        <ele>1798.4</ele>
        <time>2023-10-31T09:12:32Z</time>
      </trkpt>
      <trkpt lat="42.80148" lon="-0.03296">
        <ele>1798.5</ele>
        <time>2023-10-31T09:12:33Z</time>
      </trkpt>
      <trkpt lat="42.80148" lon="-0.03296">
        <ele>1798.7</ele>
        <time>2023-10-31T09:12:34Z</time>
      </trkpt>
      <trkpt lat="42.80148" lon="-0.03297">
        <ele>1798.8</ele>
        <time>2023-10-31T09:12:35Z</time>
      </trkpt>
      <trkpt lat="42.80147" lon="-0.03297">
        <ele>1799</ele>
        <time>2023-10-31T09:12:36Z</time>
      </trkpt>
      <trkpt lat="42.80146" lon="-0.03297">
        <ele>1799.3</ele>
        <time>2023-10-31T09:12:37Z</time>
      </trkpt>
      <trkpt lat="42.80145" lon="-0.03298">
        <ele>1799.6</ele>
        <time>2023-10-31T09:12:38Z</time>
      </trkpt>
      <trkpt lat="42.80144" lon="-0.03298">
        <ele>1799.8</ele>
        <time>2023-10-31T09:12:39Z</time>
      </trkpt>
      <trkpt lat="42.80143" lon="-0.03299">
        <ele>1800.2</ele>
        <time>2023-10-31T09:12:40Z</time>
      </trkpt>
      <trkpt lat="42.80144" lon="-0.03299">
        <ele>1800.4</ele>
        <time>2023-10-31T09:12:41Z</time>
      </trkpt>
      <trkpt lat="42.80143" lon="-0.03299">
        <ele>1800.5</ele>
        <time>2023-10-31T09:12:42Z</time>
      </trkpt>
      <trkpt lat="42.80143" lon="-0.033">
        <ele>1800.8</ele>
        <time>2023-10-31T09:12:43Z</time>
      </trkpt>
      <trkpt lat="42.80142" lon="-0.033">
        <ele>1801</ele>
        <time>2023-10-31T09:12:44Z</time>
      </trkpt>
      <trkpt lat="42.80142" lon="-0.03301">
        <ele>1801.1</ele>
        <time>2023-10-31T09:12:45Z</time>
      </trkpt>
      <trkpt lat="42.80142" lon="-0.03301">
        <ele>1801.3</ele>
        <time>2023-10-31T09:12:46Z</time>
      </trkpt>
      <trkpt lat="42.80143" lon="-0.03301">
        <ele>1801.5</ele>
        <time>2023-10-31T09:12:47Z</time>
      </trkpt>
      <trkpt lat="42.80144" lon="-0.03302">
        <ele>1801.7</ele>
        <time>2023-10-31T09:12:48Z</time>
      </trkpt>
      <trkpt lat="42.80144" lon="-0.03302">
        <ele>1801.9</ele>
        <time>2023-10-31T09:12:49Z</time>
      </trkpt>
      <trkpt lat="42.80145" lon="-0.03302">
        <ele>1802.1</ele>
        <time>2023-10-31T09:12:50Z</time>
      </trkpt>
      <trkpt lat="42.80145" lon="-0.03302">
        <ele>1802.2</ele>
        <time>2023-10-31T09:12:51Z</time>
      </trkpt>
      <trkpt lat="42.80146" lon="-0.03302">
        <ele>1802.4</ele>
        <time>2023-10-31T09:12:52Z</time>
      </trkpt>
      <trkpt lat="42.80146" lon="-0.03303">
        <ele>1802.6</ele>
        <time>2023-10-31T09:12:53Z</time>
      </trkpt>
      <trkpt lat="42.80147" lon="-0.03303">
        <ele>1802.7</ele>
        <time>2023-10-31T09:12:54Z</time>
      </trkpt>
      <trkpt lat="42.80147" lon="-0.03303">
        <ele>1802.9</ele>
        <time>2023-10-31T09:12:55Z</time>
      </trkpt>
      <trkpt lat="42.80148" lon="-0.03303">
        <ele>1803.1</ele>
        <time>2023-10-31T09:12:56Z</time>
      </trkpt>
      <trkpt lat="42.80148" lon="-0.03303">
        <ele>1803.3</ele>
        <time>2023-10-31T09:12:57Z</time>
      </trkpt>
      <trkpt lat="42.80149" lon="-0.03304">
        <ele>1803.5</ele>
        <time>2023-10-31T09:12:58Z</time>
      </trkpt>
      <trkpt lat="42.80149" lon="-0.03304">
        <ele>1803.7</ele>
        <time>2023-10-31T09:12:59Z</time>
      </trkpt>
      <trkpt lat="42.8015" lon="-0.03305">
        <ele>1803.8</ele>
        <time>2023-10-31T09:13:00Z</time>
      </trkpt>
      <trkpt lat="42.8015" lon="-0.03305">
        <ele>1804</ele>
        <time>2023-10-31T09:13:01Z</time>
      </trkpt>
      <trkpt lat="42.8015" lon="-0.03306">
        <ele>1804.1</ele>
        <time>2023-10-31T09:13:02Z</time>
      </trkpt>
      <trkpt lat="42.8015" lon="-0.03307">
        <ele>1804.3</ele>
        <time>2023-10-31T09:13:03Z</time>
      </trkpt>
      <trkpt lat="42.8015" lon="-0.03307">
        <ele>1804.4</ele>
        <time>2023-10-31T09:13:04Z</time>
      </trkpt>
      <trkpt lat="42.80151" lon="-0.03308">
        <ele>1804.5</ele>
        <time>2023-10-31T09:13:05Z</time>
      </trkpt>
      <trkpt lat="42.80151" lon="-0.03308">
        <ele>1804.6</ele>
        <time>2023-10-31T09:13:06Z</time>
      </trkpt>
      <trkpt lat="42.80151" lon="-0.03309">
        <ele>1804.8</ele>
        <time>2023-10-31T09:13:07Z</time>
      </trkpt>
      <trkpt lat="42.80151" lon="-0.0331">
        <ele>1805</ele>
        <time>2023-10-31T09:13:08Z</time>
      </trkpt>
      <trkpt lat="42.8015" lon="-0.03312">
        <ele>1805.5</ele>
        <time>2023-10-31T09:13:09Z</time>
      </trkpt>
      <trkpt lat="42.8015" lon="-0.03312">
        <ele>1805.6</ele>
        <time>2023-10-31T09:13:10Z</time>
      </trkpt>
      <trkpt lat="42.80149" lon="-0.03311">
        <ele>1805.8</ele>
        <time>2023-10-31T09:13:11Z</time>
      </trkpt>
      <trkpt lat="42.80148" lon="-0.03311">
        <ele>1806.1</ele>
        <time>2023-10-31T09:13:12Z</time>
      </trkpt>
      <trkpt lat="42.80147" lon="-0.03311">
        <ele>1806.4</ele>
        <time>2023-10-31T09:13:13Z</time>
      </trkpt>
      <trkpt lat="42.80147" lon="-0.03312">
        <ele>1806.5</ele>
        <time>2023-10-31T09:13:14Z</time>
      </trkpt>
      <trkpt lat="42.80147" lon="-0.03312">
        <ele>1806.7</ele>
        <time>2023-10-31T09:13:15Z</time>
      </trkpt>
      <trkpt lat="42.80147" lon="-0.03313">
        <ele>1806.8</ele>
        <time>2023-10-31T09:13:16Z</time>
      </trkpt>
      <trkpt lat="42.80147" lon="-0.03314">
        <ele>1807</ele>
        <time>2023-10-31T09:13:17Z</time>
      </trkpt>
      <trkpt lat="42.80147" lon="-0.03314">
        <ele>1807.1</ele>
        <time>2023-10-31T09:13:18Z</time>
      </trkpt>
      <trkpt lat="42.80146" lon="-0.03314">
        <ele>1807.3</ele>
        <time>2023-10-31T09:13:19Z</time>
      </trkpt>
      <trkpt lat="42.80146" lon="-0.03315">
        <ele>1807.4</ele>
        <time>2023-10-31T09:13:20Z</time>
      </trkpt>
      <trkpt lat="42.80147" lon="-0.03315">
        <ele>1807.5</ele>
        <time>2023-10-31T09:13:21Z</time>
      </trkpt>
      <trkpt lat="42.80147" lon="-0.03316">
        <ele>1807.8</ele>
        <time>2023-10-31T09:13:22Z</time>
      </trkpt>
      <trkpt lat="42.80148" lon="-0.03316">
        <ele>1808</ele>
        <time>2023-10-31T09:13:23Z</time>
      </trkpt>
      <trkpt lat="42.80148" lon="-0.03316">
        <ele>1808.1</ele>
        <time>2023-10-31T09:13:24Z</time>
      </trkpt>
      <trkpt lat="42.80149" lon="-0.03316">
        <ele>1808.3</ele>
        <time>2023-10-31T09:13:25Z</time>
      </trkpt>
      <trkpt lat="42.80149" lon="-0.03317">
        <ele>1808.4</ele>
        <time>2023-10-31T09:13:26Z</time>
      </trkpt>
      <trkpt lat="42.80149" lon="-0.03317">
        <ele>1808.5</ele>
        <time>2023-10-31T09:13:27Z</time>
      </trkpt>
      <trkpt lat="42.8015" lon="-0.03317">
        <ele>1808.7</ele>
        <time>2023-10-31T09:13:28Z</time>
      </trkpt>
      <trkpt lat="42.8015" lon="-0.03318">
        <ele>1808.9</ele>
        <time>2023-10-31T09:13:29Z</time>
      </trkpt>
      <trkpt lat="42.80151" lon="-0.03318">
        <ele>1809.1</ele>
        <time>2023-10-31T09:13:30Z</time>
      </trkpt>
      <trkpt lat="42.80151" lon="-0.03318">
        <ele>1809.1</ele>
        <time>2023-10-31T09:13:31Z</time>
      </trkpt>
      <trkpt lat="42.80151" lon="-0.03319">
        <ele>1809.4</ele>
        <time>2023-10-31T09:13:32Z</time>
      </trkpt>
      <trkpt lat="42.80152" lon="-0.03319">
        <ele>1809.6</ele>
        <time>2023-10-31T09:13:33Z</time>
      </trkpt>
      <trkpt lat="42.80152" lon="-0.0332">
        <ele>1809.7</ele>
        <time>2023-10-31T09:13:34Z</time>
      </trkpt>
      <trkpt lat="42.80152" lon="-0.0332">
        <ele>1809.8</ele>
        <time>2023-10-31T09:13:35Z</time>
      </trkpt>
      <trkpt lat="42.80152" lon="-0.0332">
        <ele>1809.9</ele>
        <time>2023-10-31T09:13:36Z</time>
      </trkpt>
      <trkpt lat="42.80152" lon="-0.0332">
        <ele>1810</ele>
        <time>2023-10-31T09:13:37Z</time>
      </trkpt>
      <trkpt lat="42.80152" lon="-0.03321">
        <ele>1810.2</ele>
        <time>2023-10-31T09:13:38Z</time>
      </trkpt>
      <trkpt lat="42.80152" lon="-0.03322">
        <ele>1810.4</ele>
        <time>2023-10-31T09:13:39Z</time>
      </trkpt>
      <trkpt lat="42.80152" lon="-0.03322">
        <ele>1810.4</ele>
        <time>2023-10-31T09:13:40Z</time>
      </trkpt>
      <trkpt lat="42.80153" lon="-0.03322">
        <ele>1810.6</ele>
        <time>2023-10-31T09:13:41Z</time>
      </trkpt>
      <trkpt lat="42.80153" lon="-0.03323">
        <ele>1810.7</ele>
        <time>2023-10-31T09:13:42Z</time>
      </trkpt>
      <trkpt lat="42.80153" lon="-0.03323">
        <ele>1810.9</ele>
        <time>2023-10-31T09:13:43Z</time>
      </trkpt>
      <trkpt lat="42.80153" lon="-0.03324">
        <ele>1811</ele>
        <time>2023-10-31T09:13:44Z</time>
      </trkpt>
      <trkpt lat="42.80153" lon="-0.03324">
        <ele>1811.1</ele>
        <time>2023-10-31T09:13:45Z</time>
      </trkpt>
      <trkpt lat="42.80154" lon="-0.03324">
        <ele>1811.3</ele>
        <time>2023-10-31T09:13:46Z</time>
      </trkpt>
      <trkpt lat="42.80154" lon="-0.03324">
        <ele>1811.6</ele>
        <time>2023-10-31T09:13:47Z</time>
      </trkpt>
      <trkpt lat="42.80154" lon="-0.03324">
        <ele>1811.8</ele>
        <time>2023-10-31T09:13:48Z</time>
      </trkpt>
      <trkpt lat="42.80155" lon="-0.03325">
        <ele>1812.2</ele>
        <time>2023-10-31T09:13:49Z</time>
      </trkpt>
      <trkpt lat="42.80155" lon="-0.03325">
        <ele>1812.4</ele>
        <time>2023-10-31T09:13:50Z</time>
      </trkpt>
      <trkpt lat="42.80155" lon="-0.03326">
        <ele>1812.5</ele>
        <time>2023-10-31T09:13:51Z</time>
      </trkpt>
      <trkpt lat="42.80155" lon="-0.03326">
        <ele>1812.6</ele>
        <time>2023-10-31T09:13:52Z</time>
      </trkpt>
      <trkpt lat="42.80155" lon="-0.03326">
        <ele>1812.6</ele>
        <time>2023-10-31T09:13:53Z</time>
      </trkpt>
      <trkpt lat="42.80155" lon="-0.03326">
        <ele>1812.7</ele>
        <time>2023-10-31T09:13:54Z</time>
      </trkpt>
      <trkpt lat="42.80155" lon="-0.03326">
        <ele>1812.8</ele>
        <time>2023-10-31T09:13:55Z</time>
      </trkpt>
      <trkpt lat="42.80156" lon="-0.03326">
        <ele>1813</ele>
        <time>2023-10-31T09:13:56Z</time>
      </trkpt>
      <trkpt lat="42.80156" lon="-0.03326">
        <ele>1813.1</ele>
        <time>2023-10-31T09:13:57Z</time>
      </trkpt>
      <trkpt lat="42.80156" lon="-0.03326">
        <ele>1813.3</ele>
        <time>2023-10-31T09:13:58Z</time>
      </trkpt>
      <trkpt lat="42.80157" lon="-0.03326">
        <ele>1813.4</ele>
        <time>2023-10-31T09:13:59Z</time>
      </trkpt>
      <trkpt lat="42.80157" lon="-0.03327">
        <ele>1813.6</ele>
        <time>2023-10-31T09:14:00Z</time>
      </trkpt>
      <trkpt lat="42.80157" lon="-0.03328">
        <ele>1813.8</ele>
        <time>2023-10-31T09:14:01Z</time>
      </trkpt>
      <trkpt lat="42.80157" lon="-0.03328">
        <ele>1814</ele>
        <time>2023-10-31T09:14:02Z</time>
      </trkpt>
      <trkpt lat="42.80156" lon="-0.03329">
        <ele>1814.4</ele>
        <time>2023-10-31T09:14:03Z</time>
      </trkpt>
      <trkpt lat="42.80156" lon="-0.0333">
        <ele>1814.6</ele>
        <time>2023-10-31T09:14:04Z</time>
      </trkpt>
      <trkpt lat="42.80156" lon="-0.03329">
        <ele>1814.8</ele>
        <time>2023-10-31T09:14:05Z</time>
      </trkpt>
      <trkpt lat="42.80155" lon="-0.03329">
        <ele>1815.2</ele>
        <time>2023-10-31T09:14:06Z</time>
      </trkpt>
      <trkpt lat="42.80155" lon="-0.03329">
        <ele>1815.3</ele>
        <time>2023-10-31T09:14:07Z</time>
      </trkpt>
      <trkpt lat="42.80155" lon="-0.0333">
        <ele>1815.6</ele>
        <time>2023-10-31T09:14:08Z</time>
      </trkpt>
      <trkpt lat="42.80154" lon="-0.0333">
        <ele>1815.9</ele>
        <time>2023-10-31T09:14:09Z</time>
      </trkpt>
      <trkpt lat="42.80154" lon="-0.03331">
        <ele>1816</ele>
        <time>2023-10-31T09:14:10Z</time>
      </trkpt>
      <trkpt lat="42.80154" lon="-0.03331">
        <ele>1816.3</ele>
        <time>2023-10-31T09:14:11Z</time>
      </trkpt>
      <trkpt lat="42.80154" lon="-0.03332">
        <ele>1816.5</ele>
        <time>2023-10-31T09:14:12Z</time>
      </trkpt>
      <trkpt lat="42.80153" lon="-0.03332">
        <ele>1816.7</ele>
        <time>2023-10-31T09:14:13Z</time>
      </trkpt>
      <trkpt lat="42.80153" lon="-0.03333">
        <ele>1817</ele>
        <time>2023-10-31T09:14:14Z</time>
      </trkpt>
      <trkpt lat="42.80152" lon="-0.03333">
        <ele>1817.3</ele>
        <time>2023-10-31T09:14:15Z</time>
      </trkpt>
      <trkpt lat="42.80152" lon="-0.03334">
        <ele>1817.6</ele>
        <time>2023-10-31T09:14:16Z</time>
      </trkpt>
      <trkpt lat="42.8015" lon="-0.03334">
        <ele>1818.2</ele>
        <time>2023-10-31T09:14:18Z</time>
      </trkpt>
      <trkpt lat="42.8015" lon="-0.03335">
        <ele>1818.4</ele>
        <time>2023-10-31T09:14:19Z</time>
      </trkpt>
      <trkpt lat="42.8015" lon="-0.03335">
        <ele>1818.6</ele>
        <time>2023-10-31T09:14:20Z</time>
      </trkpt>
      <trkpt lat="42.80149" lon="-0.03335">
        <ele>1818.8</ele>
        <time>2023-10-31T09:14:21Z</time>
      </trkpt>
      <trkpt lat="42.80149" lon="-0.03336">
        <ele>1819.1</ele>
        <time>2023-10-31T09:14:22Z</time>
      </trkpt>
      <trkpt lat="42.80149" lon="-0.03336">
        <ele>1819.3</ele>
        <time>2023-10-31T09:14:23Z</time>
      </trkpt>
      <trkpt lat="42.8015" lon="-0.03337">
        <ele>1819.5</ele>
        <time>2023-10-31T09:14:24Z</time>
      </trkpt>
      <trkpt lat="42.8015" lon="-0.03337">
        <ele>1819.6</ele>
        <time>2023-10-31T09:14:25Z</time>
      </trkpt>
      <trkpt lat="42.8015" lon="-0.03337">
        <ele>1819.7</ele>
        <time>2023-10-31T09:14:26Z</time>
      </trkpt>
      <trkpt lat="42.80151" lon="-0.03338">
        <ele>1820</ele>
        <time>2023-10-31T09:14:27Z</time>
      </trkpt>
      <trkpt lat="42.8015" lon="-0.03338">
        <ele>1820.2</ele>
        <time>2023-10-31T09:14:28Z</time>
      </trkpt>
      <trkpt lat="42.80151" lon="-0.03338">
        <ele>1820.8</ele>
        <time>2023-10-31T09:14:29Z</time>
      </trkpt>
      <trkpt lat="42.80152" lon="-0.03338">
        <ele>1821.2</ele>
        <time>2023-10-31T09:14:30Z</time>
      </trkpt>
      <trkpt lat="42.80153" lon="-0.03339">
        <ele>1821.6</ele>
        <time>2023-10-31T09:14:31Z</time>
      </trkpt>
      <trkpt lat="42.80153" lon="-0.03339">
        <ele>1821.8</ele>
        <time>2023-10-31T09:14:32Z</time>
      </trkpt>
      <trkpt lat="42.80153" lon="-0.03339">
        <ele>1821.9</ele>
        <time>2023-10-31T09:14:33Z</time>
      </trkpt>
      <trkpt lat="42.80153" lon="-0.03339">
        <ele>1822.2</ele>
        <time>2023-10-31T09:14:34Z</time>
      </trkpt>
      <trkpt lat="42.80154" lon="-0.0334">
        <ele>1822.6</ele>
        <time>2023-10-31T09:14:35Z</time>
      </trkpt>
      <trkpt lat="42.80155" lon="-0.0334">
        <ele>1822.9</ele>
        <time>2023-10-31T09:14:36Z</time>
      </trkpt>
      <trkpt lat="42.80155" lon="-0.0334">
        <ele>1823</ele>
        <time>2023-10-31T09:14:37Z</time>
      </trkpt>
      <trkpt lat="42.80156" lon="-0.0334">
        <ele>1823.5</ele>
        <time>2023-10-31T09:14:38Z</time>
      </trkpt>
      <trkpt lat="42.80156" lon="-0.03341">
        <ele>1823.7</ele>
        <time>2023-10-31T09:14:39Z</time>
      </trkpt>
      <trkpt lat="42.80156" lon="-0.03341">
        <ele>1823.9</ele>
        <time>2023-10-31T09:14:40Z</time>
      </trkpt>
      <trkpt lat="42.80156" lon="-0.03341">
        <ele>1824.1</ele>
        <time>2023-10-31T09:14:41Z</time>
      </trkpt>
      <trkpt lat="42.80157" lon="-0.03341">
        <ele>1824.4</ele>
        <time>2023-10-31T09:14:42Z</time>
      </trkpt>
      <trkpt lat="42.80157" lon="-0.03342">
        <ele>1824.8</ele>
        <time>2023-10-31T09:14:43Z</time>
      </trkpt>
      <trkpt lat="42.80157" lon="-0.03343">
        <ele>1825.2</ele>
        <time>2023-10-31T09:14:44Z</time>
      </trkpt>
      <trkpt lat="42.80157" lon="-0.03344">
        <ele>1825.5</ele>
        <time>2023-10-31T09:14:45Z</time>
      </trkpt>
      <trkpt lat="42.80157" lon="-0.03344">
        <ele>1825.5</ele>
        <time>2023-10-31T09:14:46Z</time>
      </trkpt>
      <trkpt lat="42.80158" lon="-0.03344">
        <ele>1826</ele>
        <time>2023-10-31T09:14:47Z</time>
      </trkpt>
      <trkpt lat="42.80158" lon="-0.03345">
        <ele>1826.4</ele>
        <time>2023-10-31T09:14:48Z</time>
      </trkpt>
      <trkpt lat="42.80159" lon="-0.03345">
        <ele>1826.7</ele>
        <time>2023-10-31T09:14:49Z</time>
      </trkpt>
      <trkpt lat="42.80159" lon="-0.03345">
        <ele>1826.9</ele>
        <time>2023-10-31T09:14:50Z</time>
      </trkpt>
      <trkpt lat="42.8016" lon="-0.03345">
        <ele>1827.2</ele>
        <time>2023-10-31T09:14:51Z</time>
      </trkpt>
      <trkpt lat="42.8016" lon="-0.03345">
        <ele>1827.3</ele>
        <time>2023-10-31T09:14:52Z</time>
      </trkpt>
      <trkpt lat="42.8016" lon="-0.03346">
        <ele>1827.5</ele>
        <time>2023-10-31T09:14:53Z</time>
      </trkpt>
      <trkpt lat="42.8016" lon="-0.03346">
        <ele>1827.6</ele>
        <time>2023-10-31T09:14:54Z</time>
      </trkpt>
      <trkpt lat="42.80161" lon="-0.03346">
        <ele>1827.9</ele>
        <time>2023-10-31T09:14:55Z</time>
      </trkpt>
      <trkpt lat="42.80161" lon="-0.03346">
        <ele>1828.1</ele>
        <time>2023-10-31T09:14:56Z</time>
      </trkpt>
      <trkpt lat="42.80162" lon="-0.03346">
        <ele>1828.4</ele>
        <time>2023-10-31T09:14:57Z</time>
      </trkpt>
      <trkpt lat="42.80162" lon="-0.03346">
        <ele>1828.6</ele>
        <time>2023-10-31T09:14:58Z</time>
      </trkpt>
      <trkpt lat="42.80163" lon="-0.03346">
        <ele>1829</ele>
        <time>2023-10-31T09:14:59Z</time>
      </trkpt>
      <trkpt lat="42.80164" lon="-0.03347">
        <ele>1829.3</ele>
        <time>2023-10-31T09:15:00Z</time>
      </trkpt>
      <trkpt lat="42.80164" lon="-0.03347">
        <ele>1829.5</ele>
        <time>2023-10-31T09:15:01Z</time>
      </trkpt>
      <trkpt lat="42.80164" lon="-0.03347">
        <ele>1829.7</ele>
        <time>2023-10-31T09:15:02Z</time>
      </trkpt>
      <trkpt lat="42.80165" lon="-0.03347">
        <ele>1829.8</ele>
        <time>2023-10-31T09:15:03Z</time>
      </trkpt>
      <trkpt lat="42.80165" lon="-0.03347">
        <ele>1829.9</ele>
        <time>2023-10-31T09:15:04Z</time>
      </trkpt>
      <trkpt lat="42.80165" lon="-0.03348">
        <ele>1830.2</ele>
        <time>2023-10-31T09:15:05Z</time>
      </trkpt>
      <trkpt lat="42.80166" lon="-0.03348">
        <ele>1830.4</ele>
        <time>2023-10-31T09:15:06Z</time>
      </trkpt>
      <trkpt lat="42.80166" lon="-0.03348">
        <ele>1830.7</ele>
        <time>2023-10-31T09:15:07Z</time>
      </trkpt>
      <trkpt lat="42.80166" lon="-0.03349">
        <ele>1830.9</ele>
        <time>2023-10-31T09:15:08Z</time>
      </trkpt>
      <trkpt lat="42.80167" lon="-0.03348">
        <ele>1831</ele>
        <time>2023-10-31T09:15:09Z</time>
      </trkpt>
      <trkpt lat="42.80167" lon="-0.03348">
        <ele>1831.2</ele>
        <time>2023-10-31T09:15:10Z</time>
      </trkpt>
      <trkpt lat="42.80167" lon="-0.03348">
        <ele>1831.4</ele>
        <time>2023-10-31T09:15:11Z</time>
      </trkpt>
      <trkpt lat="42.80168" lon="-0.03348">
        <ele>1831.6</ele>
        <time>2023-10-31T09:15:12Z</time>
      </trkpt>
      <trkpt lat="42.80168" lon="-0.03349">
        <ele>1831.9</ele>
        <time>2023-10-31T09:15:13Z</time>
      </trkpt>
      <trkpt lat="42.80168" lon="-0.03349">
        <ele>1832</ele>
        <time>2023-10-31T09:15:14Z</time>
      </trkpt>
      <trkpt lat="42.80169" lon="-0.0335">
        <ele>1832.4</ele>
        <time>2023-10-31T09:15:15Z</time>
      </trkpt>
      <trkpt lat="42.8017" lon="-0.03349">
        <ele>1832.8</ele>
        <time>2023-10-31T09:15:16Z</time>
      </trkpt>
      <trkpt lat="42.8017" lon="-0.03349">
        <ele>1832.9</ele>
        <time>2023-10-31T09:15:17Z</time>
      </trkpt>
      <trkpt lat="42.8017" lon="-0.0335">
        <ele>1833</ele>
        <time>2023-10-31T09:15:18Z</time>
      </trkpt>
      <trkpt lat="42.8017" lon="-0.0335">
        <ele>1833.1</ele>
        <time>2023-10-31T09:15:19Z</time>
      </trkpt>
      <trkpt lat="42.80171" lon="-0.0335">
        <ele>1833.4</ele>
        <time>2023-10-31T09:15:20Z</time>
      </trkpt>
      <trkpt lat="42.80171" lon="-0.0335">
        <ele>1833.5</ele>
        <time>2023-10-31T09:15:21Z</time>
      </trkpt>
      <trkpt lat="42.80171" lon="-0.0335">
        <ele>1833.7</ele>
        <time>2023-10-31T09:15:22Z</time>
      </trkpt>
      <trkpt lat="42.80172" lon="-0.0335">
        <ele>1833.8</ele>
        <time>2023-10-31T09:15:23Z</time>
      </trkpt>
      <trkpt lat="42.80172" lon="-0.0335">
        <ele>1834.1</ele>
        <time>2023-10-31T09:15:24Z</time>
      </trkpt>
      <trkpt lat="42.80173" lon="-0.03351">
        <ele>1834.6</ele>
        <time>2023-10-31T09:15:25Z</time>
      </trkpt>
      <trkpt lat="42.80174" lon="-0.03351">
        <ele>1834.9</ele>
        <time>2023-10-31T09:15:26Z</time>
      </trkpt>
      <trkpt lat="42.80174" lon="-0.0335">
        <ele>1835</ele>
        <time>2023-10-31T09:15:27Z</time>
      </trkpt>
      <trkpt lat="42.80174" lon="-0.0335">
        <ele>1835.1</ele>
        <time>2023-10-31T09:15:28Z</time>
      </trkpt>
      <trkpt lat="42.80174" lon="-0.0335">
        <ele>1835.2</ele>
        <time>2023-10-31T09:15:29Z</time>
      </trkpt>
      <trkpt lat="42.80174" lon="-0.0335">
        <ele>1835.4</ele>
        <time>2023-10-31T09:15:30Z</time>
      </trkpt>
      <trkpt lat="42.80174" lon="-0.03351">
        <ele>1835.6</ele>
        <time>2023-10-31T09:15:31Z</time>
      </trkpt>
      <trkpt lat="42.80175" lon="-0.03351">
        <ele>1835.9</ele>
        <time>2023-10-31T09:15:32Z</time>
      </trkpt>
      <trkpt lat="42.80175" lon="-0.03351">
        <ele>1836.1</ele>
        <time>2023-10-31T09:15:33Z</time>
      </trkpt>
      <trkpt lat="42.80176" lon="-0.0335">
        <ele>1836.5</ele>
        <time>2023-10-31T09:15:34Z</time>
      </trkpt>
      <trkpt lat="42.80176" lon="-0.0335">
        <ele>1836.6</ele>
        <time>2023-10-31T09:15:35Z</time>
      </trkpt>
      <trkpt lat="42.80177" lon="-0.03351">
        <ele>1837</ele>
        <time>2023-10-31T09:15:36Z</time>
      </trkpt>
      <trkpt lat="42.80177" lon="-0.03352">
        <ele>1837.3</ele>
        <time>2023-10-31T09:15:37Z</time>
      </trkpt>
      <trkpt lat="42.80178" lon="-0.03352">
        <ele>1837.5</ele>
        <time>2023-10-31T09:15:38Z</time>
      </trkpt>
      <trkpt lat="42.80178" lon="-0.03352">
        <ele>1837.7</ele>
        <time>2023-10-31T09:15:39Z</time>
      </trkpt>
      <trkpt lat="42.80178" lon="-0.03352">
        <ele>1837.8</ele>
        <time>2023-10-31T09:15:40Z</time>
      </trkpt>
      <trkpt lat="42.80178" lon="-0.03352">
        <ele>1837.9</ele>
        <time>2023-10-31T09:15:41Z</time>
      </trkpt>
      <trkpt lat="42.80179" lon="-0.03353">
        <ele>1838.4</ele>
        <time>2023-10-31T09:15:42Z</time>
      </trkpt>
      <trkpt lat="42.80178" lon="-0.03353">
        <ele>1838.6</ele>
        <time>2023-10-31T09:15:43Z</time>
      </trkpt>
      <trkpt lat="42.80178" lon="-0.03353">
        <ele>1838.8</ele>
        <time>2023-10-31T09:15:44Z</time>
      </trkpt>
      <trkpt lat="42.80179" lon="-0.03353">
        <ele>1839</ele>
        <time>2023-10-31T09:15:45Z</time>
      </trkpt>
      <trkpt lat="42.80179" lon="-0.03353">
        <ele>1839.1</ele>
        <time>2023-10-31T09:15:46Z</time>
      </trkpt>
      <trkpt lat="42.8018" lon="-0.03353">
        <ele>1839.4</ele>
        <time>2023-10-31T09:15:47Z</time>
      </trkpt>
      <trkpt lat="42.8018" lon="-0.03354">
        <ele>1839.7</ele>
        <time>2023-10-31T09:15:48Z</time>
      </trkpt>
      <trkpt lat="42.80181" lon="-0.03354">
        <ele>1839.9</ele>
        <time>2023-10-31T09:15:49Z</time>
      </trkpt>
      <trkpt lat="42.80181" lon="-0.03354">
        <ele>1840</ele>
        <time>2023-10-31T09:15:50Z</time>
      </trkpt>
      <trkpt lat="42.80182" lon="-0.03354">
        <ele>1840.5</ele>
        <time>2023-10-31T09:15:51Z</time>
      </trkpt>
      <trkpt lat="42.80182" lon="-0.03353">
        <ele>1840.7</ele>
        <time>2023-10-31T09:15:52Z</time>
      </trkpt>
      <trkpt lat="42.80183" lon="-0.03353">
        <ele>1841.1</ele>
        <time>2023-10-31T09:15:53Z</time>
      </trkpt>
      <trkpt lat="42.80184" lon="-0.03352">
        <ele>1841.4</ele>
        <time>2023-10-31T09:15:54Z</time>
      </trkpt>
      <trkpt lat="42.80184" lon="-0.03352">
        <ele>1841.6</ele>
        <time>2023-10-31T09:15:55Z</time>
      </trkpt>
      <trkpt lat="42.80185" lon="-0.03352">
        <ele>1841.9</ele>
        <time>2023-10-31T09:15:56Z</time>
      </trkpt>
      <trkpt lat="42.80185" lon="-0.03352">
        <ele>1842.1</ele>
        <time>2023-10-31T09:15:57Z</time>
      </trkpt>
      <trkpt lat="42.80186" lon="-0.03352">
        <ele>1842.3</ele>
        <time>2023-10-31T09:15:58Z</time>
      </trkpt>
      <trkpt lat="42.80186" lon="-0.03352">
        <ele>1842.5</ele>
        <time>2023-10-31T09:15:59Z</time>
      </trkpt>
      <trkpt lat="42.80187" lon="-0.03352">
        <ele>1842.7</ele>
        <time>2023-10-31T09:16:00Z</time>
      </trkpt>
      <trkpt lat="42.80187" lon="-0.03352">
        <ele>1842.7</ele>
        <time>2023-10-31T09:16:01Z</time>
      </trkpt>
      <trkpt lat="42.80187" lon="-0.03352">
        <ele>1842.9</ele>
        <time>2023-10-31T09:16:02Z</time>
      </trkpt>
      <trkpt lat="42.80187" lon="-0.03352">
        <ele>1842.9</ele>
        <time>2023-10-31T09:16:03Z</time>
      </trkpt>
      <trkpt lat="42.80187" lon="-0.03352">
        <ele>1843.1</ele>
        <time>2023-10-31T09:16:04Z</time>
      </trkpt>
      <trkpt lat="42.80187" lon="-0.03352">
        <ele>1843.3</ele>
        <time>2023-10-31T09:16:05Z</time>
      </trkpt>
      <trkpt lat="42.80187" lon="-0.03353">
        <ele>1843.3</ele>
        <time>2023-10-31T09:16:06Z</time>
      </trkpt>
      <trkpt lat="42.80187" lon="-0.03353">
        <ele>1843.4</ele>
        <time>2023-10-31T09:16:07Z</time>
      </trkpt>
      <trkpt lat="42.80187" lon="-0.03354">
        <ele>1843.5</ele>
        <time>2023-10-31T09:16:08Z</time>
      </trkpt>
      <trkpt lat="42.80186" lon="-0.03355">
        <ele>1843.6</ele>
        <time>2023-10-31T09:16:09Z</time>
      </trkpt>
      <trkpt lat="42.80186" lon="-0.03356">
        <ele>1843.7</ele>
        <time>2023-10-31T09:16:10Z</time>
      </trkpt>
      <trkpt lat="42.80185" lon="-0.03356">
        <ele>1843.7</ele>
        <time>2023-10-31T09:16:11Z</time>
      </trkpt>
      <trkpt lat="42.80184" lon="-0.03357">
        <ele>1843.9</ele>
        <time>2023-10-31T09:16:12Z</time>
      </trkpt>
      <trkpt lat="42.80183" lon="-0.03357">
        <ele>1844</ele>
        <time>2023-10-31T09:16:13Z</time>
      </trkpt>
      <trkpt lat="42.80183" lon="-0.03358">
        <ele>1844.1</ele>
        <time>2023-10-31T09:16:14Z</time>
      </trkpt>
      <trkpt lat="42.80182" lon="-0.03359">
        <ele>1844.2</ele>
        <time>2023-10-31T09:16:15Z</time>
      </trkpt>
      <trkpt lat="42.80181" lon="-0.0336">
        <ele>1844.3</ele>
        <time>2023-10-31T09:16:16Z</time>
      </trkpt>
      <trkpt lat="42.80181" lon="-0.0336">
        <ele>1844.4</ele>
        <time>2023-10-31T09:16:17Z</time>
      </trkpt>
      <trkpt lat="42.8018" lon="-0.03361">
        <ele>1844.5</ele>
        <time>2023-10-31T09:16:18Z</time>
      </trkpt>
      <trkpt lat="42.8018" lon="-0.03362">
        <ele>1844.6</ele>
        <time>2023-10-31T09:16:19Z</time>
      </trkpt>
      <trkpt lat="42.80179" lon="-0.03362">
        <ele>1844.7</ele>
        <time>2023-10-31T09:16:20Z</time>
      </trkpt>
      <trkpt lat="42.80177" lon="-0.03362">
        <ele>1845</ele>
        <time>2023-10-31T09:16:21Z</time>
      </trkpt>
      <trkpt lat="42.80176" lon="-0.03362">
        <ele>1845.1</ele>
        <time>2023-10-31T09:16:22Z</time>
      </trkpt>
      <trkpt lat="42.80176" lon="-0.03362">
        <ele>1845.1</ele>
        <time>2023-10-31T09:16:23Z</time>
      </trkpt>
      <trkpt lat="42.80175" lon="-0.03362">
        <ele>1845.3</ele>
        <time>2023-10-31T09:16:24Z</time>
      </trkpt>
      <trkpt lat="42.80174" lon="-0.03363">
        <ele>1845.4</ele>
        <time>2023-10-31T09:16:25Z</time>
      </trkpt>
      <trkpt lat="42.80174" lon="-0.03363">
        <ele>1845.5</ele>
        <time>2023-10-31T09:16:26Z</time>
      </trkpt>
      <trkpt lat="42.80174" lon="-0.03364">
        <ele>1845.6</ele>
        <time>2023-10-31T09:16:27Z</time>
      </trkpt>
      <trkpt lat="42.80173" lon="-0.03365">
        <ele>1845.7</ele>
        <time>2023-10-31T09:16:28Z</time>
      </trkpt>
      <trkpt lat="42.80173" lon="-0.03366">
        <ele>1845.8</ele>
        <time>2023-10-31T09:16:29Z</time>
      </trkpt>
      <trkpt lat="42.80172" lon="-0.03367">
        <ele>1845.9</ele>
        <time>2023-10-31T09:16:30Z</time>
      </trkpt>
      <trkpt lat="42.80172" lon="-0.03368">
        <ele>1846</ele>
        <time>2023-10-31T09:16:31Z</time>
      </trkpt>
      <trkpt lat="42.80171" lon="-0.03368">
        <ele>1846.1</ele>
        <time>2023-10-31T09:16:32Z</time>
      </trkpt>
      <trkpt lat="42.80171" lon="-0.03369">
        <ele>1846.2</ele>
        <time>2023-10-31T09:16:33Z</time>
      </trkpt>
      <trkpt lat="42.8017" lon="-0.03369">
        <ele>1846.3</ele>
        <time>2023-10-31T09:16:34Z</time>
      </trkpt>
      <trkpt lat="42.8017" lon="-0.0337">
        <ele>1846.4</ele>
        <time>2023-10-31T09:16:35Z</time>
      </trkpt>
      <trkpt lat="42.80169" lon="-0.0337">
        <ele>1846.5</ele>
        <time>2023-10-31T09:16:36Z</time>
      </trkpt>
      <trkpt lat="42.80168" lon="-0.03371">
        <ele>1846.7</ele>
        <time>2023-10-31T09:16:37Z</time>
      </trkpt>
      <trkpt lat="42.80167" lon="-0.03372">
        <ele>1846.9</ele>
        <time>2023-10-31T09:16:38Z</time>
      </trkpt>
      <trkpt lat="42.80167" lon="-0.03372">
        <ele>1847</ele>
        <time>2023-10-31T09:16:39Z</time>
      </trkpt>
      <trkpt lat="42.80166" lon="-0.03373">
        <ele>1847.1</ele>
        <time>2023-10-31T09:16:40Z</time>
      </trkpt>
      <trkpt lat="42.80166" lon="-0.03373">
        <ele>1847.2</ele>
        <time>2023-10-31T09:16:41Z</time>
      </trkpt>
      <trkpt lat="42.80165" lon="-0.03374">
        <ele>1847.3</ele>
        <time>2023-10-31T09:16:42Z</time>
      </trkpt>
      <trkpt lat="42.80165" lon="-0.03374">
        <ele>1847.4</ele>
        <time>2023-10-31T09:16:43Z</time>
      </trkpt>
      <trkpt lat="42.80163" lon="-0.03375">
        <ele>1847.7</ele>
        <time>2023-10-31T09:16:44Z</time>
      </trkpt>
      <trkpt lat="42.80162" lon="-0.03376">
        <ele>1847.8</ele>
        <time>2023-10-31T09:16:45Z</time>
      </trkpt>
      <trkpt lat="42.80162" lon="-0.03376">
        <ele>1847.9</ele>
        <time>2023-10-31T09:16:46Z</time>
      </trkpt>
      <trkpt lat="42.80161" lon="-0.03376">
        <ele>1848.1</ele>
        <time>2023-10-31T09:16:47Z</time>
      </trkpt>
      <trkpt lat="42.8016" lon="-0.03377">
        <ele>1848.2</ele>
        <time>2023-10-31T09:16:48Z</time>
      </trkpt>
      <trkpt lat="42.8016" lon="-0.03378">
        <ele>1848.4</ele>
        <time>2023-10-31T09:16:49Z</time>
      </trkpt>
      <trkpt lat="42.80159" lon="-0.03378">
        <ele>1848.5</ele>
        <time>2023-10-31T09:16:50Z</time>
      </trkpt>
      <trkpt lat="42.80159" lon="-0.03379">
        <ele>1848.6</ele>
        <time>2023-10-31T09:16:51Z</time>
      </trkpt>
      <trkpt lat="42.80159" lon="-0.03379">
        <ele>1848.6</ele>
        <time>2023-10-31T09:16:52Z</time>
      </trkpt>
      <trkpt lat="42.80158" lon="-0.03381">
        <ele>1848.9</ele>
        <time>2023-10-31T09:16:53Z</time>
      </trkpt>
      <trkpt lat="42.80158" lon="-0.03381">
        <ele>1849</ele>
        <time>2023-10-31T09:16:54Z</time>
      </trkpt>
      <trkpt lat="42.80157" lon="-0.03382">
        <ele>1849.1</ele>
        <time>2023-10-31T09:16:55Z</time>
      </trkpt>
      <trkpt lat="42.80157" lon="-0.03383">
        <ele>1849.2</ele>
        <time>2023-10-31T09:16:56Z</time>
      </trkpt>
      <trkpt lat="42.80156" lon="-0.03383">
        <ele>1849.4</ele>
        <time>2023-10-31T09:16:57Z</time>
      </trkpt>
      <trkpt lat="42.80155" lon="-0.03384">
        <ele>1849.6</ele>
        <time>2023-10-31T09:16:58Z</time>
      </trkpt>
      <trkpt lat="42.80154" lon="-0.03385">
        <ele>1849.8</ele>
        <time>2023-10-31T09:16:59Z</time>
      </trkpt>
      <trkpt lat="42.80153" lon="-0.03385">
        <ele>1849.9</ele>
        <time>2023-10-31T09:17:00Z</time>
      </trkpt>
      <trkpt lat="42.80153" lon="-0.03386">
        <ele>1850</ele>
        <time>2023-10-31T09:17:01Z</time>
      </trkpt>
      <trkpt lat="42.80152" lon="-0.03386">
        <ele>1850.2</ele>
        <time>2023-10-31T09:17:02Z</time>
      </trkpt>
      <trkpt lat="42.80151" lon="-0.03386">
        <ele>1850.4</ele>
        <time>2023-10-31T09:17:03Z</time>
      </trkpt>
      <trkpt lat="42.80151" lon="-0.03387">
        <ele>1850.5</ele>
        <time>2023-10-31T09:17:04Z</time>
      </trkpt>
      <trkpt lat="42.8015" lon="-0.03388">
        <ele>1850.7</ele>
        <time>2023-10-31T09:17:05Z</time>
      </trkpt>
      <trkpt lat="42.8015" lon="-0.03388">
        <ele>1850.8</ele>
        <time>2023-10-31T09:17:06Z</time>
      </trkpt>
      <trkpt lat="42.80149" lon="-0.03389">
        <ele>1850.9</ele>
        <time>2023-10-31T09:17:07Z</time>
      </trkpt>
      <trkpt lat="42.80149" lon="-0.03389">
        <ele>1851</ele>
        <time>2023-10-31T09:17:08Z</time>
      </trkpt>
      <trkpt lat="42.80148" lon="-0.0339">
        <ele>1851.1</ele>
        <time>2023-10-31T09:17:09Z</time>
      </trkpt>
      <trkpt lat="42.80147" lon="-0.03389">
        <ele>1851.3</ele>
        <time>2023-10-31T09:17:10Z</time>
      </trkpt>
      <trkpt lat="42.80147" lon="-0.03389">
        <ele>1851.5</ele>
        <time>2023-10-31T09:17:11Z</time>
      </trkpt>
      <trkpt lat="42.80146" lon="-0.03389">
        <ele>1851.6</ele>
        <time>2023-10-31T09:17:12Z</time>
      </trkpt>
      <trkpt lat="42.80145" lon="-0.0339">
        <ele>1851.7</ele>
        <time>2023-10-31T09:17:13Z</time>
      </trkpt>
      <trkpt lat="42.80145" lon="-0.03391">
        <ele>1851.9</ele>
        <time>2023-10-31T09:17:14Z</time>
      </trkpt>
      <trkpt lat="42.80144" lon="-0.03391">
        <ele>1852.1</ele>
        <time>2023-10-31T09:17:15Z</time>
      </trkpt>
      <trkpt lat="42.80144" lon="-0.03392">
        <ele>1852.2</ele>
        <time>2023-10-31T09:17:16Z</time>
      </trkpt>
      <trkpt lat="42.80143" lon="-0.03393">
        <ele>1852.3</ele>
        <time>2023-10-31T09:17:17Z</time>
      </trkpt>
      <trkpt lat="42.80143" lon="-0.03394">
        <ele>1852.5</ele>
        <time>2023-10-31T09:17:18Z</time>
      </trkpt>
      <trkpt lat="42.80142" lon="-0.03394">
        <ele>1852.7</ele>
        <time>2023-10-31T09:17:19Z</time>
      </trkpt>
      <trkpt lat="42.80141" lon="-0.03395">
        <ele>1853</ele>
        <time>2023-10-31T09:17:20Z</time>
      </trkpt>
      <trkpt lat="42.80141" lon="-0.03395">
        <ele>1853.1</ele>
        <time>2023-10-31T09:17:21Z</time>
      </trkpt>
      <trkpt lat="42.8014" lon="-0.03395">
        <ele>1853.2</ele>
        <time>2023-10-31T09:17:22Z</time>
      </trkpt>
      <trkpt lat="42.80139" lon="-0.03395">
        <ele>1853.3</ele>
        <time>2023-10-31T09:17:23Z</time>
      </trkpt>
      <trkpt lat="42.80139" lon="-0.03396">
        <ele>1853.5</ele>
        <time>2023-10-31T09:17:24Z</time>
      </trkpt>
      <trkpt lat="42.80138" lon="-0.03396">
        <ele>1853.6</ele>
        <time>2023-10-31T09:17:25Z</time>
      </trkpt>
      <trkpt lat="42.80138" lon="-0.03397">
        <ele>1853.8</ele>
        <time>2023-10-31T09:17:26Z</time>
      </trkpt>
      <trkpt lat="42.80137" lon="-0.03397">
        <ele>1853.9</ele>
        <time>2023-10-31T09:17:27Z</time>
      </trkpt>
      <trkpt lat="42.80137" lon="-0.03398">
        <ele>1854</ele>
        <time>2023-10-31T09:17:28Z</time>
      </trkpt>
      <trkpt lat="42.80137" lon="-0.03399">
        <ele>1854.2</ele>
        <time>2023-10-31T09:17:29Z</time>
      </trkpt>
      <trkpt lat="42.80136" lon="-0.03399">
        <ele>1854.4</ele>
        <time>2023-10-31T09:17:30Z</time>
      </trkpt>
      <trkpt lat="42.80135" lon="-0.03399">
        <ele>1854.6</ele>
        <time>2023-10-31T09:17:31Z</time>
      </trkpt>
      <trkpt lat="42.80134" lon="-0.03399">
        <ele>1854.7</ele>
        <time>2023-10-31T09:17:32Z</time>
      </trkpt>
      <trkpt lat="42.80134" lon="-0.034">
        <ele>1854.9</ele>
        <time>2023-10-31T09:17:33Z</time>
      </trkpt>
      <trkpt lat="42.80133" lon="-0.034">
        <ele>1855</ele>
        <time>2023-10-31T09:17:34Z</time>
      </trkpt>
      <trkpt lat="42.80133" lon="-0.034">
        <ele>1855.1</ele>
        <time>2023-10-31T09:17:35Z</time>
      </trkpt>
      <trkpt lat="42.80132" lon="-0.03401">
        <ele>1855.3</ele>
        <time>2023-10-31T09:17:36Z</time>
      </trkpt>
      <trkpt lat="42.80132" lon="-0.03401">
        <ele>1855.3</ele>
        <time>2023-10-31T09:17:37Z</time>
      </trkpt>
      <trkpt lat="42.80132" lon="-0.03402">
        <ele>1855.5</ele>
        <time>2023-10-31T09:17:38Z</time>
      </trkpt>
      <trkpt lat="42.80131" lon="-0.03402">
        <ele>1855.7</ele>
        <time>2023-10-31T09:17:39Z</time>
      </trkpt>
      <trkpt lat="42.8013" lon="-0.03403">
        <ele>1855.9</ele>
        <time>2023-10-31T09:17:40Z</time>
      </trkpt>
      <trkpt lat="42.8013" lon="-0.03403">
        <ele>1856</ele>
        <time>2023-10-31T09:17:41Z</time>
      </trkpt>
      <trkpt lat="42.8013" lon="-0.03404">
        <ele>1856.1</ele>
        <time>2023-10-31T09:17:42Z</time>
      </trkpt>
      <trkpt lat="42.8013" lon="-0.03404">
        <ele>1856.2</ele>
        <time>2023-10-31T09:17:43Z</time>
      </trkpt>
      <trkpt lat="42.80129" lon="-0.03404">
        <ele>1856.4</ele>
        <time>2023-10-31T09:17:44Z</time>
      </trkpt>
      <trkpt lat="42.80128" lon="-0.03404">
        <ele>1856.6</ele>
        <time>2023-10-31T09:17:45Z</time>
      </trkpt>
      <trkpt lat="42.80128" lon="-0.03405">
        <ele>1856.7</ele>
        <time>2023-10-31T09:17:46Z</time>
      </trkpt>
      <trkpt lat="42.80128" lon="-0.03405">
        <ele>1856.8</ele>
        <time>2023-10-31T09:17:47Z</time>
      </trkpt>
      <trkpt lat="42.80128" lon="-0.03406">
        <ele>1857</ele>
        <time>2023-10-31T09:17:48Z</time>
      </trkpt>
      <trkpt lat="42.80128" lon="-0.03407">
        <ele>1857.2</ele>
        <time>2023-10-31T09:17:49Z</time>
      </trkpt>
      <trkpt lat="42.80127" lon="-0.03407">
        <ele>1857.2</ele>
        <time>2023-10-31T09:17:50Z</time>
      </trkpt>
      <trkpt lat="42.80127" lon="-0.03407">
        <ele>1857.4</ele>
        <time>2023-10-31T09:17:51Z</time>
      </trkpt>
      <trkpt lat="42.80126" lon="-0.03407">
        <ele>1857.6</ele>
        <time>2023-10-31T09:17:52Z</time>
      </trkpt>
      <trkpt lat="42.80126" lon="-0.03407">
        <ele>1857.7</ele>
        <time>2023-10-31T09:17:53Z</time>
      </trkpt>
      <trkpt lat="42.80125" lon="-0.03408">
        <ele>1857.9</ele>
        <time>2023-10-31T09:17:54Z</time>
      </trkpt>
      <trkpt lat="42.80125" lon="-0.03408">
        <ele>1858</ele>
        <time>2023-10-31T09:17:55Z</time>
      </trkpt>
      <trkpt lat="42.80125" lon="-0.03409">
        <ele>1858.2</ele>
        <time>2023-10-31T09:17:56Z</time>
      </trkpt>
      <trkpt lat="42.80125" lon="-0.0341">
        <ele>1858.3</ele>
        <time>2023-10-31T09:17:57Z</time>
      </trkpt>
      <trkpt lat="42.80124" lon="-0.0341">
        <ele>1858.4</ele>
        <time>2023-10-31T09:17:58Z</time>
      </trkpt>
      <trkpt lat="42.80124" lon="-0.0341">
        <ele>1858.6</ele>
        <time>2023-10-31T09:17:59Z</time>
      </trkpt>
      <trkpt lat="42.80123" lon="-0.03411">
        <ele>1858.7</ele>
        <time>2023-10-31T09:18:00Z</time>
      </trkpt>
      <trkpt lat="42.80123" lon="-0.03411">
        <ele>1858.8</ele>
        <time>2023-10-31T09:18:01Z</time>
      </trkpt>
      <trkpt lat="42.80122" lon="-0.03411">
        <ele>1858.9</ele>
        <time>2023-10-31T09:18:02Z</time>
      </trkpt>
      <trkpt lat="42.80122" lon="-0.03412">
        <ele>1859</ele>
        <time>2023-10-31T09:18:03Z</time>
      </trkpt>
      <trkpt lat="42.80122" lon="-0.03412">
        <ele>1859.1</ele>
        <time>2023-10-31T09:18:04Z</time>
      </trkpt>
      <trkpt lat="42.80122" lon="-0.03413">
        <ele>1859.3</ele>
        <time>2023-10-31T09:18:05Z</time>
      </trkpt>
      <trkpt lat="42.80122" lon="-0.03414">
        <ele>1859.4</ele>
        <time>2023-10-31T09:18:06Z</time>
      </trkpt>
      <trkpt lat="42.80122" lon="-0.03415">
        <ele>1859.6</ele>
        <time>2023-10-31T09:18:07Z</time>
      </trkpt>
      <trkpt lat="42.80122" lon="-0.03415">
        <ele>1859.7</ele>
        <time>2023-10-31T09:18:08Z</time>
      </trkpt>
      <trkpt lat="42.80122" lon="-0.03415">
        <ele>1859.7</ele>
        <time>2023-10-31T09:18:09Z</time>
      </trkpt>
      <trkpt lat="42.80122" lon="-0.03416">
        <ele>1859.8</ele>
        <time>2023-10-31T09:18:10Z</time>
      </trkpt>
      <trkpt lat="42.80121" lon="-0.03418">
        <ele>1860.2</ele>
        <time>2023-10-31T09:18:11Z</time>
      </trkpt>
      <trkpt lat="42.80121" lon="-0.03418">
        <ele>1860.2</ele>
        <time>2023-10-31T09:18:12Z</time>
      </trkpt>
      <trkpt lat="42.80121" lon="-0.03418">
        <ele>1860.4</ele>
        <time>2023-10-31T09:18:13Z</time>
      </trkpt>
      <trkpt lat="42.8012" lon="-0.03419">
        <ele>1860.6</ele>
        <time>2023-10-31T09:18:14Z</time>
      </trkpt>
      <trkpt lat="42.80119" lon="-0.03419">
        <ele>1860.7</ele>
        <time>2023-10-31T09:18:15Z</time>
      </trkpt>
      <trkpt lat="42.80119" lon="-0.0342">
        <ele>1860.9</ele>
        <time>2023-10-31T09:18:16Z</time>
      </trkpt>
      <trkpt lat="42.80119" lon="-0.0342">
        <ele>1861</ele>
        <time>2023-10-31T09:18:17Z</time>
      </trkpt>
      <trkpt lat="42.80119" lon="-0.03419">
        <ele>1861.1</ele>
        <time>2023-10-31T09:18:18Z</time>
      </trkpt>
      <trkpt lat="42.80119" lon="-0.03421">
        <ele>1861.3</ele>
        <time>2023-10-31T09:18:19Z</time>
      </trkpt>
      <trkpt lat="42.80119" lon="-0.0342">
        <ele>1861.3</ele>
        <time>2023-10-31T09:18:20Z</time>
      </trkpt>
      <trkpt lat="42.80117" lon="-0.0342">
        <ele>1861.7</ele>
        <time>2023-10-31T09:18:21Z</time>
      </trkpt>
      <trkpt lat="42.80116" lon="-0.03421">
        <ele>1861.8</ele>
        <time>2023-10-31T09:18:22Z</time>
      </trkpt>
      <trkpt lat="42.80116" lon="-0.03421">
        <ele>1861.9</ele>
        <time>2023-10-31T09:18:23Z</time>
      </trkpt>
      <trkpt lat="42.80115" lon="-0.03421">
        <ele>1862.2</ele>
        <time>2023-10-31T09:18:24Z</time>
      </trkpt>
      <trkpt lat="42.80115" lon="-0.03422">
        <ele>1862.3</ele>
        <time>2023-10-31T09:18:25Z</time>
      </trkpt>
      <trkpt lat="42.80114" lon="-0.03422">
        <ele>1862.4</ele>
        <time>2023-10-31T09:18:26Z</time>
      </trkpt>
      <trkpt lat="42.80114" lon="-0.03423">
        <ele>1862.5</ele>
        <time>2023-10-31T09:18:27Z</time>
      </trkpt>
      <trkpt lat="42.80114" lon="-0.03423">
        <ele>1862.6</ele>
        <time>2023-10-31T09:18:28Z</time>
      </trkpt>
      <trkpt lat="42.80113" lon="-0.03424">
        <ele>1862.8</ele>
        <time>2023-10-31T09:18:29Z</time>
      </trkpt>
      <trkpt lat="42.80113" lon="-0.03424">
        <ele>1862.9</ele>
        <time>2023-10-31T09:18:30Z</time>
      </trkpt>
      <trkpt lat="42.80112" lon="-0.03425">
        <ele>1863</ele>
        <time>2023-10-31T09:18:31Z</time>
      </trkpt>
      <trkpt lat="42.80112" lon="-0.03425">
        <ele>1863.2</ele>
        <time>2023-10-31T09:18:32Z</time>
      </trkpt>
      <trkpt lat="42.80111" lon="-0.03425">
        <ele>1863.3</ele>
        <time>2023-10-31T09:18:33Z</time>
      </trkpt>
      <trkpt lat="42.80111" lon="-0.03426">
        <ele>1863.5</ele>
        <time>2023-10-31T09:18:34Z</time>
      </trkpt>
      <trkpt lat="42.8011" lon="-0.03427">
        <ele>1863.8</ele>
        <time>2023-10-31T09:18:35Z</time>
      </trkpt>
      <trkpt lat="42.8011" lon="-0.03428">
        <ele>1863.8</ele>
        <time>2023-10-31T09:18:36Z</time>
      </trkpt>
      <trkpt lat="42.8011" lon="-0.03428">
        <ele>1864</ele>
        <time>2023-10-31T09:18:37Z</time>
      </trkpt>
      <trkpt lat="42.80109" lon="-0.03429">
        <ele>1864.2</ele>
        <time>2023-10-31T09:18:38Z</time>
      </trkpt>
      <trkpt lat="42.80109" lon="-0.0343">
        <ele>1864.4</ele>
        <time>2023-10-31T09:18:39Z</time>
      </trkpt>
      <trkpt lat="42.80109" lon="-0.03431">
        <ele>1864.5</ele>
        <time>2023-10-31T09:18:40Z</time>
      </trkpt>
      <trkpt lat="42.80108" lon="-0.03431">
        <ele>1864.7</ele>
        <time>2023-10-31T09:18:41Z</time>
      </trkpt>
      <trkpt lat="42.80108" lon="-0.03431">
        <ele>1864.8</ele>
        <time>2023-10-31T09:18:42Z</time>
      </trkpt>
      <trkpt lat="42.80107" lon="-0.03431">
        <ele>1864.9</ele>
        <time>2023-10-31T09:18:43Z</time>
      </trkpt>
      <trkpt lat="42.80107" lon="-0.03431">
        <ele>1865</ele>
        <time>2023-10-31T09:18:44Z</time>
      </trkpt>
      <trkpt lat="42.80107" lon="-0.0343">
        <ele>1865.1</ele>
        <time>2023-10-31T09:18:45Z</time>
      </trkpt>
      <trkpt lat="42.80106" lon="-0.0343">
        <ele>1865.4</ele>
        <time>2023-10-31T09:18:46Z</time>
      </trkpt>
      <trkpt lat="42.80105" lon="-0.0343">
        <ele>1865.6</ele>
        <time>2023-10-31T09:18:47Z</time>
      </trkpt>
      <trkpt lat="42.80104" lon="-0.0343">
        <ele>1865.8</ele>
        <time>2023-10-31T09:18:48Z</time>
      </trkpt>
      <trkpt lat="42.80104" lon="-0.0343">
        <ele>1866</ele>
        <time>2023-10-31T09:18:49Z</time>
      </trkpt>
      <trkpt lat="42.80103" lon="-0.03431">
        <ele>1866.2</ele>
        <time>2023-10-31T09:18:50Z</time>
      </trkpt>
      <trkpt lat="42.80103" lon="-0.03431">
        <ele>1866.3</ele>
        <time>2023-10-31T09:18:51Z</time>
      </trkpt>
      <trkpt lat="42.80103" lon="-0.03432">
        <ele>1866.4</ele>
        <time>2023-10-31T09:18:52Z</time>
      </trkpt>
      <trkpt lat="42.80103" lon="-0.03433">
        <ele>1866.6</ele>
        <time>2023-10-31T09:18:53Z</time>
      </trkpt>
      <trkpt lat="42.80103" lon="-0.03433">
        <ele>1866.7</ele>
        <time>2023-10-31T09:18:54Z</time>
      </trkpt>
      <trkpt lat="42.80102" lon="-0.03434">
        <ele>1866.9</ele>
        <time>2023-10-31T09:18:55Z</time>
      </trkpt>
      <trkpt lat="42.80102" lon="-0.03433">
        <ele>1867</ele>
        <time>2023-10-31T09:18:56Z</time>
      </trkpt>
      <trkpt lat="42.80102" lon="-0.03434">
        <ele>1867.2</ele>
        <time>2023-10-31T09:18:57Z</time>
      </trkpt>
      <trkpt lat="42.80101" lon="-0.03434">
        <ele>1867.4</ele>
        <time>2023-10-31T09:18:58Z</time>
      </trkpt>
      <trkpt lat="42.80101" lon="-0.03435">
        <ele>1867.5</ele>
        <time>2023-10-31T09:18:59Z</time>
      </trkpt>
      <trkpt lat="42.80101" lon="-0.03435">
        <ele>1867.6</ele>
        <time>2023-10-31T09:19:00Z</time>
      </trkpt>
      <trkpt lat="42.80101" lon="-0.03436">
        <ele>1867.7</ele>
        <time>2023-10-31T09:19:01Z</time>
      </trkpt>
      <trkpt lat="42.80101" lon="-0.03436">
        <ele>1867.8</ele>
        <time>2023-10-31T09:19:02Z</time>
      </trkpt>
      <trkpt lat="42.80102" lon="-0.03436">
        <ele>1867.9</ele>
        <time>2023-10-31T09:19:03Z</time>
      </trkpt>
      <trkpt lat="42.80101" lon="-0.03436">
        <ele>1868</ele>
        <time>2023-10-31T09:19:04Z</time>
      </trkpt>
      <trkpt lat="42.80101" lon="-0.03437">
        <ele>1868.1</ele>
        <time>2023-10-31T09:19:05Z</time>
      </trkpt>
      <trkpt lat="42.80101" lon="-0.03438">
        <ele>1868.3</ele>
        <time>2023-10-31T09:19:06Z</time>
      </trkpt>
      <trkpt lat="42.80102" lon="-0.03438">
        <ele>1868.5</ele>
        <time>2023-10-31T09:19:07Z</time>
      </trkpt>
      <trkpt lat="42.80101" lon="-0.03438">
        <ele>1868.6</ele>
        <time>2023-10-31T09:19:08Z</time>
      </trkpt>
      <trkpt lat="42.80101" lon="-0.03438">
        <ele>1868.7</ele>
        <time>2023-10-31T09:19:09Z</time>
      </trkpt>
      <trkpt lat="42.80101" lon="-0.03438">
        <ele>1868.7</ele>
        <time>2023-10-31T09:19:10Z</time>
      </trkpt>
      <trkpt lat="42.80101" lon="-0.0344">
        <ele>1869</ele>
        <time>2023-10-31T09:19:11Z</time>
      </trkpt>
      <trkpt lat="42.801" lon="-0.03439">
        <ele>1869.2</ele>
        <time>2023-10-31T09:19:12Z</time>
      </trkpt>
      <trkpt lat="42.801" lon="-0.03439">
        <ele>1869.4</ele>
        <time>2023-10-31T09:19:13Z</time>
      </trkpt>
      <trkpt lat="42.80099" lon="-0.03439">
        <ele>1869.5</ele>
        <time>2023-10-31T09:19:14Z</time>
      </trkpt>
      <trkpt lat="42.80099" lon="-0.0344">
        <ele>1869.8</ele>
        <time>2023-10-31T09:19:15Z</time>
      </trkpt>
      <trkpt lat="42.80099" lon="-0.0344">
        <ele>1869.9</ele>
        <time>2023-10-31T09:19:16Z</time>
      </trkpt>
      <trkpt lat="42.80099" lon="-0.0344">
        <ele>1870</ele>
        <time>2023-10-31T09:19:17Z</time>
      </trkpt>
      <trkpt lat="42.80099" lon="-0.0344">
        <ele>1870</ele>
        <time>2023-10-31T09:19:18Z</time>
      </trkpt>
      <trkpt lat="42.80099" lon="-0.03441">
        <ele>1870.2</ele>
        <time>2023-10-31T09:19:19Z</time>
      </trkpt>
      <trkpt lat="42.80099" lon="-0.03441">
        <ele>1870.2</ele>
        <time>2023-10-31T09:19:20Z</time>
      </trkpt>
      <trkpt lat="42.80099" lon="-0.03442">
        <ele>1870.4</ele>
        <time>2023-10-31T09:19:21Z</time>
      </trkpt>
      <trkpt lat="42.80099" lon="-0.03442">
        <ele>1870.5</ele>
        <time>2023-10-31T09:19:22Z</time>
      </trkpt>
      <trkpt lat="42.80099" lon="-0.03443">
        <ele>1870.7</ele>
        <time>2023-10-31T09:19:23Z</time>
      </trkpt>
      <trkpt lat="42.80099" lon="-0.03443">
        <ele>1870.8</ele>
        <time>2023-10-31T09:19:24Z</time>
      </trkpt>
      <trkpt lat="42.80099" lon="-0.03443">
        <ele>1870.9</ele>
        <time>2023-10-31T09:19:25Z</time>
      </trkpt>
      <trkpt lat="42.80098" lon="-0.03444">
        <ele>1871</ele>
        <time>2023-10-31T09:19:26Z</time>
      </trkpt>
      <trkpt lat="42.80098" lon="-0.03444">
        <ele>1871.1</ele>
        <time>2023-10-31T09:19:27Z</time>
      </trkpt>
      <trkpt lat="42.80098" lon="-0.03443">
        <ele>1871.1</ele>
        <time>2023-10-31T09:19:28Z</time>
      </trkpt>
      <trkpt lat="42.80098" lon="-0.03444">
        <ele>1871.2</ele>
        <time>2023-10-31T09:19:29Z</time>
      </trkpt>
      <trkpt lat="42.80098" lon="-0.03445">
        <ele>1871.4</ele>
        <time>2023-10-31T09:19:30Z</time>
      </trkpt>
      <trkpt lat="42.80098" lon="-0.03445">
        <ele>1871.6</ele>
        <time>2023-10-31T09:19:31Z</time>
      </trkpt>
      <trkpt lat="42.80098" lon="-0.03445">
        <ele>1871.6</ele>
        <time>2023-10-31T09:19:32Z</time>
      </trkpt>
      <trkpt lat="42.80097" lon="-0.03445">
        <ele>1871.7</ele>
        <time>2023-10-31T09:19:33Z</time>
      </trkpt>
      <trkpt lat="42.80098" lon="-0.03446">
        <ele>1872</ele>
        <time>2023-10-31T09:19:34Z</time>
      </trkpt>
      <trkpt lat="42.80097" lon="-0.03445">
        <ele>1872</ele>
        <time>2023-10-31T09:19:35Z</time>
      </trkpt>
      <trkpt lat="42.80097" lon="-0.03445">
        <ele>1872.1</ele>
        <time>2023-10-31T09:19:36Z</time>
      </trkpt>
      <trkpt lat="42.80096" lon="-0.03446">
        <ele>1872.3</ele>
        <time>2023-10-31T09:19:37Z</time>
      </trkpt>
      <trkpt lat="42.80096" lon="-0.03446">
        <ele>1872.5</ele>
        <time>2023-10-31T09:19:38Z</time>
      </trkpt>
      <trkpt lat="42.80095" lon="-0.03447">
        <ele>1872.6</ele>
        <time>2023-10-31T09:19:39Z</time>
      </trkpt>
      <trkpt lat="42.80095" lon="-0.03447">
        <ele>1872.6</ele>
        <time>2023-10-31T09:19:40Z</time>
      </trkpt>
      <trkpt lat="42.80095" lon="-0.03447">
        <ele>1872.7</ele>
        <time>2023-10-31T09:19:41Z</time>
      </trkpt>
      <trkpt lat="42.80095" lon="-0.03448">
        <ele>1872.8</ele>
        <time>2023-10-31T09:19:42Z</time>
      </trkpt>
      <trkpt lat="42.80096" lon="-0.03448">
        <ele>1872.9</ele>
        <time>2023-10-31T09:19:43Z</time>
      </trkpt>
      <trkpt lat="42.80095" lon="-0.03448">
        <ele>1872.9</ele>
        <time>2023-10-31T09:19:44Z</time>
      </trkpt>
      <trkpt lat="42.80096" lon="-0.03449">
        <ele>1873.1</ele>
        <time>2023-10-31T09:19:45Z</time>
      </trkpt>
      <trkpt lat="42.80095" lon="-0.03449">
        <ele>1873.1</ele>
        <time>2023-10-31T09:19:46Z</time>
      </trkpt>
      <trkpt lat="42.80095" lon="-0.03449">
        <ele>1873.2</ele>
        <time>2023-10-31T09:19:47Z</time>
      </trkpt>
      <trkpt lat="42.80095" lon="-0.03449">
        <ele>1873.2</ele>
        <time>2023-10-31T09:19:48Z</time>
      </trkpt>
      <trkpt lat="42.80096" lon="-0.03449">
        <ele>1873.3</ele>
        <time>2023-10-31T09:19:49Z</time>
      </trkpt>
      <trkpt lat="42.80095" lon="-0.0345">
        <ele>1873.4</ele>
        <time>2023-10-31T09:19:50Z</time>
      </trkpt>
      <trkpt lat="42.80095" lon="-0.0345">
        <ele>1873.5</ele>
        <time>2023-10-31T09:19:51Z</time>
      </trkpt>
      <trkpt lat="42.80095" lon="-0.0345">
        <ele>1873.6</ele>
        <time>2023-10-31T09:19:52Z</time>
      </trkpt>
      <trkpt lat="42.80095" lon="-0.03451">
        <ele>1873.8</ele>
        <time>2023-10-31T09:19:53Z</time>
      </trkpt>
      <trkpt lat="42.80095" lon="-0.03451">
        <ele>1873.8</ele>
        <time>2023-10-31T09:19:54Z</time>
      </trkpt>
      <trkpt lat="42.80095" lon="-0.03451">
        <ele>1873.9</ele>
        <time>2023-10-31T09:19:55Z</time>
      </trkpt>
      <trkpt lat="42.80094" lon="-0.0345">
        <ele>1874</ele>
        <time>2023-10-31T09:19:56Z</time>
      </trkpt>
      <trkpt lat="42.80094" lon="-0.0345">
        <ele>1874.1</ele>
        <time>2023-10-31T09:19:57Z</time>
      </trkpt>
      <trkpt lat="42.80093" lon="-0.0345">
        <ele>1874.2</ele>
        <time>2023-10-31T09:19:58Z</time>
      </trkpt>
      <trkpt lat="42.80093" lon="-0.0345">
        <ele>1874.3</ele>
        <time>2023-10-31T09:19:59Z</time>
      </trkpt>
      <trkpt lat="42.80092" lon="-0.03451">
        <ele>1874.5</ele>
        <time>2023-10-31T09:20:00Z</time>
      </trkpt>
      <trkpt lat="42.80091" lon="-0.03452">
        <ele>1874.6</ele>
        <time>2023-10-31T09:20:01Z</time>
      </trkpt>
      <trkpt lat="42.80091" lon="-0.03452">
        <ele>1874.7</ele>
        <time>2023-10-31T09:20:02Z</time>
      </trkpt>
      <trkpt lat="42.80091" lon="-0.03452">
        <ele>1874.7</ele>
        <time>2023-10-31T09:20:03Z</time>
      </trkpt>
      <trkpt lat="42.8009" lon="-0.03453">
        <ele>1874.9</ele>
        <time>2023-10-31T09:20:04Z</time>
      </trkpt>
      <trkpt lat="42.80088" lon="-0.03453">
        <ele>1875.1</ele>
        <time>2023-10-31T09:20:05Z</time>
      </trkpt>
      <trkpt lat="42.80088" lon="-0.03453">
        <ele>1875.1</ele>
        <time>2023-10-31T09:20:06Z</time>
      </trkpt>
      <trkpt lat="42.80087" lon="-0.03453">
        <ele>1875.3</ele>
        <time>2023-10-31T09:20:07Z</time>
      </trkpt>
      <trkpt lat="42.80087" lon="-0.03453">
        <ele>1875.4</ele>
        <time>2023-10-31T09:20:08Z</time>
      </trkpt>
      <trkpt lat="42.80086" lon="-0.03453">
        <ele>1875.4</ele>
        <time>2023-10-31T09:20:09Z</time>
      </trkpt>
      <trkpt lat="42.80086" lon="-0.03454">
        <ele>1875.5</ele>
        <time>2023-10-31T09:20:10Z</time>
      </trkpt>
      <trkpt lat="42.80085" lon="-0.03454">
        <ele>1875.7</ele>
        <time>2023-10-31T09:20:11Z</time>
      </trkpt>
      <trkpt lat="42.80083" lon="-0.03455">
        <ele>1875.8</ele>
        <time>2023-10-31T09:20:12Z</time>
      </trkpt>
      <trkpt lat="42.80082" lon="-0.03455">
        <ele>1875.9</ele>
        <time>2023-10-31T09:20:13Z</time>
      </trkpt>
      <trkpt lat="42.80082" lon="-0.03455">
        <ele>1876</ele>
        <time>2023-10-31T09:20:14Z</time>
      </trkpt>
      <trkpt lat="42.80082" lon="-0.03456">
        <ele>1876.1</ele>
        <time>2023-10-31T09:20:15Z</time>
      </trkpt>
      <trkpt lat="42.80081" lon="-0.03456">
        <ele>1876.2</ele>
        <time>2023-10-31T09:20:16Z</time>
      </trkpt>
      <trkpt lat="42.8008" lon="-0.03457">
        <ele>1876.3</ele>
        <time>2023-10-31T09:20:17Z</time>
      </trkpt>
      <trkpt lat="42.8008" lon="-0.03458">
        <ele>1876.4</ele>
        <time>2023-10-31T09:20:18Z</time>
      </trkpt>
      <trkpt lat="42.80079" lon="-0.03458">
        <ele>1876.5</ele>
        <time>2023-10-31T09:20:19Z</time>
      </trkpt>
      <trkpt lat="42.80079" lon="-0.03459">
        <ele>1876.5</ele>
        <time>2023-10-31T09:20:20Z</time>
      </trkpt>
      <trkpt lat="42.80078" lon="-0.03459">
        <ele>1876.6</ele>
        <time>2023-10-31T09:20:21Z</time>
      </trkpt>
      <trkpt lat="42.80078" lon="-0.0346">
        <ele>1876.7</ele>
        <time>2023-10-31T09:20:22Z</time>
      </trkpt>
      <trkpt lat="42.80078" lon="-0.03459">
        <ele>1876.7</ele>
        <time>2023-10-31T09:20:23Z</time>
      </trkpt>
      <trkpt lat="42.80077" lon="-0.0346">
        <ele>1876.8</ele>
        <time>2023-10-31T09:20:24Z</time>
      </trkpt>
      <trkpt lat="42.80076" lon="-0.03461">
        <ele>1876.9</ele>
        <time>2023-10-31T09:20:25Z</time>
      </trkpt>
      <trkpt lat="42.80076" lon="-0.03462">
        <ele>1877</ele>
        <time>2023-10-31T09:20:26Z</time>
      </trkpt>
      <trkpt lat="42.80075" lon="-0.03462">
        <ele>1877.1</ele>
        <time>2023-10-31T09:20:27Z</time>
      </trkpt>
      <trkpt lat="42.80075" lon="-0.03462">
        <ele>1877.2</ele>
        <time>2023-10-31T09:20:28Z</time>
      </trkpt>
      <trkpt lat="42.80074" lon="-0.03462">
        <ele>1877.3</ele>
        <time>2023-10-31T09:20:29Z</time>
      </trkpt>
      <trkpt lat="42.80073" lon="-0.03463">
        <ele>1877.4</ele>
        <time>2023-10-31T09:20:30Z</time>
      </trkpt>
      <trkpt lat="42.80072" lon="-0.03463">
        <ele>1877.5</ele>
        <time>2023-10-31T09:20:31Z</time>
      </trkpt>
      <trkpt lat="42.80072" lon="-0.03463">
        <ele>1877.6</ele>
        <time>2023-10-31T09:20:32Z</time>
      </trkpt>
      <trkpt lat="42.80071" lon="-0.03463">
        <ele>1877.6</ele>
        <time>2023-10-31T09:20:33Z</time>
      </trkpt>
      <trkpt lat="42.80071" lon="-0.03464">
        <ele>1877.7</ele>
        <time>2023-10-31T09:20:34Z</time>
      </trkpt>
      <trkpt lat="42.8007" lon="-0.03466">
        <ele>1877.9</ele>
        <time>2023-10-31T09:20:36Z</time>
      </trkpt>
      <trkpt lat="42.80069" lon="-0.03465">
        <ele>1877.9</ele>
        <time>2023-10-31T09:20:37Z</time>
      </trkpt>
      <trkpt lat="42.80067" lon="-0.03465">
        <ele>1878.2</ele>
        <time>2023-10-31T09:20:39Z</time>
      </trkpt>
      <trkpt lat="42.80067" lon="-0.03466">
        <ele>1878.3</ele>
        <time>2023-10-31T09:20:40Z</time>
      </trkpt>
      <trkpt lat="42.80066" lon="-0.03467">
        <ele>1878.5</ele>
        <time>2023-10-31T09:20:42Z</time>
      </trkpt>
      <trkpt lat="42.80065" lon="-0.03467">
        <ele>1878.6</ele>
        <time>2023-10-31T09:20:43Z</time>
      </trkpt>
      <trkpt lat="42.80063" lon="-0.03467">
        <ele>1878.9</ele>
        <time>2023-10-31T09:20:45Z</time>
      </trkpt>
      <trkpt lat="42.80062" lon="-0.03467">
        <ele>1879</ele>
        <time>2023-10-31T09:20:46Z</time>
      </trkpt>
      <trkpt lat="42.80061" lon="-0.03467">
        <ele>1879.1</ele>
        <time>2023-10-31T09:20:47Z</time>
      </trkpt>
      <trkpt lat="42.8006" lon="-0.03467">
        <ele>1879.2</ele>
        <time>2023-10-31T09:20:48Z</time>
      </trkpt>
      <trkpt lat="42.80059" lon="-0.03467">
        <ele>1879.3</ele>
        <time>2023-10-31T09:20:49Z</time>
      </trkpt>
      <trkpt lat="42.80058" lon="-0.03468">
        <ele>1879.5</ele>
        <time>2023-10-31T09:20:50Z</time>
      </trkpt>
      <trkpt lat="42.80058" lon="-0.03468">
        <ele>1879.5</ele>
        <time>2023-10-31T09:20:51Z</time>
      </trkpt>
      <trkpt lat="42.80058" lon="-0.03468">
        <ele>1879.6</ele>
        <time>2023-10-31T09:20:52Z</time>
      </trkpt>
      <trkpt lat="42.80057" lon="-0.03469">
        <ele>1879.7</ele>
        <time>2023-10-31T09:20:53Z</time>
      </trkpt>
      <trkpt lat="42.80056" lon="-0.03469">
        <ele>1879.8</ele>
        <time>2023-10-31T09:20:54Z</time>
      </trkpt>
      <trkpt lat="42.80056" lon="-0.0347">
        <ele>1879.9</ele>
        <time>2023-10-31T09:20:55Z</time>
      </trkpt>
      <trkpt lat="42.80055" lon="-0.0347">
        <ele>1880</ele>
        <time>2023-10-31T09:20:56Z</time>
      </trkpt>
      <trkpt lat="42.80055" lon="-0.0347">
        <ele>1880.1</ele>
        <time>2023-10-31T09:20:57Z</time>
      </trkpt>
      <trkpt lat="42.80054" lon="-0.0347">
        <ele>1880.3</ele>
        <time>2023-10-31T09:20:58Z</time>
      </trkpt>
      <trkpt lat="42.80053" lon="-0.0347">
        <ele>1880.4</ele>
        <time>2023-10-31T09:20:59Z</time>
      </trkpt>
      <trkpt lat="42.80052" lon="-0.0347">
        <ele>1880.5</ele>
        <time>2023-10-31T09:21:00Z</time>
      </trkpt>
      <trkpt lat="42.80052" lon="-0.0347">
        <ele>1880.5</ele>
        <time>2023-10-31T09:21:01Z</time>
      </trkpt>
      <trkpt lat="42.80051" lon="-0.0347">
        <ele>1880.6</ele>
        <time>2023-10-31T09:21:02Z</time>
      </trkpt>
      <trkpt lat="42.8005" lon="-0.0347">
        <ele>1880.7</ele>
        <time>2023-10-31T09:21:03Z</time>
      </trkpt>
      <trkpt lat="42.80049" lon="-0.0347">
        <ele>1880.9</ele>
        <time>2023-10-31T09:21:04Z</time>
      </trkpt>
      <trkpt lat="42.80049" lon="-0.03469">
        <ele>1881</ele>
        <time>2023-10-31T09:21:05Z</time>
      </trkpt>
      <trkpt lat="42.80048" lon="-0.03469">
        <ele>1881.2</ele>
        <time>2023-10-31T09:21:06Z</time>
      </trkpt>
      <trkpt lat="42.80047" lon="-0.03469">
        <ele>1881.3</ele>
        <time>2023-10-31T09:21:07Z</time>
      </trkpt>
      <trkpt lat="42.80046" lon="-0.03469">
        <ele>1881.4</ele>
        <time>2023-10-31T09:21:08Z</time>
      </trkpt>
      <trkpt lat="42.80046" lon="-0.0347">
        <ele>1881.5</ele>
        <time>2023-10-31T09:21:09Z</time>
      </trkpt>
      <trkpt lat="42.80045" lon="-0.0347">
        <ele>1881.6</ele>
        <time>2023-10-31T09:21:10Z</time>
      </trkpt>
      <trkpt lat="42.80045" lon="-0.0347">
        <ele>1881.7</ele>
        <time>2023-10-31T09:21:11Z</time>
      </trkpt>
      <trkpt lat="42.80044" lon="-0.03471">
        <ele>1881.8</ele>
        <time>2023-10-31T09:21:12Z</time>
      </trkpt>
      <trkpt lat="42.80044" lon="-0.0347">
        <ele>1881.9</ele>
        <time>2023-10-31T09:21:13Z</time>
      </trkpt>
      <trkpt lat="42.80043" lon="-0.03471">
        <ele>1882</ele>
        <time>2023-10-31T09:21:14Z</time>
      </trkpt>
      <trkpt lat="42.80043" lon="-0.03471">
        <ele>1882</ele>
        <time>2023-10-31T09:21:15Z</time>
      </trkpt>
      <trkpt lat="42.80043" lon="-0.03471">
        <ele>1882.1</ele>
        <time>2023-10-31T09:21:16Z</time>
      </trkpt>
      <trkpt lat="42.80042" lon="-0.03471">
        <ele>1882.3</ele>
        <time>2023-10-31T09:21:17Z</time>
      </trkpt>
      <trkpt lat="42.8004" lon="-0.03471">
        <ele>1882.5</ele>
        <time>2023-10-31T09:21:18Z</time>
      </trkpt>
      <trkpt lat="42.80039" lon="-0.03471">
        <ele>1882.7</ele>
        <time>2023-10-31T09:21:19Z</time>
      </trkpt>
      <trkpt lat="42.80039" lon="-0.0347">
        <ele>1882.8</ele>
        <time>2023-10-31T09:21:20Z</time>
      </trkpt>
      <trkpt lat="42.80038" lon="-0.03471">
        <ele>1882.8</ele>
        <time>2023-10-31T09:21:21Z</time>
      </trkpt>
      <trkpt lat="42.80037" lon="-0.03471">
        <ele>1883</ele>
        <time>2023-10-31T09:21:22Z</time>
      </trkpt>
      <trkpt lat="42.80036" lon="-0.03471">
        <ele>1883.2</ele>
        <time>2023-10-31T09:21:23Z</time>
      </trkpt>
      <trkpt lat="42.80035" lon="-0.0347">
        <ele>1883.4</ele>
        <time>2023-10-31T09:21:24Z</time>
      </trkpt>
      <trkpt lat="42.80035" lon="-0.0347">
        <ele>1883.5</ele>
        <time>2023-10-31T09:21:25Z</time>
      </trkpt>
      <trkpt lat="42.80034" lon="-0.03471">
        <ele>1883.7</ele>
        <time>2023-10-31T09:21:26Z</time>
      </trkpt>
      <trkpt lat="42.80034" lon="-0.03472">
        <ele>1883.8</ele>
        <time>2023-10-31T09:21:27Z</time>
      </trkpt>
      <trkpt lat="42.80034" lon="-0.03473">
        <ele>1883.9</ele>
        <time>2023-10-31T09:21:28Z</time>
      </trkpt>
      <trkpt lat="42.80035" lon="-0.03474">
        <ele>1884.1</ele>
        <time>2023-10-31T09:21:29Z</time>
      </trkpt>
      <trkpt lat="42.80036" lon="-0.03474">
        <ele>1884.3</ele>
        <time>2023-10-31T09:21:30Z</time>
      </trkpt>
      <trkpt lat="42.80036" lon="-0.03475">
        <ele>1884.4</ele>
        <time>2023-10-31T09:21:31Z</time>
      </trkpt>
      <trkpt lat="42.80037" lon="-0.03475">
        <ele>1884.6</ele>
        <time>2023-10-31T09:21:32Z</time>
      </trkpt>
      <trkpt lat="42.80037" lon="-0.03476">
        <ele>1884.7</ele>
        <time>2023-10-31T09:21:33Z</time>
      </trkpt>
      <trkpt lat="42.80038" lon="-0.03476">
        <ele>1884.8</ele>
        <time>2023-10-31T09:21:34Z</time>
      </trkpt>
      <trkpt lat="42.80039" lon="-0.03477">
        <ele>1884.9</ele>
        <time>2023-10-31T09:21:35Z</time>
      </trkpt>
      <trkpt lat="42.80039" lon="-0.03477">
        <ele>1885.1</ele>
        <time>2023-10-31T09:21:36Z</time>
      </trkpt>
      <trkpt lat="42.8004" lon="-0.03478">
        <ele>1885.2</ele>
        <time>2023-10-31T09:21:37Z</time>
      </trkpt>
      <trkpt lat="42.8004" lon="-0.03478">
        <ele>1885.3</ele>
        <time>2023-10-31T09:21:38Z</time>
      </trkpt>
      <trkpt lat="42.80041" lon="-0.03479">
        <ele>1885.5</ele>
        <time>2023-10-31T09:21:39Z</time>
      </trkpt>
      <trkpt lat="42.80041" lon="-0.03479">
        <ele>1885.6</ele>
        <time>2023-10-31T09:21:40Z</time>
      </trkpt>
      <trkpt lat="42.80042" lon="-0.0348">
        <ele>1885.8</ele>
        <time>2023-10-31T09:21:41Z</time>
      </trkpt>
      <trkpt lat="42.80043" lon="-0.0348">
        <ele>1885.9</ele>
        <time>2023-10-31T09:21:42Z</time>
      </trkpt>
      <trkpt lat="42.80043" lon="-0.0348">
        <ele>1886.1</ele>
        <time>2023-10-31T09:21:43Z</time>
      </trkpt>
      <trkpt lat="42.80044" lon="-0.03481">
        <ele>1886.2</ele>
        <time>2023-10-31T09:21:44Z</time>
      </trkpt>
      <trkpt lat="42.80044" lon="-0.03481">
        <ele>1886.3</ele>
        <time>2023-10-31T09:21:45Z</time>
      </trkpt>
      <trkpt lat="42.80045" lon="-0.03482">
        <ele>1886.4</ele>
        <time>2023-10-31T09:21:46Z</time>
      </trkpt>
      <trkpt lat="42.80045" lon="-0.03482">
        <ele>1886.6</ele>
        <time>2023-10-31T09:21:47Z</time>
      </trkpt>
      <trkpt lat="42.80046" lon="-0.03483">
        <ele>1886.7</ele>
        <time>2023-10-31T09:21:48Z</time>
      </trkpt>
      <trkpt lat="42.80046" lon="-0.03484">
        <ele>1886.9</ele>
        <time>2023-10-31T09:21:49Z</time>
      </trkpt>
      <trkpt lat="42.80047" lon="-0.03484">
        <ele>1887</ele>
        <time>2023-10-31T09:21:50Z</time>
      </trkpt>
      <trkpt lat="42.80047" lon="-0.03485">
        <ele>1887.1</ele>
        <time>2023-10-31T09:21:51Z</time>
      </trkpt>
      <trkpt lat="42.80048" lon="-0.03485">
        <ele>1887.3</ele>
        <time>2023-10-31T09:21:52Z</time>
      </trkpt>
      <trkpt lat="42.80049" lon="-0.03486">
        <ele>1887.4</ele>
        <time>2023-10-31T09:21:53Z</time>
      </trkpt>
      <trkpt lat="42.8005" lon="-0.03486">
        <ele>1887.6</ele>
        <time>2023-10-31T09:21:54Z</time>
      </trkpt>
      <trkpt lat="42.8005" lon="-0.03486">
        <ele>1887.7</ele>
        <time>2023-10-31T09:21:55Z</time>
      </trkpt>
      <trkpt lat="42.80051" lon="-0.03486">
        <ele>1887.9</ele>
        <time>2023-10-31T09:21:56Z</time>
      </trkpt>
      <trkpt lat="42.80052" lon="-0.03487">
        <ele>1888.1</ele>
        <time>2023-10-31T09:21:57Z</time>
      </trkpt>
      <trkpt lat="42.80052" lon="-0.03488">
        <ele>1888.2</ele>
        <time>2023-10-31T09:21:58Z</time>
      </trkpt>
      <trkpt lat="42.80053" lon="-0.03488">
        <ele>1888.4</ele>
        <time>2023-10-31T09:21:59Z</time>
      </trkpt>
      <trkpt lat="42.80053" lon="-0.03489">
        <ele>1888.5</ele>
        <time>2023-10-31T09:22:00Z</time>
      </trkpt>
      <trkpt lat="42.80054" lon="-0.03489">
        <ele>1888.6</ele>
        <time>2023-10-31T09:22:01Z</time>
      </trkpt>
      <trkpt lat="42.80054" lon="-0.0349">
        <ele>1888.7</ele>
        <time>2023-10-31T09:22:02Z</time>
      </trkpt>
      <trkpt lat="42.80054" lon="-0.0349">
        <ele>1888.7</ele>
        <time>2023-10-31T09:22:03Z</time>
      </trkpt>
      <trkpt lat="42.80055" lon="-0.0349">
        <ele>1888.9</ele>
        <time>2023-10-31T09:22:04Z</time>
      </trkpt>
      <trkpt lat="42.80056" lon="-0.03491">
        <ele>1889.1</ele>
        <time>2023-10-31T09:22:05Z</time>
      </trkpt>
      <trkpt lat="42.80057" lon="-0.03492">
        <ele>1889.3</ele>
        <time>2023-10-31T09:22:06Z</time>
      </trkpt>
      <trkpt lat="42.80058" lon="-0.03491">
        <ele>1889.5</ele>
        <time>2023-10-31T09:22:07Z</time>
      </trkpt>
      <trkpt lat="42.80059" lon="-0.03492">
        <ele>1889.6</ele>
        <time>2023-10-31T09:22:08Z</time>
      </trkpt>
      <trkpt lat="42.80059" lon="-0.03492">
        <ele>1889.7</ele>
        <time>2023-10-31T09:22:09Z</time>
      </trkpt>
      <trkpt lat="42.8006" lon="-0.03493">
        <ele>1889.9</ele>
        <time>2023-10-31T09:22:10Z</time>
      </trkpt>
      <trkpt lat="42.8006" lon="-0.03493">
        <ele>1890</ele>
        <time>2023-10-31T09:22:11Z</time>
      </trkpt>
      <trkpt lat="42.80061" lon="-0.03493">
        <ele>1890.1</ele>
        <time>2023-10-31T09:22:12Z</time>
      </trkpt>
      <trkpt lat="42.80062" lon="-0.03493">
        <ele>1890.3</ele>
        <time>2023-10-31T09:22:13Z</time>
      </trkpt>
      <trkpt lat="42.80063" lon="-0.03493">
        <ele>1890.4</ele>
        <time>2023-10-31T09:22:14Z</time>
      </trkpt>
      <trkpt lat="42.80063" lon="-0.03493">
        <ele>1890.5</ele>
        <time>2023-10-31T09:22:15Z</time>
      </trkpt>
      <trkpt lat="42.80064" lon="-0.03493">
        <ele>1890.6</ele>
        <time>2023-10-31T09:22:16Z</time>
      </trkpt>
      <trkpt lat="42.80065" lon="-0.03493">
        <ele>1890.8</ele>
        <time>2023-10-31T09:22:17Z</time>
      </trkpt>
      <trkpt lat="42.80066" lon="-0.03493">
        <ele>1890.9</ele>
        <time>2023-10-31T09:22:18Z</time>
      </trkpt>
      <trkpt lat="42.80066" lon="-0.03493">
        <ele>1891</ele>
        <time>2023-10-31T09:22:19Z</time>
      </trkpt>
      <trkpt lat="42.80066" lon="-0.03494">
        <ele>1891.1</ele>
        <time>2023-10-31T09:22:20Z</time>
      </trkpt>
      <trkpt lat="42.80067" lon="-0.03495">
        <ele>1891.3</ele>
        <time>2023-10-31T09:22:21Z</time>
      </trkpt>
      <trkpt lat="42.80067" lon="-0.03495">
        <ele>1891.3</ele>
        <time>2023-10-31T09:22:22Z</time>
      </trkpt>
      <trkpt lat="42.80068" lon="-0.03495">
        <ele>1891.4</ele>
        <time>2023-10-31T09:22:23Z</time>
      </trkpt>
      <trkpt lat="42.80069" lon="-0.03495">
        <ele>1891.6</ele>
        <time>2023-10-31T09:22:24Z</time>
      </trkpt>
      <trkpt lat="42.80069" lon="-0.03495">
        <ele>1891.6</ele>
        <time>2023-10-31T09:22:25Z</time>
      </trkpt>
      <trkpt lat="42.80069" lon="-0.03496">
        <ele>1891.8</ele>
        <time>2023-10-31T09:22:26Z</time>
      </trkpt>
      <trkpt lat="42.8007" lon="-0.03496">
        <ele>1891.8</ele>
        <time>2023-10-31T09:22:27Z</time>
      </trkpt>
      <trkpt lat="42.8007" lon="-0.03496">
        <ele>1891.9</ele>
        <time>2023-10-31T09:22:28Z</time>
      </trkpt>
      <trkpt lat="42.8007" lon="-0.03497">
        <ele>1892</ele>
        <time>2023-10-31T09:22:29Z</time>
      </trkpt>
      <trkpt lat="42.80071" lon="-0.03497">
        <ele>1892.1</ele>
        <time>2023-10-31T09:22:30Z</time>
      </trkpt>
      <trkpt lat="42.80072" lon="-0.03497">
        <ele>1892.2</ele>
        <time>2023-10-31T09:22:31Z</time>
      </trkpt>
      <trkpt lat="42.80072" lon="-0.03498">
        <ele>1892.3</ele>
        <time>2023-10-31T09:22:32Z</time>
      </trkpt>
      <trkpt lat="42.80072" lon="-0.03498">
        <ele>1892.4</ele>
        <time>2023-10-31T09:22:33Z</time>
      </trkpt>
      <trkpt lat="42.80072" lon="-0.03498">
        <ele>1892.4</ele>
        <time>2023-10-31T09:22:34Z</time>
      </trkpt>
      <trkpt lat="42.80072" lon="-0.03498">
        <ele>1892.5</ele>
        <time>2023-10-31T09:22:35Z</time>
      </trkpt>
      <trkpt lat="42.80072" lon="-0.03498">
        <ele>1892.5</ele>
        <time>2023-10-31T09:22:36Z</time>
      </trkpt>
      <trkpt lat="42.80072" lon="-0.03498">
        <ele>1892.6</ele>
        <time>2023-10-31T09:22:37Z</time>
      </trkpt>
      <trkpt lat="42.80072" lon="-0.03498">
        <ele>1892.6</ele>
        <time>2023-10-31T09:22:38Z</time>
      </trkpt>
      <trkpt lat="42.80073" lon="-0.03499">
        <ele>1892.8</ele>
        <time>2023-10-31T09:22:39Z</time>
      </trkpt>
      <trkpt lat="42.80074" lon="-0.035">
        <ele>1892.9</ele>
        <time>2023-10-31T09:22:40Z</time>
      </trkpt>
      <trkpt lat="42.80075" lon="-0.035">
        <ele>1893.1</ele>
        <time>2023-10-31T09:22:41Z</time>
      </trkpt>
      <trkpt lat="42.80075" lon="-0.035">
        <ele>1893.2</ele>
        <time>2023-10-31T09:22:42Z</time>
      </trkpt>
      <trkpt lat="42.80076" lon="-0.035">
        <ele>1893.3</ele>
        <time>2023-10-31T09:22:43Z</time>
      </trkpt>
      <trkpt lat="42.80076" lon="-0.03501">
        <ele>1893.4</ele>
        <time>2023-10-31T09:22:44Z</time>
      </trkpt>
      <trkpt lat="42.80077" lon="-0.03501">
        <ele>1893.6</ele>
        <time>2023-10-31T09:22:45Z</time>
      </trkpt>
      <trkpt lat="42.80078" lon="-0.03502">
        <ele>1893.7</ele>
        <time>2023-10-31T09:22:46Z</time>
      </trkpt>
      <trkpt lat="42.80078" lon="-0.03502">
        <ele>1893.7</ele>
        <time>2023-10-31T09:22:47Z</time>
      </trkpt>
      <trkpt lat="42.80078" lon="-0.03502">
        <ele>1893.8</ele>
        <time>2023-10-31T09:22:48Z</time>
      </trkpt>
      <trkpt lat="42.80078" lon="-0.03502">
        <ele>1893.8</ele>
        <time>2023-10-31T09:22:49Z</time>
      </trkpt>
      <trkpt lat="42.80078" lon="-0.03502">
        <ele>1893.8</ele>
        <time>2023-10-31T09:22:50Z</time>
      </trkpt>
      <trkpt lat="42.80078" lon="-0.03502">
        <ele>1893.8</ele>
        <time>2023-10-31T09:22:51Z</time>
      </trkpt>
      <trkpt lat="42.80078" lon="-0.03502">
        <ele>1893.8</ele>
        <time>2023-10-31T09:22:52Z</time>
      </trkpt>
      <trkpt lat="42.80078" lon="-0.03502">
        <ele>1893.8</ele>
        <time>2023-10-31T09:22:53Z</time>
      </trkpt>
      <trkpt lat="42.80078" lon="-0.03502">
        <ele>1893.8</ele>
        <time>2023-10-31T09:22:54Z</time>
      </trkpt>
      <trkpt lat="42.80078" lon="-0.03502">
        <ele>1893.8</ele>
        <time>2023-10-31T09:22:55Z</time>
      </trkpt>
      <trkpt lat="42.80078" lon="-0.03502">
        <ele>1893.8</ele>
        <time>2023-10-31T09:22:56Z</time>
      </trkpt>
      <trkpt lat="42.80078" lon="-0.03502">
        <ele>1893.8</ele>
        <time>2023-10-31T09:22:57Z</time>
      </trkpt>
      <trkpt lat="42.80078" lon="-0.03502">
        <ele>1893.8</ele>
        <time>2023-10-31T09:22:58Z</time>
      </trkpt>
      <trkpt lat="42.80078" lon="-0.03502">
        <ele>1893.8</ele>
        <time>2023-10-31T09:22:59Z</time>
      </trkpt>
      <trkpt lat="42.80078" lon="-0.03502">
        <ele>1893.8</ele>
        <time>2023-10-31T09:23:00Z</time>
      </trkpt>
      <trkpt lat="42.80078" lon="-0.03502">
        <ele>1893.8</ele>
        <time>2023-10-31T09:23:01Z</time>
      </trkpt>
      <trkpt lat="42.80078" lon="-0.03502">
        <ele>1893.8</ele>
        <time>2023-10-31T09:23:02Z</time>
      </trkpt>
      <trkpt lat="42.80078" lon="-0.03501">
        <ele>1893.9</ele>
        <time>2023-10-31T09:23:03Z</time>
      </trkpt>
      <trkpt lat="42.80078" lon="-0.03501">
        <ele>1894.1</ele>
        <time>2023-10-31T09:23:04Z</time>
      </trkpt>
      <trkpt lat="42.8008" lon="-0.03501">
        <ele>1894.3</ele>
        <time>2023-10-31T09:23:05Z</time>
      </trkpt>
      <trkpt lat="42.80081" lon="-0.03502">
        <ele>1894.6</ele>
        <time>2023-10-31T09:23:06Z</time>
      </trkpt>
      <trkpt lat="42.80082" lon="-0.03502">
        <ele>1894.7</ele>
        <time>2023-10-31T09:23:07Z</time>
      </trkpt>
      <trkpt lat="42.80083" lon="-0.03503">
        <ele>1895</ele>
        <time>2023-10-31T09:23:08Z</time>
      </trkpt>
      <trkpt lat="42.80083" lon="-0.03503">
        <ele>1895.1</ele>
        <time>2023-10-31T09:23:09Z</time>
      </trkpt>
      <trkpt lat="42.80084" lon="-0.03502">
        <ele>1895.2</ele>
        <time>2023-10-31T09:23:10Z</time>
      </trkpt>
      <trkpt lat="42.80085" lon="-0.03503">
        <ele>1895.3</ele>
        <time>2023-10-31T09:23:11Z</time>
      </trkpt>
      <trkpt lat="42.80085" lon="-0.03503">
        <ele>1895.4</ele>
        <time>2023-10-31T09:23:12Z</time>
      </trkpt>
      <trkpt lat="42.80085" lon="-0.03503">
        <ele>1895.5</ele>
        <time>2023-10-31T09:23:13Z</time>
      </trkpt>
      <trkpt lat="42.80086" lon="-0.03504">
        <ele>1895.6</ele>
        <time>2023-10-31T09:23:14Z</time>
      </trkpt>
      <trkpt lat="42.80086" lon="-0.03504">
        <ele>1895.7</ele>
        <time>2023-10-31T09:23:15Z</time>
      </trkpt>
      <trkpt lat="42.80086" lon="-0.03505">
        <ele>1895.8</ele>
        <time>2023-10-31T09:23:16Z</time>
      </trkpt>
      <trkpt lat="42.80086" lon="-0.03506">
        <ele>1895.9</ele>
        <time>2023-10-31T09:23:17Z</time>
      </trkpt>
      <trkpt lat="42.80086" lon="-0.03506">
        <ele>1896</ele>
        <time>2023-10-31T09:23:18Z</time>
      </trkpt>
      <trkpt lat="42.80087" lon="-0.03506">
        <ele>1896.1</ele>
        <time>2023-10-31T09:23:19Z</time>
      </trkpt>
      <trkpt lat="42.80088" lon="-0.03507">
        <ele>1896.3</ele>
        <time>2023-10-31T09:23:20Z</time>
      </trkpt>
      <trkpt lat="42.80088" lon="-0.03507">
        <ele>1896.4</ele>
        <time>2023-10-31T09:23:21Z</time>
      </trkpt>
      <trkpt lat="42.80088" lon="-0.03507">
        <ele>1896.5</ele>
        <time>2023-10-31T09:23:22Z</time>
      </trkpt>
      <trkpt lat="42.80089" lon="-0.03508">
        <ele>1896.7</ele>
        <time>2023-10-31T09:23:23Z</time>
      </trkpt>
      <trkpt lat="42.80089" lon="-0.03508">
        <ele>1896.8</ele>
        <time>2023-10-31T09:23:24Z</time>
      </trkpt>
      <trkpt lat="42.8009" lon="-0.03507">
        <ele>1897</ele>
        <time>2023-10-31T09:23:25Z</time>
      </trkpt>
      <trkpt lat="42.80091" lon="-0.03507">
        <ele>1897.2</ele>
        <time>2023-10-31T09:23:26Z</time>
      </trkpt>
      <trkpt lat="42.80091" lon="-0.03507">
        <ele>1897.4</ele>
        <time>2023-10-31T09:23:27Z</time>
      </trkpt>
      <trkpt lat="42.80092" lon="-0.03507">
        <ele>1897.5</ele>
        <time>2023-10-31T09:23:28Z</time>
      </trkpt>
      <trkpt lat="42.80092" lon="-0.03507">
        <ele>1897.6</ele>
        <time>2023-10-31T09:23:29Z</time>
      </trkpt>
      <trkpt lat="42.80093" lon="-0.03508">
        <ele>1897.7</ele>
        <time>2023-10-31T09:23:30Z</time>
      </trkpt>
      <trkpt lat="42.80093" lon="-0.03508">
        <ele>1897.8</ele>
        <time>2023-10-31T09:23:31Z</time>
      </trkpt>
      <trkpt lat="42.80094" lon="-0.03508">
        <ele>1897.9</ele>
        <time>2023-10-31T09:23:32Z</time>
      </trkpt>
      <trkpt lat="42.80095" lon="-0.03508">
        <ele>1898.2</ele>
        <time>2023-10-31T09:23:33Z</time>
      </trkpt>
      <trkpt lat="42.80095" lon="-0.03508">
        <ele>1898.2</ele>
        <time>2023-10-31T09:23:34Z</time>
      </trkpt>
      <trkpt lat="42.80095" lon="-0.03508">
        <ele>1898.4</ele>
        <time>2023-10-31T09:23:35Z</time>
      </trkpt>
      <trkpt lat="42.80096" lon="-0.03508">
        <ele>1898.5</ele>
        <time>2023-10-31T09:23:36Z</time>
      </trkpt>
      <trkpt lat="42.80097" lon="-0.03508">
        <ele>1898.7</ele>
        <time>2023-10-31T09:23:37Z</time>
      </trkpt>
      <trkpt lat="42.80097" lon="-0.03508">
        <ele>1898.8</ele>
        <time>2023-10-31T09:23:38Z</time>
      </trkpt>
      <trkpt lat="42.80098" lon="-0.03509">
        <ele>1898.9</ele>
        <time>2023-10-31T09:23:39Z</time>
      </trkpt>
      <trkpt lat="42.80098" lon="-0.03509">
        <ele>1899</ele>
        <time>2023-10-31T09:23:40Z</time>
      </trkpt>
      <trkpt lat="42.80098" lon="-0.0351">
        <ele>1899.1</ele>
        <time>2023-10-31T09:23:41Z</time>
      </trkpt>
      <trkpt lat="42.80099" lon="-0.03511">
        <ele>1899.3</ele>
        <time>2023-10-31T09:23:42Z</time>
      </trkpt>
      <trkpt lat="42.801" lon="-0.03511">
        <ele>1899.7</ele>
        <time>2023-10-31T09:23:43Z</time>
      </trkpt>
      <trkpt lat="42.80101" lon="-0.03511">
        <ele>1899.8</ele>
        <time>2023-10-31T09:23:44Z</time>
      </trkpt>
      <trkpt lat="42.80102" lon="-0.0351">
        <ele>1900</ele>
        <time>2023-10-31T09:23:45Z</time>
      </trkpt>
      <trkpt lat="42.80102" lon="-0.0351">
        <ele>1900.1</ele>
        <time>2023-10-31T09:23:46Z</time>
      </trkpt>
      <trkpt lat="42.80103" lon="-0.0351">
        <ele>1900.4</ele>
        <time>2023-10-31T09:23:47Z</time>
      </trkpt>
      <trkpt lat="42.80104" lon="-0.0351">
        <ele>1900.5</ele>
        <time>2023-10-31T09:23:48Z</time>
      </trkpt>
      <trkpt lat="42.80105" lon="-0.0351">
        <ele>1900.7</ele>
        <time>2023-10-31T09:23:49Z</time>
      </trkpt>
      <trkpt lat="42.80105" lon="-0.0351">
        <ele>1900.8</ele>
        <time>2023-10-31T09:23:50Z</time>
      </trkpt>
      <trkpt lat="42.80106" lon="-0.0351">
        <ele>1900.9</ele>
        <time>2023-10-31T09:23:51Z</time>
      </trkpt>
      <trkpt lat="42.80106" lon="-0.0351">
        <ele>1901</ele>
        <time>2023-10-31T09:23:52Z</time>
      </trkpt>
      <trkpt lat="42.80107" lon="-0.0351">
        <ele>1901.1</ele>
        <time>2023-10-31T09:23:53Z</time>
      </trkpt>
      <trkpt lat="42.80107" lon="-0.0351">
        <ele>1901.2</ele>
        <time>2023-10-31T09:23:54Z</time>
      </trkpt>
      <trkpt lat="42.80107" lon="-0.03511">
        <ele>1901.3</ele>
        <time>2023-10-31T09:23:55Z</time>
      </trkpt>
      <trkpt lat="42.80108" lon="-0.03511">
        <ele>1901.4</ele>
        <time>2023-10-31T09:23:56Z</time>
      </trkpt>
      <trkpt lat="42.80109" lon="-0.03512">
        <ele>1901.5</ele>
        <time>2023-10-31T09:23:57Z</time>
      </trkpt>
      <trkpt lat="42.8011" lon="-0.03512">
        <ele>1901.8</ele>
        <time>2023-10-31T09:23:58Z</time>
      </trkpt>
      <trkpt lat="42.80111" lon="-0.03513">
        <ele>1901.9</ele>
        <time>2023-10-31T09:23:59Z</time>
      </trkpt>
      <trkpt lat="42.80111" lon="-0.03513">
        <ele>1902</ele>
        <time>2023-10-31T09:24:00Z</time>
      </trkpt>
      <trkpt lat="42.8011" lon="-0.03513">
        <ele>1902</ele>
        <time>2023-10-31T09:24:01Z</time>
      </trkpt>
      <trkpt lat="42.80111" lon="-0.03514">
        <ele>1902.2</ele>
        <time>2023-10-31T09:24:02Z</time>
      </trkpt>
      <trkpt lat="42.8011" lon="-0.03515">
        <ele>1902.3</ele>
        <time>2023-10-31T09:24:03Z</time>
      </trkpt>
      <trkpt lat="42.80111" lon="-0.03516">
        <ele>1902.4</ele>
        <time>2023-10-31T09:24:04Z</time>
      </trkpt>
      <trkpt lat="42.80111" lon="-0.03516">
        <ele>1902.5</ele>
        <time>2023-10-31T09:24:05Z</time>
      </trkpt>
      <trkpt lat="42.80111" lon="-0.03516">
        <ele>1902.5</ele>
        <time>2023-10-31T09:24:06Z</time>
      </trkpt>
      <trkpt lat="42.80112" lon="-0.03517">
        <ele>1902.6</ele>
        <time>2023-10-31T09:24:07Z</time>
      </trkpt>
      <trkpt lat="42.80112" lon="-0.03517">
        <ele>1902.6</ele>
        <time>2023-10-31T09:24:08Z</time>
      </trkpt>
      <trkpt lat="42.80113" lon="-0.03517">
        <ele>1902.7</ele>
        <time>2023-10-31T09:24:09Z</time>
      </trkpt>
      <trkpt lat="42.80113" lon="-0.03517">
        <ele>1902.8</ele>
        <time>2023-10-31T09:24:10Z</time>
      </trkpt>
      <trkpt lat="42.80114" lon="-0.03518">
        <ele>1902.9</ele>
        <time>2023-10-31T09:24:11Z</time>
      </trkpt>
      <trkpt lat="42.80115" lon="-0.03518">
        <ele>1903.1</ele>
        <time>2023-10-31T09:24:12Z</time>
      </trkpt>
      <trkpt lat="42.80115" lon="-0.03517">
        <ele>1903.2</ele>
        <time>2023-10-31T09:24:13Z</time>
      </trkpt>
      <trkpt lat="42.80116" lon="-0.03517">
        <ele>1903.3</ele>
        <time>2023-10-31T09:24:14Z</time>
      </trkpt>
      <trkpt lat="42.80117" lon="-0.03517">
        <ele>1903.4</ele>
        <time>2023-10-31T09:24:15Z</time>
      </trkpt>
      <trkpt lat="42.80118" lon="-0.03517">
        <ele>1903.5</ele>
        <time>2023-10-31T09:24:16Z</time>
      </trkpt>
      <trkpt lat="42.80118" lon="-0.03516">
        <ele>1903.6</ele>
        <time>2023-10-31T09:24:17Z</time>
      </trkpt>
      <trkpt lat="42.80118" lon="-0.03515">
        <ele>1903.7</ele>
        <time>2023-10-31T09:24:18Z</time>
      </trkpt>
      <trkpt lat="42.8012" lon="-0.03514">
        <ele>1903.9</ele>
        <time>2023-10-31T09:24:19Z</time>
      </trkpt>
      <trkpt lat="42.8012" lon="-0.03514">
        <ele>1904</ele>
        <time>2023-10-31T09:24:20Z</time>
      </trkpt>
      <trkpt lat="42.80121" lon="-0.03513">
        <ele>1904.1</ele>
        <time>2023-10-31T09:24:21Z</time>
      </trkpt>
      <trkpt lat="42.80122" lon="-0.03513">
        <ele>1904.2</ele>
        <time>2023-10-31T09:24:22Z</time>
      </trkpt>
      <trkpt lat="42.80123" lon="-0.03512">
        <ele>1904.4</ele>
        <time>2023-10-31T09:24:23Z</time>
      </trkpt>
      <trkpt lat="42.80124" lon="-0.03511">
        <ele>1904.5</ele>
        <time>2023-10-31T09:24:24Z</time>
      </trkpt>
      <trkpt lat="42.80125" lon="-0.03511">
        <ele>1904.6</ele>
        <time>2023-10-31T09:24:25Z</time>
      </trkpt>
      <trkpt lat="42.80126" lon="-0.03511">
        <ele>1904.7</ele>
        <time>2023-10-31T09:24:26Z</time>
      </trkpt>
      <trkpt lat="42.80127" lon="-0.03511">
        <ele>1904.7</ele>
        <time>2023-10-31T09:24:27Z</time>
      </trkpt>
      <trkpt lat="42.80128" lon="-0.0351">
        <ele>1904.8</ele>
        <time>2023-10-31T09:24:28Z</time>
      </trkpt>
      <trkpt lat="42.80128" lon="-0.03511">
        <ele>1904.8</ele>
        <time>2023-10-31T09:24:29Z</time>
      </trkpt>
      <trkpt lat="42.80128" lon="-0.0351">
        <ele>1904.9</ele>
        <time>2023-10-31T09:24:30Z</time>
      </trkpt>
      <trkpt lat="42.80129" lon="-0.03511">
        <ele>1904.9</ele>
        <time>2023-10-31T09:24:31Z</time>
      </trkpt>
      <trkpt lat="42.8013" lon="-0.03511">
        <ele>1905</ele>
        <time>2023-10-31T09:24:32Z</time>
      </trkpt>
      <trkpt lat="42.8013" lon="-0.03511">
        <ele>1905</ele>
        <time>2023-10-31T09:24:33Z</time>
      </trkpt>
      <trkpt lat="42.8013" lon="-0.03512">
        <ele>1905.1</ele>
        <time>2023-10-31T09:24:34Z</time>
      </trkpt>
      <trkpt lat="42.80131" lon="-0.03511">
        <ele>1905.1</ele>
        <time>2023-10-31T09:24:35Z</time>
      </trkpt>
      <trkpt lat="42.80131" lon="-0.03511">
        <ele>1905.2</ele>
        <time>2023-10-31T09:24:36Z</time>
      </trkpt>
      <trkpt lat="42.80131" lon="-0.03511">
        <ele>1905.2</ele>
        <time>2023-10-31T09:24:37Z</time>
      </trkpt>
      <trkpt lat="42.80131" lon="-0.03511">
        <ele>1905.2</ele>
        <time>2023-10-31T09:24:38Z</time>
      </trkpt>
      <trkpt lat="42.80132" lon="-0.03512">
        <ele>1905.3</ele>
        <time>2023-10-31T09:24:39Z</time>
      </trkpt>
      <trkpt lat="42.80132" lon="-0.03512">
        <ele>1905.3</ele>
        <time>2023-10-31T09:24:40Z</time>
      </trkpt>
      <trkpt lat="42.80132" lon="-0.03512">
        <ele>1905.3</ele>
        <time>2023-10-31T09:24:41Z</time>
      </trkpt>
      <trkpt lat="42.80133" lon="-0.03512">
        <ele>1905.4</ele>
        <time>2023-10-31T09:24:42Z</time>
      </trkpt>
      <trkpt lat="42.80133" lon="-0.03513">
        <ele>1905.5</ele>
        <time>2023-10-31T09:24:43Z</time>
      </trkpt>
      <trkpt lat="42.80133" lon="-0.03513">
        <ele>1905.5</ele>
        <time>2023-10-31T09:24:44Z</time>
      </trkpt>
      <trkpt lat="42.80133" lon="-0.03513">
        <ele>1905.6</ele>
        <time>2023-10-31T09:24:45Z</time>
      </trkpt>
      <trkpt lat="42.80133" lon="-0.03514">
        <ele>1905.6</ele>
        <time>2023-10-31T09:24:46Z</time>
      </trkpt>
      <trkpt lat="42.80133" lon="-0.03514">
        <ele>1905.6</ele>
        <time>2023-10-31T09:24:47Z</time>
      </trkpt>
      <trkpt lat="42.80134" lon="-0.03514">
        <ele>1905.7</ele>
        <time>2023-10-31T09:24:48Z</time>
      </trkpt>
      <trkpt lat="42.80134" lon="-0.03515">
        <ele>1905.7</ele>
        <time>2023-10-31T09:24:49Z</time>
      </trkpt>
      <trkpt lat="42.80135" lon="-0.03515">
        <ele>1905.8</ele>
        <time>2023-10-31T09:24:50Z</time>
      </trkpt>
      <trkpt lat="42.80135" lon="-0.03516">
        <ele>1905.9</ele>
        <time>2023-10-31T09:24:51Z</time>
      </trkpt>
      <trkpt lat="42.80135" lon="-0.03515">
        <ele>1905.9</ele>
        <time>2023-10-31T09:24:52Z</time>
      </trkpt>
      <trkpt lat="42.80136" lon="-0.03516">
        <ele>1906</ele>
        <time>2023-10-31T09:24:53Z</time>
      </trkpt>
      <trkpt lat="42.80136" lon="-0.03516">
        <ele>1906.1</ele>
        <time>2023-10-31T09:24:54Z</time>
      </trkpt>
      <trkpt lat="42.80137" lon="-0.03516">
        <ele>1906.2</ele>
        <time>2023-10-31T09:24:55Z</time>
      </trkpt>
      <trkpt lat="42.80138" lon="-0.03516">
        <ele>1906.4</ele>
        <time>2023-10-31T09:24:56Z</time>
      </trkpt>
      <trkpt lat="42.80139" lon="-0.03515">
        <ele>1906.5</ele>
        <time>2023-10-31T09:24:57Z</time>
      </trkpt>
      <trkpt lat="42.80139" lon="-0.03515">
        <ele>1906.6</ele>
        <time>2023-10-31T09:24:58Z</time>
      </trkpt>
      <trkpt lat="42.8014" lon="-0.03515">
        <ele>1906.7</ele>
        <time>2023-10-31T09:24:59Z</time>
      </trkpt>
      <trkpt lat="42.8014" lon="-0.03515">
        <ele>1906.7</ele>
        <time>2023-10-31T09:25:00Z</time>
      </trkpt>
      <trkpt lat="42.8014" lon="-0.03516">
        <ele>1906.7</ele>
        <time>2023-10-31T09:25:01Z</time>
      </trkpt>
      <trkpt lat="42.8014" lon="-0.03516">
        <ele>1906.8</ele>
        <time>2023-10-31T09:25:02Z</time>
      </trkpt>
      <trkpt lat="42.8014" lon="-0.03517">
        <ele>1906.9</ele>
        <time>2023-10-31T09:25:03Z</time>
      </trkpt>
      <trkpt lat="42.8014" lon="-0.03517">
        <ele>1906.9</ele>
        <time>2023-10-31T09:25:04Z</time>
      </trkpt>
      <trkpt lat="42.8014" lon="-0.03517">
        <ele>1907</ele>
        <time>2023-10-31T09:25:05Z</time>
      </trkpt>
      <trkpt lat="42.8014" lon="-0.03518">
        <ele>1907.2</ele>
        <time>2023-10-31T09:25:06Z</time>
      </trkpt>
      <trkpt lat="42.80141" lon="-0.03518">
        <ele>1907.3</ele>
        <time>2023-10-31T09:25:07Z</time>
      </trkpt>
      <trkpt lat="42.80141" lon="-0.03519">
        <ele>1907.5</ele>
        <time>2023-10-31T09:25:08Z</time>
      </trkpt>
      <trkpt lat="42.80142" lon="-0.03519">
        <ele>1907.6</ele>
        <time>2023-10-31T09:25:09Z</time>
      </trkpt>
      <trkpt lat="42.80142" lon="-0.0352">
        <ele>1907.7</ele>
        <time>2023-10-31T09:25:10Z</time>
      </trkpt>
      <trkpt lat="42.80142" lon="-0.0352">
        <ele>1907.8</ele>
        <time>2023-10-31T09:25:11Z</time>
      </trkpt>
      <trkpt lat="42.80143" lon="-0.03519">
        <ele>1907.8</ele>
        <time>2023-10-31T09:25:12Z</time>
      </trkpt>
      <trkpt lat="42.80143" lon="-0.03518">
        <ele>1908</ele>
        <time>2023-10-31T09:25:13Z</time>
      </trkpt>
      <trkpt lat="42.80143" lon="-0.03518">
        <ele>1908.1</ele>
        <time>2023-10-31T09:25:14Z</time>
      </trkpt>
      <trkpt lat="42.80144" lon="-0.03518">
        <ele>1908.3</ele>
        <time>2023-10-31T09:25:15Z</time>
      </trkpt>
      <trkpt lat="42.80144" lon="-0.03518">
        <ele>1908.4</ele>
        <time>2023-10-31T09:25:16Z</time>
      </trkpt>
      <trkpt lat="42.80144" lon="-0.03518">
        <ele>1908.5</ele>
        <time>2023-10-31T09:25:17Z</time>
      </trkpt>
      <trkpt lat="42.80144" lon="-0.03518">
        <ele>1908.6</ele>
        <time>2023-10-31T09:25:18Z</time>
      </trkpt>
      <trkpt lat="42.80144" lon="-0.03518">
        <ele>1908.6</ele>
        <time>2023-10-31T09:25:19Z</time>
      </trkpt>
      <trkpt lat="42.80144" lon="-0.03518">
        <ele>1908.7</ele>
        <time>2023-10-31T09:25:20Z</time>
      </trkpt>
      <trkpt lat="42.80145" lon="-0.03517">
        <ele>1908.9</ele>
        <time>2023-10-31T09:25:21Z</time>
      </trkpt>
      <trkpt lat="42.80146" lon="-0.03518">
        <ele>1909</ele>
        <time>2023-10-31T09:25:22Z</time>
      </trkpt>
      <trkpt lat="42.80146" lon="-0.03519">
        <ele>1909.2</ele>
        <time>2023-10-31T09:25:23Z</time>
      </trkpt>
      <trkpt lat="42.80146" lon="-0.03519">
        <ele>1909.3</ele>
        <time>2023-10-31T09:25:24Z</time>
      </trkpt>
      <trkpt lat="42.80146" lon="-0.03519">
        <ele>1909.4</ele>
        <time>2023-10-31T09:25:25Z</time>
      </trkpt>
      <trkpt lat="42.80146" lon="-0.03519">
        <ele>1909.5</ele>
        <time>2023-10-31T09:25:26Z</time>
      </trkpt>
      <trkpt lat="42.80147" lon="-0.0352">
        <ele>1909.6</ele>
        <time>2023-10-31T09:25:27Z</time>
      </trkpt>
      <trkpt lat="42.80147" lon="-0.0352">
        <ele>1909.7</ele>
        <time>2023-10-31T09:25:28Z</time>
      </trkpt>
      <trkpt lat="42.80147" lon="-0.0352">
        <ele>1909.9</ele>
        <time>2023-10-31T09:25:29Z</time>
      </trkpt>
      <trkpt lat="42.80147" lon="-0.0352">
        <ele>1910</ele>
        <time>2023-10-31T09:25:30Z</time>
      </trkpt>
      <trkpt lat="42.80148" lon="-0.0352">
        <ele>1910.2</ele>
        <time>2023-10-31T09:25:31Z</time>
      </trkpt>
      <trkpt lat="42.80148" lon="-0.0352">
        <ele>1910.3</ele>
        <time>2023-10-31T09:25:32Z</time>
      </trkpt>
      <trkpt lat="42.80148" lon="-0.0352">
        <ele>1910.3</ele>
        <time>2023-10-31T09:25:33Z</time>
      </trkpt>
      <trkpt lat="42.80148" lon="-0.0352">
        <ele>1910.5</ele>
        <time>2023-10-31T09:25:34Z</time>
      </trkpt>
      <trkpt lat="42.80149" lon="-0.03521">
        <ele>1910.7</ele>
        <time>2023-10-31T09:25:35Z</time>
      </trkpt>
      <trkpt lat="42.80148" lon="-0.03519">
        <ele>1911.1</ele>
        <time>2023-10-31T09:25:36Z</time>
      </trkpt>
      <trkpt lat="42.80148" lon="-0.0352">
        <ele>1911.4</ele>
        <time>2023-10-31T09:25:37Z</time>
      </trkpt>
      <trkpt lat="42.80147" lon="-0.03521">
        <ele>1911.6</ele>
        <time>2023-10-31T09:25:38Z</time>
      </trkpt>
      <trkpt lat="42.80148" lon="-0.03521">
        <ele>1911.8</ele>
        <time>2023-10-31T09:25:39Z</time>
      </trkpt>
      <trkpt lat="42.80148" lon="-0.03521">
        <ele>1912</ele>
        <time>2023-10-31T09:25:40Z</time>
      </trkpt>
      <trkpt lat="42.80148" lon="-0.03522">
        <ele>1912.2</ele>
        <time>2023-10-31T09:25:41Z</time>
      </trkpt>
      <trkpt lat="42.80148" lon="-0.03522">
        <ele>1912.3</ele>
        <time>2023-10-31T09:25:42Z</time>
      </trkpt>
      <trkpt lat="42.80148" lon="-0.03522">
        <ele>1912.4</ele>
        <time>2023-10-31T09:25:43Z</time>
      </trkpt>
      <trkpt lat="42.80149" lon="-0.03522">
        <ele>1912.7</ele>
        <time>2023-10-31T09:25:44Z</time>
      </trkpt>
      <trkpt lat="42.80149" lon="-0.03522">
        <ele>1912.8</ele>
        <time>2023-10-31T09:25:45Z</time>
      </trkpt>
      <trkpt lat="42.8015" lon="-0.03523">
        <ele>1913</ele>
        <time>2023-10-31T09:25:46Z</time>
      </trkpt>
      <trkpt lat="42.8015" lon="-0.03523">
        <ele>1913.2</ele>
        <time>2023-10-31T09:25:47Z</time>
      </trkpt>
      <trkpt lat="42.80151" lon="-0.03523">
        <ele>1913.4</ele>
        <time>2023-10-31T09:25:48Z</time>
      </trkpt>
      <trkpt lat="42.80151" lon="-0.03523">
        <ele>1913.5</ele>
        <time>2023-10-31T09:25:49Z</time>
      </trkpt>
      <trkpt lat="42.80151" lon="-0.03524">
        <ele>1913.7</ele>
        <time>2023-10-31T09:25:50Z</time>
      </trkpt>
      <trkpt lat="42.80152" lon="-0.03523">
        <ele>1914.1</ele>
        <time>2023-10-31T09:25:51Z</time>
      </trkpt>
      <trkpt lat="42.80151" lon="-0.03524">
        <ele>1914.5</ele>
        <time>2023-10-31T09:25:52Z</time>
      </trkpt>
      <trkpt lat="42.80151" lon="-0.03525">
        <ele>1914.6</ele>
        <time>2023-10-31T09:25:53Z</time>
      </trkpt>
      <trkpt lat="42.80151" lon="-0.03525">
        <ele>1914.6</ele>
        <time>2023-10-31T09:25:54Z</time>
      </trkpt>
      <trkpt lat="42.80151" lon="-0.03525">
        <ele>1914.7</ele>
        <time>2023-10-31T09:25:55Z</time>
      </trkpt>
      <trkpt lat="42.80152" lon="-0.03526">
        <ele>1914.9</ele>
        <time>2023-10-31T09:25:56Z</time>
      </trkpt>
      <trkpt lat="42.80153" lon="-0.03525">
        <ele>1915.2</ele>
        <time>2023-10-31T09:25:57Z</time>
      </trkpt>
      <trkpt lat="42.80153" lon="-0.03525">
        <ele>1915.4</ele>
        <time>2023-10-31T09:25:58Z</time>
      </trkpt>
      <trkpt lat="42.80153" lon="-0.03525">
        <ele>1915.5</ele>
        <time>2023-10-31T09:25:59Z</time>
      </trkpt>
      <trkpt lat="42.80154" lon="-0.03525">
        <ele>1915.6</ele>
        <time>2023-10-31T09:26:00Z</time>
      </trkpt>
      <trkpt lat="42.80154" lon="-0.03524">
        <ele>1915.7</ele>
        <time>2023-10-31T09:26:01Z</time>
      </trkpt>
      <trkpt lat="42.80154" lon="-0.03524">
        <ele>1915.9</ele>
        <time>2023-10-31T09:26:02Z</time>
      </trkpt>
      <trkpt lat="42.80154" lon="-0.03523">
        <ele>1916</ele>
        <time>2023-10-31T09:26:03Z</time>
      </trkpt>
      <trkpt lat="42.80156" lon="-0.03522">
        <ele>1916.4</ele>
        <time>2023-10-31T09:26:04Z</time>
      </trkpt>
      <trkpt lat="42.80156" lon="-0.03522">
        <ele>1916.7</ele>
        <time>2023-10-31T09:26:05Z</time>
      </trkpt>
      <trkpt lat="42.80157" lon="-0.03521">
        <ele>1916.8</ele>
        <time>2023-10-31T09:26:06Z</time>
      </trkpt>
      <trkpt lat="42.80158" lon="-0.03521">
        <ele>1917.1</ele>
        <time>2023-10-31T09:26:07Z</time>
      </trkpt>
      <trkpt lat="42.80158" lon="-0.0352">
        <ele>1917.2</ele>
        <time>2023-10-31T09:26:08Z</time>
      </trkpt>
      <trkpt lat="42.80158" lon="-0.0352">
        <ele>1917.3</ele>
        <time>2023-10-31T09:26:09Z</time>
      </trkpt>
      <trkpt lat="42.80159" lon="-0.0352">
        <ele>1917.5</ele>
        <time>2023-10-31T09:26:10Z</time>
      </trkpt>
      <trkpt lat="42.8016" lon="-0.0352">
        <ele>1917.7</ele>
        <time>2023-10-31T09:26:11Z</time>
      </trkpt>
      <trkpt lat="42.8016" lon="-0.0352">
        <ele>1917.9</ele>
        <time>2023-10-31T09:26:12Z</time>
      </trkpt>
      <trkpt lat="42.80161" lon="-0.0352">
        <ele>1918</ele>
        <time>2023-10-31T09:26:13Z</time>
      </trkpt>
      <trkpt lat="42.80161" lon="-0.03519">
        <ele>1918.1</ele>
        <time>2023-10-31T09:26:14Z</time>
      </trkpt>
      <trkpt lat="42.80162" lon="-0.03519">
        <ele>1918.3</ele>
        <time>2023-10-31T09:26:15Z</time>
      </trkpt>
      <trkpt lat="42.80163" lon="-0.03518">
        <ele>1918.5</ele>
        <time>2023-10-31T09:26:16Z</time>
      </trkpt>
      <trkpt lat="42.80163" lon="-0.03517">
        <ele>1918.7</ele>
        <time>2023-10-31T09:26:17Z</time>
      </trkpt>
      <trkpt lat="42.80164" lon="-0.03517">
        <ele>1918.8</ele>
        <time>2023-10-31T09:26:18Z</time>
      </trkpt>
      <trkpt lat="42.80165" lon="-0.03516">
        <ele>1919.1</ele>
        <time>2023-10-31T09:26:19Z</time>
      </trkpt>
      <trkpt lat="42.80165" lon="-0.03516">
        <ele>1919.2</ele>
        <time>2023-10-31T09:26:20Z</time>
      </trkpt>
      <trkpt lat="42.80166" lon="-0.03516">
        <ele>1919.3</ele>
        <time>2023-10-31T09:26:21Z</time>
      </trkpt>
      <trkpt lat="42.80166" lon="-0.03516">
        <ele>1919.3</ele>
        <time>2023-10-31T09:26:22Z</time>
      </trkpt>
      <trkpt lat="42.80167" lon="-0.03516">
        <ele>1919.5</ele>
        <time>2023-10-31T09:26:23Z</time>
      </trkpt>
      <trkpt lat="42.80167" lon="-0.03515">
        <ele>1919.6</ele>
        <time>2023-10-31T09:26:24Z</time>
      </trkpt>
      <trkpt lat="42.80168" lon="-0.03515">
        <ele>1919.8</ele>
        <time>2023-10-31T09:26:25Z</time>
      </trkpt>
      <trkpt lat="42.80168" lon="-0.03515">
        <ele>1919.8</ele>
        <time>2023-10-31T09:26:26Z</time>
      </trkpt>
      <trkpt lat="42.80169" lon="-0.03515">
        <ele>1920</ele>
        <time>2023-10-31T09:26:27Z</time>
      </trkpt>
      <trkpt lat="42.80169" lon="-0.03514">
        <ele>1920.1</ele>
        <time>2023-10-31T09:26:28Z</time>
      </trkpt>
      <trkpt lat="42.8017" lon="-0.03513">
        <ele>1920.2</ele>
        <time>2023-10-31T09:26:29Z</time>
      </trkpt>
      <trkpt lat="42.8017" lon="-0.03513">
        <ele>1920.4</ele>
        <time>2023-10-31T09:26:30Z</time>
      </trkpt>
      <trkpt lat="42.80171" lon="-0.03512">
        <ele>1920.5</ele>
        <time>2023-10-31T09:26:31Z</time>
      </trkpt>
      <trkpt lat="42.80172" lon="-0.03512">
        <ele>1920.6</ele>
        <time>2023-10-31T09:26:32Z</time>
      </trkpt>
      <trkpt lat="42.80172" lon="-0.03513">
        <ele>1920.7</ele>
        <time>2023-10-31T09:26:33Z</time>
      </trkpt>
      <trkpt lat="42.80173" lon="-0.03512">
        <ele>1920.9</ele>
        <time>2023-10-31T09:26:34Z</time>
      </trkpt>
      <trkpt lat="42.80173" lon="-0.03512">
        <ele>1920.9</ele>
        <time>2023-10-31T09:26:35Z</time>
      </trkpt>
      <trkpt lat="42.80173" lon="-0.03511">
        <ele>1921</ele>
        <time>2023-10-31T09:26:36Z</time>
      </trkpt>
      <trkpt lat="42.80173" lon="-0.03511">
        <ele>1921.1</ele>
        <time>2023-10-31T09:26:37Z</time>
      </trkpt>
      <trkpt lat="42.80174" lon="-0.03511">
        <ele>1921.2</ele>
        <time>2023-10-31T09:26:38Z</time>
      </trkpt>
      <trkpt lat="42.80174" lon="-0.03511">
        <ele>1921.3</ele>
        <time>2023-10-31T09:26:39Z</time>
      </trkpt>
      <trkpt lat="42.80175" lon="-0.03511">
        <ele>1921.4</ele>
        <time>2023-10-31T09:26:40Z</time>
      </trkpt>
      <trkpt lat="42.80176" lon="-0.03511">
        <ele>1921.6</ele>
        <time>2023-10-31T09:26:41Z</time>
      </trkpt>
      <trkpt lat="42.80176" lon="-0.03511">
        <ele>1921.6</ele>
        <time>2023-10-31T09:26:42Z</time>
      </trkpt>
      <trkpt lat="42.80176" lon="-0.03511">
        <ele>1921.7</ele>
        <time>2023-10-31T09:26:43Z</time>
      </trkpt>
      <trkpt lat="42.80177" lon="-0.03511">
        <ele>1921.9</ele>
        <time>2023-10-31T09:26:44Z</time>
      </trkpt>
      <trkpt lat="42.80177" lon="-0.0351">
        <ele>1922</ele>
        <time>2023-10-31T09:26:45Z</time>
      </trkpt>
      <trkpt lat="42.80178" lon="-0.0351">
        <ele>1922.1</ele>
        <time>2023-10-31T09:26:46Z</time>
      </trkpt>
      <trkpt lat="42.80179" lon="-0.0351">
        <ele>1922.2</ele>
        <time>2023-10-31T09:26:47Z</time>
      </trkpt>
      <trkpt lat="42.80179" lon="-0.03509">
        <ele>1922.3</ele>
        <time>2023-10-31T09:26:48Z</time>
      </trkpt>
      <trkpt lat="42.80179" lon="-0.03508">
        <ele>1922.4</ele>
        <time>2023-10-31T09:26:49Z</time>
      </trkpt>
      <trkpt lat="42.80179" lon="-0.03508">
        <ele>1922.5</ele>
        <time>2023-10-31T09:26:50Z</time>
      </trkpt>
      <trkpt lat="42.80179" lon="-0.03507">
        <ele>1922.7</ele>
        <time>2023-10-31T09:26:51Z</time>
      </trkpt>
      <trkpt lat="42.80179" lon="-0.03506">
        <ele>1922.8</ele>
        <time>2023-10-31T09:26:52Z</time>
      </trkpt>
      <trkpt lat="42.80179" lon="-0.03505">
        <ele>1922.9</ele>
        <time>2023-10-31T09:26:53Z</time>
      </trkpt>
      <trkpt lat="42.80179" lon="-0.03505">
        <ele>1923</ele>
        <time>2023-10-31T09:26:54Z</time>
      </trkpt>
      <trkpt lat="42.8018" lon="-0.03505">
        <ele>1923.1</ele>
        <time>2023-10-31T09:26:55Z</time>
      </trkpt>
      <trkpt lat="42.8018" lon="-0.03504">
        <ele>1923.2</ele>
        <time>2023-10-31T09:26:56Z</time>
      </trkpt>
      <trkpt lat="42.80179" lon="-0.03505">
        <ele>1923.3</ele>
        <time>2023-10-31T09:26:57Z</time>
      </trkpt>
      <trkpt lat="42.8018" lon="-0.03505">
        <ele>1923.3</ele>
        <time>2023-10-31T09:26:58Z</time>
      </trkpt>
      <trkpt lat="42.8018" lon="-0.03506">
        <ele>1923.5</ele>
        <time>2023-10-31T09:26:59Z</time>
      </trkpt>
      <trkpt lat="42.8018" lon="-0.03506">
        <ele>1923.5</ele>
        <time>2023-10-31T09:27:00Z</time>
      </trkpt>
      <trkpt lat="42.80179" lon="-0.03506">
        <ele>1923.7</ele>
        <time>2023-10-31T09:27:01Z</time>
      </trkpt>
      <trkpt lat="42.80179" lon="-0.03506">
        <ele>1923.8</ele>
        <time>2023-10-31T09:27:02Z</time>
      </trkpt>
      <trkpt lat="42.80179" lon="-0.03506">
        <ele>1923.8</ele>
        <time>2023-10-31T09:27:03Z</time>
      </trkpt>
      <trkpt lat="42.80179" lon="-0.03506">
        <ele>1923.9</ele>
        <time>2023-10-31T09:27:04Z</time>
      </trkpt>
      <trkpt lat="42.80179" lon="-0.03505">
        <ele>1924</ele>
        <time>2023-10-31T09:27:05Z</time>
      </trkpt>
      <trkpt lat="42.80179" lon="-0.03505">
        <ele>1924</ele>
        <time>2023-10-31T09:27:06Z</time>
      </trkpt>
      <trkpt lat="42.80179" lon="-0.03505">
        <ele>1924.1</ele>
        <time>2023-10-31T09:27:07Z</time>
      </trkpt>
      <trkpt lat="42.80179" lon="-0.03505">
        <ele>1924.1</ele>
        <time>2023-10-31T09:27:08Z</time>
      </trkpt>
      <trkpt lat="42.80179" lon="-0.03505">
        <ele>1924.1</ele>
        <time>2023-10-31T09:27:09Z</time>
      </trkpt>
      <trkpt lat="42.80178" lon="-0.03505">
        <ele>1924.2</ele>
        <time>2023-10-31T09:27:10Z</time>
      </trkpt>
      <trkpt lat="42.80178" lon="-0.03505">
        <ele>1924.2</ele>
        <time>2023-10-31T09:27:11Z</time>
      </trkpt>
      <trkpt lat="42.80178" lon="-0.03505">
        <ele>1924.2</ele>
        <time>2023-10-31T09:27:12Z</time>
      </trkpt>
      <trkpt lat="42.80178" lon="-0.03505">
        <ele>1924.2</ele>
        <time>2023-10-31T09:27:13Z</time>
      </trkpt>
      <trkpt lat="42.80179" lon="-0.03505">
        <ele>1924.3</ele>
        <time>2023-10-31T09:27:14Z</time>
      </trkpt>
      <trkpt lat="42.80179" lon="-0.03505">
        <ele>1924.5</ele>
        <time>2023-10-31T09:27:15Z</time>
      </trkpt>
      <trkpt lat="42.8018" lon="-0.03505">
        <ele>1924.6</ele>
        <time>2023-10-31T09:27:16Z</time>
      </trkpt>
      <trkpt lat="42.80179" lon="-0.03505">
        <ele>1924.6</ele>
        <time>2023-10-31T09:27:17Z</time>
      </trkpt>
      <trkpt lat="42.8018" lon="-0.03505">
        <ele>1924.7</ele>
        <time>2023-10-31T09:27:18Z</time>
      </trkpt>
      <trkpt lat="42.8018" lon="-0.03505">
        <ele>1924.8</ele>
        <time>2023-10-31T09:27:19Z</time>
      </trkpt>
      <trkpt lat="42.80181" lon="-0.03505">
        <ele>1925</ele>
        <time>2023-10-31T09:27:20Z</time>
      </trkpt>
      <trkpt lat="42.80182" lon="-0.03505">
        <ele>1925.1</ele>
        <time>2023-10-31T09:27:21Z</time>
      </trkpt>
      <trkpt lat="42.80182" lon="-0.03506">
        <ele>1925.3</ele>
        <time>2023-10-31T09:27:22Z</time>
      </trkpt>
      <trkpt lat="42.80183" lon="-0.03506">
        <ele>1925.5</ele>
        <time>2023-10-31T09:27:23Z</time>
      </trkpt>
      <trkpt lat="42.80184" lon="-0.03505">
        <ele>1925.7</ele>
        <time>2023-10-31T09:27:24Z</time>
      </trkpt>
      <trkpt lat="42.80183" lon="-0.03503">
        <ele>1925.9</ele>
        <time>2023-10-31T09:27:25Z</time>
      </trkpt>
      <trkpt lat="42.80183" lon="-0.03502">
        <ele>1926.1</ele>
        <time>2023-10-31T09:27:26Z</time>
      </trkpt>
      <trkpt lat="42.80183" lon="-0.03501">
        <ele>1926.2</ele>
        <time>2023-10-31T09:27:27Z</time>
      </trkpt>
      <trkpt lat="42.80183" lon="-0.03501">
        <ele>1926.3</ele>
        <time>2023-10-31T09:27:28Z</time>
      </trkpt>
      <trkpt lat="42.80183" lon="-0.03501">
        <ele>1926.3</ele>
        <time>2023-10-31T09:27:29Z</time>
      </trkpt>
      <trkpt lat="42.80183" lon="-0.035">
        <ele>1926.4</ele>
        <time>2023-10-31T09:27:30Z</time>
      </trkpt>
      <trkpt lat="42.80183" lon="-0.03499">
        <ele>1926.7</ele>
        <time>2023-10-31T09:27:31Z</time>
      </trkpt>
      <trkpt lat="42.80183" lon="-0.03499">
        <ele>1926.7</ele>
        <time>2023-10-31T09:27:32Z</time>
      </trkpt>
      <trkpt lat="42.80183" lon="-0.03498">
        <ele>1926.9</ele>
        <time>2023-10-31T09:27:33Z</time>
      </trkpt>
      <trkpt lat="42.80183" lon="-0.03498">
        <ele>1926.9</ele>
        <time>2023-10-31T09:27:34Z</time>
      </trkpt>
      <trkpt lat="42.80183" lon="-0.03497">
        <ele>1927</ele>
        <time>2023-10-31T09:27:35Z</time>
      </trkpt>
      <trkpt lat="42.80183" lon="-0.03497">
        <ele>1927</ele>
        <time>2023-10-31T09:27:36Z</time>
      </trkpt>
      <trkpt lat="42.80183" lon="-0.03497">
        <ele>1927.1</ele>
        <time>2023-10-31T09:27:37Z</time>
      </trkpt>
      <trkpt lat="42.80183" lon="-0.03496">
        <ele>1927.1</ele>
        <time>2023-10-31T09:27:38Z</time>
      </trkpt>
      <trkpt lat="42.80183" lon="-0.03496">
        <ele>1927.1</ele>
        <time>2023-10-31T09:27:39Z</time>
      </trkpt>
      <trkpt lat="42.80183" lon="-0.03496">
        <ele>1927.2</ele>
        <time>2023-10-31T09:27:40Z</time>
      </trkpt>
      <trkpt lat="42.80183" lon="-0.03496">
        <ele>1927.2</ele>
        <time>2023-10-31T09:27:41Z</time>
      </trkpt>
      <trkpt lat="42.80184" lon="-0.03497">
        <ele>1927.3</ele>
        <time>2023-10-31T09:27:42Z</time>
      </trkpt>
      <trkpt lat="42.80184" lon="-0.03497">
        <ele>1927.3</ele>
        <time>2023-10-31T09:27:43Z</time>
      </trkpt>
      <trkpt lat="42.80184" lon="-0.03497">
        <ele>1927.4</ele>
        <time>2023-10-31T09:27:44Z</time>
      </trkpt>
      <trkpt lat="42.80184" lon="-0.03497">
        <ele>1927.4</ele>
        <time>2023-10-31T09:27:45Z</time>
      </trkpt>
      <trkpt lat="42.80184" lon="-0.03498">
        <ele>1927.5</ele>
        <time>2023-10-31T09:27:46Z</time>
      </trkpt>
      <trkpt lat="42.80184" lon="-0.03498">
        <ele>1927.5</ele>
        <time>2023-10-31T09:27:47Z</time>
      </trkpt>
      <trkpt lat="42.80182" lon="-0.03498">
        <ele>1927.9</ele>
        <time>2023-10-31T09:27:48Z</time>
      </trkpt>
      <trkpt lat="42.80184" lon="-0.03498">
        <ele>1928.1</ele>
        <time>2023-10-31T09:27:49Z</time>
      </trkpt>
      <trkpt lat="42.80184" lon="-0.03498">
        <ele>1928.2</ele>
        <time>2023-10-31T09:27:50Z</time>
      </trkpt>
      <trkpt lat="42.80184" lon="-0.03497">
        <ele>1928.3</ele>
        <time>2023-10-31T09:27:51Z</time>
      </trkpt>
      <trkpt lat="42.80184" lon="-0.03497">
        <ele>1928.3</ele>
        <time>2023-10-31T09:27:52Z</time>
      </trkpt>
      <trkpt lat="42.80183" lon="-0.03496">
        <ele>1928.4</ele>
        <time>2023-10-31T09:27:53Z</time>
      </trkpt>
      <trkpt lat="42.80184" lon="-0.03496">
        <ele>1928.4</ele>
        <time>2023-10-31T09:27:54Z</time>
      </trkpt>
      <trkpt lat="42.80184" lon="-0.03496">
        <ele>1928.4</ele>
        <time>2023-10-31T09:27:55Z</time>
      </trkpt>
      <trkpt lat="42.80184" lon="-0.03496">
        <ele>1928.4</ele>
        <time>2023-10-31T09:27:56Z</time>
      </trkpt>
      <trkpt lat="42.80184" lon="-0.03494">
        <ele>1928.5</ele>
        <time>2023-10-31T09:27:57Z</time>
      </trkpt>
      <trkpt lat="42.80184" lon="-0.03494">
        <ele>1928.5</ele>
        <time>2023-10-31T09:27:58Z</time>
      </trkpt>
      <trkpt lat="42.80184" lon="-0.03494">
        <ele>1928.6</ele>
        <time>2023-10-31T09:27:59Z</time>
      </trkpt>
      <trkpt lat="42.80184" lon="-0.03493">
        <ele>1928.6</ele>
        <time>2023-10-31T09:28:00Z</time>
      </trkpt>
      <trkpt lat="42.80184" lon="-0.03492">
        <ele>1928.7</ele>
        <time>2023-10-31T09:28:01Z</time>
      </trkpt>
      <trkpt lat="42.80183" lon="-0.03492">
        <ele>1928.7</ele>
        <time>2023-10-31T09:28:02Z</time>
      </trkpt>
      <trkpt lat="42.80183" lon="-0.03491">
        <ele>1928.8</ele>
        <time>2023-10-31T09:28:03Z</time>
      </trkpt>
      <trkpt lat="42.80183" lon="-0.0349">
        <ele>1928.8</ele>
        <time>2023-10-31T09:28:04Z</time>
      </trkpt>
      <trkpt lat="42.80183" lon="-0.0349">
        <ele>1928.8</ele>
        <time>2023-10-31T09:28:05Z</time>
      </trkpt>
      <trkpt lat="42.80183" lon="-0.0349">
        <ele>1928.8</ele>
        <time>2023-10-31T09:28:06Z</time>
      </trkpt>
      <trkpt lat="42.80183" lon="-0.0349">
        <ele>1928.8</ele>
        <time>2023-10-31T09:28:07Z</time>
      </trkpt>
      <trkpt lat="42.80183" lon="-0.03489">
        <ele>1928.8</ele>
        <time>2023-10-31T09:28:08Z</time>
      </trkpt>
      <trkpt lat="42.80183" lon="-0.03488">
        <ele>1928.8</ele>
        <time>2023-10-31T09:28:09Z</time>
      </trkpt>
      <trkpt lat="42.80182" lon="-0.03488">
        <ele>1928.8</ele>
        <time>2023-10-31T09:28:10Z</time>
      </trkpt>
      <trkpt lat="42.80183" lon="-0.03487">
        <ele>1928.8</ele>
        <time>2023-10-31T09:28:11Z</time>
      </trkpt>
      <trkpt lat="42.80183" lon="-0.03487">
        <ele>1928.8</ele>
        <time>2023-10-31T09:28:12Z</time>
      </trkpt>
      <trkpt lat="42.80183" lon="-0.03486">
        <ele>1928.9</ele>
        <time>2023-10-31T09:28:13Z</time>
      </trkpt>
      <trkpt lat="42.80184" lon="-0.03487">
        <ele>1928.8</ele>
        <time>2023-10-31T09:28:14Z</time>
      </trkpt>
      <trkpt lat="42.80184" lon="-0.03487">
        <ele>1928.8</ele>
        <time>2023-10-31T09:28:15Z</time>
      </trkpt>
      <trkpt lat="42.80184" lon="-0.03487">
        <ele>1928.8</ele>
        <time>2023-10-31T09:28:16Z</time>
      </trkpt>
      <trkpt lat="42.80185" lon="-0.03487">
        <ele>1928.8</ele>
        <time>2023-10-31T09:28:17Z</time>
      </trkpt>
      <trkpt lat="42.80184" lon="-0.03487">
        <ele>1928.8</ele>
        <time>2023-10-31T09:28:18Z</time>
      </trkpt>
      <trkpt lat="42.80185" lon="-0.03487">
        <ele>1928.8</ele>
        <time>2023-10-31T09:28:19Z</time>
      </trkpt>
      <trkpt lat="42.80184" lon="-0.03487">
        <ele>1928.8</ele>
        <time>2023-10-31T09:28:20Z</time>
      </trkpt>
      <trkpt lat="42.80184" lon="-0.03487">
        <ele>1928.8</ele>
        <time>2023-10-31T09:28:21Z</time>
      </trkpt>
      <trkpt lat="42.80184" lon="-0.03487">
        <ele>1928.8</ele>
        <time>2023-10-31T09:28:22Z</time>
      </trkpt>
      <trkpt lat="42.80184" lon="-0.03487">
        <ele>1928.8</ele>
        <time>2023-10-31T09:28:23Z</time>
      </trkpt>
      <trkpt lat="42.80184" lon="-0.03487">
        <ele>1928.8</ele>
        <time>2023-10-31T09:28:24Z</time>
      </trkpt>
      <trkpt lat="42.80185" lon="-0.03487">
        <ele>1928.8</ele>
        <time>2023-10-31T09:28:25Z</time>
      </trkpt>
      <trkpt lat="42.80185" lon="-0.03487">
        <ele>1928.8</ele>
        <time>2023-10-31T09:28:26Z</time>
      </trkpt>
      <trkpt lat="42.80185" lon="-0.03487">
        <ele>1928.8</ele>
        <time>2023-10-31T09:28:27Z</time>
      </trkpt>
      <trkpt lat="42.80185" lon="-0.03487">
        <ele>1928.8</ele>
        <time>2023-10-31T09:28:28Z</time>
      </trkpt>
      <trkpt lat="42.80185" lon="-0.03487">
        <ele>1928.8</ele>
        <time>2023-10-31T09:28:29Z</time>
      </trkpt>
      <trkpt lat="42.80185" lon="-0.03487">
        <ele>1928.8</ele>
        <time>2023-10-31T09:28:30Z</time>
      </trkpt>
      <trkpt lat="42.80185" lon="-0.03487">
        <ele>1928.8</ele>
        <time>2023-10-31T09:28:31Z</time>
      </trkpt>
      <trkpt lat="42.80185" lon="-0.03487">
        <ele>1928.8</ele>
        <time>2023-10-31T09:28:32Z</time>
      </trkpt>
      <trkpt lat="42.80185" lon="-0.03487">
        <ele>1928.8</ele>
        <time>2023-10-31T09:28:33Z</time>
      </trkpt>
      <trkpt lat="42.80185" lon="-0.03487">
        <ele>1928.8</ele>
        <time>2023-10-31T09:28:34Z</time>
      </trkpt>
      <trkpt lat="42.80184" lon="-0.03487">
        <ele>1928.8</ele>
        <time>2023-10-31T09:28:35Z</time>
      </trkpt>
      <trkpt lat="42.80184" lon="-0.03486">
        <ele>1928.7</ele>
        <time>2023-10-31T09:28:36Z</time>
      </trkpt>
      <trkpt lat="42.80185" lon="-0.03486">
        <ele>1928.7</ele>
        <time>2023-10-31T09:28:37Z</time>
      </trkpt>
      <trkpt lat="42.80185" lon="-0.03486">
        <ele>1928.7</ele>
        <time>2023-10-31T09:28:38Z</time>
      </trkpt>
      <trkpt lat="42.80185" lon="-0.03486">
        <ele>1928.7</ele>
        <time>2023-10-31T09:28:39Z</time>
      </trkpt>
      <trkpt lat="42.80185" lon="-0.03487">
        <ele>1928.7</ele>
        <time>2023-10-31T09:28:40Z</time>
      </trkpt>
      <trkpt lat="42.80185" lon="-0.03486">
        <ele>1928.7</ele>
        <time>2023-10-31T09:28:41Z</time>
      </trkpt>
      <trkpt lat="42.80185" lon="-0.03485">
        <ele>1928.6</ele>
        <time>2023-10-31T09:28:42Z</time>
      </trkpt>
      <trkpt lat="42.80185" lon="-0.03485">
        <ele>1928.6</ele>
        <time>2023-10-31T09:28:43Z</time>
      </trkpt>
      <trkpt lat="42.80185" lon="-0.03485">
        <ele>1928.6</ele>
        <time>2023-10-31T09:28:44Z</time>
      </trkpt>
      <trkpt lat="42.80185" lon="-0.03485">
        <ele>1928.6</ele>
        <time>2023-10-31T09:28:45Z</time>
      </trkpt>
      <trkpt lat="42.80185" lon="-0.03485">
        <ele>1928.6</ele>
        <time>2023-10-31T09:28:46Z</time>
      </trkpt>
      <trkpt lat="42.80185" lon="-0.03485">
        <ele>1928.6</ele>
        <time>2023-10-31T09:28:47Z</time>
      </trkpt>
      <trkpt lat="42.80186" lon="-0.03485">
        <ele>1928.6</ele>
        <time>2023-10-31T09:28:48Z</time>
      </trkpt>
      <trkpt lat="42.80187" lon="-0.03485">
        <ele>1928.5</ele>
        <time>2023-10-31T09:28:49Z</time>
      </trkpt>
      <trkpt lat="42.80187" lon="-0.03484">
        <ele>1928.5</ele>
        <time>2023-10-31T09:28:50Z</time>
      </trkpt>
      <trkpt lat="42.80188" lon="-0.03484">
        <ele>1928.4</ele>
        <time>2023-10-31T09:28:51Z</time>
      </trkpt>
      <trkpt lat="42.80188" lon="-0.03484">
        <ele>1928.4</ele>
        <time>2023-10-31T09:28:52Z</time>
      </trkpt>
      <trkpt lat="42.80189" lon="-0.03483">
        <ele>1928.3</ele>
        <time>2023-10-31T09:28:53Z</time>
      </trkpt>
      <trkpt lat="42.80189" lon="-0.03483">
        <ele>1928.3</ele>
        <time>2023-10-31T09:28:54Z</time>
      </trkpt>
      <trkpt lat="42.80191" lon="-0.03482">
        <ele>1928.1</ele>
        <time>2023-10-31T09:28:55Z</time>
      </trkpt>
      <trkpt lat="42.80191" lon="-0.03482">
        <ele>1928</ele>
        <time>2023-10-31T09:28:56Z</time>
      </trkpt>
      <trkpt lat="42.80192" lon="-0.03481">
        <ele>1927.9</ele>
        <time>2023-10-31T09:28:57Z</time>
      </trkpt>
      <trkpt lat="42.80192" lon="-0.03481">
        <ele>1927.9</ele>
        <time>2023-10-31T09:28:58Z</time>
      </trkpt>
      <trkpt lat="42.80193" lon="-0.03479">
        <ele>1927.7</ele>
        <time>2023-10-31T09:28:59Z</time>
      </trkpt>
      <trkpt lat="42.80193" lon="-0.03479">
        <ele>1927.7</ele>
        <time>2023-10-31T09:29:00Z</time>
      </trkpt>
      <trkpt lat="42.80193" lon="-0.03478">
        <ele>1927.6</ele>
        <time>2023-10-31T09:29:01Z</time>
      </trkpt>
      <trkpt lat="42.80193" lon="-0.03478">
        <ele>1927.5</ele>
        <time>2023-10-31T09:29:02Z</time>
      </trkpt>
      <trkpt lat="42.80193" lon="-0.03478">
        <ele>1927.5</ele>
        <time>2023-10-31T09:29:03Z</time>
      </trkpt>
      <trkpt lat="42.80193" lon="-0.03477">
        <ele>1927.4</ele>
        <time>2023-10-31T09:29:04Z</time>
      </trkpt>
      <trkpt lat="42.80195" lon="-0.03477">
        <ele>1927.2</ele>
        <time>2023-10-31T09:29:05Z</time>
      </trkpt>
      <trkpt lat="42.80195" lon="-0.03475">
        <ele>1927</ele>
        <time>2023-10-31T09:29:06Z</time>
      </trkpt>
      <trkpt lat="42.80195" lon="-0.03474">
        <ele>1926.9</ele>
        <time>2023-10-31T09:29:07Z</time>
      </trkpt>
      <trkpt lat="42.80195" lon="-0.03473">
        <ele>1926.8</ele>
        <time>2023-10-31T09:29:08Z</time>
      </trkpt>
      <trkpt lat="42.80195" lon="-0.03472">
        <ele>1926.7</ele>
        <time>2023-10-31T09:29:09Z</time>
      </trkpt>
      <trkpt lat="42.80195" lon="-0.03471">
        <ele>1926.5</ele>
        <time>2023-10-31T09:29:10Z</time>
      </trkpt>
      <trkpt lat="42.80195" lon="-0.0347">
        <ele>1926.4</ele>
        <time>2023-10-31T09:29:11Z</time>
      </trkpt>
      <trkpt lat="42.80196" lon="-0.03468">
        <ele>1926.2</ele>
        <time>2023-10-31T09:29:12Z</time>
      </trkpt>
      <trkpt lat="42.80196" lon="-0.03466">
        <ele>1926.1</ele>
        <time>2023-10-31T09:29:13Z</time>
      </trkpt>
      <trkpt lat="42.80197" lon="-0.03465">
        <ele>1926</ele>
        <time>2023-10-31T09:29:14Z</time>
      </trkpt>
      <trkpt lat="42.80197" lon="-0.03464">
        <ele>1925.9</ele>
        <time>2023-10-31T09:29:15Z</time>
      </trkpt>
      <trkpt lat="42.80198" lon="-0.03464">
        <ele>1925.8</ele>
        <time>2023-10-31T09:29:16Z</time>
      </trkpt>
      <trkpt lat="42.80199" lon="-0.03464">
        <ele>1925.7</ele>
        <time>2023-10-31T09:29:17Z</time>
      </trkpt>
      <trkpt lat="42.80199" lon="-0.03463">
        <ele>1925.6</ele>
        <time>2023-10-31T09:29:18Z</time>
      </trkpt>
      <trkpt lat="42.802" lon="-0.03463">
        <ele>1925.5</ele>
        <time>2023-10-31T09:29:19Z</time>
      </trkpt>
      <trkpt lat="42.80201" lon="-0.03462">
        <ele>1925.4</ele>
        <time>2023-10-31T09:29:20Z</time>
      </trkpt>
      <trkpt lat="42.80201" lon="-0.03461">
        <ele>1925.4</ele>
        <time>2023-10-31T09:29:21Z</time>
      </trkpt>
      <trkpt lat="42.80202" lon="-0.03461">
        <ele>1925.3</ele>
        <time>2023-10-31T09:29:22Z</time>
      </trkpt>
      <trkpt lat="42.80202" lon="-0.0346">
        <ele>1925.3</ele>
        <time>2023-10-31T09:29:23Z</time>
      </trkpt>
      <trkpt lat="42.80202" lon="-0.03459">
        <ele>1925.2</ele>
        <time>2023-10-31T09:29:24Z</time>
      </trkpt>
      <trkpt lat="42.80203" lon="-0.03458">
        <ele>1925.1</ele>
        <time>2023-10-31T09:29:25Z</time>
      </trkpt>
      <trkpt lat="42.80204" lon="-0.03458">
        <ele>1925.1</ele>
        <time>2023-10-31T09:29:26Z</time>
      </trkpt>
      <trkpt lat="42.80205" lon="-0.03457">
        <ele>1925</ele>
        <time>2023-10-31T09:29:27Z</time>
      </trkpt>
      <trkpt lat="42.80205" lon="-0.03457">
        <ele>1925</ele>
        <time>2023-10-31T09:29:28Z</time>
      </trkpt>
      <trkpt lat="42.80206" lon="-0.03456">
        <ele>1924.9</ele>
        <time>2023-10-31T09:29:29Z</time>
      </trkpt>
      <trkpt lat="42.80207" lon="-0.03455">
        <ele>1924.9</ele>
        <time>2023-10-31T09:29:30Z</time>
      </trkpt>
      <trkpt lat="42.80208" lon="-0.03453">
        <ele>1924.8</ele>
        <time>2023-10-31T09:29:31Z</time>
      </trkpt>
      <trkpt lat="42.80209" lon="-0.03451">
        <ele>1924.7</ele>
        <time>2023-10-31T09:29:32Z</time>
      </trkpt>
      <trkpt lat="42.80209" lon="-0.03449">
        <ele>1924.6</ele>
        <time>2023-10-31T09:29:33Z</time>
      </trkpt>
      <trkpt lat="42.8021" lon="-0.03448">
        <ele>1924.6</ele>
        <time>2023-10-31T09:29:34Z</time>
      </trkpt>
      <trkpt lat="42.80212" lon="-0.03447">
        <ele>1924.5</ele>
        <time>2023-10-31T09:29:35Z</time>
      </trkpt>
      <trkpt lat="42.80213" lon="-0.03445">
        <ele>1924.4</ele>
        <time>2023-10-31T09:29:36Z</time>
      </trkpt>
      <trkpt lat="42.80213" lon="-0.03443">
        <ele>1924.3</ele>
        <time>2023-10-31T09:29:37Z</time>
      </trkpt>
      <trkpt lat="42.80214" lon="-0.03442">
        <ele>1924.2</ele>
        <time>2023-10-31T09:29:38Z</time>
      </trkpt>
      <trkpt lat="42.80214" lon="-0.0344">
        <ele>1924.1</ele>
        <time>2023-10-31T09:29:39Z</time>
      </trkpt>
      <trkpt lat="42.80214" lon="-0.03437">
        <ele>1924</ele>
        <time>2023-10-31T09:29:40Z</time>
      </trkpt>
      <trkpt lat="42.80215" lon="-0.03435">
        <ele>1923.8</ele>
        <time>2023-10-31T09:29:41Z</time>
      </trkpt>
      <trkpt lat="42.80215" lon="-0.03434">
        <ele>1923.8</ele>
        <time>2023-10-31T09:29:42Z</time>
      </trkpt>
      <trkpt lat="42.80216" lon="-0.03433">
        <ele>1923.7</ele>
        <time>2023-10-31T09:29:43Z</time>
      </trkpt>
      <trkpt lat="42.80217" lon="-0.03432">
        <ele>1923.6</ele>
        <time>2023-10-31T09:29:44Z</time>
      </trkpt>
      <trkpt lat="42.80218" lon="-0.03431">
        <ele>1923.4</ele>
        <time>2023-10-31T09:29:45Z</time>
      </trkpt>
      <trkpt lat="42.80218" lon="-0.0343">
        <ele>1923.3</ele>
        <time>2023-10-31T09:29:46Z</time>
      </trkpt>
      <trkpt lat="42.80219" lon="-0.03428">
        <ele>1923.2</ele>
        <time>2023-10-31T09:29:47Z</time>
      </trkpt>
      <trkpt lat="42.8022" lon="-0.03427">
        <ele>1923</ele>
        <time>2023-10-31T09:29:48Z</time>
      </trkpt>
      <trkpt lat="42.80221" lon="-0.03426">
        <ele>1922.9</ele>
        <time>2023-10-31T09:29:49Z</time>
      </trkpt>
      <trkpt lat="42.80221" lon="-0.03425">
        <ele>1922.7</ele>
        <time>2023-10-31T09:29:50Z</time>
      </trkpt>
      <trkpt lat="42.80223" lon="-0.03425">
        <ele>1922.5</ele>
        <time>2023-10-31T09:29:51Z</time>
      </trkpt>
      <trkpt lat="42.80224" lon="-0.03424">
        <ele>1922.4</ele>
        <time>2023-10-31T09:29:52Z</time>
      </trkpt>
      <trkpt lat="42.80225" lon="-0.03425">
        <ele>1922.3</ele>
        <time>2023-10-31T09:29:53Z</time>
      </trkpt>
      <trkpt lat="42.80226" lon="-0.03424">
        <ele>1922.1</ele>
        <time>2023-10-31T09:29:54Z</time>
      </trkpt>
      <trkpt lat="42.80227" lon="-0.03424">
        <ele>1922</ele>
        <time>2023-10-31T09:29:55Z</time>
      </trkpt>
      <trkpt lat="42.80227" lon="-0.03424">
        <ele>1921.9</ele>
        <time>2023-10-31T09:29:56Z</time>
      </trkpt>
      <trkpt lat="42.80228" lon="-0.03424">
        <ele>1921.7</ele>
        <time>2023-10-31T09:29:57Z</time>
      </trkpt>
      <trkpt lat="42.80229" lon="-0.03423">
        <ele>1921.6</ele>
        <time>2023-10-31T09:29:58Z</time>
      </trkpt>
      <trkpt lat="42.80229" lon="-0.03422">
        <ele>1921.5</ele>
        <time>2023-10-31T09:29:59Z</time>
      </trkpt>
      <trkpt lat="42.80231" lon="-0.0342">
        <ele>1921.2</ele>
        <time>2023-10-31T09:30:00Z</time>
      </trkpt>
      <trkpt lat="42.80232" lon="-0.03419">
        <ele>1921</ele>
        <time>2023-10-31T09:30:01Z</time>
      </trkpt>
      <trkpt lat="42.80233" lon="-0.03418">
        <ele>1920.8</ele>
        <time>2023-10-31T09:30:02Z</time>
      </trkpt>
      <trkpt lat="42.80234" lon="-0.03418">
        <ele>1920.6</ele>
        <time>2023-10-31T09:30:03Z</time>
      </trkpt>
      <trkpt lat="42.80234" lon="-0.03418">
        <ele>1920.5</ele>
        <time>2023-10-31T09:30:04Z</time>
      </trkpt>
      <trkpt lat="42.80235" lon="-0.03418">
        <ele>1920.4</ele>
        <time>2023-10-31T09:30:05Z</time>
      </trkpt>
      <trkpt lat="42.80236" lon="-0.03419">
        <ele>1920.2</ele>
        <time>2023-10-31T09:30:06Z</time>
      </trkpt>
      <trkpt lat="42.80237" lon="-0.0342">
        <ele>1920.1</ele>
        <time>2023-10-31T09:30:07Z</time>
      </trkpt>
      <trkpt lat="42.80237" lon="-0.0342">
        <ele>1920</ele>
        <time>2023-10-31T09:30:08Z</time>
      </trkpt>
      <trkpt lat="42.80238" lon="-0.0342">
        <ele>1919.9</ele>
        <time>2023-10-31T09:30:09Z</time>
      </trkpt>
      <trkpt lat="42.80238" lon="-0.03421">
        <ele>1919.8</ele>
        <time>2023-10-31T09:30:10Z</time>
      </trkpt>
      <trkpt lat="42.80239" lon="-0.03421">
        <ele>1919.7</ele>
        <time>2023-10-31T09:30:11Z</time>
      </trkpt>
      <trkpt lat="42.80238" lon="-0.03421">
        <ele>1919.7</ele>
        <time>2023-10-31T09:30:12Z</time>
      </trkpt>
      <trkpt lat="42.80239" lon="-0.03421">
        <ele>1919.6</ele>
        <time>2023-10-31T09:30:13Z</time>
      </trkpt>
      <trkpt lat="42.8024" lon="-0.03421">
        <ele>1919.3</ele>
        <time>2023-10-31T09:30:14Z</time>
      </trkpt>
      <trkpt lat="42.80242" lon="-0.03422">
        <ele>1919</ele>
        <time>2023-10-31T09:30:15Z</time>
      </trkpt>
      <trkpt lat="42.80243" lon="-0.03422">
        <ele>1918.9</ele>
        <time>2023-10-31T09:30:16Z</time>
      </trkpt>
      <trkpt lat="42.80244" lon="-0.03422">
        <ele>1918.7</ele>
        <time>2023-10-31T09:30:17Z</time>
      </trkpt>
      <trkpt lat="42.80245" lon="-0.03422">
        <ele>1918.5</ele>
        <time>2023-10-31T09:30:18Z</time>
      </trkpt>
      <trkpt lat="42.80245" lon="-0.03423">
        <ele>1918.5</ele>
        <time>2023-10-31T09:30:19Z</time>
      </trkpt>
      <trkpt lat="42.80245" lon="-0.03423">
        <ele>1918.4</ele>
        <time>2023-10-31T09:30:20Z</time>
      </trkpt>
      <trkpt lat="42.80245" lon="-0.03424">
        <ele>1918.3</ele>
        <time>2023-10-31T09:30:21Z</time>
      </trkpt>
      <trkpt lat="42.80245" lon="-0.03424">
        <ele>1918.3</ele>
        <time>2023-10-31T09:30:22Z</time>
      </trkpt>
      <trkpt lat="42.80246" lon="-0.03424">
        <ele>1918.2</ele>
        <time>2023-10-31T09:30:23Z</time>
      </trkpt>
      <trkpt lat="42.80246" lon="-0.03425">
        <ele>1918.1</ele>
        <time>2023-10-31T09:30:24Z</time>
      </trkpt>
      <trkpt lat="42.80247" lon="-0.03425">
        <ele>1918</ele>
        <time>2023-10-31T09:30:25Z</time>
      </trkpt>
      <trkpt lat="42.80247" lon="-0.03425">
        <ele>1917.9</ele>
        <time>2023-10-31T09:30:26Z</time>
      </trkpt>
      <trkpt lat="42.80247" lon="-0.03425">
        <ele>1917.9</ele>
        <time>2023-10-31T09:30:27Z</time>
      </trkpt>
      <trkpt lat="42.80248" lon="-0.03425">
        <ele>1917.7</ele>
        <time>2023-10-31T09:30:28Z</time>
      </trkpt>
      <trkpt lat="42.80249" lon="-0.03426">
        <ele>1917.6</ele>
        <time>2023-10-31T09:30:29Z</time>
      </trkpt>
      <trkpt lat="42.8025" lon="-0.03426">
        <ele>1917.6</ele>
        <time>2023-10-31T09:30:30Z</time>
      </trkpt>
      <trkpt lat="42.8025" lon="-0.03427">
        <ele>1917.5</ele>
        <time>2023-10-31T09:30:31Z</time>
      </trkpt>
      <trkpt lat="42.80252" lon="-0.03428">
        <ele>1917.2</ele>
        <time>2023-10-31T09:30:32Z</time>
      </trkpt>
      <trkpt lat="42.80252" lon="-0.03428">
        <ele>1917</ele>
        <time>2023-10-31T09:30:33Z</time>
      </trkpt>
      <trkpt lat="42.80253" lon="-0.03428">
        <ele>1916.9</ele>
        <time>2023-10-31T09:30:34Z</time>
      </trkpt>
      <trkpt lat="42.80254" lon="-0.03429">
        <ele>1916.7</ele>
        <time>2023-10-31T09:30:35Z</time>
      </trkpt>
      <trkpt lat="42.80255" lon="-0.03428">
        <ele>1916.7</ele>
        <time>2023-10-31T09:30:36Z</time>
      </trkpt>
      <trkpt lat="42.80255" lon="-0.03428">
        <ele>1916.6</ele>
        <time>2023-10-31T09:30:37Z</time>
      </trkpt>
      <trkpt lat="42.80255" lon="-0.03428">
        <ele>1916.5</ele>
        <time>2023-10-31T09:30:38Z</time>
      </trkpt>
      <trkpt lat="42.80254" lon="-0.03428">
        <ele>1916.5</ele>
        <time>2023-10-31T09:30:39Z</time>
      </trkpt>
      <trkpt lat="42.80254" lon="-0.03428">
        <ele>1916.5</ele>
        <time>2023-10-31T09:30:40Z</time>
      </trkpt>
      <trkpt lat="42.80254" lon="-0.03428">
        <ele>1916.5</ele>
        <time>2023-10-31T09:30:41Z</time>
      </trkpt>
      <trkpt lat="42.80254" lon="-0.03428">
        <ele>1916.5</ele>
        <time>2023-10-31T09:30:42Z</time>
      </trkpt>
      <trkpt lat="42.80254" lon="-0.03428">
        <ele>1916.5</ele>
        <time>2023-10-31T09:30:43Z</time>
      </trkpt>
      <trkpt lat="42.80254" lon="-0.03428">
        <ele>1916.5</ele>
        <time>2023-10-31T09:30:44Z</time>
      </trkpt>
      <trkpt lat="42.80254" lon="-0.03428">
        <ele>1916.5</ele>
        <time>2023-10-31T09:30:45Z</time>
      </trkpt>
      <trkpt lat="42.80254" lon="-0.03428">
        <ele>1916.5</ele>
        <time>2023-10-31T09:30:46Z</time>
      </trkpt>
      <trkpt lat="42.80255" lon="-0.03428">
        <ele>1916.4</ele>
        <time>2023-10-31T09:30:47Z</time>
      </trkpt>
      <trkpt lat="42.80255" lon="-0.03428">
        <ele>1916.3</ele>
        <time>2023-10-31T09:30:48Z</time>
      </trkpt>
      <trkpt lat="42.80255" lon="-0.03428">
        <ele>1916.3</ele>
        <time>2023-10-31T09:30:49Z</time>
      </trkpt>
      <trkpt lat="42.80255" lon="-0.03428">
        <ele>1916.3</ele>
        <time>2023-10-31T09:30:50Z</time>
      </trkpt>
      <trkpt lat="42.80255" lon="-0.03428">
        <ele>1916.3</ele>
        <time>2023-10-31T09:30:51Z</time>
      </trkpt>
      <trkpt lat="42.80255" lon="-0.03428">
        <ele>1916.3</ele>
        <time>2023-10-31T09:30:52Z</time>
      </trkpt>
      <trkpt lat="42.80255" lon="-0.03428">
        <ele>1916.3</ele>
        <time>2023-10-31T09:30:53Z</time>
      </trkpt>
      <trkpt lat="42.80254" lon="-0.03429">
        <ele>1916.2</ele>
        <time>2023-10-31T09:30:54Z</time>
      </trkpt>
      <trkpt lat="42.80255" lon="-0.03429">
        <ele>1916.2</ele>
        <time>2023-10-31T09:30:55Z</time>
      </trkpt>
      <trkpt lat="42.80255" lon="-0.03429">
        <ele>1916.2</ele>
        <time>2023-10-31T09:30:56Z</time>
      </trkpt>
      <trkpt lat="42.80255" lon="-0.03429">
        <ele>1916.2</ele>
        <time>2023-10-31T09:30:57Z</time>
      </trkpt>
      <trkpt lat="42.80254" lon="-0.03429">
        <ele>1916.1</ele>
        <time>2023-10-31T09:30:58Z</time>
      </trkpt>
      <trkpt lat="42.80255" lon="-0.03429">
        <ele>1916.1</ele>
        <time>2023-10-31T09:30:59Z</time>
      </trkpt>
      <trkpt lat="42.80256" lon="-0.03429">
        <ele>1916</ele>
        <time>2023-10-31T09:31:00Z</time>
      </trkpt>
      <trkpt lat="42.80256" lon="-0.03429">
        <ele>1915.9</ele>
        <time>2023-10-31T09:31:01Z</time>
      </trkpt>
      <trkpt lat="42.80256" lon="-0.0343">
        <ele>1915.8</ele>
        <time>2023-10-31T09:31:02Z</time>
      </trkpt>
      <trkpt lat="42.80256" lon="-0.0343">
        <ele>1915.8</ele>
        <time>2023-10-31T09:31:03Z</time>
      </trkpt>
      <trkpt lat="42.80256" lon="-0.03429">
        <ele>1915.8</ele>
        <time>2023-10-31T09:31:04Z</time>
      </trkpt>
      <trkpt lat="42.80256" lon="-0.03429">
        <ele>1915.7</ele>
        <time>2023-10-31T09:31:05Z</time>
      </trkpt>
      <trkpt lat="42.80256" lon="-0.03429">
        <ele>1915.7</ele>
        <time>2023-10-31T09:31:06Z</time>
      </trkpt>
      <trkpt lat="42.80256" lon="-0.03429">
        <ele>1915.7</ele>
        <time>2023-10-31T09:31:07Z</time>
      </trkpt>
      <trkpt lat="42.80256" lon="-0.03429">
        <ele>1915.7</ele>
        <time>2023-10-31T09:31:08Z</time>
      </trkpt>
      <trkpt lat="42.80256" lon="-0.03429">
        <ele>1915.7</ele>
        <time>2023-10-31T09:31:09Z</time>
      </trkpt>
      <trkpt lat="42.80256" lon="-0.03429">
        <ele>1915.7</ele>
        <time>2023-10-31T09:31:10Z</time>
      </trkpt>
      <trkpt lat="42.80256" lon="-0.03429">
        <ele>1915.7</ele>
        <time>2023-10-31T09:31:11Z</time>
      </trkpt>
      <trkpt lat="42.80256" lon="-0.03429">
        <ele>1915.7</ele>
        <time>2023-10-31T09:31:12Z</time>
      </trkpt>
      <trkpt lat="42.80256" lon="-0.03429">
        <ele>1915.7</ele>
        <time>2023-10-31T09:31:13Z</time>
      </trkpt>
      <trkpt lat="42.80256" lon="-0.03429">
        <ele>1915.7</ele>
        <time>2023-10-31T09:31:14Z</time>
      </trkpt>
      <trkpt lat="42.80256" lon="-0.03429">
        <ele>1915.7</ele>
        <time>2023-10-31T09:31:15Z</time>
      </trkpt>
      <trkpt lat="42.80256" lon="-0.03429">
        <ele>1915.7</ele>
        <time>2023-10-31T09:31:16Z</time>
      </trkpt>
      <trkpt lat="42.80256" lon="-0.03429">
        <ele>1915.7</ele>
        <time>2023-10-31T09:31:17Z</time>
      </trkpt>
      <trkpt lat="42.80256" lon="-0.03429">
        <ele>1915.7</ele>
        <time>2023-10-31T09:31:18Z</time>
      </trkpt>
      <trkpt lat="42.80256" lon="-0.03429">
        <ele>1915.7</ele>
        <time>2023-10-31T09:31:19Z</time>
      </trkpt>
      <trkpt lat="42.80256" lon="-0.03429">
        <ele>1915.7</ele>
        <time>2023-10-31T09:31:20Z</time>
      </trkpt>
      <trkpt lat="42.80256" lon="-0.03429">
        <ele>1915.7</ele>
        <time>2023-10-31T09:31:21Z</time>
      </trkpt>
      <trkpt lat="42.80256" lon="-0.03429">
        <ele>1915.7</ele>
        <time>2023-10-31T09:31:22Z</time>
      </trkpt>
      <trkpt lat="42.80256" lon="-0.03427">
        <ele>1915.5</ele>
        <time>2023-10-31T09:31:23Z</time>
      </trkpt>
      <trkpt lat="42.80256" lon="-0.03427">
        <ele>1915.5</ele>
        <time>2023-10-31T09:31:24Z</time>
      </trkpt>
      <trkpt lat="42.80256" lon="-0.03427">
        <ele>1915.5</ele>
        <time>2023-10-31T09:31:25Z</time>
      </trkpt>
      <trkpt lat="42.80256" lon="-0.03427">
        <ele>1915.5</ele>
        <time>2023-10-31T09:31:26Z</time>
      </trkpt>
      <trkpt lat="42.80256" lon="-0.03428">
        <ele>1915.5</ele>
        <time>2023-10-31T09:31:27Z</time>
      </trkpt>
      <trkpt lat="42.80256" lon="-0.03428">
        <ele>1915.5</ele>
        <time>2023-10-31T09:31:28Z</time>
      </trkpt>
      <trkpt lat="42.80256" lon="-0.03428">
        <ele>1915.4</ele>
        <time>2023-10-31T09:31:29Z</time>
      </trkpt>
      <trkpt lat="42.80256" lon="-0.03428">
        <ele>1915.4</ele>
        <time>2023-10-31T09:31:30Z</time>
      </trkpt>
      <trkpt lat="42.80256" lon="-0.03427">
        <ele>1915.3</ele>
        <time>2023-10-31T09:31:31Z</time>
      </trkpt>
      <trkpt lat="42.80256" lon="-0.03428">
        <ele>1915.3</ele>
        <time>2023-10-31T09:31:32Z</time>
      </trkpt>
      <trkpt lat="42.80256" lon="-0.03428">
        <ele>1915.3</ele>
        <time>2023-10-31T09:31:33Z</time>
      </trkpt>
      <trkpt lat="42.80256" lon="-0.03428">
        <ele>1915.2</ele>
        <time>2023-10-31T09:31:34Z</time>
      </trkpt>
      <trkpt lat="42.80256" lon="-0.03428">
        <ele>1915.2</ele>
        <time>2023-10-31T09:31:35Z</time>
      </trkpt>
      <trkpt lat="42.80256" lon="-0.03428">
        <ele>1915.2</ele>
        <time>2023-10-31T09:31:36Z</time>
      </trkpt>
      <trkpt lat="42.80256" lon="-0.03428">
        <ele>1915.2</ele>
        <time>2023-10-31T09:31:37Z</time>
      </trkpt>
      <trkpt lat="42.80256" lon="-0.03428">
        <ele>1915.1</ele>
        <time>2023-10-31T09:31:38Z</time>
      </trkpt>
      <trkpt lat="42.80256" lon="-0.03428">
        <ele>1915.1</ele>
        <time>2023-10-31T09:31:39Z</time>
      </trkpt>
      <trkpt lat="42.80256" lon="-0.03428">
        <ele>1915.1</ele>
        <time>2023-10-31T09:31:40Z</time>
      </trkpt>
      <trkpt lat="42.80256" lon="-0.03428">
        <ele>1915.1</ele>
        <time>2023-10-31T09:31:41Z</time>
      </trkpt>
      <trkpt lat="42.80256" lon="-0.03428">
        <ele>1915.1</ele>
        <time>2023-10-31T09:31:42Z</time>
      </trkpt>
      <trkpt lat="42.80257" lon="-0.03429">
        <ele>1914.9</ele>
        <time>2023-10-31T09:31:43Z</time>
      </trkpt>
      <trkpt lat="42.80257" lon="-0.03429">
        <ele>1914.8</ele>
        <time>2023-10-31T09:31:44Z</time>
      </trkpt>
      <trkpt lat="42.80258" lon="-0.03429">
        <ele>1914.7</ele>
        <time>2023-10-31T09:31:45Z</time>
      </trkpt>
      <trkpt lat="42.80259" lon="-0.03429">
        <ele>1914.6</ele>
        <time>2023-10-31T09:31:46Z</time>
      </trkpt>
      <trkpt lat="42.8026" lon="-0.03428">
        <ele>1914.5</ele>
        <time>2023-10-31T09:31:47Z</time>
      </trkpt>
      <trkpt lat="42.80261" lon="-0.03427">
        <ele>1914.3</ele>
        <time>2023-10-31T09:31:48Z</time>
      </trkpt>
      <trkpt lat="42.80262" lon="-0.03427">
        <ele>1914.2</ele>
        <time>2023-10-31T09:31:49Z</time>
      </trkpt>
      <trkpt lat="42.80263" lon="-0.03427">
        <ele>1914.1</ele>
        <time>2023-10-31T09:31:50Z</time>
      </trkpt>
      <trkpt lat="42.80263" lon="-0.03427">
        <ele>1914</ele>
        <time>2023-10-31T09:31:51Z</time>
      </trkpt>
      <trkpt lat="42.80265" lon="-0.03427">
        <ele>1913.9</ele>
        <time>2023-10-31T09:31:52Z</time>
      </trkpt>
      <trkpt lat="42.80266" lon="-0.03426">
        <ele>1913.8</ele>
        <time>2023-10-31T09:31:53Z</time>
      </trkpt>
      <trkpt lat="42.80267" lon="-0.03427">
        <ele>1913.7</ele>
        <time>2023-10-31T09:31:54Z</time>
      </trkpt>
      <trkpt lat="42.80268" lon="-0.03427">
        <ele>1913.6</ele>
        <time>2023-10-31T09:31:55Z</time>
      </trkpt>
      <trkpt lat="42.80269" lon="-0.03427">
        <ele>1913.5</ele>
        <time>2023-10-31T09:31:56Z</time>
      </trkpt>
      <trkpt lat="42.80269" lon="-0.03428">
        <ele>1913.4</ele>
        <time>2023-10-31T09:31:57Z</time>
      </trkpt>
      <trkpt lat="42.8027" lon="-0.03427">
        <ele>1913.4</ele>
        <time>2023-10-31T09:31:58Z</time>
      </trkpt>
      <trkpt lat="42.8027" lon="-0.03427">
        <ele>1913.3</ele>
        <time>2023-10-31T09:31:59Z</time>
      </trkpt>
      <trkpt lat="42.80271" lon="-0.03427">
        <ele>1913.3</ele>
        <time>2023-10-31T09:32:00Z</time>
      </trkpt>
      <trkpt lat="42.80272" lon="-0.03427">
        <ele>1913.1</ele>
        <time>2023-10-31T09:32:01Z</time>
      </trkpt>
      <trkpt lat="42.80273" lon="-0.03427">
        <ele>1913</ele>
        <time>2023-10-31T09:32:02Z</time>
      </trkpt>
      <trkpt lat="42.80274" lon="-0.03426">
        <ele>1913</ele>
        <time>2023-10-31T09:32:03Z</time>
      </trkpt>
      <trkpt lat="42.80274" lon="-0.03425">
        <ele>1912.9</ele>
        <time>2023-10-31T09:32:04Z</time>
      </trkpt>
      <trkpt lat="42.80275" lon="-0.03424">
        <ele>1912.8</ele>
        <time>2023-10-31T09:32:05Z</time>
      </trkpt>
      <trkpt lat="42.80276" lon="-0.03424">
        <ele>1912.7</ele>
        <time>2023-10-31T09:32:06Z</time>
      </trkpt>
      <trkpt lat="42.80277" lon="-0.03424">
        <ele>1912.6</ele>
        <time>2023-10-31T09:32:07Z</time>
      </trkpt>
      <trkpt lat="42.80278" lon="-0.03424">
        <ele>1912.6</ele>
        <time>2023-10-31T09:32:08Z</time>
      </trkpt>
      <trkpt lat="42.80278" lon="-0.03424">
        <ele>1912.5</ele>
        <time>2023-10-31T09:32:09Z</time>
      </trkpt>
      <trkpt lat="42.80279" lon="-0.03424">
        <ele>1912.4</ele>
        <time>2023-10-31T09:32:10Z</time>
      </trkpt>
      <trkpt lat="42.8028" lon="-0.03424">
        <ele>1912.4</ele>
        <time>2023-10-31T09:32:11Z</time>
      </trkpt>
      <trkpt lat="42.80281" lon="-0.03424">
        <ele>1912.3</ele>
        <time>2023-10-31T09:32:12Z</time>
      </trkpt>
      <trkpt lat="42.80282" lon="-0.03424">
        <ele>1912.2</ele>
        <time>2023-10-31T09:32:13Z</time>
      </trkpt>
      <trkpt lat="42.80282" lon="-0.03424">
        <ele>1912.2</ele>
        <time>2023-10-31T09:32:14Z</time>
      </trkpt>
      <trkpt lat="42.80283" lon="-0.03423">
        <ele>1912.1</ele>
        <time>2023-10-31T09:32:15Z</time>
      </trkpt>
      <trkpt lat="42.80284" lon="-0.03422">
        <ele>1912</ele>
        <time>2023-10-31T09:32:16Z</time>
      </trkpt>
      <trkpt lat="42.80285" lon="-0.0342">
        <ele>1911.8</ele>
        <time>2023-10-31T09:32:17Z</time>
      </trkpt>
      <trkpt lat="42.80286" lon="-0.03419">
        <ele>1911.7</ele>
        <time>2023-10-31T09:32:18Z</time>
      </trkpt>
      <trkpt lat="42.80287" lon="-0.03418">
        <ele>1911.7</ele>
        <time>2023-10-31T09:32:19Z</time>
      </trkpt>
      <trkpt lat="42.80288" lon="-0.03418">
        <ele>1911.6</ele>
        <time>2023-10-31T09:32:20Z</time>
      </trkpt>
      <trkpt lat="42.8029" lon="-0.03417">
        <ele>1911.4</ele>
        <time>2023-10-31T09:32:21Z</time>
      </trkpt>
      <trkpt lat="42.80292" lon="-0.03417">
        <ele>1911.3</ele>
        <time>2023-10-31T09:32:22Z</time>
      </trkpt>
      <trkpt lat="42.80292" lon="-0.03416">
        <ele>1911.2</ele>
        <time>2023-10-31T09:32:23Z</time>
      </trkpt>
      <trkpt lat="42.80293" lon="-0.03416">
        <ele>1911.2</ele>
        <time>2023-10-31T09:32:24Z</time>
      </trkpt>
      <trkpt lat="42.80294" lon="-0.03416">
        <ele>1911.1</ele>
        <time>2023-10-31T09:32:25Z</time>
      </trkpt>
      <trkpt lat="42.80296" lon="-0.03416">
        <ele>1911</ele>
        <time>2023-10-31T09:32:26Z</time>
      </trkpt>
      <trkpt lat="42.80297" lon="-0.03416">
        <ele>1910.9</ele>
        <time>2023-10-31T09:32:27Z</time>
      </trkpt>
      <trkpt lat="42.80298" lon="-0.03416">
        <ele>1910.8</ele>
        <time>2023-10-31T09:32:28Z</time>
      </trkpt>
      <trkpt lat="42.80299" lon="-0.03415">
        <ele>1910.8</ele>
        <time>2023-10-31T09:32:29Z</time>
      </trkpt>
      <trkpt lat="42.803" lon="-0.03415">
        <ele>1910.7</ele>
        <time>2023-10-31T09:32:30Z</time>
      </trkpt>
      <trkpt lat="42.80301" lon="-0.03414">
        <ele>1910.7</ele>
        <time>2023-10-31T09:32:31Z</time>
      </trkpt>
      <trkpt lat="42.80302" lon="-0.03413">
        <ele>1910.6</ele>
        <time>2023-10-31T09:32:32Z</time>
      </trkpt>
      <trkpt lat="42.80303" lon="-0.03412">
        <ele>1910.5</ele>
        <time>2023-10-31T09:32:33Z</time>
      </trkpt>
      <trkpt lat="42.80304" lon="-0.0341">
        <ele>1910.5</ele>
        <time>2023-10-31T09:32:34Z</time>
      </trkpt>
      <trkpt lat="42.80305" lon="-0.0341">
        <ele>1910.4</ele>
        <time>2023-10-31T09:32:35Z</time>
      </trkpt>
      <trkpt lat="42.80306" lon="-0.03409">
        <ele>1910.4</ele>
        <time>2023-10-31T09:32:36Z</time>
      </trkpt>
      <trkpt lat="42.80306" lon="-0.03408">
        <ele>1910.3</ele>
        <time>2023-10-31T09:32:37Z</time>
      </trkpt>
      <trkpt lat="42.80307" lon="-0.03408">
        <ele>1910.3</ele>
        <time>2023-10-31T09:32:38Z</time>
      </trkpt>
      <trkpt lat="42.80309" lon="-0.03407">
        <ele>1910.3</ele>
        <time>2023-10-31T09:32:39Z</time>
      </trkpt>
      <trkpt lat="42.8031" lon="-0.03408">
        <ele>1910.2</ele>
        <time>2023-10-31T09:32:40Z</time>
      </trkpt>
      <trkpt lat="42.80312" lon="-0.03407">
        <ele>1910.2</ele>
        <time>2023-10-31T09:32:41Z</time>
      </trkpt>
      <trkpt lat="42.80312" lon="-0.03406">
        <ele>1910.2</ele>
        <time>2023-10-31T09:32:42Z</time>
      </trkpt>
      <trkpt lat="42.80313" lon="-0.03406">
        <ele>1910.1</ele>
        <time>2023-10-31T09:32:43Z</time>
      </trkpt>
      <trkpt lat="42.80315" lon="-0.03406">
        <ele>1910.1</ele>
        <time>2023-10-31T09:32:44Z</time>
      </trkpt>
      <trkpt lat="42.80316" lon="-0.03408">
        <ele>1910.1</ele>
        <time>2023-10-31T09:32:45Z</time>
      </trkpt>
      <trkpt lat="42.80317" lon="-0.03409">
        <ele>1910</ele>
        <time>2023-10-31T09:32:46Z</time>
      </trkpt>
      <trkpt lat="42.80318" lon="-0.03408">
        <ele>1910</ele>
        <time>2023-10-31T09:32:47Z</time>
      </trkpt>
      <trkpt lat="42.80319" lon="-0.03408">
        <ele>1910</ele>
        <time>2023-10-31T09:32:48Z</time>
      </trkpt>
      <trkpt lat="42.8032" lon="-0.03407">
        <ele>1910</ele>
        <time>2023-10-31T09:32:49Z</time>
      </trkpt>
      <trkpt lat="42.8032" lon="-0.03406">
        <ele>1909.9</ele>
        <time>2023-10-31T09:32:50Z</time>
      </trkpt>
      <trkpt lat="42.80322" lon="-0.03406">
        <ele>1909.9</ele>
        <time>2023-10-31T09:32:51Z</time>
      </trkpt>
      <trkpt lat="42.80324" lon="-0.03408">
        <ele>1909.8</ele>
        <time>2023-10-31T09:32:52Z</time>
      </trkpt>
      <trkpt lat="42.80324" lon="-0.03408">
        <ele>1909.8</ele>
        <time>2023-10-31T09:32:53Z</time>
      </trkpt>
      <trkpt lat="42.80325" lon="-0.03409">
        <ele>1909.8</ele>
        <time>2023-10-31T09:32:54Z</time>
      </trkpt>
      <trkpt lat="42.80326" lon="-0.03409">
        <ele>1909.8</ele>
        <time>2023-10-31T09:32:55Z</time>
      </trkpt>
      <trkpt lat="42.80327" lon="-0.03409">
        <ele>1909.8</ele>
        <time>2023-10-31T09:32:56Z</time>
      </trkpt>
      <trkpt lat="42.80328" lon="-0.03409">
        <ele>1909.7</ele>
        <time>2023-10-31T09:32:57Z</time>
      </trkpt>
      <trkpt lat="42.80329" lon="-0.03409">
        <ele>1909.7</ele>
        <time>2023-10-31T09:32:58Z</time>
      </trkpt>
      <trkpt lat="42.8033" lon="-0.03409">
        <ele>1909.7</ele>
        <time>2023-10-31T09:32:59Z</time>
      </trkpt>
      <trkpt lat="42.80331" lon="-0.03409">
        <ele>1909.7</ele>
        <time>2023-10-31T09:33:00Z</time>
      </trkpt>
      <trkpt lat="42.80331" lon="-0.03408">
        <ele>1909.6</ele>
        <time>2023-10-31T09:33:01Z</time>
      </trkpt>
      <trkpt lat="42.80332" lon="-0.03406">
        <ele>1909.6</ele>
        <time>2023-10-31T09:33:02Z</time>
      </trkpt>
      <trkpt lat="42.80332" lon="-0.03405">
        <ele>1909.6</ele>
        <time>2023-10-31T09:33:03Z</time>
      </trkpt>
      <trkpt lat="42.80332" lon="-0.03405">
        <ele>1909.5</ele>
        <time>2023-10-31T09:33:04Z</time>
      </trkpt>
      <trkpt lat="42.80333" lon="-0.03404">
        <ele>1909.5</ele>
        <time>2023-10-31T09:33:05Z</time>
      </trkpt>
      <trkpt lat="42.80333" lon="-0.03403">
        <ele>1909.5</ele>
        <time>2023-10-31T09:33:06Z</time>
      </trkpt>
      <trkpt lat="42.80334" lon="-0.03402">
        <ele>1909.5</ele>
        <time>2023-10-31T09:33:07Z</time>
      </trkpt>
      <trkpt lat="42.80334" lon="-0.03401">
        <ele>1909.4</ele>
        <time>2023-10-31T09:33:08Z</time>
      </trkpt>
      <trkpt lat="42.80335" lon="-0.034">
        <ele>1909.4</ele>
        <time>2023-10-31T09:33:10Z</time>
      </trkpt>
      <trkpt lat="42.80337" lon="-0.03399">
        <ele>1909.3</ele>
        <time>2023-10-31T09:33:11Z</time>
      </trkpt>
      <trkpt lat="42.80337" lon="-0.03398">
        <ele>1909.3</ele>
        <time>2023-10-31T09:33:12Z</time>
      </trkpt>
      <trkpt lat="42.80338" lon="-0.03397">
        <ele>1909.3</ele>
        <time>2023-10-31T09:33:13Z</time>
      </trkpt>
      <trkpt lat="42.80339" lon="-0.03396">
        <ele>1909.2</ele>
        <time>2023-10-31T09:33:14Z</time>
      </trkpt>
      <trkpt lat="42.80341" lon="-0.03395">
        <ele>1909.1</ele>
        <time>2023-10-31T09:33:15Z</time>
      </trkpt>
      <trkpt lat="42.80341" lon="-0.03394">
        <ele>1909.1</ele>
        <time>2023-10-31T09:33:16Z</time>
      </trkpt>
      <trkpt lat="42.80342" lon="-0.03393">
        <ele>1909</ele>
        <time>2023-10-31T09:33:17Z</time>
      </trkpt>
      <trkpt lat="42.80342" lon="-0.0339">
        <ele>1908.9</ele>
        <time>2023-10-31T09:33:18Z</time>
      </trkpt>
      <trkpt lat="42.80343" lon="-0.0339">
        <ele>1908.9</ele>
        <time>2023-10-31T09:33:19Z</time>
      </trkpt>
      <trkpt lat="42.80344" lon="-0.03389">
        <ele>1908.8</ele>
        <time>2023-10-31T09:33:20Z</time>
      </trkpt>
      <trkpt lat="42.80345" lon="-0.03386">
        <ele>1908.7</ele>
        <time>2023-10-31T09:33:21Z</time>
      </trkpt>
      <trkpt lat="42.80345" lon="-0.03385">
        <ele>1908.6</ele>
        <time>2023-10-31T09:33:22Z</time>
      </trkpt>
      <trkpt lat="42.80346" lon="-0.03384">
        <ele>1908.6</ele>
        <time>2023-10-31T09:33:23Z</time>
      </trkpt>
      <trkpt lat="42.80346" lon="-0.03383">
        <ele>1908.5</ele>
        <time>2023-10-31T09:33:24Z</time>
      </trkpt>
      <trkpt lat="42.80347" lon="-0.03381">
        <ele>1908.4</ele>
        <time>2023-10-31T09:33:25Z</time>
      </trkpt>
      <trkpt lat="42.80348" lon="-0.0338">
        <ele>1908.3</ele>
        <time>2023-10-31T09:33:26Z</time>
      </trkpt>
      <trkpt lat="42.80348" lon="-0.03379">
        <ele>1908.2</ele>
        <time>2023-10-31T09:33:27Z</time>
      </trkpt>
      <trkpt lat="42.80349" lon="-0.03378">
        <ele>1908.1</ele>
        <time>2023-10-31T09:33:28Z</time>
      </trkpt>
      <trkpt lat="42.8035" lon="-0.03376">
        <ele>1908</ele>
        <time>2023-10-31T09:33:29Z</time>
      </trkpt>
      <trkpt lat="42.80351" lon="-0.03375">
        <ele>1907.9</ele>
        <time>2023-10-31T09:33:30Z</time>
      </trkpt>
      <trkpt lat="42.80351" lon="-0.03374">
        <ele>1907.8</ele>
        <time>2023-10-31T09:33:31Z</time>
      </trkpt>
      <trkpt lat="42.80353" lon="-0.03371">
        <ele>1907.6</ele>
        <time>2023-10-31T09:33:32Z</time>
      </trkpt>
      <trkpt lat="42.80353" lon="-0.0337">
        <ele>1907.5</ele>
        <time>2023-10-31T09:33:33Z</time>
      </trkpt>
      <trkpt lat="42.80353" lon="-0.0337">
        <ele>1907.5</ele>
        <time>2023-10-31T09:33:34Z</time>
      </trkpt>
      <trkpt lat="42.80355" lon="-0.03369">
        <ele>1907.4</ele>
        <time>2023-10-31T09:33:35Z</time>
      </trkpt>
      <trkpt lat="42.80355" lon="-0.03368">
        <ele>1907.3</ele>
        <time>2023-10-31T09:33:36Z</time>
      </trkpt>
      <trkpt lat="42.80356" lon="-0.03368">
        <ele>1907.2</ele>
        <time>2023-10-31T09:33:37Z</time>
      </trkpt>
      <trkpt lat="42.80357" lon="-0.03367">
        <ele>1907.1</ele>
        <time>2023-10-31T09:33:38Z</time>
      </trkpt>
      <trkpt lat="42.80358" lon="-0.03366">
        <ele>1907</ele>
        <time>2023-10-31T09:33:39Z</time>
      </trkpt>
      <trkpt lat="42.80359" lon="-0.03365">
        <ele>1906.9</ele>
        <time>2023-10-31T09:33:40Z</time>
      </trkpt>
      <trkpt lat="42.8036" lon="-0.03363">
        <ele>1906.7</ele>
        <time>2023-10-31T09:33:41Z</time>
      </trkpt>
      <trkpt lat="42.80361" lon="-0.03362">
        <ele>1906.6</ele>
        <time>2023-10-31T09:33:42Z</time>
      </trkpt>
      <trkpt lat="42.80361" lon="-0.03361">
        <ele>1906.5</ele>
        <time>2023-10-31T09:33:43Z</time>
      </trkpt>
      <trkpt lat="42.80362" lon="-0.0336">
        <ele>1906.4</ele>
        <time>2023-10-31T09:33:44Z</time>
      </trkpt>
      <trkpt lat="42.80363" lon="-0.0336">
        <ele>1906.3</ele>
        <time>2023-10-31T09:33:45Z</time>
      </trkpt>
      <trkpt lat="42.80363" lon="-0.03359">
        <ele>1906.3</ele>
        <time>2023-10-31T09:33:46Z</time>
      </trkpt>
      <trkpt lat="42.80363" lon="-0.03359">
        <ele>1906.3</ele>
        <time>2023-10-31T09:33:47Z</time>
      </trkpt>
      <trkpt lat="42.80364" lon="-0.03359">
        <ele>1906.2</ele>
        <time>2023-10-31T09:33:48Z</time>
      </trkpt>
      <trkpt lat="42.80365" lon="-0.03357">
        <ele>1906</ele>
        <time>2023-10-31T09:33:49Z</time>
      </trkpt>
      <trkpt lat="42.80366" lon="-0.03356">
        <ele>1905.9</ele>
        <time>2023-10-31T09:33:50Z</time>
      </trkpt>
      <trkpt lat="42.80367" lon="-0.03354">
        <ele>1905.8</ele>
        <time>2023-10-31T09:33:51Z</time>
      </trkpt>
      <trkpt lat="42.80368" lon="-0.03353">
        <ele>1905.7</ele>
        <time>2023-10-31T09:33:52Z</time>
      </trkpt>
      <trkpt lat="42.80369" lon="-0.03352">
        <ele>1905.6</ele>
        <time>2023-10-31T09:33:53Z</time>
      </trkpt>
      <trkpt lat="42.80369" lon="-0.03351">
        <ele>1905.6</ele>
        <time>2023-10-31T09:33:54Z</time>
      </trkpt>
      <trkpt lat="42.8037" lon="-0.03349">
        <ele>1905.4</ele>
        <time>2023-10-31T09:33:55Z</time>
      </trkpt>
      <trkpt lat="42.80372" lon="-0.03347">
        <ele>1905.3</ele>
        <time>2023-10-31T09:33:56Z</time>
      </trkpt>
      <trkpt lat="42.80373" lon="-0.03346">
        <ele>1905.2</ele>
        <time>2023-10-31T09:33:57Z</time>
      </trkpt>
      <trkpt lat="42.80373" lon="-0.03345">
        <ele>1905.1</ele>
        <time>2023-10-31T09:33:58Z</time>
      </trkpt>
      <trkpt lat="42.80374" lon="-0.03344">
        <ele>1905.1</ele>
        <time>2023-10-31T09:33:59Z</time>
      </trkpt>
      <trkpt lat="42.80376" lon="-0.03344">
        <ele>1905</ele>
        <time>2023-10-31T09:34:00Z</time>
      </trkpt>
      <trkpt lat="42.80377" lon="-0.03342">
        <ele>1904.8</ele>
        <time>2023-10-31T09:34:01Z</time>
      </trkpt>
      <trkpt lat="42.80378" lon="-0.03341">
        <ele>1904.8</ele>
        <time>2023-10-31T09:34:02Z</time>
      </trkpt>
      <trkpt lat="42.80379" lon="-0.03341">
        <ele>1904.7</ele>
        <time>2023-10-31T09:34:03Z</time>
      </trkpt>
      <trkpt lat="42.80381" lon="-0.03339">
        <ele>1904.6</ele>
        <time>2023-10-31T09:34:04Z</time>
      </trkpt>
      <trkpt lat="42.80381" lon="-0.03339">
        <ele>1904.6</ele>
        <time>2023-10-31T09:34:05Z</time>
      </trkpt>
      <trkpt lat="42.80382" lon="-0.03338">
        <ele>1904.5</ele>
        <time>2023-10-31T09:34:06Z</time>
      </trkpt>
      <trkpt lat="42.80383" lon="-0.03337">
        <ele>1904.5</ele>
        <time>2023-10-31T09:34:07Z</time>
      </trkpt>
      <trkpt lat="42.80384" lon="-0.03337">
        <ele>1904.4</ele>
        <time>2023-10-31T09:34:08Z</time>
      </trkpt>
      <trkpt lat="42.80385" lon="-0.03336">
        <ele>1904.4</ele>
        <time>2023-10-31T09:34:09Z</time>
      </trkpt>
      <trkpt lat="42.80386" lon="-0.03335">
        <ele>1904.3</ele>
        <time>2023-10-31T09:34:10Z</time>
      </trkpt>
      <trkpt lat="42.80387" lon="-0.03334">
        <ele>1904.3</ele>
        <time>2023-10-31T09:34:11Z</time>
      </trkpt>
      <trkpt lat="42.80388" lon="-0.03334">
        <ele>1904.3</ele>
        <time>2023-10-31T09:34:12Z</time>
      </trkpt>
      <trkpt lat="42.80389" lon="-0.03335">
        <ele>1904.2</ele>
        <time>2023-10-31T09:34:13Z</time>
      </trkpt>
      <trkpt lat="42.8039" lon="-0.03335">
        <ele>1904.2</ele>
        <time>2023-10-31T09:34:14Z</time>
      </trkpt>
      <trkpt lat="42.80391" lon="-0.03334">
        <ele>1904.2</ele>
        <time>2023-10-31T09:34:15Z</time>
      </trkpt>
      <trkpt lat="42.80392" lon="-0.03333">
        <ele>1904.2</ele>
        <time>2023-10-31T09:34:16Z</time>
      </trkpt>
      <trkpt lat="42.80393" lon="-0.03332">
        <ele>1904.1</ele>
        <time>2023-10-31T09:34:17Z</time>
      </trkpt>
      <trkpt lat="42.80393" lon="-0.03332">
        <ele>1904.1</ele>
        <time>2023-10-31T09:34:18Z</time>
      </trkpt>
      <trkpt lat="42.80395" lon="-0.03331">
        <ele>1904.1</ele>
        <time>2023-10-31T09:34:19Z</time>
      </trkpt>
      <trkpt lat="42.80396" lon="-0.03331">
        <ele>1904.1</ele>
        <time>2023-10-31T09:34:20Z</time>
      </trkpt>
      <trkpt lat="42.80397" lon="-0.0333">
        <ele>1904.1</ele>
        <time>2023-10-31T09:34:21Z</time>
      </trkpt>
      <trkpt lat="42.80398" lon="-0.0333">
        <ele>1904.2</ele>
        <time>2023-10-31T09:34:22Z</time>
      </trkpt>
      <trkpt lat="42.804" lon="-0.0333">
        <ele>1904.2</ele>
        <time>2023-10-31T09:34:23Z</time>
      </trkpt>
      <trkpt lat="42.80402" lon="-0.0333">
        <ele>1904.3</ele>
        <time>2023-10-31T09:34:24Z</time>
      </trkpt>
      <trkpt lat="42.80403" lon="-0.0333">
        <ele>1904.3</ele>
        <time>2023-10-31T09:34:25Z</time>
      </trkpt>
      <trkpt lat="42.80404" lon="-0.0333">
        <ele>1904.3</ele>
        <time>2023-10-31T09:34:26Z</time>
      </trkpt>
      <trkpt lat="42.80406" lon="-0.03328">
        <ele>1904.4</ele>
        <time>2023-10-31T09:34:27Z</time>
      </trkpt>
      <trkpt lat="42.80406" lon="-0.03328">
        <ele>1904.5</ele>
        <time>2023-10-31T09:34:28Z</time>
      </trkpt>
      <trkpt lat="42.80407" lon="-0.03328">
        <ele>1904.5</ele>
        <time>2023-10-31T09:34:29Z</time>
      </trkpt>
      <trkpt lat="42.80409" lon="-0.03327">
        <ele>1904.7</ele>
        <time>2023-10-31T09:34:30Z</time>
      </trkpt>
      <trkpt lat="42.8041" lon="-0.03326">
        <ele>1904.7</ele>
        <time>2023-10-31T09:34:31Z</time>
      </trkpt>
      <trkpt lat="42.80411" lon="-0.03326">
        <ele>1904.8</ele>
        <time>2023-10-31T09:34:32Z</time>
      </trkpt>
      <trkpt lat="42.80413" lon="-0.03326">
        <ele>1905</ele>
        <time>2023-10-31T09:34:33Z</time>
      </trkpt>
      <trkpt lat="42.80414" lon="-0.03326">
        <ele>1905.1</ele>
        <time>2023-10-31T09:34:34Z</time>
      </trkpt>
      <trkpt lat="42.80415" lon="-0.03325">
        <ele>1905.1</ele>
        <time>2023-10-31T09:34:35Z</time>
      </trkpt>
      <trkpt lat="42.80417" lon="-0.03325">
        <ele>1905.3</ele>
        <time>2023-10-31T09:34:36Z</time>
      </trkpt>
      <trkpt lat="42.80418" lon="-0.03325">
        <ele>1905.4</ele>
        <time>2023-10-31T09:34:37Z</time>
      </trkpt>
      <trkpt lat="42.80419" lon="-0.03325">
        <ele>1905.5</ele>
        <time>2023-10-31T09:34:38Z</time>
      </trkpt>
      <trkpt lat="42.80419" lon="-0.03326">
        <ele>1905.6</ele>
        <time>2023-10-31T09:34:39Z</time>
      </trkpt>
      <trkpt lat="42.8042" lon="-0.03326">
        <ele>1905.7</ele>
        <time>2023-10-31T09:34:40Z</time>
      </trkpt>
      <trkpt lat="42.80421" lon="-0.03327">
        <ele>1905.8</ele>
        <time>2023-10-31T09:34:41Z</time>
      </trkpt>
      <trkpt lat="42.80422" lon="-0.03327">
        <ele>1905.9</ele>
        <time>2023-10-31T09:34:42Z</time>
      </trkpt>
      <trkpt lat="42.80423" lon="-0.03328">
        <ele>1906</ele>
        <time>2023-10-31T09:34:43Z</time>
      </trkpt>
      <trkpt lat="42.80424" lon="-0.03328">
        <ele>1906.1</ele>
        <time>2023-10-31T09:34:44Z</time>
      </trkpt>
      <trkpt lat="42.80425" lon="-0.03328">
        <ele>1906.3</ele>
        <time>2023-10-31T09:34:45Z</time>
      </trkpt>
      <trkpt lat="42.80426" lon="-0.03328">
        <ele>1906.4</ele>
        <time>2023-10-31T09:34:46Z</time>
      </trkpt>
      <trkpt lat="42.80427" lon="-0.03328">
        <ele>1906.6</ele>
        <time>2023-10-31T09:34:47Z</time>
      </trkpt>
      <trkpt lat="42.80428" lon="-0.03329">
        <ele>1906.7</ele>
        <time>2023-10-31T09:34:48Z</time>
      </trkpt>
      <trkpt lat="42.80428" lon="-0.03329">
        <ele>1906.8</ele>
        <time>2023-10-31T09:34:49Z</time>
      </trkpt>
      <trkpt lat="42.80429" lon="-0.0333">
        <ele>1906.9</ele>
        <time>2023-10-31T09:34:50Z</time>
      </trkpt>
      <trkpt lat="42.8043" lon="-0.03331">
        <ele>1907</ele>
        <time>2023-10-31T09:34:51Z</time>
      </trkpt>
      <trkpt lat="42.80429" lon="-0.03332">
        <ele>1907.1</ele>
        <time>2023-10-31T09:34:52Z</time>
      </trkpt>
      <trkpt lat="42.8043" lon="-0.03332">
        <ele>1907.3</ele>
        <time>2023-10-31T09:34:53Z</time>
      </trkpt>
      <trkpt lat="42.80432" lon="-0.03332">
        <ele>1907.5</ele>
        <time>2023-10-31T09:34:54Z</time>
      </trkpt>
      <trkpt lat="42.80433" lon="-0.03333">
        <ele>1907.7</ele>
        <time>2023-10-31T09:34:55Z</time>
      </trkpt>
      <trkpt lat="42.80433" lon="-0.03333">
        <ele>1907.8</ele>
        <time>2023-10-31T09:34:56Z</time>
      </trkpt>
      <trkpt lat="42.80434" lon="-0.03334">
        <ele>1907.9</ele>
        <time>2023-10-31T09:34:57Z</time>
      </trkpt>
      <trkpt lat="42.80434" lon="-0.03334">
        <ele>1908</ele>
        <time>2023-10-31T09:34:58Z</time>
      </trkpt>
      <trkpt lat="42.80435" lon="-0.03335">
        <ele>1908.1</ele>
        <time>2023-10-31T09:34:59Z</time>
      </trkpt>
      <trkpt lat="42.80435" lon="-0.03335">
        <ele>1908.2</ele>
        <time>2023-10-31T09:35:00Z</time>
      </trkpt>
      <trkpt lat="42.80436" lon="-0.03336">
        <ele>1908.4</ele>
        <time>2023-10-31T09:35:01Z</time>
      </trkpt>
      <trkpt lat="42.80436" lon="-0.03337">
        <ele>1908.5</ele>
        <time>2023-10-31T09:35:02Z</time>
      </trkpt>
      <trkpt lat="42.80437" lon="-0.03337">
        <ele>1908.6</ele>
        <time>2023-10-31T09:35:03Z</time>
      </trkpt>
      <trkpt lat="42.80438" lon="-0.03337">
        <ele>1908.7</ele>
        <time>2023-10-31T09:35:04Z</time>
      </trkpt>
      <trkpt lat="42.80439" lon="-0.03337">
        <ele>1908.9</ele>
        <time>2023-10-31T09:35:05Z</time>
      </trkpt>
      <trkpt lat="42.80439" lon="-0.03337">
        <ele>1909</ele>
        <time>2023-10-31T09:35:06Z</time>
      </trkpt>
      <trkpt lat="42.8044" lon="-0.03337">
        <ele>1909.2</ele>
        <time>2023-10-31T09:35:07Z</time>
      </trkpt>
      <trkpt lat="42.80441" lon="-0.03337">
        <ele>1909.3</ele>
        <time>2023-10-31T09:35:08Z</time>
      </trkpt>
      <trkpt lat="42.80442" lon="-0.03337">
        <ele>1909.5</ele>
        <time>2023-10-31T09:35:09Z</time>
      </trkpt>
      <trkpt lat="42.80442" lon="-0.03337">
        <ele>1909.6</ele>
        <time>2023-10-31T09:35:10Z</time>
      </trkpt>
      <trkpt lat="42.80443" lon="-0.03338">
        <ele>1909.7</ele>
        <time>2023-10-31T09:35:11Z</time>
      </trkpt>
      <trkpt lat="42.80444" lon="-0.03338">
        <ele>1909.9</ele>
        <time>2023-10-31T09:35:12Z</time>
      </trkpt>
      <trkpt lat="42.80445" lon="-0.03338">
        <ele>1910</ele>
        <time>2023-10-31T09:35:13Z</time>
      </trkpt>
      <trkpt lat="42.80445" lon="-0.03338">
        <ele>1910.1</ele>
        <time>2023-10-31T09:35:14Z</time>
      </trkpt>
      <trkpt lat="42.80446" lon="-0.03338">
        <ele>1910.2</ele>
        <time>2023-10-31T09:35:15Z</time>
      </trkpt>
      <trkpt lat="42.80445" lon="-0.03338">
        <ele>1910.2</ele>
        <time>2023-10-31T09:35:16Z</time>
      </trkpt>
      <trkpt lat="42.80445" lon="-0.03338">
        <ele>1910.3</ele>
        <time>2023-10-31T09:35:17Z</time>
      </trkpt>
      <trkpt lat="42.80446" lon="-0.03338">
        <ele>1910.6</ele>
        <time>2023-10-31T09:35:18Z</time>
      </trkpt>
      <trkpt lat="42.80446" lon="-0.03337">
        <ele>1910.8</ele>
        <time>2023-10-31T09:35:19Z</time>
      </trkpt>
      <trkpt lat="42.80447" lon="-0.03336">
        <ele>1910.9</ele>
        <time>2023-10-31T09:35:20Z</time>
      </trkpt>
      <trkpt lat="42.80448" lon="-0.03336">
        <ele>1911.1</ele>
        <time>2023-10-31T09:35:21Z</time>
      </trkpt>
      <trkpt lat="42.80449" lon="-0.03335">
        <ele>1911.2</ele>
        <time>2023-10-31T09:35:22Z</time>
      </trkpt>
      <trkpt lat="42.80449" lon="-0.03335">
        <ele>1911.3</ele>
        <time>2023-10-31T09:35:23Z</time>
      </trkpt>
      <trkpt lat="42.8045" lon="-0.03336">
        <ele>1911.5</ele>
        <time>2023-10-31T09:35:24Z</time>
      </trkpt>
      <trkpt lat="42.80451" lon="-0.03336">
        <ele>1911.6</ele>
        <time>2023-10-31T09:35:25Z</time>
      </trkpt>
      <trkpt lat="42.80452" lon="-0.03336">
        <ele>1911.7</ele>
        <time>2023-10-31T09:35:26Z</time>
      </trkpt>
      <trkpt lat="42.80452" lon="-0.03336">
        <ele>1911.8</ele>
        <time>2023-10-31T09:35:27Z</time>
      </trkpt>
      <trkpt lat="42.80452" lon="-0.03336">
        <ele>1911.9</ele>
        <time>2023-10-31T09:35:28Z</time>
      </trkpt>
      <trkpt lat="42.80453" lon="-0.03335">
        <ele>1912</ele>
        <time>2023-10-31T09:35:29Z</time>
      </trkpt>
      <trkpt lat="42.80454" lon="-0.03334">
        <ele>1912.2</ele>
        <time>2023-10-31T09:35:30Z</time>
      </trkpt>
      <trkpt lat="42.80455" lon="-0.03334">
        <ele>1912.3</ele>
        <time>2023-10-31T09:35:31Z</time>
      </trkpt>
      <trkpt lat="42.80455" lon="-0.03335">
        <ele>1912.4</ele>
        <time>2023-10-31T09:35:32Z</time>
      </trkpt>
      <trkpt lat="42.80455" lon="-0.03336">
        <ele>1912.5</ele>
        <time>2023-10-31T09:35:33Z</time>
      </trkpt>
      <trkpt lat="42.80456" lon="-0.03336">
        <ele>1912.6</ele>
        <time>2023-10-31T09:35:34Z</time>
      </trkpt>
      <trkpt lat="42.80457" lon="-0.03335">
        <ele>1912.7</ele>
        <time>2023-10-31T09:35:35Z</time>
      </trkpt>
      <trkpt lat="42.80458" lon="-0.03334">
        <ele>1913</ele>
        <time>2023-10-31T09:35:36Z</time>
      </trkpt>
      <trkpt lat="42.80459" lon="-0.03333">
        <ele>1913</ele>
        <time>2023-10-31T09:35:37Z</time>
      </trkpt>
      <trkpt lat="42.80459" lon="-0.03333">
        <ele>1913.1</ele>
        <time>2023-10-31T09:35:38Z</time>
      </trkpt>
      <trkpt lat="42.8046" lon="-0.03333">
        <ele>1913.2</ele>
        <time>2023-10-31T09:35:39Z</time>
      </trkpt>
      <trkpt lat="42.8046" lon="-0.03332">
        <ele>1913.3</ele>
        <time>2023-10-31T09:35:40Z</time>
      </trkpt>
      <trkpt lat="42.8046" lon="-0.0333">
        <ele>1913.5</ele>
        <time>2023-10-31T09:35:41Z</time>
      </trkpt>
      <trkpt lat="42.80461" lon="-0.03329">
        <ele>1913.6</ele>
        <time>2023-10-31T09:35:42Z</time>
      </trkpt>
      <trkpt lat="42.80462" lon="-0.03329">
        <ele>1913.7</ele>
        <time>2023-10-31T09:35:43Z</time>
      </trkpt>
      <trkpt lat="42.80462" lon="-0.03328">
        <ele>1913.8</ele>
        <time>2023-10-31T09:35:44Z</time>
      </trkpt>
      <trkpt lat="42.80463" lon="-0.03329">
        <ele>1913.9</ele>
        <time>2023-10-31T09:35:45Z</time>
      </trkpt>
      <trkpt lat="42.80464" lon="-0.03327">
        <ele>1914.1</ele>
        <time>2023-10-31T09:35:46Z</time>
      </trkpt>
      <trkpt lat="42.80465" lon="-0.03326">
        <ele>1914.2</ele>
        <time>2023-10-31T09:35:47Z</time>
      </trkpt>
      <trkpt lat="42.80465" lon="-0.03325">
        <ele>1914.4</ele>
        <time>2023-10-31T09:35:48Z</time>
      </trkpt>
      <trkpt lat="42.80466" lon="-0.03324">
        <ele>1914.5</ele>
        <time>2023-10-31T09:35:49Z</time>
      </trkpt>
      <trkpt lat="42.80467" lon="-0.03323">
        <ele>1914.6</ele>
        <time>2023-10-31T09:35:50Z</time>
      </trkpt>
      <trkpt lat="42.80467" lon="-0.03323">
        <ele>1914.7</ele>
        <time>2023-10-31T09:35:51Z</time>
      </trkpt>
      <trkpt lat="42.80468" lon="-0.03322">
        <ele>1914.8</ele>
        <time>2023-10-31T09:35:52Z</time>
      </trkpt>
      <trkpt lat="42.80469" lon="-0.03322">
        <ele>1914.9</ele>
        <time>2023-10-31T09:35:53Z</time>
      </trkpt>
      <trkpt lat="42.8047" lon="-0.03321">
        <ele>1915</ele>
        <time>2023-10-31T09:35:54Z</time>
      </trkpt>
      <trkpt lat="42.8047" lon="-0.03322">
        <ele>1915.1</ele>
        <time>2023-10-31T09:35:55Z</time>
      </trkpt>
      <trkpt lat="42.80471" lon="-0.03322">
        <ele>1915.2</ele>
        <time>2023-10-31T09:35:56Z</time>
      </trkpt>
      <trkpt lat="42.80471" lon="-0.03322">
        <ele>1915.2</ele>
        <time>2023-10-31T09:35:57Z</time>
      </trkpt>
      <trkpt lat="42.80472" lon="-0.03322">
        <ele>1915.3</ele>
        <time>2023-10-31T09:35:58Z</time>
      </trkpt>
      <trkpt lat="42.80472" lon="-0.03322">
        <ele>1915.4</ele>
        <time>2023-10-31T09:35:59Z</time>
      </trkpt>
      <trkpt lat="42.80474" lon="-0.03321">
        <ele>1915.6</ele>
        <time>2023-10-31T09:36:00Z</time>
      </trkpt>
      <trkpt lat="42.80474" lon="-0.03321">
        <ele>1915.7</ele>
        <time>2023-10-31T09:36:01Z</time>
      </trkpt>
      <trkpt lat="42.80475" lon="-0.0332">
        <ele>1915.8</ele>
        <time>2023-10-31T09:36:02Z</time>
      </trkpt>
      <trkpt lat="42.80476" lon="-0.03319">
        <ele>1915.9</ele>
        <time>2023-10-31T09:36:03Z</time>
      </trkpt>
      <trkpt lat="42.80477" lon="-0.03318">
        <ele>1916.1</ele>
        <time>2023-10-31T09:36:04Z</time>
      </trkpt>
      <trkpt lat="42.80478" lon="-0.03318">
        <ele>1916.3</ele>
        <time>2023-10-31T09:36:05Z</time>
      </trkpt>
      <trkpt lat="42.80479" lon="-0.03318">
        <ele>1916.4</ele>
        <time>2023-10-31T09:36:06Z</time>
      </trkpt>
      <trkpt lat="42.8048" lon="-0.03318">
        <ele>1916.5</ele>
        <time>2023-10-31T09:36:07Z</time>
      </trkpt>
      <trkpt lat="42.8048" lon="-0.03318">
        <ele>1916.6</ele>
        <time>2023-10-31T09:36:08Z</time>
      </trkpt>
      <trkpt lat="42.80481" lon="-0.03317">
        <ele>1916.8</ele>
        <time>2023-10-31T09:36:09Z</time>
      </trkpt>
      <trkpt lat="42.80482" lon="-0.03317">
        <ele>1917</ele>
        <time>2023-10-31T09:36:10Z</time>
      </trkpt>
      <trkpt lat="42.80483" lon="-0.03317">
        <ele>1917.1</ele>
        <time>2023-10-31T09:36:11Z</time>
      </trkpt>
      <trkpt lat="42.80484" lon="-0.03317">
        <ele>1917.2</ele>
        <time>2023-10-31T09:36:12Z</time>
      </trkpt>
      <trkpt lat="42.80485" lon="-0.03317">
        <ele>1917.3</ele>
        <time>2023-10-31T09:36:13Z</time>
      </trkpt>
      <trkpt lat="42.80485" lon="-0.03318">
        <ele>1917.4</ele>
        <time>2023-10-31T09:36:14Z</time>
      </trkpt>
      <trkpt lat="42.80486" lon="-0.03319">
        <ele>1917.6</ele>
        <time>2023-10-31T09:36:15Z</time>
      </trkpt>
      <trkpt lat="42.80486" lon="-0.0332">
        <ele>1917.7</ele>
        <time>2023-10-31T09:36:16Z</time>
      </trkpt>
      <trkpt lat="42.80487" lon="-0.0332">
        <ele>1917.8</ele>
        <time>2023-10-31T09:36:17Z</time>
      </trkpt>
      <trkpt lat="42.80487" lon="-0.03321">
        <ele>1917.9</ele>
        <time>2023-10-31T09:36:18Z</time>
      </trkpt>
      <trkpt lat="42.80488" lon="-0.03321">
        <ele>1918.1</ele>
        <time>2023-10-31T09:36:19Z</time>
      </trkpt>
      <trkpt lat="42.80489" lon="-0.0332">
        <ele>1918.3</ele>
        <time>2023-10-31T09:36:20Z</time>
      </trkpt>
      <trkpt lat="42.8049" lon="-0.03321">
        <ele>1918.5</ele>
        <time>2023-10-31T09:36:21Z</time>
      </trkpt>
      <trkpt lat="42.80491" lon="-0.03321">
        <ele>1918.6</ele>
        <time>2023-10-31T09:36:22Z</time>
      </trkpt>
      <trkpt lat="42.80492" lon="-0.03321">
        <ele>1918.7</ele>
        <time>2023-10-31T09:36:23Z</time>
      </trkpt>
      <trkpt lat="42.80492" lon="-0.03321">
        <ele>1918.8</ele>
        <time>2023-10-31T09:36:24Z</time>
      </trkpt>
      <trkpt lat="42.80493" lon="-0.03322">
        <ele>1918.9</ele>
        <time>2023-10-31T09:36:25Z</time>
      </trkpt>
      <trkpt lat="42.80492" lon="-0.03322">
        <ele>1919</ele>
        <time>2023-10-31T09:36:26Z</time>
      </trkpt>
      <trkpt lat="42.80492" lon="-0.03323">
        <ele>1919.1</ele>
        <time>2023-10-31T09:36:27Z</time>
      </trkpt>
      <trkpt lat="42.80492" lon="-0.03324">
        <ele>1919.2</ele>
        <time>2023-10-31T09:36:28Z</time>
      </trkpt>
      <trkpt lat="42.80492" lon="-0.03325">
        <ele>1919.3</ele>
        <time>2023-10-31T09:36:29Z</time>
      </trkpt>
      <trkpt lat="42.80492" lon="-0.03325">
        <ele>1919.4</ele>
        <time>2023-10-31T09:36:30Z</time>
      </trkpt>
      <trkpt lat="42.80492" lon="-0.03326">
        <ele>1919.5</ele>
        <time>2023-10-31T09:36:31Z</time>
      </trkpt>
      <trkpt lat="42.80493" lon="-0.03326">
        <ele>1919.6</ele>
        <time>2023-10-31T09:36:32Z</time>
      </trkpt>
      <trkpt lat="42.80494" lon="-0.03326">
        <ele>1919.7</ele>
        <time>2023-10-31T09:36:33Z</time>
      </trkpt>
      <trkpt lat="42.80494" lon="-0.03326">
        <ele>1919.7</ele>
        <time>2023-10-31T09:36:34Z</time>
      </trkpt>
      <trkpt lat="42.80494" lon="-0.03326">
        <ele>1919.8</ele>
        <time>2023-10-31T09:36:35Z</time>
      </trkpt>
      <trkpt lat="42.80494" lon="-0.03326">
        <ele>1919.8</ele>
        <time>2023-10-31T09:36:36Z</time>
      </trkpt>
      <trkpt lat="42.80495" lon="-0.03326">
        <ele>1919.9</ele>
        <time>2023-10-31T09:36:37Z</time>
      </trkpt>
      <trkpt lat="42.80495" lon="-0.03326">
        <ele>1920</ele>
        <time>2023-10-31T09:36:38Z</time>
      </trkpt>
      <trkpt lat="42.80496" lon="-0.03326">
        <ele>1920.1</ele>
        <time>2023-10-31T09:36:39Z</time>
      </trkpt>
      <trkpt lat="42.80496" lon="-0.03327">
        <ele>1920.2</ele>
        <time>2023-10-31T09:36:40Z</time>
      </trkpt>
      <trkpt lat="42.80497" lon="-0.03328">
        <ele>1920.4</ele>
        <time>2023-10-31T09:36:41Z</time>
      </trkpt>
      <trkpt lat="42.80497" lon="-0.03328">
        <ele>1920.5</ele>
        <time>2023-10-31T09:36:42Z</time>
      </trkpt>
      <trkpt lat="42.80498" lon="-0.03328">
        <ele>1920.5</ele>
        <time>2023-10-31T09:36:43Z</time>
      </trkpt>
      <trkpt lat="42.80498" lon="-0.03328">
        <ele>1920.7</ele>
        <time>2023-10-31T09:36:44Z</time>
      </trkpt>
      <trkpt lat="42.80499" lon="-0.03329">
        <ele>1920.8</ele>
        <time>2023-10-31T09:36:45Z</time>
      </trkpt>
      <trkpt lat="42.805" lon="-0.03329">
        <ele>1920.9</ele>
        <time>2023-10-31T09:36:46Z</time>
      </trkpt>
      <trkpt lat="42.805" lon="-0.03329">
        <ele>1921</ele>
        <time>2023-10-31T09:36:47Z</time>
      </trkpt>
      <trkpt lat="42.80501" lon="-0.03329">
        <ele>1921.2</ele>
        <time>2023-10-31T09:36:48Z</time>
      </trkpt>
      <trkpt lat="42.80502" lon="-0.03329">
        <ele>1921.3</ele>
        <time>2023-10-31T09:36:49Z</time>
      </trkpt>
      <trkpt lat="42.80503" lon="-0.03329">
        <ele>1921.4</ele>
        <time>2023-10-31T09:36:50Z</time>
      </trkpt>
      <trkpt lat="42.80503" lon="-0.03329">
        <ele>1921.5</ele>
        <time>2023-10-31T09:36:51Z</time>
      </trkpt>
      <trkpt lat="42.80504" lon="-0.0333">
        <ele>1921.6</ele>
        <time>2023-10-31T09:36:52Z</time>
      </trkpt>
      <trkpt lat="42.80504" lon="-0.0333">
        <ele>1921.7</ele>
        <time>2023-10-31T09:36:53Z</time>
      </trkpt>
      <trkpt lat="42.80505" lon="-0.03329">
        <ele>1921.8</ele>
        <time>2023-10-31T09:36:54Z</time>
      </trkpt>
      <trkpt lat="42.80505" lon="-0.0333">
        <ele>1921.9</ele>
        <time>2023-10-31T09:36:55Z</time>
      </trkpt>
      <trkpt lat="42.80506" lon="-0.0333">
        <ele>1922</ele>
        <time>2023-10-31T09:36:56Z</time>
      </trkpt>
      <trkpt lat="42.80506" lon="-0.03331">
        <ele>1922.2</ele>
        <time>2023-10-31T09:36:57Z</time>
      </trkpt>
      <trkpt lat="42.80506" lon="-0.03331">
        <ele>1922.3</ele>
        <time>2023-10-31T09:36:58Z</time>
      </trkpt>
      <trkpt lat="42.80507" lon="-0.03332">
        <ele>1922.3</ele>
        <time>2023-10-31T09:36:59Z</time>
      </trkpt>
      <trkpt lat="42.80507" lon="-0.03331">
        <ele>1922.4</ele>
        <time>2023-10-31T09:37:00Z</time>
      </trkpt>
      <trkpt lat="42.80507" lon="-0.03331">
        <ele>1922.5</ele>
        <time>2023-10-31T09:37:01Z</time>
      </trkpt>
      <trkpt lat="42.80508" lon="-0.03331">
        <ele>1922.6</ele>
        <time>2023-10-31T09:37:02Z</time>
      </trkpt>
      <trkpt lat="42.80509" lon="-0.0333">
        <ele>1922.7</ele>
        <time>2023-10-31T09:37:03Z</time>
      </trkpt>
      <trkpt lat="42.8051" lon="-0.0333">
        <ele>1922.9</ele>
        <time>2023-10-31T09:37:04Z</time>
      </trkpt>
      <trkpt lat="42.80511" lon="-0.03331">
        <ele>1923.1</ele>
        <time>2023-10-31T09:37:05Z</time>
      </trkpt>
      <trkpt lat="42.80512" lon="-0.03331">
        <ele>1923.3</ele>
        <time>2023-10-31T09:37:06Z</time>
      </trkpt>
      <trkpt lat="42.80512" lon="-0.03332">
        <ele>1923.5</ele>
        <time>2023-10-31T09:37:07Z</time>
      </trkpt>
      <trkpt lat="42.80513" lon="-0.03332">
        <ele>1923.7</ele>
        <time>2023-10-31T09:37:08Z</time>
      </trkpt>
      <trkpt lat="42.80514" lon="-0.03331">
        <ele>1923.8</ele>
        <time>2023-10-31T09:37:09Z</time>
      </trkpt>
      <trkpt lat="42.80515" lon="-0.03332">
        <ele>1924</ele>
        <time>2023-10-31T09:37:10Z</time>
      </trkpt>
      <trkpt lat="42.80516" lon="-0.03332">
        <ele>1924.1</ele>
        <time>2023-10-31T09:37:11Z</time>
      </trkpt>
      <trkpt lat="42.80517" lon="-0.03333">
        <ele>1924.3</ele>
        <time>2023-10-31T09:37:12Z</time>
      </trkpt>
      <trkpt lat="42.80518" lon="-0.03334">
        <ele>1924.4</ele>
        <time>2023-10-31T09:37:13Z</time>
      </trkpt>
      <trkpt lat="42.80519" lon="-0.03334">
        <ele>1924.6</ele>
        <time>2023-10-31T09:37:14Z</time>
      </trkpt>
      <trkpt lat="42.80519" lon="-0.03334">
        <ele>1924.7</ele>
        <time>2023-10-31T09:37:15Z</time>
      </trkpt>
      <trkpt lat="42.8052" lon="-0.03335">
        <ele>1924.9</ele>
        <time>2023-10-31T09:37:16Z</time>
      </trkpt>
      <trkpt lat="42.80521" lon="-0.03335">
        <ele>1925</ele>
        <time>2023-10-31T09:37:17Z</time>
      </trkpt>
      <trkpt lat="42.80522" lon="-0.03336">
        <ele>1925.2</ele>
        <time>2023-10-31T09:37:18Z</time>
      </trkpt>
      <trkpt lat="42.80522" lon="-0.03337">
        <ele>1925.3</ele>
        <time>2023-10-31T09:37:19Z</time>
      </trkpt>
      <trkpt lat="42.80523" lon="-0.03337">
        <ele>1925.5</ele>
        <time>2023-10-31T09:37:20Z</time>
      </trkpt>
      <trkpt lat="42.80524" lon="-0.03337">
        <ele>1925.6</ele>
        <time>2023-10-31T09:37:22Z</time>
      </trkpt>
      <trkpt lat="42.80525" lon="-0.03337">
        <ele>1925.7</ele>
        <time>2023-10-31T09:37:23Z</time>
      </trkpt>
      <trkpt lat="42.80526" lon="-0.03337">
        <ele>1925.8</ele>
        <time>2023-10-31T09:37:24Z</time>
      </trkpt>
      <trkpt lat="42.80526" lon="-0.03337">
        <ele>1925.9</ele>
        <time>2023-10-31T09:37:25Z</time>
      </trkpt>
      <trkpt lat="42.80526" lon="-0.03336">
        <ele>1926</ele>
        <time>2023-10-31T09:37:26Z</time>
      </trkpt>
      <trkpt lat="42.80527" lon="-0.03337">
        <ele>1926.1</ele>
        <time>2023-10-31T09:37:27Z</time>
      </trkpt>
      <trkpt lat="42.80527" lon="-0.03338">
        <ele>1926.2</ele>
        <time>2023-10-31T09:37:28Z</time>
      </trkpt>
      <trkpt lat="42.80528" lon="-0.03338">
        <ele>1926.4</ele>
        <time>2023-10-31T09:37:29Z</time>
      </trkpt>
      <trkpt lat="42.80528" lon="-0.03338">
        <ele>1926.4</ele>
        <time>2023-10-31T09:37:30Z</time>
      </trkpt>
      <trkpt lat="42.80528" lon="-0.03339">
        <ele>1926.5</ele>
        <time>2023-10-31T09:37:31Z</time>
      </trkpt>
      <trkpt lat="42.80528" lon="-0.0334">
        <ele>1926.7</ele>
        <time>2023-10-31T09:37:32Z</time>
      </trkpt>
      <trkpt lat="42.80528" lon="-0.0334">
        <ele>1926.7</ele>
        <time>2023-10-31T09:37:34Z</time>
      </trkpt>
      <trkpt lat="42.80529" lon="-0.03341">
        <ele>1926.8</ele>
        <time>2023-10-31T09:37:35Z</time>
      </trkpt>
      <trkpt lat="42.80529" lon="-0.03339">
        <ele>1927</ele>
        <time>2023-10-31T09:37:36Z</time>
      </trkpt>
      <trkpt lat="42.80529" lon="-0.03339">
        <ele>1927</ele>
        <time>2023-10-31T09:37:37Z</time>
      </trkpt>
      <trkpt lat="42.8053" lon="-0.03338">
        <ele>1927.1</ele>
        <time>2023-10-31T09:37:38Z</time>
      </trkpt>
      <trkpt lat="42.8053" lon="-0.03337">
        <ele>1927.2</ele>
        <time>2023-10-31T09:37:39Z</time>
      </trkpt>
      <trkpt lat="42.8053" lon="-0.03337">
        <ele>1927.3</ele>
        <time>2023-10-31T09:37:40Z</time>
      </trkpt>
      <trkpt lat="42.80531" lon="-0.03337">
        <ele>1927.4</ele>
        <time>2023-10-31T09:37:41Z</time>
      </trkpt>
      <trkpt lat="42.80532" lon="-0.03337">
        <ele>1927.6</ele>
        <time>2023-10-31T09:37:42Z</time>
      </trkpt>
      <trkpt lat="42.80533" lon="-0.03337">
        <ele>1927.7</ele>
        <time>2023-10-31T09:37:43Z</time>
      </trkpt>
      <trkpt lat="42.80534" lon="-0.03336">
        <ele>1927.9</ele>
        <time>2023-10-31T09:37:44Z</time>
      </trkpt>
      <trkpt lat="42.80534" lon="-0.03335">
        <ele>1928.1</ele>
        <time>2023-10-31T09:37:45Z</time>
      </trkpt>
      <trkpt lat="42.80535" lon="-0.03334">
        <ele>1928.2</ele>
        <time>2023-10-31T09:37:46Z</time>
      </trkpt>
      <trkpt lat="42.80535" lon="-0.03335">
        <ele>1928.4</ele>
        <time>2023-10-31T09:37:47Z</time>
      </trkpt>
      <trkpt lat="42.80536" lon="-0.03335">
        <ele>1928.5</ele>
        <time>2023-10-31T09:37:48Z</time>
      </trkpt>
      <trkpt lat="42.80537" lon="-0.03335">
        <ele>1928.7</ele>
        <time>2023-10-31T09:37:49Z</time>
      </trkpt>
      <trkpt lat="42.80538" lon="-0.03335">
        <ele>1928.8</ele>
        <time>2023-10-31T09:37:50Z</time>
      </trkpt>
      <trkpt lat="42.80538" lon="-0.03335">
        <ele>1928.9</ele>
        <time>2023-10-31T09:37:51Z</time>
      </trkpt>
      <trkpt lat="42.80539" lon="-0.03335">
        <ele>1929</ele>
        <time>2023-10-31T09:37:52Z</time>
      </trkpt>
      <trkpt lat="42.80538" lon="-0.03336">
        <ele>1929.2</ele>
        <time>2023-10-31T09:37:53Z</time>
      </trkpt>
      <trkpt lat="42.80538" lon="-0.03336">
        <ele>1929.2</ele>
        <time>2023-10-31T09:37:54Z</time>
      </trkpt>
      <trkpt lat="42.80539" lon="-0.03336">
        <ele>1929.4</ele>
        <time>2023-10-31T09:37:55Z</time>
      </trkpt>
      <trkpt lat="42.80539" lon="-0.03336">
        <ele>1929.5</ele>
        <time>2023-10-31T09:37:56Z</time>
      </trkpt>
      <trkpt lat="42.8054" lon="-0.03336">
        <ele>1929.6</ele>
        <time>2023-10-31T09:37:57Z</time>
      </trkpt>
      <trkpt lat="42.80541" lon="-0.03336">
        <ele>1929.8</ele>
        <time>2023-10-31T09:37:58Z</time>
      </trkpt>
      <trkpt lat="42.80541" lon="-0.03336">
        <ele>1929.9</ele>
        <time>2023-10-31T09:37:59Z</time>
      </trkpt>
      <trkpt lat="42.80541" lon="-0.03335">
        <ele>1930</ele>
        <time>2023-10-31T09:38:00Z</time>
      </trkpt>
      <trkpt lat="42.80542" lon="-0.03335">
        <ele>1930.2</ele>
        <time>2023-10-31T09:38:01Z</time>
      </trkpt>
      <trkpt lat="42.80543" lon="-0.03334">
        <ele>1930.4</ele>
        <time>2023-10-31T09:38:02Z</time>
      </trkpt>
      <trkpt lat="42.80543" lon="-0.03333">
        <ele>1930.5</ele>
        <time>2023-10-31T09:38:03Z</time>
      </trkpt>
      <trkpt lat="42.80543" lon="-0.03333">
        <ele>1930.6</ele>
        <time>2023-10-31T09:38:04Z</time>
      </trkpt>
      <trkpt lat="42.80544" lon="-0.03331">
        <ele>1930.9</ele>
        <time>2023-10-31T09:38:05Z</time>
      </trkpt>
      <trkpt lat="42.80544" lon="-0.0333">
        <ele>1931.2</ele>
        <time>2023-10-31T09:38:06Z</time>
      </trkpt>
      <trkpt lat="42.80545" lon="-0.0333">
        <ele>1931.3</ele>
        <time>2023-10-31T09:38:07Z</time>
      </trkpt>
      <trkpt lat="42.80546" lon="-0.0333">
        <ele>1931.4</ele>
        <time>2023-10-31T09:38:08Z</time>
      </trkpt>
      <trkpt lat="42.80546" lon="-0.03329">
        <ele>1931.6</ele>
        <time>2023-10-31T09:38:09Z</time>
      </trkpt>
      <trkpt lat="42.80547" lon="-0.03328">
        <ele>1931.8</ele>
        <time>2023-10-31T09:38:10Z</time>
      </trkpt>
      <trkpt lat="42.80548" lon="-0.03328">
        <ele>1932</ele>
        <time>2023-10-31T09:38:11Z</time>
      </trkpt>
      <trkpt lat="42.80548" lon="-0.03329">
        <ele>1932.2</ele>
        <time>2023-10-31T09:38:12Z</time>
      </trkpt>
      <trkpt lat="42.80549" lon="-0.03329">
        <ele>1932.4</ele>
        <time>2023-10-31T09:38:13Z</time>
      </trkpt>
      <trkpt lat="42.80549" lon="-0.0333">
        <ele>1932.5</ele>
        <time>2023-10-31T09:38:14Z</time>
      </trkpt>
      <trkpt lat="42.80549" lon="-0.03331">
        <ele>1932.7</ele>
        <time>2023-10-31T09:38:15Z</time>
      </trkpt>
      <trkpt lat="42.80549" lon="-0.03332">
        <ele>1932.9</ele>
        <time>2023-10-31T09:38:16Z</time>
      </trkpt>
      <trkpt lat="42.80549" lon="-0.03333">
        <ele>1933</ele>
        <time>2023-10-31T09:38:17Z</time>
      </trkpt>
      <trkpt lat="42.80549" lon="-0.03333">
        <ele>1933.1</ele>
        <time>2023-10-31T09:38:18Z</time>
      </trkpt>
      <trkpt lat="42.80549" lon="-0.03334">
        <ele>1933.3</ele>
        <time>2023-10-31T09:38:19Z</time>
      </trkpt>
      <trkpt lat="42.80549" lon="-0.03335">
        <ele>1933.4</ele>
        <time>2023-10-31T09:38:20Z</time>
      </trkpt>
      <trkpt lat="42.80549" lon="-0.03335">
        <ele>1933.5</ele>
        <time>2023-10-31T09:38:21Z</time>
      </trkpt>
      <trkpt lat="42.80549" lon="-0.03336">
        <ele>1933.7</ele>
        <time>2023-10-31T09:38:22Z</time>
      </trkpt>
      <trkpt lat="42.80548" lon="-0.03337">
        <ele>1934</ele>
        <time>2023-10-31T09:38:23Z</time>
      </trkpt>
      <trkpt lat="42.80548" lon="-0.03337">
        <ele>1934.1</ele>
        <time>2023-10-31T09:38:24Z</time>
      </trkpt>
      <trkpt lat="42.80547" lon="-0.03338">
        <ele>1934.2</ele>
        <time>2023-10-31T09:38:25Z</time>
      </trkpt>
      <trkpt lat="42.80546" lon="-0.03339">
        <ele>1934.5</ele>
        <time>2023-10-31T09:38:26Z</time>
      </trkpt>
      <trkpt lat="42.80547" lon="-0.03339">
        <ele>1934.7</ele>
        <time>2023-10-31T09:38:27Z</time>
      </trkpt>
      <trkpt lat="42.80547" lon="-0.03341">
        <ele>1934.9</ele>
        <time>2023-10-31T09:38:28Z</time>
      </trkpt>
      <trkpt lat="42.80547" lon="-0.03341">
        <ele>1935</ele>
        <time>2023-10-31T09:38:29Z</time>
      </trkpt>
      <trkpt lat="42.80548" lon="-0.03341">
        <ele>1935.3</ele>
        <time>2023-10-31T09:38:30Z</time>
      </trkpt>
      <trkpt lat="42.80549" lon="-0.03341">
        <ele>1935.6</ele>
        <time>2023-10-31T09:38:31Z</time>
      </trkpt>
      <trkpt lat="42.80549" lon="-0.03341">
        <ele>1935.7</ele>
        <time>2023-10-31T09:38:32Z</time>
      </trkpt>
      <trkpt lat="42.80549" lon="-0.03342">
        <ele>1935.9</ele>
        <time>2023-10-31T09:38:33Z</time>
      </trkpt>
      <trkpt lat="42.8055" lon="-0.03343">
        <ele>1936.2</ele>
        <time>2023-10-31T09:38:34Z</time>
      </trkpt>
      <trkpt lat="42.8055" lon="-0.03344">
        <ele>1936.4</ele>
        <time>2023-10-31T09:38:35Z</time>
      </trkpt>
      <trkpt lat="42.80549" lon="-0.03344">
        <ele>1936.6</ele>
        <time>2023-10-31T09:38:36Z</time>
      </trkpt>
      <trkpt lat="42.80548" lon="-0.03345">
        <ele>1936.9</ele>
        <time>2023-10-31T09:38:37Z</time>
      </trkpt>
      <trkpt lat="42.80548" lon="-0.03345">
        <ele>1937</ele>
        <time>2023-10-31T09:38:38Z</time>
      </trkpt>
      <trkpt lat="42.80547" lon="-0.03346">
        <ele>1937.3</ele>
        <time>2023-10-31T09:38:39Z</time>
      </trkpt>
      <trkpt lat="42.80546" lon="-0.03346">
        <ele>1937.5</ele>
        <time>2023-10-31T09:38:40Z</time>
      </trkpt>
      <trkpt lat="42.80546" lon="-0.03347">
        <ele>1937.8</ele>
        <time>2023-10-31T09:38:41Z</time>
      </trkpt>
      <trkpt lat="42.80545" lon="-0.03348">
        <ele>1938</ele>
        <time>2023-10-31T09:38:42Z</time>
      </trkpt>
      <trkpt lat="42.80544" lon="-0.03348">
        <ele>1938.3</ele>
        <time>2023-10-31T09:38:43Z</time>
      </trkpt>
      <trkpt lat="42.80543" lon="-0.03348">
        <ele>1938.5</ele>
        <time>2023-10-31T09:38:44Z</time>
      </trkpt>
      <trkpt lat="42.80543" lon="-0.03349">
        <ele>1938.7</ele>
        <time>2023-10-31T09:38:45Z</time>
      </trkpt>
      <trkpt lat="42.80542" lon="-0.0335">
        <ele>1939.1</ele>
        <time>2023-10-31T09:38:46Z</time>
      </trkpt>
      <trkpt lat="42.80542" lon="-0.03352">
        <ele>1939.4</ele>
        <time>2023-10-31T09:38:47Z</time>
      </trkpt>
      <trkpt lat="42.80542" lon="-0.03353">
        <ele>1939.6</ele>
        <time>2023-10-31T09:38:48Z</time>
      </trkpt>
      <trkpt lat="42.80542" lon="-0.03353">
        <ele>1939.7</ele>
        <time>2023-10-31T09:38:49Z</time>
      </trkpt>
      <trkpt lat="42.80543" lon="-0.03353">
        <ele>1939.7</ele>
        <time>2023-10-31T09:38:50Z</time>
      </trkpt>
      <trkpt lat="42.80543" lon="-0.03354">
        <ele>1940</ele>
        <time>2023-10-31T09:38:51Z</time>
      </trkpt>
      <trkpt lat="42.80543" lon="-0.03355">
        <ele>1940.1</ele>
        <time>2023-10-31T09:38:52Z</time>
      </trkpt>
      <trkpt lat="42.80543" lon="-0.03355">
        <ele>1940.3</ele>
        <time>2023-10-31T09:38:53Z</time>
      </trkpt>
      <trkpt lat="42.80543" lon="-0.03356">
        <ele>1940.4</ele>
        <time>2023-10-31T09:38:54Z</time>
      </trkpt>
      <trkpt lat="42.80543" lon="-0.03356">
        <ele>1940.5</ele>
        <time>2023-10-31T09:38:55Z</time>
      </trkpt>
      <trkpt lat="42.80543" lon="-0.03356">
        <ele>1940.5</ele>
        <time>2023-10-31T09:38:56Z</time>
      </trkpt>
      <trkpt lat="42.80543" lon="-0.03357">
        <ele>1940.7</ele>
        <time>2023-10-31T09:38:57Z</time>
      </trkpt>
      <trkpt lat="42.80544" lon="-0.03358">
        <ele>1941</ele>
        <time>2023-10-31T09:38:58Z</time>
      </trkpt>
      <trkpt lat="42.80544" lon="-0.03358">
        <ele>1941.1</ele>
        <time>2023-10-31T09:38:59Z</time>
      </trkpt>
      <trkpt lat="42.80544" lon="-0.03359">
        <ele>1941.3</ele>
        <time>2023-10-31T09:39:00Z</time>
      </trkpt>
      <trkpt lat="42.80544" lon="-0.03359">
        <ele>1941.4</ele>
        <time>2023-10-31T09:39:01Z</time>
      </trkpt>
      <trkpt lat="42.80544" lon="-0.0336">
        <ele>1941.6</ele>
        <time>2023-10-31T09:39:02Z</time>
      </trkpt>
      <trkpt lat="42.80544" lon="-0.0336">
        <ele>1941.7</ele>
        <time>2023-10-31T09:39:03Z</time>
      </trkpt>
      <trkpt lat="42.80544" lon="-0.0336">
        <ele>1941.7</ele>
        <time>2023-10-31T09:39:04Z</time>
      </trkpt>
      <trkpt lat="42.80545" lon="-0.0336">
        <ele>1941.8</ele>
        <time>2023-10-31T09:39:05Z</time>
      </trkpt>
      <trkpt lat="42.80545" lon="-0.0336">
        <ele>1942</ele>
        <time>2023-10-31T09:39:06Z</time>
      </trkpt>
      <trkpt lat="42.80546" lon="-0.03361">
        <ele>1942.3</ele>
        <time>2023-10-31T09:39:07Z</time>
      </trkpt>
      <trkpt lat="42.80546" lon="-0.0336">
        <ele>1942.5</ele>
        <time>2023-10-31T09:39:08Z</time>
      </trkpt>
      <trkpt lat="42.80547" lon="-0.03361">
        <ele>1942.7</ele>
        <time>2023-10-31T09:39:09Z</time>
      </trkpt>
      <trkpt lat="42.80547" lon="-0.03361">
        <ele>1942.7</ele>
        <time>2023-10-31T09:39:10Z</time>
      </trkpt>
      <trkpt lat="42.80548" lon="-0.03361">
        <ele>1942.9</ele>
        <time>2023-10-31T09:39:11Z</time>
      </trkpt>
      <trkpt lat="42.80548" lon="-0.03362">
        <ele>1943.1</ele>
        <time>2023-10-31T09:39:12Z</time>
      </trkpt>
      <trkpt lat="42.80548" lon="-0.03363">
        <ele>1943.2</ele>
        <time>2023-10-31T09:39:13Z</time>
      </trkpt>
      <trkpt lat="42.80548" lon="-0.03364">
        <ele>1943.4</ele>
        <time>2023-10-31T09:39:14Z</time>
      </trkpt>
      <trkpt lat="42.80548" lon="-0.03364">
        <ele>1943.5</ele>
        <time>2023-10-31T09:39:15Z</time>
      </trkpt>
      <trkpt lat="42.80548" lon="-0.03365">
        <ele>1943.6</ele>
        <time>2023-10-31T09:39:16Z</time>
      </trkpt>
      <trkpt lat="42.80549" lon="-0.03365">
        <ele>1943.7</ele>
        <time>2023-10-31T09:39:17Z</time>
      </trkpt>
      <trkpt lat="42.80549" lon="-0.03366">
        <ele>1943.9</ele>
        <time>2023-10-31T09:39:18Z</time>
      </trkpt>
      <trkpt lat="42.8055" lon="-0.03366">
        <ele>1944</ele>
        <time>2023-10-31T09:39:19Z</time>
      </trkpt>
      <trkpt lat="42.8055" lon="-0.03367">
        <ele>1944.2</ele>
        <time>2023-10-31T09:39:20Z</time>
      </trkpt>
      <trkpt lat="42.8055" lon="-0.03368">
        <ele>1944.4</ele>
        <time>2023-10-31T09:39:21Z</time>
      </trkpt>
      <trkpt lat="42.8055" lon="-0.03369">
        <ele>1944.5</ele>
        <time>2023-10-31T09:39:22Z</time>
      </trkpt>
      <trkpt lat="42.80551" lon="-0.03369">
        <ele>1944.6</ele>
        <time>2023-10-31T09:39:23Z</time>
      </trkpt>
      <trkpt lat="42.80551" lon="-0.03369">
        <ele>1944.7</ele>
        <time>2023-10-31T09:39:24Z</time>
      </trkpt>
      <trkpt lat="42.80551" lon="-0.0337">
        <ele>1944.8</ele>
        <time>2023-10-31T09:39:25Z</time>
      </trkpt>
      <trkpt lat="42.8055" lon="-0.03371">
        <ele>1944.9</ele>
        <time>2023-10-31T09:39:26Z</time>
      </trkpt>
      <trkpt lat="42.8055" lon="-0.03371">
        <ele>1945</ele>
        <time>2023-10-31T09:39:27Z</time>
      </trkpt>
      <trkpt lat="42.8055" lon="-0.03371">
        <ele>1945.1</ele>
        <time>2023-10-31T09:39:28Z</time>
      </trkpt>
      <trkpt lat="42.80549" lon="-0.03372">
        <ele>1945.1</ele>
        <time>2023-10-31T09:39:29Z</time>
      </trkpt>
      <trkpt lat="42.80549" lon="-0.03372">
        <ele>1945.2</ele>
        <time>2023-10-31T09:39:30Z</time>
      </trkpt>
      <trkpt lat="42.80549" lon="-0.03372">
        <ele>1945.3</ele>
        <time>2023-10-31T09:39:31Z</time>
      </trkpt>
      <trkpt lat="42.80549" lon="-0.03373">
        <ele>1945.4</ele>
        <time>2023-10-31T09:39:32Z</time>
      </trkpt>
      <trkpt lat="42.80549" lon="-0.03374">
        <ele>1945.5</ele>
        <time>2023-10-31T09:39:33Z</time>
      </trkpt>
      <trkpt lat="42.80549" lon="-0.03374">
        <ele>1945.6</ele>
        <time>2023-10-31T09:39:34Z</time>
      </trkpt>
      <trkpt lat="42.80549" lon="-0.03375">
        <ele>1945.7</ele>
        <time>2023-10-31T09:39:35Z</time>
      </trkpt>
      <trkpt lat="42.80549" lon="-0.03376">
        <ele>1945.8</ele>
        <time>2023-10-31T09:39:36Z</time>
      </trkpt>
      <trkpt lat="42.8055" lon="-0.03376">
        <ele>1945.8</ele>
        <time>2023-10-31T09:39:37Z</time>
      </trkpt>
      <trkpt lat="42.8055" lon="-0.03377">
        <ele>1945.9</ele>
        <time>2023-10-31T09:39:38Z</time>
      </trkpt>
      <trkpt lat="42.8055" lon="-0.03378">
        <ele>1946</ele>
        <time>2023-10-31T09:39:39Z</time>
      </trkpt>
      <trkpt lat="42.8055" lon="-0.03378">
        <ele>1946.1</ele>
        <time>2023-10-31T09:39:40Z</time>
      </trkpt>
      <trkpt lat="42.8055" lon="-0.03379">
        <ele>1946.2</ele>
        <time>2023-10-31T09:39:41Z</time>
      </trkpt>
      <trkpt lat="42.80551" lon="-0.03379">
        <ele>1946.2</ele>
        <time>2023-10-31T09:39:42Z</time>
      </trkpt>
      <trkpt lat="42.80551" lon="-0.03379">
        <ele>1946.3</ele>
        <time>2023-10-31T09:39:43Z</time>
      </trkpt>
      <trkpt lat="42.80551" lon="-0.0338">
        <ele>1946.4</ele>
        <time>2023-10-31T09:39:44Z</time>
      </trkpt>
      <trkpt lat="42.80552" lon="-0.0338">
        <ele>1946.4</ele>
        <time>2023-10-31T09:39:45Z</time>
      </trkpt>
      <trkpt lat="42.80551" lon="-0.0338">
        <ele>1946.5</ele>
        <time>2023-10-31T09:39:46Z</time>
      </trkpt>
      <trkpt lat="42.80552" lon="-0.03382">
        <ele>1946.6</ele>
        <time>2023-10-31T09:39:47Z</time>
      </trkpt>
      <trkpt lat="42.80552" lon="-0.03381">
        <ele>1946.6</ele>
        <time>2023-10-31T09:39:48Z</time>
      </trkpt>
      <trkpt lat="42.80552" lon="-0.03382">
        <ele>1946.7</ele>
        <time>2023-10-31T09:39:49Z</time>
      </trkpt>
      <trkpt lat="42.80553" lon="-0.03383">
        <ele>1946.8</ele>
        <time>2023-10-31T09:39:50Z</time>
      </trkpt>
      <trkpt lat="42.80553" lon="-0.03383">
        <ele>1946.9</ele>
        <time>2023-10-31T09:39:51Z</time>
      </trkpt>
      <trkpt lat="42.80553" lon="-0.03383">
        <ele>1946.9</ele>
        <time>2023-10-31T09:39:52Z</time>
      </trkpt>
      <trkpt lat="42.80554" lon="-0.03384">
        <ele>1947</ele>
        <time>2023-10-31T09:39:53Z</time>
      </trkpt>
      <trkpt lat="42.80555" lon="-0.03384">
        <ele>1947.1</ele>
        <time>2023-10-31T09:39:54Z</time>
      </trkpt>
      <trkpt lat="42.80555" lon="-0.03385">
        <ele>1947.2</ele>
        <time>2023-10-31T09:39:55Z</time>
      </trkpt>
      <trkpt lat="42.80555" lon="-0.03385">
        <ele>1947.3</ele>
        <time>2023-10-31T09:39:56Z</time>
      </trkpt>
      <trkpt lat="42.80556" lon="-0.03385">
        <ele>1947.4</ele>
        <time>2023-10-31T09:39:57Z</time>
      </trkpt>
      <trkpt lat="42.80556" lon="-0.03385">
        <ele>1947.5</ele>
        <time>2023-10-31T09:39:58Z</time>
      </trkpt>
      <trkpt lat="42.80556" lon="-0.03385">
        <ele>1947.5</ele>
        <time>2023-10-31T09:39:59Z</time>
      </trkpt>
      <trkpt lat="42.80557" lon="-0.03385">
        <ele>1947.6</ele>
        <time>2023-10-31T09:40:00Z</time>
      </trkpt>
      <trkpt lat="42.80558" lon="-0.03386">
        <ele>1947.8</ele>
        <time>2023-10-31T09:40:01Z</time>
      </trkpt>
      <trkpt lat="42.80558" lon="-0.03386">
        <ele>1947.9</ele>
        <time>2023-10-31T09:40:02Z</time>
      </trkpt>
      <trkpt lat="42.80559" lon="-0.03387">
        <ele>1948</ele>
        <time>2023-10-31T09:40:03Z</time>
      </trkpt>
      <trkpt lat="42.8056" lon="-0.03386">
        <ele>1948.1</ele>
        <time>2023-10-31T09:40:04Z</time>
      </trkpt>
      <trkpt lat="42.80561" lon="-0.03385">
        <ele>1948.3</ele>
        <time>2023-10-31T09:40:05Z</time>
      </trkpt>
      <trkpt lat="42.80562" lon="-0.03385">
        <ele>1948.5</ele>
        <time>2023-10-31T09:40:06Z</time>
      </trkpt>
      <trkpt lat="42.80563" lon="-0.03386">
        <ele>1948.6</ele>
        <time>2023-10-31T09:40:07Z</time>
      </trkpt>
      <trkpt lat="42.80563" lon="-0.03386">
        <ele>1948.7</ele>
        <time>2023-10-31T09:40:08Z</time>
      </trkpt>
      <trkpt lat="42.80564" lon="-0.03386">
        <ele>1948.8</ele>
        <time>2023-10-31T09:40:09Z</time>
      </trkpt>
      <trkpt lat="42.80564" lon="-0.03387">
        <ele>1948.9</ele>
        <time>2023-10-31T09:40:10Z</time>
      </trkpt>
      <trkpt lat="42.80564" lon="-0.03388">
        <ele>1949</ele>
        <time>2023-10-31T09:40:11Z</time>
      </trkpt>
      <trkpt lat="42.80564" lon="-0.03389">
        <ele>1949.1</ele>
        <time>2023-10-31T09:40:12Z</time>
      </trkpt>
      <trkpt lat="42.80564" lon="-0.0339">
        <ele>1949.2</ele>
        <time>2023-10-31T09:40:13Z</time>
      </trkpt>
      <trkpt lat="42.80565" lon="-0.03391">
        <ele>1949.4</ele>
        <time>2023-10-31T09:40:14Z</time>
      </trkpt>
      <trkpt lat="42.80565" lon="-0.03392">
        <ele>1949.5</ele>
        <time>2023-10-31T09:40:15Z</time>
      </trkpt>
      <trkpt lat="42.80566" lon="-0.03392">
        <ele>1949.6</ele>
        <time>2023-10-31T09:40:16Z</time>
      </trkpt>
      <trkpt lat="42.80566" lon="-0.03393">
        <ele>1949.7</ele>
        <time>2023-10-31T09:40:17Z</time>
      </trkpt>
      <trkpt lat="42.80566" lon="-0.03393">
        <ele>1949.8</ele>
        <time>2023-10-31T09:40:18Z</time>
      </trkpt>
      <trkpt lat="42.80567" lon="-0.03394">
        <ele>1949.9</ele>
        <time>2023-10-31T09:40:19Z</time>
      </trkpt>
      <trkpt lat="42.80567" lon="-0.03394">
        <ele>1950</ele>
        <time>2023-10-31T09:40:20Z</time>
      </trkpt>
      <trkpt lat="42.80567" lon="-0.03394">
        <ele>1950</ele>
        <time>2023-10-31T09:40:21Z</time>
      </trkpt>
      <trkpt lat="42.80566" lon="-0.03394">
        <ele>1950</ele>
        <time>2023-10-31T09:40:22Z</time>
      </trkpt>
      <trkpt lat="42.80567" lon="-0.03394">
        <ele>1950.1</ele>
        <time>2023-10-31T09:40:23Z</time>
      </trkpt>
      <trkpt lat="42.80567" lon="-0.03394">
        <ele>1950.1</ele>
        <time>2023-10-31T09:40:24Z</time>
      </trkpt>
      <trkpt lat="42.80567" lon="-0.03395">
        <ele>1950.2</ele>
        <time>2023-10-31T09:40:25Z</time>
      </trkpt>
      <trkpt lat="42.80567" lon="-0.03396">
        <ele>1950.3</ele>
        <time>2023-10-31T09:40:26Z</time>
      </trkpt>
      <trkpt lat="42.80567" lon="-0.03396">
        <ele>1950.4</ele>
        <time>2023-10-31T09:40:27Z</time>
      </trkpt>
      <trkpt lat="42.80567" lon="-0.03397">
        <ele>1950.6</ele>
        <time>2023-10-31T09:40:28Z</time>
      </trkpt>
      <trkpt lat="42.80567" lon="-0.03399">
        <ele>1950.7</ele>
        <time>2023-10-31T09:40:29Z</time>
      </trkpt>
      <trkpt lat="42.80567" lon="-0.034">
        <ele>1950.9</ele>
        <time>2023-10-31T09:40:30Z</time>
      </trkpt>
      <trkpt lat="42.80567" lon="-0.034">
        <ele>1951</ele>
        <time>2023-10-31T09:40:31Z</time>
      </trkpt>
      <trkpt lat="42.80566" lon="-0.034">
        <ele>1951.1</ele>
        <time>2023-10-31T09:40:32Z</time>
      </trkpt>
      <trkpt lat="42.80566" lon="-0.03401">
        <ele>1951.2</ele>
        <time>2023-10-31T09:40:33Z</time>
      </trkpt>
      <trkpt lat="42.80566" lon="-0.03402">
        <ele>1951.3</ele>
        <time>2023-10-31T09:40:34Z</time>
      </trkpt>
      <trkpt lat="42.80565" lon="-0.03403">
        <ele>1951.5</ele>
        <time>2023-10-31T09:40:35Z</time>
      </trkpt>
      <trkpt lat="42.80565" lon="-0.03404">
        <ele>1951.6</ele>
        <time>2023-10-31T09:40:36Z</time>
      </trkpt>
      <trkpt lat="42.80566" lon="-0.03404">
        <ele>1951.7</ele>
        <time>2023-10-31T09:40:37Z</time>
      </trkpt>
      <trkpt lat="42.80567" lon="-0.03404">
        <ele>1951.8</ele>
        <time>2023-10-31T09:40:38Z</time>
      </trkpt>
      <trkpt lat="42.80567" lon="-0.03405">
        <ele>1951.9</ele>
        <time>2023-10-31T09:40:39Z</time>
      </trkpt>
      <trkpt lat="42.80567" lon="-0.03406">
        <ele>1951.9</ele>
        <time>2023-10-31T09:40:40Z</time>
      </trkpt>
      <trkpt lat="42.80567" lon="-0.03407">
        <ele>1952</ele>
        <time>2023-10-31T09:40:41Z</time>
      </trkpt>
      <trkpt lat="42.80567" lon="-0.03408">
        <ele>1952.1</ele>
        <time>2023-10-31T09:40:42Z</time>
      </trkpt>
      <trkpt lat="42.80568" lon="-0.03408">
        <ele>1952.1</ele>
        <time>2023-10-31T09:40:43Z</time>
      </trkpt>
      <trkpt lat="42.80568" lon="-0.03408">
        <ele>1952.2</ele>
        <time>2023-10-31T09:40:44Z</time>
      </trkpt>
      <trkpt lat="42.80568" lon="-0.03409">
        <ele>1952.2</ele>
        <time>2023-10-31T09:40:45Z</time>
      </trkpt>
      <trkpt lat="42.80568" lon="-0.0341">
        <ele>1952.3</ele>
        <time>2023-10-31T09:40:46Z</time>
      </trkpt>
      <trkpt lat="42.80568" lon="-0.0341">
        <ele>1952.3</ele>
        <time>2023-10-31T09:40:47Z</time>
      </trkpt>
      <trkpt lat="42.80567" lon="-0.03411">
        <ele>1952.4</ele>
        <time>2023-10-31T09:40:48Z</time>
      </trkpt>
      <trkpt lat="42.80567" lon="-0.03412">
        <ele>1952.5</ele>
        <time>2023-10-31T09:40:49Z</time>
      </trkpt>
      <trkpt lat="42.80567" lon="-0.03412">
        <ele>1952.5</ele>
        <time>2023-10-31T09:40:50Z</time>
      </trkpt>
      <trkpt lat="42.80567" lon="-0.03413">
        <ele>1952.6</ele>
        <time>2023-10-31T09:40:51Z</time>
      </trkpt>
      <trkpt lat="42.80567" lon="-0.03415">
        <ele>1952.8</ele>
        <time>2023-10-31T09:40:52Z</time>
      </trkpt>
      <trkpt lat="42.80567" lon="-0.03416">
        <ele>1952.9</ele>
        <time>2023-10-31T09:40:53Z</time>
      </trkpt>
      <trkpt lat="42.80567" lon="-0.03417">
        <ele>1952.9</ele>
        <time>2023-10-31T09:40:54Z</time>
      </trkpt>
      <trkpt lat="42.80568" lon="-0.0342">
        <ele>1953.2</ele>
        <time>2023-10-31T09:40:55Z</time>
      </trkpt>
      <trkpt lat="42.80569" lon="-0.03421">
        <ele>1953.3</ele>
        <time>2023-10-31T09:40:56Z</time>
      </trkpt>
      <trkpt lat="42.80569" lon="-0.03422">
        <ele>1953.4</ele>
        <time>2023-10-31T09:40:57Z</time>
      </trkpt>
      <trkpt lat="42.80568" lon="-0.03424">
        <ele>1953.4</ele>
        <time>2023-10-31T09:40:58Z</time>
      </trkpt>
      <trkpt lat="42.80568" lon="-0.03425">
        <ele>1953.5</ele>
        <time>2023-10-31T09:40:59Z</time>
      </trkpt>
      <trkpt lat="42.80568" lon="-0.03427">
        <ele>1953.6</ele>
        <time>2023-10-31T09:41:00Z</time>
      </trkpt>
      <trkpt lat="42.80568" lon="-0.03428">
        <ele>1953.7</ele>
        <time>2023-10-31T09:41:01Z</time>
      </trkpt>
      <trkpt lat="42.80568" lon="-0.0343">
        <ele>1953.8</ele>
        <time>2023-10-31T09:41:02Z</time>
      </trkpt>
      <trkpt lat="42.80569" lon="-0.03433">
        <ele>1954</ele>
        <time>2023-10-31T09:41:03Z</time>
      </trkpt>
      <trkpt lat="42.80569" lon="-0.03434">
        <ele>1954</ele>
        <time>2023-10-31T09:41:04Z</time>
      </trkpt>
      <trkpt lat="42.8057" lon="-0.03435">
        <ele>1954.1</ele>
        <time>2023-10-31T09:41:05Z</time>
      </trkpt>
      <trkpt lat="42.8057" lon="-0.03437">
        <ele>1954.2</ele>
        <time>2023-10-31T09:41:06Z</time>
      </trkpt>
      <trkpt lat="42.8057" lon="-0.03438">
        <ele>1954.2</ele>
        <time>2023-10-31T09:41:07Z</time>
      </trkpt>
      <trkpt lat="42.80571" lon="-0.03441">
        <ele>1954.1</ele>
        <time>2023-10-31T09:41:08Z</time>
      </trkpt>
      <trkpt lat="42.80571" lon="-0.03442">
        <ele>1954.1</ele>
        <time>2023-10-31T09:41:09Z</time>
      </trkpt>
      <trkpt lat="42.80572" lon="-0.03443">
        <ele>1954.1</ele>
        <time>2023-10-31T09:41:10Z</time>
      </trkpt>
      <trkpt lat="42.80572" lon="-0.03445">
        <ele>1954.1</ele>
        <time>2023-10-31T09:41:11Z</time>
      </trkpt>
      <trkpt lat="42.80572" lon="-0.03446">
        <ele>1954</ele>
        <time>2023-10-31T09:41:12Z</time>
      </trkpt>
      <trkpt lat="42.80572" lon="-0.03448">
        <ele>1954</ele>
        <time>2023-10-31T09:41:13Z</time>
      </trkpt>
      <trkpt lat="42.80572" lon="-0.0345">
        <ele>1954</ele>
        <time>2023-10-31T09:41:14Z</time>
      </trkpt>
      <trkpt lat="42.80572" lon="-0.03451">
        <ele>1954</ele>
        <time>2023-10-31T09:41:15Z</time>
      </trkpt>
      <trkpt lat="42.80572" lon="-0.03452">
        <ele>1953.9</ele>
        <time>2023-10-31T09:41:16Z</time>
      </trkpt>
      <trkpt lat="42.80572" lon="-0.03454">
        <ele>1953.9</ele>
        <time>2023-10-31T09:41:17Z</time>
      </trkpt>
      <trkpt lat="42.80573" lon="-0.03454">
        <ele>1953.9</ele>
        <time>2023-10-31T09:41:18Z</time>
      </trkpt>
      <trkpt lat="42.80573" lon="-0.03455">
        <ele>1953.9</ele>
        <time>2023-10-31T09:41:19Z</time>
      </trkpt>
      <trkpt lat="42.80572" lon="-0.03456">
        <ele>1953.9</ele>
        <time>2023-10-31T09:41:20Z</time>
      </trkpt>
      <trkpt lat="42.80572" lon="-0.03458">
        <ele>1953.9</ele>
        <time>2023-10-31T09:41:21Z</time>
      </trkpt>
      <trkpt lat="42.80572" lon="-0.03459">
        <ele>1953.8</ele>
        <time>2023-10-31T09:41:22Z</time>
      </trkpt>
      <trkpt lat="42.80572" lon="-0.03459">
        <ele>1953.8</ele>
        <time>2023-10-31T09:41:23Z</time>
      </trkpt>
      <trkpt lat="42.80572" lon="-0.03458">
        <ele>1953.8</ele>
        <time>2023-10-31T09:41:24Z</time>
      </trkpt>
      <trkpt lat="42.80573" lon="-0.03458">
        <ele>1953.8</ele>
        <time>2023-10-31T09:41:25Z</time>
      </trkpt>
      <trkpt lat="42.80573" lon="-0.03458">
        <ele>1953.8</ele>
        <time>2023-10-31T09:41:26Z</time>
      </trkpt>
      <trkpt lat="42.80574" lon="-0.03458">
        <ele>1953.8</ele>
        <time>2023-10-31T09:41:27Z</time>
      </trkpt>
      <trkpt lat="42.80574" lon="-0.03459">
        <ele>1953.8</ele>
        <time>2023-10-31T09:41:28Z</time>
      </trkpt>
      <trkpt lat="42.80574" lon="-0.03459">
        <ele>1953.8</ele>
        <time>2023-10-31T09:41:29Z</time>
      </trkpt>
      <trkpt lat="42.80575" lon="-0.03459">
        <ele>1953.8</ele>
        <time>2023-10-31T09:41:30Z</time>
      </trkpt>
      <trkpt lat="42.80575" lon="-0.03459">
        <ele>1953.8</ele>
        <time>2023-10-31T09:41:31Z</time>
      </trkpt>
      <trkpt lat="42.80576" lon="-0.03459">
        <ele>1953.8</ele>
        <time>2023-10-31T09:41:32Z</time>
      </trkpt>
      <trkpt lat="42.80576" lon="-0.03459">
        <ele>1953.8</ele>
        <time>2023-10-31T09:41:33Z</time>
      </trkpt>
      <trkpt lat="42.80576" lon="-0.03459">
        <ele>1953.8</ele>
        <time>2023-10-31T09:41:35Z</time>
      </trkpt>
      <trkpt lat="42.80576" lon="-0.03459">
        <ele>1953.8</ele>
        <time>2023-10-31T09:41:36Z</time>
      </trkpt>
      <trkpt lat="42.80576" lon="-0.03458">
        <ele>1953.8</ele>
        <time>2023-10-31T09:41:38Z</time>
      </trkpt>
      <trkpt lat="42.80576" lon="-0.03459">
        <ele>1953.8</ele>
        <time>2023-10-31T09:41:39Z</time>
      </trkpt>
      <trkpt lat="42.80576" lon="-0.03458">
        <ele>1953.8</ele>
        <time>2023-10-31T09:41:41Z</time>
      </trkpt>
      <trkpt lat="42.80577" lon="-0.03459">
        <ele>1953.7</ele>
        <time>2023-10-31T09:41:42Z</time>
      </trkpt>
      <trkpt lat="42.80578" lon="-0.03459">
        <ele>1953.7</ele>
        <time>2023-10-31T09:41:44Z</time>
      </trkpt>
      <trkpt lat="42.80578" lon="-0.03459">
        <ele>1953.7</ele>
        <time>2023-10-31T09:41:45Z</time>
      </trkpt>
      <trkpt lat="42.80579" lon="-0.03458">
        <ele>1953.7</ele>
        <time>2023-10-31T09:41:46Z</time>
      </trkpt>
      <trkpt lat="42.80579" lon="-0.03459">
        <ele>1953.7</ele>
        <time>2023-10-31T09:41:47Z</time>
      </trkpt>
      <trkpt lat="42.80579" lon="-0.03458">
        <ele>1953.7</ele>
        <time>2023-10-31T09:41:48Z</time>
      </trkpt>
      <trkpt lat="42.80579" lon="-0.03458">
        <ele>1953.7</ele>
        <time>2023-10-31T09:41:49Z</time>
      </trkpt>
      <trkpt lat="42.80579" lon="-0.03458">
        <ele>1953.7</ele>
        <time>2023-10-31T09:41:50Z</time>
      </trkpt>
      <trkpt lat="42.80579" lon="-0.03458">
        <ele>1953.7</ele>
        <time>2023-10-31T09:41:51Z</time>
      </trkpt>
      <trkpt lat="42.80579" lon="-0.03458">
        <ele>1953.7</ele>
        <time>2023-10-31T09:41:52Z</time>
      </trkpt>
      <trkpt lat="42.80579" lon="-0.03458">
        <ele>1953.7</ele>
        <time>2023-10-31T09:41:53Z</time>
      </trkpt>
      <trkpt lat="42.80579" lon="-0.03458">
        <ele>1953.7</ele>
        <time>2023-10-31T09:41:54Z</time>
      </trkpt>
      <trkpt lat="42.80578" lon="-0.03458">
        <ele>1953.7</ele>
        <time>2023-10-31T09:41:55Z</time>
      </trkpt>
      <trkpt lat="42.80578" lon="-0.03458">
        <ele>1953.7</ele>
        <time>2023-10-31T09:41:56Z</time>
      </trkpt>
      <trkpt lat="42.80578" lon="-0.03458">
        <ele>1953.7</ele>
        <time>2023-10-31T09:41:57Z</time>
      </trkpt>
      <trkpt lat="42.80578" lon="-0.03458">
        <ele>1953.7</ele>
        <time>2023-10-31T09:41:58Z</time>
      </trkpt>
      <trkpt lat="42.80578" lon="-0.03458">
        <ele>1953.7</ele>
        <time>2023-10-31T09:41:59Z</time>
      </trkpt>
      <trkpt lat="42.80579" lon="-0.03458">
        <ele>1953.7</ele>
        <time>2023-10-31T09:42:00Z</time>
      </trkpt>
      <trkpt lat="42.80579" lon="-0.03458">
        <ele>1953.7</ele>
        <time>2023-10-31T09:42:01Z</time>
      </trkpt>
      <trkpt lat="42.80579" lon="-0.03458">
        <ele>1953.7</ele>
        <time>2023-10-31T09:42:02Z</time>
      </trkpt>
      <trkpt lat="42.80579" lon="-0.03458">
        <ele>1953.7</ele>
        <time>2023-10-31T09:42:03Z</time>
      </trkpt>
      <trkpt lat="42.80579" lon="-0.03458">
        <ele>1953.7</ele>
        <time>2023-10-31T09:42:04Z</time>
      </trkpt>
      <trkpt lat="42.80579" lon="-0.03458">
        <ele>1953.7</ele>
        <time>2023-10-31T09:42:05Z</time>
      </trkpt>
      <trkpt lat="42.80579" lon="-0.03458">
        <ele>1953.7</ele>
        <time>2023-10-31T09:42:06Z</time>
      </trkpt>
      <trkpt lat="42.80579" lon="-0.03458">
        <ele>1953.7</ele>
        <time>2023-10-31T09:42:07Z</time>
      </trkpt>
      <trkpt lat="42.80579" lon="-0.03458">
        <ele>1953.7</ele>
        <time>2023-10-31T09:42:08Z</time>
      </trkpt>
      <trkpt lat="42.80579" lon="-0.03458">
        <ele>1953.7</ele>
        <time>2023-10-31T09:42:09Z</time>
      </trkpt>
      <trkpt lat="42.80579" lon="-0.03458">
        <ele>1953.7</ele>
        <time>2023-10-31T09:42:10Z</time>
      </trkpt>
      <trkpt lat="42.80579" lon="-0.03458">
        <ele>1953.7</ele>
        <time>2023-10-31T09:42:11Z</time>
      </trkpt>
      <trkpt lat="42.80579" lon="-0.03458">
        <ele>1953.7</ele>
        <time>2023-10-31T09:42:12Z</time>
      </trkpt>
      <trkpt lat="42.80579" lon="-0.03458">
        <ele>1953.7</ele>
        <time>2023-10-31T09:42:13Z</time>
      </trkpt>
      <trkpt lat="42.8058" lon="-0.03458">
        <ele>1953.7</ele>
        <time>2023-10-31T09:42:14Z</time>
      </trkpt>
      <trkpt lat="42.8058" lon="-0.03458">
        <ele>1953.7</ele>
        <time>2023-10-31T09:42:15Z</time>
      </trkpt>
      <trkpt lat="42.8058" lon="-0.03458">
        <ele>1953.7</ele>
        <time>2023-10-31T09:42:16Z</time>
      </trkpt>
      <trkpt lat="42.8058" lon="-0.03458">
        <ele>1953.7</ele>
        <time>2023-10-31T09:42:17Z</time>
      </trkpt>
      <trkpt lat="42.8058" lon="-0.03458">
        <ele>1953.7</ele>
        <time>2023-10-31T09:42:18Z</time>
      </trkpt>
      <trkpt lat="42.8058" lon="-0.03458">
        <ele>1953.7</ele>
        <time>2023-10-31T09:42:19Z</time>
      </trkpt>
      <trkpt lat="42.80581" lon="-0.03458">
        <ele>1953.7</ele>
        <time>2023-10-31T09:42:20Z</time>
      </trkpt>
      <trkpt lat="42.80581" lon="-0.03458">
        <ele>1953.7</ele>
        <time>2023-10-31T09:42:21Z</time>
      </trkpt>
      <trkpt lat="42.80581" lon="-0.03458">
        <ele>1953.7</ele>
        <time>2023-10-31T09:42:22Z</time>
      </trkpt>
      <trkpt lat="42.8058" lon="-0.03458">
        <ele>1953.7</ele>
        <time>2023-10-31T09:42:23Z</time>
      </trkpt>
      <trkpt lat="42.80581" lon="-0.03458">
        <ele>1953.7</ele>
        <time>2023-10-31T09:42:24Z</time>
      </trkpt>
      <trkpt lat="42.80581" lon="-0.03458">
        <ele>1953.7</ele>
        <time>2023-10-31T09:42:25Z</time>
      </trkpt>
      <trkpt lat="42.80581" lon="-0.03458">
        <ele>1953.7</ele>
        <time>2023-10-31T09:42:26Z</time>
      </trkpt>
      <trkpt lat="42.80581" lon="-0.03458">
        <ele>1953.7</ele>
        <time>2023-10-31T09:42:27Z</time>
      </trkpt>
      <trkpt lat="42.80581" lon="-0.03458">
        <ele>1953.7</ele>
        <time>2023-10-31T09:42:28Z</time>
      </trkpt>
      <trkpt lat="42.80581" lon="-0.03458">
        <ele>1953.7</ele>
        <time>2023-10-31T09:42:29Z</time>
      </trkpt>
      <trkpt lat="42.80581" lon="-0.03458">
        <ele>1953.7</ele>
        <time>2023-10-31T09:42:30Z</time>
      </trkpt>
      <trkpt lat="42.80581" lon="-0.03458">
        <ele>1953.7</ele>
        <time>2023-10-31T09:42:31Z</time>
      </trkpt>
      <trkpt lat="42.80581" lon="-0.03458">
        <ele>1953.7</ele>
        <time>2023-10-31T09:42:32Z</time>
      </trkpt>
      <trkpt lat="42.80581" lon="-0.03458">
        <ele>1953.7</ele>
        <time>2023-10-31T09:42:33Z</time>
      </trkpt>
      <trkpt lat="42.80581" lon="-0.03458">
        <ele>1953.7</ele>
        <time>2023-10-31T09:42:34Z</time>
      </trkpt>
      <trkpt lat="42.80581" lon="-0.03458">
        <ele>1953.7</ele>
        <time>2023-10-31T09:42:35Z</time>
      </trkpt>
      <trkpt lat="42.80581" lon="-0.03458">
        <ele>1953.7</ele>
        <time>2023-10-31T09:42:36Z</time>
      </trkpt>
      <trkpt lat="42.80581" lon="-0.03458">
        <ele>1953.7</ele>
        <time>2023-10-31T09:42:37Z</time>
      </trkpt>
      <trkpt lat="42.80581" lon="-0.03458">
        <ele>1953.7</ele>
        <time>2023-10-31T09:42:38Z</time>
      </trkpt>
      <trkpt lat="42.80581" lon="-0.03458">
        <ele>1953.7</ele>
        <time>2023-10-31T09:42:39Z</time>
      </trkpt>
      <trkpt lat="42.80581" lon="-0.03458">
        <ele>1953.7</ele>
        <time>2023-10-31T09:42:40Z</time>
      </trkpt>
      <trkpt lat="42.80581" lon="-0.03458">
        <ele>1953.7</ele>
        <time>2023-10-31T09:42:41Z</time>
      </trkpt>
      <trkpt lat="42.80581" lon="-0.03458">
        <ele>1953.7</ele>
        <time>2023-10-31T09:42:42Z</time>
      </trkpt>
      <trkpt lat="42.80581" lon="-0.03458">
        <ele>1953.7</ele>
        <time>2023-10-31T09:42:43Z</time>
      </trkpt>
      <trkpt lat="42.80581" lon="-0.03458">
        <ele>1953.7</ele>
        <time>2023-10-31T09:42:44Z</time>
      </trkpt>
      <trkpt lat="42.80581" lon="-0.03458">
        <ele>1953.7</ele>
        <time>2023-10-31T09:42:45Z</time>
      </trkpt>
      <trkpt lat="42.80581" lon="-0.03458">
        <ele>1953.7</ele>
        <time>2023-10-31T09:42:46Z</time>
      </trkpt>
      <trkpt lat="42.80581" lon="-0.03458">
        <ele>1953.7</ele>
        <time>2023-10-31T09:42:47Z</time>
      </trkpt>
      <trkpt lat="42.80581" lon="-0.03458">
        <ele>1953.7</ele>
        <time>2023-10-31T09:42:48Z</time>
      </trkpt>
      <trkpt lat="42.80581" lon="-0.03458">
        <ele>1953.7</ele>
        <time>2023-10-31T09:42:49Z</time>
      </trkpt>
      <trkpt lat="42.80581" lon="-0.03458">
        <ele>1953.7</ele>
        <time>2023-10-31T09:42:50Z</time>
      </trkpt>
      <trkpt lat="42.80581" lon="-0.03458">
        <ele>1953.7</ele>
        <time>2023-10-31T09:42:51Z</time>
      </trkpt>
      <trkpt lat="42.80581" lon="-0.03458">
        <ele>1953.7</ele>
        <time>2023-10-31T09:42:52Z</time>
      </trkpt>
      <trkpt lat="42.80581" lon="-0.03458">
        <ele>1953.7</ele>
        <time>2023-10-31T09:42:53Z</time>
      </trkpt>
      <trkpt lat="42.80581" lon="-0.03458">
        <ele>1953.7</ele>
        <time>2023-10-31T09:42:54Z</time>
      </trkpt>
      <trkpt lat="42.80581" lon="-0.03458">
        <ele>1953.7</ele>
        <time>2023-10-31T09:42:55Z</time>
      </trkpt>
      <trkpt lat="42.80581" lon="-0.03458">
        <ele>1953.7</ele>
        <time>2023-10-31T09:42:56Z</time>
      </trkpt>
      <trkpt lat="42.80581" lon="-0.03458">
        <ele>1953.7</ele>
        <time>2023-10-31T09:42:57Z</time>
      </trkpt>
      <trkpt lat="42.80581" lon="-0.03458">
        <ele>1953.7</ele>
        <time>2023-10-31T09:42:58Z</time>
      </trkpt>
      <trkpt lat="42.80581" lon="-0.03458">
        <ele>1953.7</ele>
        <time>2023-10-31T09:42:59Z</time>
      </trkpt>
      <trkpt lat="42.80581" lon="-0.03458">
        <ele>1953.7</ele>
        <time>2023-10-31T09:43:00Z</time>
      </trkpt>
      <trkpt lat="42.80581" lon="-0.03458">
        <ele>1953.7</ele>
        <time>2023-10-31T09:43:01Z</time>
      </trkpt>
      <trkpt lat="42.8058" lon="-0.03457">
        <ele>1953.7</ele>
        <time>2023-10-31T09:43:02Z</time>
      </trkpt>
      <trkpt lat="42.8058" lon="-0.03457">
        <ele>1953.7</ele>
        <time>2023-10-31T09:43:03Z</time>
      </trkpt>
      <trkpt lat="42.8058" lon="-0.03457">
        <ele>1953.7</ele>
        <time>2023-10-31T09:43:04Z</time>
      </trkpt>
      <trkpt lat="42.8058" lon="-0.03458">
        <ele>1953.7</ele>
        <time>2023-10-31T09:43:05Z</time>
      </trkpt>
      <trkpt lat="42.8058" lon="-0.03458">
        <ele>1953.7</ele>
        <time>2023-10-31T09:43:06Z</time>
      </trkpt>
      <trkpt lat="42.8058" lon="-0.03458">
        <ele>1953.7</ele>
        <time>2023-10-31T09:43:07Z</time>
      </trkpt>
      <trkpt lat="42.80579" lon="-0.03458">
        <ele>1953.7</ele>
        <time>2023-10-31T09:43:08Z</time>
      </trkpt>
      <trkpt lat="42.80579" lon="-0.03458">
        <ele>1953.7</ele>
        <time>2023-10-31T09:43:09Z</time>
      </trkpt>
      <trkpt lat="42.80579" lon="-0.03458">
        <ele>1953.7</ele>
        <time>2023-10-31T09:43:10Z</time>
      </trkpt>
      <trkpt lat="42.80579" lon="-0.03458">
        <ele>1953.7</ele>
        <time>2023-10-31T09:43:11Z</time>
      </trkpt>
      <trkpt lat="42.80579" lon="-0.03458">
        <ele>1953.7</ele>
        <time>2023-10-31T09:43:12Z</time>
      </trkpt>
      <trkpt lat="42.8058" lon="-0.03458">
        <ele>1953.7</ele>
        <time>2023-10-31T09:43:13Z</time>
      </trkpt>
      <trkpt lat="42.8058" lon="-0.03458">
        <ele>1953.7</ele>
        <time>2023-10-31T09:43:14Z</time>
      </trkpt>
      <trkpt lat="42.8058" lon="-0.03458">
        <ele>1953.7</ele>
        <time>2023-10-31T09:43:15Z</time>
      </trkpt>
      <trkpt lat="42.8058" lon="-0.03458">
        <ele>1953.7</ele>
        <time>2023-10-31T09:43:16Z</time>
      </trkpt>
      <trkpt lat="42.8058" lon="-0.03459">
        <ele>1953.7</ele>
        <time>2023-10-31T09:43:17Z</time>
      </trkpt>
      <trkpt lat="42.8058" lon="-0.03458">
        <ele>1953.7</ele>
        <time>2023-10-31T09:43:18Z</time>
      </trkpt>
      <trkpt lat="42.8058" lon="-0.03458">
        <ele>1953.7</ele>
        <time>2023-10-31T09:43:19Z</time>
      </trkpt>
      <trkpt lat="42.8058" lon="-0.03459">
        <ele>1953.7</ele>
        <time>2023-10-31T09:43:20Z</time>
      </trkpt>
      <trkpt lat="42.80581" lon="-0.03458">
        <ele>1953.7</ele>
        <time>2023-10-31T09:43:21Z</time>
      </trkpt>
      <trkpt lat="42.80582" lon="-0.03458">
        <ele>1953.7</ele>
        <time>2023-10-31T09:43:22Z</time>
      </trkpt>
      <trkpt lat="42.80581" lon="-0.03458">
        <ele>1953.8</ele>
        <time>2023-10-31T09:43:23Z</time>
      </trkpt>
      <trkpt lat="42.80581" lon="-0.03458">
        <ele>1953.8</ele>
        <time>2023-10-31T09:43:24Z</time>
      </trkpt>
      <trkpt lat="42.80581" lon="-0.03458">
        <ele>1953.8</ele>
        <time>2023-10-31T09:43:25Z</time>
      </trkpt>
      <trkpt lat="42.80581" lon="-0.03457">
        <ele>1953.9</ele>
        <time>2023-10-31T09:43:26Z</time>
      </trkpt>
      <trkpt lat="42.80581" lon="-0.03457">
        <ele>1953.9</ele>
        <time>2023-10-31T09:43:27Z</time>
      </trkpt>
      <trkpt lat="42.80581" lon="-0.03457">
        <ele>1953.9</ele>
        <time>2023-10-31T09:43:28Z</time>
      </trkpt>
      <trkpt lat="42.8058" lon="-0.03457">
        <ele>1953.9</ele>
        <time>2023-10-31T09:43:29Z</time>
      </trkpt>
      <trkpt lat="42.8058" lon="-0.03457">
        <ele>1953.9</ele>
        <time>2023-10-31T09:43:30Z</time>
      </trkpt>
      <trkpt lat="42.80581" lon="-0.03456">
        <ele>1954</ele>
        <time>2023-10-31T09:43:31Z</time>
      </trkpt>
      <trkpt lat="42.80581" lon="-0.03457">
        <ele>1954.1</ele>
        <time>2023-10-31T09:43:32Z</time>
      </trkpt>
      <trkpt lat="42.80581" lon="-0.03458">
        <ele>1954.2</ele>
        <time>2023-10-31T09:43:33Z</time>
      </trkpt>
      <trkpt lat="42.80581" lon="-0.03456">
        <ele>1954.3</ele>
        <time>2023-10-31T09:43:34Z</time>
      </trkpt>
      <trkpt lat="42.80582" lon="-0.03454">
        <ele>1954.5</ele>
        <time>2023-10-31T09:43:35Z</time>
      </trkpt>
      <trkpt lat="42.80582" lon="-0.03454">
        <ele>1954.5</ele>
        <time>2023-10-31T09:43:36Z</time>
      </trkpt>
      <trkpt lat="42.80582" lon="-0.03454">
        <ele>1954.5</ele>
        <time>2023-10-31T09:43:37Z</time>
      </trkpt>
      <trkpt lat="42.80582" lon="-0.03454">
        <ele>1954.6</ele>
        <time>2023-10-31T09:43:38Z</time>
      </trkpt>
      <trkpt lat="42.80583" lon="-0.03454">
        <ele>1954.6</ele>
        <time>2023-10-31T09:43:40Z</time>
      </trkpt>
      <trkpt lat="42.80583" lon="-0.03454">
        <ele>1954.6</ele>
        <time>2023-10-31T09:43:41Z</time>
      </trkpt>
      <trkpt lat="42.80584" lon="-0.03453">
        <ele>1954.7</ele>
        <time>2023-10-31T09:43:42Z</time>
      </trkpt>
      <trkpt lat="42.80584" lon="-0.03453">
        <ele>1954.7</ele>
        <time>2023-10-31T09:43:43Z</time>
      </trkpt>
      <trkpt lat="42.80584" lon="-0.03453">
        <ele>1954.8</ele>
        <time>2023-10-31T09:43:44Z</time>
      </trkpt>
      <trkpt lat="42.80585" lon="-0.03453">
        <ele>1954.8</ele>
        <time>2023-10-31T09:43:45Z</time>
      </trkpt>
      <trkpt lat="42.80585" lon="-0.03453">
        <ele>1954.9</ele>
        <time>2023-10-31T09:43:46Z</time>
      </trkpt>
      <trkpt lat="42.80585" lon="-0.03453">
        <ele>1954.9</ele>
        <time>2023-10-31T09:43:47Z</time>
      </trkpt>
      <trkpt lat="42.80586" lon="-0.03452">
        <ele>1954.9</ele>
        <time>2023-10-31T09:43:48Z</time>
      </trkpt>
      <trkpt lat="42.80586" lon="-0.03452">
        <ele>1955</ele>
        <time>2023-10-31T09:43:49Z</time>
      </trkpt>
      <trkpt lat="42.80586" lon="-0.03452">
        <ele>1955</ele>
        <time>2023-10-31T09:43:50Z</time>
      </trkpt>
      <trkpt lat="42.80587" lon="-0.03452">
        <ele>1955</ele>
        <time>2023-10-31T09:43:51Z</time>
      </trkpt>
      <trkpt lat="42.80587" lon="-0.03452">
        <ele>1955.1</ele>
        <time>2023-10-31T09:43:52Z</time>
      </trkpt>
      <trkpt lat="42.80587" lon="-0.03452">
        <ele>1955.1</ele>
        <time>2023-10-31T09:43:53Z</time>
      </trkpt>
      <trkpt lat="42.80588" lon="-0.03451">
        <ele>1955.2</ele>
        <time>2023-10-31T09:43:54Z</time>
      </trkpt>
      <trkpt lat="42.80587" lon="-0.03455">
        <ele>1955.4</ele>
        <time>2023-10-31T09:43:55Z</time>
      </trkpt>
      <trkpt lat="42.80586" lon="-0.03455">
        <ele>1955.7</ele>
        <time>2023-10-31T09:43:56Z</time>
      </trkpt>
      <trkpt lat="42.80584" lon="-0.03456">
        <ele>1955.9</ele>
        <time>2023-10-31T09:43:57Z</time>
      </trkpt>
      <trkpt lat="42.80584" lon="-0.03456">
        <ele>1955.9</ele>
        <time>2023-10-31T09:43:58Z</time>
      </trkpt>
      <trkpt lat="42.80584" lon="-0.03457">
        <ele>1955.9</ele>
        <time>2023-10-31T09:43:59Z</time>
      </trkpt>
      <trkpt lat="42.80583" lon="-0.03457">
        <ele>1956</ele>
        <time>2023-10-31T09:44:00Z</time>
      </trkpt>
      <trkpt lat="42.80583" lon="-0.03457">
        <ele>1956</ele>
        <time>2023-10-31T09:44:01Z</time>
      </trkpt>
      <trkpt lat="42.80583" lon="-0.03457">
        <ele>1956</ele>
        <time>2023-10-31T09:44:02Z</time>
      </trkpt>
      <trkpt lat="42.80583" lon="-0.03457">
        <ele>1956</ele>
        <time>2023-10-31T09:44:03Z</time>
      </trkpt>
      <trkpt lat="42.80583" lon="-0.03458">
        <ele>1956.1</ele>
        <time>2023-10-31T09:44:04Z</time>
      </trkpt>
      <trkpt lat="42.80583" lon="-0.03458">
        <ele>1956.1</ele>
        <time>2023-10-31T09:44:05Z</time>
      </trkpt>
      <trkpt lat="42.80582" lon="-0.03458">
        <ele>1956.1</ele>
        <time>2023-10-31T09:44:06Z</time>
      </trkpt>
      <trkpt lat="42.80582" lon="-0.03458">
        <ele>1956.2</ele>
        <time>2023-10-31T09:44:07Z</time>
      </trkpt>
      <trkpt lat="42.80582" lon="-0.03458">
        <ele>1956.3</ele>
        <time>2023-10-31T09:44:08Z</time>
      </trkpt>
      <trkpt lat="42.80582" lon="-0.03458">
        <ele>1956.3</ele>
        <time>2023-10-31T09:44:09Z</time>
      </trkpt>
      <trkpt lat="42.80582" lon="-0.03458">
        <ele>1956.3</ele>
        <time>2023-10-31T09:44:10Z</time>
      </trkpt>
      <trkpt lat="42.80582" lon="-0.03458">
        <ele>1956.3</ele>
        <time>2023-10-31T09:44:11Z</time>
      </trkpt>
      <trkpt lat="42.80581" lon="-0.03459">
        <ele>1956.4</ele>
        <time>2023-10-31T09:44:12Z</time>
      </trkpt>
      <trkpt lat="42.80581" lon="-0.03459">
        <ele>1956.5</ele>
        <time>2023-10-31T09:44:13Z</time>
      </trkpt>
      <trkpt lat="42.8058" lon="-0.03459">
        <ele>1956.5</ele>
        <time>2023-10-31T09:44:14Z</time>
      </trkpt>
      <trkpt lat="42.8058" lon="-0.03459">
        <ele>1956.5</ele>
        <time>2023-10-31T09:44:15Z</time>
      </trkpt>
      <trkpt lat="42.8058" lon="-0.03459">
        <ele>1956.6</ele>
        <time>2023-10-31T09:44:16Z</time>
      </trkpt>
      <trkpt lat="42.8058" lon="-0.0346">
        <ele>1956.6</ele>
        <time>2023-10-31T09:44:17Z</time>
      </trkpt>
      <trkpt lat="42.8058" lon="-0.0346">
        <ele>1956.6</ele>
        <time>2023-10-31T09:44:18Z</time>
      </trkpt>
      <trkpt lat="42.80579" lon="-0.0346">
        <ele>1956.6</ele>
        <time>2023-10-31T09:44:19Z</time>
      </trkpt>
      <trkpt lat="42.80579" lon="-0.0346">
        <ele>1956.6</ele>
        <time>2023-10-31T09:44:20Z</time>
      </trkpt>
      <trkpt lat="42.80579" lon="-0.0346">
        <ele>1956.7</ele>
        <time>2023-10-31T09:44:21Z</time>
      </trkpt>
      <trkpt lat="42.8058" lon="-0.03459">
        <ele>1956.7</ele>
        <time>2023-10-31T09:44:22Z</time>
      </trkpt>
      <trkpt lat="42.80579" lon="-0.03459">
        <ele>1956.7</ele>
        <time>2023-10-31T09:44:23Z</time>
      </trkpt>
      <trkpt lat="42.8058" lon="-0.0346">
        <ele>1956.8</ele>
        <time>2023-10-31T09:44:24Z</time>
      </trkpt>
      <trkpt lat="42.8058" lon="-0.03458">
        <ele>1956.9</ele>
        <time>2023-10-31T09:44:25Z</time>
      </trkpt>
      <trkpt lat="42.8058" lon="-0.03459">
        <ele>1957</ele>
        <time>2023-10-31T09:44:26Z</time>
      </trkpt>
      <trkpt lat="42.8058" lon="-0.03459">
        <ele>1957</ele>
        <time>2023-10-31T09:44:27Z</time>
      </trkpt>
      <trkpt lat="42.80579" lon="-0.03459">
        <ele>1957.1</ele>
        <time>2023-10-31T09:44:28Z</time>
      </trkpt>
      <trkpt lat="42.80579" lon="-0.03459">
        <ele>1957.1</ele>
        <time>2023-10-31T09:44:29Z</time>
      </trkpt>
      <trkpt lat="42.80579" lon="-0.03459">
        <ele>1957.1</ele>
        <time>2023-10-31T09:44:30Z</time>
      </trkpt>
      <trkpt lat="42.80579" lon="-0.03459">
        <ele>1957.1</ele>
        <time>2023-10-31T09:44:31Z</time>
      </trkpt>
      <trkpt lat="42.80578" lon="-0.03459">
        <ele>1957.2</ele>
        <time>2023-10-31T09:44:32Z</time>
      </trkpt>
      <trkpt lat="42.80579" lon="-0.03457">
        <ele>1957.3</ele>
        <time>2023-10-31T09:44:33Z</time>
      </trkpt>
      <trkpt lat="42.80579" lon="-0.03458">
        <ele>1957.4</ele>
        <time>2023-10-31T09:44:34Z</time>
      </trkpt>
      <trkpt lat="42.80579" lon="-0.03458">
        <ele>1957.4</ele>
        <time>2023-10-31T09:44:35Z</time>
      </trkpt>
      <trkpt lat="42.80579" lon="-0.03459">
        <ele>1957.4</ele>
        <time>2023-10-31T09:44:36Z</time>
      </trkpt>
      <trkpt lat="42.80579" lon="-0.03459">
        <ele>1957.5</ele>
        <time>2023-10-31T09:44:37Z</time>
      </trkpt>
      <trkpt lat="42.80579" lon="-0.03459">
        <ele>1957.5</ele>
        <time>2023-10-31T09:44:38Z</time>
      </trkpt>
      <trkpt lat="42.80579" lon="-0.03459">
        <ele>1957.5</ele>
        <time>2023-10-31T09:44:39Z</time>
      </trkpt>
      <trkpt lat="42.80578" lon="-0.0346">
        <ele>1957.6</ele>
        <time>2023-10-31T09:44:40Z</time>
      </trkpt>
      <trkpt lat="42.80578" lon="-0.03461">
        <ele>1957.6</ele>
        <time>2023-10-31T09:44:41Z</time>
      </trkpt>
      <trkpt lat="42.80579" lon="-0.03461">
        <ele>1957.6</ele>
        <time>2023-10-31T09:44:42Z</time>
      </trkpt>
      <trkpt lat="42.80579" lon="-0.03461">
        <ele>1957.6</ele>
        <time>2023-10-31T09:44:43Z</time>
      </trkpt>
      <trkpt lat="42.80579" lon="-0.0346">
        <ele>1957.7</ele>
        <time>2023-10-31T09:44:44Z</time>
      </trkpt>
      <trkpt lat="42.80579" lon="-0.03461">
        <ele>1957.7</ele>
        <time>2023-10-31T09:44:45Z</time>
      </trkpt>
      <trkpt lat="42.80579" lon="-0.03461">
        <ele>1957.7</ele>
        <time>2023-10-31T09:44:46Z</time>
      </trkpt>
      <trkpt lat="42.80578" lon="-0.03461">
        <ele>1957.7</ele>
        <time>2023-10-31T09:44:47Z</time>
      </trkpt>
      <trkpt lat="42.80578" lon="-0.03461">
        <ele>1957.7</ele>
        <time>2023-10-31T09:44:48Z</time>
      </trkpt>
      <trkpt lat="42.80578" lon="-0.03461">
        <ele>1957.7</ele>
        <time>2023-10-31T09:44:49Z</time>
      </trkpt>
      <trkpt lat="42.80578" lon="-0.03461">
        <ele>1957.8</ele>
        <time>2023-10-31T09:44:50Z</time>
      </trkpt>
      <trkpt lat="42.80579" lon="-0.0346">
        <ele>1957.8</ele>
        <time>2023-10-31T09:44:51Z</time>
      </trkpt>
      <trkpt lat="42.80579" lon="-0.0346">
        <ele>1957.8</ele>
        <time>2023-10-31T09:44:52Z</time>
      </trkpt>
      <trkpt lat="42.80579" lon="-0.03458">
        <ele>1958</ele>
        <time>2023-10-31T09:44:53Z</time>
      </trkpt>
      <trkpt lat="42.80581" lon="-0.03458">
        <ele>1958.1</ele>
        <time>2023-10-31T09:44:54Z</time>
      </trkpt>
      <trkpt lat="42.80582" lon="-0.03457">
        <ele>1958.2</ele>
        <time>2023-10-31T09:44:55Z</time>
      </trkpt>
      <trkpt lat="42.80582" lon="-0.03457">
        <ele>1958.3</ele>
        <time>2023-10-31T09:44:56Z</time>
      </trkpt>
      <trkpt lat="42.80583" lon="-0.03454">
        <ele>1958.4</ele>
        <time>2023-10-31T09:44:57Z</time>
      </trkpt>
      <trkpt lat="42.80583" lon="-0.03454">
        <ele>1958.4</ele>
        <time>2023-10-31T09:44:58Z</time>
      </trkpt>
      <trkpt lat="42.80584" lon="-0.03453">
        <ele>1958.6</ele>
        <time>2023-10-31T09:44:59Z</time>
      </trkpt>
      <trkpt lat="42.80584" lon="-0.03456">
        <ele>1958.7</ele>
        <time>2023-10-31T09:45:00Z</time>
      </trkpt>
      <trkpt lat="42.80585" lon="-0.03456">
        <ele>1958.8</ele>
        <time>2023-10-31T09:45:01Z</time>
      </trkpt>
      <trkpt lat="42.80585" lon="-0.03457">
        <ele>1958.9</ele>
        <time>2023-10-31T09:45:02Z</time>
      </trkpt>
      <trkpt lat="42.80584" lon="-0.03457">
        <ele>1959</ele>
        <time>2023-10-31T09:45:03Z</time>
      </trkpt>
      <trkpt lat="42.80584" lon="-0.03458">
        <ele>1959</ele>
        <time>2023-10-31T09:45:04Z</time>
      </trkpt>
      <trkpt lat="42.80585" lon="-0.03458">
        <ele>1959.1</ele>
        <time>2023-10-31T09:45:05Z</time>
      </trkpt>
      <trkpt lat="42.80585" lon="-0.03458">
        <ele>1959.1</ele>
        <time>2023-10-31T09:45:06Z</time>
      </trkpt>
      <trkpt lat="42.80585" lon="-0.03458">
        <ele>1959.1</ele>
        <time>2023-10-31T09:45:07Z</time>
      </trkpt>
      <trkpt lat="42.80585" lon="-0.03458">
        <ele>1959.1</ele>
        <time>2023-10-31T09:45:08Z</time>
      </trkpt>
      <trkpt lat="42.80585" lon="-0.03458">
        <ele>1959.1</ele>
        <time>2023-10-31T09:45:09Z</time>
      </trkpt>
      <trkpt lat="42.80585" lon="-0.03458">
        <ele>1959.2</ele>
        <time>2023-10-31T09:45:10Z</time>
      </trkpt>
      <trkpt lat="42.80585" lon="-0.03458">
        <ele>1959.2</ele>
        <time>2023-10-31T09:45:11Z</time>
      </trkpt>
      <trkpt lat="42.80585" lon="-0.03458">
        <ele>1959.2</ele>
        <time>2023-10-31T09:45:12Z</time>
      </trkpt>
      <trkpt lat="42.80585" lon="-0.03458">
        <ele>1959.2</ele>
        <time>2023-10-31T09:45:13Z</time>
      </trkpt>
      <trkpt lat="42.80585" lon="-0.03459">
        <ele>1959.3</ele>
        <time>2023-10-31T09:45:14Z</time>
      </trkpt>
      <trkpt lat="42.80586" lon="-0.03459">
        <ele>1959.3</ele>
        <time>2023-10-31T09:45:15Z</time>
      </trkpt>
      <trkpt lat="42.80585" lon="-0.0346">
        <ele>1959.4</ele>
        <time>2023-10-31T09:45:16Z</time>
      </trkpt>
      <trkpt lat="42.80586" lon="-0.0346">
        <ele>1959.4</ele>
        <time>2023-10-31T09:45:17Z</time>
      </trkpt>
      <trkpt lat="42.80586" lon="-0.03461">
        <ele>1959.5</ele>
        <time>2023-10-31T09:45:18Z</time>
      </trkpt>
      <trkpt lat="42.80586" lon="-0.03461">
        <ele>1959.5</ele>
        <time>2023-10-31T09:45:19Z</time>
      </trkpt>
      <trkpt lat="42.80586" lon="-0.03462">
        <ele>1959.6</ele>
        <time>2023-10-31T09:45:20Z</time>
      </trkpt>
      <trkpt lat="42.80587" lon="-0.03463">
        <ele>1959.7</ele>
        <time>2023-10-31T09:45:21Z</time>
      </trkpt>
      <trkpt lat="42.80587" lon="-0.03463">
        <ele>1959.7</ele>
        <time>2023-10-31T09:45:22Z</time>
      </trkpt>
      <trkpt lat="42.80587" lon="-0.03463">
        <ele>1959.7</ele>
        <time>2023-10-31T09:45:23Z</time>
      </trkpt>
      <trkpt lat="42.80588" lon="-0.03463">
        <ele>1959.8</ele>
        <time>2023-10-31T09:45:24Z</time>
      </trkpt>
      <trkpt lat="42.80587" lon="-0.03464">
        <ele>1959.8</ele>
        <time>2023-10-31T09:45:25Z</time>
      </trkpt>
      <trkpt lat="42.80587" lon="-0.03465">
        <ele>1959.9</ele>
        <time>2023-10-31T09:45:26Z</time>
      </trkpt>
      <trkpt lat="42.80587" lon="-0.03464">
        <ele>1959.9</ele>
        <time>2023-10-31T09:45:27Z</time>
      </trkpt>
      <trkpt lat="42.80589" lon="-0.03467">
        <ele>1960.2</ele>
        <time>2023-10-31T09:45:28Z</time>
      </trkpt>
      <trkpt lat="42.80589" lon="-0.03466">
        <ele>1960.3</ele>
        <time>2023-10-31T09:45:29Z</time>
      </trkpt>
      <trkpt lat="42.80589" lon="-0.03466">
        <ele>1960.4</ele>
        <time>2023-10-31T09:45:30Z</time>
      </trkpt>
      <trkpt lat="42.8059" lon="-0.03466">
        <ele>1960.4</ele>
        <time>2023-10-31T09:45:31Z</time>
      </trkpt>
      <trkpt lat="42.8059" lon="-0.03466">
        <ele>1960.4</ele>
        <time>2023-10-31T09:45:32Z</time>
      </trkpt>
      <trkpt lat="42.8059" lon="-0.03467">
        <ele>1960.5</ele>
        <time>2023-10-31T09:45:33Z</time>
      </trkpt>
      <trkpt lat="42.8059" lon="-0.03467">
        <ele>1960.5</ele>
        <time>2023-10-31T09:45:34Z</time>
      </trkpt>
      <trkpt lat="42.80591" lon="-0.0347">
        <ele>1960.8</ele>
        <time>2023-10-31T09:45:35Z</time>
      </trkpt>
      <trkpt lat="42.8059" lon="-0.0347">
        <ele>1960.9</ele>
        <time>2023-10-31T09:45:36Z</time>
      </trkpt>
      <trkpt lat="42.80591" lon="-0.03471">
        <ele>1961</ele>
        <time>2023-10-31T09:45:37Z</time>
      </trkpt>
      <trkpt lat="42.80591" lon="-0.03472">
        <ele>1961</ele>
        <time>2023-10-31T09:45:38Z</time>
      </trkpt>
      <trkpt lat="42.80591" lon="-0.03473">
        <ele>1961.1</ele>
        <time>2023-10-31T09:45:39Z</time>
      </trkpt>
      <trkpt lat="42.80591" lon="-0.03473">
        <ele>1961.2</ele>
        <time>2023-10-31T09:45:40Z</time>
      </trkpt>
      <trkpt lat="42.80592" lon="-0.03474">
        <ele>1961.2</ele>
        <time>2023-10-31T09:45:41Z</time>
      </trkpt>
      <trkpt lat="42.80592" lon="-0.03475">
        <ele>1961.3</ele>
        <time>2023-10-31T09:45:42Z</time>
      </trkpt>
      <trkpt lat="42.80592" lon="-0.03475">
        <ele>1961.4</ele>
        <time>2023-10-31T09:45:43Z</time>
      </trkpt>
      <trkpt lat="42.80592" lon="-0.03476">
        <ele>1961.4</ele>
        <time>2023-10-31T09:45:44Z</time>
      </trkpt>
      <trkpt lat="42.80592" lon="-0.03477">
        <ele>1961.6</ele>
        <time>2023-10-31T09:45:45Z</time>
      </trkpt>
      <trkpt lat="42.80593" lon="-0.03478">
        <ele>1961.7</ele>
        <time>2023-10-31T09:45:46Z</time>
      </trkpt>
      <trkpt lat="42.80592" lon="-0.03479">
        <ele>1961.8</ele>
        <time>2023-10-31T09:45:47Z</time>
      </trkpt>
      <trkpt lat="42.80592" lon="-0.03481">
        <ele>1961.9</ele>
        <time>2023-10-31T09:45:48Z</time>
      </trkpt>
      <trkpt lat="42.80592" lon="-0.03482">
        <ele>1962</ele>
        <time>2023-10-31T09:45:49Z</time>
      </trkpt>
      <trkpt lat="42.80592" lon="-0.03482">
        <ele>1962</ele>
        <time>2023-10-31T09:45:50Z</time>
      </trkpt>
      <trkpt lat="42.80592" lon="-0.03482">
        <ele>1962</ele>
        <time>2023-10-31T09:45:51Z</time>
      </trkpt>
      <trkpt lat="42.80592" lon="-0.03482">
        <ele>1962</ele>
        <time>2023-10-31T09:45:52Z</time>
      </trkpt>
      <trkpt lat="42.80592" lon="-0.03482">
        <ele>1962</ele>
        <time>2023-10-31T09:45:53Z</time>
      </trkpt>
      <trkpt lat="42.80592" lon="-0.03482">
        <ele>1962.1</ele>
        <time>2023-10-31T09:45:54Z</time>
      </trkpt>
      <trkpt lat="42.80592" lon="-0.03481">
        <ele>1962.1</ele>
        <time>2023-10-31T09:45:55Z</time>
      </trkpt>
      <trkpt lat="42.80592" lon="-0.03482">
        <ele>1962.1</ele>
        <time>2023-10-31T09:45:56Z</time>
      </trkpt>
      <trkpt lat="42.80592" lon="-0.03482">
        <ele>1962.2</ele>
        <time>2023-10-31T09:45:57Z</time>
      </trkpt>
      <trkpt lat="42.80592" lon="-0.03484">
        <ele>1962.3</ele>
        <time>2023-10-31T09:45:58Z</time>
      </trkpt>
      <trkpt lat="42.80592" lon="-0.03485">
        <ele>1962.4</ele>
        <time>2023-10-31T09:45:59Z</time>
      </trkpt>
      <trkpt lat="42.80592" lon="-0.03486">
        <ele>1962.5</ele>
        <time>2023-10-31T09:46:00Z</time>
      </trkpt>
      <trkpt lat="42.80593" lon="-0.03488">
        <ele>1962.6</ele>
        <time>2023-10-31T09:46:01Z</time>
      </trkpt>
      <trkpt lat="42.80593" lon="-0.03489">
        <ele>1962.7</ele>
        <time>2023-10-31T09:46:02Z</time>
      </trkpt>
      <trkpt lat="42.80594" lon="-0.03489">
        <ele>1962.8</ele>
        <time>2023-10-31T09:46:03Z</time>
      </trkpt>
      <trkpt lat="42.80594" lon="-0.0349">
        <ele>1962.8</ele>
        <time>2023-10-31T09:46:04Z</time>
      </trkpt>
      <trkpt lat="42.80592" lon="-0.03494">
        <ele>1963.1</ele>
        <time>2023-10-31T09:46:05Z</time>
      </trkpt>
      <trkpt lat="42.80592" lon="-0.03495">
        <ele>1963.2</ele>
        <time>2023-10-31T09:46:06Z</time>
      </trkpt>
      <trkpt lat="42.80595" lon="-0.03495">
        <ele>1963.6</ele>
        <time>2023-10-31T09:46:07Z</time>
      </trkpt>
      <trkpt lat="42.80595" lon="-0.03495">
        <ele>1963.6</ele>
        <time>2023-10-31T09:46:08Z</time>
      </trkpt>
      <trkpt lat="42.80595" lon="-0.03496">
        <ele>1963.7</ele>
        <time>2023-10-31T09:46:09Z</time>
      </trkpt>
      <trkpt lat="42.80595" lon="-0.03497">
        <ele>1963.8</ele>
        <time>2023-10-31T09:46:10Z</time>
      </trkpt>
      <trkpt lat="42.80595" lon="-0.03497">
        <ele>1963.8</ele>
        <time>2023-10-31T09:46:11Z</time>
      </trkpt>
      <trkpt lat="42.80595" lon="-0.03497">
        <ele>1963.8</ele>
        <time>2023-10-31T09:46:12Z</time>
      </trkpt>
      <trkpt lat="42.80595" lon="-0.03498">
        <ele>1963.8</ele>
        <time>2023-10-31T09:46:13Z</time>
      </trkpt>
      <trkpt lat="42.80595" lon="-0.03499">
        <ele>1963.9</ele>
        <time>2023-10-31T09:46:14Z</time>
      </trkpt>
      <trkpt lat="42.80595" lon="-0.035">
        <ele>1963.9</ele>
        <time>2023-10-31T09:46:15Z</time>
      </trkpt>
      <trkpt lat="42.80595" lon="-0.035">
        <ele>1963.9</ele>
        <time>2023-10-31T09:46:16Z</time>
      </trkpt>
      <trkpt lat="42.80595" lon="-0.035">
        <ele>1963.9</ele>
        <time>2023-10-31T09:46:17Z</time>
      </trkpt>
      <trkpt lat="42.80595" lon="-0.03501">
        <ele>1964.1</ele>
        <time>2023-10-31T09:46:18Z</time>
      </trkpt>
      <trkpt lat="42.80595" lon="-0.03502">
        <ele>1964.1</ele>
        <time>2023-10-31T09:46:19Z</time>
      </trkpt>
      <trkpt lat="42.80595" lon="-0.03502">
        <ele>1964.1</ele>
        <time>2023-10-31T09:46:20Z</time>
      </trkpt>
      <trkpt lat="42.80595" lon="-0.03503">
        <ele>1964.2</ele>
        <time>2023-10-31T09:46:21Z</time>
      </trkpt>
      <trkpt lat="42.80595" lon="-0.03503">
        <ele>1964.2</ele>
        <time>2023-10-31T09:46:22Z</time>
      </trkpt>
      <trkpt lat="42.80595" lon="-0.03504">
        <ele>1964.3</ele>
        <time>2023-10-31T09:46:23Z</time>
      </trkpt>
      <trkpt lat="42.80595" lon="-0.03506">
        <ele>1964.4</ele>
        <time>2023-10-31T09:46:24Z</time>
      </trkpt>
      <trkpt lat="42.80595" lon="-0.03507">
        <ele>1964.4</ele>
        <time>2023-10-31T09:46:25Z</time>
      </trkpt>
      <trkpt lat="42.80595" lon="-0.03507">
        <ele>1964.4</ele>
        <time>2023-10-31T09:46:26Z</time>
      </trkpt>
      <trkpt lat="42.80595" lon="-0.03508">
        <ele>1964.5</ele>
        <time>2023-10-31T09:46:27Z</time>
      </trkpt>
      <trkpt lat="42.80594" lon="-0.03509">
        <ele>1964.5</ele>
        <time>2023-10-31T09:46:28Z</time>
      </trkpt>
      <trkpt lat="42.80595" lon="-0.0351">
        <ele>1964.6</ele>
        <time>2023-10-31T09:46:29Z</time>
      </trkpt>
      <trkpt lat="42.80595" lon="-0.03511">
        <ele>1964.7</ele>
        <time>2023-10-31T09:46:30Z</time>
      </trkpt>
      <trkpt lat="42.80596" lon="-0.03511">
        <ele>1964.7</ele>
        <time>2023-10-31T09:46:31Z</time>
      </trkpt>
      <trkpt lat="42.80596" lon="-0.0351">
        <ele>1964.7</ele>
        <time>2023-10-31T09:46:32Z</time>
      </trkpt>
      <trkpt lat="42.80597" lon="-0.0351">
        <ele>1964.8</ele>
        <time>2023-10-31T09:46:33Z</time>
      </trkpt>
      <trkpt lat="42.80597" lon="-0.0351">
        <ele>1964.8</ele>
        <time>2023-10-31T09:46:34Z</time>
      </trkpt>
      <trkpt lat="42.80596" lon="-0.0351">
        <ele>1964.8</ele>
        <time>2023-10-31T09:46:35Z</time>
      </trkpt>
      <trkpt lat="42.80597" lon="-0.03511">
        <ele>1964.8</ele>
        <time>2023-10-31T09:46:36Z</time>
      </trkpt>
      <trkpt lat="42.80597" lon="-0.03511">
        <ele>1964.9</ele>
        <time>2023-10-31T09:46:37Z</time>
      </trkpt>
      <trkpt lat="42.80599" lon="-0.03511">
        <ele>1965</ele>
        <time>2023-10-31T09:46:38Z</time>
      </trkpt>
      <trkpt lat="42.80599" lon="-0.03511">
        <ele>1965</ele>
        <time>2023-10-31T09:46:39Z</time>
      </trkpt>
      <trkpt lat="42.80599" lon="-0.03511">
        <ele>1965</ele>
        <time>2023-10-31T09:46:40Z</time>
      </trkpt>
      <trkpt lat="42.80601" lon="-0.0351">
        <ele>1965.1</ele>
        <time>2023-10-31T09:46:41Z</time>
      </trkpt>
      <trkpt lat="42.80601" lon="-0.0351">
        <ele>1965.1</ele>
        <time>2023-10-31T09:46:42Z</time>
      </trkpt>
      <trkpt lat="42.80602" lon="-0.0351">
        <ele>1965.2</ele>
        <time>2023-10-31T09:46:43Z</time>
      </trkpt>
      <trkpt lat="42.80602" lon="-0.0351">
        <ele>1965.2</ele>
        <time>2023-10-31T09:46:44Z</time>
      </trkpt>
      <trkpt lat="42.80603" lon="-0.03511">
        <ele>1965.2</ele>
        <time>2023-10-31T09:46:45Z</time>
      </trkpt>
      <trkpt lat="42.80604" lon="-0.03512">
        <ele>1965.3</ele>
        <time>2023-10-31T09:46:46Z</time>
      </trkpt>
      <trkpt lat="42.80604" lon="-0.03512">
        <ele>1965.3</ele>
        <time>2023-10-31T09:46:47Z</time>
      </trkpt>
      <trkpt lat="42.80605" lon="-0.03514">
        <ele>1965.4</ele>
        <time>2023-10-31T09:46:48Z</time>
      </trkpt>
      <trkpt lat="42.80604" lon="-0.03515">
        <ele>1965.4</ele>
        <time>2023-10-31T09:46:49Z</time>
      </trkpt>
      <trkpt lat="42.80604" lon="-0.03517">
        <ele>1965.5</ele>
        <time>2023-10-31T09:46:50Z</time>
      </trkpt>
      <trkpt lat="42.80603" lon="-0.03519">
        <ele>1965.5</ele>
        <time>2023-10-31T09:46:51Z</time>
      </trkpt>
      <trkpt lat="42.80603" lon="-0.03519">
        <ele>1965.5</ele>
        <time>2023-10-31T09:46:52Z</time>
      </trkpt>
      <trkpt lat="42.80603" lon="-0.03519">
        <ele>1965.5</ele>
        <time>2023-10-31T09:46:53Z</time>
      </trkpt>
      <trkpt lat="42.80603" lon="-0.0352">
        <ele>1965.6</ele>
        <time>2023-10-31T09:46:54Z</time>
      </trkpt>
      <trkpt lat="42.80603" lon="-0.0352">
        <ele>1965.6</ele>
        <time>2023-10-31T09:46:55Z</time>
      </trkpt>
      <trkpt lat="42.80603" lon="-0.0352">
        <ele>1965.6</ele>
        <time>2023-10-31T09:46:56Z</time>
      </trkpt>
      <trkpt lat="42.80603" lon="-0.0352">
        <ele>1965.6</ele>
        <time>2023-10-31T09:46:57Z</time>
      </trkpt>
      <trkpt lat="42.80604" lon="-0.0352">
        <ele>1965.6</ele>
        <time>2023-10-31T09:46:58Z</time>
      </trkpt>
      <trkpt lat="42.80604" lon="-0.03521">
        <ele>1965.6</ele>
        <time>2023-10-31T09:46:59Z</time>
      </trkpt>
      <trkpt lat="42.80604" lon="-0.03521">
        <ele>1965.6</ele>
        <time>2023-10-31T09:47:00Z</time>
      </trkpt>
      <trkpt lat="42.80604" lon="-0.03521">
        <ele>1965.6</ele>
        <time>2023-10-31T09:47:01Z</time>
      </trkpt>
      <trkpt lat="42.80604" lon="-0.03521">
        <ele>1965.6</ele>
        <time>2023-10-31T09:47:02Z</time>
      </trkpt>
      <trkpt lat="42.80604" lon="-0.03521">
        <ele>1965.6</ele>
        <time>2023-10-31T09:47:03Z</time>
      </trkpt>
      <trkpt lat="42.80604" lon="-0.03522">
        <ele>1965.6</ele>
        <time>2023-10-31T09:47:04Z</time>
      </trkpt>
      <trkpt lat="42.80604" lon="-0.03522">
        <ele>1965.6</ele>
        <time>2023-10-31T09:47:05Z</time>
      </trkpt>
      <trkpt lat="42.80603" lon="-0.03524">
        <ele>1965.7</ele>
        <time>2023-10-31T09:47:06Z</time>
      </trkpt>
      <trkpt lat="42.80604" lon="-0.03525">
        <ele>1965.7</ele>
        <time>2023-10-31T09:47:07Z</time>
      </trkpt>
      <trkpt lat="42.80604" lon="-0.03525">
        <ele>1965.7</ele>
        <time>2023-10-31T09:47:08Z</time>
      </trkpt>
      <trkpt lat="42.80605" lon="-0.03526">
        <ele>1965.8</ele>
        <time>2023-10-31T09:47:09Z</time>
      </trkpt>
      <trkpt lat="42.80606" lon="-0.03527">
        <ele>1965.8</ele>
        <time>2023-10-31T09:47:10Z</time>
      </trkpt>
      <trkpt lat="42.80606" lon="-0.03526">
        <ele>1965.8</ele>
        <time>2023-10-31T09:47:11Z</time>
      </trkpt>
      <trkpt lat="42.80607" lon="-0.03527">
        <ele>1965.9</ele>
        <time>2023-10-31T09:47:12Z</time>
      </trkpt>
      <trkpt lat="42.80607" lon="-0.03528">
        <ele>1965.9</ele>
        <time>2023-10-31T09:47:13Z</time>
      </trkpt>
      <trkpt lat="42.80607" lon="-0.03529">
        <ele>1965.9</ele>
        <time>2023-10-31T09:47:14Z</time>
      </trkpt>
      <trkpt lat="42.80608" lon="-0.0353">
        <ele>1966</ele>
        <time>2023-10-31T09:47:15Z</time>
      </trkpt>
      <trkpt lat="42.80608" lon="-0.03531">
        <ele>1966</ele>
        <time>2023-10-31T09:47:16Z</time>
      </trkpt>
      <trkpt lat="42.80608" lon="-0.03532">
        <ele>1966</ele>
        <time>2023-10-31T09:47:17Z</time>
      </trkpt>
      <trkpt lat="42.80608" lon="-0.03533">
        <ele>1966.1</ele>
        <time>2023-10-31T09:47:18Z</time>
      </trkpt>
      <trkpt lat="42.80608" lon="-0.03534">
        <ele>1966.1</ele>
        <time>2023-10-31T09:47:19Z</time>
      </trkpt>
      <trkpt lat="42.80609" lon="-0.03534">
        <ele>1966.1</ele>
        <time>2023-10-31T09:47:20Z</time>
      </trkpt>
      <trkpt lat="42.80609" lon="-0.03534">
        <ele>1966.1</ele>
        <time>2023-10-31T09:47:21Z</time>
      </trkpt>
      <trkpt lat="42.80609" lon="-0.03536">
        <ele>1966.2</ele>
        <time>2023-10-31T09:47:22Z</time>
      </trkpt>
      <trkpt lat="42.80609" lon="-0.03537">
        <ele>1966.2</ele>
        <time>2023-10-31T09:47:23Z</time>
      </trkpt>
      <trkpt lat="42.8061" lon="-0.03538">
        <ele>1966.3</ele>
        <time>2023-10-31T09:47:24Z</time>
      </trkpt>
      <trkpt lat="42.8061" lon="-0.03539">
        <ele>1966.3</ele>
        <time>2023-10-31T09:47:25Z</time>
      </trkpt>
      <trkpt lat="42.8061" lon="-0.03539">
        <ele>1966.3</ele>
        <time>2023-10-31T09:47:26Z</time>
      </trkpt>
      <trkpt lat="42.80611" lon="-0.03542">
        <ele>1966.4</ele>
        <time>2023-10-31T09:47:27Z</time>
      </trkpt>
      <trkpt lat="42.80611" lon="-0.03543">
        <ele>1966.4</ele>
        <time>2023-10-31T09:47:28Z</time>
      </trkpt>
      <trkpt lat="42.80611" lon="-0.03544">
        <ele>1966.5</ele>
        <time>2023-10-31T09:47:29Z</time>
      </trkpt>
      <trkpt lat="42.80612" lon="-0.03545">
        <ele>1966.5</ele>
        <time>2023-10-31T09:47:30Z</time>
      </trkpt>
      <trkpt lat="42.80612" lon="-0.03546">
        <ele>1966.6</ele>
        <time>2023-10-31T09:47:31Z</time>
      </trkpt>
      <trkpt lat="42.80612" lon="-0.03546">
        <ele>1966.6</ele>
        <time>2023-10-31T09:47:32Z</time>
      </trkpt>
      <trkpt lat="42.80613" lon="-0.03547">
        <ele>1966.6</ele>
        <time>2023-10-31T09:47:33Z</time>
      </trkpt>
      <trkpt lat="42.80613" lon="-0.03548">
        <ele>1966.7</ele>
        <time>2023-10-31T09:47:34Z</time>
      </trkpt>
      <trkpt lat="42.80613" lon="-0.0355">
        <ele>1966.7</ele>
        <time>2023-10-31T09:47:35Z</time>
      </trkpt>
      <trkpt lat="42.80613" lon="-0.0355">
        <ele>1966.7</ele>
        <time>2023-10-31T09:47:36Z</time>
      </trkpt>
      <trkpt lat="42.80613" lon="-0.0355">
        <ele>1966.7</ele>
        <time>2023-10-31T09:47:37Z</time>
      </trkpt>
      <trkpt lat="42.80613" lon="-0.03551">
        <ele>1966.8</ele>
        <time>2023-10-31T09:47:38Z</time>
      </trkpt>
      <trkpt lat="42.80613" lon="-0.03551">
        <ele>1966.8</ele>
        <time>2023-10-31T09:47:39Z</time>
      </trkpt>
      <trkpt lat="42.80613" lon="-0.03551">
        <ele>1966.8</ele>
        <time>2023-10-31T09:47:40Z</time>
      </trkpt>
      <trkpt lat="42.80613" lon="-0.03552">
        <ele>1966.8</ele>
        <time>2023-10-31T09:47:41Z</time>
      </trkpt>
      <trkpt lat="42.80613" lon="-0.03552">
        <ele>1966.8</ele>
        <time>2023-10-31T09:47:42Z</time>
      </trkpt>
      <trkpt lat="42.80613" lon="-0.03552">
        <ele>1966.8</ele>
        <time>2023-10-31T09:47:43Z</time>
      </trkpt>
      <trkpt lat="42.80613" lon="-0.03552">
        <ele>1966.8</ele>
        <time>2023-10-31T09:47:44Z</time>
      </trkpt>
      <trkpt lat="42.80613" lon="-0.03553">
        <ele>1966.9</ele>
        <time>2023-10-31T09:47:45Z</time>
      </trkpt>
      <trkpt lat="42.80613" lon="-0.03553">
        <ele>1966.9</ele>
        <time>2023-10-31T09:47:46Z</time>
      </trkpt>
      <trkpt lat="42.80613" lon="-0.03553">
        <ele>1966.9</ele>
        <time>2023-10-31T09:47:47Z</time>
      </trkpt>
      <trkpt lat="42.80613" lon="-0.03554">
        <ele>1966.9</ele>
        <time>2023-10-31T09:47:48Z</time>
      </trkpt>
      <trkpt lat="42.80613" lon="-0.03554">
        <ele>1966.9</ele>
        <time>2023-10-31T09:47:49Z</time>
      </trkpt>
      <trkpt lat="42.80613" lon="-0.03554">
        <ele>1966.9</ele>
        <time>2023-10-31T09:47:50Z</time>
      </trkpt>
      <trkpt lat="42.80613" lon="-0.03552">
        <ele>1967</ele>
        <time>2023-10-31T09:47:51Z</time>
      </trkpt>
      <trkpt lat="42.80613" lon="-0.03552">
        <ele>1967</ele>
        <time>2023-10-31T09:47:52Z</time>
      </trkpt>
      <trkpt lat="42.80613" lon="-0.03552">
        <ele>1967</ele>
        <time>2023-10-31T09:47:53Z</time>
      </trkpt>
      <trkpt lat="42.80613" lon="-0.03553">
        <ele>1967</ele>
        <time>2023-10-31T09:47:54Z</time>
      </trkpt>
      <trkpt lat="42.80613" lon="-0.03553">
        <ele>1967</ele>
        <time>2023-10-31T09:47:55Z</time>
      </trkpt>
      <trkpt lat="42.80613" lon="-0.03554">
        <ele>1967.1</ele>
        <time>2023-10-31T09:47:56Z</time>
      </trkpt>
      <trkpt lat="42.80614" lon="-0.03554">
        <ele>1967.2</ele>
        <time>2023-10-31T09:47:57Z</time>
      </trkpt>
      <trkpt lat="42.80615" lon="-0.03554">
        <ele>1967.2</ele>
        <time>2023-10-31T09:47:58Z</time>
      </trkpt>
      <trkpt lat="42.80616" lon="-0.03555">
        <ele>1967.3</ele>
        <time>2023-10-31T09:47:59Z</time>
      </trkpt>
      <trkpt lat="42.80616" lon="-0.03557">
        <ele>1967.4</ele>
        <time>2023-10-31T09:48:00Z</time>
      </trkpt>
      <trkpt lat="42.80616" lon="-0.03558">
        <ele>1967.4</ele>
        <time>2023-10-31T09:48:01Z</time>
      </trkpt>
      <trkpt lat="42.80616" lon="-0.03559">
        <ele>1967.5</ele>
        <time>2023-10-31T09:48:02Z</time>
      </trkpt>
      <trkpt lat="42.80616" lon="-0.0356">
        <ele>1967.5</ele>
        <time>2023-10-31T09:48:03Z</time>
      </trkpt>
      <trkpt lat="42.80616" lon="-0.03561">
        <ele>1967.6</ele>
        <time>2023-10-31T09:48:04Z</time>
      </trkpt>
      <trkpt lat="42.80616" lon="-0.03562">
        <ele>1967.6</ele>
        <time>2023-10-31T09:48:05Z</time>
      </trkpt>
      <trkpt lat="42.80616" lon="-0.03562">
        <ele>1967.6</ele>
        <time>2023-10-31T09:48:06Z</time>
      </trkpt>
      <trkpt lat="42.80616" lon="-0.03562">
        <ele>1967.6</ele>
        <time>2023-10-31T09:48:07Z</time>
      </trkpt>
      <trkpt lat="42.80616" lon="-0.03563">
        <ele>1967.7</ele>
        <time>2023-10-31T09:48:08Z</time>
      </trkpt>
      <trkpt lat="42.80616" lon="-0.03563">
        <ele>1967.7</ele>
        <time>2023-10-31T09:48:09Z</time>
      </trkpt>
      <trkpt lat="42.80616" lon="-0.03563">
        <ele>1967.7</ele>
        <time>2023-10-31T09:48:10Z</time>
      </trkpt>
      <trkpt lat="42.80616" lon="-0.03563">
        <ele>1967.7</ele>
        <time>2023-10-31T09:48:11Z</time>
      </trkpt>
      <trkpt lat="42.80616" lon="-0.03565">
        <ele>1967.8</ele>
        <time>2023-10-31T09:48:12Z</time>
      </trkpt>
      <trkpt lat="42.80616" lon="-0.03565">
        <ele>1967.8</ele>
        <time>2023-10-31T09:48:13Z</time>
      </trkpt>
      <trkpt lat="42.80616" lon="-0.03565">
        <ele>1967.8</ele>
        <time>2023-10-31T09:48:14Z</time>
      </trkpt>
      <trkpt lat="42.80616" lon="-0.03565">
        <ele>1967.9</ele>
        <time>2023-10-31T09:48:15Z</time>
      </trkpt>
      <trkpt lat="42.80616" lon="-0.03565">
        <ele>1967.9</ele>
        <time>2023-10-31T09:48:16Z</time>
      </trkpt>
      <trkpt lat="42.80616" lon="-0.03565">
        <ele>1967.9</ele>
        <time>2023-10-31T09:48:17Z</time>
      </trkpt>
      <trkpt lat="42.80616" lon="-0.03565">
        <ele>1967.9</ele>
        <time>2023-10-31T09:48:18Z</time>
      </trkpt>
      <trkpt lat="42.80616" lon="-0.03565">
        <ele>1967.9</ele>
        <time>2023-10-31T09:48:19Z</time>
      </trkpt>
      <trkpt lat="42.80616" lon="-0.03565">
        <ele>1967.9</ele>
        <time>2023-10-31T09:48:20Z</time>
      </trkpt>
      <trkpt lat="42.80616" lon="-0.03566">
        <ele>1967.9</ele>
        <time>2023-10-31T09:48:21Z</time>
      </trkpt>
      <trkpt lat="42.80615" lon="-0.03568">
        <ele>1968</ele>
        <time>2023-10-31T09:48:22Z</time>
      </trkpt>
      <trkpt lat="42.80615" lon="-0.03568">
        <ele>1968.1</ele>
        <time>2023-10-31T09:48:23Z</time>
      </trkpt>
      <trkpt lat="42.80614" lon="-0.0357">
        <ele>1968.2</ele>
        <time>2023-10-31T09:48:24Z</time>
      </trkpt>
      <trkpt lat="42.80614" lon="-0.03571">
        <ele>1968.3</ele>
        <time>2023-10-31T09:48:25Z</time>
      </trkpt>
      <trkpt lat="42.80614" lon="-0.03572">
        <ele>1968.3</ele>
        <time>2023-10-31T09:48:26Z</time>
      </trkpt>
      <trkpt lat="42.80614" lon="-0.03573">
        <ele>1968.4</ele>
        <time>2023-10-31T09:48:27Z</time>
      </trkpt>
      <trkpt lat="42.80614" lon="-0.03574">
        <ele>1968.4</ele>
        <time>2023-10-31T09:48:28Z</time>
      </trkpt>
      <trkpt lat="42.80614" lon="-0.03574">
        <ele>1968.4</ele>
        <time>2023-10-31T09:48:29Z</time>
      </trkpt>
      <trkpt lat="42.80613" lon="-0.03577">
        <ele>1968.6</ele>
        <time>2023-10-31T09:48:30Z</time>
      </trkpt>
      <trkpt lat="42.80613" lon="-0.03577">
        <ele>1968.7</ele>
        <time>2023-10-31T09:48:31Z</time>
      </trkpt>
      <trkpt lat="42.80612" lon="-0.03577">
        <ele>1968.7</ele>
        <time>2023-10-31T09:48:32Z</time>
      </trkpt>
      <trkpt lat="42.80612" lon="-0.03578">
        <ele>1968.8</ele>
        <time>2023-10-31T09:48:33Z</time>
      </trkpt>
      <trkpt lat="42.80612" lon="-0.0358">
        <ele>1968.8</ele>
        <time>2023-10-31T09:48:34Z</time>
      </trkpt>
      <trkpt lat="42.80611" lon="-0.03581">
        <ele>1968.9</ele>
        <time>2023-10-31T09:48:35Z</time>
      </trkpt>
      <trkpt lat="42.80611" lon="-0.03582">
        <ele>1969</ele>
        <time>2023-10-31T09:48:36Z</time>
      </trkpt>
      <trkpt lat="42.80612" lon="-0.03583">
        <ele>1969</ele>
        <time>2023-10-31T09:48:37Z</time>
      </trkpt>
      <trkpt lat="42.80612" lon="-0.03585">
        <ele>1969.1</ele>
        <time>2023-10-31T09:48:38Z</time>
      </trkpt>
      <trkpt lat="42.80612" lon="-0.03585">
        <ele>1969.2</ele>
        <time>2023-10-31T09:48:39Z</time>
      </trkpt>
      <trkpt lat="42.80612" lon="-0.03586">
        <ele>1969.2</ele>
        <time>2023-10-31T09:48:40Z</time>
      </trkpt>
      <trkpt lat="42.80611" lon="-0.03587">
        <ele>1969.3</ele>
        <time>2023-10-31T09:48:41Z</time>
      </trkpt>
      <trkpt lat="42.80612" lon="-0.03587">
        <ele>1969.3</ele>
        <time>2023-10-31T09:48:42Z</time>
      </trkpt>
      <trkpt lat="42.80612" lon="-0.03589">
        <ele>1969.4</ele>
        <time>2023-10-31T09:48:43Z</time>
      </trkpt>
      <trkpt lat="42.80611" lon="-0.0359">
        <ele>1969.5</ele>
        <time>2023-10-31T09:48:44Z</time>
      </trkpt>
      <trkpt lat="42.80611" lon="-0.03591">
        <ele>1969.5</ele>
        <time>2023-10-31T09:48:45Z</time>
      </trkpt>
      <trkpt lat="42.80611" lon="-0.03592">
        <ele>1969.6</ele>
        <time>2023-10-31T09:48:46Z</time>
      </trkpt>
      <trkpt lat="42.8061" lon="-0.03593">
        <ele>1969.6</ele>
        <time>2023-10-31T09:48:47Z</time>
      </trkpt>
      <trkpt lat="42.8061" lon="-0.03594">
        <ele>1969.7</ele>
        <time>2023-10-31T09:48:48Z</time>
      </trkpt>
      <trkpt lat="42.8061" lon="-0.03594">
        <ele>1969.7</ele>
        <time>2023-10-31T09:48:49Z</time>
      </trkpt>
      <trkpt lat="42.8061" lon="-0.03595">
        <ele>1969.7</ele>
        <time>2023-10-31T09:48:50Z</time>
      </trkpt>
      <trkpt lat="42.8061" lon="-0.03596">
        <ele>1969.8</ele>
        <time>2023-10-31T09:48:51Z</time>
      </trkpt>
      <trkpt lat="42.8061" lon="-0.03597">
        <ele>1969.9</ele>
        <time>2023-10-31T09:48:52Z</time>
      </trkpt>
      <trkpt lat="42.80611" lon="-0.03598">
        <ele>1969.9</ele>
        <time>2023-10-31T09:48:53Z</time>
      </trkpt>
      <trkpt lat="42.80611" lon="-0.03599">
        <ele>1970</ele>
        <time>2023-10-31T09:48:54Z</time>
      </trkpt>
      <trkpt lat="42.80611" lon="-0.03599">
        <ele>1970</ele>
        <time>2023-10-31T09:48:55Z</time>
      </trkpt>
      <trkpt lat="42.80611" lon="-0.036">
        <ele>1970.1</ele>
        <time>2023-10-31T09:48:56Z</time>
      </trkpt>
      <trkpt lat="42.8061" lon="-0.03601">
        <ele>1970.1</ele>
        <time>2023-10-31T09:48:57Z</time>
      </trkpt>
      <trkpt lat="42.8061" lon="-0.03602">
        <ele>1970.1</ele>
        <time>2023-10-31T09:48:58Z</time>
      </trkpt>
      <trkpt lat="42.8061" lon="-0.03601">
        <ele>1970.2</ele>
        <time>2023-10-31T09:48:59Z</time>
      </trkpt>
      <trkpt lat="42.8061" lon="-0.03601">
        <ele>1970.2</ele>
        <time>2023-10-31T09:49:00Z</time>
      </trkpt>
      <trkpt lat="42.8061" lon="-0.03601">
        <ele>1970.2</ele>
        <time>2023-10-31T09:49:01Z</time>
      </trkpt>
      <trkpt lat="42.8061" lon="-0.03601">
        <ele>1970.2</ele>
        <time>2023-10-31T09:49:02Z</time>
      </trkpt>
      <trkpt lat="42.8061" lon="-0.03602">
        <ele>1970.2</ele>
        <time>2023-10-31T09:49:03Z</time>
      </trkpt>
      <trkpt lat="42.8061" lon="-0.03602">
        <ele>1970.2</ele>
        <time>2023-10-31T09:49:04Z</time>
      </trkpt>
      <trkpt lat="42.8061" lon="-0.03601">
        <ele>1970.3</ele>
        <time>2023-10-31T09:49:05Z</time>
      </trkpt>
      <trkpt lat="42.8061" lon="-0.03601">
        <ele>1970.3</ele>
        <time>2023-10-31T09:49:06Z</time>
      </trkpt>
      <trkpt lat="42.80611" lon="-0.03602">
        <ele>1970.3</ele>
        <time>2023-10-31T09:49:07Z</time>
      </trkpt>
      <trkpt lat="42.80611" lon="-0.03603">
        <ele>1970.4</ele>
        <time>2023-10-31T09:49:08Z</time>
      </trkpt>
      <trkpt lat="42.80611" lon="-0.03604">
        <ele>1970.4</ele>
        <time>2023-10-31T09:49:09Z</time>
      </trkpt>
      <trkpt lat="42.80612" lon="-0.03606">
        <ele>1970.5</ele>
        <time>2023-10-31T09:49:10Z</time>
      </trkpt>
      <trkpt lat="42.80612" lon="-0.03607">
        <ele>1970.6</ele>
        <time>2023-10-31T09:49:11Z</time>
      </trkpt>
      <trkpt lat="42.80612" lon="-0.03608">
        <ele>1970.6</ele>
        <time>2023-10-31T09:49:12Z</time>
      </trkpt>
      <trkpt lat="42.80613" lon="-0.03609">
        <ele>1970.6</ele>
        <time>2023-10-31T09:49:13Z</time>
      </trkpt>
      <trkpt lat="42.80613" lon="-0.03612">
        <ele>1970.6</ele>
        <time>2023-10-31T09:49:14Z</time>
      </trkpt>
      <trkpt lat="42.80613" lon="-0.03613">
        <ele>1970.6</ele>
        <time>2023-10-31T09:49:15Z</time>
      </trkpt>
      <trkpt lat="42.80613" lon="-0.03614">
        <ele>1970.7</ele>
        <time>2023-10-31T09:49:16Z</time>
      </trkpt>
      <trkpt lat="42.80611" lon="-0.03618">
        <ele>1970.7</ele>
        <time>2023-10-31T09:49:17Z</time>
      </trkpt>
      <trkpt lat="42.80611" lon="-0.0362">
        <ele>1970.7</ele>
        <time>2023-10-31T09:49:18Z</time>
      </trkpt>
      <trkpt lat="42.80612" lon="-0.03621">
        <ele>1970.7</ele>
        <time>2023-10-31T09:49:19Z</time>
      </trkpt>
      <trkpt lat="42.80612" lon="-0.03622">
        <ele>1970.7</ele>
        <time>2023-10-31T09:49:20Z</time>
      </trkpt>
      <trkpt lat="42.80612" lon="-0.03623">
        <ele>1970.7</ele>
        <time>2023-10-31T09:49:21Z</time>
      </trkpt>
      <trkpt lat="42.80612" lon="-0.03623">
        <ele>1970.7</ele>
        <time>2023-10-31T09:49:22Z</time>
      </trkpt>
      <trkpt lat="42.80613" lon="-0.03624">
        <ele>1970.7</ele>
        <time>2023-10-31T09:49:23Z</time>
      </trkpt>
      <trkpt lat="42.80613" lon="-0.03625">
        <ele>1970.7</ele>
        <time>2023-10-31T09:49:24Z</time>
      </trkpt>
      <trkpt lat="42.80612" lon="-0.03626">
        <ele>1970.7</ele>
        <time>2023-10-31T09:49:25Z</time>
      </trkpt>
      <trkpt lat="42.80611" lon="-0.03627">
        <ele>1970.7</ele>
        <time>2023-10-31T09:49:26Z</time>
      </trkpt>
      <trkpt lat="42.8061" lon="-0.03627">
        <ele>1970.7</ele>
        <time>2023-10-31T09:49:27Z</time>
      </trkpt>
      <trkpt lat="42.8061" lon="-0.03627">
        <ele>1970.7</ele>
        <time>2023-10-31T09:49:28Z</time>
      </trkpt>
      <trkpt lat="42.80611" lon="-0.03626">
        <ele>1970.7</ele>
        <time>2023-10-31T09:49:29Z</time>
      </trkpt>
      <trkpt lat="42.8061" lon="-0.03626">
        <ele>1970.7</ele>
        <time>2023-10-31T09:49:30Z</time>
      </trkpt>
      <trkpt lat="42.80611" lon="-0.03627">
        <ele>1970.7</ele>
        <time>2023-10-31T09:49:31Z</time>
      </trkpt>
      <trkpt lat="42.80611" lon="-0.03627">
        <ele>1970.7</ele>
        <time>2023-10-31T09:49:32Z</time>
      </trkpt>
      <trkpt lat="42.80611" lon="-0.03626">
        <ele>1970.7</ele>
        <time>2023-10-31T09:49:33Z</time>
      </trkpt>
      <trkpt lat="42.80611" lon="-0.03627">
        <ele>1970.7</ele>
        <time>2023-10-31T09:49:34Z</time>
      </trkpt>
      <trkpt lat="42.80612" lon="-0.03627">
        <ele>1970.7</ele>
        <time>2023-10-31T09:49:35Z</time>
      </trkpt>
      <trkpt lat="42.80612" lon="-0.03628">
        <ele>1970.8</ele>
        <time>2023-10-31T09:49:36Z</time>
      </trkpt>
      <trkpt lat="42.80612" lon="-0.03628">
        <ele>1970.8</ele>
        <time>2023-10-31T09:49:37Z</time>
      </trkpt>
      <trkpt lat="42.80612" lon="-0.03628">
        <ele>1970.8</ele>
        <time>2023-10-31T09:49:38Z</time>
      </trkpt>
      <trkpt lat="42.80612" lon="-0.03627">
        <ele>1970.8</ele>
        <time>2023-10-31T09:49:39Z</time>
      </trkpt>
      <trkpt lat="42.80612" lon="-0.03627">
        <ele>1970.8</ele>
        <time>2023-10-31T09:49:40Z</time>
      </trkpt>
      <trkpt lat="42.80612" lon="-0.03627">
        <ele>1970.8</ele>
        <time>2023-10-31T09:49:41Z</time>
      </trkpt>
      <trkpt lat="42.80612" lon="-0.03628">
        <ele>1970.8</ele>
        <time>2023-10-31T09:49:42Z</time>
      </trkpt>
      <trkpt lat="42.80612" lon="-0.03628">
        <ele>1970.8</ele>
        <time>2023-10-31T09:49:43Z</time>
      </trkpt>
      <trkpt lat="42.80612" lon="-0.03628">
        <ele>1970.8</ele>
        <time>2023-10-31T09:49:44Z</time>
      </trkpt>
      <trkpt lat="42.80612" lon="-0.03628">
        <ele>1970.8</ele>
        <time>2023-10-31T09:49:45Z</time>
      </trkpt>
      <trkpt lat="42.80611" lon="-0.03628">
        <ele>1970.8</ele>
        <time>2023-10-31T09:49:46Z</time>
      </trkpt>
      <trkpt lat="42.80611" lon="-0.03628">
        <ele>1970.8</ele>
        <time>2023-10-31T09:49:47Z</time>
      </trkpt>
      <trkpt lat="42.8061" lon="-0.03628">
        <ele>1970.8</ele>
        <time>2023-10-31T09:49:48Z</time>
      </trkpt>
      <trkpt lat="42.8061" lon="-0.03628">
        <ele>1970.8</ele>
        <time>2023-10-31T09:49:49Z</time>
      </trkpt>
      <trkpt lat="42.80609" lon="-0.03628">
        <ele>1970.8</ele>
        <time>2023-10-31T09:49:50Z</time>
      </trkpt>
      <trkpt lat="42.80608" lon="-0.03628">
        <ele>1970.8</ele>
        <time>2023-10-31T09:49:51Z</time>
      </trkpt>
      <trkpt lat="42.80607" lon="-0.03628">
        <ele>1970.9</ele>
        <time>2023-10-31T09:49:52Z</time>
      </trkpt>
      <trkpt lat="42.80606" lon="-0.03629">
        <ele>1970.9</ele>
        <time>2023-10-31T09:49:53Z</time>
      </trkpt>
      <trkpt lat="42.80605" lon="-0.0363">
        <ele>1970.9</ele>
        <time>2023-10-31T09:49:54Z</time>
      </trkpt>
      <trkpt lat="42.80604" lon="-0.0363">
        <ele>1970.9</ele>
        <time>2023-10-31T09:49:55Z</time>
      </trkpt>
      <trkpt lat="42.80603" lon="-0.0363">
        <ele>1971</ele>
        <time>2023-10-31T09:49:56Z</time>
      </trkpt>
      <trkpt lat="42.80602" lon="-0.0363">
        <ele>1971</ele>
        <time>2023-10-31T09:49:58Z</time>
      </trkpt>
      <trkpt lat="42.80601" lon="-0.03629">
        <ele>1971</ele>
        <time>2023-10-31T09:49:59Z</time>
      </trkpt>
      <trkpt lat="42.806" lon="-0.0363">
        <ele>1971</ele>
        <time>2023-10-31T09:50:00Z</time>
      </trkpt>
      <trkpt lat="42.80599" lon="-0.0363">
        <ele>1971</ele>
        <time>2023-10-31T09:50:01Z</time>
      </trkpt>
      <trkpt lat="42.80599" lon="-0.03632">
        <ele>1971.1</ele>
        <time>2023-10-31T09:50:02Z</time>
      </trkpt>
      <trkpt lat="42.806" lon="-0.03633">
        <ele>1971.1</ele>
        <time>2023-10-31T09:50:03Z</time>
      </trkpt>
      <trkpt lat="42.80601" lon="-0.03634">
        <ele>1971.1</ele>
        <time>2023-10-31T09:50:04Z</time>
      </trkpt>
      <trkpt lat="42.80602" lon="-0.03636">
        <ele>1971.1</ele>
        <time>2023-10-31T09:50:05Z</time>
      </trkpt>
      <trkpt lat="42.80603" lon="-0.03639">
        <ele>1971.1</ele>
        <time>2023-10-31T09:50:06Z</time>
      </trkpt>
      <trkpt lat="42.80604" lon="-0.0364">
        <ele>1971.2</ele>
        <time>2023-10-31T09:50:07Z</time>
      </trkpt>
      <trkpt lat="42.80604" lon="-0.03642">
        <ele>1971.2</ele>
        <time>2023-10-31T09:50:08Z</time>
      </trkpt>
      <trkpt lat="42.80605" lon="-0.03644">
        <ele>1971.2</ele>
        <time>2023-10-31T09:50:09Z</time>
      </trkpt>
      <trkpt lat="42.80605" lon="-0.03646">
        <ele>1971.2</ele>
        <time>2023-10-31T09:50:10Z</time>
      </trkpt>
      <trkpt lat="42.80604" lon="-0.03647">
        <ele>1971.2</ele>
        <time>2023-10-31T09:50:11Z</time>
      </trkpt>
      <trkpt lat="42.80606" lon="-0.03648">
        <ele>1971.2</ele>
        <time>2023-10-31T09:50:12Z</time>
      </trkpt>
      <trkpt lat="42.80606" lon="-0.0365">
        <ele>1971.2</ele>
        <time>2023-10-31T09:50:13Z</time>
      </trkpt>
      <trkpt lat="42.80606" lon="-0.03652">
        <ele>1971.2</ele>
        <time>2023-10-31T09:50:14Z</time>
      </trkpt>
      <trkpt lat="42.80606" lon="-0.03653">
        <ele>1971.2</ele>
        <time>2023-10-31T09:50:15Z</time>
      </trkpt>
      <trkpt lat="42.80606" lon="-0.03655">
        <ele>1971.2</ele>
        <time>2023-10-31T09:50:16Z</time>
      </trkpt>
      <trkpt lat="42.80606" lon="-0.03656">
        <ele>1971.2</ele>
        <time>2023-10-31T09:50:17Z</time>
      </trkpt>
      <trkpt lat="42.80606" lon="-0.03657">
        <ele>1971.2</ele>
        <time>2023-10-31T09:50:18Z</time>
      </trkpt>
      <trkpt lat="42.80606" lon="-0.03657">
        <ele>1971.2</ele>
        <time>2023-10-31T09:50:19Z</time>
      </trkpt>
      <trkpt lat="42.80606" lon="-0.03657">
        <ele>1971.2</ele>
        <time>2023-10-31T09:50:20Z</time>
      </trkpt>
      <trkpt lat="42.80606" lon="-0.03659">
        <ele>1971.2</ele>
        <time>2023-10-31T09:50:21Z</time>
      </trkpt>
      <trkpt lat="42.80606" lon="-0.03661">
        <ele>1971.2</ele>
        <time>2023-10-31T09:50:22Z</time>
      </trkpt>
      <trkpt lat="42.80607" lon="-0.03662">
        <ele>1971.2</ele>
        <time>2023-10-31T09:50:23Z</time>
      </trkpt>
      <trkpt lat="42.80607" lon="-0.03663">
        <ele>1971.2</ele>
        <time>2023-10-31T09:50:24Z</time>
      </trkpt>
      <trkpt lat="42.80607" lon="-0.03665">
        <ele>1971.2</ele>
        <time>2023-10-31T09:50:25Z</time>
      </trkpt>
      <trkpt lat="42.80607" lon="-0.03666">
        <ele>1971.2</ele>
        <time>2023-10-31T09:50:26Z</time>
      </trkpt>
      <trkpt lat="42.80608" lon="-0.03667">
        <ele>1971.2</ele>
        <time>2023-10-31T09:50:27Z</time>
      </trkpt>
      <trkpt lat="42.80607" lon="-0.03668">
        <ele>1971.2</ele>
        <time>2023-10-31T09:50:28Z</time>
      </trkpt>
      <trkpt lat="42.80606" lon="-0.03668">
        <ele>1971.2</ele>
        <time>2023-10-31T09:50:29Z</time>
      </trkpt>
      <trkpt lat="42.80605" lon="-0.03669">
        <ele>1971.2</ele>
        <time>2023-10-31T09:50:30Z</time>
      </trkpt>
      <trkpt lat="42.80606" lon="-0.03668">
        <ele>1971.2</ele>
        <time>2023-10-31T09:50:31Z</time>
      </trkpt>
      <trkpt lat="42.80606" lon="-0.03668">
        <ele>1971.2</ele>
        <time>2023-10-31T09:50:32Z</time>
      </trkpt>
      <trkpt lat="42.80606" lon="-0.03669">
        <ele>1971.2</ele>
        <time>2023-10-31T09:50:33Z</time>
      </trkpt>
      <trkpt lat="42.80606" lon="-0.03669">
        <ele>1971.2</ele>
        <time>2023-10-31T09:50:34Z</time>
      </trkpt>
      <trkpt lat="42.80606" lon="-0.03669">
        <ele>1971.2</ele>
        <time>2023-10-31T09:50:35Z</time>
      </trkpt>
      <trkpt lat="42.80606" lon="-0.0367">
        <ele>1971.2</ele>
        <time>2023-10-31T09:50:36Z</time>
      </trkpt>
      <trkpt lat="42.80606" lon="-0.03672">
        <ele>1971.2</ele>
        <time>2023-10-31T09:50:37Z</time>
      </trkpt>
      <trkpt lat="42.80606" lon="-0.03673">
        <ele>1971.2</ele>
        <time>2023-10-31T09:50:38Z</time>
      </trkpt>
      <trkpt lat="42.80605" lon="-0.03674">
        <ele>1971.2</ele>
        <time>2023-10-31T09:50:39Z</time>
      </trkpt>
      <trkpt lat="42.80605" lon="-0.03675">
        <ele>1971.2</ele>
        <time>2023-10-31T09:50:40Z</time>
      </trkpt>
      <trkpt lat="42.80605" lon="-0.03677">
        <ele>1971.2</ele>
        <time>2023-10-31T09:50:41Z</time>
      </trkpt>
      <trkpt lat="42.80605" lon="-0.03678">
        <ele>1971.2</ele>
        <time>2023-10-31T09:50:42Z</time>
      </trkpt>
      <trkpt lat="42.80605" lon="-0.03679">
        <ele>1971.2</ele>
        <time>2023-10-31T09:50:43Z</time>
      </trkpt>
      <trkpt lat="42.80604" lon="-0.0368">
        <ele>1971.2</ele>
        <time>2023-10-31T09:50:44Z</time>
      </trkpt>
      <trkpt lat="42.80604" lon="-0.03682">
        <ele>1971.2</ele>
        <time>2023-10-31T09:50:45Z</time>
      </trkpt>
      <trkpt lat="42.80605" lon="-0.03684">
        <ele>1971.2</ele>
        <time>2023-10-31T09:50:46Z</time>
      </trkpt>
      <trkpt lat="42.80605" lon="-0.03685">
        <ele>1971.3</ele>
        <time>2023-10-31T09:50:47Z</time>
      </trkpt>
      <trkpt lat="42.80604" lon="-0.03686">
        <ele>1971.3</ele>
        <time>2023-10-31T09:50:48Z</time>
      </trkpt>
      <trkpt lat="42.80604" lon="-0.03687">
        <ele>1971.3</ele>
        <time>2023-10-31T09:50:49Z</time>
      </trkpt>
      <trkpt lat="42.80603" lon="-0.03688">
        <ele>1971.3</ele>
        <time>2023-10-31T09:50:50Z</time>
      </trkpt>
      <trkpt lat="42.80603" lon="-0.03691">
        <ele>1971.3</ele>
        <time>2023-10-31T09:50:51Z</time>
      </trkpt>
      <trkpt lat="42.80602" lon="-0.03693">
        <ele>1971.3</ele>
        <time>2023-10-31T09:50:52Z</time>
      </trkpt>
      <trkpt lat="42.80601" lon="-0.03695">
        <ele>1971.3</ele>
        <time>2023-10-31T09:50:53Z</time>
      </trkpt>
      <trkpt lat="42.80601" lon="-0.03696">
        <ele>1971.3</ele>
        <time>2023-10-31T09:50:54Z</time>
      </trkpt>
      <trkpt lat="42.80601" lon="-0.03696">
        <ele>1971.3</ele>
        <time>2023-10-31T09:50:55Z</time>
      </trkpt>
      <trkpt lat="42.80601" lon="-0.03697">
        <ele>1971.3</ele>
        <time>2023-10-31T09:50:56Z</time>
      </trkpt>
      <trkpt lat="42.80601" lon="-0.03697">
        <ele>1971.3</ele>
        <time>2023-10-31T09:50:57Z</time>
      </trkpt>
      <trkpt lat="42.80601" lon="-0.03698">
        <ele>1971.3</ele>
        <time>2023-10-31T09:50:58Z</time>
      </trkpt>
      <trkpt lat="42.806" lon="-0.03698">
        <ele>1971.3</ele>
        <time>2023-10-31T09:50:59Z</time>
      </trkpt>
      <trkpt lat="42.806" lon="-0.03699">
        <ele>1971.3</ele>
        <time>2023-10-31T09:51:00Z</time>
      </trkpt>
      <trkpt lat="42.806" lon="-0.037">
        <ele>1971.3</ele>
        <time>2023-10-31T09:51:01Z</time>
      </trkpt>
      <trkpt lat="42.80599" lon="-0.03703">
        <ele>1971.3</ele>
        <time>2023-10-31T09:51:02Z</time>
      </trkpt>
      <trkpt lat="42.80599" lon="-0.03705">
        <ele>1971.3</ele>
        <time>2023-10-31T09:51:03Z</time>
      </trkpt>
      <trkpt lat="42.80599" lon="-0.03706">
        <ele>1971.3</ele>
        <time>2023-10-31T09:51:04Z</time>
      </trkpt>
      <trkpt lat="42.80599" lon="-0.03708">
        <ele>1971.3</ele>
        <time>2023-10-31T09:51:05Z</time>
      </trkpt>
      <trkpt lat="42.80598" lon="-0.0371">
        <ele>1971.3</ele>
        <time>2023-10-31T09:51:06Z</time>
      </trkpt>
      <trkpt lat="42.80599" lon="-0.03711">
        <ele>1971.3</ele>
        <time>2023-10-31T09:51:07Z</time>
      </trkpt>
      <trkpt lat="42.80598" lon="-0.03712">
        <ele>1971.3</ele>
        <time>2023-10-31T09:51:08Z</time>
      </trkpt>
      <trkpt lat="42.80598" lon="-0.03713">
        <ele>1971.3</ele>
        <time>2023-10-31T09:51:09Z</time>
      </trkpt>
      <trkpt lat="42.80598" lon="-0.03715">
        <ele>1971.3</ele>
        <time>2023-10-31T09:51:10Z</time>
      </trkpt>
      <trkpt lat="42.80598" lon="-0.03716">
        <ele>1971.3</ele>
        <time>2023-10-31T09:51:11Z</time>
      </trkpt>
      <trkpt lat="42.80597" lon="-0.03718">
        <ele>1971.3</ele>
        <time>2023-10-31T09:51:12Z</time>
      </trkpt>
      <trkpt lat="42.80597" lon="-0.03719">
        <ele>1971.3</ele>
        <time>2023-10-31T09:51:13Z</time>
      </trkpt>
      <trkpt lat="42.80596" lon="-0.03721">
        <ele>1971.2</ele>
        <time>2023-10-31T09:51:14Z</time>
      </trkpt>
      <trkpt lat="42.80597" lon="-0.03722">
        <ele>1971.2</ele>
        <time>2023-10-31T09:51:15Z</time>
      </trkpt>
      <trkpt lat="42.80597" lon="-0.03724">
        <ele>1971.2</ele>
        <time>2023-10-31T09:51:16Z</time>
      </trkpt>
      <trkpt lat="42.80597" lon="-0.03725">
        <ele>1971.2</ele>
        <time>2023-10-31T09:51:17Z</time>
      </trkpt>
      <trkpt lat="42.80597" lon="-0.03726">
        <ele>1971.2</ele>
        <time>2023-10-31T09:51:18Z</time>
      </trkpt>
      <trkpt lat="42.80597" lon="-0.03727">
        <ele>1971.2</ele>
        <time>2023-10-31T09:51:19Z</time>
      </trkpt>
      <trkpt lat="42.80597" lon="-0.03729">
        <ele>1971.1</ele>
        <time>2023-10-31T09:51:20Z</time>
      </trkpt>
      <trkpt lat="42.80597" lon="-0.0373">
        <ele>1971.1</ele>
        <time>2023-10-31T09:51:21Z</time>
      </trkpt>
      <trkpt lat="42.80597" lon="-0.03731">
        <ele>1971.1</ele>
        <time>2023-10-31T09:51:22Z</time>
      </trkpt>
      <trkpt lat="42.80597" lon="-0.03732">
        <ele>1971.1</ele>
        <time>2023-10-31T09:51:23Z</time>
      </trkpt>
      <trkpt lat="42.80597" lon="-0.03733">
        <ele>1971.1</ele>
        <time>2023-10-31T09:51:24Z</time>
      </trkpt>
      <trkpt lat="42.80596" lon="-0.03734">
        <ele>1971.1</ele>
        <time>2023-10-31T09:51:25Z</time>
      </trkpt>
      <trkpt lat="42.80596" lon="-0.03736">
        <ele>1971.1</ele>
        <time>2023-10-31T09:51:26Z</time>
      </trkpt>
      <trkpt lat="42.80596" lon="-0.03737">
        <ele>1971</ele>
        <time>2023-10-31T09:51:27Z</time>
      </trkpt>
      <trkpt lat="42.80595" lon="-0.03739">
        <ele>1971</ele>
        <time>2023-10-31T09:51:28Z</time>
      </trkpt>
      <trkpt lat="42.80595" lon="-0.03739">
        <ele>1971</ele>
        <time>2023-10-31T09:51:29Z</time>
      </trkpt>
      <trkpt lat="42.80595" lon="-0.03741">
        <ele>1971</ele>
        <time>2023-10-31T09:51:30Z</time>
      </trkpt>
      <trkpt lat="42.80595" lon="-0.03742">
        <ele>1971</ele>
        <time>2023-10-31T09:51:31Z</time>
      </trkpt>
      <trkpt lat="42.80595" lon="-0.03742">
        <ele>1971</ele>
        <time>2023-10-31T09:51:32Z</time>
      </trkpt>
      <trkpt lat="42.80595" lon="-0.03742">
        <ele>1971</ele>
        <time>2023-10-31T09:51:33Z</time>
      </trkpt>
      <trkpt lat="42.80595" lon="-0.03741">
        <ele>1971</ele>
        <time>2023-10-31T09:51:34Z</time>
      </trkpt>
      <trkpt lat="42.80594" lon="-0.03741">
        <ele>1970.9</ele>
        <time>2023-10-31T09:51:35Z</time>
      </trkpt>
      <trkpt lat="42.80594" lon="-0.03741">
        <ele>1970.9</ele>
        <time>2023-10-31T09:51:36Z</time>
      </trkpt>
      <trkpt lat="42.80595" lon="-0.03742">
        <ele>1970.9</ele>
        <time>2023-10-31T09:51:37Z</time>
      </trkpt>
      <trkpt lat="42.80596" lon="-0.03743">
        <ele>1970.9</ele>
        <time>2023-10-31T09:51:38Z</time>
      </trkpt>
      <trkpt lat="42.80596" lon="-0.03744">
        <ele>1970.9</ele>
        <time>2023-10-31T09:51:39Z</time>
      </trkpt>
      <trkpt lat="42.80596" lon="-0.03746">
        <ele>1970.9</ele>
        <time>2023-10-31T09:51:40Z</time>
      </trkpt>
      <trkpt lat="42.80597" lon="-0.03747">
        <ele>1970.9</ele>
        <time>2023-10-31T09:51:41Z</time>
      </trkpt>
      <trkpt lat="42.80597" lon="-0.03748">
        <ele>1970.9</ele>
        <time>2023-10-31T09:51:42Z</time>
      </trkpt>
      <trkpt lat="42.80597" lon="-0.03749">
        <ele>1970.8</ele>
        <time>2023-10-31T09:51:43Z</time>
      </trkpt>
      <trkpt lat="42.80597" lon="-0.03748">
        <ele>1970.8</ele>
        <time>2023-10-31T09:51:44Z</time>
      </trkpt>
      <trkpt lat="42.80597" lon="-0.03747">
        <ele>1970.8</ele>
        <time>2023-10-31T09:51:45Z</time>
      </trkpt>
      <trkpt lat="42.80597" lon="-0.03747">
        <ele>1970.8</ele>
        <time>2023-10-31T09:51:46Z</time>
      </trkpt>
      <trkpt lat="42.80597" lon="-0.03747">
        <ele>1970.8</ele>
        <time>2023-10-31T09:51:47Z</time>
      </trkpt>
      <trkpt lat="42.80597" lon="-0.03747">
        <ele>1970.8</ele>
        <time>2023-10-31T09:51:48Z</time>
      </trkpt>
      <trkpt lat="42.80597" lon="-0.03747">
        <ele>1970.8</ele>
        <time>2023-10-31T09:51:49Z</time>
      </trkpt>
      <trkpt lat="42.80597" lon="-0.03747">
        <ele>1970.8</ele>
        <time>2023-10-31T09:51:50Z</time>
      </trkpt>
      <trkpt lat="42.80597" lon="-0.03749">
        <ele>1970.8</ele>
        <time>2023-10-31T09:51:51Z</time>
      </trkpt>
      <trkpt lat="42.80597" lon="-0.0375">
        <ele>1970.8</ele>
        <time>2023-10-31T09:51:52Z</time>
      </trkpt>
      <trkpt lat="42.80597" lon="-0.03751">
        <ele>1970.7</ele>
        <time>2023-10-31T09:51:53Z</time>
      </trkpt>
      <trkpt lat="42.80596" lon="-0.03752">
        <ele>1970.7</ele>
        <time>2023-10-31T09:51:54Z</time>
      </trkpt>
      <trkpt lat="42.80596" lon="-0.03753">
        <ele>1970.7</ele>
        <time>2023-10-31T09:51:55Z</time>
      </trkpt>
      <trkpt lat="42.80596" lon="-0.03752">
        <ele>1970.7</ele>
        <time>2023-10-31T09:51:56Z</time>
      </trkpt>
      <trkpt lat="42.80596" lon="-0.03754">
        <ele>1970.7</ele>
        <time>2023-10-31T09:51:57Z</time>
      </trkpt>
      <trkpt lat="42.80596" lon="-0.03755">
        <ele>1970.7</ele>
        <time>2023-10-31T09:51:58Z</time>
      </trkpt>
      <trkpt lat="42.80596" lon="-0.03756">
        <ele>1970.6</ele>
        <time>2023-10-31T09:51:59Z</time>
      </trkpt>
      <trkpt lat="42.80595" lon="-0.03757">
        <ele>1970.6</ele>
        <time>2023-10-31T09:52:00Z</time>
      </trkpt>
      <trkpt lat="42.80595" lon="-0.0376">
        <ele>1970.6</ele>
        <time>2023-10-31T09:52:01Z</time>
      </trkpt>
      <trkpt lat="42.80595" lon="-0.03761">
        <ele>1970.5</ele>
        <time>2023-10-31T09:52:02Z</time>
      </trkpt>
      <trkpt lat="42.80595" lon="-0.03762">
        <ele>1970.5</ele>
        <time>2023-10-31T09:52:04Z</time>
      </trkpt>
      <trkpt lat="42.80594" lon="-0.03762">
        <ele>1970.5</ele>
        <time>2023-10-31T09:52:05Z</time>
      </trkpt>
      <trkpt lat="42.80594" lon="-0.03763">
        <ele>1970.5</ele>
        <time>2023-10-31T09:52:06Z</time>
      </trkpt>
      <trkpt lat="42.80594" lon="-0.03763">
        <ele>1970.5</ele>
        <time>2023-10-31T09:52:07Z</time>
      </trkpt>
      <trkpt lat="42.80594" lon="-0.03764">
        <ele>1970.5</ele>
        <time>2023-10-31T09:52:08Z</time>
      </trkpt>
      <trkpt lat="42.80594" lon="-0.03764">
        <ele>1970.5</ele>
        <time>2023-10-31T09:52:09Z</time>
      </trkpt>
      <trkpt lat="42.80594" lon="-0.03764">
        <ele>1970.5</ele>
        <time>2023-10-31T09:52:10Z</time>
      </trkpt>
      <trkpt lat="42.80594" lon="-0.03764">
        <ele>1970.5</ele>
        <time>2023-10-31T09:52:11Z</time>
      </trkpt>
      <trkpt lat="42.80594" lon="-0.03764">
        <ele>1970.5</ele>
        <time>2023-10-31T09:52:12Z</time>
      </trkpt>
      <trkpt lat="42.80594" lon="-0.03764">
        <ele>1970.5</ele>
        <time>2023-10-31T09:52:13Z</time>
      </trkpt>
      <trkpt lat="42.80594" lon="-0.03764">
        <ele>1970.5</ele>
        <time>2023-10-31T09:52:14Z</time>
      </trkpt>
      <trkpt lat="42.80594" lon="-0.03764">
        <ele>1970.5</ele>
        <time>2023-10-31T09:52:15Z</time>
      </trkpt>
      <trkpt lat="42.80594" lon="-0.03765">
        <ele>1970.5</ele>
        <time>2023-10-31T09:52:16Z</time>
      </trkpt>
      <trkpt lat="42.80594" lon="-0.03765">
        <ele>1970.5</ele>
        <time>2023-10-31T09:52:17Z</time>
      </trkpt>
      <trkpt lat="42.80594" lon="-0.03765">
        <ele>1970.5</ele>
        <time>2023-10-31T09:52:18Z</time>
      </trkpt>
      <trkpt lat="42.80594" lon="-0.03765">
        <ele>1970.5</ele>
        <time>2023-10-31T09:52:19Z</time>
      </trkpt>
      <trkpt lat="42.80594" lon="-0.03765">
        <ele>1970.5</ele>
        <time>2023-10-31T09:52:20Z</time>
      </trkpt>
      <trkpt lat="42.80594" lon="-0.03765">
        <ele>1970.5</ele>
        <time>2023-10-31T09:52:21Z</time>
      </trkpt>
      <trkpt lat="42.80594" lon="-0.03765">
        <ele>1970.5</ele>
        <time>2023-10-31T09:52:22Z</time>
      </trkpt>
      <trkpt lat="42.80594" lon="-0.03765">
        <ele>1970.4</ele>
        <time>2023-10-31T09:52:23Z</time>
      </trkpt>
      <trkpt lat="42.80594" lon="-0.03766">
        <ele>1970.4</ele>
        <time>2023-10-31T09:52:24Z</time>
      </trkpt>
      <trkpt lat="42.80594" lon="-0.03766">
        <ele>1970.4</ele>
        <time>2023-10-31T09:52:25Z</time>
      </trkpt>
      <trkpt lat="42.80594" lon="-0.03766">
        <ele>1970.4</ele>
        <time>2023-10-31T09:52:26Z</time>
      </trkpt>
      <trkpt lat="42.80594" lon="-0.03766">
        <ele>1970.4</ele>
        <time>2023-10-31T09:52:27Z</time>
      </trkpt>
      <trkpt lat="42.80594" lon="-0.03766">
        <ele>1970.4</ele>
        <time>2023-10-31T09:52:28Z</time>
      </trkpt>
      <trkpt lat="42.80594" lon="-0.03766">
        <ele>1970.4</ele>
        <time>2023-10-31T09:52:29Z</time>
      </trkpt>
      <trkpt lat="42.80594" lon="-0.03766">
        <ele>1970.4</ele>
        <time>2023-10-31T09:52:30Z</time>
      </trkpt>
      <trkpt lat="42.80594" lon="-0.03766">
        <ele>1970.4</ele>
        <time>2023-10-31T09:52:31Z</time>
      </trkpt>
      <trkpt lat="42.80594" lon="-0.03767">
        <ele>1970.4</ele>
        <time>2023-10-31T09:52:32Z</time>
      </trkpt>
      <trkpt lat="42.80594" lon="-0.03767">
        <ele>1970.4</ele>
        <time>2023-10-31T09:52:33Z</time>
      </trkpt>
      <trkpt lat="42.80594" lon="-0.03767">
        <ele>1970.4</ele>
        <time>2023-10-31T09:52:34Z</time>
      </trkpt>
      <trkpt lat="42.80594" lon="-0.03767">
        <ele>1970.4</ele>
        <time>2023-10-31T09:52:35Z</time>
      </trkpt>
      <trkpt lat="42.80594" lon="-0.03767">
        <ele>1970.4</ele>
        <time>2023-10-31T09:52:36Z</time>
      </trkpt>
      <trkpt lat="42.80594" lon="-0.03767">
        <ele>1970.4</ele>
        <time>2023-10-31T09:52:37Z</time>
      </trkpt>
      <trkpt lat="42.80594" lon="-0.03767">
        <ele>1970.4</ele>
        <time>2023-10-31T09:52:38Z</time>
      </trkpt>
      <trkpt lat="42.80594" lon="-0.03768">
        <ele>1970.4</ele>
        <time>2023-10-31T09:52:39Z</time>
      </trkpt>
      <trkpt lat="42.80594" lon="-0.03768">
        <ele>1970.4</ele>
        <time>2023-10-31T09:52:40Z</time>
      </trkpt>
      <trkpt lat="42.80594" lon="-0.03768">
        <ele>1970.4</ele>
        <time>2023-10-31T09:52:41Z</time>
      </trkpt>
      <trkpt lat="42.80595" lon="-0.03768">
        <ele>1970.4</ele>
        <time>2023-10-31T09:52:42Z</time>
      </trkpt>
      <trkpt lat="42.80595" lon="-0.03768">
        <ele>1970.4</ele>
        <time>2023-10-31T09:52:43Z</time>
      </trkpt>
      <trkpt lat="42.80595" lon="-0.03768">
        <ele>1970.4</ele>
        <time>2023-10-31T09:52:44Z</time>
      </trkpt>
      <trkpt lat="42.80595" lon="-0.03768">
        <ele>1970.4</ele>
        <time>2023-10-31T09:52:45Z</time>
      </trkpt>
      <trkpt lat="42.80595" lon="-0.03768">
        <ele>1970.4</ele>
        <time>2023-10-31T09:52:46Z</time>
      </trkpt>
      <trkpt lat="42.80595" lon="-0.03768">
        <ele>1970.4</ele>
        <time>2023-10-31T09:52:47Z</time>
      </trkpt>
      <trkpt lat="42.80595" lon="-0.03768">
        <ele>1970.4</ele>
        <time>2023-10-31T09:52:48Z</time>
      </trkpt>
      <trkpt lat="42.80595" lon="-0.03768">
        <ele>1970.4</ele>
        <time>2023-10-31T09:52:49Z</time>
      </trkpt>
      <trkpt lat="42.80595" lon="-0.03769">
        <ele>1970.4</ele>
        <time>2023-10-31T09:52:50Z</time>
      </trkpt>
      <trkpt lat="42.80595" lon="-0.03769">
        <ele>1970.4</ele>
        <time>2023-10-31T09:52:51Z</time>
      </trkpt>
      <trkpt lat="42.80595" lon="-0.03769">
        <ele>1970.4</ele>
        <time>2023-10-31T09:52:52Z</time>
      </trkpt>
      <trkpt lat="42.80595" lon="-0.03769">
        <ele>1970.3</ele>
        <time>2023-10-31T09:52:53Z</time>
      </trkpt>
      <trkpt lat="42.80595" lon="-0.03769">
        <ele>1970.3</ele>
        <time>2023-10-31T09:52:54Z</time>
      </trkpt>
      <trkpt lat="42.80595" lon="-0.03769">
        <ele>1970.3</ele>
        <time>2023-10-31T09:52:55Z</time>
      </trkpt>
      <trkpt lat="42.80595" lon="-0.03769">
        <ele>1970.3</ele>
        <time>2023-10-31T09:52:56Z</time>
      </trkpt>
      <trkpt lat="42.80595" lon="-0.03769">
        <ele>1970.3</ele>
        <time>2023-10-31T09:52:57Z</time>
      </trkpt>
      <trkpt lat="42.80596" lon="-0.03769">
        <ele>1970.3</ele>
        <time>2023-10-31T09:52:58Z</time>
      </trkpt>
      <trkpt lat="42.80596" lon="-0.03769">
        <ele>1970.3</ele>
        <time>2023-10-31T09:52:59Z</time>
      </trkpt>
      <trkpt lat="42.80596" lon="-0.03769">
        <ele>1970.3</ele>
        <time>2023-10-31T09:53:00Z</time>
      </trkpt>
      <trkpt lat="42.80596" lon="-0.03769">
        <ele>1970.3</ele>
        <time>2023-10-31T09:53:01Z</time>
      </trkpt>
      <trkpt lat="42.80596" lon="-0.03769">
        <ele>1970.3</ele>
        <time>2023-10-31T09:53:02Z</time>
      </trkpt>
      <trkpt lat="42.80596" lon="-0.03769">
        <ele>1970.3</ele>
        <time>2023-10-31T09:53:03Z</time>
      </trkpt>
      <trkpt lat="42.80596" lon="-0.03769">
        <ele>1970.3</ele>
        <time>2023-10-31T09:53:04Z</time>
      </trkpt>
      <trkpt lat="42.80596" lon="-0.03769">
        <ele>1970.3</ele>
        <time>2023-10-31T09:53:05Z</time>
      </trkpt>
      <trkpt lat="42.80596" lon="-0.03769">
        <ele>1970.3</ele>
        <time>2023-10-31T09:53:06Z</time>
      </trkpt>
      <trkpt lat="42.80596" lon="-0.03769">
        <ele>1970.3</ele>
        <time>2023-10-31T09:53:07Z</time>
      </trkpt>
      <trkpt lat="42.80596" lon="-0.03769">
        <ele>1970.3</ele>
        <time>2023-10-31T09:53:08Z</time>
      </trkpt>
      <trkpt lat="42.80596" lon="-0.03769">
        <ele>1970.3</ele>
        <time>2023-10-31T09:53:09Z</time>
      </trkpt>
      <trkpt lat="42.80596" lon="-0.03769">
        <ele>1970.3</ele>
        <time>2023-10-31T09:53:10Z</time>
      </trkpt>
      <trkpt lat="42.80596" lon="-0.0377">
        <ele>1970.3</ele>
        <time>2023-10-31T09:53:11Z</time>
      </trkpt>
      <trkpt lat="42.80596" lon="-0.0377">
        <ele>1970.3</ele>
        <time>2023-10-31T09:53:12Z</time>
      </trkpt>
      <trkpt lat="42.80596" lon="-0.0377">
        <ele>1970.3</ele>
        <time>2023-10-31T09:53:13Z</time>
      </trkpt>
      <trkpt lat="42.80596" lon="-0.0377">
        <ele>1970.3</ele>
        <time>2023-10-31T09:53:14Z</time>
      </trkpt>
      <trkpt lat="42.80597" lon="-0.0377">
        <ele>1970.3</ele>
        <time>2023-10-31T09:53:15Z</time>
      </trkpt>
      <trkpt lat="42.80597" lon="-0.0377">
        <ele>1970.3</ele>
        <time>2023-10-31T09:53:16Z</time>
      </trkpt>
      <trkpt lat="42.80597" lon="-0.0377">
        <ele>1970.3</ele>
        <time>2023-10-31T09:53:17Z</time>
      </trkpt>
      <trkpt lat="42.80597" lon="-0.0377">
        <ele>1970.3</ele>
        <time>2023-10-31T09:53:18Z</time>
      </trkpt>
      <trkpt lat="42.80597" lon="-0.0377">
        <ele>1970.3</ele>
        <time>2023-10-31T09:53:19Z</time>
      </trkpt>
      <trkpt lat="42.80597" lon="-0.0377">
        <ele>1970.3</ele>
        <time>2023-10-31T09:53:20Z</time>
      </trkpt>
      <trkpt lat="42.80597" lon="-0.0377">
        <ele>1970.3</ele>
        <time>2023-10-31T09:53:21Z</time>
      </trkpt>
      <trkpt lat="42.80597" lon="-0.0377">
        <ele>1970.3</ele>
        <time>2023-10-31T09:53:22Z</time>
      </trkpt>
      <trkpt lat="42.80597" lon="-0.0377">
        <ele>1970.3</ele>
        <time>2023-10-31T09:53:23Z</time>
      </trkpt>
      <trkpt lat="42.80597" lon="-0.0377">
        <ele>1970.3</ele>
        <time>2023-10-31T09:53:24Z</time>
      </trkpt>
      <trkpt lat="42.80597" lon="-0.0377">
        <ele>1970.3</ele>
        <time>2023-10-31T09:53:25Z</time>
      </trkpt>
      <trkpt lat="42.80597" lon="-0.0377">
        <ele>1970.3</ele>
        <time>2023-10-31T09:53:26Z</time>
      </trkpt>
      <trkpt lat="42.80597" lon="-0.0377">
        <ele>1970.3</ele>
        <time>2023-10-31T09:53:27Z</time>
      </trkpt>
      <trkpt lat="42.80597" lon="-0.0377">
        <ele>1970.3</ele>
        <time>2023-10-31T09:53:28Z</time>
      </trkpt>
      <trkpt lat="42.80597" lon="-0.0377">
        <ele>1970.3</ele>
        <time>2023-10-31T09:53:29Z</time>
      </trkpt>
      <trkpt lat="42.80597" lon="-0.0377">
        <ele>1970.2</ele>
        <time>2023-10-31T09:53:30Z</time>
      </trkpt>
      <trkpt lat="42.80597" lon="-0.0377">
        <ele>1970.2</ele>
        <time>2023-10-31T09:53:31Z</time>
      </trkpt>
      <trkpt lat="42.80598" lon="-0.03771">
        <ele>1970.2</ele>
        <time>2023-10-31T09:53:32Z</time>
      </trkpt>
      <trkpt lat="42.80598" lon="-0.03771">
        <ele>1970.2</ele>
        <time>2023-10-31T09:53:33Z</time>
      </trkpt>
      <trkpt lat="42.80598" lon="-0.03771">
        <ele>1970.2</ele>
        <time>2023-10-31T09:53:34Z</time>
      </trkpt>
      <trkpt lat="42.80598" lon="-0.03771">
        <ele>1970.2</ele>
        <time>2023-10-31T09:53:35Z</time>
      </trkpt>
      <trkpt lat="42.80598" lon="-0.03771">
        <ele>1970.2</ele>
        <time>2023-10-31T09:53:36Z</time>
      </trkpt>
      <trkpt lat="42.80598" lon="-0.03771">
        <ele>1970.2</ele>
        <time>2023-10-31T09:53:37Z</time>
      </trkpt>
      <trkpt lat="42.80598" lon="-0.03771">
        <ele>1970.2</ele>
        <time>2023-10-31T09:53:38Z</time>
      </trkpt>
      <trkpt lat="42.80598" lon="-0.03771">
        <ele>1970.2</ele>
        <time>2023-10-31T09:53:39Z</time>
      </trkpt>
      <trkpt lat="42.80598" lon="-0.03771">
        <ele>1970.2</ele>
        <time>2023-10-31T09:53:40Z</time>
      </trkpt>
      <trkpt lat="42.80598" lon="-0.03771">
        <ele>1970.2</ele>
        <time>2023-10-31T09:53:41Z</time>
      </trkpt>
      <trkpt lat="42.80598" lon="-0.03771">
        <ele>1970.2</ele>
        <time>2023-10-31T09:53:42Z</time>
      </trkpt>
      <trkpt lat="42.80598" lon="-0.03771">
        <ele>1970.2</ele>
        <time>2023-10-31T09:53:43Z</time>
      </trkpt>
      <trkpt lat="42.80598" lon="-0.03771">
        <ele>1970.2</ele>
        <time>2023-10-31T09:53:44Z</time>
      </trkpt>
      <trkpt lat="42.80598" lon="-0.03771">
        <ele>1970.2</ele>
        <time>2023-10-31T09:53:45Z</time>
      </trkpt>
      <trkpt lat="42.80598" lon="-0.03773">
        <ele>1970.1</ele>
        <time>2023-10-31T09:53:46Z</time>
      </trkpt>
      <trkpt lat="42.80599" lon="-0.03774">
        <ele>1970.1</ele>
        <time>2023-10-31T09:53:47Z</time>
      </trkpt>
      <trkpt lat="42.80599" lon="-0.03775">
        <ele>1970.1</ele>
        <time>2023-10-31T09:53:48Z</time>
      </trkpt>
      <trkpt lat="42.806" lon="-0.03775">
        <ele>1970.1</ele>
        <time>2023-10-31T09:53:49Z</time>
      </trkpt>
      <trkpt lat="42.806" lon="-0.03776">
        <ele>1970</ele>
        <time>2023-10-31T09:53:50Z</time>
      </trkpt>
      <trkpt lat="42.80599" lon="-0.03776">
        <ele>1970</ele>
        <time>2023-10-31T09:53:51Z</time>
      </trkpt>
      <trkpt lat="42.80599" lon="-0.03776">
        <ele>1970</ele>
        <time>2023-10-31T09:53:52Z</time>
      </trkpt>
      <trkpt lat="42.80599" lon="-0.03776">
        <ele>1970</ele>
        <time>2023-10-31T09:53:53Z</time>
      </trkpt>
      <trkpt lat="42.80599" lon="-0.03777">
        <ele>1970</ele>
        <time>2023-10-31T09:53:54Z</time>
      </trkpt>
      <trkpt lat="42.80598" lon="-0.03778">
        <ele>1969.9</ele>
        <time>2023-10-31T09:53:55Z</time>
      </trkpt>
      <trkpt lat="42.80597" lon="-0.03778">
        <ele>1969.9</ele>
        <time>2023-10-31T09:53:56Z</time>
      </trkpt>
      <trkpt lat="42.80597" lon="-0.03778">
        <ele>1969.9</ele>
        <time>2023-10-31T09:53:57Z</time>
      </trkpt>
      <trkpt lat="42.80597" lon="-0.03778">
        <ele>1969.9</ele>
        <time>2023-10-31T09:53:58Z</time>
      </trkpt>
      <trkpt lat="42.80597" lon="-0.03778">
        <ele>1969.9</ele>
        <time>2023-10-31T09:53:59Z</time>
      </trkpt>
      <trkpt lat="42.80597" lon="-0.03778">
        <ele>1969.9</ele>
        <time>2023-10-31T09:54:00Z</time>
      </trkpt>
      <trkpt lat="42.80597" lon="-0.03778">
        <ele>1969.9</ele>
        <time>2023-10-31T09:54:01Z</time>
      </trkpt>
      <trkpt lat="42.80597" lon="-0.03778">
        <ele>1969.9</ele>
        <time>2023-10-31T09:54:02Z</time>
      </trkpt>
      <trkpt lat="42.80597" lon="-0.03778">
        <ele>1969.9</ele>
        <time>2023-10-31T09:54:03Z</time>
      </trkpt>
      <trkpt lat="42.80597" lon="-0.03778">
        <ele>1969.9</ele>
        <time>2023-10-31T09:54:04Z</time>
      </trkpt>
      <trkpt lat="42.80597" lon="-0.03777">
        <ele>1969.9</ele>
        <time>2023-10-31T09:54:05Z</time>
      </trkpt>
      <trkpt lat="42.80597" lon="-0.03777">
        <ele>1969.8</ele>
        <time>2023-10-31T09:54:06Z</time>
      </trkpt>
      <trkpt lat="42.80596" lon="-0.03777">
        <ele>1969.8</ele>
        <time>2023-10-31T09:54:07Z</time>
      </trkpt>
      <trkpt lat="42.80596" lon="-0.03777">
        <ele>1969.8</ele>
        <time>2023-10-31T09:54:08Z</time>
      </trkpt>
      <trkpt lat="42.80596" lon="-0.03777">
        <ele>1969.8</ele>
        <time>2023-10-31T09:54:10Z</time>
      </trkpt>
      <trkpt lat="42.80596" lon="-0.03777">
        <ele>1969.8</ele>
        <time>2023-10-31T09:54:11Z</time>
      </trkpt>
      <trkpt lat="42.80596" lon="-0.03777">
        <ele>1969.8</ele>
        <time>2023-10-31T09:54:12Z</time>
      </trkpt>
      <trkpt lat="42.80596" lon="-0.03777">
        <ele>1969.8</ele>
        <time>2023-10-31T09:54:13Z</time>
      </trkpt>
      <trkpt lat="42.80596" lon="-0.03777">
        <ele>1969.8</ele>
        <time>2023-10-31T09:54:14Z</time>
      </trkpt>
      <trkpt lat="42.80596" lon="-0.03777">
        <ele>1969.8</ele>
        <time>2023-10-31T09:54:15Z</time>
      </trkpt>
      <trkpt lat="42.80596" lon="-0.03777">
        <ele>1969.8</ele>
        <time>2023-10-31T09:54:16Z</time>
      </trkpt>
      <trkpt lat="42.80596" lon="-0.03776">
        <ele>1969.8</ele>
        <time>2023-10-31T09:54:17Z</time>
      </trkpt>
      <trkpt lat="42.80596" lon="-0.03776">
        <ele>1969.8</ele>
        <time>2023-10-31T09:54:18Z</time>
      </trkpt>
      <trkpt lat="42.80596" lon="-0.03776">
        <ele>1969.8</ele>
        <time>2023-10-31T09:54:19Z</time>
      </trkpt>
      <trkpt lat="42.80596" lon="-0.03776">
        <ele>1969.8</ele>
        <time>2023-10-31T09:54:20Z</time>
      </trkpt>
      <trkpt lat="42.80596" lon="-0.03776">
        <ele>1969.8</ele>
        <time>2023-10-31T09:54:21Z</time>
      </trkpt>
      <trkpt lat="42.80595" lon="-0.03776">
        <ele>1969.8</ele>
        <time>2023-10-31T09:54:22Z</time>
      </trkpt>
      <trkpt lat="42.80595" lon="-0.03776">
        <ele>1969.8</ele>
        <time>2023-10-31T09:54:23Z</time>
      </trkpt>
      <trkpt lat="42.80595" lon="-0.03776">
        <ele>1969.8</ele>
        <time>2023-10-31T09:54:24Z</time>
      </trkpt>
      <trkpt lat="42.80595" lon="-0.03776">
        <ele>1969.8</ele>
        <time>2023-10-31T09:54:25Z</time>
      </trkpt>
      <trkpt lat="42.80595" lon="-0.03776">
        <ele>1969.8</ele>
        <time>2023-10-31T09:54:26Z</time>
      </trkpt>
      <trkpt lat="42.80595" lon="-0.03776">
        <ele>1969.8</ele>
        <time>2023-10-31T09:54:27Z</time>
      </trkpt>
      <trkpt lat="42.80595" lon="-0.03775">
        <ele>1969.8</ele>
        <time>2023-10-31T09:54:28Z</time>
      </trkpt>
      <trkpt lat="42.80595" lon="-0.03775">
        <ele>1969.8</ele>
        <time>2023-10-31T09:54:29Z</time>
      </trkpt>
      <trkpt lat="42.80595" lon="-0.03775">
        <ele>1969.8</ele>
        <time>2023-10-31T09:54:30Z</time>
      </trkpt>
      <trkpt lat="42.80595" lon="-0.03775">
        <ele>1969.7</ele>
        <time>2023-10-31T09:54:31Z</time>
      </trkpt>
      <trkpt lat="42.80595" lon="-0.03774">
        <ele>1969.7</ele>
        <time>2023-10-31T09:54:32Z</time>
      </trkpt>
      <trkpt lat="42.80594" lon="-0.03774">
        <ele>1969.7</ele>
        <time>2023-10-31T09:54:33Z</time>
      </trkpt>
      <trkpt lat="42.80594" lon="-0.03774">
        <ele>1969.7</ele>
        <time>2023-10-31T09:54:34Z</time>
      </trkpt>
      <trkpt lat="42.80594" lon="-0.03774">
        <ele>1969.7</ele>
        <time>2023-10-31T09:54:35Z</time>
      </trkpt>
      <trkpt lat="42.80594" lon="-0.03774">
        <ele>1969.7</ele>
        <time>2023-10-31T09:54:36Z</time>
      </trkpt>
      <trkpt lat="42.80595" lon="-0.03773">
        <ele>1969.6</ele>
        <time>2023-10-31T09:54:37Z</time>
      </trkpt>
      <trkpt lat="42.80595" lon="-0.03775">
        <ele>1969.6</ele>
        <time>2023-10-31T09:54:38Z</time>
      </trkpt>
      <trkpt lat="42.80594" lon="-0.03774">
        <ele>1969.6</ele>
        <time>2023-10-31T09:54:39Z</time>
      </trkpt>
      <trkpt lat="42.80594" lon="-0.03774">
        <ele>1969.6</ele>
        <time>2023-10-31T09:54:40Z</time>
      </trkpt>
      <trkpt lat="42.80594" lon="-0.03775">
        <ele>1969.6</ele>
        <time>2023-10-31T09:54:41Z</time>
      </trkpt>
      <trkpt lat="42.80594" lon="-0.03775">
        <ele>1969.6</ele>
        <time>2023-10-31T09:54:42Z</time>
      </trkpt>
      <trkpt lat="42.80594" lon="-0.03775">
        <ele>1969.6</ele>
        <time>2023-10-31T09:54:43Z</time>
      </trkpt>
      <trkpt lat="42.80594" lon="-0.03775">
        <ele>1969.6</ele>
        <time>2023-10-31T09:54:44Z</time>
      </trkpt>
      <trkpt lat="42.80594" lon="-0.03775">
        <ele>1969.6</ele>
        <time>2023-10-31T09:54:45Z</time>
      </trkpt>
      <trkpt lat="42.80594" lon="-0.03775">
        <ele>1969.6</ele>
        <time>2023-10-31T09:54:46Z</time>
      </trkpt>
      <trkpt lat="42.80595" lon="-0.03775">
        <ele>1969.5</ele>
        <time>2023-10-31T09:54:47Z</time>
      </trkpt>
      <trkpt lat="42.80595" lon="-0.03776">
        <ele>1969.5</ele>
        <time>2023-10-31T09:54:48Z</time>
      </trkpt>
      <trkpt lat="42.80595" lon="-0.03776">
        <ele>1969.5</ele>
        <time>2023-10-31T09:54:49Z</time>
      </trkpt>
      <trkpt lat="42.80595" lon="-0.03773">
        <ele>1969.4</ele>
        <time>2023-10-31T09:54:50Z</time>
      </trkpt>
      <trkpt lat="42.80594" lon="-0.03773">
        <ele>1969.4</ele>
        <time>2023-10-31T09:54:51Z</time>
      </trkpt>
      <trkpt lat="42.80594" lon="-0.03773">
        <ele>1969.4</ele>
        <time>2023-10-31T09:54:52Z</time>
      </trkpt>
      <trkpt lat="42.80594" lon="-0.03773">
        <ele>1969.4</ele>
        <time>2023-10-31T09:54:53Z</time>
      </trkpt>
      <trkpt lat="42.80594" lon="-0.03773">
        <ele>1969.4</ele>
        <time>2023-10-31T09:54:54Z</time>
      </trkpt>
      <trkpt lat="42.80594" lon="-0.03773">
        <ele>1969.4</ele>
        <time>2023-10-31T09:54:55Z</time>
      </trkpt>
      <trkpt lat="42.80594" lon="-0.03773">
        <ele>1969.3</ele>
        <time>2023-10-31T09:54:56Z</time>
      </trkpt>
      <trkpt lat="42.80594" lon="-0.03773">
        <ele>1969.3</ele>
        <time>2023-10-31T09:54:57Z</time>
      </trkpt>
      <trkpt lat="42.80593" lon="-0.03772">
        <ele>1969.3</ele>
        <time>2023-10-31T09:54:58Z</time>
      </trkpt>
      <trkpt lat="42.80594" lon="-0.03771">
        <ele>1969.3</ele>
        <time>2023-10-31T09:54:59Z</time>
      </trkpt>
      <trkpt lat="42.80594" lon="-0.03771">
        <ele>1969.3</ele>
        <time>2023-10-31T09:55:00Z</time>
      </trkpt>
      <trkpt lat="42.80594" lon="-0.03772">
        <ele>1969.3</ele>
        <time>2023-10-31T09:55:01Z</time>
      </trkpt>
      <trkpt lat="42.80594" lon="-0.03771">
        <ele>1969.2</ele>
        <time>2023-10-31T09:55:02Z</time>
      </trkpt>
      <trkpt lat="42.80594" lon="-0.03771">
        <ele>1969.2</ele>
        <time>2023-10-31T09:55:03Z</time>
      </trkpt>
      <trkpt lat="42.80594" lon="-0.03771">
        <ele>1969.2</ele>
        <time>2023-10-31T09:55:04Z</time>
      </trkpt>
      <trkpt lat="42.80594" lon="-0.03771">
        <ele>1969.2</ele>
        <time>2023-10-31T09:55:05Z</time>
      </trkpt>
      <trkpt lat="42.80594" lon="-0.03771">
        <ele>1969.2</ele>
        <time>2023-10-31T09:55:06Z</time>
      </trkpt>
      <trkpt lat="42.80594" lon="-0.03771">
        <ele>1969.2</ele>
        <time>2023-10-31T09:55:07Z</time>
      </trkpt>
      <trkpt lat="42.80594" lon="-0.03772">
        <ele>1969.2</ele>
        <time>2023-10-31T09:55:08Z</time>
      </trkpt>
      <trkpt lat="42.80594" lon="-0.03772">
        <ele>1969.2</ele>
        <time>2023-10-31T09:55:09Z</time>
      </trkpt>
      <trkpt lat="42.80594" lon="-0.03772">
        <ele>1969.2</ele>
        <time>2023-10-31T09:55:10Z</time>
      </trkpt>
      <trkpt lat="42.80594" lon="-0.03772">
        <ele>1969.2</ele>
        <time>2023-10-31T09:55:11Z</time>
      </trkpt>
      <trkpt lat="42.80594" lon="-0.03772">
        <ele>1969.2</ele>
        <time>2023-10-31T09:55:12Z</time>
      </trkpt>
      <trkpt lat="42.80594" lon="-0.03772">
        <ele>1969.2</ele>
        <time>2023-10-31T09:55:13Z</time>
      </trkpt>
      <trkpt lat="42.80594" lon="-0.03772">
        <ele>1969.2</ele>
        <time>2023-10-31T09:55:14Z</time>
      </trkpt>
      <trkpt lat="42.80594" lon="-0.03772">
        <ele>1969.2</ele>
        <time>2023-10-31T09:55:15Z</time>
      </trkpt>
      <trkpt lat="42.80594" lon="-0.03772">
        <ele>1969.2</ele>
        <time>2023-10-31T09:55:16Z</time>
      </trkpt>
      <trkpt lat="42.80594" lon="-0.03772">
        <ele>1969.2</ele>
        <time>2023-10-31T09:55:17Z</time>
      </trkpt>
      <trkpt lat="42.80594" lon="-0.03772">
        <ele>1969.2</ele>
        <time>2023-10-31T09:55:18Z</time>
      </trkpt>
      <trkpt lat="42.80594" lon="-0.03772">
        <ele>1969.2</ele>
        <time>2023-10-31T09:55:19Z</time>
      </trkpt>
      <trkpt lat="42.80594" lon="-0.03772">
        <ele>1969.2</ele>
        <time>2023-10-31T09:55:20Z</time>
      </trkpt>
      <trkpt lat="42.80594" lon="-0.03772">
        <ele>1969.2</ele>
        <time>2023-10-31T09:55:21Z</time>
      </trkpt>
      <trkpt lat="42.80594" lon="-0.03772">
        <ele>1969.2</ele>
        <time>2023-10-31T09:55:22Z</time>
      </trkpt>
      <trkpt lat="42.80594" lon="-0.03772">
        <ele>1969.2</ele>
        <time>2023-10-31T09:55:23Z</time>
      </trkpt>
      <trkpt lat="42.80594" lon="-0.03772">
        <ele>1969.2</ele>
        <time>2023-10-31T09:55:24Z</time>
      </trkpt>
      <trkpt lat="42.80594" lon="-0.03772">
        <ele>1969.2</ele>
        <time>2023-10-31T09:55:25Z</time>
      </trkpt>
      <trkpt lat="42.80594" lon="-0.03772">
        <ele>1969.2</ele>
        <time>2023-10-31T09:55:26Z</time>
      </trkpt>
      <trkpt lat="42.80594" lon="-0.03772">
        <ele>1969.2</ele>
        <time>2023-10-31T09:55:27Z</time>
      </trkpt>
      <trkpt lat="42.80594" lon="-0.03772">
        <ele>1969.2</ele>
        <time>2023-10-31T09:55:28Z</time>
      </trkpt>
      <trkpt lat="42.80594" lon="-0.03772">
        <ele>1969.2</ele>
        <time>2023-10-31T09:55:29Z</time>
      </trkpt>
      <trkpt lat="42.80594" lon="-0.03772">
        <ele>1969.2</ele>
        <time>2023-10-31T09:55:30Z</time>
      </trkpt>
      <trkpt lat="42.80594" lon="-0.03772">
        <ele>1969.2</ele>
        <time>2023-10-31T09:55:31Z</time>
      </trkpt>
      <trkpt lat="42.80594" lon="-0.03772">
        <ele>1969.2</ele>
        <time>2023-10-31T09:55:32Z</time>
      </trkpt>
      <trkpt lat="42.80594" lon="-0.03772">
        <ele>1969.2</ele>
        <time>2023-10-31T09:55:33Z</time>
      </trkpt>
      <trkpt lat="42.80594" lon="-0.03772">
        <ele>1969.2</ele>
        <time>2023-10-31T09:55:34Z</time>
      </trkpt>
      <trkpt lat="42.80594" lon="-0.03772">
        <ele>1969.2</ele>
        <time>2023-10-31T09:55:35Z</time>
      </trkpt>
      <trkpt lat="42.80594" lon="-0.03772">
        <ele>1969.2</ele>
        <time>2023-10-31T09:55:36Z</time>
      </trkpt>
      <trkpt lat="42.80594" lon="-0.03772">
        <ele>1969.2</ele>
        <time>2023-10-31T09:55:37Z</time>
      </trkpt>
      <trkpt lat="42.80594" lon="-0.03772">
        <ele>1969.2</ele>
        <time>2023-10-31T09:55:38Z</time>
      </trkpt>
      <trkpt lat="42.80594" lon="-0.03772">
        <ele>1969.2</ele>
        <time>2023-10-31T09:55:39Z</time>
      </trkpt>
      <trkpt lat="42.80594" lon="-0.03772">
        <ele>1969.2</ele>
        <time>2023-10-31T09:55:40Z</time>
      </trkpt>
      <trkpt lat="42.80594" lon="-0.03772">
        <ele>1969.2</ele>
        <time>2023-10-31T09:55:41Z</time>
      </trkpt>
      <trkpt lat="42.80594" lon="-0.03772">
        <ele>1969.2</ele>
        <time>2023-10-31T09:55:42Z</time>
      </trkpt>
      <trkpt lat="42.80594" lon="-0.03772">
        <ele>1969.2</ele>
        <time>2023-10-31T09:55:43Z</time>
      </trkpt>
      <trkpt lat="42.80594" lon="-0.03772">
        <ele>1969.2</ele>
        <time>2023-10-31T09:55:44Z</time>
      </trkpt>
      <trkpt lat="42.80594" lon="-0.03772">
        <ele>1969.2</ele>
        <time>2023-10-31T09:55:45Z</time>
      </trkpt>
      <trkpt lat="42.80594" lon="-0.03772">
        <ele>1969.2</ele>
        <time>2023-10-31T09:55:46Z</time>
      </trkpt>
      <trkpt lat="42.80594" lon="-0.03772">
        <ele>1969.2</ele>
        <time>2023-10-31T09:55:47Z</time>
      </trkpt>
      <trkpt lat="42.80594" lon="-0.03772">
        <ele>1969.2</ele>
        <time>2023-10-31T09:55:48Z</time>
      </trkpt>
      <trkpt lat="42.80594" lon="-0.03772">
        <ele>1969.2</ele>
        <time>2023-10-31T09:55:49Z</time>
      </trkpt>
      <trkpt lat="42.80594" lon="-0.03772">
        <ele>1969.2</ele>
        <time>2023-10-31T09:55:50Z</time>
      </trkpt>
      <trkpt lat="42.80594" lon="-0.03772">
        <ele>1969.2</ele>
        <time>2023-10-31T09:55:51Z</time>
      </trkpt>
      <trkpt lat="42.80594" lon="-0.03772">
        <ele>1969.2</ele>
        <time>2023-10-31T09:55:52Z</time>
      </trkpt>
      <trkpt lat="42.80594" lon="-0.03772">
        <ele>1969.2</ele>
        <time>2023-10-31T09:55:53Z</time>
      </trkpt>
      <trkpt lat="42.80594" lon="-0.03772">
        <ele>1969.2</ele>
        <time>2023-10-31T09:55:54Z</time>
      </trkpt>
      <trkpt lat="42.80594" lon="-0.03772">
        <ele>1969.2</ele>
        <time>2023-10-31T09:55:55Z</time>
      </trkpt>
      <trkpt lat="42.80594" lon="-0.03772">
        <ele>1969.2</ele>
        <time>2023-10-31T09:55:56Z</time>
      </trkpt>
      <trkpt lat="42.80594" lon="-0.03772">
        <ele>1969.2</ele>
        <time>2023-10-31T09:55:57Z</time>
      </trkpt>
      <trkpt lat="42.80594" lon="-0.03772">
        <ele>1969.2</ele>
        <time>2023-10-31T09:55:58Z</time>
      </trkpt>
      <trkpt lat="42.80594" lon="-0.03772">
        <ele>1969.2</ele>
        <time>2023-10-31T09:55:59Z</time>
      </trkpt>
      <trkpt lat="42.80594" lon="-0.03772">
        <ele>1969.2</ele>
        <time>2023-10-31T09:56:00Z</time>
      </trkpt>
      <trkpt lat="42.80594" lon="-0.03772">
        <ele>1969.2</ele>
        <time>2023-10-31T09:56:01Z</time>
      </trkpt>
      <trkpt lat="42.80594" lon="-0.03772">
        <ele>1969.2</ele>
        <time>2023-10-31T09:56:02Z</time>
      </trkpt>
      <trkpt lat="42.80594" lon="-0.03772">
        <ele>1969.2</ele>
        <time>2023-10-31T09:56:03Z</time>
      </trkpt>
      <trkpt lat="42.80594" lon="-0.03772">
        <ele>1969.2</ele>
        <time>2023-10-31T09:56:04Z</time>
      </trkpt>
      <trkpt lat="42.80594" lon="-0.03772">
        <ele>1969.2</ele>
        <time>2023-10-31T09:56:05Z</time>
      </trkpt>
      <trkpt lat="42.80594" lon="-0.03772">
        <ele>1969.2</ele>
        <time>2023-10-31T09:56:06Z</time>
      </trkpt>
      <trkpt lat="42.80594" lon="-0.03772">
        <ele>1969.2</ele>
        <time>2023-10-31T09:56:07Z</time>
      </trkpt>
      <trkpt lat="42.80594" lon="-0.03772">
        <ele>1969.2</ele>
        <time>2023-10-31T09:56:08Z</time>
      </trkpt>
      <trkpt lat="42.80594" lon="-0.03772">
        <ele>1969.2</ele>
        <time>2023-10-31T09:56:09Z</time>
      </trkpt>
      <trkpt lat="42.80594" lon="-0.03772">
        <ele>1969.2</ele>
        <time>2023-10-31T09:56:10Z</time>
      </trkpt>
      <trkpt lat="42.80594" lon="-0.03772">
        <ele>1969.2</ele>
        <time>2023-10-31T09:56:11Z</time>
      </trkpt>
      <trkpt lat="42.80594" lon="-0.03772">
        <ele>1969.2</ele>
        <time>2023-10-31T09:56:12Z</time>
      </trkpt>
      <trkpt lat="42.80594" lon="-0.03772">
        <ele>1969.2</ele>
        <time>2023-10-31T09:56:13Z</time>
      </trkpt>
      <trkpt lat="42.80594" lon="-0.03772">
        <ele>1969.2</ele>
        <time>2023-10-31T09:56:14Z</time>
      </trkpt>
      <trkpt lat="42.80594" lon="-0.03772">
        <ele>1969.2</ele>
        <time>2023-10-31T09:56:15Z</time>
      </trkpt>
      <trkpt lat="42.80594" lon="-0.03772">
        <ele>1969.2</ele>
        <time>2023-10-31T09:56:16Z</time>
      </trkpt>
      <trkpt lat="42.80594" lon="-0.03772">
        <ele>1969.2</ele>
        <time>2023-10-31T09:56:17Z</time>
      </trkpt>
      <trkpt lat="42.80594" lon="-0.03772">
        <ele>1969.2</ele>
        <time>2023-10-31T09:56:18Z</time>
      </trkpt>
      <trkpt lat="42.80594" lon="-0.03772">
        <ele>1969.2</ele>
        <time>2023-10-31T09:56:19Z</time>
      </trkpt>
      <trkpt lat="42.80594" lon="-0.03772">
        <ele>1969.2</ele>
        <time>2023-10-31T09:56:20Z</time>
      </trkpt>
      <trkpt lat="42.80594" lon="-0.03772">
        <ele>1969.2</ele>
        <time>2023-10-31T09:56:21Z</time>
      </trkpt>
      <trkpt lat="42.80594" lon="-0.03772">
        <ele>1969.2</ele>
        <time>2023-10-31T09:56:22Z</time>
      </trkpt>
      <trkpt lat="42.80594" lon="-0.03772">
        <ele>1969.2</ele>
        <time>2023-10-31T09:56:23Z</time>
      </trkpt>
      <trkpt lat="42.80594" lon="-0.03772">
        <ele>1969.2</ele>
        <time>2023-10-31T09:56:24Z</time>
      </trkpt>
      <trkpt lat="42.80594" lon="-0.03772">
        <ele>1969.2</ele>
        <time>2023-10-31T09:56:25Z</time>
      </trkpt>
      <trkpt lat="42.80594" lon="-0.03772">
        <ele>1969.2</ele>
        <time>2023-10-31T09:56:26Z</time>
      </trkpt>
      <trkpt lat="42.80594" lon="-0.03772">
        <ele>1969.2</ele>
        <time>2023-10-31T09:56:27Z</time>
      </trkpt>
      <trkpt lat="42.80594" lon="-0.03772">
        <ele>1969.2</ele>
        <time>2023-10-31T09:56:28Z</time>
      </trkpt>
      <trkpt lat="42.80594" lon="-0.03772">
        <ele>1969.2</ele>
        <time>2023-10-31T09:56:29Z</time>
      </trkpt>
      <trkpt lat="42.80594" lon="-0.03769">
        <ele>1969.1</ele>
        <time>2023-10-31T09:56:30Z</time>
      </trkpt>
      <trkpt lat="42.80594" lon="-0.03771">
        <ele>1969.1</ele>
        <time>2023-10-31T09:56:31Z</time>
      </trkpt>
      <trkpt lat="42.80594" lon="-0.03772">
        <ele>1969</ele>
        <time>2023-10-31T09:56:32Z</time>
      </trkpt>
      <trkpt lat="42.80595" lon="-0.03771">
        <ele>1969</ele>
        <time>2023-10-31T09:56:33Z</time>
      </trkpt>
      <trkpt lat="42.80594" lon="-0.03771">
        <ele>1969</ele>
        <time>2023-10-31T09:56:34Z</time>
      </trkpt>
      <trkpt lat="42.80594" lon="-0.03771">
        <ele>1969</ele>
        <time>2023-10-31T09:56:35Z</time>
      </trkpt>
      <trkpt lat="42.80594" lon="-0.03771">
        <ele>1969</ele>
        <time>2023-10-31T09:56:36Z</time>
      </trkpt>
      <trkpt lat="42.80594" lon="-0.03771">
        <ele>1969</ele>
        <time>2023-10-31T09:56:37Z</time>
      </trkpt>
      <trkpt lat="42.80594" lon="-0.03771">
        <ele>1969</ele>
        <time>2023-10-31T09:56:38Z</time>
      </trkpt>
      <trkpt lat="42.80594" lon="-0.03771">
        <ele>1969</ele>
        <time>2023-10-31T09:56:39Z</time>
      </trkpt>
      <trkpt lat="42.80594" lon="-0.03771">
        <ele>1969</ele>
        <time>2023-10-31T09:56:40Z</time>
      </trkpt>
      <trkpt lat="42.80594" lon="-0.03771">
        <ele>1969</ele>
        <time>2023-10-31T09:56:41Z</time>
      </trkpt>
      <trkpt lat="42.80594" lon="-0.03771">
        <ele>1969</ele>
        <time>2023-10-31T09:56:42Z</time>
      </trkpt>
      <trkpt lat="42.80594" lon="-0.03771">
        <ele>1969</ele>
        <time>2023-10-31T09:56:43Z</time>
      </trkpt>
      <trkpt lat="42.80594" lon="-0.03771">
        <ele>1969</ele>
        <time>2023-10-31T09:56:44Z</time>
      </trkpt>
      <trkpt lat="42.80594" lon="-0.03771">
        <ele>1969</ele>
        <time>2023-10-31T09:56:45Z</time>
      </trkpt>
      <trkpt lat="42.80594" lon="-0.03771">
        <ele>1969</ele>
        <time>2023-10-31T09:56:46Z</time>
      </trkpt>
      <trkpt lat="42.80594" lon="-0.03771">
        <ele>1969</ele>
        <time>2023-10-31T09:56:47Z</time>
      </trkpt>
      <trkpt lat="42.80594" lon="-0.03771">
        <ele>1969</ele>
        <time>2023-10-31T09:56:48Z</time>
      </trkpt>
      <trkpt lat="42.80594" lon="-0.03771">
        <ele>1969</ele>
        <time>2023-10-31T09:56:49Z</time>
      </trkpt>
      <trkpt lat="42.80594" lon="-0.03771">
        <ele>1969</ele>
        <time>2023-10-31T09:56:50Z</time>
      </trkpt>
      <trkpt lat="42.80594" lon="-0.03771">
        <ele>1969</ele>
        <time>2023-10-31T09:56:51Z</time>
      </trkpt>
      <trkpt lat="42.80594" lon="-0.03771">
        <ele>1969</ele>
        <time>2023-10-31T09:56:52Z</time>
      </trkpt>
      <trkpt lat="42.80594" lon="-0.03771">
        <ele>1969</ele>
        <time>2023-10-31T09:56:53Z</time>
      </trkpt>
      <trkpt lat="42.80594" lon="-0.03771">
        <ele>1969</ele>
        <time>2023-10-31T09:56:54Z</time>
      </trkpt>
      <trkpt lat="42.80594" lon="-0.03771">
        <ele>1969</ele>
        <time>2023-10-31T09:56:55Z</time>
      </trkpt>
      <trkpt lat="42.80594" lon="-0.03771">
        <ele>1969</ele>
        <time>2023-10-31T09:56:56Z</time>
      </trkpt>
      <trkpt lat="42.80594" lon="-0.03771">
        <ele>1969</ele>
        <time>2023-10-31T09:56:57Z</time>
      </trkpt>
      <trkpt lat="42.80594" lon="-0.03771">
        <ele>1969</ele>
        <time>2023-10-31T09:56:58Z</time>
      </trkpt>
      <trkpt lat="42.80594" lon="-0.03771">
        <ele>1969</ele>
        <time>2023-10-31T09:56:59Z</time>
      </trkpt>
      <trkpt lat="42.80594" lon="-0.03771">
        <ele>1969</ele>
        <time>2023-10-31T09:57:00Z</time>
      </trkpt>
      <trkpt lat="42.80594" lon="-0.03771">
        <ele>1969</ele>
        <time>2023-10-31T09:57:01Z</time>
      </trkpt>
      <trkpt lat="42.80594" lon="-0.03771">
        <ele>1969</ele>
        <time>2023-10-31T09:57:02Z</time>
      </trkpt>
      <trkpt lat="42.80594" lon="-0.03772">
        <ele>1969</ele>
        <time>2023-10-31T09:57:03Z</time>
      </trkpt>
      <trkpt lat="42.80594" lon="-0.03773">
        <ele>1969</ele>
        <time>2023-10-31T09:57:04Z</time>
      </trkpt>
      <trkpt lat="42.80594" lon="-0.03773">
        <ele>1969</ele>
        <time>2023-10-31T09:57:05Z</time>
      </trkpt>
      <trkpt lat="42.80594" lon="-0.03773">
        <ele>1969</ele>
        <time>2023-10-31T09:57:06Z</time>
      </trkpt>
      <trkpt lat="42.80594" lon="-0.03773">
        <ele>1969</ele>
        <time>2023-10-31T09:57:07Z</time>
      </trkpt>
      <trkpt lat="42.80596" lon="-0.03772">
        <ele>1969</ele>
        <time>2023-10-31T09:57:08Z</time>
      </trkpt>
      <trkpt lat="42.80595" lon="-0.03772">
        <ele>1969</ele>
        <time>2023-10-31T09:57:09Z</time>
      </trkpt>
      <trkpt lat="42.80595" lon="-0.03772">
        <ele>1969</ele>
        <time>2023-10-31T09:57:10Z</time>
      </trkpt>
      <trkpt lat="42.80596" lon="-0.03772">
        <ele>1968.9</ele>
        <time>2023-10-31T09:57:11Z</time>
      </trkpt>
      <trkpt lat="42.80596" lon="-0.03772">
        <ele>1968.9</ele>
        <time>2023-10-31T09:57:12Z</time>
      </trkpt>
      <trkpt lat="42.80598" lon="-0.03774">
        <ele>1968.9</ele>
        <time>2023-10-31T09:57:13Z</time>
      </trkpt>
      <trkpt lat="42.80598" lon="-0.03775">
        <ele>1968.9</ele>
        <time>2023-10-31T09:57:14Z</time>
      </trkpt>
      <trkpt lat="42.80599" lon="-0.03776">
        <ele>1968.9</ele>
        <time>2023-10-31T09:57:15Z</time>
      </trkpt>
      <trkpt lat="42.80599" lon="-0.03778">
        <ele>1968.8</ele>
        <time>2023-10-31T09:57:16Z</time>
      </trkpt>
      <trkpt lat="42.80599" lon="-0.03781">
        <ele>1968.8</ele>
        <time>2023-10-31T09:57:17Z</time>
      </trkpt>
      <trkpt lat="42.80599" lon="-0.03783">
        <ele>1968.8</ele>
        <time>2023-10-31T09:57:18Z</time>
      </trkpt>
      <trkpt lat="42.806" lon="-0.03784">
        <ele>1968.7</ele>
        <time>2023-10-31T09:57:19Z</time>
      </trkpt>
      <trkpt lat="42.806" lon="-0.03785">
        <ele>1968.7</ele>
        <time>2023-10-31T09:57:20Z</time>
      </trkpt>
      <trkpt lat="42.806" lon="-0.03787">
        <ele>1968.7</ele>
        <time>2023-10-31T09:57:21Z</time>
      </trkpt>
      <trkpt lat="42.80601" lon="-0.03789">
        <ele>1968.7</ele>
        <time>2023-10-31T09:57:22Z</time>
      </trkpt>
      <trkpt lat="42.80601" lon="-0.0379">
        <ele>1968.7</ele>
        <time>2023-10-31T09:57:23Z</time>
      </trkpt>
      <trkpt lat="42.80601" lon="-0.03791">
        <ele>1968.7</ele>
        <time>2023-10-31T09:57:24Z</time>
      </trkpt>
      <trkpt lat="42.80601" lon="-0.03792">
        <ele>1968.6</ele>
        <time>2023-10-31T09:57:25Z</time>
      </trkpt>
      <trkpt lat="42.806" lon="-0.03794">
        <ele>1968.6</ele>
        <time>2023-10-31T09:57:26Z</time>
      </trkpt>
      <trkpt lat="42.80598" lon="-0.03795">
        <ele>1968.6</ele>
        <time>2023-10-31T09:57:27Z</time>
      </trkpt>
      <trkpt lat="42.80598" lon="-0.03796">
        <ele>1968.6</ele>
        <time>2023-10-31T09:57:28Z</time>
      </trkpt>
      <trkpt lat="42.80598" lon="-0.03796">
        <ele>1968.6</ele>
        <time>2023-10-31T09:57:29Z</time>
      </trkpt>
      <trkpt lat="42.80598" lon="-0.03799">
        <ele>1968.5</ele>
        <time>2023-10-31T09:57:30Z</time>
      </trkpt>
      <trkpt lat="42.80597" lon="-0.038">
        <ele>1968.5</ele>
        <time>2023-10-31T09:57:31Z</time>
      </trkpt>
      <trkpt lat="42.80597" lon="-0.03801">
        <ele>1968.5</ele>
        <time>2023-10-31T09:57:32Z</time>
      </trkpt>
      <trkpt lat="42.80598" lon="-0.03802">
        <ele>1968.5</ele>
        <time>2023-10-31T09:57:33Z</time>
      </trkpt>
      <trkpt lat="42.80599" lon="-0.03802">
        <ele>1968.5</ele>
        <time>2023-10-31T09:57:34Z</time>
      </trkpt>
      <trkpt lat="42.80599" lon="-0.03803">
        <ele>1968.5</ele>
        <time>2023-10-31T09:57:35Z</time>
      </trkpt>
      <trkpt lat="42.80599" lon="-0.03804">
        <ele>1968.5</ele>
        <time>2023-10-31T09:57:36Z</time>
      </trkpt>
      <trkpt lat="42.80599" lon="-0.03804">
        <ele>1968.5</ele>
        <time>2023-10-31T09:57:37Z</time>
      </trkpt>
      <trkpt lat="42.806" lon="-0.03805">
        <ele>1968.5</ele>
        <time>2023-10-31T09:57:38Z</time>
      </trkpt>
      <trkpt lat="42.806" lon="-0.03806">
        <ele>1968.4</ele>
        <time>2023-10-31T09:57:39Z</time>
      </trkpt>
      <trkpt lat="42.806" lon="-0.03806">
        <ele>1968.4</ele>
        <time>2023-10-31T09:57:40Z</time>
      </trkpt>
      <trkpt lat="42.806" lon="-0.03807">
        <ele>1968.4</ele>
        <time>2023-10-31T09:57:41Z</time>
      </trkpt>
      <trkpt lat="42.806" lon="-0.0381">
        <ele>1968.4</ele>
        <time>2023-10-31T09:57:42Z</time>
      </trkpt>
      <trkpt lat="42.806" lon="-0.03811">
        <ele>1968.4</ele>
        <time>2023-10-31T09:57:43Z</time>
      </trkpt>
      <trkpt lat="42.80601" lon="-0.03811">
        <ele>1968.4</ele>
        <time>2023-10-31T09:57:44Z</time>
      </trkpt>
      <trkpt lat="42.80601" lon="-0.03812">
        <ele>1968.4</ele>
        <time>2023-10-31T09:57:45Z</time>
      </trkpt>
      <trkpt lat="42.80601" lon="-0.03814">
        <ele>1968.3</ele>
        <time>2023-10-31T09:57:46Z</time>
      </trkpt>
      <trkpt lat="42.806" lon="-0.03815">
        <ele>1968.3</ele>
        <time>2023-10-31T09:57:47Z</time>
      </trkpt>
      <trkpt lat="42.806" lon="-0.03816">
        <ele>1968.3</ele>
        <time>2023-10-31T09:57:48Z</time>
      </trkpt>
      <trkpt lat="42.806" lon="-0.03817">
        <ele>1968.3</ele>
        <time>2023-10-31T09:57:49Z</time>
      </trkpt>
      <trkpt lat="42.80599" lon="-0.03819">
        <ele>1968.2</ele>
        <time>2023-10-31T09:57:50Z</time>
      </trkpt>
      <trkpt lat="42.806" lon="-0.03821">
        <ele>1968.2</ele>
        <time>2023-10-31T09:57:51Z</time>
      </trkpt>
      <trkpt lat="42.806" lon="-0.03823">
        <ele>1968.2</ele>
        <time>2023-10-31T09:57:52Z</time>
      </trkpt>
      <trkpt lat="42.806" lon="-0.03825">
        <ele>1968.2</ele>
        <time>2023-10-31T09:57:53Z</time>
      </trkpt>
      <trkpt lat="42.806" lon="-0.03827">
        <ele>1968.1</ele>
        <time>2023-10-31T09:57:54Z</time>
      </trkpt>
      <trkpt lat="42.806" lon="-0.03828">
        <ele>1968.1</ele>
        <time>2023-10-31T09:57:55Z</time>
      </trkpt>
      <trkpt lat="42.80601" lon="-0.0383">
        <ele>1968.1</ele>
        <time>2023-10-31T09:57:56Z</time>
      </trkpt>
      <trkpt lat="42.80602" lon="-0.03832">
        <ele>1968</ele>
        <time>2023-10-31T09:57:57Z</time>
      </trkpt>
      <trkpt lat="42.80603" lon="-0.03833">
        <ele>1968</ele>
        <time>2023-10-31T09:57:58Z</time>
      </trkpt>
      <trkpt lat="42.80604" lon="-0.03833">
        <ele>1968</ele>
        <time>2023-10-31T09:57:59Z</time>
      </trkpt>
      <trkpt lat="42.80604" lon="-0.03833">
        <ele>1968</ele>
        <time>2023-10-31T09:58:00Z</time>
      </trkpt>
      <trkpt lat="42.80604" lon="-0.03833">
        <ele>1968</ele>
        <time>2023-10-31T09:58:01Z</time>
      </trkpt>
      <trkpt lat="42.80604" lon="-0.03834">
        <ele>1968</ele>
        <time>2023-10-31T09:58:02Z</time>
      </trkpt>
      <trkpt lat="42.80604" lon="-0.03836">
        <ele>1967.9</ele>
        <time>2023-10-31T09:58:03Z</time>
      </trkpt>
      <trkpt lat="42.80604" lon="-0.03837">
        <ele>1967.9</ele>
        <time>2023-10-31T09:58:04Z</time>
      </trkpt>
      <trkpt lat="42.80604" lon="-0.03838">
        <ele>1967.9</ele>
        <time>2023-10-31T09:58:05Z</time>
      </trkpt>
      <trkpt lat="42.80605" lon="-0.03841">
        <ele>1967.9</ele>
        <time>2023-10-31T09:58:06Z</time>
      </trkpt>
      <trkpt lat="42.80605" lon="-0.03842">
        <ele>1967.9</ele>
        <time>2023-10-31T09:58:07Z</time>
      </trkpt>
      <trkpt lat="42.80605" lon="-0.03844">
        <ele>1967.8</ele>
        <time>2023-10-31T09:58:08Z</time>
      </trkpt>
      <trkpt lat="42.80606" lon="-0.03846">
        <ele>1967.8</ele>
        <time>2023-10-31T09:58:09Z</time>
      </trkpt>
      <trkpt lat="42.80606" lon="-0.03847">
        <ele>1967.8</ele>
        <time>2023-10-31T09:58:10Z</time>
      </trkpt>
      <trkpt lat="42.80606" lon="-0.03848">
        <ele>1967.8</ele>
        <time>2023-10-31T09:58:11Z</time>
      </trkpt>
      <trkpt lat="42.80606" lon="-0.0385">
        <ele>1967.8</ele>
        <time>2023-10-31T09:58:12Z</time>
      </trkpt>
      <trkpt lat="42.80605" lon="-0.03852">
        <ele>1967.8</ele>
        <time>2023-10-31T09:58:13Z</time>
      </trkpt>
      <trkpt lat="42.80605" lon="-0.03853">
        <ele>1967.8</ele>
        <time>2023-10-31T09:58:14Z</time>
      </trkpt>
      <trkpt lat="42.80605" lon="-0.03856">
        <ele>1967.8</ele>
        <time>2023-10-31T09:58:15Z</time>
      </trkpt>
      <trkpt lat="42.80605" lon="-0.03857">
        <ele>1967.8</ele>
        <time>2023-10-31T09:58:16Z</time>
      </trkpt>
      <trkpt lat="42.80606" lon="-0.03858">
        <ele>1967.7</ele>
        <time>2023-10-31T09:58:17Z</time>
      </trkpt>
      <trkpt lat="42.80605" lon="-0.0386">
        <ele>1967.7</ele>
        <time>2023-10-31T09:58:18Z</time>
      </trkpt>
      <trkpt lat="42.80605" lon="-0.03861">
        <ele>1967.7</ele>
        <time>2023-10-31T09:58:19Z</time>
      </trkpt>
      <trkpt lat="42.80605" lon="-0.03863">
        <ele>1967.7</ele>
        <time>2023-10-31T09:58:20Z</time>
      </trkpt>
      <trkpt lat="42.80606" lon="-0.03865">
        <ele>1967.8</ele>
        <time>2023-10-31T09:58:21Z</time>
      </trkpt>
      <trkpt lat="42.80607" lon="-0.03866">
        <ele>1967.8</ele>
        <time>2023-10-31T09:58:22Z</time>
      </trkpt>
      <trkpt lat="42.80607" lon="-0.03867">
        <ele>1967.8</ele>
        <time>2023-10-31T09:58:23Z</time>
      </trkpt>
      <trkpt lat="42.80607" lon="-0.03869">
        <ele>1967.8</ele>
        <time>2023-10-31T09:58:24Z</time>
      </trkpt>
      <trkpt lat="42.80607" lon="-0.0387">
        <ele>1967.8</ele>
        <time>2023-10-31T09:58:25Z</time>
      </trkpt>
      <trkpt lat="42.80607" lon="-0.03872">
        <ele>1967.8</ele>
        <time>2023-10-31T09:58:26Z</time>
      </trkpt>
      <trkpt lat="42.80607" lon="-0.03873">
        <ele>1967.8</ele>
        <time>2023-10-31T09:58:27Z</time>
      </trkpt>
      <trkpt lat="42.80607" lon="-0.03874">
        <ele>1967.8</ele>
        <time>2023-10-31T09:58:28Z</time>
      </trkpt>
      <trkpt lat="42.80607" lon="-0.03875">
        <ele>1967.8</ele>
        <time>2023-10-31T09:58:29Z</time>
      </trkpt>
      <trkpt lat="42.80607" lon="-0.03875">
        <ele>1967.8</ele>
        <time>2023-10-31T09:58:30Z</time>
      </trkpt>
      <trkpt lat="42.80607" lon="-0.03877">
        <ele>1967.8</ele>
        <time>2023-10-31T09:58:31Z</time>
      </trkpt>
      <trkpt lat="42.80607" lon="-0.03877">
        <ele>1967.8</ele>
        <time>2023-10-31T09:58:32Z</time>
      </trkpt>
      <trkpt lat="42.80608" lon="-0.03878">
        <ele>1967.8</ele>
        <time>2023-10-31T09:58:33Z</time>
      </trkpt>
      <trkpt lat="42.80609" lon="-0.0388">
        <ele>1967.8</ele>
        <time>2023-10-31T09:58:34Z</time>
      </trkpt>
      <trkpt lat="42.8061" lon="-0.03881">
        <ele>1967.8</ele>
        <time>2023-10-31T09:58:35Z</time>
      </trkpt>
      <trkpt lat="42.8061" lon="-0.03882">
        <ele>1967.9</ele>
        <time>2023-10-31T09:58:36Z</time>
      </trkpt>
      <trkpt lat="42.8061" lon="-0.03884">
        <ele>1967.9</ele>
        <time>2023-10-31T09:58:37Z</time>
      </trkpt>
      <trkpt lat="42.8061" lon="-0.03884">
        <ele>1967.9</ele>
        <time>2023-10-31T09:58:38Z</time>
      </trkpt>
      <trkpt lat="42.8061" lon="-0.03887">
        <ele>1967.9</ele>
        <time>2023-10-31T09:58:39Z</time>
      </trkpt>
      <trkpt lat="42.80609" lon="-0.03888">
        <ele>1967.9</ele>
        <time>2023-10-31T09:58:40Z</time>
      </trkpt>
      <trkpt lat="42.80608" lon="-0.03889">
        <ele>1967.9</ele>
        <time>2023-10-31T09:58:41Z</time>
      </trkpt>
      <trkpt lat="42.80609" lon="-0.0389">
        <ele>1967.9</ele>
        <time>2023-10-31T09:58:42Z</time>
      </trkpt>
      <trkpt lat="42.80608" lon="-0.03891">
        <ele>1968</ele>
        <time>2023-10-31T09:58:43Z</time>
      </trkpt>
      <trkpt lat="42.80607" lon="-0.03893">
        <ele>1968</ele>
        <time>2023-10-31T09:58:44Z</time>
      </trkpt>
      <trkpt lat="42.80606" lon="-0.03893">
        <ele>1968</ele>
        <time>2023-10-31T09:58:45Z</time>
      </trkpt>
      <trkpt lat="42.80606" lon="-0.03894">
        <ele>1968</ele>
        <time>2023-10-31T09:58:46Z</time>
      </trkpt>
      <trkpt lat="42.80606" lon="-0.03895">
        <ele>1968</ele>
        <time>2023-10-31T09:58:47Z</time>
      </trkpt>
      <trkpt lat="42.80606" lon="-0.03895">
        <ele>1968</ele>
        <time>2023-10-31T09:58:48Z</time>
      </trkpt>
      <trkpt lat="42.80605" lon="-0.03897">
        <ele>1968.1</ele>
        <time>2023-10-31T09:58:49Z</time>
      </trkpt>
      <trkpt lat="42.80604" lon="-0.03899">
        <ele>1968.1</ele>
        <time>2023-10-31T09:58:50Z</time>
      </trkpt>
      <trkpt lat="42.80604" lon="-0.03902">
        <ele>1968.2</ele>
        <time>2023-10-31T09:58:51Z</time>
      </trkpt>
      <trkpt lat="42.80603" lon="-0.03903">
        <ele>1968.2</ele>
        <time>2023-10-31T09:58:52Z</time>
      </trkpt>
      <trkpt lat="42.80603" lon="-0.03904">
        <ele>1968.2</ele>
        <time>2023-10-31T09:58:53Z</time>
      </trkpt>
      <trkpt lat="42.80602" lon="-0.03904">
        <ele>1968.2</ele>
        <time>2023-10-31T09:58:54Z</time>
      </trkpt>
      <trkpt lat="42.80602" lon="-0.03905">
        <ele>1968.2</ele>
        <time>2023-10-31T09:58:55Z</time>
      </trkpt>
      <trkpt lat="42.80601" lon="-0.03904">
        <ele>1968.3</ele>
        <time>2023-10-31T09:58:56Z</time>
      </trkpt>
      <trkpt lat="42.80602" lon="-0.03902">
        <ele>1968.3</ele>
        <time>2023-10-31T09:58:57Z</time>
      </trkpt>
      <trkpt lat="42.80602" lon="-0.03901">
        <ele>1968.3</ele>
        <time>2023-10-31T09:58:58Z</time>
      </trkpt>
      <trkpt lat="42.80602" lon="-0.03901">
        <ele>1968.3</ele>
        <time>2023-10-31T09:58:59Z</time>
      </trkpt>
      <trkpt lat="42.80602" lon="-0.03903">
        <ele>1968.4</ele>
        <time>2023-10-31T09:59:00Z</time>
      </trkpt>
      <trkpt lat="42.80602" lon="-0.03906">
        <ele>1968.4</ele>
        <time>2023-10-31T09:59:01Z</time>
      </trkpt>
      <trkpt lat="42.80602" lon="-0.03908">
        <ele>1968.5</ele>
        <time>2023-10-31T09:59:02Z</time>
      </trkpt>
      <trkpt lat="42.80602" lon="-0.03911">
        <ele>1968.5</ele>
        <time>2023-10-31T09:59:03Z</time>
      </trkpt>
      <trkpt lat="42.80602" lon="-0.03912">
        <ele>1968.5</ele>
        <time>2023-10-31T09:59:04Z</time>
      </trkpt>
      <trkpt lat="42.80602" lon="-0.03913">
        <ele>1968.6</ele>
        <time>2023-10-31T09:59:05Z</time>
      </trkpt>
      <trkpt lat="42.80602" lon="-0.03915">
        <ele>1968.6</ele>
        <time>2023-10-31T09:59:06Z</time>
      </trkpt>
      <trkpt lat="42.80602" lon="-0.03917">
        <ele>1968.6</ele>
        <time>2023-10-31T09:59:07Z</time>
      </trkpt>
      <trkpt lat="42.80603" lon="-0.03918">
        <ele>1968.6</ele>
        <time>2023-10-31T09:59:08Z</time>
      </trkpt>
      <trkpt lat="42.80602" lon="-0.03919">
        <ele>1968.7</ele>
        <time>2023-10-31T09:59:09Z</time>
      </trkpt>
      <trkpt lat="42.80602" lon="-0.0392">
        <ele>1968.7</ele>
        <time>2023-10-31T09:59:10Z</time>
      </trkpt>
      <trkpt lat="42.80602" lon="-0.03922">
        <ele>1968.7</ele>
        <time>2023-10-31T09:59:11Z</time>
      </trkpt>
      <trkpt lat="42.80602" lon="-0.03923">
        <ele>1968.7</ele>
        <time>2023-10-31T09:59:12Z</time>
      </trkpt>
      <trkpt lat="42.80602" lon="-0.03925">
        <ele>1968.8</ele>
        <time>2023-10-31T09:59:13Z</time>
      </trkpt>
      <trkpt lat="42.80602" lon="-0.03928">
        <ele>1968.8</ele>
        <time>2023-10-31T09:59:14Z</time>
      </trkpt>
      <trkpt lat="42.80603" lon="-0.03928">
        <ele>1968.8</ele>
        <time>2023-10-31T09:59:15Z</time>
      </trkpt>
      <trkpt lat="42.80603" lon="-0.03929">
        <ele>1968.8</ele>
        <time>2023-10-31T09:59:16Z</time>
      </trkpt>
      <trkpt lat="42.80603" lon="-0.0393">
        <ele>1968.8</ele>
        <time>2023-10-31T09:59:17Z</time>
      </trkpt>
      <trkpt lat="42.80604" lon="-0.03933">
        <ele>1969</ele>
        <time>2023-10-31T09:59:18Z</time>
      </trkpt>
      <trkpt lat="42.80604" lon="-0.03934">
        <ele>1969.1</ele>
        <time>2023-10-31T09:59:19Z</time>
      </trkpt>
      <trkpt lat="42.80604" lon="-0.03935">
        <ele>1969.2</ele>
        <time>2023-10-31T09:59:20Z</time>
      </trkpt>
      <trkpt lat="42.80604" lon="-0.03936">
        <ele>1969.2</ele>
        <time>2023-10-31T09:59:21Z</time>
      </trkpt>
      <trkpt lat="42.80604" lon="-0.03937">
        <ele>1969.3</ele>
        <time>2023-10-31T09:59:22Z</time>
      </trkpt>
      <trkpt lat="42.80604" lon="-0.03939">
        <ele>1969.4</ele>
        <time>2023-10-31T09:59:23Z</time>
      </trkpt>
      <trkpt lat="42.80605" lon="-0.03942">
        <ele>1969.6</ele>
        <time>2023-10-31T09:59:24Z</time>
      </trkpt>
      <trkpt lat="42.80606" lon="-0.03943">
        <ele>1969.6</ele>
        <time>2023-10-31T09:59:25Z</time>
      </trkpt>
      <trkpt lat="42.80606" lon="-0.03944">
        <ele>1969.7</ele>
        <time>2023-10-31T09:59:26Z</time>
      </trkpt>
      <trkpt lat="42.80606" lon="-0.03946">
        <ele>1969.8</ele>
        <time>2023-10-31T09:59:27Z</time>
      </trkpt>
      <trkpt lat="42.80607" lon="-0.03946">
        <ele>1969.9</ele>
        <time>2023-10-31T09:59:28Z</time>
      </trkpt>
      <trkpt lat="42.80607" lon="-0.03947">
        <ele>1969.9</ele>
        <time>2023-10-31T09:59:29Z</time>
      </trkpt>
      <trkpt lat="42.80607" lon="-0.03948">
        <ele>1970</ele>
        <time>2023-10-31T09:59:30Z</time>
      </trkpt>
      <trkpt lat="42.80608" lon="-0.03951">
        <ele>1970.2</ele>
        <time>2023-10-31T09:59:31Z</time>
      </trkpt>
      <trkpt lat="42.80609" lon="-0.03952">
        <ele>1970.2</ele>
        <time>2023-10-31T09:59:32Z</time>
      </trkpt>
      <trkpt lat="42.80609" lon="-0.03952">
        <ele>1970.3</ele>
        <time>2023-10-31T09:59:33Z</time>
      </trkpt>
      <trkpt lat="42.8061" lon="-0.03953">
        <ele>1970.4</ele>
        <time>2023-10-31T09:59:34Z</time>
      </trkpt>
      <trkpt lat="42.80611" lon="-0.03953">
        <ele>1970.4</ele>
        <time>2023-10-31T09:59:35Z</time>
      </trkpt>
      <trkpt lat="42.80612" lon="-0.03954">
        <ele>1970.5</ele>
        <time>2023-10-31T09:59:36Z</time>
      </trkpt>
      <trkpt lat="42.80612" lon="-0.03954">
        <ele>1970.6</ele>
        <time>2023-10-31T09:59:37Z</time>
      </trkpt>
      <trkpt lat="42.80613" lon="-0.03955">
        <ele>1970.7</ele>
        <time>2023-10-31T09:59:38Z</time>
      </trkpt>
      <trkpt lat="42.80614" lon="-0.03957">
        <ele>1970.8</ele>
        <time>2023-10-31T09:59:39Z</time>
      </trkpt>
      <trkpt lat="42.80615" lon="-0.03958">
        <ele>1970.9</ele>
        <time>2023-10-31T09:59:40Z</time>
      </trkpt>
      <trkpt lat="42.80615" lon="-0.03959">
        <ele>1971</ele>
        <time>2023-10-31T09:59:41Z</time>
      </trkpt>
      <trkpt lat="42.80616" lon="-0.0396">
        <ele>1971.1</ele>
        <time>2023-10-31T09:59:42Z</time>
      </trkpt>
      <trkpt lat="42.80616" lon="-0.0396">
        <ele>1971.1</ele>
        <time>2023-10-31T09:59:43Z</time>
      </trkpt>
      <trkpt lat="42.80617" lon="-0.03961">
        <ele>1971.2</ele>
        <time>2023-10-31T09:59:44Z</time>
      </trkpt>
      <trkpt lat="42.80617" lon="-0.03962">
        <ele>1971.3</ele>
        <time>2023-10-31T09:59:45Z</time>
      </trkpt>
      <trkpt lat="42.80617" lon="-0.03963">
        <ele>1971.4</ele>
        <time>2023-10-31T09:59:46Z</time>
      </trkpt>
      <trkpt lat="42.80617" lon="-0.03964">
        <ele>1971.5</ele>
        <time>2023-10-31T09:59:47Z</time>
      </trkpt>
      <trkpt lat="42.80618" lon="-0.03966">
        <ele>1971.6</ele>
        <time>2023-10-31T09:59:48Z</time>
      </trkpt>
      <trkpt lat="42.80618" lon="-0.03967">
        <ele>1971.7</ele>
        <time>2023-10-31T09:59:49Z</time>
      </trkpt>
      <trkpt lat="42.80619" lon="-0.03968">
        <ele>1971.8</ele>
        <time>2023-10-31T09:59:50Z</time>
      </trkpt>
      <trkpt lat="42.8062" lon="-0.03969">
        <ele>1971.9</ele>
        <time>2023-10-31T09:59:51Z</time>
      </trkpt>
      <trkpt lat="42.8062" lon="-0.03969">
        <ele>1972</ele>
        <time>2023-10-31T09:59:52Z</time>
      </trkpt>
      <trkpt lat="42.80621" lon="-0.0397">
        <ele>1972.1</ele>
        <time>2023-10-31T09:59:53Z</time>
      </trkpt>
      <trkpt lat="42.80622" lon="-0.03971">
        <ele>1972.3</ele>
        <time>2023-10-31T09:59:54Z</time>
      </trkpt>
      <trkpt lat="42.80623" lon="-0.03972">
        <ele>1972.4</ele>
        <time>2023-10-31T09:59:55Z</time>
      </trkpt>
      <trkpt lat="42.80623" lon="-0.03972">
        <ele>1972.5</ele>
        <time>2023-10-31T09:59:56Z</time>
      </trkpt>
      <trkpt lat="42.80624" lon="-0.03972">
        <ele>1972.6</ele>
        <time>2023-10-31T09:59:57Z</time>
      </trkpt>
      <trkpt lat="42.80624" lon="-0.03973">
        <ele>1972.7</ele>
        <time>2023-10-31T09:59:58Z</time>
      </trkpt>
      <trkpt lat="42.80625" lon="-0.03974">
        <ele>1972.8</ele>
        <time>2023-10-31T09:59:59Z</time>
      </trkpt>
      <trkpt lat="42.80625" lon="-0.03975">
        <ele>1972.9</ele>
        <time>2023-10-31T10:00:00Z</time>
      </trkpt>
      <trkpt lat="42.80625" lon="-0.03975">
        <ele>1973</ele>
        <time>2023-10-31T10:00:01Z</time>
      </trkpt>
      <trkpt lat="42.80625" lon="-0.03975">
        <ele>1973</ele>
        <time>2023-10-31T10:00:02Z</time>
      </trkpt>
      <trkpt lat="42.80625" lon="-0.03975">
        <ele>1973</ele>
        <time>2023-10-31T10:00:03Z</time>
      </trkpt>
      <trkpt lat="42.80625" lon="-0.03975">
        <ele>1973</ele>
        <time>2023-10-31T10:00:04Z</time>
      </trkpt>
      <trkpt lat="42.80625" lon="-0.03975">
        <ele>1973</ele>
        <time>2023-10-31T10:00:05Z</time>
      </trkpt>
      <trkpt lat="42.80625" lon="-0.03975">
        <ele>1973</ele>
        <time>2023-10-31T10:00:06Z</time>
      </trkpt>
      <trkpt lat="42.80625" lon="-0.03975">
        <ele>1973</ele>
        <time>2023-10-31T10:00:07Z</time>
      </trkpt>
      <trkpt lat="42.80625" lon="-0.03975">
        <ele>1973.1</ele>
        <time>2023-10-31T10:00:08Z</time>
      </trkpt>
      <trkpt lat="42.80626" lon="-0.03975">
        <ele>1973.3</ele>
        <time>2023-10-31T10:00:09Z</time>
      </trkpt>
      <trkpt lat="42.80627" lon="-0.03975">
        <ele>1973.4</ele>
        <time>2023-10-31T10:00:10Z</time>
      </trkpt>
      <trkpt lat="42.80628" lon="-0.03975">
        <ele>1973.6</ele>
        <time>2023-10-31T10:00:11Z</time>
      </trkpt>
      <trkpt lat="42.80629" lon="-0.03975">
        <ele>1973.8</ele>
        <time>2023-10-31T10:00:12Z</time>
      </trkpt>
      <trkpt lat="42.8063" lon="-0.03975">
        <ele>1973.9</ele>
        <time>2023-10-31T10:00:13Z</time>
      </trkpt>
      <trkpt lat="42.80631" lon="-0.03975">
        <ele>1974.1</ele>
        <time>2023-10-31T10:00:14Z</time>
      </trkpt>
      <trkpt lat="42.80632" lon="-0.03975">
        <ele>1974.2</ele>
        <time>2023-10-31T10:00:15Z</time>
      </trkpt>
      <trkpt lat="42.80632" lon="-0.03976">
        <ele>1974.3</ele>
        <time>2023-10-31T10:00:16Z</time>
      </trkpt>
      <trkpt lat="42.80633" lon="-0.03976">
        <ele>1974.5</ele>
        <time>2023-10-31T10:00:17Z</time>
      </trkpt>
      <trkpt lat="42.80635" lon="-0.03976">
        <ele>1975</ele>
        <time>2023-10-31T10:00:18Z</time>
      </trkpt>
      <trkpt lat="42.80636" lon="-0.03975">
        <ele>1975.1</ele>
        <time>2023-10-31T10:00:19Z</time>
      </trkpt>
      <trkpt lat="42.80636" lon="-0.03975">
        <ele>1975.2</ele>
        <time>2023-10-31T10:00:20Z</time>
      </trkpt>
      <trkpt lat="42.80637" lon="-0.03974">
        <ele>1975.3</ele>
        <time>2023-10-31T10:00:21Z</time>
      </trkpt>
      <trkpt lat="42.80637" lon="-0.03973">
        <ele>1975.4</ele>
        <time>2023-10-31T10:00:22Z</time>
      </trkpt>
      <trkpt lat="42.80637" lon="-0.03973">
        <ele>1975.6</ele>
        <time>2023-10-31T10:00:23Z</time>
      </trkpt>
      <trkpt lat="42.80638" lon="-0.03972">
        <ele>1975.8</ele>
        <time>2023-10-31T10:00:24Z</time>
      </trkpt>
      <trkpt lat="42.80639" lon="-0.03971">
        <ele>1975.9</ele>
        <time>2023-10-31T10:00:25Z</time>
      </trkpt>
      <trkpt lat="42.8064" lon="-0.03969">
        <ele>1976.3</ele>
        <time>2023-10-31T10:00:26Z</time>
      </trkpt>
      <trkpt lat="42.80641" lon="-0.03969">
        <ele>1976.4</ele>
        <time>2023-10-31T10:00:27Z</time>
      </trkpt>
      <trkpt lat="42.80641" lon="-0.03969">
        <ele>1976.6</ele>
        <time>2023-10-31T10:00:29Z</time>
      </trkpt>
      <trkpt lat="42.80642" lon="-0.03968">
        <ele>1976.7</ele>
        <time>2023-10-31T10:00:31Z</time>
      </trkpt>
      <trkpt lat="42.80642" lon="-0.03968">
        <ele>1976.9</ele>
        <time>2023-10-31T10:00:32Z</time>
      </trkpt>
      <trkpt lat="42.80643" lon="-0.03967">
        <ele>1977</ele>
        <time>2023-10-31T10:00:33Z</time>
      </trkpt>
      <trkpt lat="42.80644" lon="-0.03967">
        <ele>1977.2</ele>
        <time>2023-10-31T10:00:34Z</time>
      </trkpt>
      <trkpt lat="42.80644" lon="-0.03967">
        <ele>1977.3</ele>
        <time>2023-10-31T10:00:35Z</time>
      </trkpt>
      <trkpt lat="42.80645" lon="-0.03967">
        <ele>1977.4</ele>
        <time>2023-10-31T10:00:36Z</time>
      </trkpt>
      <trkpt lat="42.80645" lon="-0.03967">
        <ele>1977.6</ele>
        <time>2023-10-31T10:00:37Z</time>
      </trkpt>
      <trkpt lat="42.80646" lon="-0.03967">
        <ele>1977.7</ele>
        <time>2023-10-31T10:00:38Z</time>
      </trkpt>
      <trkpt lat="42.80646" lon="-0.03967">
        <ele>1977.8</ele>
        <time>2023-10-31T10:00:39Z</time>
      </trkpt>
      <trkpt lat="42.80647" lon="-0.03968">
        <ele>1977.9</ele>
        <time>2023-10-31T10:00:40Z</time>
      </trkpt>
      <trkpt lat="42.80647" lon="-0.03968">
        <ele>1978</ele>
        <time>2023-10-31T10:00:41Z</time>
      </trkpt>
      <trkpt lat="42.80648" lon="-0.03969">
        <ele>1978.3</ele>
        <time>2023-10-31T10:00:42Z</time>
      </trkpt>
      <trkpt lat="42.80649" lon="-0.03969">
        <ele>1978.5</ele>
        <time>2023-10-31T10:00:43Z</time>
      </trkpt>
      <trkpt lat="42.80649" lon="-0.03969">
        <ele>1978.5</ele>
        <time>2023-10-31T10:00:44Z</time>
      </trkpt>
      <trkpt lat="42.8065" lon="-0.03969">
        <ele>1978.7</ele>
        <time>2023-10-31T10:00:45Z</time>
      </trkpt>
      <trkpt lat="42.8065" lon="-0.0397">
        <ele>1978.9</ele>
        <time>2023-10-31T10:00:46Z</time>
      </trkpt>
      <trkpt lat="42.80651" lon="-0.0397">
        <ele>1979</ele>
        <time>2023-10-31T10:00:47Z</time>
      </trkpt>
      <trkpt lat="42.80651" lon="-0.0397">
        <ele>1979.1</ele>
        <time>2023-10-31T10:00:48Z</time>
      </trkpt>
      <trkpt lat="42.80652" lon="-0.0397">
        <ele>1979.3</ele>
        <time>2023-10-31T10:00:49Z</time>
      </trkpt>
      <trkpt lat="42.80653" lon="-0.0397">
        <ele>1979.4</ele>
        <time>2023-10-31T10:00:50Z</time>
      </trkpt>
      <trkpt lat="42.80653" lon="-0.03969">
        <ele>1979.6</ele>
        <time>2023-10-31T10:00:51Z</time>
      </trkpt>
      <trkpt lat="42.80654" lon="-0.0397">
        <ele>1979.7</ele>
        <time>2023-10-31T10:00:52Z</time>
      </trkpt>
      <trkpt lat="42.80654" lon="-0.0397">
        <ele>1979.8</ele>
        <time>2023-10-31T10:00:53Z</time>
      </trkpt>
      <trkpt lat="42.80654" lon="-0.0397">
        <ele>1979.9</ele>
        <time>2023-10-31T10:00:54Z</time>
      </trkpt>
      <trkpt lat="42.80655" lon="-0.0397">
        <ele>1980.1</ele>
        <time>2023-10-31T10:00:55Z</time>
      </trkpt>
      <trkpt lat="42.80655" lon="-0.0397">
        <ele>1980.1</ele>
        <time>2023-10-31T10:00:56Z</time>
      </trkpt>
      <trkpt lat="42.80656" lon="-0.0397">
        <ele>1980.3</ele>
        <time>2023-10-31T10:00:57Z</time>
      </trkpt>
      <trkpt lat="42.80656" lon="-0.0397">
        <ele>1980.4</ele>
        <time>2023-10-31T10:00:58Z</time>
      </trkpt>
      <trkpt lat="42.80657" lon="-0.03971">
        <ele>1980.6</ele>
        <time>2023-10-31T10:00:59Z</time>
      </trkpt>
      <trkpt lat="42.80657" lon="-0.03971">
        <ele>1980.7</ele>
        <time>2023-10-31T10:01:00Z</time>
      </trkpt>
      <trkpt lat="42.80658" lon="-0.03972">
        <ele>1980.9</ele>
        <time>2023-10-31T10:01:01Z</time>
      </trkpt>
      <trkpt lat="42.80658" lon="-0.03972">
        <ele>1981</ele>
        <time>2023-10-31T10:01:02Z</time>
      </trkpt>
      <trkpt lat="42.80659" lon="-0.03972">
        <ele>1981.1</ele>
        <time>2023-10-31T10:01:03Z</time>
      </trkpt>
      <trkpt lat="42.80659" lon="-0.03972">
        <ele>1981.3</ele>
        <time>2023-10-31T10:01:04Z</time>
      </trkpt>
      <trkpt lat="42.8066" lon="-0.03971">
        <ele>1981.5</ele>
        <time>2023-10-31T10:01:05Z</time>
      </trkpt>
      <trkpt lat="42.8066" lon="-0.0397">
        <ele>1981.7</ele>
        <time>2023-10-31T10:01:06Z</time>
      </trkpt>
      <trkpt lat="42.80661" lon="-0.03969">
        <ele>1981.9</ele>
        <time>2023-10-31T10:01:07Z</time>
      </trkpt>
      <trkpt lat="42.80661" lon="-0.03969">
        <ele>1982</ele>
        <time>2023-10-31T10:01:08Z</time>
      </trkpt>
      <trkpt lat="42.80661" lon="-0.03968">
        <ele>1982.1</ele>
        <time>2023-10-31T10:01:09Z</time>
      </trkpt>
      <trkpt lat="42.80662" lon="-0.03968">
        <ele>1982.3</ele>
        <time>2023-10-31T10:01:10Z</time>
      </trkpt>
      <trkpt lat="42.80662" lon="-0.03968">
        <ele>1982.3</ele>
        <time>2023-10-31T10:01:11Z</time>
      </trkpt>
      <trkpt lat="42.80662" lon="-0.03968">
        <ele>1982.4</ele>
        <time>2023-10-31T10:01:12Z</time>
      </trkpt>
      <trkpt lat="42.80662" lon="-0.03969">
        <ele>1982.4</ele>
        <time>2023-10-31T10:01:13Z</time>
      </trkpt>
      <trkpt lat="42.80663" lon="-0.03969">
        <ele>1982.6</ele>
        <time>2023-10-31T10:01:14Z</time>
      </trkpt>
      <trkpt lat="42.80663" lon="-0.03969">
        <ele>1982.7</ele>
        <time>2023-10-31T10:01:15Z</time>
      </trkpt>
      <trkpt lat="42.80664" lon="-0.03969">
        <ele>1982.9</ele>
        <time>2023-10-31T10:01:16Z</time>
      </trkpt>
      <trkpt lat="42.80664" lon="-0.0397">
        <ele>1983</ele>
        <time>2023-10-31T10:01:17Z</time>
      </trkpt>
      <trkpt lat="42.80664" lon="-0.0397">
        <ele>1983.1</ele>
        <time>2023-10-31T10:01:18Z</time>
      </trkpt>
      <trkpt lat="42.80665" lon="-0.0397">
        <ele>1983.3</ele>
        <time>2023-10-31T10:01:19Z</time>
      </trkpt>
      <trkpt lat="42.80666" lon="-0.0397">
        <ele>1983.4</ele>
        <time>2023-10-31T10:01:20Z</time>
      </trkpt>
      <trkpt lat="42.80666" lon="-0.0397">
        <ele>1983.5</ele>
        <time>2023-10-31T10:01:21Z</time>
      </trkpt>
      <trkpt lat="42.80666" lon="-0.03971">
        <ele>1983.6</ele>
        <time>2023-10-31T10:01:22Z</time>
      </trkpt>
      <trkpt lat="42.80667" lon="-0.03972">
        <ele>1983.8</ele>
        <time>2023-10-31T10:01:23Z</time>
      </trkpt>
      <trkpt lat="42.80668" lon="-0.03972">
        <ele>1984</ele>
        <time>2023-10-31T10:01:24Z</time>
      </trkpt>
      <trkpt lat="42.80668" lon="-0.03972">
        <ele>1984.2</ele>
        <time>2023-10-31T10:01:25Z</time>
      </trkpt>
      <trkpt lat="42.80669" lon="-0.03973">
        <ele>1984.3</ele>
        <time>2023-10-31T10:01:26Z</time>
      </trkpt>
      <trkpt lat="42.80669" lon="-0.03973">
        <ele>1984.5</ele>
        <time>2023-10-31T10:01:27Z</time>
      </trkpt>
      <trkpt lat="42.8067" lon="-0.03974">
        <ele>1984.7</ele>
        <time>2023-10-31T10:01:28Z</time>
      </trkpt>
      <trkpt lat="42.80671" lon="-0.03975">
        <ele>1984.9</ele>
        <time>2023-10-31T10:01:29Z</time>
      </trkpt>
      <trkpt lat="42.80672" lon="-0.03975">
        <ele>1985</ele>
        <time>2023-10-31T10:01:30Z</time>
      </trkpt>
      <trkpt lat="42.80673" lon="-0.03975">
        <ele>1985.3</ele>
        <time>2023-10-31T10:01:31Z</time>
      </trkpt>
      <trkpt lat="42.80673" lon="-0.03976">
        <ele>1985.4</ele>
        <time>2023-10-31T10:01:32Z</time>
      </trkpt>
      <trkpt lat="42.80675" lon="-0.03975">
        <ele>1985.7</ele>
        <time>2023-10-31T10:01:33Z</time>
      </trkpt>
      <trkpt lat="42.80675" lon="-0.03975">
        <ele>1985.8</ele>
        <time>2023-10-31T10:01:34Z</time>
      </trkpt>
      <trkpt lat="42.80676" lon="-0.03975">
        <ele>1985.9</ele>
        <time>2023-10-31T10:01:35Z</time>
      </trkpt>
      <trkpt lat="42.80677" lon="-0.03974">
        <ele>1986.2</ele>
        <time>2023-10-31T10:01:36Z</time>
      </trkpt>
      <trkpt lat="42.80678" lon="-0.03975">
        <ele>1986.3</ele>
        <time>2023-10-31T10:01:37Z</time>
      </trkpt>
      <trkpt lat="42.80678" lon="-0.03974">
        <ele>1986.5</ele>
        <time>2023-10-31T10:01:38Z</time>
      </trkpt>
      <trkpt lat="42.80679" lon="-0.03975">
        <ele>1986.7</ele>
        <time>2023-10-31T10:01:39Z</time>
      </trkpt>
      <trkpt lat="42.8068" lon="-0.03974">
        <ele>1986.8</ele>
        <time>2023-10-31T10:01:40Z</time>
      </trkpt>
      <trkpt lat="42.8068" lon="-0.03974">
        <ele>1986.9</ele>
        <time>2023-10-31T10:01:41Z</time>
      </trkpt>
      <trkpt lat="42.8068" lon="-0.03973">
        <ele>1987</ele>
        <time>2023-10-31T10:01:42Z</time>
      </trkpt>
      <trkpt lat="42.8068" lon="-0.03973">
        <ele>1987</ele>
        <time>2023-10-31T10:01:43Z</time>
      </trkpt>
      <trkpt lat="42.80681" lon="-0.03973">
        <ele>1987.2</ele>
        <time>2023-10-31T10:01:44Z</time>
      </trkpt>
      <trkpt lat="42.80682" lon="-0.03973">
        <ele>1987.3</ele>
        <time>2023-10-31T10:01:45Z</time>
      </trkpt>
      <trkpt lat="42.80682" lon="-0.03974">
        <ele>1987.5</ele>
        <time>2023-10-31T10:01:46Z</time>
      </trkpt>
      <trkpt lat="42.80684" lon="-0.03973">
        <ele>1988</ele>
        <time>2023-10-31T10:01:47Z</time>
      </trkpt>
      <trkpt lat="42.80685" lon="-0.03972">
        <ele>1988.1</ele>
        <time>2023-10-31T10:01:48Z</time>
      </trkpt>
      <trkpt lat="42.80686" lon="-0.03972">
        <ele>1988.3</ele>
        <time>2023-10-31T10:01:49Z</time>
      </trkpt>
      <trkpt lat="42.80686" lon="-0.03973">
        <ele>1988.4</ele>
        <time>2023-10-31T10:01:50Z</time>
      </trkpt>
      <trkpt lat="42.80687" lon="-0.03974">
        <ele>1988.7</ele>
        <time>2023-10-31T10:01:51Z</time>
      </trkpt>
      <trkpt lat="42.80687" lon="-0.03973">
        <ele>1988.7</ele>
        <time>2023-10-31T10:01:52Z</time>
      </trkpt>
      <trkpt lat="42.80688" lon="-0.03972">
        <ele>1989</ele>
        <time>2023-10-31T10:01:53Z</time>
      </trkpt>
      <trkpt lat="42.80689" lon="-0.03971">
        <ele>1989.2</ele>
        <time>2023-10-31T10:01:54Z</time>
      </trkpt>
      <trkpt lat="42.8069" lon="-0.0397">
        <ele>1989.4</ele>
        <time>2023-10-31T10:01:55Z</time>
      </trkpt>
      <trkpt lat="42.8069" lon="-0.03968">
        <ele>1989.6</ele>
        <time>2023-10-31T10:01:56Z</time>
      </trkpt>
      <trkpt lat="42.8069" lon="-0.03966">
        <ele>1989.9</ele>
        <time>2023-10-31T10:01:57Z</time>
      </trkpt>
      <trkpt lat="42.8069" lon="-0.03966">
        <ele>1989.9</ele>
        <time>2023-10-31T10:01:58Z</time>
      </trkpt>
      <trkpt lat="42.8069" lon="-0.03966">
        <ele>1990</ele>
        <time>2023-10-31T10:01:59Z</time>
      </trkpt>
      <trkpt lat="42.8069" lon="-0.03966">
        <ele>1990</ele>
        <time>2023-10-31T10:02:00Z</time>
      </trkpt>
      <trkpt lat="42.8069" lon="-0.03965">
        <ele>1990.1</ele>
        <time>2023-10-31T10:02:01Z</time>
      </trkpt>
      <trkpt lat="42.80691" lon="-0.03965">
        <ele>1990.2</ele>
        <time>2023-10-31T10:02:02Z</time>
      </trkpt>
      <trkpt lat="42.80692" lon="-0.03964">
        <ele>1990.4</ele>
        <time>2023-10-31T10:02:03Z</time>
      </trkpt>
      <trkpt lat="42.80692" lon="-0.03963">
        <ele>1990.5</ele>
        <time>2023-10-31T10:02:04Z</time>
      </trkpt>
      <trkpt lat="42.80693" lon="-0.03963">
        <ele>1990.6</ele>
        <time>2023-10-31T10:02:05Z</time>
      </trkpt>
      <trkpt lat="42.80693" lon="-0.03961">
        <ele>1990.8</ele>
        <time>2023-10-31T10:02:06Z</time>
      </trkpt>
      <trkpt lat="42.80693" lon="-0.0396">
        <ele>1990.9</ele>
        <time>2023-10-31T10:02:07Z</time>
      </trkpt>
      <trkpt lat="42.80693" lon="-0.03959">
        <ele>1991.1</ele>
        <time>2023-10-31T10:02:08Z</time>
      </trkpt>
      <trkpt lat="42.80693" lon="-0.03958">
        <ele>1991.2</ele>
        <time>2023-10-31T10:02:09Z</time>
      </trkpt>
      <trkpt lat="42.80694" lon="-0.03957">
        <ele>1991.4</ele>
        <time>2023-10-31T10:02:10Z</time>
      </trkpt>
      <trkpt lat="42.80694" lon="-0.03956">
        <ele>1991.6</ele>
        <time>2023-10-31T10:02:11Z</time>
      </trkpt>
      <trkpt lat="42.80694" lon="-0.03955">
        <ele>1991.7</ele>
        <time>2023-10-31T10:02:12Z</time>
      </trkpt>
      <trkpt lat="42.80694" lon="-0.03954">
        <ele>1991.9</ele>
        <time>2023-10-31T10:02:13Z</time>
      </trkpt>
      <trkpt lat="42.80695" lon="-0.03953">
        <ele>1992</ele>
        <time>2023-10-31T10:02:14Z</time>
      </trkpt>
      <trkpt lat="42.80695" lon="-0.03952">
        <ele>1992.1</ele>
        <time>2023-10-31T10:02:15Z</time>
      </trkpt>
      <trkpt lat="42.80695" lon="-0.03951">
        <ele>1992.2</ele>
        <time>2023-10-31T10:02:16Z</time>
      </trkpt>
      <trkpt lat="42.80696" lon="-0.0395">
        <ele>1992.4</ele>
        <time>2023-10-31T10:02:17Z</time>
      </trkpt>
      <trkpt lat="42.80696" lon="-0.03949">
        <ele>1992.5</ele>
        <time>2023-10-31T10:02:18Z</time>
      </trkpt>
      <trkpt lat="42.80696" lon="-0.03949">
        <ele>1992.6</ele>
        <time>2023-10-31T10:02:19Z</time>
      </trkpt>
      <trkpt lat="42.80697" lon="-0.03948">
        <ele>1992.8</ele>
        <time>2023-10-31T10:02:20Z</time>
      </trkpt>
      <trkpt lat="42.80697" lon="-0.03947">
        <ele>1992.9</ele>
        <time>2023-10-31T10:02:21Z</time>
      </trkpt>
      <trkpt lat="42.80697" lon="-0.03946">
        <ele>1993</ele>
        <time>2023-10-31T10:02:22Z</time>
      </trkpt>
      <trkpt lat="42.80698" lon="-0.03946">
        <ele>1993.1</ele>
        <time>2023-10-31T10:02:23Z</time>
      </trkpt>
      <trkpt lat="42.80698" lon="-0.03945">
        <ele>1993.2</ele>
        <time>2023-10-31T10:02:24Z</time>
      </trkpt>
      <trkpt lat="42.80699" lon="-0.03944">
        <ele>1993.4</ele>
        <time>2023-10-31T10:02:25Z</time>
      </trkpt>
      <trkpt lat="42.80699" lon="-0.03944">
        <ele>1993.5</ele>
        <time>2023-10-31T10:02:26Z</time>
      </trkpt>
      <trkpt lat="42.807" lon="-0.03943">
        <ele>1993.6</ele>
        <time>2023-10-31T10:02:27Z</time>
      </trkpt>
      <trkpt lat="42.807" lon="-0.03943">
        <ele>1993.7</ele>
        <time>2023-10-31T10:02:28Z</time>
      </trkpt>
      <trkpt lat="42.80701" lon="-0.03943">
        <ele>1993.9</ele>
        <time>2023-10-31T10:02:29Z</time>
      </trkpt>
      <trkpt lat="42.80702" lon="-0.03942">
        <ele>1994</ele>
        <time>2023-10-31T10:02:30Z</time>
      </trkpt>
      <trkpt lat="42.80702" lon="-0.03941">
        <ele>1994.1</ele>
        <time>2023-10-31T10:02:31Z</time>
      </trkpt>
      <trkpt lat="42.80703" lon="-0.03941">
        <ele>1994.3</ele>
        <time>2023-10-31T10:02:32Z</time>
      </trkpt>
      <trkpt lat="42.80702" lon="-0.0394">
        <ele>1994.4</ele>
        <time>2023-10-31T10:02:34Z</time>
      </trkpt>
      <trkpt lat="42.80703" lon="-0.03938">
        <ele>1994.7</ele>
        <time>2023-10-31T10:02:35Z</time>
      </trkpt>
      <trkpt lat="42.80704" lon="-0.03937">
        <ele>1995</ele>
        <time>2023-10-31T10:02:36Z</time>
      </trkpt>
      <trkpt lat="42.80704" lon="-0.03936">
        <ele>1995.1</ele>
        <time>2023-10-31T10:02:37Z</time>
      </trkpt>
      <trkpt lat="42.80704" lon="-0.03936">
        <ele>1995.2</ele>
        <time>2023-10-31T10:02:38Z</time>
      </trkpt>
      <trkpt lat="42.80704" lon="-0.03935">
        <ele>1995.4</ele>
        <time>2023-10-31T10:02:39Z</time>
      </trkpt>
      <trkpt lat="42.80705" lon="-0.03934">
        <ele>1995.6</ele>
        <time>2023-10-31T10:02:40Z</time>
      </trkpt>
      <trkpt lat="42.80705" lon="-0.03933">
        <ele>1995.8</ele>
        <time>2023-10-31T10:02:41Z</time>
      </trkpt>
      <trkpt lat="42.80706" lon="-0.03932">
        <ele>1995.9</ele>
        <time>2023-10-31T10:02:42Z</time>
      </trkpt>
      <trkpt lat="42.80706" lon="-0.03932">
        <ele>1996</ele>
        <time>2023-10-31T10:02:43Z</time>
      </trkpt>
      <trkpt lat="42.80706" lon="-0.03931">
        <ele>1996.1</ele>
        <time>2023-10-31T10:02:44Z</time>
      </trkpt>
      <trkpt lat="42.80706" lon="-0.03931">
        <ele>1996.2</ele>
        <time>2023-10-31T10:02:45Z</time>
      </trkpt>
      <trkpt lat="42.80707" lon="-0.0393">
        <ele>1996.4</ele>
        <time>2023-10-31T10:02:46Z</time>
      </trkpt>
      <trkpt lat="42.80707" lon="-0.03929">
        <ele>1996.6</ele>
        <time>2023-10-31T10:02:47Z</time>
      </trkpt>
      <trkpt lat="42.80707" lon="-0.03928">
        <ele>1996.6</ele>
        <time>2023-10-31T10:02:48Z</time>
      </trkpt>
      <trkpt lat="42.80708" lon="-0.03927">
        <ele>1996.8</ele>
        <time>2023-10-31T10:02:49Z</time>
      </trkpt>
      <trkpt lat="42.80707" lon="-0.03926">
        <ele>1997.1</ele>
        <time>2023-10-31T10:02:50Z</time>
      </trkpt>
      <trkpt lat="42.80707" lon="-0.03925">
        <ele>1997.2</ele>
        <time>2023-10-31T10:02:51Z</time>
      </trkpt>
      <trkpt lat="42.80707" lon="-0.03925">
        <ele>1997.3</ele>
        <time>2023-10-31T10:02:52Z</time>
      </trkpt>
      <trkpt lat="42.80707" lon="-0.03924">
        <ele>1997.4</ele>
        <time>2023-10-31T10:02:53Z</time>
      </trkpt>
      <trkpt lat="42.80708" lon="-0.03924">
        <ele>1997.5</ele>
        <time>2023-10-31T10:02:54Z</time>
      </trkpt>
      <trkpt lat="42.80708" lon="-0.03923">
        <ele>1997.7</ele>
        <time>2023-10-31T10:02:55Z</time>
      </trkpt>
      <trkpt lat="42.80709" lon="-0.03922">
        <ele>1998</ele>
        <time>2023-10-31T10:02:56Z</time>
      </trkpt>
      <trkpt lat="42.8071" lon="-0.03921">
        <ele>1998.1</ele>
        <time>2023-10-31T10:02:57Z</time>
      </trkpt>
      <trkpt lat="42.8071" lon="-0.03921">
        <ele>1998.2</ele>
        <time>2023-10-31T10:02:58Z</time>
      </trkpt>
      <trkpt lat="42.8071" lon="-0.0392">
        <ele>1998.3</ele>
        <time>2023-10-31T10:02:59Z</time>
      </trkpt>
      <trkpt lat="42.8071" lon="-0.03919">
        <ele>1998.6</ele>
        <time>2023-10-31T10:03:00Z</time>
      </trkpt>
      <trkpt lat="42.8071" lon="-0.03918">
        <ele>1998.7</ele>
        <time>2023-10-31T10:03:01Z</time>
      </trkpt>
      <trkpt lat="42.8071" lon="-0.03918">
        <ele>1998.8</ele>
        <time>2023-10-31T10:03:02Z</time>
      </trkpt>
      <trkpt lat="42.8071" lon="-0.03917">
        <ele>1999</ele>
        <time>2023-10-31T10:03:03Z</time>
      </trkpt>
      <trkpt lat="42.80711" lon="-0.03917">
        <ele>1999.1</ele>
        <time>2023-10-31T10:03:04Z</time>
      </trkpt>
      <trkpt lat="42.80712" lon="-0.03915">
        <ele>1999.5</ele>
        <time>2023-10-31T10:03:05Z</time>
      </trkpt>
      <trkpt lat="42.80712" lon="-0.03915">
        <ele>1999.6</ele>
        <time>2023-10-31T10:03:06Z</time>
      </trkpt>
      <trkpt lat="42.80712" lon="-0.03915">
        <ele>1999.7</ele>
        <time>2023-10-31T10:03:07Z</time>
      </trkpt>
      <trkpt lat="42.80712" lon="-0.03914">
        <ele>1999.8</ele>
        <time>2023-10-31T10:03:08Z</time>
      </trkpt>
      <trkpt lat="42.80713" lon="-0.03913">
        <ele>2000</ele>
        <time>2023-10-31T10:03:09Z</time>
      </trkpt>
      <trkpt lat="42.80713" lon="-0.03912">
        <ele>2000.3</ele>
        <time>2023-10-31T10:03:10Z</time>
      </trkpt>
      <trkpt lat="42.80714" lon="-0.03911">
        <ele>2000.4</ele>
        <time>2023-10-31T10:03:11Z</time>
      </trkpt>
      <trkpt lat="42.80714" lon="-0.03911">
        <ele>2000.5</ele>
        <time>2023-10-31T10:03:12Z</time>
      </trkpt>
      <trkpt lat="42.80714" lon="-0.0391">
        <ele>2000.7</ele>
        <time>2023-10-31T10:03:13Z</time>
      </trkpt>
      <trkpt lat="42.80715" lon="-0.03909">
        <ele>2000.9</ele>
        <time>2023-10-31T10:03:14Z</time>
      </trkpt>
      <trkpt lat="42.80716" lon="-0.03909">
        <ele>2001.1</ele>
        <time>2023-10-31T10:03:15Z</time>
      </trkpt>
      <trkpt lat="42.80716" lon="-0.03909">
        <ele>2001.3</ele>
        <time>2023-10-31T10:03:16Z</time>
      </trkpt>
      <trkpt lat="42.80717" lon="-0.03908">
        <ele>2001.5</ele>
        <time>2023-10-31T10:03:17Z</time>
      </trkpt>
      <trkpt lat="42.80717" lon="-0.03908">
        <ele>2001.6</ele>
        <time>2023-10-31T10:03:18Z</time>
      </trkpt>
      <trkpt lat="42.80717" lon="-0.03907">
        <ele>2001.7</ele>
        <time>2023-10-31T10:03:19Z</time>
      </trkpt>
      <trkpt lat="42.80718" lon="-0.03907">
        <ele>2001.7</ele>
        <time>2023-10-31T10:03:20Z</time>
      </trkpt>
      <trkpt lat="42.80718" lon="-0.03906">
        <ele>2001.9</ele>
        <time>2023-10-31T10:03:21Z</time>
      </trkpt>
      <trkpt lat="42.80719" lon="-0.03906">
        <ele>2002.1</ele>
        <time>2023-10-31T10:03:22Z</time>
      </trkpt>
      <trkpt lat="42.80719" lon="-0.03905">
        <ele>2002.2</ele>
        <time>2023-10-31T10:03:23Z</time>
      </trkpt>
      <trkpt lat="42.80719" lon="-0.03905">
        <ele>2002.2</ele>
        <time>2023-10-31T10:03:24Z</time>
      </trkpt>
      <trkpt lat="42.80719" lon="-0.03906">
        <ele>2002.3</ele>
        <time>2023-10-31T10:03:25Z</time>
      </trkpt>
      <trkpt lat="42.8072" lon="-0.03905">
        <ele>2002.5</ele>
        <time>2023-10-31T10:03:26Z</time>
      </trkpt>
      <trkpt lat="42.8072" lon="-0.03905">
        <ele>2002.6</ele>
        <time>2023-10-31T10:03:27Z</time>
      </trkpt>
      <trkpt lat="42.8072" lon="-0.03904">
        <ele>2002.8</ele>
        <time>2023-10-31T10:03:28Z</time>
      </trkpt>
      <trkpt lat="42.8072" lon="-0.03903">
        <ele>2003</ele>
        <time>2023-10-31T10:03:29Z</time>
      </trkpt>
      <trkpt lat="42.8072" lon="-0.03902">
        <ele>2003.1</ele>
        <time>2023-10-31T10:03:30Z</time>
      </trkpt>
      <trkpt lat="42.8072" lon="-0.03901">
        <ele>2003.3</ele>
        <time>2023-10-31T10:03:31Z</time>
      </trkpt>
      <trkpt lat="42.80721" lon="-0.03901">
        <ele>2003.4</ele>
        <time>2023-10-31T10:03:32Z</time>
      </trkpt>
      <trkpt lat="42.80721" lon="-0.039">
        <ele>2003.6</ele>
        <time>2023-10-31T10:03:33Z</time>
      </trkpt>
      <trkpt lat="42.80721" lon="-0.039">
        <ele>2003.7</ele>
        <time>2023-10-31T10:03:34Z</time>
      </trkpt>
      <trkpt lat="42.80721" lon="-0.03899">
        <ele>2003.8</ele>
        <time>2023-10-31T10:03:35Z</time>
      </trkpt>
      <trkpt lat="42.80722" lon="-0.03898">
        <ele>2004</ele>
        <time>2023-10-31T10:03:36Z</time>
      </trkpt>
      <trkpt lat="42.80722" lon="-0.03897">
        <ele>2004.2</ele>
        <time>2023-10-31T10:03:37Z</time>
      </trkpt>
      <trkpt lat="42.80722" lon="-0.03896">
        <ele>2004.4</ele>
        <time>2023-10-31T10:03:38Z</time>
      </trkpt>
      <trkpt lat="42.80722" lon="-0.03896">
        <ele>2004.4</ele>
        <time>2023-10-31T10:03:39Z</time>
      </trkpt>
      <trkpt lat="42.80723" lon="-0.03895">
        <ele>2004.6</ele>
        <time>2023-10-31T10:03:40Z</time>
      </trkpt>
      <trkpt lat="42.80723" lon="-0.03895">
        <ele>2004.7</ele>
        <time>2023-10-31T10:03:41Z</time>
      </trkpt>
      <trkpt lat="42.80723" lon="-0.03894">
        <ele>2004.9</ele>
        <time>2023-10-31T10:03:42Z</time>
      </trkpt>
      <trkpt lat="42.80724" lon="-0.03893">
        <ele>2005.1</ele>
        <time>2023-10-31T10:03:43Z</time>
      </trkpt>
      <trkpt lat="42.80724" lon="-0.03892">
        <ele>2005.3</ele>
        <time>2023-10-31T10:03:44Z</time>
      </trkpt>
      <trkpt lat="42.80724" lon="-0.03891">
        <ele>2005.4</ele>
        <time>2023-10-31T10:03:45Z</time>
      </trkpt>
      <trkpt lat="42.80724" lon="-0.03889">
        <ele>2005.6</ele>
        <time>2023-10-31T10:03:46Z</time>
      </trkpt>
      <trkpt lat="42.80724" lon="-0.03888">
        <ele>2005.7</ele>
        <time>2023-10-31T10:03:47Z</time>
      </trkpt>
      <trkpt lat="42.80725" lon="-0.03887">
        <ele>2005.9</ele>
        <time>2023-10-31T10:03:48Z</time>
      </trkpt>
      <trkpt lat="42.80725" lon="-0.03887">
        <ele>2006</ele>
        <time>2023-10-31T10:03:49Z</time>
      </trkpt>
      <trkpt lat="42.80725" lon="-0.03886">
        <ele>2006.2</ele>
        <time>2023-10-31T10:03:50Z</time>
      </trkpt>
      <trkpt lat="42.80725" lon="-0.03885">
        <ele>2006.3</ele>
        <time>2023-10-31T10:03:51Z</time>
      </trkpt>
      <trkpt lat="42.80725" lon="-0.03884">
        <ele>2006.4</ele>
        <time>2023-10-31T10:03:52Z</time>
      </trkpt>
      <trkpt lat="42.80725" lon="-0.03883">
        <ele>2006.6</ele>
        <time>2023-10-31T10:03:53Z</time>
      </trkpt>
      <trkpt lat="42.80726" lon="-0.03882">
        <ele>2006.7</ele>
        <time>2023-10-31T10:03:54Z</time>
      </trkpt>
      <trkpt lat="42.80726" lon="-0.03881">
        <ele>2006.9</ele>
        <time>2023-10-31T10:03:55Z</time>
      </trkpt>
      <trkpt lat="42.80726" lon="-0.03879">
        <ele>2007.1</ele>
        <time>2023-10-31T10:03:56Z</time>
      </trkpt>
      <trkpt lat="42.80726" lon="-0.03878">
        <ele>2007.2</ele>
        <time>2023-10-31T10:03:57Z</time>
      </trkpt>
      <trkpt lat="42.80726" lon="-0.03878">
        <ele>2007.3</ele>
        <time>2023-10-31T10:03:58Z</time>
      </trkpt>
      <trkpt lat="42.80726" lon="-0.03877">
        <ele>2007.4</ele>
        <time>2023-10-31T10:03:59Z</time>
      </trkpt>
      <trkpt lat="42.80727" lon="-0.03876">
        <ele>2007.5</ele>
        <time>2023-10-31T10:04:00Z</time>
      </trkpt>
      <trkpt lat="42.80727" lon="-0.03875">
        <ele>2007.7</ele>
        <time>2023-10-31T10:04:01Z</time>
      </trkpt>
      <trkpt lat="42.80728" lon="-0.03874">
        <ele>2007.9</ele>
        <time>2023-10-31T10:04:02Z</time>
      </trkpt>
      <trkpt lat="42.80728" lon="-0.03873">
        <ele>2007.9</ele>
        <time>2023-10-31T10:04:03Z</time>
      </trkpt>
      <trkpt lat="42.80729" lon="-0.03872">
        <ele>2008.1</ele>
        <time>2023-10-31T10:04:04Z</time>
      </trkpt>
      <trkpt lat="42.80729" lon="-0.03871">
        <ele>2008.2</ele>
        <time>2023-10-31T10:04:05Z</time>
      </trkpt>
      <trkpt lat="42.80729" lon="-0.03871">
        <ele>2008.2</ele>
        <time>2023-10-31T10:04:06Z</time>
      </trkpt>
      <trkpt lat="42.80729" lon="-0.03872">
        <ele>2008.4</ele>
        <time>2023-10-31T10:04:07Z</time>
      </trkpt>
      <trkpt lat="42.80728" lon="-0.03872">
        <ele>2008.4</ele>
        <time>2023-10-31T10:04:08Z</time>
      </trkpt>
      <trkpt lat="42.80729" lon="-0.03872">
        <ele>2008.4</ele>
        <time>2023-10-31T10:04:09Z</time>
      </trkpt>
      <trkpt lat="42.80729" lon="-0.03872">
        <ele>2008.5</ele>
        <time>2023-10-31T10:04:10Z</time>
      </trkpt>
      <trkpt lat="42.80729" lon="-0.03872">
        <ele>2008.5</ele>
        <time>2023-10-31T10:04:11Z</time>
      </trkpt>
      <trkpt lat="42.80729" lon="-0.03872">
        <ele>2008.5</ele>
        <time>2023-10-31T10:04:12Z</time>
      </trkpt>
      <trkpt lat="42.80729" lon="-0.03872">
        <ele>2008.5</ele>
        <time>2023-10-31T10:04:13Z</time>
      </trkpt>
      <trkpt lat="42.80729" lon="-0.03872">
        <ele>2008.5</ele>
        <time>2023-10-31T10:04:14Z</time>
      </trkpt>
      <trkpt lat="42.80729" lon="-0.03872">
        <ele>2008.5</ele>
        <time>2023-10-31T10:04:15Z</time>
      </trkpt>
      <trkpt lat="42.80729" lon="-0.03872">
        <ele>2008.5</ele>
        <time>2023-10-31T10:04:16Z</time>
      </trkpt>
      <trkpt lat="42.80729" lon="-0.03872">
        <ele>2008.5</ele>
        <time>2023-10-31T10:04:17Z</time>
      </trkpt>
      <trkpt lat="42.80728" lon="-0.03873">
        <ele>2008.6</ele>
        <time>2023-10-31T10:04:18Z</time>
      </trkpt>
      <trkpt lat="42.80728" lon="-0.03873">
        <ele>2008.7</ele>
        <time>2023-10-31T10:04:19Z</time>
      </trkpt>
      <trkpt lat="42.80728" lon="-0.03872">
        <ele>2008.8</ele>
        <time>2023-10-31T10:04:20Z</time>
      </trkpt>
      <trkpt lat="42.80728" lon="-0.03871">
        <ele>2008.8</ele>
        <time>2023-10-31T10:04:21Z</time>
      </trkpt>
      <trkpt lat="42.80728" lon="-0.03871">
        <ele>2008.9</ele>
        <time>2023-10-31T10:04:22Z</time>
      </trkpt>
      <trkpt lat="42.80728" lon="-0.03871">
        <ele>2008.9</ele>
        <time>2023-10-31T10:04:23Z</time>
      </trkpt>
      <trkpt lat="42.80728" lon="-0.0387">
        <ele>2009</ele>
        <time>2023-10-31T10:04:24Z</time>
      </trkpt>
      <trkpt lat="42.80728" lon="-0.0387">
        <ele>2009</ele>
        <time>2023-10-31T10:04:25Z</time>
      </trkpt>
      <trkpt lat="42.80728" lon="-0.0387">
        <ele>2009.1</ele>
        <time>2023-10-31T10:04:26Z</time>
      </trkpt>
      <trkpt lat="42.80728" lon="-0.0387">
        <ele>2009.1</ele>
        <time>2023-10-31T10:04:27Z</time>
      </trkpt>
      <trkpt lat="42.80728" lon="-0.0387">
        <ele>2009.1</ele>
        <time>2023-10-31T10:04:28Z</time>
      </trkpt>
      <trkpt lat="42.80728" lon="-0.0387">
        <ele>2009.1</ele>
        <time>2023-10-31T10:04:29Z</time>
      </trkpt>
      <trkpt lat="42.80728" lon="-0.0387">
        <ele>2009.1</ele>
        <time>2023-10-31T10:04:30Z</time>
      </trkpt>
      <trkpt lat="42.80728" lon="-0.0387">
        <ele>2009.1</ele>
        <time>2023-10-31T10:04:31Z</time>
      </trkpt>
      <trkpt lat="42.80729" lon="-0.0387">
        <ele>2009.2</ele>
        <time>2023-10-31T10:04:32Z</time>
      </trkpt>
      <trkpt lat="42.80729" lon="-0.03871">
        <ele>2009.3</ele>
        <time>2023-10-31T10:04:33Z</time>
      </trkpt>
      <trkpt lat="42.8073" lon="-0.0387">
        <ele>2009.4</ele>
        <time>2023-10-31T10:04:34Z</time>
      </trkpt>
      <trkpt lat="42.8073" lon="-0.0387">
        <ele>2009.5</ele>
        <time>2023-10-31T10:04:35Z</time>
      </trkpt>
      <trkpt lat="42.8073" lon="-0.03868">
        <ele>2009.7</ele>
        <time>2023-10-31T10:04:36Z</time>
      </trkpt>
      <trkpt lat="42.8073" lon="-0.03867">
        <ele>2009.8</ele>
        <time>2023-10-31T10:04:37Z</time>
      </trkpt>
      <trkpt lat="42.80731" lon="-0.03867">
        <ele>2009.8</ele>
        <time>2023-10-31T10:04:38Z</time>
      </trkpt>
      <trkpt lat="42.80732" lon="-0.03866">
        <ele>2010.1</ele>
        <time>2023-10-31T10:04:40Z</time>
      </trkpt>
      <trkpt lat="42.80732" lon="-0.03865">
        <ele>2010.2</ele>
        <time>2023-10-31T10:04:41Z</time>
      </trkpt>
      <trkpt lat="42.80732" lon="-0.03864">
        <ele>2010.3</ele>
        <time>2023-10-31T10:04:42Z</time>
      </trkpt>
      <trkpt lat="42.80733" lon="-0.03863">
        <ele>2010.5</ele>
        <time>2023-10-31T10:04:43Z</time>
      </trkpt>
      <trkpt lat="42.80733" lon="-0.03863">
        <ele>2010.6</ele>
        <time>2023-10-31T10:04:44Z</time>
      </trkpt>
      <trkpt lat="42.80734" lon="-0.03862">
        <ele>2010.7</ele>
        <time>2023-10-31T10:04:45Z</time>
      </trkpt>
      <trkpt lat="42.80734" lon="-0.03861">
        <ele>2010.9</ele>
        <time>2023-10-31T10:04:46Z</time>
      </trkpt>
      <trkpt lat="42.80735" lon="-0.0386">
        <ele>2011.1</ele>
        <time>2023-10-31T10:04:47Z</time>
      </trkpt>
      <trkpt lat="42.80735" lon="-0.0386">
        <ele>2011.1</ele>
        <time>2023-10-31T10:04:48Z</time>
      </trkpt>
      <trkpt lat="42.80736" lon="-0.03859">
        <ele>2011.3</ele>
        <time>2023-10-31T10:04:49Z</time>
      </trkpt>
      <trkpt lat="42.80736" lon="-0.03858">
        <ele>2011.5</ele>
        <time>2023-10-31T10:04:50Z</time>
      </trkpt>
      <trkpt lat="42.80737" lon="-0.03858">
        <ele>2011.6</ele>
        <time>2023-10-31T10:04:51Z</time>
      </trkpt>
      <trkpt lat="42.80738" lon="-0.03857">
        <ele>2011.7</ele>
        <time>2023-10-31T10:04:52Z</time>
      </trkpt>
      <trkpt lat="42.80738" lon="-0.03857">
        <ele>2011.8</ele>
        <time>2023-10-31T10:04:53Z</time>
      </trkpt>
      <trkpt lat="42.80739" lon="-0.03856">
        <ele>2012</ele>
        <time>2023-10-31T10:04:54Z</time>
      </trkpt>
      <trkpt lat="42.80739" lon="-0.03855">
        <ele>2012.1</ele>
        <time>2023-10-31T10:04:55Z</time>
      </trkpt>
      <trkpt lat="42.8074" lon="-0.03854">
        <ele>2012.4</ele>
        <time>2023-10-31T10:04:56Z</time>
      </trkpt>
      <trkpt lat="42.80741" lon="-0.03854">
        <ele>2012.5</ele>
        <time>2023-10-31T10:04:57Z</time>
      </trkpt>
      <trkpt lat="42.80741" lon="-0.03854">
        <ele>2012.5</ele>
        <time>2023-10-31T10:04:58Z</time>
      </trkpt>
      <trkpt lat="42.80741" lon="-0.03852">
        <ele>2012.8</ele>
        <time>2023-10-31T10:04:59Z</time>
      </trkpt>
      <trkpt lat="42.80741" lon="-0.03852">
        <ele>2012.8</ele>
        <time>2023-10-31T10:05:00Z</time>
      </trkpt>
      <trkpt lat="42.80741" lon="-0.0385">
        <ele>2013</ele>
        <time>2023-10-31T10:05:01Z</time>
      </trkpt>
      <trkpt lat="42.80741" lon="-0.03849">
        <ele>2013.2</ele>
        <time>2023-10-31T10:05:02Z</time>
      </trkpt>
      <trkpt lat="42.80741" lon="-0.03848">
        <ele>2013.4</ele>
        <time>2023-10-31T10:05:03Z</time>
      </trkpt>
      <trkpt lat="42.8074" lon="-0.03847">
        <ele>2013.5</ele>
        <time>2023-10-31T10:05:04Z</time>
      </trkpt>
      <trkpt lat="42.8074" lon="-0.03846">
        <ele>2013.6</ele>
        <time>2023-10-31T10:05:05Z</time>
      </trkpt>
      <trkpt lat="42.8074" lon="-0.03845">
        <ele>2013.7</ele>
        <time>2023-10-31T10:05:06Z</time>
      </trkpt>
      <trkpt lat="42.8074" lon="-0.03844">
        <ele>2013.8</ele>
        <time>2023-10-31T10:05:07Z</time>
      </trkpt>
      <trkpt lat="42.80741" lon="-0.03844">
        <ele>2013.9</ele>
        <time>2023-10-31T10:05:08Z</time>
      </trkpt>
      <trkpt lat="42.80741" lon="-0.03844">
        <ele>2013.9</ele>
        <time>2023-10-31T10:05:09Z</time>
      </trkpt>
      <trkpt lat="42.80741" lon="-0.03844">
        <ele>2014</ele>
        <time>2023-10-31T10:05:10Z</time>
      </trkpt>
      <trkpt lat="42.80741" lon="-0.03844">
        <ele>2014</ele>
        <time>2023-10-31T10:05:11Z</time>
      </trkpt>
      <trkpt lat="42.80741" lon="-0.03845">
        <ele>2014</ele>
        <time>2023-10-31T10:05:12Z</time>
      </trkpt>
      <trkpt lat="42.80741" lon="-0.03845">
        <ele>2014</ele>
        <time>2023-10-31T10:05:13Z</time>
      </trkpt>
      <trkpt lat="42.80741" lon="-0.03845">
        <ele>2014.1</ele>
        <time>2023-10-31T10:05:14Z</time>
      </trkpt>
      <trkpt lat="42.80741" lon="-0.03845">
        <ele>2014.1</ele>
        <time>2023-10-31T10:05:15Z</time>
      </trkpt>
      <trkpt lat="42.80741" lon="-0.03844">
        <ele>2014.1</ele>
        <time>2023-10-31T10:05:16Z</time>
      </trkpt>
      <trkpt lat="42.80741" lon="-0.03843">
        <ele>2014.2</ele>
        <time>2023-10-31T10:05:17Z</time>
      </trkpt>
      <trkpt lat="42.80741" lon="-0.03843">
        <ele>2014.3</ele>
        <time>2023-10-31T10:05:18Z</time>
      </trkpt>
      <trkpt lat="42.80741" lon="-0.03842">
        <ele>2014.4</ele>
        <time>2023-10-31T10:05:19Z</time>
      </trkpt>
      <trkpt lat="42.80742" lon="-0.03841">
        <ele>2014.5</ele>
        <time>2023-10-31T10:05:20Z</time>
      </trkpt>
      <trkpt lat="42.80742" lon="-0.03841">
        <ele>2014.5</ele>
        <time>2023-10-31T10:05:21Z</time>
      </trkpt>
      <trkpt lat="42.80743" lon="-0.0384">
        <ele>2014.6</ele>
        <time>2023-10-31T10:05:22Z</time>
      </trkpt>
      <trkpt lat="42.80742" lon="-0.03839">
        <ele>2014.7</ele>
        <time>2023-10-31T10:05:23Z</time>
      </trkpt>
      <trkpt lat="42.80742" lon="-0.03837">
        <ele>2014.9</ele>
        <time>2023-10-31T10:05:24Z</time>
      </trkpt>
      <trkpt lat="42.80742" lon="-0.03835">
        <ele>2015.1</ele>
        <time>2023-10-31T10:05:25Z</time>
      </trkpt>
      <trkpt lat="42.80742" lon="-0.03833">
        <ele>2015.2</ele>
        <time>2023-10-31T10:05:26Z</time>
      </trkpt>
      <trkpt lat="42.80742" lon="-0.03831">
        <ele>2015.3</ele>
        <time>2023-10-31T10:05:27Z</time>
      </trkpt>
      <trkpt lat="42.80742" lon="-0.0383">
        <ele>2015.4</ele>
        <time>2023-10-31T10:05:28Z</time>
      </trkpt>
      <trkpt lat="42.80742" lon="-0.03828">
        <ele>2015.4</ele>
        <time>2023-10-31T10:05:29Z</time>
      </trkpt>
      <trkpt lat="42.80743" lon="-0.03826">
        <ele>2015.4</ele>
        <time>2023-10-31T10:05:30Z</time>
      </trkpt>
      <trkpt lat="42.80743" lon="-0.03825">
        <ele>2015.4</ele>
        <time>2023-10-31T10:05:31Z</time>
      </trkpt>
      <trkpt lat="42.80743" lon="-0.03824">
        <ele>2015.4</ele>
        <time>2023-10-31T10:05:32Z</time>
      </trkpt>
      <trkpt lat="42.80743" lon="-0.03822">
        <ele>2015.4</ele>
        <time>2023-10-31T10:05:33Z</time>
      </trkpt>
      <trkpt lat="42.80744" lon="-0.03821">
        <ele>2015.4</ele>
        <time>2023-10-31T10:05:34Z</time>
      </trkpt>
      <trkpt lat="42.80744" lon="-0.03822">
        <ele>2015.4</ele>
        <time>2023-10-31T10:05:35Z</time>
      </trkpt>
      <trkpt lat="42.80744" lon="-0.03821">
        <ele>2015.5</ele>
        <time>2023-10-31T10:05:36Z</time>
      </trkpt>
      <trkpt lat="42.80744" lon="-0.03819">
        <ele>2015.5</ele>
        <time>2023-10-31T10:05:37Z</time>
      </trkpt>
      <trkpt lat="42.80744" lon="-0.03817">
        <ele>2015.5</ele>
        <time>2023-10-31T10:05:38Z</time>
      </trkpt>
      <trkpt lat="42.80744" lon="-0.03816">
        <ele>2015.5</ele>
        <time>2023-10-31T10:05:39Z</time>
      </trkpt>
      <trkpt lat="42.80744" lon="-0.03815">
        <ele>2015.5</ele>
        <time>2023-10-31T10:05:40Z</time>
      </trkpt>
      <trkpt lat="42.80744" lon="-0.03814">
        <ele>2015.5</ele>
        <time>2023-10-31T10:05:41Z</time>
      </trkpt>
      <trkpt lat="42.80744" lon="-0.03814">
        <ele>2015.5</ele>
        <time>2023-10-31T10:05:42Z</time>
      </trkpt>
      <trkpt lat="42.80744" lon="-0.03815">
        <ele>2015.5</ele>
        <time>2023-10-31T10:05:43Z</time>
      </trkpt>
      <trkpt lat="42.80744" lon="-0.03815">
        <ele>2015.5</ele>
        <time>2023-10-31T10:05:44Z</time>
      </trkpt>
      <trkpt lat="42.80744" lon="-0.03814">
        <ele>2015.5</ele>
        <time>2023-10-31T10:05:45Z</time>
      </trkpt>
      <trkpt lat="42.80744" lon="-0.03815">
        <ele>2015.5</ele>
        <time>2023-10-31T10:05:46Z</time>
      </trkpt>
      <trkpt lat="42.80744" lon="-0.03815">
        <ele>2015.5</ele>
        <time>2023-10-31T10:05:47Z</time>
      </trkpt>
      <trkpt lat="42.80744" lon="-0.03815">
        <ele>2015.5</ele>
        <time>2023-10-31T10:05:48Z</time>
      </trkpt>
      <trkpt lat="42.80744" lon="-0.03815">
        <ele>2015.5</ele>
        <time>2023-10-31T10:05:49Z</time>
      </trkpt>
      <trkpt lat="42.80744" lon="-0.03815">
        <ele>2015.5</ele>
        <time>2023-10-31T10:05:50Z</time>
      </trkpt>
      <trkpt lat="42.80744" lon="-0.03815">
        <ele>2015.5</ele>
        <time>2023-10-31T10:05:51Z</time>
      </trkpt>
      <trkpt lat="42.80744" lon="-0.03815">
        <ele>2015.5</ele>
        <time>2023-10-31T10:05:52Z</time>
      </trkpt>
      <trkpt lat="42.80744" lon="-0.03815">
        <ele>2015.5</ele>
        <time>2023-10-31T10:05:53Z</time>
      </trkpt>
      <trkpt lat="42.80744" lon="-0.03815">
        <ele>2015.5</ele>
        <time>2023-10-31T10:05:54Z</time>
      </trkpt>
      <trkpt lat="42.80744" lon="-0.03815">
        <ele>2015.5</ele>
        <time>2023-10-31T10:05:55Z</time>
      </trkpt>
      <trkpt lat="42.80743" lon="-0.03816">
        <ele>2015.5</ele>
        <time>2023-10-31T10:05:56Z</time>
      </trkpt>
      <trkpt lat="42.80743" lon="-0.03816">
        <ele>2015.5</ele>
        <time>2023-10-31T10:05:57Z</time>
      </trkpt>
      <trkpt lat="42.80743" lon="-0.03816">
        <ele>2015.5</ele>
        <time>2023-10-31T10:05:58Z</time>
      </trkpt>
      <trkpt lat="42.80743" lon="-0.03816">
        <ele>2015.5</ele>
        <time>2023-10-31T10:05:59Z</time>
      </trkpt>
      <trkpt lat="42.80743" lon="-0.03816">
        <ele>2015.5</ele>
        <time>2023-10-31T10:06:00Z</time>
      </trkpt>
      <trkpt lat="42.80743" lon="-0.03816">
        <ele>2015.5</ele>
        <time>2023-10-31T10:06:01Z</time>
      </trkpt>
      <trkpt lat="42.80743" lon="-0.03816">
        <ele>2015.5</ele>
        <time>2023-10-31T10:06:02Z</time>
      </trkpt>
      <trkpt lat="42.80743" lon="-0.03816">
        <ele>2015.5</ele>
        <time>2023-10-31T10:06:03Z</time>
      </trkpt>
      <trkpt lat="42.80743" lon="-0.03816">
        <ele>2015.5</ele>
        <time>2023-10-31T10:06:04Z</time>
      </trkpt>
      <trkpt lat="42.80743" lon="-0.03816">
        <ele>2015.5</ele>
        <time>2023-10-31T10:06:05Z</time>
      </trkpt>
      <trkpt lat="42.80743" lon="-0.03816">
        <ele>2015.5</ele>
        <time>2023-10-31T10:06:06Z</time>
      </trkpt>
      <trkpt lat="42.80743" lon="-0.03816">
        <ele>2015.5</ele>
        <time>2023-10-31T10:06:07Z</time>
      </trkpt>
      <trkpt lat="42.80743" lon="-0.03814">
        <ele>2015.5</ele>
        <time>2023-10-31T10:06:08Z</time>
      </trkpt>
      <trkpt lat="42.80744" lon="-0.03813">
        <ele>2015.5</ele>
        <time>2023-10-31T10:06:09Z</time>
      </trkpt>
      <trkpt lat="42.80744" lon="-0.03811">
        <ele>2015.5</ele>
        <time>2023-10-31T10:06:10Z</time>
      </trkpt>
      <trkpt lat="42.80745" lon="-0.0381">
        <ele>2015.5</ele>
        <time>2023-10-31T10:06:11Z</time>
      </trkpt>
      <trkpt lat="42.80745" lon="-0.03807">
        <ele>2015.5</ele>
        <time>2023-10-31T10:06:12Z</time>
      </trkpt>
      <trkpt lat="42.80745" lon="-0.03806">
        <ele>2015.5</ele>
        <time>2023-10-31T10:06:13Z</time>
      </trkpt>
      <trkpt lat="42.80745" lon="-0.03805">
        <ele>2015.5</ele>
        <time>2023-10-31T10:06:14Z</time>
      </trkpt>
      <trkpt lat="42.80746" lon="-0.03803">
        <ele>2015.5</ele>
        <time>2023-10-31T10:06:15Z</time>
      </trkpt>
      <trkpt lat="42.80747" lon="-0.03803">
        <ele>2015.5</ele>
        <time>2023-10-31T10:06:16Z</time>
      </trkpt>
      <trkpt lat="42.80748" lon="-0.03802">
        <ele>2015.5</ele>
        <time>2023-10-31T10:06:17Z</time>
      </trkpt>
      <trkpt lat="42.80748" lon="-0.038">
        <ele>2015.5</ele>
        <time>2023-10-31T10:06:18Z</time>
      </trkpt>
      <trkpt lat="42.80748" lon="-0.03799">
        <ele>2015.5</ele>
        <time>2023-10-31T10:06:19Z</time>
      </trkpt>
      <trkpt lat="42.80749" lon="-0.03797">
        <ele>2015.5</ele>
        <time>2023-10-31T10:06:20Z</time>
      </trkpt>
      <trkpt lat="42.80749" lon="-0.03796">
        <ele>2015.5</ele>
        <time>2023-10-31T10:06:21Z</time>
      </trkpt>
      <trkpt lat="42.80749" lon="-0.03794">
        <ele>2015.5</ele>
        <time>2023-10-31T10:06:22Z</time>
      </trkpt>
      <trkpt lat="42.80749" lon="-0.03793">
        <ele>2015.5</ele>
        <time>2023-10-31T10:06:23Z</time>
      </trkpt>
      <trkpt lat="42.8075" lon="-0.0379">
        <ele>2015.5</ele>
        <time>2023-10-31T10:06:24Z</time>
      </trkpt>
      <trkpt lat="42.8075" lon="-0.03789">
        <ele>2015.5</ele>
        <time>2023-10-31T10:06:25Z</time>
      </trkpt>
      <trkpt lat="42.8075" lon="-0.03788">
        <ele>2015.5</ele>
        <time>2023-10-31T10:06:26Z</time>
      </trkpt>
      <trkpt lat="42.8075" lon="-0.03786">
        <ele>2015.5</ele>
        <time>2023-10-31T10:06:27Z</time>
      </trkpt>
      <trkpt lat="42.8075" lon="-0.03784">
        <ele>2015.6</ele>
        <time>2023-10-31T10:06:28Z</time>
      </trkpt>
      <trkpt lat="42.8075" lon="-0.03783">
        <ele>2015.6</ele>
        <time>2023-10-31T10:06:29Z</time>
      </trkpt>
      <trkpt lat="42.80749" lon="-0.03781">
        <ele>2015.6</ele>
        <time>2023-10-31T10:06:30Z</time>
      </trkpt>
      <trkpt lat="42.80749" lon="-0.0378">
        <ele>2015.6</ele>
        <time>2023-10-31T10:06:31Z</time>
      </trkpt>
      <trkpt lat="42.80748" lon="-0.03778">
        <ele>2015.6</ele>
        <time>2023-10-31T10:06:32Z</time>
      </trkpt>
      <trkpt lat="42.80748" lon="-0.03778">
        <ele>2015.7</ele>
        <time>2023-10-31T10:06:33Z</time>
      </trkpt>
      <trkpt lat="42.80747" lon="-0.03776">
        <ele>2015.7</ele>
        <time>2023-10-31T10:06:34Z</time>
      </trkpt>
      <trkpt lat="42.80746" lon="-0.03775">
        <ele>2015.7</ele>
        <time>2023-10-31T10:06:35Z</time>
      </trkpt>
      <trkpt lat="42.80746" lon="-0.03774">
        <ele>2015.7</ele>
        <time>2023-10-31T10:06:36Z</time>
      </trkpt>
      <trkpt lat="42.80745" lon="-0.03772">
        <ele>2015.8</ele>
        <time>2023-10-31T10:06:37Z</time>
      </trkpt>
      <trkpt lat="42.80745" lon="-0.03771">
        <ele>2015.8</ele>
        <time>2023-10-31T10:06:38Z</time>
      </trkpt>
      <trkpt lat="42.80745" lon="-0.0377">
        <ele>2015.8</ele>
        <time>2023-10-31T10:06:39Z</time>
      </trkpt>
      <trkpt lat="42.80745" lon="-0.03768">
        <ele>2015.8</ele>
        <time>2023-10-31T10:06:40Z</time>
      </trkpt>
      <trkpt lat="42.80744" lon="-0.03767">
        <ele>2015.9</ele>
        <time>2023-10-31T10:06:41Z</time>
      </trkpt>
      <trkpt lat="42.80744" lon="-0.03766">
        <ele>2015.9</ele>
        <time>2023-10-31T10:06:42Z</time>
      </trkpt>
      <trkpt lat="42.80744" lon="-0.03764">
        <ele>2015.9</ele>
        <time>2023-10-31T10:06:43Z</time>
      </trkpt>
      <trkpt lat="42.80744" lon="-0.03763">
        <ele>2015.9</ele>
        <time>2023-10-31T10:06:44Z</time>
      </trkpt>
      <trkpt lat="42.80744" lon="-0.03761">
        <ele>2016</ele>
        <time>2023-10-31T10:06:46Z</time>
      </trkpt>
      <trkpt lat="42.80744" lon="-0.0376">
        <ele>2016</ele>
        <time>2023-10-31T10:06:47Z</time>
      </trkpt>
      <trkpt lat="42.80744" lon="-0.03759">
        <ele>2016</ele>
        <time>2023-10-31T10:06:48Z</time>
      </trkpt>
      <trkpt lat="42.80744" lon="-0.03758">
        <ele>2016</ele>
        <time>2023-10-31T10:06:49Z</time>
      </trkpt>
      <trkpt lat="42.80744" lon="-0.03756">
        <ele>2016</ele>
        <time>2023-10-31T10:06:50Z</time>
      </trkpt>
      <trkpt lat="42.80743" lon="-0.03755">
        <ele>2016</ele>
        <time>2023-10-31T10:06:51Z</time>
      </trkpt>
      <trkpt lat="42.80743" lon="-0.03754">
        <ele>2016</ele>
        <time>2023-10-31T10:06:52Z</time>
      </trkpt>
      <trkpt lat="42.80742" lon="-0.03752">
        <ele>2016</ele>
        <time>2023-10-31T10:06:53Z</time>
      </trkpt>
      <trkpt lat="42.80742" lon="-0.03751">
        <ele>2016</ele>
        <time>2023-10-31T10:06:54Z</time>
      </trkpt>
      <trkpt lat="42.80742" lon="-0.03749">
        <ele>2016</ele>
        <time>2023-10-31T10:06:55Z</time>
      </trkpt>
      <trkpt lat="42.80742" lon="-0.03748">
        <ele>2016</ele>
        <time>2023-10-31T10:06:56Z</time>
      </trkpt>
      <trkpt lat="42.80742" lon="-0.03746">
        <ele>2016</ele>
        <time>2023-10-31T10:06:57Z</time>
      </trkpt>
      <trkpt lat="42.80741" lon="-0.03745">
        <ele>2016</ele>
        <time>2023-10-31T10:06:58Z</time>
      </trkpt>
      <trkpt lat="42.8074" lon="-0.03744">
        <ele>2016</ele>
        <time>2023-10-31T10:06:59Z</time>
      </trkpt>
      <trkpt lat="42.80739" lon="-0.03742">
        <ele>2016</ele>
        <time>2023-10-31T10:07:00Z</time>
      </trkpt>
      <trkpt lat="42.80739" lon="-0.0374">
        <ele>2016</ele>
        <time>2023-10-31T10:07:01Z</time>
      </trkpt>
      <trkpt lat="42.80739" lon="-0.03738">
        <ele>2016</ele>
        <time>2023-10-31T10:07:02Z</time>
      </trkpt>
      <trkpt lat="42.80739" lon="-0.03736">
        <ele>2015.9</ele>
        <time>2023-10-31T10:07:03Z</time>
      </trkpt>
      <trkpt lat="42.80739" lon="-0.03735">
        <ele>2015.9</ele>
        <time>2023-10-31T10:07:04Z</time>
      </trkpt>
      <trkpt lat="42.80739" lon="-0.03734">
        <ele>2015.9</ele>
        <time>2023-10-31T10:07:05Z</time>
      </trkpt>
      <trkpt lat="42.80738" lon="-0.03733">
        <ele>2015.9</ele>
        <time>2023-10-31T10:07:06Z</time>
      </trkpt>
      <trkpt lat="42.80737" lon="-0.03733">
        <ele>2015.9</ele>
        <time>2023-10-31T10:07:07Z</time>
      </trkpt>
      <trkpt lat="42.80736" lon="-0.03731">
        <ele>2015.9</ele>
        <time>2023-10-31T10:07:08Z</time>
      </trkpt>
      <trkpt lat="42.80735" lon="-0.03728">
        <ele>2015.9</ele>
        <time>2023-10-31T10:07:09Z</time>
      </trkpt>
      <trkpt lat="42.80735" lon="-0.03727">
        <ele>2015.9</ele>
        <time>2023-10-31T10:07:10Z</time>
      </trkpt>
      <trkpt lat="42.80735" lon="-0.03726">
        <ele>2015.9</ele>
        <time>2023-10-31T10:07:11Z</time>
      </trkpt>
      <trkpt lat="42.80735" lon="-0.03725">
        <ele>2015.9</ele>
        <time>2023-10-31T10:07:12Z</time>
      </trkpt>
      <trkpt lat="42.80734" lon="-0.03723">
        <ele>2015.9</ele>
        <time>2023-10-31T10:07:13Z</time>
      </trkpt>
      <trkpt lat="42.80734" lon="-0.03722">
        <ele>2015.9</ele>
        <time>2023-10-31T10:07:14Z</time>
      </trkpt>
      <trkpt lat="42.80734" lon="-0.03722">
        <ele>2015.9</ele>
        <time>2023-10-31T10:07:15Z</time>
      </trkpt>
      <trkpt lat="42.80734" lon="-0.0372">
        <ele>2015.9</ele>
        <time>2023-10-31T10:07:16Z</time>
      </trkpt>
      <trkpt lat="42.80734" lon="-0.0372">
        <ele>2015.9</ele>
        <time>2023-10-31T10:07:17Z</time>
      </trkpt>
      <trkpt lat="42.80734" lon="-0.03719">
        <ele>2015.9</ele>
        <time>2023-10-31T10:07:18Z</time>
      </trkpt>
      <trkpt lat="42.80734" lon="-0.03717">
        <ele>2015.9</ele>
        <time>2023-10-31T10:07:19Z</time>
      </trkpt>
      <trkpt lat="42.80734" lon="-0.03716">
        <ele>2015.9</ele>
        <time>2023-10-31T10:07:20Z</time>
      </trkpt>
      <trkpt lat="42.80734" lon="-0.03716">
        <ele>2015.9</ele>
        <time>2023-10-31T10:07:21Z</time>
      </trkpt>
      <trkpt lat="42.80735" lon="-0.03715">
        <ele>2015.9</ele>
        <time>2023-10-31T10:07:22Z</time>
      </trkpt>
      <trkpt lat="42.80735" lon="-0.03714">
        <ele>2015.9</ele>
        <time>2023-10-31T10:07:23Z</time>
      </trkpt>
      <trkpt lat="42.80734" lon="-0.03713">
        <ele>2016</ele>
        <time>2023-10-31T10:07:24Z</time>
      </trkpt>
      <trkpt lat="42.80734" lon="-0.03711">
        <ele>2016</ele>
        <time>2023-10-31T10:07:25Z</time>
      </trkpt>
      <trkpt lat="42.80733" lon="-0.03709">
        <ele>2016.1</ele>
        <time>2023-10-31T10:07:26Z</time>
      </trkpt>
      <trkpt lat="42.80733" lon="-0.03709">
        <ele>2016.1</ele>
        <time>2023-10-31T10:07:27Z</time>
      </trkpt>
      <trkpt lat="42.80733" lon="-0.03707">
        <ele>2016.1</ele>
        <time>2023-10-31T10:07:28Z</time>
      </trkpt>
      <trkpt lat="42.80733" lon="-0.03706">
        <ele>2016.2</ele>
        <time>2023-10-31T10:07:29Z</time>
      </trkpt>
      <trkpt lat="42.80734" lon="-0.03705">
        <ele>2016.2</ele>
        <time>2023-10-31T10:07:30Z</time>
      </trkpt>
      <trkpt lat="42.80734" lon="-0.03704">
        <ele>2016.3</ele>
        <time>2023-10-31T10:07:31Z</time>
      </trkpt>
      <trkpt lat="42.80735" lon="-0.03703">
        <ele>2016.3</ele>
        <time>2023-10-31T10:07:32Z</time>
      </trkpt>
      <trkpt lat="42.80735" lon="-0.03703">
        <ele>2016.3</ele>
        <time>2023-10-31T10:07:33Z</time>
      </trkpt>
      <trkpt lat="42.80735" lon="-0.03702">
        <ele>2016.4</ele>
        <time>2023-10-31T10:07:34Z</time>
      </trkpt>
      <trkpt lat="42.80734" lon="-0.03701">
        <ele>2016.4</ele>
        <time>2023-10-31T10:07:35Z</time>
      </trkpt>
      <trkpt lat="42.80735" lon="-0.037">
        <ele>2016.4</ele>
        <time>2023-10-31T10:07:36Z</time>
      </trkpt>
      <trkpt lat="42.80735" lon="-0.03699">
        <ele>2016.5</ele>
        <time>2023-10-31T10:07:37Z</time>
      </trkpt>
      <trkpt lat="42.80735" lon="-0.03698">
        <ele>2016.5</ele>
        <time>2023-10-31T10:07:38Z</time>
      </trkpt>
      <trkpt lat="42.80735" lon="-0.03696">
        <ele>2016.6</ele>
        <time>2023-10-31T10:07:39Z</time>
      </trkpt>
      <trkpt lat="42.80735" lon="-0.03695">
        <ele>2016.7</ele>
        <time>2023-10-31T10:07:40Z</time>
      </trkpt>
      <trkpt lat="42.80735" lon="-0.03692">
        <ele>2016.7</ele>
        <time>2023-10-31T10:07:41Z</time>
      </trkpt>
      <trkpt lat="42.80735" lon="-0.03691">
        <ele>2016.8</ele>
        <time>2023-10-31T10:07:42Z</time>
      </trkpt>
      <trkpt lat="42.80735" lon="-0.03691">
        <ele>2016.8</ele>
        <time>2023-10-31T10:07:43Z</time>
      </trkpt>
      <trkpt lat="42.80735" lon="-0.0369">
        <ele>2016.8</ele>
        <time>2023-10-31T10:07:44Z</time>
      </trkpt>
      <trkpt lat="42.80735" lon="-0.03689">
        <ele>2016.9</ele>
        <time>2023-10-31T10:07:45Z</time>
      </trkpt>
      <trkpt lat="42.80735" lon="-0.03687">
        <ele>2016.9</ele>
        <time>2023-10-31T10:07:46Z</time>
      </trkpt>
      <trkpt lat="42.80735" lon="-0.03687">
        <ele>2016.9</ele>
        <time>2023-10-31T10:07:47Z</time>
      </trkpt>
      <trkpt lat="42.80735" lon="-0.03686">
        <ele>2017</ele>
        <time>2023-10-31T10:07:48Z</time>
      </trkpt>
      <trkpt lat="42.80735" lon="-0.03685">
        <ele>2017</ele>
        <time>2023-10-31T10:07:49Z</time>
      </trkpt>
      <trkpt lat="42.80735" lon="-0.03685">
        <ele>2017</ele>
        <time>2023-10-31T10:07:50Z</time>
      </trkpt>
      <trkpt lat="42.80735" lon="-0.03684">
        <ele>2017</ele>
        <time>2023-10-31T10:07:51Z</time>
      </trkpt>
      <trkpt lat="42.80736" lon="-0.03683">
        <ele>2017</ele>
        <time>2023-10-31T10:07:52Z</time>
      </trkpt>
      <trkpt lat="42.80736" lon="-0.03683">
        <ele>2017</ele>
        <time>2023-10-31T10:07:53Z</time>
      </trkpt>
      <trkpt lat="42.80736" lon="-0.03682">
        <ele>2017</ele>
        <time>2023-10-31T10:07:54Z</time>
      </trkpt>
      <trkpt lat="42.80736" lon="-0.03682">
        <ele>2017</ele>
        <time>2023-10-31T10:07:55Z</time>
      </trkpt>
      <trkpt lat="42.80736" lon="-0.03681">
        <ele>2017</ele>
        <time>2023-10-31T10:07:56Z</time>
      </trkpt>
      <trkpt lat="42.80737" lon="-0.03678">
        <ele>2017.1</ele>
        <time>2023-10-31T10:07:57Z</time>
      </trkpt>
      <trkpt lat="42.80736" lon="-0.03677">
        <ele>2017</ele>
        <time>2023-10-31T10:07:58Z</time>
      </trkpt>
      <trkpt lat="42.80736" lon="-0.03674">
        <ele>2017</ele>
        <time>2023-10-31T10:07:59Z</time>
      </trkpt>
      <trkpt lat="42.80736" lon="-0.03673">
        <ele>2017</ele>
        <time>2023-10-31T10:08:00Z</time>
      </trkpt>
      <trkpt lat="42.80735" lon="-0.03672">
        <ele>2017</ele>
        <time>2023-10-31T10:08:01Z</time>
      </trkpt>
      <trkpt lat="42.80735" lon="-0.0367">
        <ele>2016.9</ele>
        <time>2023-10-31T10:08:02Z</time>
      </trkpt>
      <trkpt lat="42.80735" lon="-0.03671">
        <ele>2016.9</ele>
        <time>2023-10-31T10:08:03Z</time>
      </trkpt>
      <trkpt lat="42.80735" lon="-0.03671">
        <ele>2016.9</ele>
        <time>2023-10-31T10:08:04Z</time>
      </trkpt>
      <trkpt lat="42.80735" lon="-0.03671">
        <ele>2016.9</ele>
        <time>2023-10-31T10:08:05Z</time>
      </trkpt>
      <trkpt lat="42.80735" lon="-0.03671">
        <ele>2016.8</ele>
        <time>2023-10-31T10:08:06Z</time>
      </trkpt>
      <trkpt lat="42.80735" lon="-0.03671">
        <ele>2016.8</ele>
        <time>2023-10-31T10:08:07Z</time>
      </trkpt>
      <trkpt lat="42.80735" lon="-0.0367">
        <ele>2016.8</ele>
        <time>2023-10-31T10:08:08Z</time>
      </trkpt>
      <trkpt lat="42.80736" lon="-0.03669">
        <ele>2016.8</ele>
        <time>2023-10-31T10:08:09Z</time>
      </trkpt>
      <trkpt lat="42.80735" lon="-0.03668">
        <ele>2016.7</ele>
        <time>2023-10-31T10:08:10Z</time>
      </trkpt>
      <trkpt lat="42.80734" lon="-0.03666">
        <ele>2016.6</ele>
        <time>2023-10-31T10:08:11Z</time>
      </trkpt>
      <trkpt lat="42.80733" lon="-0.03664">
        <ele>2016.5</ele>
        <time>2023-10-31T10:08:12Z</time>
      </trkpt>
      <trkpt lat="42.80733" lon="-0.03662">
        <ele>2016.3</ele>
        <time>2023-10-31T10:08:13Z</time>
      </trkpt>
      <trkpt lat="42.80732" lon="-0.03661">
        <ele>2016.3</ele>
        <time>2023-10-31T10:08:14Z</time>
      </trkpt>
      <trkpt lat="42.80733" lon="-0.03663">
        <ele>2016.2</ele>
        <time>2023-10-31T10:08:15Z</time>
      </trkpt>
      <trkpt lat="42.80733" lon="-0.03663">
        <ele>2016.2</ele>
        <time>2023-10-31T10:08:16Z</time>
      </trkpt>
      <trkpt lat="42.80733" lon="-0.03663">
        <ele>2016.1</ele>
        <time>2023-10-31T10:08:17Z</time>
      </trkpt>
      <trkpt lat="42.80733" lon="-0.03663">
        <ele>2016.1</ele>
        <time>2023-10-31T10:08:18Z</time>
      </trkpt>
      <trkpt lat="42.80733" lon="-0.03663">
        <ele>2016.1</ele>
        <time>2023-10-31T10:08:19Z</time>
      </trkpt>
      <trkpt lat="42.80733" lon="-0.03663">
        <ele>2016.1</ele>
        <time>2023-10-31T10:08:20Z</time>
      </trkpt>
      <trkpt lat="42.80732" lon="-0.03664">
        <ele>2016</ele>
        <time>2023-10-31T10:08:21Z</time>
      </trkpt>
      <trkpt lat="42.80732" lon="-0.03664">
        <ele>2016</ele>
        <time>2023-10-31T10:08:22Z</time>
      </trkpt>
      <trkpt lat="42.80732" lon="-0.03664">
        <ele>2016</ele>
        <time>2023-10-31T10:08:23Z</time>
      </trkpt>
      <trkpt lat="42.80732" lon="-0.03664">
        <ele>2015.9</ele>
        <time>2023-10-31T10:08:24Z</time>
      </trkpt>
      <trkpt lat="42.80732" lon="-0.03663">
        <ele>2015.9</ele>
        <time>2023-10-31T10:08:25Z</time>
      </trkpt>
      <trkpt lat="42.80732" lon="-0.03662">
        <ele>2015.8</ele>
        <time>2023-10-31T10:08:26Z</time>
      </trkpt>
      <trkpt lat="42.80731" lon="-0.0366">
        <ele>2015.6</ele>
        <time>2023-10-31T10:08:27Z</time>
      </trkpt>
      <trkpt lat="42.80731" lon="-0.03659">
        <ele>2015.5</ele>
        <time>2023-10-31T10:08:28Z</time>
      </trkpt>
      <trkpt lat="42.8073" lon="-0.03658">
        <ele>2015.4</ele>
        <time>2023-10-31T10:08:29Z</time>
      </trkpt>
      <trkpt lat="42.8073" lon="-0.03656">
        <ele>2015.2</ele>
        <time>2023-10-31T10:08:30Z</time>
      </trkpt>
      <trkpt lat="42.80729" lon="-0.03655">
        <ele>2015</ele>
        <time>2023-10-31T10:08:31Z</time>
      </trkpt>
      <trkpt lat="42.80728" lon="-0.03653">
        <ele>2014.9</ele>
        <time>2023-10-31T10:08:32Z</time>
      </trkpt>
      <trkpt lat="42.80728" lon="-0.03652">
        <ele>2014.8</ele>
        <time>2023-10-31T10:08:33Z</time>
      </trkpt>
      <trkpt lat="42.80728" lon="-0.0365">
        <ele>2014.6</ele>
        <time>2023-10-31T10:08:34Z</time>
      </trkpt>
      <trkpt lat="42.80728" lon="-0.03649">
        <ele>2014.5</ele>
        <time>2023-10-31T10:08:35Z</time>
      </trkpt>
      <trkpt lat="42.80727" lon="-0.03648">
        <ele>2014.4</ele>
        <time>2023-10-31T10:08:36Z</time>
      </trkpt>
      <trkpt lat="42.80727" lon="-0.03646">
        <ele>2014.2</ele>
        <time>2023-10-31T10:08:37Z</time>
      </trkpt>
      <trkpt lat="42.80727" lon="-0.03644">
        <ele>2014</ele>
        <time>2023-10-31T10:08:38Z</time>
      </trkpt>
      <trkpt lat="42.80727" lon="-0.03643">
        <ele>2013.9</ele>
        <time>2023-10-31T10:08:39Z</time>
      </trkpt>
      <trkpt lat="42.80727" lon="-0.03641">
        <ele>2013.8</ele>
        <time>2023-10-31T10:08:40Z</time>
      </trkpt>
      <trkpt lat="42.80726" lon="-0.0364">
        <ele>2013.6</ele>
        <time>2023-10-31T10:08:41Z</time>
      </trkpt>
      <trkpt lat="42.80725" lon="-0.03639">
        <ele>2013.4</ele>
        <time>2023-10-31T10:08:42Z</time>
      </trkpt>
      <trkpt lat="42.80725" lon="-0.03638">
        <ele>2013.3</ele>
        <time>2023-10-31T10:08:43Z</time>
      </trkpt>
      <trkpt lat="42.80724" lon="-0.03636">
        <ele>2013.2</ele>
        <time>2023-10-31T10:08:44Z</time>
      </trkpt>
      <trkpt lat="42.80724" lon="-0.03635">
        <ele>2013.1</ele>
        <time>2023-10-31T10:08:45Z</time>
      </trkpt>
      <trkpt lat="42.80724" lon="-0.03634">
        <ele>2013</ele>
        <time>2023-10-31T10:08:46Z</time>
      </trkpt>
      <trkpt lat="42.80723" lon="-0.03632">
        <ele>2012.8</ele>
        <time>2023-10-31T10:08:47Z</time>
      </trkpt>
      <trkpt lat="42.80723" lon="-0.0363">
        <ele>2012.7</ele>
        <time>2023-10-31T10:08:48Z</time>
      </trkpt>
      <trkpt lat="42.80723" lon="-0.03628">
        <ele>2012.6</ele>
        <time>2023-10-31T10:08:49Z</time>
      </trkpt>
      <trkpt lat="42.80723" lon="-0.03627">
        <ele>2012.5</ele>
        <time>2023-10-31T10:08:50Z</time>
      </trkpt>
      <trkpt lat="42.80723" lon="-0.03626">
        <ele>2012.3</ele>
        <time>2023-10-31T10:08:52Z</time>
      </trkpt>
      <trkpt lat="42.80723" lon="-0.03624">
        <ele>2012.2</ele>
        <time>2023-10-31T10:08:53Z</time>
      </trkpt>
      <trkpt lat="42.80723" lon="-0.03623">
        <ele>2012.2</ele>
        <time>2023-10-31T10:08:54Z</time>
      </trkpt>
      <trkpt lat="42.80723" lon="-0.03621">
        <ele>2012.1</ele>
        <time>2023-10-31T10:08:55Z</time>
      </trkpt>
      <trkpt lat="42.80722" lon="-0.0362">
        <ele>2012</ele>
        <time>2023-10-31T10:08:56Z</time>
      </trkpt>
      <trkpt lat="42.80721" lon="-0.0362">
        <ele>2012</ele>
        <time>2023-10-31T10:08:57Z</time>
      </trkpt>
      <trkpt lat="42.80721" lon="-0.03619">
        <ele>2011.9</ele>
        <time>2023-10-31T10:08:58Z</time>
      </trkpt>
      <trkpt lat="42.8072" lon="-0.03618">
        <ele>2011.8</ele>
        <time>2023-10-31T10:08:59Z</time>
      </trkpt>
      <trkpt lat="42.8072" lon="-0.03617">
        <ele>2011.8</ele>
        <time>2023-10-31T10:09:00Z</time>
      </trkpt>
      <trkpt lat="42.8072" lon="-0.03616">
        <ele>2011.7</ele>
        <time>2023-10-31T10:09:01Z</time>
      </trkpt>
      <trkpt lat="42.8072" lon="-0.03614">
        <ele>2011.7</ele>
        <time>2023-10-31T10:09:02Z</time>
      </trkpt>
      <trkpt lat="42.8072" lon="-0.03614">
        <ele>2011.7</ele>
        <time>2023-10-31T10:09:03Z</time>
      </trkpt>
      <trkpt lat="42.80721" lon="-0.03612">
        <ele>2011.6</ele>
        <time>2023-10-31T10:09:04Z</time>
      </trkpt>
      <trkpt lat="42.80721" lon="-0.0361">
        <ele>2011.6</ele>
        <time>2023-10-31T10:09:05Z</time>
      </trkpt>
      <trkpt lat="42.80721" lon="-0.0361">
        <ele>2011.6</ele>
        <time>2023-10-31T10:09:06Z</time>
      </trkpt>
      <trkpt lat="42.8072" lon="-0.03608">
        <ele>2011.5</ele>
        <time>2023-10-31T10:09:07Z</time>
      </trkpt>
      <trkpt lat="42.80719" lon="-0.03608">
        <ele>2011.5</ele>
        <time>2023-10-31T10:09:08Z</time>
      </trkpt>
      <trkpt lat="42.80719" lon="-0.03606">
        <ele>2011.5</ele>
        <time>2023-10-31T10:09:09Z</time>
      </trkpt>
      <trkpt lat="42.80718" lon="-0.03605">
        <ele>2011.5</ele>
        <time>2023-10-31T10:09:10Z</time>
      </trkpt>
      <trkpt lat="42.80718" lon="-0.03605">
        <ele>2011.5</ele>
        <time>2023-10-31T10:09:11Z</time>
      </trkpt>
      <trkpt lat="42.80718" lon="-0.03604">
        <ele>2011.5</ele>
        <time>2023-10-31T10:09:12Z</time>
      </trkpt>
      <trkpt lat="42.80717" lon="-0.03603">
        <ele>2011.5</ele>
        <time>2023-10-31T10:09:13Z</time>
      </trkpt>
      <trkpt lat="42.80717" lon="-0.03601">
        <ele>2011.5</ele>
        <time>2023-10-31T10:09:14Z</time>
      </trkpt>
      <trkpt lat="42.80717" lon="-0.03601">
        <ele>2011.5</ele>
        <time>2023-10-31T10:09:15Z</time>
      </trkpt>
      <trkpt lat="42.80716" lon="-0.03599">
        <ele>2011.5</ele>
        <time>2023-10-31T10:09:16Z</time>
      </trkpt>
      <trkpt lat="42.80717" lon="-0.03598">
        <ele>2011.5</ele>
        <time>2023-10-31T10:09:17Z</time>
      </trkpt>
      <trkpt lat="42.80717" lon="-0.03597">
        <ele>2011.5</ele>
        <time>2023-10-31T10:09:18Z</time>
      </trkpt>
      <trkpt lat="42.80717" lon="-0.03596">
        <ele>2011.6</ele>
        <time>2023-10-31T10:09:19Z</time>
      </trkpt>
      <trkpt lat="42.80717" lon="-0.03594">
        <ele>2011.6</ele>
        <time>2023-10-31T10:09:20Z</time>
      </trkpt>
      <trkpt lat="42.80717" lon="-0.03593">
        <ele>2011.6</ele>
        <time>2023-10-31T10:09:21Z</time>
      </trkpt>
      <trkpt lat="42.80717" lon="-0.03592">
        <ele>2011.7</ele>
        <time>2023-10-31T10:09:22Z</time>
      </trkpt>
      <trkpt lat="42.80716" lon="-0.03591">
        <ele>2011.7</ele>
        <time>2023-10-31T10:09:23Z</time>
      </trkpt>
      <trkpt lat="42.80717" lon="-0.0359">
        <ele>2011.7</ele>
        <time>2023-10-31T10:09:24Z</time>
      </trkpt>
      <trkpt lat="42.80717" lon="-0.03589">
        <ele>2011.7</ele>
        <time>2023-10-31T10:09:25Z</time>
      </trkpt>
      <trkpt lat="42.80717" lon="-0.03589">
        <ele>2011.7</ele>
        <time>2023-10-31T10:09:26Z</time>
      </trkpt>
      <trkpt lat="42.80717" lon="-0.03588">
        <ele>2011.8</ele>
        <time>2023-10-31T10:09:27Z</time>
      </trkpt>
      <trkpt lat="42.80717" lon="-0.03587">
        <ele>2011.8</ele>
        <time>2023-10-31T10:09:28Z</time>
      </trkpt>
      <trkpt lat="42.80717" lon="-0.03586">
        <ele>2011.9</ele>
        <time>2023-10-31T10:09:29Z</time>
      </trkpt>
      <trkpt lat="42.80718" lon="-0.03585">
        <ele>2011.9</ele>
        <time>2023-10-31T10:09:30Z</time>
      </trkpt>
      <trkpt lat="42.80719" lon="-0.03584">
        <ele>2012</ele>
        <time>2023-10-31T10:09:31Z</time>
      </trkpt>
      <trkpt lat="42.80719" lon="-0.03583">
        <ele>2012</ele>
        <time>2023-10-31T10:09:32Z</time>
      </trkpt>
      <trkpt lat="42.80719" lon="-0.03582">
        <ele>2012.1</ele>
        <time>2023-10-31T10:09:33Z</time>
      </trkpt>
      <trkpt lat="42.80719" lon="-0.0358">
        <ele>2012.1</ele>
        <time>2023-10-31T10:09:34Z</time>
      </trkpt>
      <trkpt lat="42.80719" lon="-0.0358">
        <ele>2012.1</ele>
        <time>2023-10-31T10:09:35Z</time>
      </trkpt>
      <trkpt lat="42.80719" lon="-0.03579">
        <ele>2012.2</ele>
        <time>2023-10-31T10:09:36Z</time>
      </trkpt>
      <trkpt lat="42.8072" lon="-0.03578">
        <ele>2012.2</ele>
        <time>2023-10-31T10:09:37Z</time>
      </trkpt>
      <trkpt lat="42.8072" lon="-0.03577">
        <ele>2012.3</ele>
        <time>2023-10-31T10:09:38Z</time>
      </trkpt>
      <trkpt lat="42.80721" lon="-0.03576">
        <ele>2012.3</ele>
        <time>2023-10-31T10:09:39Z</time>
      </trkpt>
      <trkpt lat="42.80722" lon="-0.03576">
        <ele>2012.4</ele>
        <time>2023-10-31T10:09:40Z</time>
      </trkpt>
      <trkpt lat="42.80722" lon="-0.03576">
        <ele>2012.4</ele>
        <time>2023-10-31T10:09:41Z</time>
      </trkpt>
      <trkpt lat="42.80724" lon="-0.03576">
        <ele>2012.5</ele>
        <time>2023-10-31T10:09:42Z</time>
      </trkpt>
      <trkpt lat="42.80724" lon="-0.03576">
        <ele>2012.5</ele>
        <time>2023-10-31T10:09:43Z</time>
      </trkpt>
      <trkpt lat="42.80724" lon="-0.03575">
        <ele>2012.6</ele>
        <time>2023-10-31T10:09:44Z</time>
      </trkpt>
      <trkpt lat="42.80724" lon="-0.03574">
        <ele>2012.6</ele>
        <time>2023-10-31T10:09:45Z</time>
      </trkpt>
      <trkpt lat="42.80724" lon="-0.03574">
        <ele>2012.6</ele>
        <time>2023-10-31T10:09:46Z</time>
      </trkpt>
      <trkpt lat="42.80724" lon="-0.03574">
        <ele>2012.6</ele>
        <time>2023-10-31T10:09:47Z</time>
      </trkpt>
      <trkpt lat="42.80724" lon="-0.03574">
        <ele>2012.6</ele>
        <time>2023-10-31T10:09:48Z</time>
      </trkpt>
      <trkpt lat="42.80724" lon="-0.03574">
        <ele>2012.6</ele>
        <time>2023-10-31T10:09:49Z</time>
      </trkpt>
      <trkpt lat="42.80724" lon="-0.03573">
        <ele>2012.7</ele>
        <time>2023-10-31T10:09:50Z</time>
      </trkpt>
      <trkpt lat="42.80724" lon="-0.03572">
        <ele>2012.7</ele>
        <time>2023-10-31T10:09:51Z</time>
      </trkpt>
      <trkpt lat="42.80724" lon="-0.03572">
        <ele>2012.7</ele>
        <time>2023-10-31T10:09:52Z</time>
      </trkpt>
      <trkpt lat="42.80723" lon="-0.0357">
        <ele>2012.8</ele>
        <time>2023-10-31T10:09:53Z</time>
      </trkpt>
      <trkpt lat="42.80723" lon="-0.0357">
        <ele>2012.8</ele>
        <time>2023-10-31T10:09:54Z</time>
      </trkpt>
      <trkpt lat="42.80723" lon="-0.03569">
        <ele>2012.8</ele>
        <time>2023-10-31T10:09:55Z</time>
      </trkpt>
      <trkpt lat="42.80722" lon="-0.03569">
        <ele>2012.8</ele>
        <time>2023-10-31T10:09:56Z</time>
      </trkpt>
      <trkpt lat="42.80722" lon="-0.03569">
        <ele>2012.8</ele>
        <time>2023-10-31T10:09:57Z</time>
      </trkpt>
      <trkpt lat="42.80722" lon="-0.03569">
        <ele>2012.8</ele>
        <time>2023-10-31T10:09:58Z</time>
      </trkpt>
      <trkpt lat="42.80722" lon="-0.03567">
        <ele>2012.9</ele>
        <time>2023-10-31T10:09:59Z</time>
      </trkpt>
      <trkpt lat="42.80722" lon="-0.03567">
        <ele>2012.9</ele>
        <time>2023-10-31T10:10:00Z</time>
      </trkpt>
      <trkpt lat="42.80722" lon="-0.03565">
        <ele>2012.9</ele>
        <time>2023-10-31T10:10:01Z</time>
      </trkpt>
      <trkpt lat="42.80722" lon="-0.03564">
        <ele>2013</ele>
        <time>2023-10-31T10:10:02Z</time>
      </trkpt>
      <trkpt lat="42.80722" lon="-0.03563">
        <ele>2013</ele>
        <time>2023-10-31T10:10:03Z</time>
      </trkpt>
      <trkpt lat="42.80723" lon="-0.03562">
        <ele>2013</ele>
        <time>2023-10-31T10:10:04Z</time>
      </trkpt>
      <trkpt lat="42.80722" lon="-0.03562">
        <ele>2013</ele>
        <time>2023-10-31T10:10:05Z</time>
      </trkpt>
      <trkpt lat="42.80722" lon="-0.0356">
        <ele>2013</ele>
        <time>2023-10-31T10:10:06Z</time>
      </trkpt>
      <trkpt lat="42.80724" lon="-0.03559">
        <ele>2013.1</ele>
        <time>2023-10-31T10:10:07Z</time>
      </trkpt>
      <trkpt lat="42.80723" lon="-0.03558">
        <ele>2013.1</ele>
        <time>2023-10-31T10:10:08Z</time>
      </trkpt>
      <trkpt lat="42.80722" lon="-0.03557">
        <ele>2013.2</ele>
        <time>2023-10-31T10:10:09Z</time>
      </trkpt>
      <trkpt lat="42.80722" lon="-0.03556">
        <ele>2013.2</ele>
        <time>2023-10-31T10:10:10Z</time>
      </trkpt>
      <trkpt lat="42.80721" lon="-0.03555">
        <ele>2013.2</ele>
        <time>2023-10-31T10:10:11Z</time>
      </trkpt>
      <trkpt lat="42.80721" lon="-0.03554">
        <ele>2013.2</ele>
        <time>2023-10-31T10:10:12Z</time>
      </trkpt>
      <trkpt lat="42.80721" lon="-0.03553">
        <ele>2013.2</ele>
        <time>2023-10-31T10:10:13Z</time>
      </trkpt>
      <trkpt lat="42.8072" lon="-0.03552">
        <ele>2013.3</ele>
        <time>2023-10-31T10:10:14Z</time>
      </trkpt>
      <trkpt lat="42.8072" lon="-0.03551">
        <ele>2013.3</ele>
        <time>2023-10-31T10:10:15Z</time>
      </trkpt>
      <trkpt lat="42.80719" lon="-0.0355">
        <ele>2013.3</ele>
        <time>2023-10-31T10:10:16Z</time>
      </trkpt>
      <trkpt lat="42.80719" lon="-0.03549">
        <ele>2013.4</ele>
        <time>2023-10-31T10:10:17Z</time>
      </trkpt>
      <trkpt lat="42.80719" lon="-0.03547">
        <ele>2013.4</ele>
        <time>2023-10-31T10:10:18Z</time>
      </trkpt>
      <trkpt lat="42.80719" lon="-0.03545">
        <ele>2013.5</ele>
        <time>2023-10-31T10:10:19Z</time>
      </trkpt>
      <trkpt lat="42.80719" lon="-0.03545">
        <ele>2013.5</ele>
        <time>2023-10-31T10:10:20Z</time>
      </trkpt>
      <trkpt lat="42.80718" lon="-0.03545">
        <ele>2013.5</ele>
        <time>2023-10-31T10:10:21Z</time>
      </trkpt>
      <trkpt lat="42.80718" lon="-0.03543">
        <ele>2013.5</ele>
        <time>2023-10-31T10:10:22Z</time>
      </trkpt>
      <trkpt lat="42.80718" lon="-0.03542">
        <ele>2013.5</ele>
        <time>2023-10-31T10:10:23Z</time>
      </trkpt>
      <trkpt lat="42.80718" lon="-0.03542">
        <ele>2013.5</ele>
        <time>2023-10-31T10:10:24Z</time>
      </trkpt>
      <trkpt lat="42.80718" lon="-0.0354">
        <ele>2013.6</ele>
        <time>2023-10-31T10:10:25Z</time>
      </trkpt>
      <trkpt lat="42.80718" lon="-0.0354">
        <ele>2013.6</ele>
        <time>2023-10-31T10:10:26Z</time>
      </trkpt>
      <trkpt lat="42.80718" lon="-0.03538">
        <ele>2013.6</ele>
        <time>2023-10-31T10:10:27Z</time>
      </trkpt>
      <trkpt lat="42.80717" lon="-0.03536">
        <ele>2013.7</ele>
        <time>2023-10-31T10:10:28Z</time>
      </trkpt>
      <trkpt lat="42.80718" lon="-0.03535">
        <ele>2013.7</ele>
        <time>2023-10-31T10:10:29Z</time>
      </trkpt>
      <trkpt lat="42.80718" lon="-0.03534">
        <ele>2013.7</ele>
        <time>2023-10-31T10:10:30Z</time>
      </trkpt>
      <trkpt lat="42.80719" lon="-0.03533">
        <ele>2013.7</ele>
        <time>2023-10-31T10:10:31Z</time>
      </trkpt>
      <trkpt lat="42.80719" lon="-0.03532">
        <ele>2013.7</ele>
        <time>2023-10-31T10:10:32Z</time>
      </trkpt>
      <trkpt lat="42.80719" lon="-0.03531">
        <ele>2013.8</ele>
        <time>2023-10-31T10:10:33Z</time>
      </trkpt>
      <trkpt lat="42.80719" lon="-0.0353">
        <ele>2013.8</ele>
        <time>2023-10-31T10:10:34Z</time>
      </trkpt>
      <trkpt lat="42.80719" lon="-0.03529">
        <ele>2013.8</ele>
        <time>2023-10-31T10:10:35Z</time>
      </trkpt>
      <trkpt lat="42.80719" lon="-0.03529">
        <ele>2013.8</ele>
        <time>2023-10-31T10:10:36Z</time>
      </trkpt>
      <trkpt lat="42.80719" lon="-0.03528">
        <ele>2013.8</ele>
        <time>2023-10-31T10:10:37Z</time>
      </trkpt>
      <trkpt lat="42.80719" lon="-0.03527">
        <ele>2013.8</ele>
        <time>2023-10-31T10:10:38Z</time>
      </trkpt>
      <trkpt lat="42.80718" lon="-0.03526">
        <ele>2013.8</ele>
        <time>2023-10-31T10:10:39Z</time>
      </trkpt>
      <trkpt lat="42.80718" lon="-0.03526">
        <ele>2013.8</ele>
        <time>2023-10-31T10:10:40Z</time>
      </trkpt>
      <trkpt lat="42.80718" lon="-0.03525">
        <ele>2013.8</ele>
        <time>2023-10-31T10:10:41Z</time>
      </trkpt>
      <trkpt lat="42.80718" lon="-0.03523">
        <ele>2013.8</ele>
        <time>2023-10-31T10:10:42Z</time>
      </trkpt>
      <trkpt lat="42.80717" lon="-0.03522">
        <ele>2013.7</ele>
        <time>2023-10-31T10:10:43Z</time>
      </trkpt>
      <trkpt lat="42.80716" lon="-0.03521">
        <ele>2013.7</ele>
        <time>2023-10-31T10:10:44Z</time>
      </trkpt>
      <trkpt lat="42.80715" lon="-0.0352">
        <ele>2013.7</ele>
        <time>2023-10-31T10:10:45Z</time>
      </trkpt>
      <trkpt lat="42.80715" lon="-0.0352">
        <ele>2013.7</ele>
        <time>2023-10-31T10:10:46Z</time>
      </trkpt>
      <trkpt lat="42.80715" lon="-0.03519">
        <ele>2013.6</ele>
        <time>2023-10-31T10:10:47Z</time>
      </trkpt>
      <trkpt lat="42.80714" lon="-0.03517">
        <ele>2013.6</ele>
        <time>2023-10-31T10:10:48Z</time>
      </trkpt>
      <trkpt lat="42.80713" lon="-0.03517">
        <ele>2013.5</ele>
        <time>2023-10-31T10:10:49Z</time>
      </trkpt>
      <trkpt lat="42.80713" lon="-0.03517">
        <ele>2013.5</ele>
        <time>2023-10-31T10:10:50Z</time>
      </trkpt>
      <trkpt lat="42.80712" lon="-0.03516">
        <ele>2013.4</ele>
        <time>2023-10-31T10:10:51Z</time>
      </trkpt>
      <trkpt lat="42.80711" lon="-0.03516">
        <ele>2013.3</ele>
        <time>2023-10-31T10:10:52Z</time>
      </trkpt>
      <trkpt lat="42.8071" lon="-0.03515">
        <ele>2013.3</ele>
        <time>2023-10-31T10:10:53Z</time>
      </trkpt>
      <trkpt lat="42.80711" lon="-0.03514">
        <ele>2013.2</ele>
        <time>2023-10-31T10:10:54Z</time>
      </trkpt>
      <trkpt lat="42.80711" lon="-0.03514">
        <ele>2013.2</ele>
        <time>2023-10-31T10:10:55Z</time>
      </trkpt>
      <trkpt lat="42.8071" lon="-0.03512">
        <ele>2013</ele>
        <time>2023-10-31T10:10:56Z</time>
      </trkpt>
      <trkpt lat="42.80709" lon="-0.03511">
        <ele>2012.9</ele>
        <time>2023-10-31T10:10:57Z</time>
      </trkpt>
      <trkpt lat="42.80707" lon="-0.03507">
        <ele>2012.4</ele>
        <time>2023-10-31T10:10:59Z</time>
      </trkpt>
      <trkpt lat="42.80708" lon="-0.03507">
        <ele>2012.2</ele>
        <time>2023-10-31T10:11:00Z</time>
      </trkpt>
      <trkpt lat="42.80708" lon="-0.03506">
        <ele>2012.2</ele>
        <time>2023-10-31T10:11:01Z</time>
      </trkpt>
      <trkpt lat="42.80707" lon="-0.03505">
        <ele>2012</ele>
        <time>2023-10-31T10:11:02Z</time>
      </trkpt>
      <trkpt lat="42.80706" lon="-0.03504">
        <ele>2011.8</ele>
        <time>2023-10-31T10:11:03Z</time>
      </trkpt>
      <trkpt lat="42.80706" lon="-0.03504">
        <ele>2011.8</ele>
        <time>2023-10-31T10:11:04Z</time>
      </trkpt>
      <trkpt lat="42.80705" lon="-0.03504">
        <ele>2011.7</ele>
        <time>2023-10-31T10:11:05Z</time>
      </trkpt>
      <trkpt lat="42.80704" lon="-0.03503">
        <ele>2011.5</ele>
        <time>2023-10-31T10:11:06Z</time>
      </trkpt>
      <trkpt lat="42.80704" lon="-0.03502">
        <ele>2011.4</ele>
        <time>2023-10-31T10:11:07Z</time>
      </trkpt>
      <trkpt lat="42.80703" lon="-0.03501">
        <ele>2011.3</ele>
        <time>2023-10-31T10:11:08Z</time>
      </trkpt>
      <trkpt lat="42.80703" lon="-0.035">
        <ele>2011.1</ele>
        <time>2023-10-31T10:11:09Z</time>
      </trkpt>
      <trkpt lat="42.80702" lon="-0.03499">
        <ele>2011</ele>
        <time>2023-10-31T10:11:10Z</time>
      </trkpt>
      <trkpt lat="42.80702" lon="-0.03497">
        <ele>2010.8</ele>
        <time>2023-10-31T10:11:11Z</time>
      </trkpt>
      <trkpt lat="42.80702" lon="-0.03496">
        <ele>2010.7</ele>
        <time>2023-10-31T10:11:12Z</time>
      </trkpt>
      <trkpt lat="42.80702" lon="-0.03496">
        <ele>2010.6</ele>
        <time>2023-10-31T10:11:13Z</time>
      </trkpt>
      <trkpt lat="42.80701" lon="-0.03494">
        <ele>2010.5</ele>
        <time>2023-10-31T10:11:14Z</time>
      </trkpt>
      <trkpt lat="42.807" lon="-0.03493">
        <ele>2010.4</ele>
        <time>2023-10-31T10:11:15Z</time>
      </trkpt>
      <trkpt lat="42.80699" lon="-0.03493">
        <ele>2010.2</ele>
        <time>2023-10-31T10:11:16Z</time>
      </trkpt>
      <trkpt lat="42.80699" lon="-0.03491">
        <ele>2010.1</ele>
        <time>2023-10-31T10:11:17Z</time>
      </trkpt>
      <trkpt lat="42.80699" lon="-0.0349">
        <ele>2009.9</ele>
        <time>2023-10-31T10:11:18Z</time>
      </trkpt>
      <trkpt lat="42.80699" lon="-0.03489">
        <ele>2009.8</ele>
        <time>2023-10-31T10:11:19Z</time>
      </trkpt>
      <trkpt lat="42.807" lon="-0.03488">
        <ele>2009.7</ele>
        <time>2023-10-31T10:11:20Z</time>
      </trkpt>
      <trkpt lat="42.80701" lon="-0.03488">
        <ele>2009.6</ele>
        <time>2023-10-31T10:11:21Z</time>
      </trkpt>
      <trkpt lat="42.80702" lon="-0.03487">
        <ele>2009.5</ele>
        <time>2023-10-31T10:11:22Z</time>
      </trkpt>
      <trkpt lat="42.80702" lon="-0.03487">
        <ele>2009.4</ele>
        <time>2023-10-31T10:11:23Z</time>
      </trkpt>
      <trkpt lat="42.80702" lon="-0.03486">
        <ele>2009.4</ele>
        <time>2023-10-31T10:11:24Z</time>
      </trkpt>
      <trkpt lat="42.80702" lon="-0.03485">
        <ele>2009.2</ele>
        <time>2023-10-31T10:11:25Z</time>
      </trkpt>
      <trkpt lat="42.80702" lon="-0.03485">
        <ele>2009.2</ele>
        <time>2023-10-31T10:11:26Z</time>
      </trkpt>
      <trkpt lat="42.80702" lon="-0.03483">
        <ele>2009.1</ele>
        <time>2023-10-31T10:11:27Z</time>
      </trkpt>
      <trkpt lat="42.80702" lon="-0.03484">
        <ele>2009</ele>
        <time>2023-10-31T10:11:28Z</time>
      </trkpt>
      <trkpt lat="42.80702" lon="-0.03483">
        <ele>2009</ele>
        <time>2023-10-31T10:11:29Z</time>
      </trkpt>
      <trkpt lat="42.80702" lon="-0.03483">
        <ele>2008.9</ele>
        <time>2023-10-31T10:11:30Z</time>
      </trkpt>
      <trkpt lat="42.80702" lon="-0.03483">
        <ele>2008.9</ele>
        <time>2023-10-31T10:11:31Z</time>
      </trkpt>
      <trkpt lat="42.80702" lon="-0.03482">
        <ele>2008.8</ele>
        <time>2023-10-31T10:11:32Z</time>
      </trkpt>
      <trkpt lat="42.80702" lon="-0.03482">
        <ele>2008.8</ele>
        <time>2023-10-31T10:11:33Z</time>
      </trkpt>
      <trkpt lat="42.80702" lon="-0.03481">
        <ele>2008.7</ele>
        <time>2023-10-31T10:11:34Z</time>
      </trkpt>
      <trkpt lat="42.80702" lon="-0.0348">
        <ele>2008.6</ele>
        <time>2023-10-31T10:11:35Z</time>
      </trkpt>
      <trkpt lat="42.80702" lon="-0.0348">
        <ele>2008.6</ele>
        <time>2023-10-31T10:11:36Z</time>
      </trkpt>
      <trkpt lat="42.80703" lon="-0.03481">
        <ele>2008.5</ele>
        <time>2023-10-31T10:11:37Z</time>
      </trkpt>
      <trkpt lat="42.80702" lon="-0.03479">
        <ele>2008.3</ele>
        <time>2023-10-31T10:11:38Z</time>
      </trkpt>
      <trkpt lat="42.80702" lon="-0.03478">
        <ele>2008.2</ele>
        <time>2023-10-31T10:11:39Z</time>
      </trkpt>
      <trkpt lat="42.80702" lon="-0.03477">
        <ele>2008.1</ele>
        <time>2023-10-31T10:11:40Z</time>
      </trkpt>
      <trkpt lat="42.80702" lon="-0.03477">
        <ele>2008.1</ele>
        <time>2023-10-31T10:11:41Z</time>
      </trkpt>
      <trkpt lat="42.80702" lon="-0.03476">
        <ele>2008</ele>
        <time>2023-10-31T10:11:42Z</time>
      </trkpt>
      <trkpt lat="42.80702" lon="-0.03476">
        <ele>2008</ele>
        <time>2023-10-31T10:11:43Z</time>
      </trkpt>
      <trkpt lat="42.80702" lon="-0.03475">
        <ele>2007.9</ele>
        <time>2023-10-31T10:11:44Z</time>
      </trkpt>
      <trkpt lat="42.80702" lon="-0.03475">
        <ele>2007.8</ele>
        <time>2023-10-31T10:11:45Z</time>
      </trkpt>
      <trkpt lat="42.80702" lon="-0.03474">
        <ele>2007.8</ele>
        <time>2023-10-31T10:11:46Z</time>
      </trkpt>
      <trkpt lat="42.80701" lon="-0.03473">
        <ele>2007.6</ele>
        <time>2023-10-31T10:11:47Z</time>
      </trkpt>
      <trkpt lat="42.80701" lon="-0.03472">
        <ele>2007.5</ele>
        <time>2023-10-31T10:11:48Z</time>
      </trkpt>
      <trkpt lat="42.80701" lon="-0.03471">
        <ele>2007.4</ele>
        <time>2023-10-31T10:11:49Z</time>
      </trkpt>
      <trkpt lat="42.80701" lon="-0.03469">
        <ele>2007.2</ele>
        <time>2023-10-31T10:11:50Z</time>
      </trkpt>
      <trkpt lat="42.80701" lon="-0.03468">
        <ele>2007.1</ele>
        <time>2023-10-31T10:11:51Z</time>
      </trkpt>
      <trkpt lat="42.80701" lon="-0.03467">
        <ele>2007</ele>
        <time>2023-10-31T10:11:52Z</time>
      </trkpt>
      <trkpt lat="42.807" lon="-0.03467">
        <ele>2006.9</ele>
        <time>2023-10-31T10:11:53Z</time>
      </trkpt>
      <trkpt lat="42.807" lon="-0.03467">
        <ele>2006.9</ele>
        <time>2023-10-31T10:11:54Z</time>
      </trkpt>
      <trkpt lat="42.807" lon="-0.03467">
        <ele>2006.9</ele>
        <time>2023-10-31T10:11:55Z</time>
      </trkpt>
      <trkpt lat="42.80701" lon="-0.03467">
        <ele>2006.8</ele>
        <time>2023-10-31T10:11:56Z</time>
      </trkpt>
      <trkpt lat="42.80701" lon="-0.03467">
        <ele>2006.8</ele>
        <time>2023-10-31T10:11:57Z</time>
      </trkpt>
      <trkpt lat="42.80701" lon="-0.03467">
        <ele>2006.7</ele>
        <time>2023-10-31T10:11:58Z</time>
      </trkpt>
      <trkpt lat="42.80701" lon="-0.03467">
        <ele>2006.7</ele>
        <time>2023-10-31T10:11:59Z</time>
      </trkpt>
      <trkpt lat="42.80701" lon="-0.03467">
        <ele>2006.7</ele>
        <time>2023-10-31T10:12:00Z</time>
      </trkpt>
      <trkpt lat="42.80701" lon="-0.03467">
        <ele>2006.6</ele>
        <time>2023-10-31T10:12:01Z</time>
      </trkpt>
      <trkpt lat="42.80701" lon="-0.03467">
        <ele>2006.6</ele>
        <time>2023-10-31T10:12:02Z</time>
      </trkpt>
      <trkpt lat="42.80701" lon="-0.03467">
        <ele>2006.5</ele>
        <time>2023-10-31T10:12:03Z</time>
      </trkpt>
      <trkpt lat="42.80701" lon="-0.03467">
        <ele>2006.5</ele>
        <time>2023-10-31T10:12:04Z</time>
      </trkpt>
      <trkpt lat="42.80701" lon="-0.03467">
        <ele>2006.4</ele>
        <time>2023-10-31T10:12:05Z</time>
      </trkpt>
      <trkpt lat="42.80701" lon="-0.03467">
        <ele>2006.4</ele>
        <time>2023-10-31T10:12:06Z</time>
      </trkpt>
      <trkpt lat="42.80701" lon="-0.03467">
        <ele>2006.4</ele>
        <time>2023-10-31T10:12:07Z</time>
      </trkpt>
      <trkpt lat="42.80701" lon="-0.03467">
        <ele>2006.3</ele>
        <time>2023-10-31T10:12:08Z</time>
      </trkpt>
      <trkpt lat="42.80701" lon="-0.03468">
        <ele>2006.3</ele>
        <time>2023-10-31T10:12:09Z</time>
      </trkpt>
      <trkpt lat="42.80701" lon="-0.03468">
        <ele>2006.3</ele>
        <time>2023-10-31T10:12:10Z</time>
      </trkpt>
      <trkpt lat="42.807" lon="-0.03467">
        <ele>2006.2</ele>
        <time>2023-10-31T10:12:11Z</time>
      </trkpt>
      <trkpt lat="42.807" lon="-0.03467">
        <ele>2006.2</ele>
        <time>2023-10-31T10:12:12Z</time>
      </trkpt>
      <trkpt lat="42.80701" lon="-0.03467">
        <ele>2006.1</ele>
        <time>2023-10-31T10:12:13Z</time>
      </trkpt>
      <trkpt lat="42.80701" lon="-0.03466">
        <ele>2006.1</ele>
        <time>2023-10-31T10:12:14Z</time>
      </trkpt>
      <trkpt lat="42.80701" lon="-0.03466">
        <ele>2006</ele>
        <time>2023-10-31T10:12:15Z</time>
      </trkpt>
      <trkpt lat="42.80702" lon="-0.03466">
        <ele>2006</ele>
        <time>2023-10-31T10:12:16Z</time>
      </trkpt>
      <trkpt lat="42.80701" lon="-0.03465">
        <ele>2005.8</ele>
        <time>2023-10-31T10:12:17Z</time>
      </trkpt>
      <trkpt lat="42.80701" lon="-0.03463">
        <ele>2005.7</ele>
        <time>2023-10-31T10:12:18Z</time>
      </trkpt>
      <trkpt lat="42.80701" lon="-0.03463">
        <ele>2005.5</ele>
        <time>2023-10-31T10:12:19Z</time>
      </trkpt>
      <trkpt lat="42.80701" lon="-0.03462">
        <ele>2005.5</ele>
        <time>2023-10-31T10:12:20Z</time>
      </trkpt>
      <trkpt lat="42.80702" lon="-0.03462">
        <ele>2005.4</ele>
        <time>2023-10-31T10:12:21Z</time>
      </trkpt>
      <trkpt lat="42.80702" lon="-0.03461">
        <ele>2005.4</ele>
        <time>2023-10-31T10:12:22Z</time>
      </trkpt>
      <trkpt lat="42.80702" lon="-0.03461">
        <ele>2005.3</ele>
        <time>2023-10-31T10:12:23Z</time>
      </trkpt>
      <trkpt lat="42.80703" lon="-0.0346">
        <ele>2005.2</ele>
        <time>2023-10-31T10:12:24Z</time>
      </trkpt>
      <trkpt lat="42.80703" lon="-0.0346">
        <ele>2005.1</ele>
        <time>2023-10-31T10:12:25Z</time>
      </trkpt>
      <trkpt lat="42.80703" lon="-0.0346">
        <ele>2005.1</ele>
        <time>2023-10-31T10:12:26Z</time>
      </trkpt>
      <trkpt lat="42.80703" lon="-0.03459">
        <ele>2005</ele>
        <time>2023-10-31T10:12:27Z</time>
      </trkpt>
      <trkpt lat="42.80703" lon="-0.0346">
        <ele>2005</ele>
        <time>2023-10-31T10:12:28Z</time>
      </trkpt>
      <trkpt lat="42.80703" lon="-0.03459">
        <ele>2004.9</ele>
        <time>2023-10-31T10:12:29Z</time>
      </trkpt>
      <trkpt lat="42.80703" lon="-0.03457">
        <ele>2004.7</ele>
        <time>2023-10-31T10:12:30Z</time>
      </trkpt>
      <trkpt lat="42.80702" lon="-0.03458">
        <ele>2004.7</ele>
        <time>2023-10-31T10:12:31Z</time>
      </trkpt>
      <trkpt lat="42.80702" lon="-0.03458">
        <ele>2004.7</ele>
        <time>2023-10-31T10:12:32Z</time>
      </trkpt>
      <trkpt lat="42.80702" lon="-0.03457">
        <ele>2004.6</ele>
        <time>2023-10-31T10:12:33Z</time>
      </trkpt>
      <trkpt lat="42.80701" lon="-0.03457">
        <ele>2004.5</ele>
        <time>2023-10-31T10:12:34Z</time>
      </trkpt>
      <trkpt lat="42.80701" lon="-0.03457">
        <ele>2004.5</ele>
        <time>2023-10-31T10:12:35Z</time>
      </trkpt>
      <trkpt lat="42.80701" lon="-0.03457">
        <ele>2004.5</ele>
        <time>2023-10-31T10:12:36Z</time>
      </trkpt>
      <trkpt lat="42.80701" lon="-0.03457">
        <ele>2004.5</ele>
        <time>2023-10-31T10:12:37Z</time>
      </trkpt>
      <trkpt lat="42.807" lon="-0.03455">
        <ele>2004.2</ele>
        <time>2023-10-31T10:12:38Z</time>
      </trkpt>
      <trkpt lat="42.807" lon="-0.03454">
        <ele>2004.1</ele>
        <time>2023-10-31T10:12:39Z</time>
      </trkpt>
      <trkpt lat="42.807" lon="-0.03454">
        <ele>2004.1</ele>
        <time>2023-10-31T10:12:40Z</time>
      </trkpt>
      <trkpt lat="42.80701" lon="-0.03454">
        <ele>2004.1</ele>
        <time>2023-10-31T10:12:41Z</time>
      </trkpt>
      <trkpt lat="42.80701" lon="-0.03454">
        <ele>2004</ele>
        <time>2023-10-31T10:12:42Z</time>
      </trkpt>
      <trkpt lat="42.80701" lon="-0.03454">
        <ele>2004</ele>
        <time>2023-10-31T10:12:43Z</time>
      </trkpt>
      <trkpt lat="42.80701" lon="-0.03453">
        <ele>2003.9</ele>
        <time>2023-10-31T10:12:44Z</time>
      </trkpt>
      <trkpt lat="42.80701" lon="-0.03451">
        <ele>2003.8</ele>
        <time>2023-10-31T10:12:45Z</time>
      </trkpt>
      <trkpt lat="42.80701" lon="-0.0345">
        <ele>2003.7</ele>
        <time>2023-10-31T10:12:46Z</time>
      </trkpt>
      <trkpt lat="42.807" lon="-0.0345">
        <ele>2003.6</ele>
        <time>2023-10-31T10:12:47Z</time>
      </trkpt>
      <trkpt lat="42.807" lon="-0.03449">
        <ele>2003.5</ele>
        <time>2023-10-31T10:12:48Z</time>
      </trkpt>
      <trkpt lat="42.807" lon="-0.03449">
        <ele>2003.5</ele>
        <time>2023-10-31T10:12:49Z</time>
      </trkpt>
      <trkpt lat="42.807" lon="-0.03449">
        <ele>2003.4</ele>
        <time>2023-10-31T10:12:50Z</time>
      </trkpt>
      <trkpt lat="42.807" lon="-0.03448">
        <ele>2003.3</ele>
        <time>2023-10-31T10:12:51Z</time>
      </trkpt>
      <trkpt lat="42.807" lon="-0.03447">
        <ele>2003.2</ele>
        <time>2023-10-31T10:12:52Z</time>
      </trkpt>
      <trkpt lat="42.80699" lon="-0.03446">
        <ele>2003.1</ele>
        <time>2023-10-31T10:12:53Z</time>
      </trkpt>
      <trkpt lat="42.807" lon="-0.03445">
        <ele>2003</ele>
        <time>2023-10-31T10:12:54Z</time>
      </trkpt>
      <trkpt lat="42.807" lon="-0.03444">
        <ele>2002.9</ele>
        <time>2023-10-31T10:12:55Z</time>
      </trkpt>
      <trkpt lat="42.807" lon="-0.03444">
        <ele>2002.8</ele>
        <time>2023-10-31T10:12:56Z</time>
      </trkpt>
      <trkpt lat="42.807" lon="-0.03444">
        <ele>2002.8</ele>
        <time>2023-10-31T10:12:57Z</time>
      </trkpt>
      <trkpt lat="42.807" lon="-0.03444">
        <ele>2002.8</ele>
        <time>2023-10-31T10:12:58Z</time>
      </trkpt>
      <trkpt lat="42.807" lon="-0.03444">
        <ele>2002.7</ele>
        <time>2023-10-31T10:12:59Z</time>
      </trkpt>
      <trkpt lat="42.807" lon="-0.03442">
        <ele>2002.6</ele>
        <time>2023-10-31T10:13:00Z</time>
      </trkpt>
      <trkpt lat="42.807" lon="-0.03442">
        <ele>2002.5</ele>
        <time>2023-10-31T10:13:01Z</time>
      </trkpt>
      <trkpt lat="42.807" lon="-0.03441">
        <ele>2002.5</ele>
        <time>2023-10-31T10:13:02Z</time>
      </trkpt>
      <trkpt lat="42.807" lon="-0.03441">
        <ele>2002.4</ele>
        <time>2023-10-31T10:13:03Z</time>
      </trkpt>
      <trkpt lat="42.80699" lon="-0.0344">
        <ele>2002.3</ele>
        <time>2023-10-31T10:13:04Z</time>
      </trkpt>
      <trkpt lat="42.80699" lon="-0.03439">
        <ele>2002.2</ele>
        <time>2023-10-31T10:13:05Z</time>
      </trkpt>
      <trkpt lat="42.80699" lon="-0.03438">
        <ele>2002.1</ele>
        <time>2023-10-31T10:13:06Z</time>
      </trkpt>
      <trkpt lat="42.80698" lon="-0.03438">
        <ele>2002</ele>
        <time>2023-10-31T10:13:07Z</time>
      </trkpt>
      <trkpt lat="42.80698" lon="-0.03437">
        <ele>2001.9</ele>
        <time>2023-10-31T10:13:08Z</time>
      </trkpt>
      <trkpt lat="42.80697" lon="-0.03437">
        <ele>2001.8</ele>
        <time>2023-10-31T10:13:09Z</time>
      </trkpt>
      <trkpt lat="42.80697" lon="-0.03437">
        <ele>2001.8</ele>
        <time>2023-10-31T10:13:10Z</time>
      </trkpt>
      <trkpt lat="42.80697" lon="-0.03436">
        <ele>2001.8</ele>
        <time>2023-10-31T10:13:11Z</time>
      </trkpt>
      <trkpt lat="42.80697" lon="-0.03436">
        <ele>2001.8</ele>
        <time>2023-10-31T10:13:12Z</time>
      </trkpt>
      <trkpt lat="42.80697" lon="-0.03436">
        <ele>2001.7</ele>
        <time>2023-10-31T10:13:13Z</time>
      </trkpt>
      <trkpt lat="42.80697" lon="-0.03436">
        <ele>2001.7</ele>
        <time>2023-10-31T10:13:14Z</time>
      </trkpt>
      <trkpt lat="42.80697" lon="-0.03436">
        <ele>2001.7</ele>
        <time>2023-10-31T10:13:15Z</time>
      </trkpt>
      <trkpt lat="42.80697" lon="-0.03436">
        <ele>2001.6</ele>
        <time>2023-10-31T10:13:16Z</time>
      </trkpt>
      <trkpt lat="42.80697" lon="-0.03436">
        <ele>2001.6</ele>
        <time>2023-10-31T10:13:17Z</time>
      </trkpt>
      <trkpt lat="42.80696" lon="-0.03436">
        <ele>2001.6</ele>
        <time>2023-10-31T10:13:18Z</time>
      </trkpt>
      <trkpt lat="42.80696" lon="-0.03436">
        <ele>2001.5</ele>
        <time>2023-10-31T10:13:19Z</time>
      </trkpt>
      <trkpt lat="42.80696" lon="-0.03436">
        <ele>2001.5</ele>
        <time>2023-10-31T10:13:20Z</time>
      </trkpt>
      <trkpt lat="42.80695" lon="-0.03435">
        <ele>2001.4</ele>
        <time>2023-10-31T10:13:21Z</time>
      </trkpt>
      <trkpt lat="42.80695" lon="-0.03435">
        <ele>2001.4</ele>
        <time>2023-10-31T10:13:22Z</time>
      </trkpt>
      <trkpt lat="42.80694" lon="-0.03433">
        <ele>2001.2</ele>
        <time>2023-10-31T10:13:23Z</time>
      </trkpt>
      <trkpt lat="42.80694" lon="-0.03433">
        <ele>2001.1</ele>
        <time>2023-10-31T10:13:24Z</time>
      </trkpt>
      <trkpt lat="42.80694" lon="-0.03432">
        <ele>2001</ele>
        <time>2023-10-31T10:13:25Z</time>
      </trkpt>
      <trkpt lat="42.80693" lon="-0.03431">
        <ele>2000.9</ele>
        <time>2023-10-31T10:13:26Z</time>
      </trkpt>
      <trkpt lat="42.80693" lon="-0.03431">
        <ele>2000.8</ele>
        <time>2023-10-31T10:13:27Z</time>
      </trkpt>
      <trkpt lat="42.80693" lon="-0.03429">
        <ele>2000.7</ele>
        <time>2023-10-31T10:13:28Z</time>
      </trkpt>
      <trkpt lat="42.80692" lon="-0.03428">
        <ele>2000.5</ele>
        <time>2023-10-31T10:13:29Z</time>
      </trkpt>
      <trkpt lat="42.80692" lon="-0.03427">
        <ele>2000.4</ele>
        <time>2023-10-31T10:13:30Z</time>
      </trkpt>
      <trkpt lat="42.80691" lon="-0.03427">
        <ele>2000.3</ele>
        <time>2023-10-31T10:13:31Z</time>
      </trkpt>
      <trkpt lat="42.80691" lon="-0.03425">
        <ele>2000.1</ele>
        <time>2023-10-31T10:13:32Z</time>
      </trkpt>
      <trkpt lat="42.80691" lon="-0.03424">
        <ele>2000</ele>
        <time>2023-10-31T10:13:33Z</time>
      </trkpt>
      <trkpt lat="42.8069" lon="-0.03425">
        <ele>2000</ele>
        <time>2023-10-31T10:13:34Z</time>
      </trkpt>
      <trkpt lat="42.8069" lon="-0.03424">
        <ele>1999.9</ele>
        <time>2023-10-31T10:13:35Z</time>
      </trkpt>
      <trkpt lat="42.80689" lon="-0.03423">
        <ele>1999.8</ele>
        <time>2023-10-31T10:13:36Z</time>
      </trkpt>
      <trkpt lat="42.8069" lon="-0.03423">
        <ele>1999.7</ele>
        <time>2023-10-31T10:13:37Z</time>
      </trkpt>
      <trkpt lat="42.8069" lon="-0.03422">
        <ele>1999.7</ele>
        <time>2023-10-31T10:13:38Z</time>
      </trkpt>
      <trkpt lat="42.80689" lon="-0.03421">
        <ele>1999.6</ele>
        <time>2023-10-31T10:13:39Z</time>
      </trkpt>
      <trkpt lat="42.80689" lon="-0.0342">
        <ele>1999.4</ele>
        <time>2023-10-31T10:13:40Z</time>
      </trkpt>
      <trkpt lat="42.80689" lon="-0.0342">
        <ele>1999.4</ele>
        <time>2023-10-31T10:13:41Z</time>
      </trkpt>
      <trkpt lat="42.80689" lon="-0.0342">
        <ele>1999.3</ele>
        <time>2023-10-31T10:13:42Z</time>
      </trkpt>
      <trkpt lat="42.80691" lon="-0.03419">
        <ele>1999.1</ele>
        <time>2023-10-31T10:13:43Z</time>
      </trkpt>
      <trkpt lat="42.80691" lon="-0.03419">
        <ele>1999</ele>
        <time>2023-10-31T10:13:44Z</time>
      </trkpt>
      <trkpt lat="42.80691" lon="-0.0342">
        <ele>1999</ele>
        <time>2023-10-31T10:13:45Z</time>
      </trkpt>
      <trkpt lat="42.80691" lon="-0.0342">
        <ele>1998.9</ele>
        <time>2023-10-31T10:13:46Z</time>
      </trkpt>
      <trkpt lat="42.80692" lon="-0.0342">
        <ele>1998.8</ele>
        <time>2023-10-31T10:13:47Z</time>
      </trkpt>
      <trkpt lat="42.80691" lon="-0.0342">
        <ele>1998.8</ele>
        <time>2023-10-31T10:13:48Z</time>
      </trkpt>
      <trkpt lat="42.80692" lon="-0.0342">
        <ele>1998.7</ele>
        <time>2023-10-31T10:13:49Z</time>
      </trkpt>
      <trkpt lat="42.80691" lon="-0.03419">
        <ele>1998.7</ele>
        <time>2023-10-31T10:13:50Z</time>
      </trkpt>
      <trkpt lat="42.80691" lon="-0.03418">
        <ele>1998.6</ele>
        <time>2023-10-31T10:13:51Z</time>
      </trkpt>
      <trkpt lat="42.80692" lon="-0.03418">
        <ele>1998.4</ele>
        <time>2023-10-31T10:13:52Z</time>
      </trkpt>
      <trkpt lat="42.80692" lon="-0.03416">
        <ele>1998.3</ele>
        <time>2023-10-31T10:13:53Z</time>
      </trkpt>
      <trkpt lat="42.80693" lon="-0.03414">
        <ele>1998.1</ele>
        <time>2023-10-31T10:13:54Z</time>
      </trkpt>
      <trkpt lat="42.80692" lon="-0.03413">
        <ele>1997.9</ele>
        <time>2023-10-31T10:13:55Z</time>
      </trkpt>
      <trkpt lat="42.80692" lon="-0.03411">
        <ele>1997.7</ele>
        <time>2023-10-31T10:13:56Z</time>
      </trkpt>
      <trkpt lat="42.80692" lon="-0.03411">
        <ele>1997.7</ele>
        <time>2023-10-31T10:13:57Z</time>
      </trkpt>
      <trkpt lat="42.80691" lon="-0.0341">
        <ele>1997.6</ele>
        <time>2023-10-31T10:13:58Z</time>
      </trkpt>
      <trkpt lat="42.80691" lon="-0.03409">
        <ele>1997.5</ele>
        <time>2023-10-31T10:13:59Z</time>
      </trkpt>
      <trkpt lat="42.80691" lon="-0.03409">
        <ele>1997.4</ele>
        <time>2023-10-31T10:14:00Z</time>
      </trkpt>
      <trkpt lat="42.8069" lon="-0.03409">
        <ele>1997.3</ele>
        <time>2023-10-31T10:14:01Z</time>
      </trkpt>
      <trkpt lat="42.8069" lon="-0.03408">
        <ele>1997.2</ele>
        <time>2023-10-31T10:14:02Z</time>
      </trkpt>
      <trkpt lat="42.8069" lon="-0.03407">
        <ele>1997.1</ele>
        <time>2023-10-31T10:14:03Z</time>
      </trkpt>
      <trkpt lat="42.80691" lon="-0.03406">
        <ele>1997</ele>
        <time>2023-10-31T10:14:04Z</time>
      </trkpt>
      <trkpt lat="42.80691" lon="-0.03406">
        <ele>1996.9</ele>
        <time>2023-10-31T10:14:05Z</time>
      </trkpt>
      <trkpt lat="42.80691" lon="-0.03405">
        <ele>1996.8</ele>
        <time>2023-10-31T10:14:06Z</time>
      </trkpt>
      <trkpt lat="42.80691" lon="-0.03404">
        <ele>1996.7</ele>
        <time>2023-10-31T10:14:07Z</time>
      </trkpt>
      <trkpt lat="42.80691" lon="-0.03404">
        <ele>1996.6</ele>
        <time>2023-10-31T10:14:08Z</time>
      </trkpt>
      <trkpt lat="42.80691" lon="-0.03403">
        <ele>1996.5</ele>
        <time>2023-10-31T10:14:09Z</time>
      </trkpt>
      <trkpt lat="42.80691" lon="-0.03402">
        <ele>1996.4</ele>
        <time>2023-10-31T10:14:10Z</time>
      </trkpt>
      <trkpt lat="42.80691" lon="-0.03401">
        <ele>1996.3</ele>
        <time>2023-10-31T10:14:11Z</time>
      </trkpt>
      <trkpt lat="42.80691" lon="-0.034">
        <ele>1996.2</ele>
        <time>2023-10-31T10:14:12Z</time>
      </trkpt>
      <trkpt lat="42.80691" lon="-0.034">
        <ele>1996.1</ele>
        <time>2023-10-31T10:14:13Z</time>
      </trkpt>
      <trkpt lat="42.8069" lon="-0.03399">
        <ele>1996</ele>
        <time>2023-10-31T10:14:14Z</time>
      </trkpt>
      <trkpt lat="42.8069" lon="-0.03398">
        <ele>1995.9</ele>
        <time>2023-10-31T10:14:15Z</time>
      </trkpt>
      <trkpt lat="42.8069" lon="-0.03397">
        <ele>1995.8</ele>
        <time>2023-10-31T10:14:16Z</time>
      </trkpt>
      <trkpt lat="42.8069" lon="-0.03396">
        <ele>1995.7</ele>
        <time>2023-10-31T10:14:17Z</time>
      </trkpt>
      <trkpt lat="42.8069" lon="-0.03396">
        <ele>1995.7</ele>
        <time>2023-10-31T10:14:18Z</time>
      </trkpt>
      <trkpt lat="42.8069" lon="-0.03395">
        <ele>1995.5</ele>
        <time>2023-10-31T10:14:19Z</time>
      </trkpt>
      <trkpt lat="42.8069" lon="-0.03394">
        <ele>1995.4</ele>
        <time>2023-10-31T10:14:20Z</time>
      </trkpt>
      <trkpt lat="42.8069" lon="-0.03394">
        <ele>1995.4</ele>
        <time>2023-10-31T10:14:21Z</time>
      </trkpt>
      <trkpt lat="42.80689" lon="-0.03393">
        <ele>1995.2</ele>
        <time>2023-10-31T10:14:22Z</time>
      </trkpt>
      <trkpt lat="42.80689" lon="-0.03393">
        <ele>1995.1</ele>
        <time>2023-10-31T10:14:23Z</time>
      </trkpt>
      <trkpt lat="42.80689" lon="-0.03392">
        <ele>1995</ele>
        <time>2023-10-31T10:14:24Z</time>
      </trkpt>
      <trkpt lat="42.80689" lon="-0.03391">
        <ele>1994.9</ele>
        <time>2023-10-31T10:14:25Z</time>
      </trkpt>
      <trkpt lat="42.80688" lon="-0.03391">
        <ele>1994.8</ele>
        <time>2023-10-31T10:14:26Z</time>
      </trkpt>
      <trkpt lat="42.80688" lon="-0.03391">
        <ele>1994.7</ele>
        <time>2023-10-31T10:14:27Z</time>
      </trkpt>
      <trkpt lat="42.80689" lon="-0.03389">
        <ele>1994.5</ele>
        <time>2023-10-31T10:14:28Z</time>
      </trkpt>
      <trkpt lat="42.80688" lon="-0.03388">
        <ele>1994.4</ele>
        <time>2023-10-31T10:14:29Z</time>
      </trkpt>
      <trkpt lat="42.80689" lon="-0.03388">
        <ele>1994.3</ele>
        <time>2023-10-31T10:14:30Z</time>
      </trkpt>
      <trkpt lat="42.80689" lon="-0.03387">
        <ele>1994.2</ele>
        <time>2023-10-31T10:14:31Z</time>
      </trkpt>
      <trkpt lat="42.80689" lon="-0.03387">
        <ele>1994.2</ele>
        <time>2023-10-31T10:14:32Z</time>
      </trkpt>
      <trkpt lat="42.80689" lon="-0.03387">
        <ele>1994.1</ele>
        <time>2023-10-31T10:14:33Z</time>
      </trkpt>
      <trkpt lat="42.80689" lon="-0.03386">
        <ele>1994</ele>
        <time>2023-10-31T10:14:34Z</time>
      </trkpt>
      <trkpt lat="42.80689" lon="-0.03385">
        <ele>1993.8</ele>
        <time>2023-10-31T10:14:35Z</time>
      </trkpt>
      <trkpt lat="42.80689" lon="-0.03385">
        <ele>1993.7</ele>
        <time>2023-10-31T10:14:36Z</time>
      </trkpt>
      <trkpt lat="42.80689" lon="-0.03385">
        <ele>1993.7</ele>
        <time>2023-10-31T10:14:37Z</time>
      </trkpt>
      <trkpt lat="42.80688" lon="-0.03385">
        <ele>1993.6</ele>
        <time>2023-10-31T10:14:38Z</time>
      </trkpt>
      <trkpt lat="42.80687" lon="-0.03384">
        <ele>1993.4</ele>
        <time>2023-10-31T10:14:39Z</time>
      </trkpt>
      <trkpt lat="42.80687" lon="-0.03384">
        <ele>1993.3</ele>
        <time>2023-10-31T10:14:40Z</time>
      </trkpt>
      <trkpt lat="42.80687" lon="-0.03384">
        <ele>1993.3</ele>
        <time>2023-10-31T10:14:41Z</time>
      </trkpt>
      <trkpt lat="42.80687" lon="-0.03385">
        <ele>1993.2</ele>
        <time>2023-10-31T10:14:42Z</time>
      </trkpt>
      <trkpt lat="42.80687" lon="-0.03384">
        <ele>1993.1</ele>
        <time>2023-10-31T10:14:43Z</time>
      </trkpt>
      <trkpt lat="42.80687" lon="-0.03384">
        <ele>1993.1</ele>
        <time>2023-10-31T10:14:44Z</time>
      </trkpt>
      <trkpt lat="42.80686" lon="-0.03383">
        <ele>1993</ele>
        <time>2023-10-31T10:14:45Z</time>
      </trkpt>
      <trkpt lat="42.80686" lon="-0.03383">
        <ele>1992.8</ele>
        <time>2023-10-31T10:14:46Z</time>
      </trkpt>
      <trkpt lat="42.80686" lon="-0.03382">
        <ele>1992.7</ele>
        <time>2023-10-31T10:14:47Z</time>
      </trkpt>
      <trkpt lat="42.80686" lon="-0.03381">
        <ele>1992.6</ele>
        <time>2023-10-31T10:14:48Z</time>
      </trkpt>
      <trkpt lat="42.80685" lon="-0.03381">
        <ele>1992.4</ele>
        <time>2023-10-31T10:14:49Z</time>
      </trkpt>
      <trkpt lat="42.80686" lon="-0.0338">
        <ele>1992.2</ele>
        <time>2023-10-31T10:14:50Z</time>
      </trkpt>
      <trkpt lat="42.80686" lon="-0.03379">
        <ele>1992.1</ele>
        <time>2023-10-31T10:14:51Z</time>
      </trkpt>
      <trkpt lat="42.80686" lon="-0.03378">
        <ele>1991.9</ele>
        <time>2023-10-31T10:14:52Z</time>
      </trkpt>
      <trkpt lat="42.80686" lon="-0.03378">
        <ele>1991.8</ele>
        <time>2023-10-31T10:14:53Z</time>
      </trkpt>
      <trkpt lat="42.80687" lon="-0.03376">
        <ele>1991.6</ele>
        <time>2023-10-31T10:14:54Z</time>
      </trkpt>
      <trkpt lat="42.80687" lon="-0.03375">
        <ele>1991.4</ele>
        <time>2023-10-31T10:14:55Z</time>
      </trkpt>
      <trkpt lat="42.80687" lon="-0.03374">
        <ele>1991.1</ele>
        <time>2023-10-31T10:14:56Z</time>
      </trkpt>
      <trkpt lat="42.80686" lon="-0.03374">
        <ele>1990.8</ele>
        <time>2023-10-31T10:14:57Z</time>
      </trkpt>
      <trkpt lat="42.80685" lon="-0.03374">
        <ele>1990.7</ele>
        <time>2023-10-31T10:14:58Z</time>
      </trkpt>
      <trkpt lat="42.80685" lon="-0.03373">
        <ele>1990.6</ele>
        <time>2023-10-31T10:14:59Z</time>
      </trkpt>
      <trkpt lat="42.80685" lon="-0.03371">
        <ele>1990.3</ele>
        <time>2023-10-31T10:15:00Z</time>
      </trkpt>
      <trkpt lat="42.80685" lon="-0.03371">
        <ele>1990.2</ele>
        <time>2023-10-31T10:15:01Z</time>
      </trkpt>
      <trkpt lat="42.80684" lon="-0.03372">
        <ele>1990.1</ele>
        <time>2023-10-31T10:15:02Z</time>
      </trkpt>
      <trkpt lat="42.80684" lon="-0.03371">
        <ele>1990</ele>
        <time>2023-10-31T10:15:03Z</time>
      </trkpt>
      <trkpt lat="42.80684" lon="-0.03371">
        <ele>1990</ele>
        <time>2023-10-31T10:15:04Z</time>
      </trkpt>
      <trkpt lat="42.80684" lon="-0.03372">
        <ele>1989.8</ele>
        <time>2023-10-31T10:15:05Z</time>
      </trkpt>
      <trkpt lat="42.80684" lon="-0.03372">
        <ele>1989.8</ele>
        <time>2023-10-31T10:15:06Z</time>
      </trkpt>
      <trkpt lat="42.80684" lon="-0.03372">
        <ele>1989.7</ele>
        <time>2023-10-31T10:15:07Z</time>
      </trkpt>
      <trkpt lat="42.80683" lon="-0.03372">
        <ele>1989.7</ele>
        <time>2023-10-31T10:15:08Z</time>
      </trkpt>
      <trkpt lat="42.80683" lon="-0.03372">
        <ele>1989.6</ele>
        <time>2023-10-31T10:15:09Z</time>
      </trkpt>
      <trkpt lat="42.80683" lon="-0.03372">
        <ele>1989.6</ele>
        <time>2023-10-31T10:15:10Z</time>
      </trkpt>
      <trkpt lat="42.80683" lon="-0.03372">
        <ele>1989.5</ele>
        <time>2023-10-31T10:15:11Z</time>
      </trkpt>
      <trkpt lat="42.80683" lon="-0.03372">
        <ele>1989.4</ele>
        <time>2023-10-31T10:15:12Z</time>
      </trkpt>
      <trkpt lat="42.80683" lon="-0.03371">
        <ele>1989.2</ele>
        <time>2023-10-31T10:15:13Z</time>
      </trkpt>
      <trkpt lat="42.80683" lon="-0.03371">
        <ele>1989.2</ele>
        <time>2023-10-31T10:15:14Z</time>
      </trkpt>
      <trkpt lat="42.80683" lon="-0.03371">
        <ele>1989.1</ele>
        <time>2023-10-31T10:15:15Z</time>
      </trkpt>
      <trkpt lat="42.80682" lon="-0.0337">
        <ele>1989</ele>
        <time>2023-10-31T10:15:16Z</time>
      </trkpt>
      <trkpt lat="42.80683" lon="-0.03369">
        <ele>1988.8</ele>
        <time>2023-10-31T10:15:17Z</time>
      </trkpt>
      <trkpt lat="42.80682" lon="-0.03369">
        <ele>1988.6</ele>
        <time>2023-10-31T10:15:18Z</time>
      </trkpt>
      <trkpt lat="42.80682" lon="-0.03368">
        <ele>1988.4</ele>
        <time>2023-10-31T10:15:19Z</time>
      </trkpt>
      <trkpt lat="42.80682" lon="-0.03368">
        <ele>1988.3</ele>
        <time>2023-10-31T10:15:20Z</time>
      </trkpt>
      <trkpt lat="42.80681" lon="-0.03367">
        <ele>1988.1</ele>
        <time>2023-10-31T10:15:21Z</time>
      </trkpt>
      <trkpt lat="42.8068" lon="-0.03366">
        <ele>1987.8</ele>
        <time>2023-10-31T10:15:22Z</time>
      </trkpt>
      <trkpt lat="42.8068" lon="-0.03364">
        <ele>1987.5</ele>
        <time>2023-10-31T10:15:23Z</time>
      </trkpt>
      <trkpt lat="42.8068" lon="-0.03363">
        <ele>1987.3</ele>
        <time>2023-10-31T10:15:24Z</time>
      </trkpt>
      <trkpt lat="42.8068" lon="-0.03361">
        <ele>1987</ele>
        <time>2023-10-31T10:15:25Z</time>
      </trkpt>
      <trkpt lat="42.80679" lon="-0.0336">
        <ele>1986.8</ele>
        <time>2023-10-31T10:15:26Z</time>
      </trkpt>
      <trkpt lat="42.80679" lon="-0.03359">
        <ele>1986.5</ele>
        <time>2023-10-31T10:15:27Z</time>
      </trkpt>
      <trkpt lat="42.80678" lon="-0.03357">
        <ele>1986.2</ele>
        <time>2023-10-31T10:15:28Z</time>
      </trkpt>
      <trkpt lat="42.80679" lon="-0.03356">
        <ele>1985.9</ele>
        <time>2023-10-31T10:15:29Z</time>
      </trkpt>
      <trkpt lat="42.80679" lon="-0.03354">
        <ele>1985.7</ele>
        <time>2023-10-31T10:15:30Z</time>
      </trkpt>
      <trkpt lat="42.8068" lon="-0.03353">
        <ele>1985.4</ele>
        <time>2023-10-31T10:15:31Z</time>
      </trkpt>
      <trkpt lat="42.8068" lon="-0.03351">
        <ele>1985.3</ele>
        <time>2023-10-31T10:15:32Z</time>
      </trkpt>
      <trkpt lat="42.8068" lon="-0.0335">
        <ele>1985.1</ele>
        <time>2023-10-31T10:15:33Z</time>
      </trkpt>
      <trkpt lat="42.80681" lon="-0.0335">
        <ele>1984.9</ele>
        <time>2023-10-31T10:15:34Z</time>
      </trkpt>
      <trkpt lat="42.80681" lon="-0.03349">
        <ele>1984.8</ele>
        <time>2023-10-31T10:15:35Z</time>
      </trkpt>
      <trkpt lat="42.80682" lon="-0.03349">
        <ele>1984.8</ele>
        <time>2023-10-31T10:15:36Z</time>
      </trkpt>
      <trkpt lat="42.80682" lon="-0.03349">
        <ele>1984.7</ele>
        <time>2023-10-31T10:15:37Z</time>
      </trkpt>
      <trkpt lat="42.80683" lon="-0.03348">
        <ele>1984.6</ele>
        <time>2023-10-31T10:15:38Z</time>
      </trkpt>
      <trkpt lat="42.80683" lon="-0.03348">
        <ele>1984.5</ele>
        <time>2023-10-31T10:15:39Z</time>
      </trkpt>
      <trkpt lat="42.80683" lon="-0.03347">
        <ele>1984.4</ele>
        <time>2023-10-31T10:15:40Z</time>
      </trkpt>
      <trkpt lat="42.80684" lon="-0.03346">
        <ele>1984.3</ele>
        <time>2023-10-31T10:15:41Z</time>
      </trkpt>
      <trkpt lat="42.80684" lon="-0.03345">
        <ele>1984.2</ele>
        <time>2023-10-31T10:15:42Z</time>
      </trkpt>
      <trkpt lat="42.80684" lon="-0.03344">
        <ele>1984</ele>
        <time>2023-10-31T10:15:43Z</time>
      </trkpt>
      <trkpt lat="42.80684" lon="-0.03342">
        <ele>1983.9</ele>
        <time>2023-10-31T10:15:44Z</time>
      </trkpt>
      <trkpt lat="42.80684" lon="-0.03342">
        <ele>1983.9</ele>
        <time>2023-10-31T10:15:45Z</time>
      </trkpt>
      <trkpt lat="42.80684" lon="-0.03342">
        <ele>1983.9</ele>
        <time>2023-10-31T10:15:46Z</time>
      </trkpt>
      <trkpt lat="42.80684" lon="-0.03342">
        <ele>1983.9</ele>
        <time>2023-10-31T10:15:47Z</time>
      </trkpt>
      <trkpt lat="42.80684" lon="-0.03342">
        <ele>1983.9</ele>
        <time>2023-10-31T10:15:48Z</time>
      </trkpt>
      <trkpt lat="42.80684" lon="-0.03342">
        <ele>1983.9</ele>
        <time>2023-10-31T10:15:49Z</time>
      </trkpt>
      <trkpt lat="42.80684" lon="-0.03342">
        <ele>1983.9</ele>
        <time>2023-10-31T10:15:50Z</time>
      </trkpt>
      <trkpt lat="42.80684" lon="-0.03342">
        <ele>1983.9</ele>
        <time>2023-10-31T10:15:51Z</time>
      </trkpt>
      <trkpt lat="42.80684" lon="-0.03342">
        <ele>1983.9</ele>
        <time>2023-10-31T10:15:52Z</time>
      </trkpt>
      <trkpt lat="42.80684" lon="-0.03342">
        <ele>1983.9</ele>
        <time>2023-10-31T10:15:53Z</time>
      </trkpt>
      <trkpt lat="42.80684" lon="-0.03339">
        <ele>1983.7</ele>
        <time>2023-10-31T10:15:54Z</time>
      </trkpt>
      <trkpt lat="42.80685" lon="-0.03338">
        <ele>1983.6</ele>
        <time>2023-10-31T10:15:55Z</time>
      </trkpt>
      <trkpt lat="42.80685" lon="-0.03337">
        <ele>1983.5</ele>
        <time>2023-10-31T10:15:56Z</time>
      </trkpt>
      <trkpt lat="42.80685" lon="-0.03336">
        <ele>1983.5</ele>
        <time>2023-10-31T10:15:57Z</time>
      </trkpt>
      <trkpt lat="42.80685" lon="-0.03335">
        <ele>1983.5</ele>
        <time>2023-10-31T10:15:58Z</time>
      </trkpt>
      <trkpt lat="42.80685" lon="-0.03334">
        <ele>1983.4</ele>
        <time>2023-10-31T10:15:59Z</time>
      </trkpt>
      <trkpt lat="42.80685" lon="-0.03334">
        <ele>1983.4</ele>
        <time>2023-10-31T10:16:00Z</time>
      </trkpt>
      <trkpt lat="42.80685" lon="-0.03333">
        <ele>1983.4</ele>
        <time>2023-10-31T10:16:01Z</time>
      </trkpt>
      <trkpt lat="42.80686" lon="-0.03333">
        <ele>1983.4</ele>
        <time>2023-10-31T10:16:02Z</time>
      </trkpt>
      <trkpt lat="42.80686" lon="-0.03332">
        <ele>1983.4</ele>
        <time>2023-10-31T10:16:03Z</time>
      </trkpt>
      <trkpt lat="42.80686" lon="-0.03331">
        <ele>1983.3</ele>
        <time>2023-10-31T10:16:04Z</time>
      </trkpt>
      <trkpt lat="42.80685" lon="-0.0333">
        <ele>1983.3</ele>
        <time>2023-10-31T10:16:05Z</time>
      </trkpt>
      <trkpt lat="42.80686" lon="-0.03329">
        <ele>1983.3</ele>
        <time>2023-10-31T10:16:06Z</time>
      </trkpt>
      <trkpt lat="42.80686" lon="-0.03328">
        <ele>1983.3</ele>
        <time>2023-10-31T10:16:07Z</time>
      </trkpt>
      <trkpt lat="42.80687" lon="-0.03328">
        <ele>1983.3</ele>
        <time>2023-10-31T10:16:08Z</time>
      </trkpt>
      <trkpt lat="42.80687" lon="-0.03328">
        <ele>1983.3</ele>
        <time>2023-10-31T10:16:09Z</time>
      </trkpt>
      <trkpt lat="42.80687" lon="-0.03327">
        <ele>1983.3</ele>
        <time>2023-10-31T10:16:10Z</time>
      </trkpt>
      <trkpt lat="42.80687" lon="-0.03326">
        <ele>1983.4</ele>
        <time>2023-10-31T10:16:11Z</time>
      </trkpt>
      <trkpt lat="42.80688" lon="-0.03325">
        <ele>1983.4</ele>
        <time>2023-10-31T10:16:12Z</time>
      </trkpt>
      <trkpt lat="42.80687" lon="-0.03325">
        <ele>1983.4</ele>
        <time>2023-10-31T10:16:13Z</time>
      </trkpt>
      <trkpt lat="42.80688" lon="-0.03324">
        <ele>1983.4</ele>
        <time>2023-10-31T10:16:14Z</time>
      </trkpt>
      <trkpt lat="42.80688" lon="-0.03324">
        <ele>1983.4</ele>
        <time>2023-10-31T10:16:15Z</time>
      </trkpt>
      <trkpt lat="42.80688" lon="-0.03324">
        <ele>1983.4</ele>
        <time>2023-10-31T10:16:16Z</time>
      </trkpt>
      <trkpt lat="42.80688" lon="-0.03324">
        <ele>1983.4</ele>
        <time>2023-10-31T10:16:17Z</time>
      </trkpt>
      <trkpt lat="42.80689" lon="-0.03323">
        <ele>1983.5</ele>
        <time>2023-10-31T10:16:18Z</time>
      </trkpt>
      <trkpt lat="42.80689" lon="-0.03323">
        <ele>1983.5</ele>
        <time>2023-10-31T10:16:19Z</time>
      </trkpt>
      <trkpt lat="42.80689" lon="-0.03322">
        <ele>1983.5</ele>
        <time>2023-10-31T10:16:20Z</time>
      </trkpt>
      <trkpt lat="42.80689" lon="-0.03321">
        <ele>1983.6</ele>
        <time>2023-10-31T10:16:21Z</time>
      </trkpt>
      <trkpt lat="42.80689" lon="-0.0332">
        <ele>1983.6</ele>
        <time>2023-10-31T10:16:22Z</time>
      </trkpt>
      <trkpt lat="42.80689" lon="-0.03319">
        <ele>1983.6</ele>
        <time>2023-10-31T10:16:23Z</time>
      </trkpt>
      <trkpt lat="42.80689" lon="-0.03318">
        <ele>1983.7</ele>
        <time>2023-10-31T10:16:24Z</time>
      </trkpt>
      <trkpt lat="42.80689" lon="-0.03318">
        <ele>1983.7</ele>
        <time>2023-10-31T10:16:25Z</time>
      </trkpt>
      <trkpt lat="42.80689" lon="-0.03318">
        <ele>1983.7</ele>
        <time>2023-10-31T10:16:26Z</time>
      </trkpt>
      <trkpt lat="42.8069" lon="-0.03317">
        <ele>1983.7</ele>
        <time>2023-10-31T10:16:27Z</time>
      </trkpt>
      <trkpt lat="42.8069" lon="-0.03318">
        <ele>1983.8</ele>
        <time>2023-10-31T10:16:28Z</time>
      </trkpt>
      <trkpt lat="42.8069" lon="-0.03317">
        <ele>1983.9</ele>
        <time>2023-10-31T10:16:29Z</time>
      </trkpt>
      <trkpt lat="42.80691" lon="-0.03317">
        <ele>1983.9</ele>
        <time>2023-10-31T10:16:30Z</time>
      </trkpt>
      <trkpt lat="42.8069" lon="-0.03317">
        <ele>1984</ele>
        <time>2023-10-31T10:16:31Z</time>
      </trkpt>
      <trkpt lat="42.80691" lon="-0.03316">
        <ele>1984</ele>
        <time>2023-10-31T10:16:32Z</time>
      </trkpt>
      <trkpt lat="42.8069" lon="-0.03314">
        <ele>1984.1</ele>
        <time>2023-10-31T10:16:33Z</time>
      </trkpt>
      <trkpt lat="42.8069" lon="-0.03314">
        <ele>1984.2</ele>
        <time>2023-10-31T10:16:34Z</time>
      </trkpt>
      <trkpt lat="42.8069" lon="-0.03313">
        <ele>1984.2</ele>
        <time>2023-10-31T10:16:35Z</time>
      </trkpt>
      <trkpt lat="42.8069" lon="-0.03312">
        <ele>1984.3</ele>
        <time>2023-10-31T10:16:36Z</time>
      </trkpt>
      <trkpt lat="42.8069" lon="-0.03312">
        <ele>1984.4</ele>
        <time>2023-10-31T10:16:37Z</time>
      </trkpt>
      <trkpt lat="42.8069" lon="-0.03311">
        <ele>1984.4</ele>
        <time>2023-10-31T10:16:38Z</time>
      </trkpt>
      <trkpt lat="42.8069" lon="-0.0331">
        <ele>1984.5</ele>
        <time>2023-10-31T10:16:39Z</time>
      </trkpt>
      <trkpt lat="42.8069" lon="-0.03308">
        <ele>1984.7</ele>
        <time>2023-10-31T10:16:40Z</time>
      </trkpt>
      <trkpt lat="42.8069" lon="-0.03307">
        <ele>1984.8</ele>
        <time>2023-10-31T10:16:41Z</time>
      </trkpt>
      <trkpt lat="42.8069" lon="-0.03305">
        <ele>1984.9</ele>
        <time>2023-10-31T10:16:42Z</time>
      </trkpt>
      <trkpt lat="42.80689" lon="-0.03304">
        <ele>1985</ele>
        <time>2023-10-31T10:16:43Z</time>
      </trkpt>
      <trkpt lat="42.80689" lon="-0.03303">
        <ele>1985.1</ele>
        <time>2023-10-31T10:16:44Z</time>
      </trkpt>
      <trkpt lat="42.80689" lon="-0.03302">
        <ele>1985.2</ele>
        <time>2023-10-31T10:16:45Z</time>
      </trkpt>
      <trkpt lat="42.80689" lon="-0.03301">
        <ele>1985.3</ele>
        <time>2023-10-31T10:16:46Z</time>
      </trkpt>
      <trkpt lat="42.80689" lon="-0.03302">
        <ele>1985.4</ele>
        <time>2023-10-31T10:16:47Z</time>
      </trkpt>
      <trkpt lat="42.80689" lon="-0.03302">
        <ele>1985.4</ele>
        <time>2023-10-31T10:16:48Z</time>
      </trkpt>
      <trkpt lat="42.80689" lon="-0.03302">
        <ele>1985.4</ele>
        <time>2023-10-31T10:16:49Z</time>
      </trkpt>
      <trkpt lat="42.80689" lon="-0.03302">
        <ele>1985.4</ele>
        <time>2023-10-31T10:16:50Z</time>
      </trkpt>
      <trkpt lat="42.80689" lon="-0.033">
        <ele>1985.5</ele>
        <time>2023-10-31T10:16:51Z</time>
      </trkpt>
      <trkpt lat="42.80688" lon="-0.033">
        <ele>1985.6</ele>
        <time>2023-10-31T10:16:52Z</time>
      </trkpt>
      <trkpt lat="42.80688" lon="-0.033">
        <ele>1985.6</ele>
        <time>2023-10-31T10:16:53Z</time>
      </trkpt>
      <trkpt lat="42.80688" lon="-0.03299">
        <ele>1985.7</ele>
        <time>2023-10-31T10:16:54Z</time>
      </trkpt>
      <trkpt lat="42.80688" lon="-0.03299">
        <ele>1985.7</ele>
        <time>2023-10-31T10:16:55Z</time>
      </trkpt>
      <trkpt lat="42.80688" lon="-0.03298">
        <ele>1985.8</ele>
        <time>2023-10-31T10:16:56Z</time>
      </trkpt>
      <trkpt lat="42.80688" lon="-0.03298">
        <ele>1985.8</ele>
        <time>2023-10-31T10:16:57Z</time>
      </trkpt>
      <trkpt lat="42.80688" lon="-0.03298">
        <ele>1985.9</ele>
        <time>2023-10-31T10:16:58Z</time>
      </trkpt>
      <trkpt lat="42.80688" lon="-0.03297">
        <ele>1985.9</ele>
        <time>2023-10-31T10:16:59Z</time>
      </trkpt>
      <trkpt lat="42.80688" lon="-0.03297">
        <ele>1985.9</ele>
        <time>2023-10-31T10:17:00Z</time>
      </trkpt>
      <trkpt lat="42.80688" lon="-0.03297">
        <ele>1986</ele>
        <time>2023-10-31T10:17:01Z</time>
      </trkpt>
      <trkpt lat="42.80688" lon="-0.03297">
        <ele>1986</ele>
        <time>2023-10-31T10:17:02Z</time>
      </trkpt>
      <trkpt lat="42.80688" lon="-0.03297">
        <ele>1986</ele>
        <time>2023-10-31T10:17:03Z</time>
      </trkpt>
      <trkpt lat="42.80688" lon="-0.03297">
        <ele>1986</ele>
        <time>2023-10-31T10:17:04Z</time>
      </trkpt>
      <trkpt lat="42.80688" lon="-0.03297">
        <ele>1986.1</ele>
        <time>2023-10-31T10:17:05Z</time>
      </trkpt>
      <trkpt lat="42.80689" lon="-0.03297">
        <ele>1986.1</ele>
        <time>2023-10-31T10:17:06Z</time>
      </trkpt>
      <trkpt lat="42.80689" lon="-0.03297">
        <ele>1986.2</ele>
        <time>2023-10-31T10:17:07Z</time>
      </trkpt>
      <trkpt lat="42.80689" lon="-0.03296">
        <ele>1986.2</ele>
        <time>2023-10-31T10:17:08Z</time>
      </trkpt>
      <trkpt lat="42.80689" lon="-0.03295">
        <ele>1986.4</ele>
        <time>2023-10-31T10:17:09Z</time>
      </trkpt>
      <trkpt lat="42.80689" lon="-0.03295">
        <ele>1986.4</ele>
        <time>2023-10-31T10:17:10Z</time>
      </trkpt>
      <trkpt lat="42.80689" lon="-0.03294">
        <ele>1986.4</ele>
        <time>2023-10-31T10:17:11Z</time>
      </trkpt>
      <trkpt lat="42.80689" lon="-0.03292">
        <ele>1986.6</ele>
        <time>2023-10-31T10:17:12Z</time>
      </trkpt>
      <trkpt lat="42.80689" lon="-0.03291">
        <ele>1986.8</ele>
        <time>2023-10-31T10:17:13Z</time>
      </trkpt>
      <trkpt lat="42.80689" lon="-0.0329">
        <ele>1986.8</ele>
        <time>2023-10-31T10:17:14Z</time>
      </trkpt>
      <trkpt lat="42.80689" lon="-0.03289">
        <ele>1986.9</ele>
        <time>2023-10-31T10:17:15Z</time>
      </trkpt>
      <trkpt lat="42.80689" lon="-0.03289">
        <ele>1986.9</ele>
        <time>2023-10-31T10:17:16Z</time>
      </trkpt>
      <trkpt lat="42.80689" lon="-0.03288">
        <ele>1987</ele>
        <time>2023-10-31T10:17:17Z</time>
      </trkpt>
      <trkpt lat="42.80689" lon="-0.03287">
        <ele>1987.1</ele>
        <time>2023-10-31T10:17:18Z</time>
      </trkpt>
      <trkpt lat="42.80688" lon="-0.03286">
        <ele>1987.2</ele>
        <time>2023-10-31T10:17:19Z</time>
      </trkpt>
      <trkpt lat="42.80688" lon="-0.03286">
        <ele>1987.2</ele>
        <time>2023-10-31T10:17:20Z</time>
      </trkpt>
      <trkpt lat="42.80689" lon="-0.03285">
        <ele>1987.3</ele>
        <time>2023-10-31T10:17:21Z</time>
      </trkpt>
      <trkpt lat="42.80689" lon="-0.03285">
        <ele>1987.4</ele>
        <time>2023-10-31T10:17:22Z</time>
      </trkpt>
      <trkpt lat="42.80689" lon="-0.03285">
        <ele>1987.4</ele>
        <time>2023-10-31T10:17:23Z</time>
      </trkpt>
      <trkpt lat="42.80689" lon="-0.03284">
        <ele>1987.4</ele>
        <time>2023-10-31T10:17:24Z</time>
      </trkpt>
      <trkpt lat="42.80689" lon="-0.03284">
        <ele>1987.5</ele>
        <time>2023-10-31T10:17:25Z</time>
      </trkpt>
      <trkpt lat="42.80689" lon="-0.03284">
        <ele>1987.5</ele>
        <time>2023-10-31T10:17:26Z</time>
      </trkpt>
      <trkpt lat="42.8069" lon="-0.03284">
        <ele>1987.6</ele>
        <time>2023-10-31T10:17:27Z</time>
      </trkpt>
      <trkpt lat="42.80689" lon="-0.03284">
        <ele>1987.6</ele>
        <time>2023-10-31T10:17:28Z</time>
      </trkpt>
      <trkpt lat="42.80689" lon="-0.03284">
        <ele>1987.6</ele>
        <time>2023-10-31T10:17:29Z</time>
      </trkpt>
      <trkpt lat="42.80689" lon="-0.03284">
        <ele>1987.6</ele>
        <time>2023-10-31T10:17:30Z</time>
      </trkpt>
      <trkpt lat="42.80689" lon="-0.03284">
        <ele>1987.6</ele>
        <time>2023-10-31T10:17:31Z</time>
      </trkpt>
      <trkpt lat="42.80689" lon="-0.03284">
        <ele>1987.6</ele>
        <time>2023-10-31T10:17:32Z</time>
      </trkpt>
      <trkpt lat="42.80689" lon="-0.03284">
        <ele>1987.7</ele>
        <time>2023-10-31T10:17:33Z</time>
      </trkpt>
      <trkpt lat="42.80689" lon="-0.03284">
        <ele>1987.7</ele>
        <time>2023-10-31T10:17:34Z</time>
      </trkpt>
      <trkpt lat="42.80689" lon="-0.03283">
        <ele>1987.7</ele>
        <time>2023-10-31T10:17:35Z</time>
      </trkpt>
      <trkpt lat="42.80689" lon="-0.03283">
        <ele>1987.7</ele>
        <time>2023-10-31T10:17:36Z</time>
      </trkpt>
      <trkpt lat="42.80689" lon="-0.03283">
        <ele>1987.8</ele>
        <time>2023-10-31T10:17:37Z</time>
      </trkpt>
      <trkpt lat="42.80689" lon="-0.03283">
        <ele>1987.8</ele>
        <time>2023-10-31T10:17:38Z</time>
      </trkpt>
      <trkpt lat="42.8069" lon="-0.03282">
        <ele>1987.9</ele>
        <time>2023-10-31T10:17:39Z</time>
      </trkpt>
      <trkpt lat="42.80689" lon="-0.03282">
        <ele>1987.9</ele>
        <time>2023-10-31T10:17:40Z</time>
      </trkpt>
      <trkpt lat="42.80689" lon="-0.03282">
        <ele>1987.9</ele>
        <time>2023-10-31T10:17:41Z</time>
      </trkpt>
      <trkpt lat="42.80692" lon="-0.03283">
        <ele>1988.2</ele>
        <time>2023-10-31T10:17:42Z</time>
      </trkpt>
      <trkpt lat="42.80691" lon="-0.03282">
        <ele>1988.4</ele>
        <time>2023-10-31T10:17:43Z</time>
      </trkpt>
      <trkpt lat="42.8069" lon="-0.03282">
        <ele>1988.4</ele>
        <time>2023-10-31T10:17:44Z</time>
      </trkpt>
      <trkpt lat="42.8069" lon="-0.03281">
        <ele>1988.5</ele>
        <time>2023-10-31T10:17:45Z</time>
      </trkpt>
      <trkpt lat="42.8069" lon="-0.03281">
        <ele>1988.5</ele>
        <time>2023-10-31T10:17:46Z</time>
      </trkpt>
      <trkpt lat="42.8069" lon="-0.0328">
        <ele>1988.6</ele>
        <time>2023-10-31T10:17:47Z</time>
      </trkpt>
      <trkpt lat="42.8069" lon="-0.03279">
        <ele>1988.6</ele>
        <time>2023-10-31T10:17:48Z</time>
      </trkpt>
      <trkpt lat="42.8069" lon="-0.03278">
        <ele>1988.8</ele>
        <time>2023-10-31T10:17:49Z</time>
      </trkpt>
      <trkpt lat="42.8069" lon="-0.03277">
        <ele>1988.8</ele>
        <time>2023-10-31T10:17:50Z</time>
      </trkpt>
      <trkpt lat="42.8069" lon="-0.03276">
        <ele>1988.9</ele>
        <time>2023-10-31T10:17:51Z</time>
      </trkpt>
      <trkpt lat="42.8069" lon="-0.03275">
        <ele>1989</ele>
        <time>2023-10-31T10:17:52Z</time>
      </trkpt>
      <trkpt lat="42.8069" lon="-0.03273">
        <ele>1989.1</ele>
        <time>2023-10-31T10:17:53Z</time>
      </trkpt>
      <trkpt lat="42.8069" lon="-0.03273">
        <ele>1989.2</ele>
        <time>2023-10-31T10:17:54Z</time>
      </trkpt>
      <trkpt lat="42.8069" lon="-0.03272">
        <ele>1989.2</ele>
        <time>2023-10-31T10:17:55Z</time>
      </trkpt>
      <trkpt lat="42.8069" lon="-0.03271">
        <ele>1989.3</ele>
        <time>2023-10-31T10:17:56Z</time>
      </trkpt>
      <trkpt lat="42.8069" lon="-0.0327">
        <ele>1989.4</ele>
        <time>2023-10-31T10:17:57Z</time>
      </trkpt>
      <trkpt lat="42.80691" lon="-0.03269">
        <ele>1989.5</ele>
        <time>2023-10-31T10:17:58Z</time>
      </trkpt>
      <trkpt lat="42.80691" lon="-0.03268">
        <ele>1989.6</ele>
        <time>2023-10-31T10:17:59Z</time>
      </trkpt>
      <trkpt lat="42.80691" lon="-0.03267">
        <ele>1989.6</ele>
        <time>2023-10-31T10:18:00Z</time>
      </trkpt>
      <trkpt lat="42.80691" lon="-0.03266">
        <ele>1989.7</ele>
        <time>2023-10-31T10:18:01Z</time>
      </trkpt>
      <trkpt lat="42.80691" lon="-0.03266">
        <ele>1989.8</ele>
        <time>2023-10-31T10:18:02Z</time>
      </trkpt>
      <trkpt lat="42.80691" lon="-0.03265">
        <ele>1989.8</ele>
        <time>2023-10-31T10:18:03Z</time>
      </trkpt>
      <trkpt lat="42.80691" lon="-0.03264">
        <ele>1989.9</ele>
        <time>2023-10-31T10:18:04Z</time>
      </trkpt>
      <trkpt lat="42.80692" lon="-0.03263">
        <ele>1990</ele>
        <time>2023-10-31T10:18:05Z</time>
      </trkpt>
      <trkpt lat="42.80692" lon="-0.03262">
        <ele>1990.1</ele>
        <time>2023-10-31T10:18:06Z</time>
      </trkpt>
      <trkpt lat="42.80692" lon="-0.03262">
        <ele>1990.1</ele>
        <time>2023-10-31T10:18:07Z</time>
      </trkpt>
      <trkpt lat="42.80692" lon="-0.03261">
        <ele>1990.2</ele>
        <time>2023-10-31T10:18:08Z</time>
      </trkpt>
      <trkpt lat="42.80693" lon="-0.0326">
        <ele>1990.3</ele>
        <time>2023-10-31T10:18:09Z</time>
      </trkpt>
      <trkpt lat="42.80693" lon="-0.03259">
        <ele>1990.4</ele>
        <time>2023-10-31T10:18:10Z</time>
      </trkpt>
      <trkpt lat="42.80693" lon="-0.03259">
        <ele>1990.4</ele>
        <time>2023-10-31T10:18:11Z</time>
      </trkpt>
      <trkpt lat="42.80694" lon="-0.03259">
        <ele>1990.5</ele>
        <time>2023-10-31T10:18:12Z</time>
      </trkpt>
      <trkpt lat="42.80694" lon="-0.03259">
        <ele>1990.5</ele>
        <time>2023-10-31T10:18:13Z</time>
      </trkpt>
      <trkpt lat="42.80694" lon="-0.03259">
        <ele>1990.6</ele>
        <time>2023-10-31T10:18:14Z</time>
      </trkpt>
      <trkpt lat="42.80695" lon="-0.03258">
        <ele>1990.8</ele>
        <time>2023-10-31T10:18:15Z</time>
      </trkpt>
      <trkpt lat="42.80695" lon="-0.03258">
        <ele>1990.8</ele>
        <time>2023-10-31T10:18:16Z</time>
      </trkpt>
      <trkpt lat="42.80695" lon="-0.03257">
        <ele>1990.9</ele>
        <time>2023-10-31T10:18:17Z</time>
      </trkpt>
      <trkpt lat="42.80695" lon="-0.03256">
        <ele>1991</ele>
        <time>2023-10-31T10:18:18Z</time>
      </trkpt>
      <trkpt lat="42.80695" lon="-0.03256">
        <ele>1991.1</ele>
        <time>2023-10-31T10:18:19Z</time>
      </trkpt>
      <trkpt lat="42.80695" lon="-0.03255">
        <ele>1991.1</ele>
        <time>2023-10-31T10:18:20Z</time>
      </trkpt>
      <trkpt lat="42.80695" lon="-0.03255">
        <ele>1991.2</ele>
        <time>2023-10-31T10:18:21Z</time>
      </trkpt>
      <trkpt lat="42.80695" lon="-0.03255">
        <ele>1991.2</ele>
        <time>2023-10-31T10:18:22Z</time>
      </trkpt>
      <trkpt lat="42.80695" lon="-0.03255">
        <ele>1991.2</ele>
        <time>2023-10-31T10:18:23Z</time>
      </trkpt>
      <trkpt lat="42.80696" lon="-0.03255">
        <ele>1991.3</ele>
        <time>2023-10-31T10:18:24Z</time>
      </trkpt>
      <trkpt lat="42.80696" lon="-0.03254">
        <ele>1991.4</ele>
        <time>2023-10-31T10:18:25Z</time>
      </trkpt>
      <trkpt lat="42.80696" lon="-0.03254">
        <ele>1991.5</ele>
        <time>2023-10-31T10:18:26Z</time>
      </trkpt>
      <trkpt lat="42.80696" lon="-0.03253">
        <ele>1991.5</ele>
        <time>2023-10-31T10:18:27Z</time>
      </trkpt>
      <trkpt lat="42.80696" lon="-0.03252">
        <ele>1991.6</ele>
        <time>2023-10-31T10:18:28Z</time>
      </trkpt>
      <trkpt lat="42.80696" lon="-0.03252">
        <ele>1991.7</ele>
        <time>2023-10-31T10:18:29Z</time>
      </trkpt>
      <trkpt lat="42.80696" lon="-0.03252">
        <ele>1991.7</ele>
        <time>2023-10-31T10:18:30Z</time>
      </trkpt>
      <trkpt lat="42.80696" lon="-0.03252">
        <ele>1991.7</ele>
        <time>2023-10-31T10:18:31Z</time>
      </trkpt>
      <trkpt lat="42.80697" lon="-0.03252">
        <ele>1991.8</ele>
        <time>2023-10-31T10:18:32Z</time>
      </trkpt>
      <trkpt lat="42.80697" lon="-0.0325">
        <ele>1991.9</ele>
        <time>2023-10-31T10:18:33Z</time>
      </trkpt>
      <trkpt lat="42.80697" lon="-0.0325">
        <ele>1991.9</ele>
        <time>2023-10-31T10:18:34Z</time>
      </trkpt>
      <trkpt lat="42.80697" lon="-0.0325">
        <ele>1992</ele>
        <time>2023-10-31T10:18:35Z</time>
      </trkpt>
      <trkpt lat="42.80696" lon="-0.0325">
        <ele>1992</ele>
        <time>2023-10-31T10:18:36Z</time>
      </trkpt>
      <trkpt lat="42.80696" lon="-0.0325">
        <ele>1992.1</ele>
        <time>2023-10-31T10:18:37Z</time>
      </trkpt>
      <trkpt lat="42.80696" lon="-0.0325">
        <ele>1992.1</ele>
        <time>2023-10-31T10:18:38Z</time>
      </trkpt>
      <trkpt lat="42.80696" lon="-0.0325">
        <ele>1992.1</ele>
        <time>2023-10-31T10:18:39Z</time>
      </trkpt>
      <trkpt lat="42.80696" lon="-0.0325">
        <ele>1992.1</ele>
        <time>2023-10-31T10:18:40Z</time>
      </trkpt>
      <trkpt lat="42.80696" lon="-0.0325">
        <ele>1992.1</ele>
        <time>2023-10-31T10:18:41Z</time>
      </trkpt>
      <trkpt lat="42.80697" lon="-0.03249">
        <ele>1992.2</ele>
        <time>2023-10-31T10:18:42Z</time>
      </trkpt>
      <trkpt lat="42.80697" lon="-0.03249">
        <ele>1992.2</ele>
        <time>2023-10-31T10:18:43Z</time>
      </trkpt>
      <trkpt lat="42.80697" lon="-0.03249">
        <ele>1992.2</ele>
        <time>2023-10-31T10:18:44Z</time>
      </trkpt>
      <trkpt lat="42.80697" lon="-0.03249">
        <ele>1992.2</ele>
        <time>2023-10-31T10:18:45Z</time>
      </trkpt>
      <trkpt lat="42.80697" lon="-0.0325">
        <ele>1992.3</ele>
        <time>2023-10-31T10:18:46Z</time>
      </trkpt>
      <trkpt lat="42.80697" lon="-0.0325">
        <ele>1992.3</ele>
        <time>2023-10-31T10:18:47Z</time>
      </trkpt>
      <trkpt lat="42.80697" lon="-0.03249">
        <ele>1992.4</ele>
        <time>2023-10-31T10:18:48Z</time>
      </trkpt>
      <trkpt lat="42.80698" lon="-0.0325">
        <ele>1992.4</ele>
        <time>2023-10-31T10:18:49Z</time>
      </trkpt>
      <trkpt lat="42.80697" lon="-0.03249">
        <ele>1992.5</ele>
        <time>2023-10-31T10:18:50Z</time>
      </trkpt>
      <trkpt lat="42.80698" lon="-0.0325">
        <ele>1992.6</ele>
        <time>2023-10-31T10:18:51Z</time>
      </trkpt>
      <trkpt lat="42.80697" lon="-0.0325">
        <ele>1992.6</ele>
        <time>2023-10-31T10:18:52Z</time>
      </trkpt>
      <trkpt lat="42.80698" lon="-0.03249">
        <ele>1992.7</ele>
        <time>2023-10-31T10:18:53Z</time>
      </trkpt>
      <trkpt lat="42.80698" lon="-0.03249">
        <ele>1992.7</ele>
        <time>2023-10-31T10:18:54Z</time>
      </trkpt>
      <trkpt lat="42.80698" lon="-0.03249">
        <ele>1992.8</ele>
        <time>2023-10-31T10:18:55Z</time>
      </trkpt>
      <trkpt lat="42.80698" lon="-0.03249">
        <ele>1992.8</ele>
        <time>2023-10-31T10:18:56Z</time>
      </trkpt>
      <trkpt lat="42.80698" lon="-0.03249">
        <ele>1992.8</ele>
        <time>2023-10-31T10:18:57Z</time>
      </trkpt>
      <trkpt lat="42.80698" lon="-0.03249">
        <ele>1992.9</ele>
        <time>2023-10-31T10:18:58Z</time>
      </trkpt>
      <trkpt lat="42.80697" lon="-0.03249">
        <ele>1992.9</ele>
        <time>2023-10-31T10:18:59Z</time>
      </trkpt>
      <trkpt lat="42.80698" lon="-0.03249">
        <ele>1992.9</ele>
        <time>2023-10-31T10:19:00Z</time>
      </trkpt>
      <trkpt lat="42.80697" lon="-0.03249">
        <ele>1993</ele>
        <time>2023-10-31T10:19:01Z</time>
      </trkpt>
      <trkpt lat="42.80697" lon="-0.03248">
        <ele>1993</ele>
        <time>2023-10-31T10:19:02Z</time>
      </trkpt>
      <trkpt lat="42.80697" lon="-0.03248">
        <ele>1993</ele>
        <time>2023-10-31T10:19:03Z</time>
      </trkpt>
      <trkpt lat="42.80697" lon="-0.03248">
        <ele>1993.1</ele>
        <time>2023-10-31T10:19:04Z</time>
      </trkpt>
      <trkpt lat="42.80697" lon="-0.03248">
        <ele>1993.1</ele>
        <time>2023-10-31T10:19:05Z</time>
      </trkpt>
      <trkpt lat="42.80698" lon="-0.03248">
        <ele>1993.1</ele>
        <time>2023-10-31T10:19:06Z</time>
      </trkpt>
      <trkpt lat="42.80697" lon="-0.03248">
        <ele>1993.2</ele>
        <time>2023-10-31T10:19:07Z</time>
      </trkpt>
      <trkpt lat="42.80698" lon="-0.03248">
        <ele>1993.2</ele>
        <time>2023-10-31T10:19:08Z</time>
      </trkpt>
      <trkpt lat="42.80698" lon="-0.03248">
        <ele>1993.3</ele>
        <time>2023-10-31T10:19:09Z</time>
      </trkpt>
      <trkpt lat="42.80698" lon="-0.03248">
        <ele>1993.3</ele>
        <time>2023-10-31T10:19:10Z</time>
      </trkpt>
      <trkpt lat="42.80698" lon="-0.03248">
        <ele>1993.4</ele>
        <time>2023-10-31T10:19:11Z</time>
      </trkpt>
      <trkpt lat="42.80698" lon="-0.03247">
        <ele>1993.4</ele>
        <time>2023-10-31T10:19:12Z</time>
      </trkpt>
      <trkpt lat="42.80698" lon="-0.03247">
        <ele>1993.4</ele>
        <time>2023-10-31T10:19:13Z</time>
      </trkpt>
      <trkpt lat="42.80698" lon="-0.03247">
        <ele>1993.5</ele>
        <time>2023-10-31T10:19:14Z</time>
      </trkpt>
      <trkpt lat="42.80698" lon="-0.03247">
        <ele>1993.5</ele>
        <time>2023-10-31T10:19:15Z</time>
      </trkpt>
      <trkpt lat="42.80698" lon="-0.03247">
        <ele>1993.5</ele>
        <time>2023-10-31T10:19:16Z</time>
      </trkpt>
      <trkpt lat="42.80698" lon="-0.03247">
        <ele>1993.5</ele>
        <time>2023-10-31T10:19:17Z</time>
      </trkpt>
      <trkpt lat="42.80698" lon="-0.03247">
        <ele>1993.5</ele>
        <time>2023-10-31T10:19:18Z</time>
      </trkpt>
      <trkpt lat="42.80698" lon="-0.03246">
        <ele>1993.6</ele>
        <time>2023-10-31T10:19:19Z</time>
      </trkpt>
      <trkpt lat="42.80699" lon="-0.03246">
        <ele>1993.6</ele>
        <time>2023-10-31T10:19:20Z</time>
      </trkpt>
      <trkpt lat="42.807" lon="-0.03245">
        <ele>1993.9</ele>
        <time>2023-10-31T10:19:21Z</time>
      </trkpt>
      <trkpt lat="42.80699" lon="-0.03246">
        <ele>1994</ele>
        <time>2023-10-31T10:19:22Z</time>
      </trkpt>
      <trkpt lat="42.80698" lon="-0.03246">
        <ele>1994.1</ele>
        <time>2023-10-31T10:19:23Z</time>
      </trkpt>
      <trkpt lat="42.80699" lon="-0.03246">
        <ele>1994.2</ele>
        <time>2023-10-31T10:19:24Z</time>
      </trkpt>
      <trkpt lat="42.80699" lon="-0.03246">
        <ele>1994.2</ele>
        <time>2023-10-31T10:19:25Z</time>
      </trkpt>
      <trkpt lat="42.80698" lon="-0.03246">
        <ele>1994.2</ele>
        <time>2023-10-31T10:19:26Z</time>
      </trkpt>
      <trkpt lat="42.80698" lon="-0.03245">
        <ele>1994.2</ele>
        <time>2023-10-31T10:19:27Z</time>
      </trkpt>
      <trkpt lat="42.80698" lon="-0.03245">
        <ele>1994.2</ele>
        <time>2023-10-31T10:19:28Z</time>
      </trkpt>
      <trkpt lat="42.80698" lon="-0.03245">
        <ele>1994.3</ele>
        <time>2023-10-31T10:19:29Z</time>
      </trkpt>
      <trkpt lat="42.80699" lon="-0.03245">
        <ele>1994.3</ele>
        <time>2023-10-31T10:19:30Z</time>
      </trkpt>
      <trkpt lat="42.80699" lon="-0.03244">
        <ele>1994.4</ele>
        <time>2023-10-31T10:19:31Z</time>
      </trkpt>
      <trkpt lat="42.807" lon="-0.03245">
        <ele>1994.5</ele>
        <time>2023-10-31T10:19:32Z</time>
      </trkpt>
      <trkpt lat="42.807" lon="-0.03244">
        <ele>1994.6</ele>
        <time>2023-10-31T10:19:33Z</time>
      </trkpt>
      <trkpt lat="42.80701" lon="-0.03244">
        <ele>1994.7</ele>
        <time>2023-10-31T10:19:34Z</time>
      </trkpt>
      <trkpt lat="42.80701" lon="-0.03243">
        <ele>1994.8</ele>
        <time>2023-10-31T10:19:35Z</time>
      </trkpt>
      <trkpt lat="42.80702" lon="-0.03243">
        <ele>1994.9</ele>
        <time>2023-10-31T10:19:36Z</time>
      </trkpt>
      <trkpt lat="42.80702" lon="-0.03243">
        <ele>1995</ele>
        <time>2023-10-31T10:19:37Z</time>
      </trkpt>
      <trkpt lat="42.80703" lon="-0.03242">
        <ele>1995.1</ele>
        <time>2023-10-31T10:19:38Z</time>
      </trkpt>
      <trkpt lat="42.80703" lon="-0.03242">
        <ele>1995.2</ele>
        <time>2023-10-31T10:19:39Z</time>
      </trkpt>
      <trkpt lat="42.80703" lon="-0.03242">
        <ele>1995.2</ele>
        <time>2023-10-31T10:19:40Z</time>
      </trkpt>
      <trkpt lat="42.80704" lon="-0.03242">
        <ele>1995.2</ele>
        <time>2023-10-31T10:19:41Z</time>
      </trkpt>
      <trkpt lat="42.80703" lon="-0.03242">
        <ele>1995.2</ele>
        <time>2023-10-31T10:19:42Z</time>
      </trkpt>
      <trkpt lat="42.80704" lon="-0.03242">
        <ele>1995.3</ele>
        <time>2023-10-31T10:19:43Z</time>
      </trkpt>
      <trkpt lat="42.80704" lon="-0.03242">
        <ele>1995.3</ele>
        <time>2023-10-31T10:19:44Z</time>
      </trkpt>
      <trkpt lat="42.80704" lon="-0.03242">
        <ele>1995.3</ele>
        <time>2023-10-31T10:19:45Z</time>
      </trkpt>
      <trkpt lat="42.80703" lon="-0.03241">
        <ele>1995.4</ele>
        <time>2023-10-31T10:19:46Z</time>
      </trkpt>
      <trkpt lat="42.80703" lon="-0.03241">
        <ele>1995.4</ele>
        <time>2023-10-31T10:19:47Z</time>
      </trkpt>
      <trkpt lat="42.80704" lon="-0.03241">
        <ele>1995.4</ele>
        <time>2023-10-31T10:19:48Z</time>
      </trkpt>
      <trkpt lat="42.80704" lon="-0.03241">
        <ele>1995.5</ele>
        <time>2023-10-31T10:19:49Z</time>
      </trkpt>
      <trkpt lat="42.80704" lon="-0.03241">
        <ele>1995.5</ele>
        <time>2023-10-31T10:19:50Z</time>
      </trkpt>
      <trkpt lat="42.80706" lon="-0.0324">
        <ele>1995.7</ele>
        <time>2023-10-31T10:19:51Z</time>
      </trkpt>
      <trkpt lat="42.80707" lon="-0.0324">
        <ele>1995.9</ele>
        <time>2023-10-31T10:19:52Z</time>
      </trkpt>
      <trkpt lat="42.80708" lon="-0.03239">
        <ele>1996</ele>
        <time>2023-10-31T10:19:53Z</time>
      </trkpt>
      <trkpt lat="42.80709" lon="-0.03239">
        <ele>1996.1</ele>
        <time>2023-10-31T10:19:54Z</time>
      </trkpt>
      <trkpt lat="42.80707" lon="-0.03239">
        <ele>1996.3</ele>
        <time>2023-10-31T10:19:55Z</time>
      </trkpt>
      <trkpt lat="42.80707" lon="-0.03238">
        <ele>1996.4</ele>
        <time>2023-10-31T10:19:56Z</time>
      </trkpt>
      <trkpt lat="42.80706" lon="-0.03238">
        <ele>1996.4</ele>
        <time>2023-10-31T10:19:57Z</time>
      </trkpt>
      <trkpt lat="42.80707" lon="-0.03237">
        <ele>1996.4</ele>
        <time>2023-10-31T10:19:58Z</time>
      </trkpt>
      <trkpt lat="42.80707" lon="-0.03237">
        <ele>1996.5</ele>
        <time>2023-10-31T10:19:59Z</time>
      </trkpt>
      <trkpt lat="42.80707" lon="-0.03237">
        <ele>1996.5</ele>
        <time>2023-10-31T10:20:00Z</time>
      </trkpt>
      <trkpt lat="42.80707" lon="-0.03236">
        <ele>1996.5</ele>
        <time>2023-10-31T10:20:01Z</time>
      </trkpt>
      <trkpt lat="42.80707" lon="-0.03236">
        <ele>1996.6</ele>
        <time>2023-10-31T10:20:02Z</time>
      </trkpt>
      <trkpt lat="42.80708" lon="-0.03236">
        <ele>1996.6</ele>
        <time>2023-10-31T10:20:03Z</time>
      </trkpt>
      <trkpt lat="42.80708" lon="-0.03235">
        <ele>1996.7</ele>
        <time>2023-10-31T10:20:04Z</time>
      </trkpt>
      <trkpt lat="42.80709" lon="-0.03234">
        <ele>1996.8</ele>
        <time>2023-10-31T10:20:05Z</time>
      </trkpt>
      <trkpt lat="42.8071" lon="-0.03234">
        <ele>1996.8</ele>
        <time>2023-10-31T10:20:06Z</time>
      </trkpt>
      <trkpt lat="42.8071" lon="-0.03233">
        <ele>1996.9</ele>
        <time>2023-10-31T10:20:07Z</time>
      </trkpt>
      <trkpt lat="42.80711" lon="-0.03233">
        <ele>1996.9</ele>
        <time>2023-10-31T10:20:08Z</time>
      </trkpt>
      <trkpt lat="42.80711" lon="-0.03233">
        <ele>1996.9</ele>
        <time>2023-10-31T10:20:09Z</time>
      </trkpt>
      <trkpt lat="42.80712" lon="-0.03233">
        <ele>1997</ele>
        <time>2023-10-31T10:20:10Z</time>
      </trkpt>
      <trkpt lat="42.80711" lon="-0.03233">
        <ele>1997</ele>
        <time>2023-10-31T10:20:11Z</time>
      </trkpt>
      <trkpt lat="42.80712" lon="-0.03233">
        <ele>1997</ele>
        <time>2023-10-31T10:20:12Z</time>
      </trkpt>
      <trkpt lat="42.80713" lon="-0.03233">
        <ele>1997.1</ele>
        <time>2023-10-31T10:20:13Z</time>
      </trkpt>
      <trkpt lat="42.80713" lon="-0.03233">
        <ele>1997.1</ele>
        <time>2023-10-31T10:20:14Z</time>
      </trkpt>
      <trkpt lat="42.80713" lon="-0.03233">
        <ele>1997.1</ele>
        <time>2023-10-31T10:20:15Z</time>
      </trkpt>
      <trkpt lat="42.80713" lon="-0.03233">
        <ele>1997.1</ele>
        <time>2023-10-31T10:20:16Z</time>
      </trkpt>
      <trkpt lat="42.80713" lon="-0.03233">
        <ele>1997.1</ele>
        <time>2023-10-31T10:20:17Z</time>
      </trkpt>
      <trkpt lat="42.80713" lon="-0.03232">
        <ele>1997.1</ele>
        <time>2023-10-31T10:20:18Z</time>
      </trkpt>
      <trkpt lat="42.80714" lon="-0.03232">
        <ele>1997.2</ele>
        <time>2023-10-31T10:20:19Z</time>
      </trkpt>
      <trkpt lat="42.80714" lon="-0.03232">
        <ele>1997.2</ele>
        <time>2023-10-31T10:20:20Z</time>
      </trkpt>
      <trkpt lat="42.80714" lon="-0.03232">
        <ele>1997.2</ele>
        <time>2023-10-31T10:20:21Z</time>
      </trkpt>
      <trkpt lat="42.80714" lon="-0.03232">
        <ele>1997.2</ele>
        <time>2023-10-31T10:20:22Z</time>
      </trkpt>
      <trkpt lat="42.80714" lon="-0.03232">
        <ele>1997.2</ele>
        <time>2023-10-31T10:20:23Z</time>
      </trkpt>
      <trkpt lat="42.80714" lon="-0.03231">
        <ele>1997.2</ele>
        <time>2023-10-31T10:20:24Z</time>
      </trkpt>
      <trkpt lat="42.80714" lon="-0.03232">
        <ele>1997.2</ele>
        <time>2023-10-31T10:20:25Z</time>
      </trkpt>
      <trkpt lat="42.80713" lon="-0.03232">
        <ele>1997.3</ele>
        <time>2023-10-31T10:20:26Z</time>
      </trkpt>
      <trkpt lat="42.80713" lon="-0.03232">
        <ele>1997.3</ele>
        <time>2023-10-31T10:20:27Z</time>
      </trkpt>
      <trkpt lat="42.80713" lon="-0.03232">
        <ele>1997.3</ele>
        <time>2023-10-31T10:20:28Z</time>
      </trkpt>
      <trkpt lat="42.80714" lon="-0.03232">
        <ele>1997.3</ele>
        <time>2023-10-31T10:20:29Z</time>
      </trkpt>
      <trkpt lat="42.80716" lon="-0.03232">
        <ele>1997.3</ele>
        <time>2023-10-31T10:20:30Z</time>
      </trkpt>
      <trkpt lat="42.80714" lon="-0.03232">
        <ele>1997.3</ele>
        <time>2023-10-31T10:20:31Z</time>
      </trkpt>
      <trkpt lat="42.80715" lon="-0.03232">
        <ele>1997.3</ele>
        <time>2023-10-31T10:20:32Z</time>
      </trkpt>
      <trkpt lat="42.80715" lon="-0.03233">
        <ele>1997.3</ele>
        <time>2023-10-31T10:20:33Z</time>
      </trkpt>
      <trkpt lat="42.80715" lon="-0.03232">
        <ele>1997.3</ele>
        <time>2023-10-31T10:20:34Z</time>
      </trkpt>
      <trkpt lat="42.80716" lon="-0.03232">
        <ele>1997.3</ele>
        <time>2023-10-31T10:20:35Z</time>
      </trkpt>
      <trkpt lat="42.80717" lon="-0.03231">
        <ele>1997.3</ele>
        <time>2023-10-31T10:20:36Z</time>
      </trkpt>
      <trkpt lat="42.80719" lon="-0.03229">
        <ele>1997.3</ele>
        <time>2023-10-31T10:20:37Z</time>
      </trkpt>
      <trkpt lat="42.80719" lon="-0.03228">
        <ele>1997.2</ele>
        <time>2023-10-31T10:20:38Z</time>
      </trkpt>
      <trkpt lat="42.80719" lon="-0.03226">
        <ele>1997.2</ele>
        <time>2023-10-31T10:20:39Z</time>
      </trkpt>
      <trkpt lat="42.8072" lon="-0.03225">
        <ele>1997.2</ele>
        <time>2023-10-31T10:20:40Z</time>
      </trkpt>
      <trkpt lat="42.80719" lon="-0.03225">
        <ele>1997.2</ele>
        <time>2023-10-31T10:20:41Z</time>
      </trkpt>
      <trkpt lat="42.8072" lon="-0.03224">
        <ele>1997.1</ele>
        <time>2023-10-31T10:20:42Z</time>
      </trkpt>
      <trkpt lat="42.8072" lon="-0.03222">
        <ele>1997</ele>
        <time>2023-10-31T10:20:43Z</time>
      </trkpt>
      <trkpt lat="42.8072" lon="-0.03221">
        <ele>1997</ele>
        <time>2023-10-31T10:20:44Z</time>
      </trkpt>
      <trkpt lat="42.80721" lon="-0.0322">
        <ele>1996.9</ele>
        <time>2023-10-31T10:20:45Z</time>
      </trkpt>
      <trkpt lat="42.80721" lon="-0.0322">
        <ele>1996.9</ele>
        <time>2023-10-31T10:20:46Z</time>
      </trkpt>
      <trkpt lat="42.80722" lon="-0.03219">
        <ele>1996.9</ele>
        <time>2023-10-31T10:20:47Z</time>
      </trkpt>
      <trkpt lat="42.80722" lon="-0.03219">
        <ele>1996.8</ele>
        <time>2023-10-31T10:20:48Z</time>
      </trkpt>
      <trkpt lat="42.80722" lon="-0.03217">
        <ele>1996.7</ele>
        <time>2023-10-31T10:20:49Z</time>
      </trkpt>
      <trkpt lat="42.80722" lon="-0.03215">
        <ele>1996.6</ele>
        <time>2023-10-31T10:20:50Z</time>
      </trkpt>
      <trkpt lat="42.80722" lon="-0.03214">
        <ele>1996.6</ele>
        <time>2023-10-31T10:20:51Z</time>
      </trkpt>
      <trkpt lat="42.80722" lon="-0.03214">
        <ele>1996.5</ele>
        <time>2023-10-31T10:20:52Z</time>
      </trkpt>
      <trkpt lat="42.80722" lon="-0.03213">
        <ele>1996.5</ele>
        <time>2023-10-31T10:20:53Z</time>
      </trkpt>
      <trkpt lat="42.80723" lon="-0.03213">
        <ele>1996.5</ele>
        <time>2023-10-31T10:20:54Z</time>
      </trkpt>
      <trkpt lat="42.80722" lon="-0.03214">
        <ele>1996.4</ele>
        <time>2023-10-31T10:20:55Z</time>
      </trkpt>
      <trkpt lat="42.80722" lon="-0.03214">
        <ele>1996.4</ele>
        <time>2023-10-31T10:20:56Z</time>
      </trkpt>
      <trkpt lat="42.80722" lon="-0.03214">
        <ele>1996.4</ele>
        <time>2023-10-31T10:20:57Z</time>
      </trkpt>
      <trkpt lat="42.80722" lon="-0.03214">
        <ele>1996.4</ele>
        <time>2023-10-31T10:20:58Z</time>
      </trkpt>
      <trkpt lat="42.80722" lon="-0.03214">
        <ele>1996.4</ele>
        <time>2023-10-31T10:20:59Z</time>
      </trkpt>
      <trkpt lat="42.80722" lon="-0.03214">
        <ele>1996.4</ele>
        <time>2023-10-31T10:21:00Z</time>
      </trkpt>
      <trkpt lat="42.80722" lon="-0.03214">
        <ele>1996.4</ele>
        <time>2023-10-31T10:21:01Z</time>
      </trkpt>
      <trkpt lat="42.80722" lon="-0.03214">
        <ele>1996.4</ele>
        <time>2023-10-31T10:21:02Z</time>
      </trkpt>
      <trkpt lat="42.80722" lon="-0.03214">
        <ele>1996.3</ele>
        <time>2023-10-31T10:21:03Z</time>
      </trkpt>
      <trkpt lat="42.80722" lon="-0.03214">
        <ele>1996.3</ele>
        <time>2023-10-31T10:21:04Z</time>
      </trkpt>
      <trkpt lat="42.80722" lon="-0.03214">
        <ele>1996.3</ele>
        <time>2023-10-31T10:21:05Z</time>
      </trkpt>
      <trkpt lat="42.80723" lon="-0.03214">
        <ele>1996.3</ele>
        <time>2023-10-31T10:21:06Z</time>
      </trkpt>
      <trkpt lat="42.80722" lon="-0.03212">
        <ele>1996.1</ele>
        <time>2023-10-31T10:21:07Z</time>
      </trkpt>
      <trkpt lat="42.80723" lon="-0.03211">
        <ele>1996</ele>
        <time>2023-10-31T10:21:08Z</time>
      </trkpt>
      <trkpt lat="42.80723" lon="-0.03211">
        <ele>1996</ele>
        <time>2023-10-31T10:21:09Z</time>
      </trkpt>
      <trkpt lat="42.80723" lon="-0.0321">
        <ele>1995.9</ele>
        <time>2023-10-31T10:21:10Z</time>
      </trkpt>
      <trkpt lat="42.80724" lon="-0.03209">
        <ele>1995.8</ele>
        <time>2023-10-31T10:21:11Z</time>
      </trkpt>
      <trkpt lat="42.80724" lon="-0.03209">
        <ele>1995.8</ele>
        <time>2023-10-31T10:21:12Z</time>
      </trkpt>
      <trkpt lat="42.80724" lon="-0.03209">
        <ele>1995.8</ele>
        <time>2023-10-31T10:21:13Z</time>
      </trkpt>
      <trkpt lat="42.80724" lon="-0.0321">
        <ele>1995.7</ele>
        <time>2023-10-31T10:21:14Z</time>
      </trkpt>
      <trkpt lat="42.80724" lon="-0.03209">
        <ele>1995.7</ele>
        <time>2023-10-31T10:21:15Z</time>
      </trkpt>
      <trkpt lat="42.80724" lon="-0.03209">
        <ele>1995.7</ele>
        <time>2023-10-31T10:21:16Z</time>
      </trkpt>
      <trkpt lat="42.80724" lon="-0.03209">
        <ele>1995.6</ele>
        <time>2023-10-31T10:21:17Z</time>
      </trkpt>
      <trkpt lat="42.80724" lon="-0.03209">
        <ele>1995.6</ele>
        <time>2023-10-31T10:21:18Z</time>
      </trkpt>
      <trkpt lat="42.80724" lon="-0.03209">
        <ele>1995.5</ele>
        <time>2023-10-31T10:21:19Z</time>
      </trkpt>
      <trkpt lat="42.80724" lon="-0.0321">
        <ele>1995.4</ele>
        <time>2023-10-31T10:21:20Z</time>
      </trkpt>
      <trkpt lat="42.80724" lon="-0.0321">
        <ele>1995.4</ele>
        <time>2023-10-31T10:21:21Z</time>
      </trkpt>
      <trkpt lat="42.80725" lon="-0.03209">
        <ele>1995.4</ele>
        <time>2023-10-31T10:21:22Z</time>
      </trkpt>
      <trkpt lat="42.80725" lon="-0.03209">
        <ele>1995.4</ele>
        <time>2023-10-31T10:21:23Z</time>
      </trkpt>
      <trkpt lat="42.80724" lon="-0.03209">
        <ele>1995.2</ele>
        <time>2023-10-31T10:21:24Z</time>
      </trkpt>
      <trkpt lat="42.80724" lon="-0.03209">
        <ele>1995.2</ele>
        <time>2023-10-31T10:21:25Z</time>
      </trkpt>
      <trkpt lat="42.80724" lon="-0.03209">
        <ele>1995.2</ele>
        <time>2023-10-31T10:21:26Z</time>
      </trkpt>
      <trkpt lat="42.80725" lon="-0.0321">
        <ele>1995</ele>
        <time>2023-10-31T10:21:27Z</time>
      </trkpt>
      <trkpt lat="42.80725" lon="-0.0321">
        <ele>1995</ele>
        <time>2023-10-31T10:21:28Z</time>
      </trkpt>
      <trkpt lat="42.80726" lon="-0.0321">
        <ele>1995.3</ele>
        <time>2023-10-31T10:21:29Z</time>
      </trkpt>
      <trkpt lat="42.80728" lon="-0.03209">
        <ele>1996</ele>
        <time>2023-10-31T10:21:30Z</time>
      </trkpt>
      <trkpt lat="42.80728" lon="-0.03209">
        <ele>1996.2</ele>
        <time>2023-10-31T10:21:31Z</time>
      </trkpt>
      <trkpt lat="42.80729" lon="-0.03209">
        <ele>1996.3</ele>
        <time>2023-10-31T10:21:32Z</time>
      </trkpt>
      <trkpt lat="42.80729" lon="-0.03209">
        <ele>1996.6</ele>
        <time>2023-10-31T10:21:33Z</time>
      </trkpt>
      <trkpt lat="42.8073" lon="-0.03208">
        <ele>1996.8</ele>
        <time>2023-10-31T10:21:34Z</time>
      </trkpt>
      <trkpt lat="42.80731" lon="-0.03208">
        <ele>1997.2</ele>
        <time>2023-10-31T10:21:35Z</time>
      </trkpt>
      <trkpt lat="42.80731" lon="-0.03208">
        <ele>1997.4</ele>
        <time>2023-10-31T10:21:36Z</time>
      </trkpt>
      <trkpt lat="42.80733" lon="-0.03208">
        <ele>1997.9</ele>
        <time>2023-10-31T10:21:37Z</time>
      </trkpt>
      <trkpt lat="42.80733" lon="-0.03209">
        <ele>1998.2</ele>
        <time>2023-10-31T10:21:38Z</time>
      </trkpt>
      <trkpt lat="42.80734" lon="-0.0321">
        <ele>1998.7</ele>
        <time>2023-10-31T10:21:39Z</time>
      </trkpt>
      <trkpt lat="42.80735" lon="-0.03212">
        <ele>1999</ele>
        <time>2023-10-31T10:21:40Z</time>
      </trkpt>
      <trkpt lat="42.80734" lon="-0.03212">
        <ele>1999.3</ele>
        <time>2023-10-31T10:21:41Z</time>
      </trkpt>
      <trkpt lat="42.80734" lon="-0.03212">
        <ele>1999.4</ele>
        <time>2023-10-31T10:21:42Z</time>
      </trkpt>
      <trkpt lat="42.80734" lon="-0.03212">
        <ele>1999.5</ele>
        <time>2023-10-31T10:21:43Z</time>
      </trkpt>
      <trkpt lat="42.80734" lon="-0.03212">
        <ele>1999.6</ele>
        <time>2023-10-31T10:21:44Z</time>
      </trkpt>
      <trkpt lat="42.80735" lon="-0.03213">
        <ele>1999.8</ele>
        <time>2023-10-31T10:21:45Z</time>
      </trkpt>
      <trkpt lat="42.80736" lon="-0.03213">
        <ele>2000.1</ele>
        <time>2023-10-31T10:21:46Z</time>
      </trkpt>
      <trkpt lat="42.80737" lon="-0.03214">
        <ele>2000.3</ele>
        <time>2023-10-31T10:21:47Z</time>
      </trkpt>
      <trkpt lat="42.80737" lon="-0.03216">
        <ele>2000.6</ele>
        <time>2023-10-31T10:21:48Z</time>
      </trkpt>
      <trkpt lat="42.80737" lon="-0.03216">
        <ele>2000.7</ele>
        <time>2023-10-31T10:21:49Z</time>
      </trkpt>
      <trkpt lat="42.80737" lon="-0.03217">
        <ele>2000.8</ele>
        <time>2023-10-31T10:21:50Z</time>
      </trkpt>
      <trkpt lat="42.80737" lon="-0.03218">
        <ele>2001</ele>
        <time>2023-10-31T10:21:51Z</time>
      </trkpt>
      <trkpt lat="42.80737" lon="-0.03219">
        <ele>2001.2</ele>
        <time>2023-10-31T10:21:52Z</time>
      </trkpt>
      <trkpt lat="42.80738" lon="-0.03219">
        <ele>2001.3</ele>
        <time>2023-10-31T10:21:53Z</time>
      </trkpt>
      <trkpt lat="42.80738" lon="-0.0322">
        <ele>2001.4</ele>
        <time>2023-10-31T10:21:54Z</time>
      </trkpt>
      <trkpt lat="42.80737" lon="-0.0322">
        <ele>2001.4</ele>
        <time>2023-10-31T10:21:55Z</time>
      </trkpt>
      <trkpt lat="42.80737" lon="-0.0322">
        <ele>2001.5</ele>
        <time>2023-10-31T10:21:56Z</time>
      </trkpt>
      <trkpt lat="42.80737" lon="-0.03221">
        <ele>2001.6</ele>
        <time>2023-10-31T10:21:57Z</time>
      </trkpt>
      <trkpt lat="42.80737" lon="-0.03221">
        <ele>2001.6</ele>
        <time>2023-10-31T10:21:58Z</time>
      </trkpt>
      <trkpt lat="42.80738" lon="-0.03222">
        <ele>2001.8</ele>
        <time>2023-10-31T10:21:59Z</time>
      </trkpt>
      <trkpt lat="42.80738" lon="-0.03223">
        <ele>2002</ele>
        <time>2023-10-31T10:22:00Z</time>
      </trkpt>
      <trkpt lat="42.80738" lon="-0.03223">
        <ele>2002</ele>
        <time>2023-10-31T10:22:01Z</time>
      </trkpt>
      <trkpt lat="42.80737" lon="-0.03224">
        <ele>2002.2</ele>
        <time>2023-10-31T10:22:02Z</time>
      </trkpt>
      <trkpt lat="42.80737" lon="-0.03224">
        <ele>2002.3</ele>
        <time>2023-10-31T10:22:03Z</time>
      </trkpt>
      <trkpt lat="42.80737" lon="-0.03224">
        <ele>2002.3</ele>
        <time>2023-10-31T10:22:04Z</time>
      </trkpt>
      <trkpt lat="42.80737" lon="-0.03224">
        <ele>2002.4</ele>
        <time>2023-10-31T10:22:05Z</time>
      </trkpt>
      <trkpt lat="42.80736" lon="-0.03224">
        <ele>2002.5</ele>
        <time>2023-10-31T10:22:06Z</time>
      </trkpt>
      <trkpt lat="42.80737" lon="-0.03225">
        <ele>2002.7</ele>
        <time>2023-10-31T10:22:07Z</time>
      </trkpt>
      <trkpt lat="42.80736" lon="-0.03225">
        <ele>2002.8</ele>
        <time>2023-10-31T10:22:08Z</time>
      </trkpt>
      <trkpt lat="42.80736" lon="-0.03226">
        <ele>2002.9</ele>
        <time>2023-10-31T10:22:09Z</time>
      </trkpt>
      <trkpt lat="42.80736" lon="-0.03226">
        <ele>2003</ele>
        <time>2023-10-31T10:22:10Z</time>
      </trkpt>
      <trkpt lat="42.80735" lon="-0.03227">
        <ele>2003.1</ele>
        <time>2023-10-31T10:22:11Z</time>
      </trkpt>
      <trkpt lat="42.80735" lon="-0.03227">
        <ele>2003.2</ele>
        <time>2023-10-31T10:22:12Z</time>
      </trkpt>
      <trkpt lat="42.80735" lon="-0.03227">
        <ele>2003.2</ele>
        <time>2023-10-31T10:22:13Z</time>
      </trkpt>
      <trkpt lat="42.80735" lon="-0.03227">
        <ele>2003.3</ele>
        <time>2023-10-31T10:22:14Z</time>
      </trkpt>
      <trkpt lat="42.80734" lon="-0.03228">
        <ele>2003.4</ele>
        <time>2023-10-31T10:22:15Z</time>
      </trkpt>
      <trkpt lat="42.80734" lon="-0.03228">
        <ele>2003.5</ele>
        <time>2023-10-31T10:22:16Z</time>
      </trkpt>
      <trkpt lat="42.80734" lon="-0.03229">
        <ele>2003.5</ele>
        <time>2023-10-31T10:22:17Z</time>
      </trkpt>
      <trkpt lat="42.80734" lon="-0.03229">
        <ele>2003.6</ele>
        <time>2023-10-31T10:22:18Z</time>
      </trkpt>
      <trkpt lat="42.80734" lon="-0.0323">
        <ele>2003.8</ele>
        <time>2023-10-31T10:22:19Z</time>
      </trkpt>
      <trkpt lat="42.80734" lon="-0.03231">
        <ele>2003.9</ele>
        <time>2023-10-31T10:22:20Z</time>
      </trkpt>
      <trkpt lat="42.80735" lon="-0.03232">
        <ele>2004</ele>
        <time>2023-10-31T10:22:21Z</time>
      </trkpt>
      <trkpt lat="42.80735" lon="-0.03233">
        <ele>2004.1</ele>
        <time>2023-10-31T10:22:22Z</time>
      </trkpt>
      <trkpt lat="42.80735" lon="-0.03234">
        <ele>2004.3</ele>
        <time>2023-10-31T10:22:23Z</time>
      </trkpt>
      <trkpt lat="42.80735" lon="-0.03235">
        <ele>2004.4</ele>
        <time>2023-10-31T10:22:24Z</time>
      </trkpt>
      <trkpt lat="42.80735" lon="-0.03235">
        <ele>2004.5</ele>
        <time>2023-10-31T10:22:25Z</time>
      </trkpt>
      <trkpt lat="42.80734" lon="-0.03236">
        <ele>2004.6</ele>
        <time>2023-10-31T10:22:26Z</time>
      </trkpt>
      <trkpt lat="42.80734" lon="-0.03237">
        <ele>2004.7</ele>
        <time>2023-10-31T10:22:27Z</time>
      </trkpt>
      <trkpt lat="42.80735" lon="-0.03239">
        <ele>2004.9</ele>
        <time>2023-10-31T10:22:28Z</time>
      </trkpt>
      <trkpt lat="42.80734" lon="-0.03239">
        <ele>2005</ele>
        <time>2023-10-31T10:22:29Z</time>
      </trkpt>
      <trkpt lat="42.80734" lon="-0.0324">
        <ele>2005.1</ele>
        <time>2023-10-31T10:22:30Z</time>
      </trkpt>
      <trkpt lat="42.80734" lon="-0.03241">
        <ele>2005.2</ele>
        <time>2023-10-31T10:22:31Z</time>
      </trkpt>
      <trkpt lat="42.80734" lon="-0.03241">
        <ele>2005.3</ele>
        <time>2023-10-31T10:22:32Z</time>
      </trkpt>
      <trkpt lat="42.80734" lon="-0.03243">
        <ele>2005.5</ele>
        <time>2023-10-31T10:22:33Z</time>
      </trkpt>
      <trkpt lat="42.80733" lon="-0.03243">
        <ele>2005.5</ele>
        <time>2023-10-31T10:22:34Z</time>
      </trkpt>
      <trkpt lat="42.80733" lon="-0.03244">
        <ele>2005.7</ele>
        <time>2023-10-31T10:22:35Z</time>
      </trkpt>
      <trkpt lat="42.80733" lon="-0.03246">
        <ele>2005.9</ele>
        <time>2023-10-31T10:22:36Z</time>
      </trkpt>
      <trkpt lat="42.80734" lon="-0.03246">
        <ele>2006.1</ele>
        <time>2023-10-31T10:22:37Z</time>
      </trkpt>
      <trkpt lat="42.80734" lon="-0.03248">
        <ele>2006.2</ele>
        <time>2023-10-31T10:22:38Z</time>
      </trkpt>
      <trkpt lat="42.80735" lon="-0.03249">
        <ele>2006.4</ele>
        <time>2023-10-31T10:22:39Z</time>
      </trkpt>
      <trkpt lat="42.80735" lon="-0.03249">
        <ele>2006.5</ele>
        <time>2023-10-31T10:22:40Z</time>
      </trkpt>
      <trkpt lat="42.80736" lon="-0.0325">
        <ele>2006.7</ele>
        <time>2023-10-31T10:22:41Z</time>
      </trkpt>
      <trkpt lat="42.80737" lon="-0.0325">
        <ele>2006.9</ele>
        <time>2023-10-31T10:22:42Z</time>
      </trkpt>
      <trkpt lat="42.80737" lon="-0.0325">
        <ele>2007</ele>
        <time>2023-10-31T10:22:43Z</time>
      </trkpt>
      <trkpt lat="42.80738" lon="-0.03252">
        <ele>2007.2</ele>
        <time>2023-10-31T10:22:44Z</time>
      </trkpt>
      <trkpt lat="42.80738" lon="-0.03252">
        <ele>2007.3</ele>
        <time>2023-10-31T10:22:45Z</time>
      </trkpt>
      <trkpt lat="42.80738" lon="-0.03252">
        <ele>2007.4</ele>
        <time>2023-10-31T10:22:46Z</time>
      </trkpt>
      <trkpt lat="42.80739" lon="-0.03253">
        <ele>2007.5</ele>
        <time>2023-10-31T10:22:47Z</time>
      </trkpt>
      <trkpt lat="42.8074" lon="-0.03254">
        <ele>2007.8</ele>
        <time>2023-10-31T10:22:48Z</time>
      </trkpt>
      <trkpt lat="42.8074" lon="-0.03254">
        <ele>2007.9</ele>
        <time>2023-10-31T10:22:49Z</time>
      </trkpt>
      <trkpt lat="42.80741" lon="-0.03255">
        <ele>2008.2</ele>
        <time>2023-10-31T10:22:50Z</time>
      </trkpt>
      <trkpt lat="42.80742" lon="-0.03256">
        <ele>2008.4</ele>
        <time>2023-10-31T10:22:51Z</time>
      </trkpt>
      <trkpt lat="42.80742" lon="-0.03257">
        <ele>2008.6</ele>
        <time>2023-10-31T10:22:52Z</time>
      </trkpt>
      <trkpt lat="42.80742" lon="-0.03258">
        <ele>2008.7</ele>
        <time>2023-10-31T10:22:53Z</time>
      </trkpt>
      <trkpt lat="42.80742" lon="-0.03259">
        <ele>2008.8</ele>
        <time>2023-10-31T10:22:54Z</time>
      </trkpt>
      <trkpt lat="42.80742" lon="-0.0326">
        <ele>2009</ele>
        <time>2023-10-31T10:22:55Z</time>
      </trkpt>
      <trkpt lat="42.80743" lon="-0.03261">
        <ele>2009.2</ele>
        <time>2023-10-31T10:22:56Z</time>
      </trkpt>
      <trkpt lat="42.80743" lon="-0.03261">
        <ele>2009.3</ele>
        <time>2023-10-31T10:22:57Z</time>
      </trkpt>
      <trkpt lat="42.80743" lon="-0.03261">
        <ele>2009.4</ele>
        <time>2023-10-31T10:22:58Z</time>
      </trkpt>
      <trkpt lat="42.80744" lon="-0.03262">
        <ele>2009.7</ele>
        <time>2023-10-31T10:22:59Z</time>
      </trkpt>
      <trkpt lat="42.80745" lon="-0.03263">
        <ele>2009.9</ele>
        <time>2023-10-31T10:23:00Z</time>
      </trkpt>
      <trkpt lat="42.80745" lon="-0.03264">
        <ele>2010.1</ele>
        <time>2023-10-31T10:23:01Z</time>
      </trkpt>
      <trkpt lat="42.80745" lon="-0.03265">
        <ele>2010.3</ele>
        <time>2023-10-31T10:23:02Z</time>
      </trkpt>
      <trkpt lat="42.80745" lon="-0.03266">
        <ele>2010.5</ele>
        <time>2023-10-31T10:23:03Z</time>
      </trkpt>
      <trkpt lat="42.80744" lon="-0.03266">
        <ele>2010.6</ele>
        <time>2023-10-31T10:23:04Z</time>
      </trkpt>
      <trkpt lat="42.80744" lon="-0.03267">
        <ele>2010.8</ele>
        <time>2023-10-31T10:23:05Z</time>
      </trkpt>
      <trkpt lat="42.80744" lon="-0.03267">
        <ele>2010.9</ele>
        <time>2023-10-31T10:23:06Z</time>
      </trkpt>
      <trkpt lat="42.80745" lon="-0.03268">
        <ele>2011.1</ele>
        <time>2023-10-31T10:23:07Z</time>
      </trkpt>
      <trkpt lat="42.80745" lon="-0.03269">
        <ele>2011.3</ele>
        <time>2023-10-31T10:23:08Z</time>
      </trkpt>
      <trkpt lat="42.80745" lon="-0.0327">
        <ele>2011.5</ele>
        <time>2023-10-31T10:23:09Z</time>
      </trkpt>
      <trkpt lat="42.80746" lon="-0.0327">
        <ele>2011.6</ele>
        <time>2023-10-31T10:23:10Z</time>
      </trkpt>
      <trkpt lat="42.80746" lon="-0.03271">
        <ele>2011.8</ele>
        <time>2023-10-31T10:23:11Z</time>
      </trkpt>
      <trkpt lat="42.80746" lon="-0.03272">
        <ele>2011.9</ele>
        <time>2023-10-31T10:23:12Z</time>
      </trkpt>
      <trkpt lat="42.80746" lon="-0.03272">
        <ele>2012</ele>
        <time>2023-10-31T10:23:13Z</time>
      </trkpt>
      <trkpt lat="42.80746" lon="-0.03273">
        <ele>2012.2</ele>
        <time>2023-10-31T10:23:14Z</time>
      </trkpt>
      <trkpt lat="42.80745" lon="-0.03274">
        <ele>2012.4</ele>
        <time>2023-10-31T10:23:15Z</time>
      </trkpt>
      <trkpt lat="42.80745" lon="-0.03274">
        <ele>2012.6</ele>
        <time>2023-10-31T10:23:16Z</time>
      </trkpt>
      <trkpt lat="42.80745" lon="-0.03274">
        <ele>2012.6</ele>
        <time>2023-10-31T10:23:17Z</time>
      </trkpt>
      <trkpt lat="42.80746" lon="-0.03274">
        <ele>2012.8</ele>
        <time>2023-10-31T10:23:18Z</time>
      </trkpt>
      <trkpt lat="42.80746" lon="-0.03276">
        <ele>2013</ele>
        <time>2023-10-31T10:23:19Z</time>
      </trkpt>
      <trkpt lat="42.80746" lon="-0.03276">
        <ele>2013.1</ele>
        <time>2023-10-31T10:23:20Z</time>
      </trkpt>
      <trkpt lat="42.80746" lon="-0.03277">
        <ele>2013.3</ele>
        <time>2023-10-31T10:23:21Z</time>
      </trkpt>
      <trkpt lat="42.80746" lon="-0.03278">
        <ele>2013.5</ele>
        <time>2023-10-31T10:23:22Z</time>
      </trkpt>
      <trkpt lat="42.80746" lon="-0.03279">
        <ele>2013.6</ele>
        <time>2023-10-31T10:23:23Z</time>
      </trkpt>
      <trkpt lat="42.80746" lon="-0.0328">
        <ele>2013.8</ele>
        <time>2023-10-31T10:23:24Z</time>
      </trkpt>
      <trkpt lat="42.80747" lon="-0.0328">
        <ele>2014</ele>
        <time>2023-10-31T10:23:25Z</time>
      </trkpt>
      <trkpt lat="42.80747" lon="-0.03281">
        <ele>2014.1</ele>
        <time>2023-10-31T10:23:26Z</time>
      </trkpt>
      <trkpt lat="42.80747" lon="-0.03281">
        <ele>2014.2</ele>
        <time>2023-10-31T10:23:27Z</time>
      </trkpt>
      <trkpt lat="42.80747" lon="-0.03282">
        <ele>2014.4</ele>
        <time>2023-10-31T10:23:28Z</time>
      </trkpt>
      <trkpt lat="42.80747" lon="-0.03283">
        <ele>2014.6</ele>
        <time>2023-10-31T10:23:29Z</time>
      </trkpt>
      <trkpt lat="42.80747" lon="-0.03283">
        <ele>2014.7</ele>
        <time>2023-10-31T10:23:30Z</time>
      </trkpt>
      <trkpt lat="42.80747" lon="-0.03284">
        <ele>2014.8</ele>
        <time>2023-10-31T10:23:31Z</time>
      </trkpt>
      <trkpt lat="42.80747" lon="-0.03284">
        <ele>2014.9</ele>
        <time>2023-10-31T10:23:32Z</time>
      </trkpt>
      <trkpt lat="42.80747" lon="-0.03285">
        <ele>2015</ele>
        <time>2023-10-31T10:23:33Z</time>
      </trkpt>
      <trkpt lat="42.80747" lon="-0.03285">
        <ele>2015.1</ele>
        <time>2023-10-31T10:23:34Z</time>
      </trkpt>
      <trkpt lat="42.80747" lon="-0.03286">
        <ele>2015.2</ele>
        <time>2023-10-31T10:23:35Z</time>
      </trkpt>
      <trkpt lat="42.80747" lon="-0.03286">
        <ele>2015.3</ele>
        <time>2023-10-31T10:23:36Z</time>
      </trkpt>
      <trkpt lat="42.80747" lon="-0.03287">
        <ele>2015.5</ele>
        <time>2023-10-31T10:23:37Z</time>
      </trkpt>
      <trkpt lat="42.80747" lon="-0.03287">
        <ele>2015.5</ele>
        <time>2023-10-31T10:23:38Z</time>
      </trkpt>
      <trkpt lat="42.80747" lon="-0.03287">
        <ele>2015.6</ele>
        <time>2023-10-31T10:23:39Z</time>
      </trkpt>
      <trkpt lat="42.80747" lon="-0.03288">
        <ele>2015.7</ele>
        <time>2023-10-31T10:23:40Z</time>
      </trkpt>
      <trkpt lat="42.80747" lon="-0.03289">
        <ele>2015.9</ele>
        <time>2023-10-31T10:23:41Z</time>
      </trkpt>
      <trkpt lat="42.80747" lon="-0.03289">
        <ele>2016</ele>
        <time>2023-10-31T10:23:42Z</time>
      </trkpt>
      <trkpt lat="42.80747" lon="-0.0329">
        <ele>2016.1</ele>
        <time>2023-10-31T10:23:43Z</time>
      </trkpt>
      <trkpt lat="42.80747" lon="-0.03291">
        <ele>2016.3</ele>
        <time>2023-10-31T10:23:44Z</time>
      </trkpt>
      <trkpt lat="42.80747" lon="-0.03291">
        <ele>2016.4</ele>
        <time>2023-10-31T10:23:45Z</time>
      </trkpt>
      <trkpt lat="42.80747" lon="-0.03292">
        <ele>2016.6</ele>
        <time>2023-10-31T10:23:46Z</time>
      </trkpt>
      <trkpt lat="42.80748" lon="-0.03293">
        <ele>2016.8</ele>
        <time>2023-10-31T10:23:47Z</time>
      </trkpt>
      <trkpt lat="42.80748" lon="-0.03293">
        <ele>2016.9</ele>
        <time>2023-10-31T10:23:48Z</time>
      </trkpt>
      <trkpt lat="42.80748" lon="-0.03293">
        <ele>2017</ele>
        <time>2023-10-31T10:23:49Z</time>
      </trkpt>
      <trkpt lat="42.80749" lon="-0.03294">
        <ele>2017.2</ele>
        <time>2023-10-31T10:23:50Z</time>
      </trkpt>
      <trkpt lat="42.8075" lon="-0.03295">
        <ele>2017.5</ele>
        <time>2023-10-31T10:23:51Z</time>
      </trkpt>
      <trkpt lat="42.8075" lon="-0.03295">
        <ele>2017.7</ele>
        <time>2023-10-31T10:23:52Z</time>
      </trkpt>
      <trkpt lat="42.8075" lon="-0.03296">
        <ele>2017.9</ele>
        <time>2023-10-31T10:23:53Z</time>
      </trkpt>
      <trkpt lat="42.8075" lon="-0.03296">
        <ele>2018</ele>
        <time>2023-10-31T10:23:54Z</time>
      </trkpt>
      <trkpt lat="42.8075" lon="-0.03297">
        <ele>2018.1</ele>
        <time>2023-10-31T10:23:55Z</time>
      </trkpt>
      <trkpt lat="42.8075" lon="-0.03297">
        <ele>2018.1</ele>
        <time>2023-10-31T10:23:56Z</time>
      </trkpt>
      <trkpt lat="42.8075" lon="-0.03297">
        <ele>2018.2</ele>
        <time>2023-10-31T10:23:57Z</time>
      </trkpt>
      <trkpt lat="42.80751" lon="-0.03298">
        <ele>2018.5</ele>
        <time>2023-10-31T10:23:58Z</time>
      </trkpt>
      <trkpt lat="42.80752" lon="-0.03299">
        <ele>2018.8</ele>
        <time>2023-10-31T10:23:59Z</time>
      </trkpt>
      <trkpt lat="42.80751" lon="-0.033">
        <ele>2018.9</ele>
        <time>2023-10-31T10:24:00Z</time>
      </trkpt>
      <trkpt lat="42.80751" lon="-0.033">
        <ele>2019</ele>
        <time>2023-10-31T10:24:01Z</time>
      </trkpt>
      <trkpt lat="42.80751" lon="-0.03301">
        <ele>2019.3</ele>
        <time>2023-10-31T10:24:02Z</time>
      </trkpt>
      <trkpt lat="42.8075" lon="-0.03302">
        <ele>2019.5</ele>
        <time>2023-10-31T10:24:03Z</time>
      </trkpt>
      <trkpt lat="42.80751" lon="-0.03302">
        <ele>2019.6</ele>
        <time>2023-10-31T10:24:04Z</time>
      </trkpt>
      <trkpt lat="42.80751" lon="-0.03302">
        <ele>2019.7</ele>
        <time>2023-10-31T10:24:05Z</time>
      </trkpt>
      <trkpt lat="42.80751" lon="-0.03302">
        <ele>2019.9</ele>
        <time>2023-10-31T10:24:06Z</time>
      </trkpt>
      <trkpt lat="42.80751" lon="-0.03304">
        <ele>2020.2</ele>
        <time>2023-10-31T10:24:07Z</time>
      </trkpt>
      <trkpt lat="42.80751" lon="-0.03304">
        <ele>2020.4</ele>
        <time>2023-10-31T10:24:08Z</time>
      </trkpt>
      <trkpt lat="42.80752" lon="-0.03305">
        <ele>2020.5</ele>
        <time>2023-10-31T10:24:09Z</time>
      </trkpt>
      <trkpt lat="42.80752" lon="-0.03305">
        <ele>2020.6</ele>
        <time>2023-10-31T10:24:10Z</time>
      </trkpt>
      <trkpt lat="42.80752" lon="-0.03305">
        <ele>2020.7</ele>
        <time>2023-10-31T10:24:11Z</time>
      </trkpt>
      <trkpt lat="42.80752" lon="-0.03305">
        <ele>2020.8</ele>
        <time>2023-10-31T10:24:12Z</time>
      </trkpt>
      <trkpt lat="42.80752" lon="-0.03305">
        <ele>2020.9</ele>
        <time>2023-10-31T10:24:13Z</time>
      </trkpt>
      <trkpt lat="42.80752" lon="-0.03306">
        <ele>2021.1</ele>
        <time>2023-10-31T10:24:14Z</time>
      </trkpt>
      <trkpt lat="42.80752" lon="-0.03308">
        <ele>2021.4</ele>
        <time>2023-10-31T10:24:15Z</time>
      </trkpt>
      <trkpt lat="42.80752" lon="-0.03308">
        <ele>2021.6</ele>
        <time>2023-10-31T10:24:16Z</time>
      </trkpt>
      <trkpt lat="42.80751" lon="-0.03308">
        <ele>2021.7</ele>
        <time>2023-10-31T10:24:17Z</time>
      </trkpt>
      <trkpt lat="42.80751" lon="-0.03308">
        <ele>2021.9</ele>
        <time>2023-10-31T10:24:18Z</time>
      </trkpt>
      <trkpt lat="42.80751" lon="-0.03308">
        <ele>2022.1</ele>
        <time>2023-10-31T10:24:19Z</time>
      </trkpt>
      <trkpt lat="42.8075" lon="-0.03308">
        <ele>2022.2</ele>
        <time>2023-10-31T10:24:20Z</time>
      </trkpt>
      <trkpt lat="42.8075" lon="-0.03309">
        <ele>2022.4</ele>
        <time>2023-10-31T10:24:21Z</time>
      </trkpt>
      <trkpt lat="42.80749" lon="-0.03309">
        <ele>2022.7</ele>
        <time>2023-10-31T10:24:22Z</time>
      </trkpt>
      <trkpt lat="42.80749" lon="-0.0331">
        <ele>2022.8</ele>
        <time>2023-10-31T10:24:23Z</time>
      </trkpt>
      <trkpt lat="42.80749" lon="-0.03311">
        <ele>2023</ele>
        <time>2023-10-31T10:24:24Z</time>
      </trkpt>
      <trkpt lat="42.80749" lon="-0.03312">
        <ele>2023.4</ele>
        <time>2023-10-31T10:24:25Z</time>
      </trkpt>
      <trkpt lat="42.8075" lon="-0.03313">
        <ele>2023.6</ele>
        <time>2023-10-31T10:24:26Z</time>
      </trkpt>
      <trkpt lat="42.8075" lon="-0.03314">
        <ele>2023.8</ele>
        <time>2023-10-31T10:24:27Z</time>
      </trkpt>
      <trkpt lat="42.8075" lon="-0.03315">
        <ele>2024.2</ele>
        <time>2023-10-31T10:24:28Z</time>
      </trkpt>
      <trkpt lat="42.8075" lon="-0.03316">
        <ele>2024.3</ele>
        <time>2023-10-31T10:24:29Z</time>
      </trkpt>
      <trkpt lat="42.8075" lon="-0.03316">
        <ele>2024.5</ele>
        <time>2023-10-31T10:24:30Z</time>
      </trkpt>
      <trkpt lat="42.8075" lon="-0.03316">
        <ele>2024.5</ele>
        <time>2023-10-31T10:24:31Z</time>
      </trkpt>
      <trkpt lat="42.80751" lon="-0.03317">
        <ele>2024.6</ele>
        <time>2023-10-31T10:24:32Z</time>
      </trkpt>
      <trkpt lat="42.80751" lon="-0.03318">
        <ele>2024.8</ele>
        <time>2023-10-31T10:24:33Z</time>
      </trkpt>
      <trkpt lat="42.80751" lon="-0.03318">
        <ele>2025.1</ele>
        <time>2023-10-31T10:24:34Z</time>
      </trkpt>
      <trkpt lat="42.80751" lon="-0.03319">
        <ele>2025.1</ele>
        <time>2023-10-31T10:24:35Z</time>
      </trkpt>
      <trkpt lat="42.80751" lon="-0.03319">
        <ele>2025.2</ele>
        <time>2023-10-31T10:24:36Z</time>
      </trkpt>
      <trkpt lat="42.80752" lon="-0.03319">
        <ele>2025.4</ele>
        <time>2023-10-31T10:24:37Z</time>
      </trkpt>
      <trkpt lat="42.80752" lon="-0.03319">
        <ele>2025.4</ele>
        <time>2023-10-31T10:24:38Z</time>
      </trkpt>
      <trkpt lat="42.80752" lon="-0.03319">
        <ele>2025.6</ele>
        <time>2023-10-31T10:24:39Z</time>
      </trkpt>
      <trkpt lat="42.80752" lon="-0.0332">
        <ele>2025.6</ele>
        <time>2023-10-31T10:24:40Z</time>
      </trkpt>
      <trkpt lat="42.80752" lon="-0.0332">
        <ele>2025.8</ele>
        <time>2023-10-31T10:24:41Z</time>
      </trkpt>
      <trkpt lat="42.80752" lon="-0.03321">
        <ele>2025.9</ele>
        <time>2023-10-31T10:24:42Z</time>
      </trkpt>
      <trkpt lat="42.80753" lon="-0.03322">
        <ele>2026.3</ele>
        <time>2023-10-31T10:24:43Z</time>
      </trkpt>
      <trkpt lat="42.80753" lon="-0.03322">
        <ele>2026.5</ele>
        <time>2023-10-31T10:24:44Z</time>
      </trkpt>
      <trkpt lat="42.80753" lon="-0.03322">
        <ele>2026.6</ele>
        <time>2023-10-31T10:24:45Z</time>
      </trkpt>
      <trkpt lat="42.80754" lon="-0.03323">
        <ele>2026.8</ele>
        <time>2023-10-31T10:24:46Z</time>
      </trkpt>
      <trkpt lat="42.80754" lon="-0.03323">
        <ele>2026.9</ele>
        <time>2023-10-31T10:24:47Z</time>
      </trkpt>
      <trkpt lat="42.80754" lon="-0.03324">
        <ele>2027.1</ele>
        <time>2023-10-31T10:24:48Z</time>
      </trkpt>
      <trkpt lat="42.80754" lon="-0.03325">
        <ele>2027.3</ele>
        <time>2023-10-31T10:24:49Z</time>
      </trkpt>
      <trkpt lat="42.80754" lon="-0.03326">
        <ele>2027.6</ele>
        <time>2023-10-31T10:24:50Z</time>
      </trkpt>
      <trkpt lat="42.80754" lon="-0.03326">
        <ele>2027.7</ele>
        <time>2023-10-31T10:24:51Z</time>
      </trkpt>
      <trkpt lat="42.80753" lon="-0.03326">
        <ele>2027.8</ele>
        <time>2023-10-31T10:24:52Z</time>
      </trkpt>
      <trkpt lat="42.80753" lon="-0.03327">
        <ele>2027.9</ele>
        <time>2023-10-31T10:24:53Z</time>
      </trkpt>
      <trkpt lat="42.80753" lon="-0.03328">
        <ele>2028.2</ele>
        <time>2023-10-31T10:24:54Z</time>
      </trkpt>
      <trkpt lat="42.80753" lon="-0.03329">
        <ele>2028.3</ele>
        <time>2023-10-31T10:24:55Z</time>
      </trkpt>
      <trkpt lat="42.80754" lon="-0.03329">
        <ele>2028.5</ele>
        <time>2023-10-31T10:24:56Z</time>
      </trkpt>
      <trkpt lat="42.80754" lon="-0.0333">
        <ele>2028.7</ele>
        <time>2023-10-31T10:24:57Z</time>
      </trkpt>
      <trkpt lat="42.80755" lon="-0.0333">
        <ele>2028.9</ele>
        <time>2023-10-31T10:24:58Z</time>
      </trkpt>
      <trkpt lat="42.80755" lon="-0.03331">
        <ele>2029.1</ele>
        <time>2023-10-31T10:24:59Z</time>
      </trkpt>
      <trkpt lat="42.80755" lon="-0.03331">
        <ele>2029.2</ele>
        <time>2023-10-31T10:25:00Z</time>
      </trkpt>
      <trkpt lat="42.80756" lon="-0.03331">
        <ele>2029.3</ele>
        <time>2023-10-31T10:25:01Z</time>
      </trkpt>
      <trkpt lat="42.80756" lon="-0.03331">
        <ele>2029.5</ele>
        <time>2023-10-31T10:25:02Z</time>
      </trkpt>
      <trkpt lat="42.80756" lon="-0.03331">
        <ele>2029.6</ele>
        <time>2023-10-31T10:25:03Z</time>
      </trkpt>
      <trkpt lat="42.80756" lon="-0.03331">
        <ele>2029.6</ele>
        <time>2023-10-31T10:25:04Z</time>
      </trkpt>
      <trkpt lat="42.80756" lon="-0.03332">
        <ele>2029.8</ele>
        <time>2023-10-31T10:25:05Z</time>
      </trkpt>
      <trkpt lat="42.80756" lon="-0.03332">
        <ele>2030</ele>
        <time>2023-10-31T10:25:06Z</time>
      </trkpt>
      <trkpt lat="42.80755" lon="-0.03333">
        <ele>2030.2</ele>
        <time>2023-10-31T10:25:07Z</time>
      </trkpt>
      <trkpt lat="42.80755" lon="-0.03333">
        <ele>2030.3</ele>
        <time>2023-10-31T10:25:08Z</time>
      </trkpt>
      <trkpt lat="42.80755" lon="-0.03333">
        <ele>2030.5</ele>
        <time>2023-10-31T10:25:09Z</time>
      </trkpt>
      <trkpt lat="42.80754" lon="-0.03334">
        <ele>2030.6</ele>
        <time>2023-10-31T10:25:10Z</time>
      </trkpt>
      <trkpt lat="42.80754" lon="-0.03334">
        <ele>2030.8</ele>
        <time>2023-10-31T10:25:11Z</time>
      </trkpt>
      <trkpt lat="42.80754" lon="-0.03335">
        <ele>2030.9</ele>
        <time>2023-10-31T10:25:12Z</time>
      </trkpt>
      <trkpt lat="42.80753" lon="-0.03335">
        <ele>2031.1</ele>
        <time>2023-10-31T10:25:13Z</time>
      </trkpt>
      <trkpt lat="42.80753" lon="-0.03336">
        <ele>2031.2</ele>
        <time>2023-10-31T10:25:14Z</time>
      </trkpt>
      <trkpt lat="42.80754" lon="-0.03336">
        <ele>2031.5</ele>
        <time>2023-10-31T10:25:15Z</time>
      </trkpt>
      <trkpt lat="42.80754" lon="-0.03337">
        <ele>2031.7</ele>
        <time>2023-10-31T10:25:16Z</time>
      </trkpt>
      <trkpt lat="42.80755" lon="-0.03337">
        <ele>2031.9</ele>
        <time>2023-10-31T10:25:17Z</time>
      </trkpt>
      <trkpt lat="42.80755" lon="-0.03337">
        <ele>2032</ele>
        <time>2023-10-31T10:25:18Z</time>
      </trkpt>
      <trkpt lat="42.80755" lon="-0.03337">
        <ele>2032.1</ele>
        <time>2023-10-31T10:25:19Z</time>
      </trkpt>
      <trkpt lat="42.80755" lon="-0.03337">
        <ele>2032.2</ele>
        <time>2023-10-31T10:25:20Z</time>
      </trkpt>
      <trkpt lat="42.80756" lon="-0.03338">
        <ele>2032.5</ele>
        <time>2023-10-31T10:25:21Z</time>
      </trkpt>
      <trkpt lat="42.80757" lon="-0.03337">
        <ele>2032.8</ele>
        <time>2023-10-31T10:25:22Z</time>
      </trkpt>
      <trkpt lat="42.80757" lon="-0.03338">
        <ele>2032.9</ele>
        <time>2023-10-31T10:25:23Z</time>
      </trkpt>
      <trkpt lat="42.80757" lon="-0.03338">
        <ele>2032.9</ele>
        <time>2023-10-31T10:25:24Z</time>
      </trkpt>
      <trkpt lat="42.80757" lon="-0.03338">
        <ele>2033.1</ele>
        <time>2023-10-31T10:25:25Z</time>
      </trkpt>
      <trkpt lat="42.80758" lon="-0.03339">
        <ele>2033.4</ele>
        <time>2023-10-31T10:25:26Z</time>
      </trkpt>
      <trkpt lat="42.80758" lon="-0.03339">
        <ele>2033.5</ele>
        <time>2023-10-31T10:25:27Z</time>
      </trkpt>
      <trkpt lat="42.80759" lon="-0.0334">
        <ele>2033.7</ele>
        <time>2023-10-31T10:25:28Z</time>
      </trkpt>
      <trkpt lat="42.80759" lon="-0.0334">
        <ele>2033.8</ele>
        <time>2023-10-31T10:25:29Z</time>
      </trkpt>
      <trkpt lat="42.80759" lon="-0.0334">
        <ele>2033.9</ele>
        <time>2023-10-31T10:25:30Z</time>
      </trkpt>
      <trkpt lat="42.80759" lon="-0.0334">
        <ele>2034</ele>
        <time>2023-10-31T10:25:31Z</time>
      </trkpt>
      <trkpt lat="42.80759" lon="-0.0334">
        <ele>2034.1</ele>
        <time>2023-10-31T10:25:32Z</time>
      </trkpt>
      <trkpt lat="42.8076" lon="-0.03341">
        <ele>2034.2</ele>
        <time>2023-10-31T10:25:33Z</time>
      </trkpt>
      <trkpt lat="42.8076" lon="-0.03341">
        <ele>2034.3</ele>
        <time>2023-10-31T10:25:34Z</time>
      </trkpt>
      <trkpt lat="42.8076" lon="-0.03341">
        <ele>2034.4</ele>
        <time>2023-10-31T10:25:35Z</time>
      </trkpt>
      <trkpt lat="42.80761" lon="-0.03341">
        <ele>2034.7</ele>
        <time>2023-10-31T10:25:36Z</time>
      </trkpt>
      <trkpt lat="42.80762" lon="-0.03342">
        <ele>2034.9</ele>
        <time>2023-10-31T10:25:37Z</time>
      </trkpt>
      <trkpt lat="42.80762" lon="-0.03342">
        <ele>2035</ele>
        <time>2023-10-31T10:25:38Z</time>
      </trkpt>
      <trkpt lat="42.80762" lon="-0.03342">
        <ele>2035.2</ele>
        <time>2023-10-31T10:25:39Z</time>
      </trkpt>
      <trkpt lat="42.80762" lon="-0.03343">
        <ele>2035.3</ele>
        <time>2023-10-31T10:25:40Z</time>
      </trkpt>
      <trkpt lat="42.80763" lon="-0.03343">
        <ele>2035.5</ele>
        <time>2023-10-31T10:25:41Z</time>
      </trkpt>
      <trkpt lat="42.80763" lon="-0.03344">
        <ele>2035.6</ele>
        <time>2023-10-31T10:25:42Z</time>
      </trkpt>
      <trkpt lat="42.80763" lon="-0.03344">
        <ele>2035.7</ele>
        <time>2023-10-31T10:25:43Z</time>
      </trkpt>
      <trkpt lat="42.80764" lon="-0.03344">
        <ele>2035.9</ele>
        <time>2023-10-31T10:25:44Z</time>
      </trkpt>
      <trkpt lat="42.80764" lon="-0.03344">
        <ele>2036</ele>
        <time>2023-10-31T10:25:45Z</time>
      </trkpt>
      <trkpt lat="42.80764" lon="-0.03345">
        <ele>2036.1</ele>
        <time>2023-10-31T10:25:46Z</time>
      </trkpt>
      <trkpt lat="42.80764" lon="-0.03345">
        <ele>2036.1</ele>
        <time>2023-10-31T10:25:47Z</time>
      </trkpt>
      <trkpt lat="42.80765" lon="-0.03345">
        <ele>2036.3</ele>
        <time>2023-10-31T10:25:48Z</time>
      </trkpt>
      <trkpt lat="42.80765" lon="-0.03345">
        <ele>2036.5</ele>
        <time>2023-10-31T10:25:49Z</time>
      </trkpt>
      <trkpt lat="42.80765" lon="-0.03346">
        <ele>2036.7</ele>
        <time>2023-10-31T10:25:50Z</time>
      </trkpt>
      <trkpt lat="42.80765" lon="-0.03346">
        <ele>2036.8</ele>
        <time>2023-10-31T10:25:51Z</time>
      </trkpt>
      <trkpt lat="42.80765" lon="-0.03346">
        <ele>2037</ele>
        <time>2023-10-31T10:25:52Z</time>
      </trkpt>
      <trkpt lat="42.80765" lon="-0.03347">
        <ele>2037.1</ele>
        <time>2023-10-31T10:25:53Z</time>
      </trkpt>
      <trkpt lat="42.80765" lon="-0.03347">
        <ele>2037.2</ele>
        <time>2023-10-31T10:25:54Z</time>
      </trkpt>
      <trkpt lat="42.80765" lon="-0.03347">
        <ele>2037.3</ele>
        <time>2023-10-31T10:25:55Z</time>
      </trkpt>
      <trkpt lat="42.80766" lon="-0.03348">
        <ele>2037.4</ele>
        <time>2023-10-31T10:25:56Z</time>
      </trkpt>
      <trkpt lat="42.80766" lon="-0.03348">
        <ele>2037.6</ele>
        <time>2023-10-31T10:25:57Z</time>
      </trkpt>
      <trkpt lat="42.80766" lon="-0.03348">
        <ele>2037.8</ele>
        <time>2023-10-31T10:25:58Z</time>
      </trkpt>
      <trkpt lat="42.80766" lon="-0.03348">
        <ele>2037.8</ele>
        <time>2023-10-31T10:25:59Z</time>
      </trkpt>
      <trkpt lat="42.80766" lon="-0.03349">
        <ele>2038</ele>
        <time>2023-10-31T10:26:00Z</time>
      </trkpt>
      <trkpt lat="42.80766" lon="-0.03349">
        <ele>2038.2</ele>
        <time>2023-10-31T10:26:01Z</time>
      </trkpt>
      <trkpt lat="42.80766" lon="-0.03349">
        <ele>2038.3</ele>
        <time>2023-10-31T10:26:02Z</time>
      </trkpt>
      <trkpt lat="42.80766" lon="-0.0335">
        <ele>2038.4</ele>
        <time>2023-10-31T10:26:03Z</time>
      </trkpt>
      <trkpt lat="42.80766" lon="-0.0335">
        <ele>2038.4</ele>
        <time>2023-10-31T10:26:04Z</time>
      </trkpt>
      <trkpt lat="42.80767" lon="-0.0335">
        <ele>2038.6</ele>
        <time>2023-10-31T10:26:05Z</time>
      </trkpt>
      <trkpt lat="42.80767" lon="-0.03351">
        <ele>2038.8</ele>
        <time>2023-10-31T10:26:06Z</time>
      </trkpt>
      <trkpt lat="42.80767" lon="-0.0335">
        <ele>2038.9</ele>
        <time>2023-10-31T10:26:07Z</time>
      </trkpt>
      <trkpt lat="42.80767" lon="-0.0335">
        <ele>2039</ele>
        <time>2023-10-31T10:26:08Z</time>
      </trkpt>
      <trkpt lat="42.80768" lon="-0.0335">
        <ele>2039.1</ele>
        <time>2023-10-31T10:26:09Z</time>
      </trkpt>
      <trkpt lat="42.80769" lon="-0.0335">
        <ele>2039.4</ele>
        <time>2023-10-31T10:26:10Z</time>
      </trkpt>
      <trkpt lat="42.80769" lon="-0.03351">
        <ele>2039.5</ele>
        <time>2023-10-31T10:26:11Z</time>
      </trkpt>
      <trkpt lat="42.80769" lon="-0.03351">
        <ele>2039.6</ele>
        <time>2023-10-31T10:26:12Z</time>
      </trkpt>
      <trkpt lat="42.80769" lon="-0.03351">
        <ele>2039.8</ele>
        <time>2023-10-31T10:26:13Z</time>
      </trkpt>
      <trkpt lat="42.80769" lon="-0.03351">
        <ele>2039.8</ele>
        <time>2023-10-31T10:26:14Z</time>
      </trkpt>
      <trkpt lat="42.8077" lon="-0.03351">
        <ele>2039.9</ele>
        <time>2023-10-31T10:26:15Z</time>
      </trkpt>
      <trkpt lat="42.8077" lon="-0.03351">
        <ele>2040</ele>
        <time>2023-10-31T10:26:16Z</time>
      </trkpt>
      <trkpt lat="42.8077" lon="-0.03351">
        <ele>2040.2</ele>
        <time>2023-10-31T10:26:17Z</time>
      </trkpt>
      <trkpt lat="42.80771" lon="-0.03352">
        <ele>2040.3</ele>
        <time>2023-10-31T10:26:18Z</time>
      </trkpt>
      <trkpt lat="42.80771" lon="-0.03351">
        <ele>2040.5</ele>
        <time>2023-10-31T10:26:19Z</time>
      </trkpt>
      <trkpt lat="42.80772" lon="-0.03352">
        <ele>2040.6</ele>
        <time>2023-10-31T10:26:20Z</time>
      </trkpt>
      <trkpt lat="42.80772" lon="-0.03353">
        <ele>2040.9</ele>
        <time>2023-10-31T10:26:21Z</time>
      </trkpt>
      <trkpt lat="42.80773" lon="-0.03353">
        <ele>2041</ele>
        <time>2023-10-31T10:26:22Z</time>
      </trkpt>
      <trkpt lat="42.80773" lon="-0.03353">
        <ele>2041</ele>
        <time>2023-10-31T10:26:23Z</time>
      </trkpt>
      <trkpt lat="42.80774" lon="-0.03353">
        <ele>2041.3</ele>
        <time>2023-10-31T10:26:24Z</time>
      </trkpt>
      <trkpt lat="42.80774" lon="-0.03353">
        <ele>2041.4</ele>
        <time>2023-10-31T10:26:25Z</time>
      </trkpt>
      <trkpt lat="42.80774" lon="-0.03354">
        <ele>2041.5</ele>
        <time>2023-10-31T10:26:26Z</time>
      </trkpt>
      <trkpt lat="42.80774" lon="-0.03354">
        <ele>2041.6</ele>
        <time>2023-10-31T10:26:27Z</time>
      </trkpt>
      <trkpt lat="42.80774" lon="-0.03354">
        <ele>2041.7</ele>
        <time>2023-10-31T10:26:28Z</time>
      </trkpt>
      <trkpt lat="42.80774" lon="-0.03354">
        <ele>2041.8</ele>
        <time>2023-10-31T10:26:29Z</time>
      </trkpt>
      <trkpt lat="42.80774" lon="-0.03354">
        <ele>2041.9</ele>
        <time>2023-10-31T10:26:30Z</time>
      </trkpt>
      <trkpt lat="42.80774" lon="-0.03355">
        <ele>2041.9</ele>
        <time>2023-10-31T10:26:31Z</time>
      </trkpt>
      <trkpt lat="42.80774" lon="-0.03355">
        <ele>2042.1</ele>
        <time>2023-10-31T10:26:32Z</time>
      </trkpt>
      <trkpt lat="42.80774" lon="-0.03355">
        <ele>2042.2</ele>
        <time>2023-10-31T10:26:33Z</time>
      </trkpt>
      <trkpt lat="42.80773" lon="-0.03355">
        <ele>2042.3</ele>
        <time>2023-10-31T10:26:34Z</time>
      </trkpt>
      <trkpt lat="42.80773" lon="-0.03356">
        <ele>2042.4</ele>
        <time>2023-10-31T10:26:35Z</time>
      </trkpt>
      <trkpt lat="42.80773" lon="-0.03356">
        <ele>2042.5</ele>
        <time>2023-10-31T10:26:36Z</time>
      </trkpt>
      <trkpt lat="42.80773" lon="-0.03357">
        <ele>2042.6</ele>
        <time>2023-10-31T10:26:37Z</time>
      </trkpt>
      <trkpt lat="42.80773" lon="-0.03356">
        <ele>2042.7</ele>
        <time>2023-10-31T10:26:38Z</time>
      </trkpt>
      <trkpt lat="42.80772" lon="-0.03357">
        <ele>2042.9</ele>
        <time>2023-10-31T10:26:39Z</time>
      </trkpt>
      <trkpt lat="42.80772" lon="-0.03357">
        <ele>2043</ele>
        <time>2023-10-31T10:26:40Z</time>
      </trkpt>
      <trkpt lat="42.80772" lon="-0.03358">
        <ele>2043.1</ele>
        <time>2023-10-31T10:26:41Z</time>
      </trkpt>
      <trkpt lat="42.80771" lon="-0.03357">
        <ele>2043.3</ele>
        <time>2023-10-31T10:26:42Z</time>
      </trkpt>
      <trkpt lat="42.80771" lon="-0.03357">
        <ele>2043.4</ele>
        <time>2023-10-31T10:26:43Z</time>
      </trkpt>
      <trkpt lat="42.8077" lon="-0.03357">
        <ele>2043.6</ele>
        <time>2023-10-31T10:26:44Z</time>
      </trkpt>
      <trkpt lat="42.80771" lon="-0.03358">
        <ele>2043.8</ele>
        <time>2023-10-31T10:26:45Z</time>
      </trkpt>
      <trkpt lat="42.8077" lon="-0.03358">
        <ele>2043.9</ele>
        <time>2023-10-31T10:26:46Z</time>
      </trkpt>
      <trkpt lat="42.8077" lon="-0.03358">
        <ele>2044</ele>
        <time>2023-10-31T10:26:47Z</time>
      </trkpt>
      <trkpt lat="42.80769" lon="-0.03358">
        <ele>2044.1</ele>
        <time>2023-10-31T10:26:48Z</time>
      </trkpt>
      <trkpt lat="42.80769" lon="-0.03359">
        <ele>2044.2</ele>
        <time>2023-10-31T10:26:49Z</time>
      </trkpt>
      <trkpt lat="42.80769" lon="-0.03359">
        <ele>2044.4</ele>
        <time>2023-10-31T10:26:50Z</time>
      </trkpt>
      <trkpt lat="42.80768" lon="-0.03359">
        <ele>2044.5</ele>
        <time>2023-10-31T10:26:51Z</time>
      </trkpt>
      <trkpt lat="42.80768" lon="-0.0336">
        <ele>2044.7</ele>
        <time>2023-10-31T10:26:52Z</time>
      </trkpt>
      <trkpt lat="42.80767" lon="-0.0336">
        <ele>2044.9</ele>
        <time>2023-10-31T10:26:53Z</time>
      </trkpt>
      <trkpt lat="42.80767" lon="-0.03361">
        <ele>2045.1</ele>
        <time>2023-10-31T10:26:54Z</time>
      </trkpt>
      <trkpt lat="42.80766" lon="-0.03361">
        <ele>2045.3</ele>
        <time>2023-10-31T10:26:55Z</time>
      </trkpt>
      <trkpt lat="42.80766" lon="-0.03362">
        <ele>2045.4</ele>
        <time>2023-10-31T10:26:56Z</time>
      </trkpt>
      <trkpt lat="42.80766" lon="-0.03362">
        <ele>2045.6</ele>
        <time>2023-10-31T10:26:57Z</time>
      </trkpt>
      <trkpt lat="42.80765" lon="-0.03363">
        <ele>2045.7</ele>
        <time>2023-10-31T10:26:58Z</time>
      </trkpt>
      <trkpt lat="42.80765" lon="-0.03363">
        <ele>2045.8</ele>
        <time>2023-10-31T10:26:59Z</time>
      </trkpt>
      <trkpt lat="42.80765" lon="-0.03364">
        <ele>2046</ele>
        <time>2023-10-31T10:27:00Z</time>
      </trkpt>
      <trkpt lat="42.80764" lon="-0.03364">
        <ele>2046.3</ele>
        <time>2023-10-31T10:27:01Z</time>
      </trkpt>
      <trkpt lat="42.80763" lon="-0.03365">
        <ele>2046.6</ele>
        <time>2023-10-31T10:27:02Z</time>
      </trkpt>
      <trkpt lat="42.80763" lon="-0.03365">
        <ele>2046.7</ele>
        <time>2023-10-31T10:27:03Z</time>
      </trkpt>
      <trkpt lat="42.80763" lon="-0.03365">
        <ele>2046.8</ele>
        <time>2023-10-31T10:27:04Z</time>
      </trkpt>
      <trkpt lat="42.80763" lon="-0.03366">
        <ele>2046.9</ele>
        <time>2023-10-31T10:27:05Z</time>
      </trkpt>
      <trkpt lat="42.80763" lon="-0.03366">
        <ele>2047</ele>
        <time>2023-10-31T10:27:06Z</time>
      </trkpt>
      <trkpt lat="42.80763" lon="-0.03366">
        <ele>2047.1</ele>
        <time>2023-10-31T10:27:07Z</time>
      </trkpt>
      <trkpt lat="42.80762" lon="-0.03367">
        <ele>2047.3</ele>
        <time>2023-10-31T10:27:08Z</time>
      </trkpt>
      <trkpt lat="42.80762" lon="-0.03366">
        <ele>2047.4</ele>
        <time>2023-10-31T10:27:09Z</time>
      </trkpt>
      <trkpt lat="42.80762" lon="-0.03367">
        <ele>2047.5</ele>
        <time>2023-10-31T10:27:10Z</time>
      </trkpt>
      <trkpt lat="42.80761" lon="-0.03368">
        <ele>2047.7</ele>
        <time>2023-10-31T10:27:11Z</time>
      </trkpt>
      <trkpt lat="42.80761" lon="-0.03368">
        <ele>2047.8</ele>
        <time>2023-10-31T10:27:12Z</time>
      </trkpt>
      <trkpt lat="42.8076" lon="-0.03369">
        <ele>2048.1</ele>
        <time>2023-10-31T10:27:13Z</time>
      </trkpt>
      <trkpt lat="42.8076" lon="-0.03369">
        <ele>2048.2</ele>
        <time>2023-10-31T10:27:14Z</time>
      </trkpt>
      <trkpt lat="42.80759" lon="-0.0337">
        <ele>2048.4</ele>
        <time>2023-10-31T10:27:15Z</time>
      </trkpt>
      <trkpt lat="42.80759" lon="-0.0337">
        <ele>2048.6</ele>
        <time>2023-10-31T10:27:16Z</time>
      </trkpt>
      <trkpt lat="42.80759" lon="-0.03371">
        <ele>2048.6</ele>
        <time>2023-10-31T10:27:17Z</time>
      </trkpt>
      <trkpt lat="42.80759" lon="-0.03371">
        <ele>2048.8</ele>
        <time>2023-10-31T10:27:18Z</time>
      </trkpt>
      <trkpt lat="42.80759" lon="-0.03372">
        <ele>2049</ele>
        <time>2023-10-31T10:27:19Z</time>
      </trkpt>
      <trkpt lat="42.80759" lon="-0.03373">
        <ele>2049.1</ele>
        <time>2023-10-31T10:27:20Z</time>
      </trkpt>
      <trkpt lat="42.80759" lon="-0.03374">
        <ele>2049.2</ele>
        <time>2023-10-31T10:27:21Z</time>
      </trkpt>
      <trkpt lat="42.80759" lon="-0.03374">
        <ele>2049.3</ele>
        <time>2023-10-31T10:27:22Z</time>
      </trkpt>
      <trkpt lat="42.80759" lon="-0.03374">
        <ele>2049.4</ele>
        <time>2023-10-31T10:27:23Z</time>
      </trkpt>
      <trkpt lat="42.80759" lon="-0.03374">
        <ele>2049.4</ele>
        <time>2023-10-31T10:27:24Z</time>
      </trkpt>
      <trkpt lat="42.80759" lon="-0.03376">
        <ele>2049.7</ele>
        <time>2023-10-31T10:27:25Z</time>
      </trkpt>
      <trkpt lat="42.80759" lon="-0.03376">
        <ele>2049.8</ele>
        <time>2023-10-31T10:27:26Z</time>
      </trkpt>
      <trkpt lat="42.80758" lon="-0.03377">
        <ele>2050</ele>
        <time>2023-10-31T10:27:27Z</time>
      </trkpt>
      <trkpt lat="42.80758" lon="-0.03378">
        <ele>2050.1</ele>
        <time>2023-10-31T10:27:28Z</time>
      </trkpt>
      <trkpt lat="42.80758" lon="-0.03378">
        <ele>2050.2</ele>
        <time>2023-10-31T10:27:29Z</time>
      </trkpt>
      <trkpt lat="42.80759" lon="-0.03378">
        <ele>2050.3</ele>
        <time>2023-10-31T10:27:30Z</time>
      </trkpt>
      <trkpt lat="42.80759" lon="-0.03379">
        <ele>2050.5</ele>
        <time>2023-10-31T10:27:31Z</time>
      </trkpt>
      <trkpt lat="42.8076" lon="-0.03379">
        <ele>2050.6</ele>
        <time>2023-10-31T10:27:32Z</time>
      </trkpt>
      <trkpt lat="42.8076" lon="-0.03379">
        <ele>2050.6</ele>
        <time>2023-10-31T10:27:33Z</time>
      </trkpt>
      <trkpt lat="42.8076" lon="-0.0338">
        <ele>2050.7</ele>
        <time>2023-10-31T10:27:34Z</time>
      </trkpt>
      <trkpt lat="42.8076" lon="-0.0338">
        <ele>2050.8</ele>
        <time>2023-10-31T10:27:35Z</time>
      </trkpt>
      <trkpt lat="42.8076" lon="-0.0338">
        <ele>2051</ele>
        <time>2023-10-31T10:27:36Z</time>
      </trkpt>
      <trkpt lat="42.8076" lon="-0.0338">
        <ele>2051</ele>
        <time>2023-10-31T10:27:37Z</time>
      </trkpt>
      <trkpt lat="42.8076" lon="-0.03381">
        <ele>2051.2</ele>
        <time>2023-10-31T10:27:38Z</time>
      </trkpt>
      <trkpt lat="42.8076" lon="-0.03381">
        <ele>2051.2</ele>
        <time>2023-10-31T10:27:39Z</time>
      </trkpt>
      <trkpt lat="42.8076" lon="-0.03382">
        <ele>2051.4</ele>
        <time>2023-10-31T10:27:40Z</time>
      </trkpt>
      <trkpt lat="42.8076" lon="-0.03383">
        <ele>2051.5</ele>
        <time>2023-10-31T10:27:41Z</time>
      </trkpt>
      <trkpt lat="42.8076" lon="-0.03384">
        <ele>2051.6</ele>
        <time>2023-10-31T10:27:42Z</time>
      </trkpt>
      <trkpt lat="42.80761" lon="-0.03385">
        <ele>2051.8</ele>
        <time>2023-10-31T10:27:43Z</time>
      </trkpt>
      <trkpt lat="42.80762" lon="-0.03385">
        <ele>2052.1</ele>
        <time>2023-10-31T10:27:44Z</time>
      </trkpt>
      <trkpt lat="42.80762" lon="-0.03385">
        <ele>2052.2</ele>
        <time>2023-10-31T10:27:46Z</time>
      </trkpt>
      <trkpt lat="42.80763" lon="-0.03385">
        <ele>2052.3</ele>
        <time>2023-10-31T10:27:47Z</time>
      </trkpt>
      <trkpt lat="42.80763" lon="-0.03385">
        <ele>2052.4</ele>
        <time>2023-10-31T10:27:48Z</time>
      </trkpt>
      <trkpt lat="42.80764" lon="-0.03386">
        <ele>2052.6</ele>
        <time>2023-10-31T10:27:49Z</time>
      </trkpt>
      <trkpt lat="42.80764" lon="-0.03386">
        <ele>2052.6</ele>
        <time>2023-10-31T10:27:50Z</time>
      </trkpt>
      <trkpt lat="42.80763" lon="-0.03386">
        <ele>2052.7</ele>
        <time>2023-10-31T10:27:51Z</time>
      </trkpt>
      <trkpt lat="42.80763" lon="-0.03387">
        <ele>2052.7</ele>
        <time>2023-10-31T10:27:52Z</time>
      </trkpt>
      <trkpt lat="42.80764" lon="-0.03387">
        <ele>2052.8</ele>
        <time>2023-10-31T10:27:53Z</time>
      </trkpt>
      <trkpt lat="42.80764" lon="-0.03387">
        <ele>2052.9</ele>
        <time>2023-10-31T10:27:54Z</time>
      </trkpt>
      <trkpt lat="42.80764" lon="-0.03389">
        <ele>2053.1</ele>
        <time>2023-10-31T10:27:55Z</time>
      </trkpt>
      <trkpt lat="42.80765" lon="-0.03391">
        <ele>2053.4</ele>
        <time>2023-10-31T10:27:56Z</time>
      </trkpt>
      <trkpt lat="42.80765" lon="-0.03392">
        <ele>2053.6</ele>
        <time>2023-10-31T10:27:57Z</time>
      </trkpt>
      <trkpt lat="42.80766" lon="-0.03393">
        <ele>2053.9</ele>
        <time>2023-10-31T10:27:58Z</time>
      </trkpt>
      <trkpt lat="42.80766" lon="-0.03393">
        <ele>2053.9</ele>
        <time>2023-10-31T10:27:59Z</time>
      </trkpt>
      <trkpt lat="42.80766" lon="-0.03394">
        <ele>2054.1</ele>
        <time>2023-10-31T10:28:00Z</time>
      </trkpt>
      <trkpt lat="42.80767" lon="-0.03398">
        <ele>2054.7</ele>
        <time>2023-10-31T10:28:01Z</time>
      </trkpt>
      <trkpt lat="42.80766" lon="-0.03399">
        <ele>2054.9</ele>
        <time>2023-10-31T10:28:02Z</time>
      </trkpt>
      <trkpt lat="42.80766" lon="-0.03401">
        <ele>2055.1</ele>
        <time>2023-10-31T10:28:03Z</time>
      </trkpt>
      <trkpt lat="42.80767" lon="-0.03402">
        <ele>2055.4</ele>
        <time>2023-10-31T10:28:04Z</time>
      </trkpt>
      <trkpt lat="42.80768" lon="-0.03402">
        <ele>2055.5</ele>
        <time>2023-10-31T10:28:05Z</time>
      </trkpt>
      <trkpt lat="42.80768" lon="-0.03403">
        <ele>2055.6</ele>
        <time>2023-10-31T10:28:06Z</time>
      </trkpt>
      <trkpt lat="42.80769" lon="-0.03403">
        <ele>2055.7</ele>
        <time>2023-10-31T10:28:07Z</time>
      </trkpt>
      <trkpt lat="42.80769" lon="-0.03404">
        <ele>2055.8</ele>
        <time>2023-10-31T10:28:08Z</time>
      </trkpt>
      <trkpt lat="42.80769" lon="-0.03404">
        <ele>2055.9</ele>
        <time>2023-10-31T10:28:09Z</time>
      </trkpt>
      <trkpt lat="42.80769" lon="-0.03404">
        <ele>2056</ele>
        <time>2023-10-31T10:28:10Z</time>
      </trkpt>
      <trkpt lat="42.80769" lon="-0.03405">
        <ele>2056.1</ele>
        <time>2023-10-31T10:28:11Z</time>
      </trkpt>
      <trkpt lat="42.80769" lon="-0.03406">
        <ele>2056.2</ele>
        <time>2023-10-31T10:28:12Z</time>
      </trkpt>
      <trkpt lat="42.80769" lon="-0.03406">
        <ele>2056.3</ele>
        <time>2023-10-31T10:28:13Z</time>
      </trkpt>
      <trkpt lat="42.8077" lon="-0.03407">
        <ele>2056.4</ele>
        <time>2023-10-31T10:28:14Z</time>
      </trkpt>
      <trkpt lat="42.8077" lon="-0.03408">
        <ele>2056.6</ele>
        <time>2023-10-31T10:28:15Z</time>
      </trkpt>
      <trkpt lat="42.8077" lon="-0.03408">
        <ele>2056.6</ele>
        <time>2023-10-31T10:28:16Z</time>
      </trkpt>
      <trkpt lat="42.80771" lon="-0.03408">
        <ele>2056.7</ele>
        <time>2023-10-31T10:28:17Z</time>
      </trkpt>
      <trkpt lat="42.80771" lon="-0.03408">
        <ele>2056.8</ele>
        <time>2023-10-31T10:28:18Z</time>
      </trkpt>
      <trkpt lat="42.80772" lon="-0.03409">
        <ele>2056.9</ele>
        <time>2023-10-31T10:28:19Z</time>
      </trkpt>
      <trkpt lat="42.80772" lon="-0.0341">
        <ele>2057</ele>
        <time>2023-10-31T10:28:20Z</time>
      </trkpt>
      <trkpt lat="42.80772" lon="-0.0341">
        <ele>2057.1</ele>
        <time>2023-10-31T10:28:21Z</time>
      </trkpt>
      <trkpt lat="42.80772" lon="-0.03411">
        <ele>2057.2</ele>
        <time>2023-10-31T10:28:22Z</time>
      </trkpt>
      <trkpt lat="42.80772" lon="-0.03412">
        <ele>2057.3</ele>
        <time>2023-10-31T10:28:23Z</time>
      </trkpt>
      <trkpt lat="42.80772" lon="-0.03413">
        <ele>2057.5</ele>
        <time>2023-10-31T10:28:24Z</time>
      </trkpt>
      <trkpt lat="42.80772" lon="-0.03414">
        <ele>2057.5</ele>
        <time>2023-10-31T10:28:25Z</time>
      </trkpt>
      <trkpt lat="42.80772" lon="-0.03414">
        <ele>2057.6</ele>
        <time>2023-10-31T10:28:26Z</time>
      </trkpt>
      <trkpt lat="42.80772" lon="-0.03415">
        <ele>2057.6</ele>
        <time>2023-10-31T10:28:27Z</time>
      </trkpt>
      <trkpt lat="42.80772" lon="-0.03416">
        <ele>2057.7</ele>
        <time>2023-10-31T10:28:28Z</time>
      </trkpt>
      <trkpt lat="42.80773" lon="-0.03416">
        <ele>2057.8</ele>
        <time>2023-10-31T10:28:29Z</time>
      </trkpt>
      <trkpt lat="42.80773" lon="-0.03417">
        <ele>2057.9</ele>
        <time>2023-10-31T10:28:30Z</time>
      </trkpt>
      <trkpt lat="42.80773" lon="-0.03418">
        <ele>2057.9</ele>
        <time>2023-10-31T10:28:31Z</time>
      </trkpt>
      <trkpt lat="42.80773" lon="-0.03418">
        <ele>2058</ele>
        <time>2023-10-31T10:28:32Z</time>
      </trkpt>
      <trkpt lat="42.80773" lon="-0.03418">
        <ele>2058</ele>
        <time>2023-10-31T10:28:33Z</time>
      </trkpt>
      <trkpt lat="42.80773" lon="-0.03418">
        <ele>2058</ele>
        <time>2023-10-31T10:28:34Z</time>
      </trkpt>
      <trkpt lat="42.80773" lon="-0.03419">
        <ele>2058.1</ele>
        <time>2023-10-31T10:28:35Z</time>
      </trkpt>
      <trkpt lat="42.80772" lon="-0.0342">
        <ele>2058.2</ele>
        <time>2023-10-31T10:28:36Z</time>
      </trkpt>
      <trkpt lat="42.80772" lon="-0.0342">
        <ele>2058.3</ele>
        <time>2023-10-31T10:28:37Z</time>
      </trkpt>
      <trkpt lat="42.80773" lon="-0.03421">
        <ele>2058.3</ele>
        <time>2023-10-31T10:28:38Z</time>
      </trkpt>
      <trkpt lat="42.80773" lon="-0.03422">
        <ele>2058.4</ele>
        <time>2023-10-31T10:28:39Z</time>
      </trkpt>
      <trkpt lat="42.80773" lon="-0.03423">
        <ele>2058.5</ele>
        <time>2023-10-31T10:28:40Z</time>
      </trkpt>
      <trkpt lat="42.80773" lon="-0.03423">
        <ele>2058.5</ele>
        <time>2023-10-31T10:28:41Z</time>
      </trkpt>
      <trkpt lat="42.80773" lon="-0.03423">
        <ele>2058.6</ele>
        <time>2023-10-31T10:28:42Z</time>
      </trkpt>
      <trkpt lat="42.80772" lon="-0.03425">
        <ele>2058.7</ele>
        <time>2023-10-31T10:28:43Z</time>
      </trkpt>
      <trkpt lat="42.80772" lon="-0.03426">
        <ele>2058.7</ele>
        <time>2023-10-31T10:28:44Z</time>
      </trkpt>
      <trkpt lat="42.80773" lon="-0.03426">
        <ele>2058.8</ele>
        <time>2023-10-31T10:28:45Z</time>
      </trkpt>
      <trkpt lat="42.80773" lon="-0.03427">
        <ele>2058.9</ele>
        <time>2023-10-31T10:28:46Z</time>
      </trkpt>
      <trkpt lat="42.80774" lon="-0.03428">
        <ele>2059</ele>
        <time>2023-10-31T10:28:47Z</time>
      </trkpt>
      <trkpt lat="42.80774" lon="-0.03429">
        <ele>2059.1</ele>
        <time>2023-10-31T10:28:48Z</time>
      </trkpt>
      <trkpt lat="42.80775" lon="-0.0343">
        <ele>2059.1</ele>
        <time>2023-10-31T10:28:49Z</time>
      </trkpt>
      <trkpt lat="42.80775" lon="-0.0343">
        <ele>2059.2</ele>
        <time>2023-10-31T10:28:50Z</time>
      </trkpt>
      <trkpt lat="42.80776" lon="-0.03431">
        <ele>2059.3</ele>
        <time>2023-10-31T10:28:51Z</time>
      </trkpt>
      <trkpt lat="42.80775" lon="-0.03433">
        <ele>2059.4</ele>
        <time>2023-10-31T10:28:52Z</time>
      </trkpt>
      <trkpt lat="42.80775" lon="-0.03434">
        <ele>2059.5</ele>
        <time>2023-10-31T10:28:53Z</time>
      </trkpt>
      <trkpt lat="42.80774" lon="-0.03434">
        <ele>2059.6</ele>
        <time>2023-10-31T10:28:54Z</time>
      </trkpt>
      <trkpt lat="42.80774" lon="-0.03435">
        <ele>2059.7</ele>
        <time>2023-10-31T10:28:55Z</time>
      </trkpt>
      <trkpt lat="42.80773" lon="-0.03438">
        <ele>2059.9</ele>
        <time>2023-10-31T10:28:56Z</time>
      </trkpt>
      <trkpt lat="42.80773" lon="-0.03439">
        <ele>2060</ele>
        <time>2023-10-31T10:28:57Z</time>
      </trkpt>
      <trkpt lat="42.80773" lon="-0.0344">
        <ele>2060.1</ele>
        <time>2023-10-31T10:28:58Z</time>
      </trkpt>
      <trkpt lat="42.80774" lon="-0.03443">
        <ele>2060.3</ele>
        <time>2023-10-31T10:28:59Z</time>
      </trkpt>
      <trkpt lat="42.80774" lon="-0.03444">
        <ele>2060.4</ele>
        <time>2023-10-31T10:29:00Z</time>
      </trkpt>
      <trkpt lat="42.80775" lon="-0.03445">
        <ele>2060.5</ele>
        <time>2023-10-31T10:29:01Z</time>
      </trkpt>
      <trkpt lat="42.80775" lon="-0.03447">
        <ele>2060.6</ele>
        <time>2023-10-31T10:29:02Z</time>
      </trkpt>
      <trkpt lat="42.80775" lon="-0.03448">
        <ele>2060.7</ele>
        <time>2023-10-31T10:29:03Z</time>
      </trkpt>
      <trkpt lat="42.80775" lon="-0.03449">
        <ele>2060.8</ele>
        <time>2023-10-31T10:29:04Z</time>
      </trkpt>
      <trkpt lat="42.80775" lon="-0.0345">
        <ele>2060.8</ele>
        <time>2023-10-31T10:29:05Z</time>
      </trkpt>
      <trkpt lat="42.80775" lon="-0.03452">
        <ele>2061</ele>
        <time>2023-10-31T10:29:06Z</time>
      </trkpt>
      <trkpt lat="42.80775" lon="-0.03453">
        <ele>2061.1</ele>
        <time>2023-10-31T10:29:07Z</time>
      </trkpt>
      <trkpt lat="42.80776" lon="-0.03454">
        <ele>2061.1</ele>
        <time>2023-10-31T10:29:08Z</time>
      </trkpt>
      <trkpt lat="42.80776" lon="-0.03455">
        <ele>2061.2</ele>
        <time>2023-10-31T10:29:09Z</time>
      </trkpt>
      <trkpt lat="42.80776" lon="-0.03455">
        <ele>2061.3</ele>
        <time>2023-10-31T10:29:10Z</time>
      </trkpt>
      <trkpt lat="42.80776" lon="-0.03456">
        <ele>2061.3</ele>
        <time>2023-10-31T10:29:11Z</time>
      </trkpt>
      <trkpt lat="42.80776" lon="-0.03456">
        <ele>2061.3</ele>
        <time>2023-10-31T10:29:12Z</time>
      </trkpt>
      <trkpt lat="42.80776" lon="-0.03456">
        <ele>2061.4</ele>
        <time>2023-10-31T10:29:13Z</time>
      </trkpt>
      <trkpt lat="42.80776" lon="-0.03456">
        <ele>2061.4</ele>
        <time>2023-10-31T10:29:14Z</time>
      </trkpt>
      <trkpt lat="42.80776" lon="-0.03456">
        <ele>2061.4</ele>
        <time>2023-10-31T10:29:15Z</time>
      </trkpt>
      <trkpt lat="42.80776" lon="-0.03456">
        <ele>2061.4</ele>
        <time>2023-10-31T10:29:16Z</time>
      </trkpt>
      <trkpt lat="42.80776" lon="-0.03456">
        <ele>2061.4</ele>
        <time>2023-10-31T10:29:17Z</time>
      </trkpt>
      <trkpt lat="42.80776" lon="-0.03456">
        <ele>2061.4</ele>
        <time>2023-10-31T10:29:18Z</time>
      </trkpt>
      <trkpt lat="42.80776" lon="-0.03456">
        <ele>2061.4</ele>
        <time>2023-10-31T10:29:19Z</time>
      </trkpt>
      <trkpt lat="42.80776" lon="-0.03456">
        <ele>2061.4</ele>
        <time>2023-10-31T10:29:20Z</time>
      </trkpt>
      <trkpt lat="42.80776" lon="-0.03457">
        <ele>2061.5</ele>
        <time>2023-10-31T10:29:21Z</time>
      </trkpt>
      <trkpt lat="42.80776" lon="-0.03458">
        <ele>2061.6</ele>
        <time>2023-10-31T10:29:22Z</time>
      </trkpt>
      <trkpt lat="42.80776" lon="-0.03459">
        <ele>2061.7</ele>
        <time>2023-10-31T10:29:23Z</time>
      </trkpt>
      <trkpt lat="42.80776" lon="-0.03461">
        <ele>2061.8</ele>
        <time>2023-10-31T10:29:24Z</time>
      </trkpt>
      <trkpt lat="42.80776" lon="-0.03462">
        <ele>2061.8</ele>
        <time>2023-10-31T10:29:25Z</time>
      </trkpt>
      <trkpt lat="42.80777" lon="-0.03463">
        <ele>2061.9</ele>
        <time>2023-10-31T10:29:26Z</time>
      </trkpt>
      <trkpt lat="42.80778" lon="-0.03464">
        <ele>2062</ele>
        <time>2023-10-31T10:29:27Z</time>
      </trkpt>
      <trkpt lat="42.80778" lon="-0.03465">
        <ele>2062.1</ele>
        <time>2023-10-31T10:29:28Z</time>
      </trkpt>
      <trkpt lat="42.80778" lon="-0.03466">
        <ele>2062.2</ele>
        <time>2023-10-31T10:29:29Z</time>
      </trkpt>
      <trkpt lat="42.80779" lon="-0.03467">
        <ele>2062.3</ele>
        <time>2023-10-31T10:29:30Z</time>
      </trkpt>
      <trkpt lat="42.80779" lon="-0.03468">
        <ele>2062.4</ele>
        <time>2023-10-31T10:29:31Z</time>
      </trkpt>
      <trkpt lat="42.80779" lon="-0.03469">
        <ele>2062.5</ele>
        <time>2023-10-31T10:29:32Z</time>
      </trkpt>
      <trkpt lat="42.8078" lon="-0.0347">
        <ele>2062.5</ele>
        <time>2023-10-31T10:29:33Z</time>
      </trkpt>
      <trkpt lat="42.8078" lon="-0.03471">
        <ele>2062.6</ele>
        <time>2023-10-31T10:29:34Z</time>
      </trkpt>
      <trkpt lat="42.8078" lon="-0.03472">
        <ele>2062.7</ele>
        <time>2023-10-31T10:29:35Z</time>
      </trkpt>
      <trkpt lat="42.80781" lon="-0.03474">
        <ele>2062.8</ele>
        <time>2023-10-31T10:29:36Z</time>
      </trkpt>
      <trkpt lat="42.80781" lon="-0.03474">
        <ele>2062.9</ele>
        <time>2023-10-31T10:29:37Z</time>
      </trkpt>
      <trkpt lat="42.80782" lon="-0.03476">
        <ele>2063</ele>
        <time>2023-10-31T10:29:38Z</time>
      </trkpt>
      <trkpt lat="42.80783" lon="-0.03477">
        <ele>2063.2</ele>
        <time>2023-10-31T10:29:39Z</time>
      </trkpt>
      <trkpt lat="42.80783" lon="-0.03478">
        <ele>2063.3</ele>
        <time>2023-10-31T10:29:40Z</time>
      </trkpt>
      <trkpt lat="42.80784" lon="-0.03478">
        <ele>2063.3</ele>
        <time>2023-10-31T10:29:41Z</time>
      </trkpt>
      <trkpt lat="42.80785" lon="-0.03479">
        <ele>2063.4</ele>
        <time>2023-10-31T10:29:42Z</time>
      </trkpt>
      <trkpt lat="42.80785" lon="-0.0348">
        <ele>2063.5</ele>
        <time>2023-10-31T10:29:43Z</time>
      </trkpt>
      <trkpt lat="42.80785" lon="-0.0348">
        <ele>2063.5</ele>
        <time>2023-10-31T10:29:44Z</time>
      </trkpt>
      <trkpt lat="42.80786" lon="-0.03481">
        <ele>2063.6</ele>
        <time>2023-10-31T10:29:45Z</time>
      </trkpt>
      <trkpt lat="42.80787" lon="-0.03482">
        <ele>2063.7</ele>
        <time>2023-10-31T10:29:46Z</time>
      </trkpt>
      <trkpt lat="42.80787" lon="-0.03483">
        <ele>2063.8</ele>
        <time>2023-10-31T10:29:47Z</time>
      </trkpt>
      <trkpt lat="42.80788" lon="-0.03483">
        <ele>2063.9</ele>
        <time>2023-10-31T10:29:48Z</time>
      </trkpt>
      <trkpt lat="42.80788" lon="-0.03484">
        <ele>2064</ele>
        <time>2023-10-31T10:29:49Z</time>
      </trkpt>
      <trkpt lat="42.80789" lon="-0.03485">
        <ele>2064.1</ele>
        <time>2023-10-31T10:29:50Z</time>
      </trkpt>
      <trkpt lat="42.8079" lon="-0.03486">
        <ele>2064.2</ele>
        <time>2023-10-31T10:29:51Z</time>
      </trkpt>
      <trkpt lat="42.8079" lon="-0.03487">
        <ele>2064.3</ele>
        <time>2023-10-31T10:29:52Z</time>
      </trkpt>
      <trkpt lat="42.80791" lon="-0.03488">
        <ele>2064.4</ele>
        <time>2023-10-31T10:29:53Z</time>
      </trkpt>
      <trkpt lat="42.80791" lon="-0.03489">
        <ele>2064.5</ele>
        <time>2023-10-31T10:29:54Z</time>
      </trkpt>
      <trkpt lat="42.80791" lon="-0.0349">
        <ele>2064.6</ele>
        <time>2023-10-31T10:29:55Z</time>
      </trkpt>
      <trkpt lat="42.80792" lon="-0.03491">
        <ele>2064.7</ele>
        <time>2023-10-31T10:29:56Z</time>
      </trkpt>
      <trkpt lat="42.80792" lon="-0.03492">
        <ele>2064.8</ele>
        <time>2023-10-31T10:29:57Z</time>
      </trkpt>
      <trkpt lat="42.80793" lon="-0.03494">
        <ele>2065</ele>
        <time>2023-10-31T10:29:58Z</time>
      </trkpt>
      <trkpt lat="42.80794" lon="-0.03495">
        <ele>2065.1</ele>
        <time>2023-10-31T10:29:59Z</time>
      </trkpt>
      <trkpt lat="42.80794" lon="-0.03495">
        <ele>2065.2</ele>
        <time>2023-10-31T10:30:00Z</time>
      </trkpt>
      <trkpt lat="42.80795" lon="-0.03496">
        <ele>2065.3</ele>
        <time>2023-10-31T10:30:01Z</time>
      </trkpt>
      <trkpt lat="42.80795" lon="-0.03497">
        <ele>2065.4</ele>
        <time>2023-10-31T10:30:02Z</time>
      </trkpt>
      <trkpt lat="42.80796" lon="-0.03498">
        <ele>2065.5</ele>
        <time>2023-10-31T10:30:03Z</time>
      </trkpt>
      <trkpt lat="42.80796" lon="-0.03499">
        <ele>2065.6</ele>
        <time>2023-10-31T10:30:04Z</time>
      </trkpt>
      <trkpt lat="42.80796" lon="-0.035">
        <ele>2065.7</ele>
        <time>2023-10-31T10:30:05Z</time>
      </trkpt>
      <trkpt lat="42.80797" lon="-0.03501">
        <ele>2065.9</ele>
        <time>2023-10-31T10:30:06Z</time>
      </trkpt>
      <trkpt lat="42.80797" lon="-0.03501">
        <ele>2066</ele>
        <time>2023-10-31T10:30:07Z</time>
      </trkpt>
      <trkpt lat="42.80797" lon="-0.03502">
        <ele>2066.1</ele>
        <time>2023-10-31T10:30:08Z</time>
      </trkpt>
      <trkpt lat="42.80798" lon="-0.03503">
        <ele>2066.2</ele>
        <time>2023-10-31T10:30:09Z</time>
      </trkpt>
      <trkpt lat="42.80799" lon="-0.03504">
        <ele>2066.3</ele>
        <time>2023-10-31T10:30:10Z</time>
      </trkpt>
      <trkpt lat="42.80799" lon="-0.03505">
        <ele>2066.4</ele>
        <time>2023-10-31T10:30:11Z</time>
      </trkpt>
      <trkpt lat="42.808" lon="-0.03506">
        <ele>2066.6</ele>
        <time>2023-10-31T10:30:12Z</time>
      </trkpt>
      <trkpt lat="42.808" lon="-0.03506">
        <ele>2066.7</ele>
        <time>2023-10-31T10:30:13Z</time>
      </trkpt>
      <trkpt lat="42.808" lon="-0.03507">
        <ele>2066.7</ele>
        <time>2023-10-31T10:30:14Z</time>
      </trkpt>
      <trkpt lat="42.80801" lon="-0.03508">
        <ele>2066.9</ele>
        <time>2023-10-31T10:30:15Z</time>
      </trkpt>
      <trkpt lat="42.80801" lon="-0.03508">
        <ele>2067</ele>
        <time>2023-10-31T10:30:16Z</time>
      </trkpt>
      <trkpt lat="42.80801" lon="-0.03508">
        <ele>2067</ele>
        <time>2023-10-31T10:30:17Z</time>
      </trkpt>
      <trkpt lat="42.80802" lon="-0.03509">
        <ele>2067.2</ele>
        <time>2023-10-31T10:30:18Z</time>
      </trkpt>
      <trkpt lat="42.80803" lon="-0.0351">
        <ele>2067.3</ele>
        <time>2023-10-31T10:30:19Z</time>
      </trkpt>
      <trkpt lat="42.80803" lon="-0.03511">
        <ele>2067.4</ele>
        <time>2023-10-31T10:30:20Z</time>
      </trkpt>
      <trkpt lat="42.80804" lon="-0.03512">
        <ele>2067.6</ele>
        <time>2023-10-31T10:30:21Z</time>
      </trkpt>
      <trkpt lat="42.80804" lon="-0.03513">
        <ele>2067.7</ele>
        <time>2023-10-31T10:30:22Z</time>
      </trkpt>
      <trkpt lat="42.80804" lon="-0.03514">
        <ele>2067.9</ele>
        <time>2023-10-31T10:30:23Z</time>
      </trkpt>
      <trkpt lat="42.80804" lon="-0.03515">
        <ele>2068</ele>
        <time>2023-10-31T10:30:24Z</time>
      </trkpt>
      <trkpt lat="42.80804" lon="-0.03516">
        <ele>2068.1</ele>
        <time>2023-10-31T10:30:25Z</time>
      </trkpt>
      <trkpt lat="42.80803" lon="-0.03517">
        <ele>2068.2</ele>
        <time>2023-10-31T10:30:26Z</time>
      </trkpt>
      <trkpt lat="42.80803" lon="-0.03518">
        <ele>2068.4</ele>
        <time>2023-10-31T10:30:27Z</time>
      </trkpt>
      <trkpt lat="42.80802" lon="-0.03519">
        <ele>2068.5</ele>
        <time>2023-10-31T10:30:28Z</time>
      </trkpt>
      <trkpt lat="42.80802" lon="-0.03519">
        <ele>2068.6</ele>
        <time>2023-10-31T10:30:29Z</time>
      </trkpt>
      <trkpt lat="42.80802" lon="-0.0352">
        <ele>2068.7</ele>
        <time>2023-10-31T10:30:30Z</time>
      </trkpt>
      <trkpt lat="42.80803" lon="-0.03522">
        <ele>2068.9</ele>
        <time>2023-10-31T10:30:31Z</time>
      </trkpt>
      <trkpt lat="42.80803" lon="-0.03523">
        <ele>2069</ele>
        <time>2023-10-31T10:30:32Z</time>
      </trkpt>
      <trkpt lat="42.80803" lon="-0.03524">
        <ele>2069.2</ele>
        <time>2023-10-31T10:30:33Z</time>
      </trkpt>
      <trkpt lat="42.80803" lon="-0.03525">
        <ele>2069.3</ele>
        <time>2023-10-31T10:30:34Z</time>
      </trkpt>
      <trkpt lat="42.80803" lon="-0.03526">
        <ele>2069.4</ele>
        <time>2023-10-31T10:30:35Z</time>
      </trkpt>
      <trkpt lat="42.80803" lon="-0.03527">
        <ele>2069.5</ele>
        <time>2023-10-31T10:30:36Z</time>
      </trkpt>
      <trkpt lat="42.80804" lon="-0.03527">
        <ele>2069.6</ele>
        <time>2023-10-31T10:30:37Z</time>
      </trkpt>
      <trkpt lat="42.80804" lon="-0.03528">
        <ele>2069.8</ele>
        <time>2023-10-31T10:30:38Z</time>
      </trkpt>
      <trkpt lat="42.80805" lon="-0.03529">
        <ele>2069.9</ele>
        <time>2023-10-31T10:30:39Z</time>
      </trkpt>
      <trkpt lat="42.80805" lon="-0.03529">
        <ele>2070</ele>
        <time>2023-10-31T10:30:40Z</time>
      </trkpt>
      <trkpt lat="42.80805" lon="-0.0353">
        <ele>2070.1</ele>
        <time>2023-10-31T10:30:41Z</time>
      </trkpt>
      <trkpt lat="42.80805" lon="-0.03531">
        <ele>2070.2</ele>
        <time>2023-10-31T10:30:42Z</time>
      </trkpt>
      <trkpt lat="42.80805" lon="-0.03532">
        <ele>2070.3</ele>
        <time>2023-10-31T10:30:43Z</time>
      </trkpt>
      <trkpt lat="42.80806" lon="-0.03533">
        <ele>2070.4</ele>
        <time>2023-10-31T10:30:44Z</time>
      </trkpt>
      <trkpt lat="42.80806" lon="-0.03534">
        <ele>2070.6</ele>
        <time>2023-10-31T10:30:45Z</time>
      </trkpt>
      <trkpt lat="42.80806" lon="-0.03535">
        <ele>2070.7</ele>
        <time>2023-10-31T10:30:46Z</time>
      </trkpt>
      <trkpt lat="42.80807" lon="-0.03536">
        <ele>2070.8</ele>
        <time>2023-10-31T10:30:47Z</time>
      </trkpt>
      <trkpt lat="42.80807" lon="-0.03537">
        <ele>2070.9</ele>
        <time>2023-10-31T10:30:48Z</time>
      </trkpt>
      <trkpt lat="42.80807" lon="-0.03538">
        <ele>2071</ele>
        <time>2023-10-31T10:30:49Z</time>
      </trkpt>
      <trkpt lat="42.80807" lon="-0.03539">
        <ele>2071.1</ele>
        <time>2023-10-31T10:30:50Z</time>
      </trkpt>
      <trkpt lat="42.80807" lon="-0.03539">
        <ele>2071.2</ele>
        <time>2023-10-31T10:30:51Z</time>
      </trkpt>
      <trkpt lat="42.80807" lon="-0.03539">
        <ele>2071.2</ele>
        <time>2023-10-31T10:30:52Z</time>
      </trkpt>
      <trkpt lat="42.80807" lon="-0.03539">
        <ele>2071.3</ele>
        <time>2023-10-31T10:30:53Z</time>
      </trkpt>
      <trkpt lat="42.80807" lon="-0.03539">
        <ele>2071.3</ele>
        <time>2023-10-31T10:30:54Z</time>
      </trkpt>
      <trkpt lat="42.80807" lon="-0.03539">
        <ele>2071.3</ele>
        <time>2023-10-31T10:30:55Z</time>
      </trkpt>
      <trkpt lat="42.80807" lon="-0.03539">
        <ele>2071.4</ele>
        <time>2023-10-31T10:30:56Z</time>
      </trkpt>
      <trkpt lat="42.80807" lon="-0.03539">
        <ele>2071.4</ele>
        <time>2023-10-31T10:30:57Z</time>
      </trkpt>
      <trkpt lat="42.80807" lon="-0.03539">
        <ele>2071.4</ele>
        <time>2023-10-31T10:30:58Z</time>
      </trkpt>
      <trkpt lat="42.80807" lon="-0.03539">
        <ele>2071.4</ele>
        <time>2023-10-31T10:30:59Z</time>
      </trkpt>
      <trkpt lat="42.80807" lon="-0.03539">
        <ele>2071.4</ele>
        <time>2023-10-31T10:31:00Z</time>
      </trkpt>
      <trkpt lat="42.80807" lon="-0.03539">
        <ele>2071.4</ele>
        <time>2023-10-31T10:31:01Z</time>
      </trkpt>
      <trkpt lat="42.80807" lon="-0.03539">
        <ele>2071.4</ele>
        <time>2023-10-31T10:31:02Z</time>
      </trkpt>
      <trkpt lat="42.80807" lon="-0.03539">
        <ele>2071.4</ele>
        <time>2023-10-31T10:31:03Z</time>
      </trkpt>
      <trkpt lat="42.80807" lon="-0.03539">
        <ele>2071.4</ele>
        <time>2023-10-31T10:31:04Z</time>
      </trkpt>
      <trkpt lat="42.80807" lon="-0.03539">
        <ele>2071.4</ele>
        <time>2023-10-31T10:31:05Z</time>
      </trkpt>
      <trkpt lat="42.80807" lon="-0.03539">
        <ele>2071.4</ele>
        <time>2023-10-31T10:31:06Z</time>
      </trkpt>
      <trkpt lat="42.80807" lon="-0.03539">
        <ele>2071.4</ele>
        <time>2023-10-31T10:31:07Z</time>
      </trkpt>
      <trkpt lat="42.80807" lon="-0.03539">
        <ele>2071.4</ele>
        <time>2023-10-31T10:31:08Z</time>
      </trkpt>
      <trkpt lat="42.80807" lon="-0.03539">
        <ele>2071.4</ele>
        <time>2023-10-31T10:31:09Z</time>
      </trkpt>
      <trkpt lat="42.80807" lon="-0.03539">
        <ele>2071.4</ele>
        <time>2023-10-31T10:31:10Z</time>
      </trkpt>
      <trkpt lat="42.80808" lon="-0.03541">
        <ele>2071.6</ele>
        <time>2023-10-31T10:31:11Z</time>
      </trkpt>
      <trkpt lat="42.80809" lon="-0.03542">
        <ele>2071.7</ele>
        <time>2023-10-31T10:31:12Z</time>
      </trkpt>
      <trkpt lat="42.80809" lon="-0.03542">
        <ele>2071.8</ele>
        <time>2023-10-31T10:31:13Z</time>
      </trkpt>
      <trkpt lat="42.8081" lon="-0.03543">
        <ele>2071.9</ele>
        <time>2023-10-31T10:31:14Z</time>
      </trkpt>
      <trkpt lat="42.8081" lon="-0.03544">
        <ele>2072</ele>
        <time>2023-10-31T10:31:15Z</time>
      </trkpt>
      <trkpt lat="42.80811" lon="-0.03545">
        <ele>2072.1</ele>
        <time>2023-10-31T10:31:16Z</time>
      </trkpt>
      <trkpt lat="42.80811" lon="-0.03546">
        <ele>2072.2</ele>
        <time>2023-10-31T10:31:17Z</time>
      </trkpt>
      <trkpt lat="42.80811" lon="-0.03547">
        <ele>2072.3</ele>
        <time>2023-10-31T10:31:18Z</time>
      </trkpt>
      <trkpt lat="42.80812" lon="-0.03548">
        <ele>2072.4</ele>
        <time>2023-10-31T10:31:19Z</time>
      </trkpt>
      <trkpt lat="42.80812" lon="-0.03549">
        <ele>2072.5</ele>
        <time>2023-10-31T10:31:20Z</time>
      </trkpt>
      <trkpt lat="42.80812" lon="-0.03552">
        <ele>2072.9</ele>
        <time>2023-10-31T10:31:21Z</time>
      </trkpt>
      <trkpt lat="42.80812" lon="-0.03554">
        <ele>2073.1</ele>
        <time>2023-10-31T10:31:22Z</time>
      </trkpt>
      <trkpt lat="42.80813" lon="-0.03554">
        <ele>2073.1</ele>
        <time>2023-10-31T10:31:23Z</time>
      </trkpt>
      <trkpt lat="42.80813" lon="-0.03555">
        <ele>2073.2</ele>
        <time>2023-10-31T10:31:24Z</time>
      </trkpt>
      <trkpt lat="42.80813" lon="-0.03556">
        <ele>2073.3</ele>
        <time>2023-10-31T10:31:25Z</time>
      </trkpt>
      <trkpt lat="42.80813" lon="-0.03557">
        <ele>2073.4</ele>
        <time>2023-10-31T10:31:26Z</time>
      </trkpt>
      <trkpt lat="42.80814" lon="-0.03558">
        <ele>2073.5</ele>
        <time>2023-10-31T10:31:27Z</time>
      </trkpt>
      <trkpt lat="42.80814" lon="-0.03559">
        <ele>2073.7</ele>
        <time>2023-10-31T10:31:28Z</time>
      </trkpt>
      <trkpt lat="42.80814" lon="-0.0356">
        <ele>2073.8</ele>
        <time>2023-10-31T10:31:29Z</time>
      </trkpt>
      <trkpt lat="42.80814" lon="-0.03561">
        <ele>2073.9</ele>
        <time>2023-10-31T10:31:30Z</time>
      </trkpt>
      <trkpt lat="42.80814" lon="-0.03562">
        <ele>2074</ele>
        <time>2023-10-31T10:31:31Z</time>
      </trkpt>
      <trkpt lat="42.80815" lon="-0.03563">
        <ele>2074.1</ele>
        <time>2023-10-31T10:31:32Z</time>
      </trkpt>
      <trkpt lat="42.80815" lon="-0.03564">
        <ele>2074.2</ele>
        <time>2023-10-31T10:31:33Z</time>
      </trkpt>
      <trkpt lat="42.80814" lon="-0.03565">
        <ele>2074.3</ele>
        <time>2023-10-31T10:31:34Z</time>
      </trkpt>
      <trkpt lat="42.80814" lon="-0.03566">
        <ele>2074.4</ele>
        <time>2023-10-31T10:31:35Z</time>
      </trkpt>
      <trkpt lat="42.80814" lon="-0.03566">
        <ele>2074.5</ele>
        <time>2023-10-31T10:31:36Z</time>
      </trkpt>
      <trkpt lat="42.80814" lon="-0.03567">
        <ele>2074.6</ele>
        <time>2023-10-31T10:31:37Z</time>
      </trkpt>
      <trkpt lat="42.80814" lon="-0.03568">
        <ele>2074.7</ele>
        <time>2023-10-31T10:31:38Z</time>
      </trkpt>
      <trkpt lat="42.80815" lon="-0.03568">
        <ele>2074.8</ele>
        <time>2023-10-31T10:31:39Z</time>
      </trkpt>
      <trkpt lat="42.80816" lon="-0.03568">
        <ele>2075</ele>
        <time>2023-10-31T10:31:40Z</time>
      </trkpt>
      <trkpt lat="42.80817" lon="-0.03569">
        <ele>2075.1</ele>
        <time>2023-10-31T10:31:41Z</time>
      </trkpt>
      <trkpt lat="42.80818" lon="-0.03569">
        <ele>2075.3</ele>
        <time>2023-10-31T10:31:42Z</time>
      </trkpt>
      <trkpt lat="42.80818" lon="-0.0357">
        <ele>2075.4</ele>
        <time>2023-10-31T10:31:43Z</time>
      </trkpt>
      <trkpt lat="42.80819" lon="-0.03572">
        <ele>2075.6</ele>
        <time>2023-10-31T10:31:44Z</time>
      </trkpt>
      <trkpt lat="42.80819" lon="-0.03573">
        <ele>2075.7</ele>
        <time>2023-10-31T10:31:45Z</time>
      </trkpt>
      <trkpt lat="42.80819" lon="-0.03573">
        <ele>2075.8</ele>
        <time>2023-10-31T10:31:46Z</time>
      </trkpt>
      <trkpt lat="42.8082" lon="-0.03574">
        <ele>2075.9</ele>
        <time>2023-10-31T10:31:47Z</time>
      </trkpt>
      <trkpt lat="42.8082" lon="-0.03574">
        <ele>2076.1</ele>
        <time>2023-10-31T10:31:48Z</time>
      </trkpt>
      <trkpt lat="42.8082" lon="-0.03575">
        <ele>2076.2</ele>
        <time>2023-10-31T10:31:49Z</time>
      </trkpt>
      <trkpt lat="42.80821" lon="-0.03576">
        <ele>2076.3</ele>
        <time>2023-10-31T10:31:50Z</time>
      </trkpt>
      <trkpt lat="42.80821" lon="-0.03577">
        <ele>2076.4</ele>
        <time>2023-10-31T10:31:51Z</time>
      </trkpt>
      <trkpt lat="42.8082" lon="-0.03577">
        <ele>2076.6</ele>
        <time>2023-10-31T10:31:52Z</time>
      </trkpt>
      <trkpt lat="42.80819" lon="-0.03578">
        <ele>2076.8</ele>
        <time>2023-10-31T10:31:53Z</time>
      </trkpt>
      <trkpt lat="42.80818" lon="-0.03578">
        <ele>2077</ele>
        <time>2023-10-31T10:31:54Z</time>
      </trkpt>
      <trkpt lat="42.80816" lon="-0.03578">
        <ele>2077.5</ele>
        <time>2023-10-31T10:31:55Z</time>
      </trkpt>
      <trkpt lat="42.80814" lon="-0.03578">
        <ele>2077.8</ele>
        <time>2023-10-31T10:31:56Z</time>
      </trkpt>
      <trkpt lat="42.80814" lon="-0.03578">
        <ele>2077.9</ele>
        <time>2023-10-31T10:31:57Z</time>
      </trkpt>
      <trkpt lat="42.80814" lon="-0.03578">
        <ele>2078</ele>
        <time>2023-10-31T10:31:58Z</time>
      </trkpt>
      <trkpt lat="42.80814" lon="-0.03579">
        <ele>2078</ele>
        <time>2023-10-31T10:31:59Z</time>
      </trkpt>
      <trkpt lat="42.80814" lon="-0.03579">
        <ele>2078.1</ele>
        <time>2023-10-31T10:32:00Z</time>
      </trkpt>
      <trkpt lat="42.80814" lon="-0.0358">
        <ele>2078.2</ele>
        <time>2023-10-31T10:32:01Z</time>
      </trkpt>
      <trkpt lat="42.80815" lon="-0.03581">
        <ele>2078.4</ele>
        <time>2023-10-31T10:32:02Z</time>
      </trkpt>
      <trkpt lat="42.80815" lon="-0.03582">
        <ele>2078.6</ele>
        <time>2023-10-31T10:32:03Z</time>
      </trkpt>
      <trkpt lat="42.80816" lon="-0.03583">
        <ele>2078.8</ele>
        <time>2023-10-31T10:32:04Z</time>
      </trkpt>
      <trkpt lat="42.80816" lon="-0.03583">
        <ele>2078.9</ele>
        <time>2023-10-31T10:32:05Z</time>
      </trkpt>
      <trkpt lat="42.80816" lon="-0.03584">
        <ele>2079</ele>
        <time>2023-10-31T10:32:06Z</time>
      </trkpt>
      <trkpt lat="42.80817" lon="-0.03584">
        <ele>2079.2</ele>
        <time>2023-10-31T10:32:07Z</time>
      </trkpt>
      <trkpt lat="42.80817" lon="-0.03585">
        <ele>2079.3</ele>
        <time>2023-10-31T10:32:08Z</time>
      </trkpt>
      <trkpt lat="42.80817" lon="-0.03586">
        <ele>2079.4</ele>
        <time>2023-10-31T10:32:09Z</time>
      </trkpt>
      <trkpt lat="42.80818" lon="-0.03587">
        <ele>2079.7</ele>
        <time>2023-10-31T10:32:10Z</time>
      </trkpt>
      <trkpt lat="42.80818" lon="-0.03587">
        <ele>2079.8</ele>
        <time>2023-10-31T10:32:11Z</time>
      </trkpt>
      <trkpt lat="42.80819" lon="-0.03588">
        <ele>2079.9</ele>
        <time>2023-10-31T10:32:12Z</time>
      </trkpt>
      <trkpt lat="42.80819" lon="-0.03588">
        <ele>2080</ele>
        <time>2023-10-31T10:32:13Z</time>
      </trkpt>
      <trkpt lat="42.80819" lon="-0.03589">
        <ele>2080.2</ele>
        <time>2023-10-31T10:32:14Z</time>
      </trkpt>
      <trkpt lat="42.8082" lon="-0.0359">
        <ele>2080.3</ele>
        <time>2023-10-31T10:32:15Z</time>
      </trkpt>
      <trkpt lat="42.8082" lon="-0.03591">
        <ele>2080.5</ele>
        <time>2023-10-31T10:32:16Z</time>
      </trkpt>
      <trkpt lat="42.80821" lon="-0.03591">
        <ele>2080.6</ele>
        <time>2023-10-31T10:32:17Z</time>
      </trkpt>
      <trkpt lat="42.80821" lon="-0.03592">
        <ele>2080.8</ele>
        <time>2023-10-31T10:32:18Z</time>
      </trkpt>
      <trkpt lat="42.80822" lon="-0.03593">
        <ele>2080.9</ele>
        <time>2023-10-31T10:32:19Z</time>
      </trkpt>
      <trkpt lat="42.80822" lon="-0.03593">
        <ele>2081.1</ele>
        <time>2023-10-31T10:32:20Z</time>
      </trkpt>
      <trkpt lat="42.80823" lon="-0.03594">
        <ele>2081.3</ele>
        <time>2023-10-31T10:32:21Z</time>
      </trkpt>
      <trkpt lat="42.80823" lon="-0.03594">
        <ele>2081.4</ele>
        <time>2023-10-31T10:32:22Z</time>
      </trkpt>
      <trkpt lat="42.80823" lon="-0.03595">
        <ele>2081.5</ele>
        <time>2023-10-31T10:32:23Z</time>
      </trkpt>
      <trkpt lat="42.80823" lon="-0.03595">
        <ele>2081.6</ele>
        <time>2023-10-31T10:32:24Z</time>
      </trkpt>
      <trkpt lat="42.80824" lon="-0.03596">
        <ele>2081.7</ele>
        <time>2023-10-31T10:32:25Z</time>
      </trkpt>
      <trkpt lat="42.80824" lon="-0.03596">
        <ele>2081.9</ele>
        <time>2023-10-31T10:32:26Z</time>
      </trkpt>
      <trkpt lat="42.80824" lon="-0.03596">
        <ele>2081.9</ele>
        <time>2023-10-31T10:32:27Z</time>
      </trkpt>
      <trkpt lat="42.80824" lon="-0.03597">
        <ele>2082</ele>
        <time>2023-10-31T10:32:28Z</time>
      </trkpt>
      <trkpt lat="42.80824" lon="-0.03596">
        <ele>2082</ele>
        <time>2023-10-31T10:32:29Z</time>
      </trkpt>
      <trkpt lat="42.80824" lon="-0.03596">
        <ele>2082</ele>
        <time>2023-10-31T10:32:30Z</time>
      </trkpt>
      <trkpt lat="42.80824" lon="-0.03596">
        <ele>2082</ele>
        <time>2023-10-31T10:32:31Z</time>
      </trkpt>
      <trkpt lat="42.80824" lon="-0.03596">
        <ele>2082</ele>
        <time>2023-10-31T10:32:32Z</time>
      </trkpt>
      <trkpt lat="42.80824" lon="-0.03596">
        <ele>2082</ele>
        <time>2023-10-31T10:32:33Z</time>
      </trkpt>
      <trkpt lat="42.80824" lon="-0.03596">
        <ele>2082</ele>
        <time>2023-10-31T10:32:34Z</time>
      </trkpt>
      <trkpt lat="42.80824" lon="-0.03596">
        <ele>2082</ele>
        <time>2023-10-31T10:32:35Z</time>
      </trkpt>
      <trkpt lat="42.80824" lon="-0.03596">
        <ele>2082</ele>
        <time>2023-10-31T10:32:36Z</time>
      </trkpt>
      <trkpt lat="42.80824" lon="-0.03596">
        <ele>2082</ele>
        <time>2023-10-31T10:32:37Z</time>
      </trkpt>
      <trkpt lat="42.80824" lon="-0.03596">
        <ele>2082</ele>
        <time>2023-10-31T10:32:38Z</time>
      </trkpt>
      <trkpt lat="42.80824" lon="-0.03596">
        <ele>2082</ele>
        <time>2023-10-31T10:32:39Z</time>
      </trkpt>
      <trkpt lat="42.80824" lon="-0.03596">
        <ele>2082</ele>
        <time>2023-10-31T10:32:40Z</time>
      </trkpt>
      <trkpt lat="42.80824" lon="-0.03596">
        <ele>2082</ele>
        <time>2023-10-31T10:32:41Z</time>
      </trkpt>
      <trkpt lat="42.80824" lon="-0.03596">
        <ele>2082</ele>
        <time>2023-10-31T10:32:42Z</time>
      </trkpt>
      <trkpt lat="42.80824" lon="-0.03596">
        <ele>2082</ele>
        <time>2023-10-31T10:32:43Z</time>
      </trkpt>
      <trkpt lat="42.80824" lon="-0.03596">
        <ele>2082</ele>
        <time>2023-10-31T10:32:44Z</time>
      </trkpt>
      <trkpt lat="42.80824" lon="-0.03596">
        <ele>2082</ele>
        <time>2023-10-31T10:32:45Z</time>
      </trkpt>
      <trkpt lat="42.80824" lon="-0.03596">
        <ele>2082</ele>
        <time>2023-10-31T10:32:46Z</time>
      </trkpt>
      <trkpt lat="42.80824" lon="-0.03596">
        <ele>2082</ele>
        <time>2023-10-31T10:32:47Z</time>
      </trkpt>
      <trkpt lat="42.80824" lon="-0.03596">
        <ele>2082</ele>
        <time>2023-10-31T10:32:48Z</time>
      </trkpt>
      <trkpt lat="42.80824" lon="-0.03596">
        <ele>2082</ele>
        <time>2023-10-31T10:32:49Z</time>
      </trkpt>
      <trkpt lat="42.80824" lon="-0.03596">
        <ele>2082</ele>
        <time>2023-10-31T10:32:50Z</time>
      </trkpt>
      <trkpt lat="42.80824" lon="-0.03596">
        <ele>2082</ele>
        <time>2023-10-31T10:32:51Z</time>
      </trkpt>
      <trkpt lat="42.80824" lon="-0.03596">
        <ele>2082</ele>
        <time>2023-10-31T10:32:52Z</time>
      </trkpt>
      <trkpt lat="42.80824" lon="-0.03596">
        <ele>2082</ele>
        <time>2023-10-31T10:32:53Z</time>
      </trkpt>
      <trkpt lat="42.80824" lon="-0.03596">
        <ele>2082</ele>
        <time>2023-10-31T10:32:54Z</time>
      </trkpt>
      <trkpt lat="42.80825" lon="-0.03596">
        <ele>2082.1</ele>
        <time>2023-10-31T10:32:55Z</time>
      </trkpt>
      <trkpt lat="42.80825" lon="-0.03597">
        <ele>2082.1</ele>
        <time>2023-10-31T10:32:56Z</time>
      </trkpt>
      <trkpt lat="42.80826" lon="-0.03598">
        <ele>2082.4</ele>
        <time>2023-10-31T10:32:57Z</time>
      </trkpt>
      <trkpt lat="42.80826" lon="-0.03598">
        <ele>2082.5</ele>
        <time>2023-10-31T10:32:58Z</time>
      </trkpt>
      <trkpt lat="42.80826" lon="-0.03598">
        <ele>2082.6</ele>
        <time>2023-10-31T10:32:59Z</time>
      </trkpt>
      <trkpt lat="42.80826" lon="-0.03598">
        <ele>2082.6</ele>
        <time>2023-10-31T10:33:00Z</time>
      </trkpt>
      <trkpt lat="42.80826" lon="-0.03598">
        <ele>2082.7</ele>
        <time>2023-10-31T10:33:01Z</time>
      </trkpt>
      <trkpt lat="42.80826" lon="-0.03598">
        <ele>2082.7</ele>
        <time>2023-10-31T10:33:02Z</time>
      </trkpt>
      <trkpt lat="42.80826" lon="-0.03598">
        <ele>2082.7</ele>
        <time>2023-10-31T10:33:03Z</time>
      </trkpt>
      <trkpt lat="42.80826" lon="-0.03598">
        <ele>2082.7</ele>
        <time>2023-10-31T10:33:04Z</time>
      </trkpt>
      <trkpt lat="42.80826" lon="-0.03598">
        <ele>2082.7</ele>
        <time>2023-10-31T10:33:05Z</time>
      </trkpt>
      <trkpt lat="42.80826" lon="-0.03598">
        <ele>2082.8</ele>
        <time>2023-10-31T10:33:06Z</time>
      </trkpt>
      <trkpt lat="42.80826" lon="-0.03599">
        <ele>2082.8</ele>
        <time>2023-10-31T10:33:07Z</time>
      </trkpt>
      <trkpt lat="42.80827" lon="-0.03598">
        <ele>2082.9</ele>
        <time>2023-10-31T10:33:08Z</time>
      </trkpt>
      <trkpt lat="42.80827" lon="-0.03598">
        <ele>2083</ele>
        <time>2023-10-31T10:33:09Z</time>
      </trkpt>
      <trkpt lat="42.80827" lon="-0.03598">
        <ele>2083</ele>
        <time>2023-10-31T10:33:10Z</time>
      </trkpt>
      <trkpt lat="42.80827" lon="-0.03598">
        <ele>2083.1</ele>
        <time>2023-10-31T10:33:11Z</time>
      </trkpt>
      <trkpt lat="42.80827" lon="-0.03598">
        <ele>2083.1</ele>
        <time>2023-10-31T10:33:12Z</time>
      </trkpt>
      <trkpt lat="42.80827" lon="-0.03598">
        <ele>2083.1</ele>
        <time>2023-10-31T10:33:13Z</time>
      </trkpt>
      <trkpt lat="42.80827" lon="-0.03598">
        <ele>2083.1</ele>
        <time>2023-10-31T10:33:14Z</time>
      </trkpt>
      <trkpt lat="42.80827" lon="-0.03598">
        <ele>2083.1</ele>
        <time>2023-10-31T10:33:15Z</time>
      </trkpt>
      <trkpt lat="42.80827" lon="-0.03598">
        <ele>2083.1</ele>
        <time>2023-10-31T10:33:16Z</time>
      </trkpt>
      <trkpt lat="42.80827" lon="-0.03598">
        <ele>2083.1</ele>
        <time>2023-10-31T10:33:17Z</time>
      </trkpt>
      <trkpt lat="42.80827" lon="-0.03598">
        <ele>2083.1</ele>
        <time>2023-10-31T10:33:18Z</time>
      </trkpt>
      <trkpt lat="42.80827" lon="-0.03598">
        <ele>2083.2</ele>
        <time>2023-10-31T10:33:19Z</time>
      </trkpt>
      <trkpt lat="42.80828" lon="-0.03598">
        <ele>2083.4</ele>
        <time>2023-10-31T10:33:20Z</time>
      </trkpt>
      <trkpt lat="42.80829" lon="-0.03599">
        <ele>2083.5</ele>
        <time>2023-10-31T10:33:21Z</time>
      </trkpt>
      <trkpt lat="42.80829" lon="-0.03599">
        <ele>2083.6</ele>
        <time>2023-10-31T10:33:22Z</time>
      </trkpt>
      <trkpt lat="42.80829" lon="-0.03599">
        <ele>2083.6</ele>
        <time>2023-10-31T10:33:23Z</time>
      </trkpt>
      <trkpt lat="42.80829" lon="-0.03599">
        <ele>2083.6</ele>
        <time>2023-10-31T10:33:24Z</time>
      </trkpt>
      <trkpt lat="42.80829" lon="-0.03599">
        <ele>2083.7</ele>
        <time>2023-10-31T10:33:25Z</time>
      </trkpt>
      <trkpt lat="42.80829" lon="-0.03599">
        <ele>2083.7</ele>
        <time>2023-10-31T10:33:26Z</time>
      </trkpt>
      <trkpt lat="42.80829" lon="-0.03599">
        <ele>2083.8</ele>
        <time>2023-10-31T10:33:27Z</time>
      </trkpt>
      <trkpt lat="42.80829" lon="-0.03599">
        <ele>2083.8</ele>
        <time>2023-10-31T10:33:28Z</time>
      </trkpt>
      <trkpt lat="42.80829" lon="-0.03599">
        <ele>2083.9</ele>
        <time>2023-10-31T10:33:29Z</time>
      </trkpt>
      <trkpt lat="42.80829" lon="-0.03599">
        <ele>2083.9</ele>
        <time>2023-10-31T10:33:30Z</time>
      </trkpt>
      <trkpt lat="42.80829" lon="-0.03599">
        <ele>2083.9</ele>
        <time>2023-10-31T10:33:31Z</time>
      </trkpt>
      <trkpt lat="42.80829" lon="-0.036">
        <ele>2084</ele>
        <time>2023-10-31T10:33:32Z</time>
      </trkpt>
      <trkpt lat="42.80829" lon="-0.036">
        <ele>2084</ele>
        <time>2023-10-31T10:33:33Z</time>
      </trkpt>
      <trkpt lat="42.80829" lon="-0.036">
        <ele>2084</ele>
        <time>2023-10-31T10:33:34Z</time>
      </trkpt>
      <trkpt lat="42.80829" lon="-0.036">
        <ele>2084</ele>
        <time>2023-10-31T10:33:35Z</time>
      </trkpt>
      <trkpt lat="42.80829" lon="-0.036">
        <ele>2084</ele>
        <time>2023-10-31T10:33:36Z</time>
      </trkpt>
      <trkpt lat="42.80829" lon="-0.036">
        <ele>2084</ele>
        <time>2023-10-31T10:33:37Z</time>
      </trkpt>
      <trkpt lat="42.80829" lon="-0.036">
        <ele>2084</ele>
        <time>2023-10-31T10:33:38Z</time>
      </trkpt>
      <trkpt lat="42.80829" lon="-0.036">
        <ele>2084</ele>
        <time>2023-10-31T10:33:39Z</time>
      </trkpt>
      <trkpt lat="42.80829" lon="-0.036">
        <ele>2084</ele>
        <time>2023-10-31T10:33:40Z</time>
      </trkpt>
      <trkpt lat="42.80829" lon="-0.036">
        <ele>2084</ele>
        <time>2023-10-31T10:33:41Z</time>
      </trkpt>
      <trkpt lat="42.80829" lon="-0.036">
        <ele>2084</ele>
        <time>2023-10-31T10:33:42Z</time>
      </trkpt>
      <trkpt lat="42.80829" lon="-0.036">
        <ele>2084</ele>
        <time>2023-10-31T10:33:43Z</time>
      </trkpt>
      <trkpt lat="42.80829" lon="-0.036">
        <ele>2084</ele>
        <time>2023-10-31T10:33:44Z</time>
      </trkpt>
      <trkpt lat="42.80829" lon="-0.036">
        <ele>2084</ele>
        <time>2023-10-31T10:33:45Z</time>
      </trkpt>
      <trkpt lat="42.80829" lon="-0.036">
        <ele>2084</ele>
        <time>2023-10-31T10:33:46Z</time>
      </trkpt>
      <trkpt lat="42.8083" lon="-0.036">
        <ele>2084.3</ele>
        <time>2023-10-31T10:33:47Z</time>
      </trkpt>
      <trkpt lat="42.80831" lon="-0.03601">
        <ele>2084.5</ele>
        <time>2023-10-31T10:33:48Z</time>
      </trkpt>
      <trkpt lat="42.80831" lon="-0.03601">
        <ele>2084.6</ele>
        <time>2023-10-31T10:33:49Z</time>
      </trkpt>
      <trkpt lat="42.80831" lon="-0.03602">
        <ele>2084.8</ele>
        <time>2023-10-31T10:33:50Z</time>
      </trkpt>
      <trkpt lat="42.80831" lon="-0.03603">
        <ele>2084.8</ele>
        <time>2023-10-31T10:33:51Z</time>
      </trkpt>
      <trkpt lat="42.80832" lon="-0.03603">
        <ele>2085</ele>
        <time>2023-10-31T10:33:52Z</time>
      </trkpt>
      <trkpt lat="42.80832" lon="-0.03604">
        <ele>2085.2</ele>
        <time>2023-10-31T10:33:53Z</time>
      </trkpt>
      <trkpt lat="42.80833" lon="-0.03606">
        <ele>2085.5</ele>
        <time>2023-10-31T10:33:54Z</time>
      </trkpt>
      <trkpt lat="42.80833" lon="-0.03606">
        <ele>2085.6</ele>
        <time>2023-10-31T10:33:55Z</time>
      </trkpt>
      <trkpt lat="42.80833" lon="-0.03606">
        <ele>2085.6</ele>
        <time>2023-10-31T10:33:56Z</time>
      </trkpt>
      <trkpt lat="42.80833" lon="-0.03607">
        <ele>2085.7</ele>
        <time>2023-10-31T10:33:57Z</time>
      </trkpt>
      <trkpt lat="42.80834" lon="-0.03608">
        <ele>2085.9</ele>
        <time>2023-10-31T10:33:58Z</time>
      </trkpt>
      <trkpt lat="42.80833" lon="-0.03609">
        <ele>2086.1</ele>
        <time>2023-10-31T10:33:59Z</time>
      </trkpt>
      <trkpt lat="42.80834" lon="-0.0361">
        <ele>2086.3</ele>
        <time>2023-10-31T10:34:00Z</time>
      </trkpt>
      <trkpt lat="42.80834" lon="-0.0361">
        <ele>2086.3</ele>
        <time>2023-10-31T10:34:01Z</time>
      </trkpt>
      <trkpt lat="42.80834" lon="-0.0361">
        <ele>2086.4</ele>
        <time>2023-10-31T10:34:02Z</time>
      </trkpt>
      <trkpt lat="42.80834" lon="-0.03611">
        <ele>2086.6</ele>
        <time>2023-10-31T10:34:03Z</time>
      </trkpt>
      <trkpt lat="42.80834" lon="-0.03611">
        <ele>2086.6</ele>
        <time>2023-10-31T10:34:04Z</time>
      </trkpt>
      <trkpt lat="42.80834" lon="-0.03612">
        <ele>2086.7</ele>
        <time>2023-10-31T10:34:05Z</time>
      </trkpt>
      <trkpt lat="42.80834" lon="-0.03613">
        <ele>2086.9</ele>
        <time>2023-10-31T10:34:06Z</time>
      </trkpt>
      <trkpt lat="42.80834" lon="-0.03613">
        <ele>2087</ele>
        <time>2023-10-31T10:34:07Z</time>
      </trkpt>
      <trkpt lat="42.80834" lon="-0.03613">
        <ele>2087.1</ele>
        <time>2023-10-31T10:34:08Z</time>
      </trkpt>
      <trkpt lat="42.80834" lon="-0.03613">
        <ele>2087.2</ele>
        <time>2023-10-31T10:34:09Z</time>
      </trkpt>
      <trkpt lat="42.80834" lon="-0.03613">
        <ele>2087.2</ele>
        <time>2023-10-31T10:34:10Z</time>
      </trkpt>
      <trkpt lat="42.80835" lon="-0.03614">
        <ele>2087.4</ele>
        <time>2023-10-31T10:34:11Z</time>
      </trkpt>
      <trkpt lat="42.80834" lon="-0.03615">
        <ele>2087.6</ele>
        <time>2023-10-31T10:34:12Z</time>
      </trkpt>
      <trkpt lat="42.80834" lon="-0.03615">
        <ele>2087.6</ele>
        <time>2023-10-31T10:34:13Z</time>
      </trkpt>
      <trkpt lat="42.80834" lon="-0.03615">
        <ele>2087.7</ele>
        <time>2023-10-31T10:34:14Z</time>
      </trkpt>
      <trkpt lat="42.80834" lon="-0.03615">
        <ele>2087.7</ele>
        <time>2023-10-31T10:34:15Z</time>
      </trkpt>
      <trkpt lat="42.80834" lon="-0.03615">
        <ele>2087.7</ele>
        <time>2023-10-31T10:34:16Z</time>
      </trkpt>
      <trkpt lat="42.80834" lon="-0.03615">
        <ele>2087.7</ele>
        <time>2023-10-31T10:34:17Z</time>
      </trkpt>
      <trkpt lat="42.80834" lon="-0.03615">
        <ele>2087.7</ele>
        <time>2023-10-31T10:34:18Z</time>
      </trkpt>
      <trkpt lat="42.80834" lon="-0.03615">
        <ele>2087.7</ele>
        <time>2023-10-31T10:34:19Z</time>
      </trkpt>
      <trkpt lat="42.80834" lon="-0.03615">
        <ele>2087.7</ele>
        <time>2023-10-31T10:34:20Z</time>
      </trkpt>
      <trkpt lat="42.80835" lon="-0.03615">
        <ele>2087.8</ele>
        <time>2023-10-31T10:34:21Z</time>
      </trkpt>
      <trkpt lat="42.80835" lon="-0.03616">
        <ele>2087.9</ele>
        <time>2023-10-31T10:34:22Z</time>
      </trkpt>
      <trkpt lat="42.80836" lon="-0.03617">
        <ele>2088.1</ele>
        <time>2023-10-31T10:34:23Z</time>
      </trkpt>
      <trkpt lat="42.80836" lon="-0.03618">
        <ele>2088.3</ele>
        <time>2023-10-31T10:34:24Z</time>
      </trkpt>
      <trkpt lat="42.80836" lon="-0.03618">
        <ele>2088.4</ele>
        <time>2023-10-31T10:34:25Z</time>
      </trkpt>
      <trkpt lat="42.80836" lon="-0.03619">
        <ele>2088.6</ele>
        <time>2023-10-31T10:34:26Z</time>
      </trkpt>
      <trkpt lat="42.80836" lon="-0.03619">
        <ele>2088.6</ele>
        <time>2023-10-31T10:34:27Z</time>
      </trkpt>
      <trkpt lat="42.80837" lon="-0.03619">
        <ele>2088.7</ele>
        <time>2023-10-31T10:34:28Z</time>
      </trkpt>
      <trkpt lat="42.80837" lon="-0.0362">
        <ele>2088.9</ele>
        <time>2023-10-31T10:34:29Z</time>
      </trkpt>
      <trkpt lat="42.80838" lon="-0.03621">
        <ele>2089.1</ele>
        <time>2023-10-31T10:34:30Z</time>
      </trkpt>
      <trkpt lat="42.80838" lon="-0.03621">
        <ele>2089.3</ele>
        <time>2023-10-31T10:34:31Z</time>
      </trkpt>
      <trkpt lat="42.80839" lon="-0.03622">
        <ele>2089.4</ele>
        <time>2023-10-31T10:34:32Z</time>
      </trkpt>
      <trkpt lat="42.80839" lon="-0.03622">
        <ele>2089.5</ele>
        <time>2023-10-31T10:34:33Z</time>
      </trkpt>
      <trkpt lat="42.80839" lon="-0.03622">
        <ele>2089.5</ele>
        <time>2023-10-31T10:34:34Z</time>
      </trkpt>
      <trkpt lat="42.80839" lon="-0.03623">
        <ele>2089.6</ele>
        <time>2023-10-31T10:34:35Z</time>
      </trkpt>
      <trkpt lat="42.80839" lon="-0.03624">
        <ele>2089.9</ele>
        <time>2023-10-31T10:34:36Z</time>
      </trkpt>
      <trkpt lat="42.80839" lon="-0.03625">
        <ele>2090</ele>
        <time>2023-10-31T10:34:37Z</time>
      </trkpt>
      <trkpt lat="42.8084" lon="-0.03626">
        <ele>2090.3</ele>
        <time>2023-10-31T10:34:38Z</time>
      </trkpt>
      <trkpt lat="42.8084" lon="-0.03627">
        <ele>2090.4</ele>
        <time>2023-10-31T10:34:39Z</time>
      </trkpt>
      <trkpt lat="42.8084" lon="-0.03627">
        <ele>2090.5</ele>
        <time>2023-10-31T10:34:40Z</time>
      </trkpt>
      <trkpt lat="42.8084" lon="-0.03628">
        <ele>2090.7</ele>
        <time>2023-10-31T10:34:41Z</time>
      </trkpt>
      <trkpt lat="42.8084" lon="-0.03629">
        <ele>2090.8</ele>
        <time>2023-10-31T10:34:42Z</time>
      </trkpt>
      <trkpt lat="42.8084" lon="-0.03629">
        <ele>2090.9</ele>
        <time>2023-10-31T10:34:43Z</time>
      </trkpt>
      <trkpt lat="42.80841" lon="-0.03631">
        <ele>2091.2</ele>
        <time>2023-10-31T10:34:44Z</time>
      </trkpt>
      <trkpt lat="42.80842" lon="-0.03631">
        <ele>2091.3</ele>
        <time>2023-10-31T10:34:45Z</time>
      </trkpt>
      <trkpt lat="42.80842" lon="-0.03632">
        <ele>2091.5</ele>
        <time>2023-10-31T10:34:46Z</time>
      </trkpt>
      <trkpt lat="42.80842" lon="-0.03632">
        <ele>2091.6</ele>
        <time>2023-10-31T10:34:47Z</time>
      </trkpt>
      <trkpt lat="42.80842" lon="-0.03633">
        <ele>2091.7</ele>
        <time>2023-10-31T10:34:48Z</time>
      </trkpt>
      <trkpt lat="42.80842" lon="-0.03634">
        <ele>2091.9</ele>
        <time>2023-10-31T10:34:49Z</time>
      </trkpt>
      <trkpt lat="42.80842" lon="-0.03635">
        <ele>2092</ele>
        <time>2023-10-31T10:34:50Z</time>
      </trkpt>
      <trkpt lat="42.80842" lon="-0.03636">
        <ele>2092.2</ele>
        <time>2023-10-31T10:34:51Z</time>
      </trkpt>
      <trkpt lat="42.80843" lon="-0.03637">
        <ele>2092.3</ele>
        <time>2023-10-31T10:34:52Z</time>
      </trkpt>
      <trkpt lat="42.80843" lon="-0.03637">
        <ele>2092.4</ele>
        <time>2023-10-31T10:34:53Z</time>
      </trkpt>
      <trkpt lat="42.80843" lon="-0.03637">
        <ele>2092.5</ele>
        <time>2023-10-31T10:34:54Z</time>
      </trkpt>
      <trkpt lat="42.80843" lon="-0.03638">
        <ele>2092.7</ele>
        <time>2023-10-31T10:34:55Z</time>
      </trkpt>
      <trkpt lat="42.80844" lon="-0.03639">
        <ele>2092.8</ele>
        <time>2023-10-31T10:34:56Z</time>
      </trkpt>
      <trkpt lat="42.80844" lon="-0.03639">
        <ele>2092.9</ele>
        <time>2023-10-31T10:34:57Z</time>
      </trkpt>
      <trkpt lat="42.80845" lon="-0.0364">
        <ele>2093</ele>
        <time>2023-10-31T10:34:58Z</time>
      </trkpt>
      <trkpt lat="42.80845" lon="-0.0364">
        <ele>2093.1</ele>
        <time>2023-10-31T10:34:59Z</time>
      </trkpt>
      <trkpt lat="42.80846" lon="-0.03641">
        <ele>2093.3</ele>
        <time>2023-10-31T10:35:00Z</time>
      </trkpt>
      <trkpt lat="42.80846" lon="-0.03642">
        <ele>2093.4</ele>
        <time>2023-10-31T10:35:01Z</time>
      </trkpt>
      <trkpt lat="42.80846" lon="-0.03643">
        <ele>2093.6</ele>
        <time>2023-10-31T10:35:02Z</time>
      </trkpt>
      <trkpt lat="42.80846" lon="-0.03644">
        <ele>2093.7</ele>
        <time>2023-10-31T10:35:03Z</time>
      </trkpt>
      <trkpt lat="42.80846" lon="-0.03645">
        <ele>2093.9</ele>
        <time>2023-10-31T10:35:04Z</time>
      </trkpt>
      <trkpt lat="42.80846" lon="-0.03646">
        <ele>2094</ele>
        <time>2023-10-31T10:35:05Z</time>
      </trkpt>
      <trkpt lat="42.80846" lon="-0.03646">
        <ele>2094.1</ele>
        <time>2023-10-31T10:35:06Z</time>
      </trkpt>
      <trkpt lat="42.80847" lon="-0.03647">
        <ele>2094.3</ele>
        <time>2023-10-31T10:35:07Z</time>
      </trkpt>
      <trkpt lat="42.80847" lon="-0.03647">
        <ele>2094.4</ele>
        <time>2023-10-31T10:35:08Z</time>
      </trkpt>
      <trkpt lat="42.80847" lon="-0.03648">
        <ele>2094.5</ele>
        <time>2023-10-31T10:35:09Z</time>
      </trkpt>
      <trkpt lat="42.80846" lon="-0.03648">
        <ele>2094.6</ele>
        <time>2023-10-31T10:35:10Z</time>
      </trkpt>
      <trkpt lat="42.80846" lon="-0.0365">
        <ele>2094.8</ele>
        <time>2023-10-31T10:35:11Z</time>
      </trkpt>
      <trkpt lat="42.80846" lon="-0.03651">
        <ele>2095</ele>
        <time>2023-10-31T10:35:12Z</time>
      </trkpt>
      <trkpt lat="42.80846" lon="-0.03652">
        <ele>2095.1</ele>
        <time>2023-10-31T10:35:13Z</time>
      </trkpt>
      <trkpt lat="42.80847" lon="-0.03653">
        <ele>2095.4</ele>
        <time>2023-10-31T10:35:14Z</time>
      </trkpt>
      <trkpt lat="42.80847" lon="-0.03654">
        <ele>2095.5</ele>
        <time>2023-10-31T10:35:15Z</time>
      </trkpt>
      <trkpt lat="42.80847" lon="-0.03655">
        <ele>2095.6</ele>
        <time>2023-10-31T10:35:16Z</time>
      </trkpt>
      <trkpt lat="42.80847" lon="-0.03656">
        <ele>2095.7</ele>
        <time>2023-10-31T10:35:17Z</time>
      </trkpt>
      <trkpt lat="42.80848" lon="-0.03657">
        <ele>2095.9</ele>
        <time>2023-10-31T10:35:18Z</time>
      </trkpt>
      <trkpt lat="42.80848" lon="-0.03657">
        <ele>2096</ele>
        <time>2023-10-31T10:35:19Z</time>
      </trkpt>
      <trkpt lat="42.80848" lon="-0.03658">
        <ele>2096</ele>
        <time>2023-10-31T10:35:20Z</time>
      </trkpt>
      <trkpt lat="42.80848" lon="-0.03659">
        <ele>2096.2</ele>
        <time>2023-10-31T10:35:21Z</time>
      </trkpt>
      <trkpt lat="42.80848" lon="-0.0366">
        <ele>2096.3</ele>
        <time>2023-10-31T10:35:22Z</time>
      </trkpt>
      <trkpt lat="42.80849" lon="-0.0366">
        <ele>2096.4</ele>
        <time>2023-10-31T10:35:23Z</time>
      </trkpt>
      <trkpt lat="42.80849" lon="-0.03661">
        <ele>2096.5</ele>
        <time>2023-10-31T10:35:24Z</time>
      </trkpt>
      <trkpt lat="42.8085" lon="-0.03662">
        <ele>2096.7</ele>
        <time>2023-10-31T10:35:25Z</time>
      </trkpt>
      <trkpt lat="42.8085" lon="-0.03663">
        <ele>2096.8</ele>
        <time>2023-10-31T10:35:26Z</time>
      </trkpt>
      <trkpt lat="42.80851" lon="-0.03664">
        <ele>2097</ele>
        <time>2023-10-31T10:35:27Z</time>
      </trkpt>
      <trkpt lat="42.80851" lon="-0.03664">
        <ele>2097.1</ele>
        <time>2023-10-31T10:35:28Z</time>
      </trkpt>
      <trkpt lat="42.80852" lon="-0.03664">
        <ele>2097.1</ele>
        <time>2023-10-31T10:35:29Z</time>
      </trkpt>
      <trkpt lat="42.80852" lon="-0.03665">
        <ele>2097.3</ele>
        <time>2023-10-31T10:35:30Z</time>
      </trkpt>
      <trkpt lat="42.80853" lon="-0.03666">
        <ele>2097.4</ele>
        <time>2023-10-31T10:35:31Z</time>
      </trkpt>
      <trkpt lat="42.80853" lon="-0.03667">
        <ele>2097.5</ele>
        <time>2023-10-31T10:35:32Z</time>
      </trkpt>
      <trkpt lat="42.80853" lon="-0.03668">
        <ele>2097.7</ele>
        <time>2023-10-31T10:35:33Z</time>
      </trkpt>
      <trkpt lat="42.80853" lon="-0.0367">
        <ele>2097.9</ele>
        <time>2023-10-31T10:35:34Z</time>
      </trkpt>
      <trkpt lat="42.80853" lon="-0.03671">
        <ele>2098</ele>
        <time>2023-10-31T10:35:35Z</time>
      </trkpt>
      <trkpt lat="42.80853" lon="-0.03672">
        <ele>2098.2</ele>
        <time>2023-10-31T10:35:36Z</time>
      </trkpt>
      <trkpt lat="42.80854" lon="-0.03673">
        <ele>2098.3</ele>
        <time>2023-10-31T10:35:37Z</time>
      </trkpt>
      <trkpt lat="42.80854" lon="-0.03673">
        <ele>2098.4</ele>
        <time>2023-10-31T10:35:38Z</time>
      </trkpt>
      <trkpt lat="42.80855" lon="-0.03674">
        <ele>2098.5</ele>
        <time>2023-10-31T10:35:39Z</time>
      </trkpt>
      <trkpt lat="42.80856" lon="-0.03674">
        <ele>2098.6</ele>
        <time>2023-10-31T10:35:40Z</time>
      </trkpt>
      <trkpt lat="42.80856" lon="-0.03674">
        <ele>2098.7</ele>
        <time>2023-10-31T10:35:41Z</time>
      </trkpt>
      <trkpt lat="42.80857" lon="-0.03674">
        <ele>2098.8</ele>
        <time>2023-10-31T10:35:42Z</time>
      </trkpt>
      <trkpt lat="42.80857" lon="-0.03674">
        <ele>2098.9</ele>
        <time>2023-10-31T10:35:43Z</time>
      </trkpt>
      <trkpt lat="42.80857" lon="-0.03675">
        <ele>2099</ele>
        <time>2023-10-31T10:35:44Z</time>
      </trkpt>
      <trkpt lat="42.80858" lon="-0.03676">
        <ele>2099.2</ele>
        <time>2023-10-31T10:35:45Z</time>
      </trkpt>
      <trkpt lat="42.80858" lon="-0.03677">
        <ele>2099.3</ele>
        <time>2023-10-31T10:35:46Z</time>
      </trkpt>
      <trkpt lat="42.80859" lon="-0.03677">
        <ele>2099.4</ele>
        <time>2023-10-31T10:35:47Z</time>
      </trkpt>
      <trkpt lat="42.80859" lon="-0.03678">
        <ele>2099.5</ele>
        <time>2023-10-31T10:35:48Z</time>
      </trkpt>
      <trkpt lat="42.80858" lon="-0.03679">
        <ele>2099.6</ele>
        <time>2023-10-31T10:35:49Z</time>
      </trkpt>
      <trkpt lat="42.80858" lon="-0.0368">
        <ele>2099.8</ele>
        <time>2023-10-31T10:35:50Z</time>
      </trkpt>
      <trkpt lat="42.80859" lon="-0.03681">
        <ele>2099.9</ele>
        <time>2023-10-31T10:35:51Z</time>
      </trkpt>
      <trkpt lat="42.80859" lon="-0.03681">
        <ele>2100</ele>
        <time>2023-10-31T10:35:52Z</time>
      </trkpt>
      <trkpt lat="42.80859" lon="-0.03682">
        <ele>2100</ele>
        <time>2023-10-31T10:35:53Z</time>
      </trkpt>
      <trkpt lat="42.8086" lon="-0.03681">
        <ele>2100.1</ele>
        <time>2023-10-31T10:35:54Z</time>
      </trkpt>
      <trkpt lat="42.80861" lon="-0.03682">
        <ele>2100.3</ele>
        <time>2023-10-31T10:35:55Z</time>
      </trkpt>
      <trkpt lat="42.80861" lon="-0.03682">
        <ele>2100.4</ele>
        <time>2023-10-31T10:35:56Z</time>
      </trkpt>
      <trkpt lat="42.80862" lon="-0.03683">
        <ele>2100.5</ele>
        <time>2023-10-31T10:35:57Z</time>
      </trkpt>
      <trkpt lat="42.80862" lon="-0.03683">
        <ele>2100.7</ele>
        <time>2023-10-31T10:35:58Z</time>
      </trkpt>
      <trkpt lat="42.80863" lon="-0.03684">
        <ele>2100.8</ele>
        <time>2023-10-31T10:35:59Z</time>
      </trkpt>
      <trkpt lat="42.80863" lon="-0.03684">
        <ele>2100.9</ele>
        <time>2023-10-31T10:36:00Z</time>
      </trkpt>
      <trkpt lat="42.80864" lon="-0.03685">
        <ele>2101</ele>
        <time>2023-10-31T10:36:01Z</time>
      </trkpt>
      <trkpt lat="42.80864" lon="-0.03686">
        <ele>2101.1</ele>
        <time>2023-10-31T10:36:02Z</time>
      </trkpt>
      <trkpt lat="42.80864" lon="-0.03686">
        <ele>2101.2</ele>
        <time>2023-10-31T10:36:03Z</time>
      </trkpt>
      <trkpt lat="42.80865" lon="-0.03687">
        <ele>2101.4</ele>
        <time>2023-10-31T10:36:04Z</time>
      </trkpt>
      <trkpt lat="42.80865" lon="-0.03688">
        <ele>2101.5</ele>
        <time>2023-10-31T10:36:05Z</time>
      </trkpt>
      <trkpt lat="42.80865" lon="-0.03689">
        <ele>2101.6</ele>
        <time>2023-10-31T10:36:06Z</time>
      </trkpt>
      <trkpt lat="42.80865" lon="-0.03688">
        <ele>2101.6</ele>
        <time>2023-10-31T10:36:07Z</time>
      </trkpt>
      <trkpt lat="42.80866" lon="-0.03689">
        <ele>2101.8</ele>
        <time>2023-10-31T10:36:08Z</time>
      </trkpt>
      <trkpt lat="42.80866" lon="-0.03689">
        <ele>2101.9</ele>
        <time>2023-10-31T10:36:09Z</time>
      </trkpt>
      <trkpt lat="42.80866" lon="-0.0369">
        <ele>2102.1</ele>
        <time>2023-10-31T10:36:10Z</time>
      </trkpt>
      <trkpt lat="42.80867" lon="-0.03691">
        <ele>2102.3</ele>
        <time>2023-10-31T10:36:11Z</time>
      </trkpt>
      <trkpt lat="42.80867" lon="-0.03692">
        <ele>2102.4</ele>
        <time>2023-10-31T10:36:12Z</time>
      </trkpt>
      <trkpt lat="42.80867" lon="-0.03693">
        <ele>2102.5</ele>
        <time>2023-10-31T10:36:13Z</time>
      </trkpt>
      <trkpt lat="42.80868" lon="-0.03694">
        <ele>2102.7</ele>
        <time>2023-10-31T10:36:14Z</time>
      </trkpt>
      <trkpt lat="42.80868" lon="-0.03694">
        <ele>2102.8</ele>
        <time>2023-10-31T10:36:15Z</time>
      </trkpt>
      <trkpt lat="42.80869" lon="-0.03695">
        <ele>2102.9</ele>
        <time>2023-10-31T10:36:16Z</time>
      </trkpt>
      <trkpt lat="42.80869" lon="-0.03695">
        <ele>2103</ele>
        <time>2023-10-31T10:36:17Z</time>
      </trkpt>
      <trkpt lat="42.8087" lon="-0.03696">
        <ele>2103.2</ele>
        <time>2023-10-31T10:36:18Z</time>
      </trkpt>
      <trkpt lat="42.8087" lon="-0.03697">
        <ele>2103.4</ele>
        <time>2023-10-31T10:36:19Z</time>
      </trkpt>
      <trkpt lat="42.8087" lon="-0.03698">
        <ele>2103.5</ele>
        <time>2023-10-31T10:36:20Z</time>
      </trkpt>
      <trkpt lat="42.8087" lon="-0.03699">
        <ele>2103.6</ele>
        <time>2023-10-31T10:36:21Z</time>
      </trkpt>
      <trkpt lat="42.80871" lon="-0.037">
        <ele>2103.8</ele>
        <time>2023-10-31T10:36:22Z</time>
      </trkpt>
      <trkpt lat="42.80871" lon="-0.03701">
        <ele>2103.9</ele>
        <time>2023-10-31T10:36:23Z</time>
      </trkpt>
      <trkpt lat="42.80871" lon="-0.03702">
        <ele>2104</ele>
        <time>2023-10-31T10:36:24Z</time>
      </trkpt>
      <trkpt lat="42.80871" lon="-0.03702">
        <ele>2104.1</ele>
        <time>2023-10-31T10:36:25Z</time>
      </trkpt>
      <trkpt lat="42.80871" lon="-0.03703">
        <ele>2104.2</ele>
        <time>2023-10-31T10:36:26Z</time>
      </trkpt>
      <trkpt lat="42.80872" lon="-0.03704">
        <ele>2104.4</ele>
        <time>2023-10-31T10:36:27Z</time>
      </trkpt>
      <trkpt lat="42.80872" lon="-0.03705">
        <ele>2104.5</ele>
        <time>2023-10-31T10:36:28Z</time>
      </trkpt>
      <trkpt lat="42.80872" lon="-0.03705">
        <ele>2104.6</ele>
        <time>2023-10-31T10:36:29Z</time>
      </trkpt>
      <trkpt lat="42.80873" lon="-0.03705">
        <ele>2104.8</ele>
        <time>2023-10-31T10:36:30Z</time>
      </trkpt>
      <trkpt lat="42.80874" lon="-0.03705">
        <ele>2105</ele>
        <time>2023-10-31T10:36:31Z</time>
      </trkpt>
      <trkpt lat="42.80874" lon="-0.03705">
        <ele>2105</ele>
        <time>2023-10-31T10:36:32Z</time>
      </trkpt>
      <trkpt lat="42.80875" lon="-0.03706">
        <ele>2105.2</ele>
        <time>2023-10-31T10:36:33Z</time>
      </trkpt>
      <trkpt lat="42.80876" lon="-0.03706">
        <ele>2105.3</ele>
        <time>2023-10-31T10:36:34Z</time>
      </trkpt>
      <trkpt lat="42.80876" lon="-0.03707">
        <ele>2105.4</ele>
        <time>2023-10-31T10:36:35Z</time>
      </trkpt>
      <trkpt lat="42.80877" lon="-0.03708">
        <ele>2105.5</ele>
        <time>2023-10-31T10:36:36Z</time>
      </trkpt>
      <trkpt lat="42.80877" lon="-0.03709">
        <ele>2105.7</ele>
        <time>2023-10-31T10:36:37Z</time>
      </trkpt>
      <trkpt lat="42.80877" lon="-0.03709">
        <ele>2105.7</ele>
        <time>2023-10-31T10:36:38Z</time>
      </trkpt>
      <trkpt lat="42.80877" lon="-0.0371">
        <ele>2105.9</ele>
        <time>2023-10-31T10:36:39Z</time>
      </trkpt>
      <trkpt lat="42.80878" lon="-0.03712">
        <ele>2106</ele>
        <time>2023-10-31T10:36:40Z</time>
      </trkpt>
      <trkpt lat="42.80878" lon="-0.03712">
        <ele>2106.1</ele>
        <time>2023-10-31T10:36:41Z</time>
      </trkpt>
      <trkpt lat="42.80878" lon="-0.03713">
        <ele>2106.2</ele>
        <time>2023-10-31T10:36:42Z</time>
      </trkpt>
      <trkpt lat="42.80878" lon="-0.03714">
        <ele>2106.3</ele>
        <time>2023-10-31T10:36:43Z</time>
      </trkpt>
      <trkpt lat="42.80878" lon="-0.03715">
        <ele>2106.5</ele>
        <time>2023-10-31T10:36:44Z</time>
      </trkpt>
      <trkpt lat="42.80878" lon="-0.03715">
        <ele>2106.5</ele>
        <time>2023-10-31T10:36:45Z</time>
      </trkpt>
      <trkpt lat="42.80877" lon="-0.03716">
        <ele>2106.7</ele>
        <time>2023-10-31T10:36:46Z</time>
      </trkpt>
      <trkpt lat="42.80877" lon="-0.03717">
        <ele>2106.8</ele>
        <time>2023-10-31T10:36:47Z</time>
      </trkpt>
      <trkpt lat="42.80877" lon="-0.03718">
        <ele>2106.9</ele>
        <time>2023-10-31T10:36:48Z</time>
      </trkpt>
      <trkpt lat="42.80877" lon="-0.03719">
        <ele>2107.1</ele>
        <time>2023-10-31T10:36:49Z</time>
      </trkpt>
      <trkpt lat="42.80877" lon="-0.03719">
        <ele>2107.2</ele>
        <time>2023-10-31T10:36:50Z</time>
      </trkpt>
      <trkpt lat="42.80878" lon="-0.0372">
        <ele>2107.3</ele>
        <time>2023-10-31T10:36:51Z</time>
      </trkpt>
      <trkpt lat="42.80878" lon="-0.03721">
        <ele>2107.4</ele>
        <time>2023-10-31T10:36:52Z</time>
      </trkpt>
      <trkpt lat="42.80879" lon="-0.03721">
        <ele>2107.5</ele>
        <time>2023-10-31T10:36:53Z</time>
      </trkpt>
      <trkpt lat="42.80878" lon="-0.03722">
        <ele>2107.6</ele>
        <time>2023-10-31T10:36:54Z</time>
      </trkpt>
      <trkpt lat="42.80878" lon="-0.03723">
        <ele>2107.7</ele>
        <time>2023-10-31T10:36:55Z</time>
      </trkpt>
      <trkpt lat="42.80878" lon="-0.03724">
        <ele>2107.9</ele>
        <time>2023-10-31T10:36:56Z</time>
      </trkpt>
      <trkpt lat="42.80878" lon="-0.03725">
        <ele>2108</ele>
        <time>2023-10-31T10:36:57Z</time>
      </trkpt>
      <trkpt lat="42.80878" lon="-0.03726">
        <ele>2108.1</ele>
        <time>2023-10-31T10:36:58Z</time>
      </trkpt>
      <trkpt lat="42.80878" lon="-0.03727">
        <ele>2108.3</ele>
        <time>2023-10-31T10:36:59Z</time>
      </trkpt>
      <trkpt lat="42.80878" lon="-0.03728">
        <ele>2108.4</ele>
        <time>2023-10-31T10:37:00Z</time>
      </trkpt>
      <trkpt lat="42.80878" lon="-0.03728">
        <ele>2108.4</ele>
        <time>2023-10-31T10:37:01Z</time>
      </trkpt>
      <trkpt lat="42.80878" lon="-0.03729">
        <ele>2108.5</ele>
        <time>2023-10-31T10:37:02Z</time>
      </trkpt>
      <trkpt lat="42.80879" lon="-0.0373">
        <ele>2108.6</ele>
        <time>2023-10-31T10:37:03Z</time>
      </trkpt>
      <trkpt lat="42.80879" lon="-0.0373">
        <ele>2108.8</ele>
        <time>2023-10-31T10:37:04Z</time>
      </trkpt>
      <trkpt lat="42.8088" lon="-0.03731">
        <ele>2108.9</ele>
        <time>2023-10-31T10:37:05Z</time>
      </trkpt>
      <trkpt lat="42.80881" lon="-0.03731">
        <ele>2109</ele>
        <time>2023-10-31T10:37:06Z</time>
      </trkpt>
      <trkpt lat="42.80881" lon="-0.03731">
        <ele>2109.1</ele>
        <time>2023-10-31T10:37:07Z</time>
      </trkpt>
      <trkpt lat="42.80881" lon="-0.03732">
        <ele>2109.2</ele>
        <time>2023-10-31T10:37:08Z</time>
      </trkpt>
      <trkpt lat="42.80881" lon="-0.03733">
        <ele>2109.3</ele>
        <time>2023-10-31T10:37:09Z</time>
      </trkpt>
      <trkpt lat="42.80882" lon="-0.03734">
        <ele>2109.4</ele>
        <time>2023-10-31T10:37:10Z</time>
      </trkpt>
      <trkpt lat="42.80882" lon="-0.03734">
        <ele>2109.5</ele>
        <time>2023-10-31T10:37:11Z</time>
      </trkpt>
      <trkpt lat="42.80882" lon="-0.03735">
        <ele>2109.7</ele>
        <time>2023-10-31T10:37:12Z</time>
      </trkpt>
      <trkpt lat="42.80882" lon="-0.03736">
        <ele>2109.7</ele>
        <time>2023-10-31T10:37:13Z</time>
      </trkpt>
      <trkpt lat="42.80883" lon="-0.03737">
        <ele>2109.8</ele>
        <time>2023-10-31T10:37:14Z</time>
      </trkpt>
      <trkpt lat="42.80883" lon="-0.03736">
        <ele>2109.9</ele>
        <time>2023-10-31T10:37:15Z</time>
      </trkpt>
      <trkpt lat="42.80883" lon="-0.03737">
        <ele>2110</ele>
        <time>2023-10-31T10:37:16Z</time>
      </trkpt>
      <trkpt lat="42.80884" lon="-0.03739">
        <ele>2110.1</ele>
        <time>2023-10-31T10:37:17Z</time>
      </trkpt>
      <trkpt lat="42.80884" lon="-0.03739">
        <ele>2110.3</ele>
        <time>2023-10-31T10:37:18Z</time>
      </trkpt>
      <trkpt lat="42.80884" lon="-0.0374">
        <ele>2110.4</ele>
        <time>2023-10-31T10:37:19Z</time>
      </trkpt>
      <trkpt lat="42.80884" lon="-0.03741">
        <ele>2110.5</ele>
        <time>2023-10-31T10:37:20Z</time>
      </trkpt>
      <trkpt lat="42.80883" lon="-0.03742">
        <ele>2110.7</ele>
        <time>2023-10-31T10:37:21Z</time>
      </trkpt>
      <trkpt lat="42.80883" lon="-0.03743">
        <ele>2110.8</ele>
        <time>2023-10-31T10:37:22Z</time>
      </trkpt>
      <trkpt lat="42.80882" lon="-0.03743">
        <ele>2110.8</ele>
        <time>2023-10-31T10:37:23Z</time>
      </trkpt>
      <trkpt lat="42.80882" lon="-0.03744">
        <ele>2111</ele>
        <time>2023-10-31T10:37:24Z</time>
      </trkpt>
      <trkpt lat="42.80882" lon="-0.03744">
        <ele>2111</ele>
        <time>2023-10-31T10:37:25Z</time>
      </trkpt>
      <trkpt lat="42.80882" lon="-0.03745">
        <ele>2111.1</ele>
        <time>2023-10-31T10:37:26Z</time>
      </trkpt>
      <trkpt lat="42.80882" lon="-0.03746">
        <ele>2111.2</ele>
        <time>2023-10-31T10:37:27Z</time>
      </trkpt>
      <trkpt lat="42.80882" lon="-0.03746">
        <ele>2111.3</ele>
        <time>2023-10-31T10:37:28Z</time>
      </trkpt>
      <trkpt lat="42.80882" lon="-0.03747">
        <ele>2111.4</ele>
        <time>2023-10-31T10:37:29Z</time>
      </trkpt>
      <trkpt lat="42.80881" lon="-0.03747">
        <ele>2111.5</ele>
        <time>2023-10-31T10:37:30Z</time>
      </trkpt>
      <trkpt lat="42.80882" lon="-0.03747">
        <ele>2111.5</ele>
        <time>2023-10-31T10:37:31Z</time>
      </trkpt>
      <trkpt lat="42.80882" lon="-0.03748">
        <ele>2111.7</ele>
        <time>2023-10-31T10:37:32Z</time>
      </trkpt>
      <trkpt lat="42.80882" lon="-0.03748">
        <ele>2111.8</ele>
        <time>2023-10-31T10:37:33Z</time>
      </trkpt>
      <trkpt lat="42.80883" lon="-0.03749">
        <ele>2111.9</ele>
        <time>2023-10-31T10:37:34Z</time>
      </trkpt>
      <trkpt lat="42.80883" lon="-0.03749">
        <ele>2111.9</ele>
        <time>2023-10-31T10:37:35Z</time>
      </trkpt>
      <trkpt lat="42.80883" lon="-0.03749">
        <ele>2112</ele>
        <time>2023-10-31T10:37:36Z</time>
      </trkpt>
      <trkpt lat="42.80883" lon="-0.03749">
        <ele>2112.1</ele>
        <time>2023-10-31T10:37:37Z</time>
      </trkpt>
      <trkpt lat="42.80883" lon="-0.03751">
        <ele>2112.2</ele>
        <time>2023-10-31T10:37:38Z</time>
      </trkpt>
      <trkpt lat="42.80883" lon="-0.03751">
        <ele>2112.3</ele>
        <time>2023-10-31T10:37:39Z</time>
      </trkpt>
      <trkpt lat="42.80883" lon="-0.03752">
        <ele>2112.4</ele>
        <time>2023-10-31T10:37:40Z</time>
      </trkpt>
      <trkpt lat="42.80882" lon="-0.03752">
        <ele>2112.5</ele>
        <time>2023-10-31T10:37:41Z</time>
      </trkpt>
      <trkpt lat="42.80882" lon="-0.03753">
        <ele>2112.6</ele>
        <time>2023-10-31T10:37:42Z</time>
      </trkpt>
      <trkpt lat="42.80882" lon="-0.03754">
        <ele>2112.7</ele>
        <time>2023-10-31T10:37:43Z</time>
      </trkpt>
      <trkpt lat="42.80882" lon="-0.03754">
        <ele>2112.7</ele>
        <time>2023-10-31T10:37:44Z</time>
      </trkpt>
      <trkpt lat="42.80881" lon="-0.03755">
        <ele>2112.8</ele>
        <time>2023-10-31T10:37:45Z</time>
      </trkpt>
      <trkpt lat="42.80881" lon="-0.03756">
        <ele>2113</ele>
        <time>2023-10-31T10:37:46Z</time>
      </trkpt>
      <trkpt lat="42.80882" lon="-0.03757">
        <ele>2113.1</ele>
        <time>2023-10-31T10:37:47Z</time>
      </trkpt>
      <trkpt lat="42.80882" lon="-0.03757">
        <ele>2113.1</ele>
        <time>2023-10-31T10:37:48Z</time>
      </trkpt>
      <trkpt lat="42.80882" lon="-0.03758">
        <ele>2113.3</ele>
        <time>2023-10-31T10:37:49Z</time>
      </trkpt>
      <trkpt lat="42.80882" lon="-0.03759">
        <ele>2113.4</ele>
        <time>2023-10-31T10:37:50Z</time>
      </trkpt>
      <trkpt lat="42.80882" lon="-0.0376">
        <ele>2113.5</ele>
        <time>2023-10-31T10:37:51Z</time>
      </trkpt>
      <trkpt lat="42.80882" lon="-0.03761">
        <ele>2113.6</ele>
        <time>2023-10-31T10:37:52Z</time>
      </trkpt>
      <trkpt lat="42.80882" lon="-0.03762">
        <ele>2113.8</ele>
        <time>2023-10-31T10:37:53Z</time>
      </trkpt>
      <trkpt lat="42.80882" lon="-0.03763">
        <ele>2114</ele>
        <time>2023-10-31T10:37:54Z</time>
      </trkpt>
      <trkpt lat="42.80882" lon="-0.03764">
        <ele>2114</ele>
        <time>2023-10-31T10:37:55Z</time>
      </trkpt>
      <trkpt lat="42.80883" lon="-0.03765">
        <ele>2114.1</ele>
        <time>2023-10-31T10:37:56Z</time>
      </trkpt>
      <trkpt lat="42.80883" lon="-0.03765">
        <ele>2114.2</ele>
        <time>2023-10-31T10:37:57Z</time>
      </trkpt>
      <trkpt lat="42.80883" lon="-0.03765">
        <ele>2114.2</ele>
        <time>2023-10-31T10:37:58Z</time>
      </trkpt>
      <trkpt lat="42.80883" lon="-0.03766">
        <ele>2114.4</ele>
        <time>2023-10-31T10:37:59Z</time>
      </trkpt>
      <trkpt lat="42.80883" lon="-0.03766">
        <ele>2114.5</ele>
        <time>2023-10-31T10:38:00Z</time>
      </trkpt>
      <trkpt lat="42.80884" lon="-0.03767">
        <ele>2114.7</ele>
        <time>2023-10-31T10:38:01Z</time>
      </trkpt>
      <trkpt lat="42.80884" lon="-0.03768">
        <ele>2114.8</ele>
        <time>2023-10-31T10:38:02Z</time>
      </trkpt>
      <trkpt lat="42.80884" lon="-0.0377">
        <ele>2115</ele>
        <time>2023-10-31T10:38:03Z</time>
      </trkpt>
      <trkpt lat="42.80884" lon="-0.03771">
        <ele>2115.2</ele>
        <time>2023-10-31T10:38:04Z</time>
      </trkpt>
      <trkpt lat="42.80884" lon="-0.03771">
        <ele>2115.2</ele>
        <time>2023-10-31T10:38:05Z</time>
      </trkpt>
      <trkpt lat="42.80885" lon="-0.03772">
        <ele>2115.3</ele>
        <time>2023-10-31T10:38:06Z</time>
      </trkpt>
      <trkpt lat="42.80885" lon="-0.03772">
        <ele>2115.3</ele>
        <time>2023-10-31T10:38:07Z</time>
      </trkpt>
      <trkpt lat="42.80885" lon="-0.03773">
        <ele>2115.5</ele>
        <time>2023-10-31T10:38:08Z</time>
      </trkpt>
      <trkpt lat="42.80886" lon="-0.03774">
        <ele>2115.5</ele>
        <time>2023-10-31T10:38:09Z</time>
      </trkpt>
      <trkpt lat="42.80886" lon="-0.03774">
        <ele>2115.6</ele>
        <time>2023-10-31T10:38:10Z</time>
      </trkpt>
      <trkpt lat="42.80887" lon="-0.03774">
        <ele>2115.7</ele>
        <time>2023-10-31T10:38:11Z</time>
      </trkpt>
      <trkpt lat="42.80888" lon="-0.03775">
        <ele>2115.8</ele>
        <time>2023-10-31T10:38:12Z</time>
      </trkpt>
      <trkpt lat="42.80888" lon="-0.03776">
        <ele>2115.9</ele>
        <time>2023-10-31T10:38:13Z</time>
      </trkpt>
      <trkpt lat="42.80889" lon="-0.03776">
        <ele>2116</ele>
        <time>2023-10-31T10:38:14Z</time>
      </trkpt>
      <trkpt lat="42.8089" lon="-0.03776">
        <ele>2116.1</ele>
        <time>2023-10-31T10:38:15Z</time>
      </trkpt>
      <trkpt lat="42.8089" lon="-0.03775">
        <ele>2116.2</ele>
        <time>2023-10-31T10:38:16Z</time>
      </trkpt>
      <trkpt lat="42.80891" lon="-0.03774">
        <ele>2116.3</ele>
        <time>2023-10-31T10:38:17Z</time>
      </trkpt>
      <trkpt lat="42.80891" lon="-0.03774">
        <ele>2116.4</ele>
        <time>2023-10-31T10:38:18Z</time>
      </trkpt>
      <trkpt lat="42.80892" lon="-0.03774">
        <ele>2116.5</ele>
        <time>2023-10-31T10:38:19Z</time>
      </trkpt>
      <trkpt lat="42.80893" lon="-0.03774">
        <ele>2116.6</ele>
        <time>2023-10-31T10:38:20Z</time>
      </trkpt>
      <trkpt lat="42.80893" lon="-0.03775">
        <ele>2116.6</ele>
        <time>2023-10-31T10:38:21Z</time>
      </trkpt>
      <trkpt lat="42.80893" lon="-0.03776">
        <ele>2116.8</ele>
        <time>2023-10-31T10:38:22Z</time>
      </trkpt>
      <trkpt lat="42.80893" lon="-0.03776">
        <ele>2116.8</ele>
        <time>2023-10-31T10:38:23Z</time>
      </trkpt>
      <trkpt lat="42.80893" lon="-0.03776">
        <ele>2116.8</ele>
        <time>2023-10-31T10:38:24Z</time>
      </trkpt>
      <trkpt lat="42.80893" lon="-0.03777">
        <ele>2116.8</ele>
        <time>2023-10-31T10:38:25Z</time>
      </trkpt>
      <trkpt lat="42.80893" lon="-0.03777">
        <ele>2116.9</ele>
        <time>2023-10-31T10:38:26Z</time>
      </trkpt>
      <trkpt lat="42.80893" lon="-0.03778">
        <ele>2116.9</ele>
        <time>2023-10-31T10:38:27Z</time>
      </trkpt>
      <trkpt lat="42.80893" lon="-0.03779">
        <ele>2117</ele>
        <time>2023-10-31T10:38:28Z</time>
      </trkpt>
      <trkpt lat="42.80893" lon="-0.0378">
        <ele>2117.1</ele>
        <time>2023-10-31T10:38:29Z</time>
      </trkpt>
      <trkpt lat="42.80894" lon="-0.03781">
        <ele>2117.2</ele>
        <time>2023-10-31T10:38:30Z</time>
      </trkpt>
      <trkpt lat="42.80894" lon="-0.03782">
        <ele>2117.3</ele>
        <time>2023-10-31T10:38:31Z</time>
      </trkpt>
      <trkpt lat="42.80894" lon="-0.03782">
        <ele>2117.4</ele>
        <time>2023-10-31T10:38:32Z</time>
      </trkpt>
      <trkpt lat="42.80894" lon="-0.03783">
        <ele>2117.4</ele>
        <time>2023-10-31T10:38:33Z</time>
      </trkpt>
      <trkpt lat="42.80894" lon="-0.03784">
        <ele>2117.5</ele>
        <time>2023-10-31T10:38:34Z</time>
      </trkpt>
      <trkpt lat="42.80895" lon="-0.03785">
        <ele>2117.6</ele>
        <time>2023-10-31T10:38:35Z</time>
      </trkpt>
      <trkpt lat="42.80895" lon="-0.03785">
        <ele>2117.7</ele>
        <time>2023-10-31T10:38:36Z</time>
      </trkpt>
      <trkpt lat="42.80896" lon="-0.03786">
        <ele>2117.8</ele>
        <time>2023-10-31T10:38:37Z</time>
      </trkpt>
      <trkpt lat="42.80896" lon="-0.03786">
        <ele>2117.8</ele>
        <time>2023-10-31T10:38:38Z</time>
      </trkpt>
      <trkpt lat="42.80896" lon="-0.03787">
        <ele>2117.9</ele>
        <time>2023-10-31T10:38:39Z</time>
      </trkpt>
      <trkpt lat="42.80897" lon="-0.03788">
        <ele>2118</ele>
        <time>2023-10-31T10:38:40Z</time>
      </trkpt>
      <trkpt lat="42.80896" lon="-0.03788">
        <ele>2118</ele>
        <time>2023-10-31T10:38:41Z</time>
      </trkpt>
      <trkpt lat="42.80896" lon="-0.03789">
        <ele>2118.1</ele>
        <time>2023-10-31T10:38:42Z</time>
      </trkpt>
      <trkpt lat="42.80896" lon="-0.03789">
        <ele>2118.2</ele>
        <time>2023-10-31T10:38:43Z</time>
      </trkpt>
      <trkpt lat="42.80896" lon="-0.0379">
        <ele>2118.3</ele>
        <time>2023-10-31T10:38:44Z</time>
      </trkpt>
      <trkpt lat="42.80896" lon="-0.0379">
        <ele>2118.3</ele>
        <time>2023-10-31T10:38:45Z</time>
      </trkpt>
      <trkpt lat="42.80897" lon="-0.03791">
        <ele>2118.4</ele>
        <time>2023-10-31T10:38:46Z</time>
      </trkpt>
      <trkpt lat="42.80897" lon="-0.03792">
        <ele>2118.5</ele>
        <time>2023-10-31T10:38:47Z</time>
      </trkpt>
      <trkpt lat="42.80897" lon="-0.03792">
        <ele>2118.6</ele>
        <time>2023-10-31T10:38:48Z</time>
      </trkpt>
      <trkpt lat="42.80897" lon="-0.03792">
        <ele>2118.6</ele>
        <time>2023-10-31T10:38:49Z</time>
      </trkpt>
      <trkpt lat="42.80897" lon="-0.03793">
        <ele>2118.7</ele>
        <time>2023-10-31T10:38:50Z</time>
      </trkpt>
      <trkpt lat="42.80897" lon="-0.03793">
        <ele>2118.8</ele>
        <time>2023-10-31T10:38:51Z</time>
      </trkpt>
      <trkpt lat="42.80898" lon="-0.03794">
        <ele>2119</ele>
        <time>2023-10-31T10:38:52Z</time>
      </trkpt>
      <trkpt lat="42.80897" lon="-0.03795">
        <ele>2119</ele>
        <time>2023-10-31T10:38:53Z</time>
      </trkpt>
      <trkpt lat="42.80898" lon="-0.03795">
        <ele>2119.1</ele>
        <time>2023-10-31T10:38:54Z</time>
      </trkpt>
      <trkpt lat="42.80897" lon="-0.03795">
        <ele>2119.2</ele>
        <time>2023-10-31T10:38:55Z</time>
      </trkpt>
      <trkpt lat="42.80897" lon="-0.03795">
        <ele>2119.2</ele>
        <time>2023-10-31T10:38:56Z</time>
      </trkpt>
      <trkpt lat="42.80898" lon="-0.03795">
        <ele>2119.3</ele>
        <time>2023-10-31T10:38:57Z</time>
      </trkpt>
      <trkpt lat="42.80898" lon="-0.03796">
        <ele>2119.5</ele>
        <time>2023-10-31T10:38:58Z</time>
      </trkpt>
      <trkpt lat="42.80898" lon="-0.03796">
        <ele>2119.5</ele>
        <time>2023-10-31T10:38:59Z</time>
      </trkpt>
      <trkpt lat="42.80898" lon="-0.03796">
        <ele>2119.6</ele>
        <time>2023-10-31T10:39:00Z</time>
      </trkpt>
      <trkpt lat="42.80898" lon="-0.03795">
        <ele>2119.6</ele>
        <time>2023-10-31T10:39:01Z</time>
      </trkpt>
      <trkpt lat="42.80899" lon="-0.03796">
        <ele>2119.8</ele>
        <time>2023-10-31T10:39:02Z</time>
      </trkpt>
      <trkpt lat="42.80899" lon="-0.03795">
        <ele>2119.9</ele>
        <time>2023-10-31T10:39:03Z</time>
      </trkpt>
      <trkpt lat="42.80899" lon="-0.03795">
        <ele>2120</ele>
        <time>2023-10-31T10:39:04Z</time>
      </trkpt>
      <trkpt lat="42.809" lon="-0.03794">
        <ele>2120.1</ele>
        <time>2023-10-31T10:39:05Z</time>
      </trkpt>
      <trkpt lat="42.809" lon="-0.03795">
        <ele>2120.1</ele>
        <time>2023-10-31T10:39:06Z</time>
      </trkpt>
      <trkpt lat="42.809" lon="-0.03794">
        <ele>2120.2</ele>
        <time>2023-10-31T10:39:07Z</time>
      </trkpt>
      <trkpt lat="42.809" lon="-0.03794">
        <ele>2120.3</ele>
        <time>2023-10-31T10:39:08Z</time>
      </trkpt>
      <trkpt lat="42.80901" lon="-0.03794">
        <ele>2120.4</ele>
        <time>2023-10-31T10:39:09Z</time>
      </trkpt>
      <trkpt lat="42.80901" lon="-0.03794">
        <ele>2120.5</ele>
        <time>2023-10-31T10:39:10Z</time>
      </trkpt>
      <trkpt lat="42.80902" lon="-0.03795">
        <ele>2120.8</ele>
        <time>2023-10-31T10:39:11Z</time>
      </trkpt>
      <trkpt lat="42.80903" lon="-0.03795">
        <ele>2121</ele>
        <time>2023-10-31T10:39:12Z</time>
      </trkpt>
      <trkpt lat="42.80903" lon="-0.03796">
        <ele>2121.1</ele>
        <time>2023-10-31T10:39:13Z</time>
      </trkpt>
      <trkpt lat="42.80903" lon="-0.03796">
        <ele>2121.2</ele>
        <time>2023-10-31T10:39:14Z</time>
      </trkpt>
      <trkpt lat="42.80904" lon="-0.03797">
        <ele>2121.4</ele>
        <time>2023-10-31T10:39:15Z</time>
      </trkpt>
      <trkpt lat="42.80905" lon="-0.03798">
        <ele>2121.7</ele>
        <time>2023-10-31T10:39:16Z</time>
      </trkpt>
      <trkpt lat="42.80906" lon="-0.03798">
        <ele>2121.9</ele>
        <time>2023-10-31T10:39:17Z</time>
      </trkpt>
      <trkpt lat="42.80907" lon="-0.03799">
        <ele>2122.1</ele>
        <time>2023-10-31T10:39:18Z</time>
      </trkpt>
      <trkpt lat="42.80907" lon="-0.03799">
        <ele>2122.2</ele>
        <time>2023-10-31T10:39:19Z</time>
      </trkpt>
      <trkpt lat="42.80908" lon="-0.03799">
        <ele>2122.4</ele>
        <time>2023-10-31T10:39:20Z</time>
      </trkpt>
      <trkpt lat="42.80908" lon="-0.038">
        <ele>2122.6</ele>
        <time>2023-10-31T10:39:21Z</time>
      </trkpt>
      <trkpt lat="42.80909" lon="-0.03803">
        <ele>2123.1</ele>
        <time>2023-10-31T10:39:22Z</time>
      </trkpt>
      <trkpt lat="42.80909" lon="-0.03805">
        <ele>2123.4</ele>
        <time>2023-10-31T10:39:23Z</time>
      </trkpt>
      <trkpt lat="42.80909" lon="-0.03807">
        <ele>2123.7</ele>
        <time>2023-10-31T10:39:24Z</time>
      </trkpt>
      <trkpt lat="42.80909" lon="-0.03806">
        <ele>2123.9</ele>
        <time>2023-10-31T10:39:25Z</time>
      </trkpt>
      <trkpt lat="42.80909" lon="-0.03807">
        <ele>2124.1</ele>
        <time>2023-10-31T10:39:26Z</time>
      </trkpt>
      <trkpt lat="42.80909" lon="-0.03808">
        <ele>2124.2</ele>
        <time>2023-10-31T10:39:27Z</time>
      </trkpt>
      <trkpt lat="42.8091" lon="-0.03811">
        <ele>2124.5</ele>
        <time>2023-10-31T10:39:28Z</time>
      </trkpt>
      <trkpt lat="42.8091" lon="-0.03812">
        <ele>2124.7</ele>
        <time>2023-10-31T10:39:29Z</time>
      </trkpt>
      <trkpt lat="42.8091" lon="-0.03813">
        <ele>2124.8</ele>
        <time>2023-10-31T10:39:30Z</time>
      </trkpt>
      <trkpt lat="42.80911" lon="-0.03814">
        <ele>2124.9</ele>
        <time>2023-10-31T10:39:31Z</time>
      </trkpt>
      <trkpt lat="42.80911" lon="-0.03814">
        <ele>2125</ele>
        <time>2023-10-31T10:39:32Z</time>
      </trkpt>
      <trkpt lat="42.80911" lon="-0.03815">
        <ele>2125.1</ele>
        <time>2023-10-31T10:39:33Z</time>
      </trkpt>
      <trkpt lat="42.80911" lon="-0.03816">
        <ele>2125.2</ele>
        <time>2023-10-31T10:39:34Z</time>
      </trkpt>
      <trkpt lat="42.80912" lon="-0.03816">
        <ele>2125.3</ele>
        <time>2023-10-31T10:39:35Z</time>
      </trkpt>
      <trkpt lat="42.80912" lon="-0.03817">
        <ele>2125.4</ele>
        <time>2023-10-31T10:39:36Z</time>
      </trkpt>
      <trkpt lat="42.80913" lon="-0.03818">
        <ele>2125.5</ele>
        <time>2023-10-31T10:39:37Z</time>
      </trkpt>
      <trkpt lat="42.80914" lon="-0.03818">
        <ele>2125.6</ele>
        <time>2023-10-31T10:39:38Z</time>
      </trkpt>
      <trkpt lat="42.80914" lon="-0.03819">
        <ele>2125.7</ele>
        <time>2023-10-31T10:39:39Z</time>
      </trkpt>
      <trkpt lat="42.80914" lon="-0.0382">
        <ele>2125.8</ele>
        <time>2023-10-31T10:39:40Z</time>
      </trkpt>
      <trkpt lat="42.80915" lon="-0.0382">
        <ele>2125.8</ele>
        <time>2023-10-31T10:39:41Z</time>
      </trkpt>
      <trkpt lat="42.80915" lon="-0.03821">
        <ele>2125.9</ele>
        <time>2023-10-31T10:39:42Z</time>
      </trkpt>
      <trkpt lat="42.80915" lon="-0.03822">
        <ele>2126</ele>
        <time>2023-10-31T10:39:43Z</time>
      </trkpt>
      <trkpt lat="42.80916" lon="-0.03822">
        <ele>2126</ele>
        <time>2023-10-31T10:39:44Z</time>
      </trkpt>
      <trkpt lat="42.80916" lon="-0.03823">
        <ele>2126.1</ele>
        <time>2023-10-31T10:39:45Z</time>
      </trkpt>
      <trkpt lat="42.80916" lon="-0.03823">
        <ele>2126.1</ele>
        <time>2023-10-31T10:39:46Z</time>
      </trkpt>
      <trkpt lat="42.80915" lon="-0.03822">
        <ele>2126.2</ele>
        <time>2023-10-31T10:39:47Z</time>
      </trkpt>
      <trkpt lat="42.80915" lon="-0.03823">
        <ele>2126.2</ele>
        <time>2023-10-31T10:39:48Z</time>
      </trkpt>
      <trkpt lat="42.80915" lon="-0.03823">
        <ele>2126.2</ele>
        <time>2023-10-31T10:39:49Z</time>
      </trkpt>
      <trkpt lat="42.80915" lon="-0.03823">
        <ele>2126.2</ele>
        <time>2023-10-31T10:39:50Z</time>
      </trkpt>
      <trkpt lat="42.80915" lon="-0.03823">
        <ele>2126.3</ele>
        <time>2023-10-31T10:39:51Z</time>
      </trkpt>
      <trkpt lat="42.80915" lon="-0.03823">
        <ele>2126.3</ele>
        <time>2023-10-31T10:39:52Z</time>
      </trkpt>
      <trkpt lat="42.80915" lon="-0.03823">
        <ele>2126.4</ele>
        <time>2023-10-31T10:39:53Z</time>
      </trkpt>
      <trkpt lat="42.80915" lon="-0.03823">
        <ele>2126.4</ele>
        <time>2023-10-31T10:39:54Z</time>
      </trkpt>
      <trkpt lat="42.80915" lon="-0.03823">
        <ele>2126.4</ele>
        <time>2023-10-31T10:39:55Z</time>
      </trkpt>
      <trkpt lat="42.80915" lon="-0.03823">
        <ele>2126.4</ele>
        <time>2023-10-31T10:39:56Z</time>
      </trkpt>
      <trkpt lat="42.80915" lon="-0.03823">
        <ele>2126.5</ele>
        <time>2023-10-31T10:39:57Z</time>
      </trkpt>
      <trkpt lat="42.80915" lon="-0.03823">
        <ele>2126.5</ele>
        <time>2023-10-31T10:39:58Z</time>
      </trkpt>
      <trkpt lat="42.80917" lon="-0.03825">
        <ele>2126.8</ele>
        <time>2023-10-31T10:39:59Z</time>
      </trkpt>
      <trkpt lat="42.80915" lon="-0.03824">
        <ele>2127</ele>
        <time>2023-10-31T10:40:00Z</time>
      </trkpt>
      <trkpt lat="42.80915" lon="-0.03823">
        <ele>2127.1</ele>
        <time>2023-10-31T10:40:01Z</time>
      </trkpt>
      <trkpt lat="42.80917" lon="-0.03825">
        <ele>2127.3</ele>
        <time>2023-10-31T10:40:02Z</time>
      </trkpt>
      <trkpt lat="42.80915" lon="-0.03824">
        <ele>2127.5</ele>
        <time>2023-10-31T10:40:03Z</time>
      </trkpt>
      <trkpt lat="42.80915" lon="-0.03824">
        <ele>2127.5</ele>
        <time>2023-10-31T10:40:04Z</time>
      </trkpt>
      <trkpt lat="42.80915" lon="-0.03824">
        <ele>2127.5</ele>
        <time>2023-10-31T10:40:05Z</time>
      </trkpt>
      <trkpt lat="42.80916" lon="-0.03823">
        <ele>2127.6</ele>
        <time>2023-10-31T10:40:06Z</time>
      </trkpt>
      <trkpt lat="42.80915" lon="-0.03823">
        <ele>2127.6</ele>
        <time>2023-10-31T10:40:07Z</time>
      </trkpt>
      <trkpt lat="42.80915" lon="-0.03823">
        <ele>2127.7</ele>
        <time>2023-10-31T10:40:08Z</time>
      </trkpt>
      <trkpt lat="42.80915" lon="-0.03823">
        <ele>2127.7</ele>
        <time>2023-10-31T10:40:09Z</time>
      </trkpt>
      <trkpt lat="42.80915" lon="-0.03823">
        <ele>2127.8</ele>
        <time>2023-10-31T10:40:10Z</time>
      </trkpt>
      <trkpt lat="42.80915" lon="-0.03823">
        <ele>2127.8</ele>
        <time>2023-10-31T10:40:11Z</time>
      </trkpt>
      <trkpt lat="42.80915" lon="-0.03823">
        <ele>2127.9</ele>
        <time>2023-10-31T10:40:12Z</time>
      </trkpt>
      <trkpt lat="42.80915" lon="-0.03823">
        <ele>2128</ele>
        <time>2023-10-31T10:40:13Z</time>
      </trkpt>
      <trkpt lat="42.80915" lon="-0.03823">
        <ele>2128</ele>
        <time>2023-10-31T10:40:14Z</time>
      </trkpt>
      <trkpt lat="42.80915" lon="-0.03823">
        <ele>2128</ele>
        <time>2023-10-31T10:40:15Z</time>
      </trkpt>
      <trkpt lat="42.80915" lon="-0.03823">
        <ele>2128</ele>
        <time>2023-10-31T10:40:16Z</time>
      </trkpt>
      <trkpt lat="42.80915" lon="-0.03823">
        <ele>2128</ele>
        <time>2023-10-31T10:40:17Z</time>
      </trkpt>
      <trkpt lat="42.80915" lon="-0.03824">
        <ele>2128.1</ele>
        <time>2023-10-31T10:40:18Z</time>
      </trkpt>
      <trkpt lat="42.80915" lon="-0.03823">
        <ele>2128.1</ele>
        <time>2023-10-31T10:40:19Z</time>
      </trkpt>
      <trkpt lat="42.80915" lon="-0.03823">
        <ele>2128.2</ele>
        <time>2023-10-31T10:40:20Z</time>
      </trkpt>
      <trkpt lat="42.80915" lon="-0.03823">
        <ele>2128.2</ele>
        <time>2023-10-31T10:40:21Z</time>
      </trkpt>
      <trkpt lat="42.80915" lon="-0.03823">
        <ele>2128.2</ele>
        <time>2023-10-31T10:40:22Z</time>
      </trkpt>
      <trkpt lat="42.80915" lon="-0.03823">
        <ele>2128.3</ele>
        <time>2023-10-31T10:40:23Z</time>
      </trkpt>
      <trkpt lat="42.80915" lon="-0.03824">
        <ele>2128.4</ele>
        <time>2023-10-31T10:40:24Z</time>
      </trkpt>
      <trkpt lat="42.80915" lon="-0.03824">
        <ele>2128.4</ele>
        <time>2023-10-31T10:40:25Z</time>
      </trkpt>
      <trkpt lat="42.80915" lon="-0.03824">
        <ele>2128.4</ele>
        <time>2023-10-31T10:40:26Z</time>
      </trkpt>
      <trkpt lat="42.80916" lon="-0.03824">
        <ele>2128.6</ele>
        <time>2023-10-31T10:40:27Z</time>
      </trkpt>
      <trkpt lat="42.80915" lon="-0.03824">
        <ele>2128.6</ele>
        <time>2023-10-31T10:40:28Z</time>
      </trkpt>
      <trkpt lat="42.80915" lon="-0.03824">
        <ele>2128.7</ele>
        <time>2023-10-31T10:40:29Z</time>
      </trkpt>
      <trkpt lat="42.80915" lon="-0.03824">
        <ele>2128.7</ele>
        <time>2023-10-31T10:40:30Z</time>
      </trkpt>
      <trkpt lat="42.80913" lon="-0.03825">
        <ele>2129.2</ele>
        <time>2023-10-31T10:40:31Z</time>
      </trkpt>
      <trkpt lat="42.80915" lon="-0.03824">
        <ele>2129.7</ele>
        <time>2023-10-31T10:40:32Z</time>
      </trkpt>
      <trkpt lat="42.80916" lon="-0.03823">
        <ele>2129.8</ele>
        <time>2023-10-31T10:40:33Z</time>
      </trkpt>
      <trkpt lat="42.80915" lon="-0.03824">
        <ele>2129.8</ele>
        <time>2023-10-31T10:40:34Z</time>
      </trkpt>
      <trkpt lat="42.80915" lon="-0.03824">
        <ele>2129.8</ele>
        <time>2023-10-31T10:40:35Z</time>
      </trkpt>
      <trkpt lat="42.80915" lon="-0.03824">
        <ele>2129.8</ele>
        <time>2023-10-31T10:40:36Z</time>
      </trkpt>
      <trkpt lat="42.80915" lon="-0.03824">
        <ele>2129.8</ele>
        <time>2023-10-31T10:40:37Z</time>
      </trkpt>
      <trkpt lat="42.80915" lon="-0.03824">
        <ele>2129.8</ele>
        <time>2023-10-31T10:40:38Z</time>
      </trkpt>
      <trkpt lat="42.80915" lon="-0.03824">
        <ele>2129.8</ele>
        <time>2023-10-31T10:40:39Z</time>
      </trkpt>
      <trkpt lat="42.80915" lon="-0.03824">
        <ele>2129.8</ele>
        <time>2023-10-31T10:40:40Z</time>
      </trkpt>
      <trkpt lat="42.80915" lon="-0.03824">
        <ele>2129.8</ele>
        <time>2023-10-31T10:40:41Z</time>
      </trkpt>
      <trkpt lat="42.80915" lon="-0.03824">
        <ele>2129.8</ele>
        <time>2023-10-31T10:40:42Z</time>
      </trkpt>
      <trkpt lat="42.80915" lon="-0.03824">
        <ele>2129.8</ele>
        <time>2023-10-31T10:40:43Z</time>
      </trkpt>
      <trkpt lat="42.80915" lon="-0.03824">
        <ele>2129.8</ele>
        <time>2023-10-31T10:40:44Z</time>
      </trkpt>
      <trkpt lat="42.80915" lon="-0.03824">
        <ele>2129.8</ele>
        <time>2023-10-31T10:40:45Z</time>
      </trkpt>
      <trkpt lat="42.80915" lon="-0.03824">
        <ele>2129.8</ele>
        <time>2023-10-31T10:40:46Z</time>
      </trkpt>
      <trkpt lat="42.80915" lon="-0.03824">
        <ele>2129.8</ele>
        <time>2023-10-31T10:40:47Z</time>
      </trkpt>
      <trkpt lat="42.80915" lon="-0.03824">
        <ele>2129.8</ele>
        <time>2023-10-31T10:40:48Z</time>
      </trkpt>
      <trkpt lat="42.80915" lon="-0.03824">
        <ele>2129.8</ele>
        <time>2023-10-31T10:40:49Z</time>
      </trkpt>
      <trkpt lat="42.80915" lon="-0.03824">
        <ele>2129.8</ele>
        <time>2023-10-31T10:40:50Z</time>
      </trkpt>
      <trkpt lat="42.80915" lon="-0.03824">
        <ele>2129.8</ele>
        <time>2023-10-31T10:40:51Z</time>
      </trkpt>
      <trkpt lat="42.80915" lon="-0.03824">
        <ele>2129.8</ele>
        <time>2023-10-31T10:40:52Z</time>
      </trkpt>
      <trkpt lat="42.80915" lon="-0.03822">
        <ele>2130.1</ele>
        <time>2023-10-31T10:40:53Z</time>
      </trkpt>
      <trkpt lat="42.80915" lon="-0.03822">
        <ele>2130.1</ele>
        <time>2023-10-31T10:40:54Z</time>
      </trkpt>
      <trkpt lat="42.80915" lon="-0.03823">
        <ele>2130.2</ele>
        <time>2023-10-31T10:40:55Z</time>
      </trkpt>
      <trkpt lat="42.80915" lon="-0.03822">
        <ele>2130.3</ele>
        <time>2023-10-31T10:40:56Z</time>
      </trkpt>
      <trkpt lat="42.80915" lon="-0.03822">
        <ele>2130.4</ele>
        <time>2023-10-31T10:40:57Z</time>
      </trkpt>
      <trkpt lat="42.80915" lon="-0.03822">
        <ele>2130.4</ele>
        <time>2023-10-31T10:40:58Z</time>
      </trkpt>
      <trkpt lat="42.80915" lon="-0.03822">
        <ele>2130.5</ele>
        <time>2023-10-31T10:40:59Z</time>
      </trkpt>
      <trkpt lat="42.80914" lon="-0.03822">
        <ele>2130.8</ele>
        <time>2023-10-31T10:41:00Z</time>
      </trkpt>
      <trkpt lat="42.80915" lon="-0.03822">
        <ele>2131</ele>
        <time>2023-10-31T10:41:01Z</time>
      </trkpt>
      <trkpt lat="42.80915" lon="-0.03822">
        <ele>2131.1</ele>
        <time>2023-10-31T10:41:02Z</time>
      </trkpt>
      <trkpt lat="42.80915" lon="-0.03822">
        <ele>2131.2</ele>
        <time>2023-10-31T10:41:03Z</time>
      </trkpt>
      <trkpt lat="42.80915" lon="-0.03823">
        <ele>2131.3</ele>
        <time>2023-10-31T10:41:04Z</time>
      </trkpt>
      <trkpt lat="42.80916" lon="-0.03822">
        <ele>2131.5</ele>
        <time>2023-10-31T10:41:05Z</time>
      </trkpt>
      <trkpt lat="42.80916" lon="-0.03822">
        <ele>2131.6</ele>
        <time>2023-10-31T10:41:06Z</time>
      </trkpt>
      <trkpt lat="42.80916" lon="-0.03823">
        <ele>2131.7</ele>
        <time>2023-10-31T10:41:07Z</time>
      </trkpt>
      <trkpt lat="42.80917" lon="-0.03823">
        <ele>2131.9</ele>
        <time>2023-10-31T10:41:08Z</time>
      </trkpt>
      <trkpt lat="42.80917" lon="-0.03824">
        <ele>2132.1</ele>
        <time>2023-10-31T10:41:09Z</time>
      </trkpt>
      <trkpt lat="42.80918" lon="-0.03825">
        <ele>2132.2</ele>
        <time>2023-10-31T10:41:10Z</time>
      </trkpt>
      <trkpt lat="42.80918" lon="-0.03825">
        <ele>2132.4</ele>
        <time>2023-10-31T10:41:11Z</time>
      </trkpt>
      <trkpt lat="42.80919" lon="-0.03826">
        <ele>2132.6</ele>
        <time>2023-10-31T10:41:12Z</time>
      </trkpt>
      <trkpt lat="42.80919" lon="-0.03827">
        <ele>2132.7</ele>
        <time>2023-10-31T10:41:13Z</time>
      </trkpt>
      <trkpt lat="42.8092" lon="-0.03828">
        <ele>2132.9</ele>
        <time>2023-10-31T10:41:14Z</time>
      </trkpt>
      <trkpt lat="42.8092" lon="-0.03829">
        <ele>2133</ele>
        <time>2023-10-31T10:41:15Z</time>
      </trkpt>
      <trkpt lat="42.80919" lon="-0.0383">
        <ele>2133.2</ele>
        <time>2023-10-31T10:41:16Z</time>
      </trkpt>
      <trkpt lat="42.80919" lon="-0.0383">
        <ele>2133.3</ele>
        <time>2023-10-31T10:41:17Z</time>
      </trkpt>
      <trkpt lat="42.8092" lon="-0.03831">
        <ele>2133.4</ele>
        <time>2023-10-31T10:41:18Z</time>
      </trkpt>
      <trkpt lat="42.8092" lon="-0.03831">
        <ele>2133.5</ele>
        <time>2023-10-31T10:41:19Z</time>
      </trkpt>
      <trkpt lat="42.8092" lon="-0.03832">
        <ele>2133.6</ele>
        <time>2023-10-31T10:41:20Z</time>
      </trkpt>
      <trkpt lat="42.8092" lon="-0.03832">
        <ele>2133.7</ele>
        <time>2023-10-31T10:41:21Z</time>
      </trkpt>
      <trkpt lat="42.8092" lon="-0.03833">
        <ele>2133.8</ele>
        <time>2023-10-31T10:41:22Z</time>
      </trkpt>
      <trkpt lat="42.8092" lon="-0.03834">
        <ele>2133.9</ele>
        <time>2023-10-31T10:41:23Z</time>
      </trkpt>
      <trkpt lat="42.8092" lon="-0.03835">
        <ele>2134</ele>
        <time>2023-10-31T10:41:24Z</time>
      </trkpt>
      <trkpt lat="42.80921" lon="-0.03835">
        <ele>2134.1</ele>
        <time>2023-10-31T10:41:25Z</time>
      </trkpt>
      <trkpt lat="42.80921" lon="-0.03836">
        <ele>2134.2</ele>
        <time>2023-10-31T10:41:26Z</time>
      </trkpt>
      <trkpt lat="42.80921" lon="-0.03837">
        <ele>2134.3</ele>
        <time>2023-10-31T10:41:27Z</time>
      </trkpt>
      <trkpt lat="42.80921" lon="-0.03838">
        <ele>2134.4</ele>
        <time>2023-10-31T10:41:28Z</time>
      </trkpt>
      <trkpt lat="42.80921" lon="-0.03838">
        <ele>2134.5</ele>
        <time>2023-10-31T10:41:29Z</time>
      </trkpt>
      <trkpt lat="42.80921" lon="-0.03839">
        <ele>2134.6</ele>
        <time>2023-10-31T10:41:30Z</time>
      </trkpt>
      <trkpt lat="42.80921" lon="-0.03839">
        <ele>2134.7</ele>
        <time>2023-10-31T10:41:31Z</time>
      </trkpt>
      <trkpt lat="42.80921" lon="-0.0384">
        <ele>2134.8</ele>
        <time>2023-10-31T10:41:32Z</time>
      </trkpt>
      <trkpt lat="42.80921" lon="-0.03841">
        <ele>2134.9</ele>
        <time>2023-10-31T10:41:33Z</time>
      </trkpt>
      <trkpt lat="42.80922" lon="-0.03841">
        <ele>2135</ele>
        <time>2023-10-31T10:41:34Z</time>
      </trkpt>
      <trkpt lat="42.80922" lon="-0.03842">
        <ele>2135.1</ele>
        <time>2023-10-31T10:41:35Z</time>
      </trkpt>
      <trkpt lat="42.80921" lon="-0.03842">
        <ele>2135.1</ele>
        <time>2023-10-31T10:41:36Z</time>
      </trkpt>
      <trkpt lat="42.80921" lon="-0.03843">
        <ele>2135.2</ele>
        <time>2023-10-31T10:41:37Z</time>
      </trkpt>
      <trkpt lat="42.80921" lon="-0.03844">
        <ele>2135.3</ele>
        <time>2023-10-31T10:41:38Z</time>
      </trkpt>
      <trkpt lat="42.80921" lon="-0.03844">
        <ele>2135.4</ele>
        <time>2023-10-31T10:41:39Z</time>
      </trkpt>
      <trkpt lat="42.8092" lon="-0.03845">
        <ele>2135.5</ele>
        <time>2023-10-31T10:41:40Z</time>
      </trkpt>
      <trkpt lat="42.8092" lon="-0.03846">
        <ele>2135.7</ele>
        <time>2023-10-31T10:41:41Z</time>
      </trkpt>
      <trkpt lat="42.80921" lon="-0.03847">
        <ele>2135.7</ele>
        <time>2023-10-31T10:41:42Z</time>
      </trkpt>
      <trkpt lat="42.80921" lon="-0.03847">
        <ele>2135.8</ele>
        <time>2023-10-31T10:41:43Z</time>
      </trkpt>
      <trkpt lat="42.80921" lon="-0.03848">
        <ele>2135.9</ele>
        <time>2023-10-31T10:41:44Z</time>
      </trkpt>
      <trkpt lat="42.80922" lon="-0.03849">
        <ele>2136</ele>
        <time>2023-10-31T10:41:45Z</time>
      </trkpt>
      <trkpt lat="42.80922" lon="-0.0385">
        <ele>2136.1</ele>
        <time>2023-10-31T10:41:46Z</time>
      </trkpt>
      <trkpt lat="42.80923" lon="-0.03851">
        <ele>2136.2</ele>
        <time>2023-10-31T10:41:47Z</time>
      </trkpt>
      <trkpt lat="42.80923" lon="-0.03851">
        <ele>2136.3</ele>
        <time>2023-10-31T10:41:48Z</time>
      </trkpt>
      <trkpt lat="42.80924" lon="-0.03851">
        <ele>2136.4</ele>
        <time>2023-10-31T10:41:49Z</time>
      </trkpt>
      <trkpt lat="42.80924" lon="-0.03851">
        <ele>2136.5</ele>
        <time>2023-10-31T10:41:50Z</time>
      </trkpt>
      <trkpt lat="42.80925" lon="-0.03851">
        <ele>2136.6</ele>
        <time>2023-10-31T10:41:51Z</time>
      </trkpt>
      <trkpt lat="42.80925" lon="-0.03852">
        <ele>2136.7</ele>
        <time>2023-10-31T10:41:52Z</time>
      </trkpt>
      <trkpt lat="42.80926" lon="-0.03853">
        <ele>2136.9</ele>
        <time>2023-10-31T10:41:53Z</time>
      </trkpt>
      <trkpt lat="42.80926" lon="-0.03854">
        <ele>2137</ele>
        <time>2023-10-31T10:41:54Z</time>
      </trkpt>
      <trkpt lat="42.80926" lon="-0.03855">
        <ele>2137.1</ele>
        <time>2023-10-31T10:41:55Z</time>
      </trkpt>
      <trkpt lat="42.80926" lon="-0.03856">
        <ele>2137.2</ele>
        <time>2023-10-31T10:41:56Z</time>
      </trkpt>
      <trkpt lat="42.80926" lon="-0.03857">
        <ele>2137.4</ele>
        <time>2023-10-31T10:41:57Z</time>
      </trkpt>
      <trkpt lat="42.80926" lon="-0.03858">
        <ele>2137.5</ele>
        <time>2023-10-31T10:41:58Z</time>
      </trkpt>
      <trkpt lat="42.80926" lon="-0.03859">
        <ele>2137.6</ele>
        <time>2023-10-31T10:41:59Z</time>
      </trkpt>
      <trkpt lat="42.80926" lon="-0.0386">
        <ele>2137.7</ele>
        <time>2023-10-31T10:42:00Z</time>
      </trkpt>
      <trkpt lat="42.80927" lon="-0.0386">
        <ele>2137.8</ele>
        <time>2023-10-31T10:42:01Z</time>
      </trkpt>
      <trkpt lat="42.80927" lon="-0.03861">
        <ele>2137.9</ele>
        <time>2023-10-31T10:42:02Z</time>
      </trkpt>
      <trkpt lat="42.80927" lon="-0.03862">
        <ele>2138</ele>
        <time>2023-10-31T10:42:03Z</time>
      </trkpt>
      <trkpt lat="42.80928" lon="-0.03862">
        <ele>2138.1</ele>
        <time>2023-10-31T10:42:04Z</time>
      </trkpt>
      <trkpt lat="42.80928" lon="-0.03863">
        <ele>2138.2</ele>
        <time>2023-10-31T10:42:05Z</time>
      </trkpt>
      <trkpt lat="42.80929" lon="-0.03864">
        <ele>2138.4</ele>
        <time>2023-10-31T10:42:06Z</time>
      </trkpt>
      <trkpt lat="42.8093" lon="-0.03865">
        <ele>2138.5</ele>
        <time>2023-10-31T10:42:07Z</time>
      </trkpt>
      <trkpt lat="42.8093" lon="-0.03866">
        <ele>2138.7</ele>
        <time>2023-10-31T10:42:08Z</time>
      </trkpt>
      <trkpt lat="42.80931" lon="-0.03867">
        <ele>2138.8</ele>
        <time>2023-10-31T10:42:09Z</time>
      </trkpt>
      <trkpt lat="42.80931" lon="-0.03867">
        <ele>2138.9</ele>
        <time>2023-10-31T10:42:10Z</time>
      </trkpt>
      <trkpt lat="42.8093" lon="-0.03868">
        <ele>2139.1</ele>
        <time>2023-10-31T10:42:11Z</time>
      </trkpt>
      <trkpt lat="42.80932" lon="-0.03869">
        <ele>2139.5</ele>
        <time>2023-10-31T10:42:12Z</time>
      </trkpt>
      <trkpt lat="42.80933" lon="-0.03869">
        <ele>2139.7</ele>
        <time>2023-10-31T10:42:13Z</time>
      </trkpt>
      <trkpt lat="42.80934" lon="-0.0387">
        <ele>2139.9</ele>
        <time>2023-10-31T10:42:14Z</time>
      </trkpt>
      <trkpt lat="42.80935" lon="-0.0387">
        <ele>2140</ele>
        <time>2023-10-31T10:42:15Z</time>
      </trkpt>
      <trkpt lat="42.80935" lon="-0.03871">
        <ele>2140.1</ele>
        <time>2023-10-31T10:42:16Z</time>
      </trkpt>
      <trkpt lat="42.80936" lon="-0.03871">
        <ele>2140.3</ele>
        <time>2023-10-31T10:42:17Z</time>
      </trkpt>
      <trkpt lat="42.80937" lon="-0.03872">
        <ele>2140.4</ele>
        <time>2023-10-31T10:42:18Z</time>
      </trkpt>
      <trkpt lat="42.80937" lon="-0.03872">
        <ele>2140.5</ele>
        <time>2023-10-31T10:42:19Z</time>
      </trkpt>
      <trkpt lat="42.80937" lon="-0.03872">
        <ele>2140.6</ele>
        <time>2023-10-31T10:42:20Z</time>
      </trkpt>
      <trkpt lat="42.80937" lon="-0.03873">
        <ele>2140.7</ele>
        <time>2023-10-31T10:42:21Z</time>
      </trkpt>
      <trkpt lat="42.80938" lon="-0.03874">
        <ele>2140.8</ele>
        <time>2023-10-31T10:42:22Z</time>
      </trkpt>
      <trkpt lat="42.80938" lon="-0.03875">
        <ele>2140.9</ele>
        <time>2023-10-31T10:42:23Z</time>
      </trkpt>
      <trkpt lat="42.80939" lon="-0.03875">
        <ele>2141.1</ele>
        <time>2023-10-31T10:42:24Z</time>
      </trkpt>
      <trkpt lat="42.80939" lon="-0.03876">
        <ele>2141.2</ele>
        <time>2023-10-31T10:42:25Z</time>
      </trkpt>
      <trkpt lat="42.80939" lon="-0.03877">
        <ele>2141.3</ele>
        <time>2023-10-31T10:42:26Z</time>
      </trkpt>
      <trkpt lat="42.80939" lon="-0.03878">
        <ele>2141.5</ele>
        <time>2023-10-31T10:42:27Z</time>
      </trkpt>
      <trkpt lat="42.80938" lon="-0.03879">
        <ele>2141.7</ele>
        <time>2023-10-31T10:42:28Z</time>
      </trkpt>
      <trkpt lat="42.80938" lon="-0.03881">
        <ele>2141.8</ele>
        <time>2023-10-31T10:42:29Z</time>
      </trkpt>
      <trkpt lat="42.80938" lon="-0.03882">
        <ele>2142</ele>
        <time>2023-10-31T10:42:30Z</time>
      </trkpt>
      <trkpt lat="42.80939" lon="-0.03883">
        <ele>2142.2</ele>
        <time>2023-10-31T10:42:31Z</time>
      </trkpt>
      <trkpt lat="42.80939" lon="-0.03884">
        <ele>2142.4</ele>
        <time>2023-10-31T10:42:32Z</time>
      </trkpt>
      <trkpt lat="42.8094" lon="-0.03884">
        <ele>2142.5</ele>
        <time>2023-10-31T10:42:33Z</time>
      </trkpt>
      <trkpt lat="42.80941" lon="-0.03885">
        <ele>2142.7</ele>
        <time>2023-10-31T10:42:34Z</time>
      </trkpt>
      <trkpt lat="42.80941" lon="-0.03886">
        <ele>2142.8</ele>
        <time>2023-10-31T10:42:35Z</time>
      </trkpt>
      <trkpt lat="42.80941" lon="-0.03888">
        <ele>2143</ele>
        <time>2023-10-31T10:42:36Z</time>
      </trkpt>
      <trkpt lat="42.80941" lon="-0.03888">
        <ele>2143.2</ele>
        <time>2023-10-31T10:42:37Z</time>
      </trkpt>
      <trkpt lat="42.80941" lon="-0.03889">
        <ele>2143.2</ele>
        <time>2023-10-31T10:42:38Z</time>
      </trkpt>
      <trkpt lat="42.80941" lon="-0.03889">
        <ele>2143.3</ele>
        <time>2023-10-31T10:42:39Z</time>
      </trkpt>
      <trkpt lat="42.80941" lon="-0.0389">
        <ele>2143.4</ele>
        <time>2023-10-31T10:42:40Z</time>
      </trkpt>
      <trkpt lat="42.80942" lon="-0.0389">
        <ele>2143.6</ele>
        <time>2023-10-31T10:42:41Z</time>
      </trkpt>
      <trkpt lat="42.80942" lon="-0.0389">
        <ele>2143.7</ele>
        <time>2023-10-31T10:42:42Z</time>
      </trkpt>
      <trkpt lat="42.80943" lon="-0.0389">
        <ele>2143.8</ele>
        <time>2023-10-31T10:42:43Z</time>
      </trkpt>
      <trkpt lat="42.80943" lon="-0.0389">
        <ele>2143.8</ele>
        <time>2023-10-31T10:42:44Z</time>
      </trkpt>
      <trkpt lat="42.80944" lon="-0.03891">
        <ele>2144</ele>
        <time>2023-10-31T10:42:45Z</time>
      </trkpt>
      <trkpt lat="42.80944" lon="-0.03892">
        <ele>2144</ele>
        <time>2023-10-31T10:42:46Z</time>
      </trkpt>
      <trkpt lat="42.80944" lon="-0.03891">
        <ele>2144.1</ele>
        <time>2023-10-31T10:42:47Z</time>
      </trkpt>
      <trkpt lat="42.80944" lon="-0.03892">
        <ele>2144.2</ele>
        <time>2023-10-31T10:42:48Z</time>
      </trkpt>
      <trkpt lat="42.80944" lon="-0.03893">
        <ele>2144.3</ele>
        <time>2023-10-31T10:42:49Z</time>
      </trkpt>
      <trkpt lat="42.80944" lon="-0.03894">
        <ele>2144.4</ele>
        <time>2023-10-31T10:42:50Z</time>
      </trkpt>
      <trkpt lat="42.80943" lon="-0.03894">
        <ele>2144.5</ele>
        <time>2023-10-31T10:42:51Z</time>
      </trkpt>
      <trkpt lat="42.80943" lon="-0.03895">
        <ele>2144.6</ele>
        <time>2023-10-31T10:42:52Z</time>
      </trkpt>
      <trkpt lat="42.80943" lon="-0.03895">
        <ele>2144.7</ele>
        <time>2023-10-31T10:42:53Z</time>
      </trkpt>
      <trkpt lat="42.80942" lon="-0.03896">
        <ele>2144.9</ele>
        <time>2023-10-31T10:42:54Z</time>
      </trkpt>
      <trkpt lat="42.80942" lon="-0.03897">
        <ele>2145</ele>
        <time>2023-10-31T10:42:55Z</time>
      </trkpt>
      <trkpt lat="42.80942" lon="-0.03898">
        <ele>2145.1</ele>
        <time>2023-10-31T10:42:56Z</time>
      </trkpt>
      <trkpt lat="42.80942" lon="-0.03899">
        <ele>2145.3</ele>
        <time>2023-10-31T10:42:57Z</time>
      </trkpt>
      <trkpt lat="42.80942" lon="-0.039">
        <ele>2145.4</ele>
        <time>2023-10-31T10:42:58Z</time>
      </trkpt>
      <trkpt lat="42.80942" lon="-0.039">
        <ele>2145.4</ele>
        <time>2023-10-31T10:42:59Z</time>
      </trkpt>
      <trkpt lat="42.80943" lon="-0.03902">
        <ele>2145.7</ele>
        <time>2023-10-31T10:43:00Z</time>
      </trkpt>
      <trkpt lat="42.80943" lon="-0.03903">
        <ele>2145.9</ele>
        <time>2023-10-31T10:43:01Z</time>
      </trkpt>
      <trkpt lat="42.80943" lon="-0.03904">
        <ele>2146</ele>
        <time>2023-10-31T10:43:02Z</time>
      </trkpt>
      <trkpt lat="42.80943" lon="-0.03904">
        <ele>2146</ele>
        <time>2023-10-31T10:43:03Z</time>
      </trkpt>
      <trkpt lat="42.80942" lon="-0.03906">
        <ele>2146.3</ele>
        <time>2023-10-31T10:43:04Z</time>
      </trkpt>
      <trkpt lat="42.80942" lon="-0.03907">
        <ele>2146.5</ele>
        <time>2023-10-31T10:43:05Z</time>
      </trkpt>
      <trkpt lat="42.80942" lon="-0.03908">
        <ele>2146.6</ele>
        <time>2023-10-31T10:43:06Z</time>
      </trkpt>
      <trkpt lat="42.80941" lon="-0.03909">
        <ele>2146.8</ele>
        <time>2023-10-31T10:43:07Z</time>
      </trkpt>
      <trkpt lat="42.80941" lon="-0.0391">
        <ele>2146.9</ele>
        <time>2023-10-31T10:43:08Z</time>
      </trkpt>
      <trkpt lat="42.80941" lon="-0.03911">
        <ele>2147.1</ele>
        <time>2023-10-31T10:43:09Z</time>
      </trkpt>
      <trkpt lat="42.80941" lon="-0.03912">
        <ele>2147.3</ele>
        <time>2023-10-31T10:43:10Z</time>
      </trkpt>
      <trkpt lat="42.80941" lon="-0.03913">
        <ele>2147.5</ele>
        <time>2023-10-31T10:43:11Z</time>
      </trkpt>
      <trkpt lat="42.80942" lon="-0.03914">
        <ele>2147.6</ele>
        <time>2023-10-31T10:43:12Z</time>
      </trkpt>
      <trkpt lat="42.80942" lon="-0.03915">
        <ele>2147.8</ele>
        <time>2023-10-31T10:43:13Z</time>
      </trkpt>
      <trkpt lat="42.80943" lon="-0.03916">
        <ele>2148.1</ele>
        <time>2023-10-31T10:43:14Z</time>
      </trkpt>
      <trkpt lat="42.80943" lon="-0.03917">
        <ele>2148.3</ele>
        <time>2023-10-31T10:43:15Z</time>
      </trkpt>
      <trkpt lat="42.80944" lon="-0.03917">
        <ele>2148.4</ele>
        <time>2023-10-31T10:43:16Z</time>
      </trkpt>
      <trkpt lat="42.80945" lon="-0.03917">
        <ele>2148.6</ele>
        <time>2023-10-31T10:43:17Z</time>
      </trkpt>
      <trkpt lat="42.80946" lon="-0.03918">
        <ele>2148.9</ele>
        <time>2023-10-31T10:43:18Z</time>
      </trkpt>
      <trkpt lat="42.80946" lon="-0.03917">
        <ele>2149.1</ele>
        <time>2023-10-31T10:43:19Z</time>
      </trkpt>
      <trkpt lat="42.80947" lon="-0.03918">
        <ele>2149.2</ele>
        <time>2023-10-31T10:43:20Z</time>
      </trkpt>
      <trkpt lat="42.80947" lon="-0.03918">
        <ele>2149.4</ele>
        <time>2023-10-31T10:43:21Z</time>
      </trkpt>
      <trkpt lat="42.80948" lon="-0.03918">
        <ele>2149.6</ele>
        <time>2023-10-31T10:43:22Z</time>
      </trkpt>
      <trkpt lat="42.80948" lon="-0.03919">
        <ele>2149.7</ele>
        <time>2023-10-31T10:43:23Z</time>
      </trkpt>
      <trkpt lat="42.80949" lon="-0.03919">
        <ele>2149.9</ele>
        <time>2023-10-31T10:43:24Z</time>
      </trkpt>
      <trkpt lat="42.80949" lon="-0.03919">
        <ele>2150.1</ele>
        <time>2023-10-31T10:43:25Z</time>
      </trkpt>
      <trkpt lat="42.8095" lon="-0.03919">
        <ele>2150.1</ele>
        <time>2023-10-31T10:43:26Z</time>
      </trkpt>
      <trkpt lat="42.8095" lon="-0.0392">
        <ele>2150.3</ele>
        <time>2023-10-31T10:43:27Z</time>
      </trkpt>
      <trkpt lat="42.8095" lon="-0.0392">
        <ele>2150.4</ele>
        <time>2023-10-31T10:43:28Z</time>
      </trkpt>
      <trkpt lat="42.8095" lon="-0.03921">
        <ele>2150.6</ele>
        <time>2023-10-31T10:43:29Z</time>
      </trkpt>
      <trkpt lat="42.80951" lon="-0.03922">
        <ele>2150.8</ele>
        <time>2023-10-31T10:43:30Z</time>
      </trkpt>
      <trkpt lat="42.80951" lon="-0.03922">
        <ele>2150.9</ele>
        <time>2023-10-31T10:43:31Z</time>
      </trkpt>
      <trkpt lat="42.80951" lon="-0.03923">
        <ele>2151</ele>
        <time>2023-10-31T10:43:32Z</time>
      </trkpt>
      <trkpt lat="42.80951" lon="-0.03924">
        <ele>2151.3</ele>
        <time>2023-10-31T10:43:33Z</time>
      </trkpt>
      <trkpt lat="42.80952" lon="-0.03924">
        <ele>2151.5</ele>
        <time>2023-10-31T10:43:34Z</time>
      </trkpt>
      <trkpt lat="42.80953" lon="-0.03924">
        <ele>2151.8</ele>
        <time>2023-10-31T10:43:35Z</time>
      </trkpt>
      <trkpt lat="42.80953" lon="-0.03924">
        <ele>2152</ele>
        <time>2023-10-31T10:43:36Z</time>
      </trkpt>
      <trkpt lat="42.80953" lon="-0.03925">
        <ele>2152.1</ele>
        <time>2023-10-31T10:43:37Z</time>
      </trkpt>
      <trkpt lat="42.80954" lon="-0.03926">
        <ele>2152.4</ele>
        <time>2023-10-31T10:43:38Z</time>
      </trkpt>
      <trkpt lat="42.80954" lon="-0.03926">
        <ele>2152.5</ele>
        <time>2023-10-31T10:43:39Z</time>
      </trkpt>
      <trkpt lat="42.80954" lon="-0.03927">
        <ele>2152.6</ele>
        <time>2023-10-31T10:43:40Z</time>
      </trkpt>
      <trkpt lat="42.80954" lon="-0.03927">
        <ele>2152.6</ele>
        <time>2023-10-31T10:43:41Z</time>
      </trkpt>
      <trkpt lat="42.80954" lon="-0.03927">
        <ele>2152.8</ele>
        <time>2023-10-31T10:43:42Z</time>
      </trkpt>
      <trkpt lat="42.80955" lon="-0.03928">
        <ele>2153</ele>
        <time>2023-10-31T10:43:43Z</time>
      </trkpt>
      <trkpt lat="42.80954" lon="-0.03929">
        <ele>2153.2</ele>
        <time>2023-10-31T10:43:44Z</time>
      </trkpt>
      <trkpt lat="42.80954" lon="-0.03929">
        <ele>2153.3</ele>
        <time>2023-10-31T10:43:45Z</time>
      </trkpt>
      <trkpt lat="42.80955" lon="-0.03929">
        <ele>2153.5</ele>
        <time>2023-10-31T10:43:46Z</time>
      </trkpt>
      <trkpt lat="42.80955" lon="-0.03929">
        <ele>2153.6</ele>
        <time>2023-10-31T10:43:47Z</time>
      </trkpt>
      <trkpt lat="42.80955" lon="-0.03929">
        <ele>2153.7</ele>
        <time>2023-10-31T10:43:48Z</time>
      </trkpt>
      <trkpt lat="42.80955" lon="-0.03929">
        <ele>2153.8</ele>
        <time>2023-10-31T10:43:49Z</time>
      </trkpt>
      <trkpt lat="42.80956" lon="-0.03931">
        <ele>2154.1</ele>
        <time>2023-10-31T10:43:50Z</time>
      </trkpt>
      <trkpt lat="42.80955" lon="-0.03931">
        <ele>2154.3</ele>
        <time>2023-10-31T10:43:51Z</time>
      </trkpt>
      <trkpt lat="42.80955" lon="-0.03932">
        <ele>2154.4</ele>
        <time>2023-10-31T10:43:52Z</time>
      </trkpt>
      <trkpt lat="42.80955" lon="-0.03932">
        <ele>2154.5</ele>
        <time>2023-10-31T10:43:53Z</time>
      </trkpt>
      <trkpt lat="42.80955" lon="-0.03932">
        <ele>2154.6</ele>
        <time>2023-10-31T10:43:54Z</time>
      </trkpt>
      <trkpt lat="42.80955" lon="-0.03933">
        <ele>2154.7</ele>
        <time>2023-10-31T10:43:55Z</time>
      </trkpt>
      <trkpt lat="42.80956" lon="-0.03933">
        <ele>2154.9</ele>
        <time>2023-10-31T10:43:56Z</time>
      </trkpt>
      <trkpt lat="42.80956" lon="-0.03933">
        <ele>2155</ele>
        <time>2023-10-31T10:43:57Z</time>
      </trkpt>
      <trkpt lat="42.80956" lon="-0.03933">
        <ele>2155.1</ele>
        <time>2023-10-31T10:43:58Z</time>
      </trkpt>
      <trkpt lat="42.80956" lon="-0.03934">
        <ele>2155.2</ele>
        <time>2023-10-31T10:43:59Z</time>
      </trkpt>
      <trkpt lat="42.80956" lon="-0.03934">
        <ele>2155.3</ele>
        <time>2023-10-31T10:44:00Z</time>
      </trkpt>
      <trkpt lat="42.80956" lon="-0.03934">
        <ele>2155.4</ele>
        <time>2023-10-31T10:44:01Z</time>
      </trkpt>
      <trkpt lat="42.80957" lon="-0.03935">
        <ele>2155.4</ele>
        <time>2023-10-31T10:44:02Z</time>
      </trkpt>
      <trkpt lat="42.80957" lon="-0.03935">
        <ele>2155.7</ele>
        <time>2023-10-31T10:44:03Z</time>
      </trkpt>
      <trkpt lat="42.80958" lon="-0.03936">
        <ele>2155.9</ele>
        <time>2023-10-31T10:44:04Z</time>
      </trkpt>
      <trkpt lat="42.80958" lon="-0.03936">
        <ele>2156</ele>
        <time>2023-10-31T10:44:05Z</time>
      </trkpt>
      <trkpt lat="42.80959" lon="-0.03937">
        <ele>2156.2</ele>
        <time>2023-10-31T10:44:06Z</time>
      </trkpt>
      <trkpt lat="42.80959" lon="-0.03938">
        <ele>2156.3</ele>
        <time>2023-10-31T10:44:07Z</time>
      </trkpt>
      <trkpt lat="42.80959" lon="-0.03938">
        <ele>2156.5</ele>
        <time>2023-10-31T10:44:08Z</time>
      </trkpt>
      <trkpt lat="42.8096" lon="-0.03938">
        <ele>2156.6</ele>
        <time>2023-10-31T10:44:09Z</time>
      </trkpt>
      <trkpt lat="42.8096" lon="-0.03938">
        <ele>2156.7</ele>
        <time>2023-10-31T10:44:10Z</time>
      </trkpt>
      <trkpt lat="42.8096" lon="-0.03939">
        <ele>2156.8</ele>
        <time>2023-10-31T10:44:11Z</time>
      </trkpt>
      <trkpt lat="42.8096" lon="-0.0394">
        <ele>2156.9</ele>
        <time>2023-10-31T10:44:12Z</time>
      </trkpt>
      <trkpt lat="42.8096" lon="-0.0394">
        <ele>2157.1</ele>
        <time>2023-10-31T10:44:13Z</time>
      </trkpt>
      <trkpt lat="42.8096" lon="-0.03941">
        <ele>2157.3</ele>
        <time>2023-10-31T10:44:14Z</time>
      </trkpt>
      <trkpt lat="42.8096" lon="-0.03942">
        <ele>2157.5</ele>
        <time>2023-10-31T10:44:15Z</time>
      </trkpt>
      <trkpt lat="42.8096" lon="-0.03943">
        <ele>2157.6</ele>
        <time>2023-10-31T10:44:16Z</time>
      </trkpt>
      <trkpt lat="42.8096" lon="-0.03943">
        <ele>2157.7</ele>
        <time>2023-10-31T10:44:17Z</time>
      </trkpt>
      <trkpt lat="42.8096" lon="-0.03944">
        <ele>2157.8</ele>
        <time>2023-10-31T10:44:18Z</time>
      </trkpt>
      <trkpt lat="42.8096" lon="-0.03945">
        <ele>2157.9</ele>
        <time>2023-10-31T10:44:19Z</time>
      </trkpt>
      <trkpt lat="42.8096" lon="-0.03945">
        <ele>2158.1</ele>
        <time>2023-10-31T10:44:20Z</time>
      </trkpt>
      <trkpt lat="42.8096" lon="-0.03946">
        <ele>2158.2</ele>
        <time>2023-10-31T10:44:21Z</time>
      </trkpt>
      <trkpt lat="42.8096" lon="-0.03947">
        <ele>2158.3</ele>
        <time>2023-10-31T10:44:22Z</time>
      </trkpt>
      <trkpt lat="42.8096" lon="-0.03947">
        <ele>2158.5</ele>
        <time>2023-10-31T10:44:23Z</time>
      </trkpt>
      <trkpt lat="42.8096" lon="-0.03949">
        <ele>2158.7</ele>
        <time>2023-10-31T10:44:24Z</time>
      </trkpt>
      <trkpt lat="42.8096" lon="-0.03949">
        <ele>2158.9</ele>
        <time>2023-10-31T10:44:25Z</time>
      </trkpt>
      <trkpt lat="42.80961" lon="-0.0395">
        <ele>2159.1</ele>
        <time>2023-10-31T10:44:26Z</time>
      </trkpt>
      <trkpt lat="42.80961" lon="-0.03951">
        <ele>2159.2</ele>
        <time>2023-10-31T10:44:27Z</time>
      </trkpt>
      <trkpt lat="42.80962" lon="-0.03951">
        <ele>2159.4</ele>
        <time>2023-10-31T10:44:28Z</time>
      </trkpt>
      <trkpt lat="42.80962" lon="-0.03951">
        <ele>2159.5</ele>
        <time>2023-10-31T10:44:29Z</time>
      </trkpt>
      <trkpt lat="42.80963" lon="-0.03952">
        <ele>2159.7</ele>
        <time>2023-10-31T10:44:30Z</time>
      </trkpt>
      <trkpt lat="42.80963" lon="-0.03952">
        <ele>2159.8</ele>
        <time>2023-10-31T10:44:31Z</time>
      </trkpt>
      <trkpt lat="42.80963" lon="-0.03953">
        <ele>2160</ele>
        <time>2023-10-31T10:44:32Z</time>
      </trkpt>
      <trkpt lat="42.80964" lon="-0.03954">
        <ele>2160.2</ele>
        <time>2023-10-31T10:44:33Z</time>
      </trkpt>
      <trkpt lat="42.80964" lon="-0.03955">
        <ele>2160.4</ele>
        <time>2023-10-31T10:44:34Z</time>
      </trkpt>
      <trkpt lat="42.80964" lon="-0.03955">
        <ele>2160.5</ele>
        <time>2023-10-31T10:44:35Z</time>
      </trkpt>
      <trkpt lat="42.80965" lon="-0.03955">
        <ele>2160.6</ele>
        <time>2023-10-31T10:44:36Z</time>
      </trkpt>
      <trkpt lat="42.80965" lon="-0.03956">
        <ele>2160.8</ele>
        <time>2023-10-31T10:44:37Z</time>
      </trkpt>
      <trkpt lat="42.80965" lon="-0.03955">
        <ele>2160.9</ele>
        <time>2023-10-31T10:44:38Z</time>
      </trkpt>
      <trkpt lat="42.80964" lon="-0.03956">
        <ele>2161.1</ele>
        <time>2023-10-31T10:44:39Z</time>
      </trkpt>
      <trkpt lat="42.80964" lon="-0.03956">
        <ele>2161.1</ele>
        <time>2023-10-31T10:44:40Z</time>
      </trkpt>
      <trkpt lat="42.80964" lon="-0.03956">
        <ele>2161.2</ele>
        <time>2023-10-31T10:44:41Z</time>
      </trkpt>
      <trkpt lat="42.80964" lon="-0.03956">
        <ele>2161.3</ele>
        <time>2023-10-31T10:44:42Z</time>
      </trkpt>
      <trkpt lat="42.80963" lon="-0.03956">
        <ele>2161.5</ele>
        <time>2023-10-31T10:44:43Z</time>
      </trkpt>
      <trkpt lat="42.80963" lon="-0.03957">
        <ele>2161.6</ele>
        <time>2023-10-31T10:44:44Z</time>
      </trkpt>
      <trkpt lat="42.80963" lon="-0.03958">
        <ele>2161.8</ele>
        <time>2023-10-31T10:44:45Z</time>
      </trkpt>
      <trkpt lat="42.80963" lon="-0.03959">
        <ele>2162</ele>
        <time>2023-10-31T10:44:46Z</time>
      </trkpt>
      <trkpt lat="42.80963" lon="-0.0396">
        <ele>2162.2</ele>
        <time>2023-10-31T10:44:47Z</time>
      </trkpt>
      <trkpt lat="42.80963" lon="-0.0396">
        <ele>2162.2</ele>
        <time>2023-10-31T10:44:48Z</time>
      </trkpt>
      <trkpt lat="42.80963" lon="-0.03961">
        <ele>2162.5</ele>
        <time>2023-10-31T10:44:49Z</time>
      </trkpt>
      <trkpt lat="42.80963" lon="-0.03962">
        <ele>2162.6</ele>
        <time>2023-10-31T10:44:50Z</time>
      </trkpt>
      <trkpt lat="42.80963" lon="-0.03962">
        <ele>2162.8</ele>
        <time>2023-10-31T10:44:51Z</time>
      </trkpt>
      <trkpt lat="42.80963" lon="-0.03963">
        <ele>2163</ele>
        <time>2023-10-31T10:44:52Z</time>
      </trkpt>
      <trkpt lat="42.80963" lon="-0.03964">
        <ele>2163.2</ele>
        <time>2023-10-31T10:44:53Z</time>
      </trkpt>
      <trkpt lat="42.80962" lon="-0.03965">
        <ele>2163.4</ele>
        <time>2023-10-31T10:44:54Z</time>
      </trkpt>
      <trkpt lat="42.80962" lon="-0.03966">
        <ele>2163.6</ele>
        <time>2023-10-31T10:44:55Z</time>
      </trkpt>
      <trkpt lat="42.80962" lon="-0.03967">
        <ele>2163.9</ele>
        <time>2023-10-31T10:44:56Z</time>
      </trkpt>
      <trkpt lat="42.80963" lon="-0.03967">
        <ele>2164</ele>
        <time>2023-10-31T10:44:57Z</time>
      </trkpt>
      <trkpt lat="42.80963" lon="-0.03968">
        <ele>2164.1</ele>
        <time>2023-10-31T10:44:58Z</time>
      </trkpt>
      <trkpt lat="42.80962" lon="-0.03968">
        <ele>2164.2</ele>
        <time>2023-10-31T10:44:59Z</time>
      </trkpt>
      <trkpt lat="42.80962" lon="-0.03968">
        <ele>2164.4</ele>
        <time>2023-10-31T10:45:00Z</time>
      </trkpt>
      <trkpt lat="42.80962" lon="-0.03969">
        <ele>2164.5</ele>
        <time>2023-10-31T10:45:01Z</time>
      </trkpt>
      <trkpt lat="42.80962" lon="-0.03969">
        <ele>2164.6</ele>
        <time>2023-10-31T10:45:02Z</time>
      </trkpt>
      <trkpt lat="42.80962" lon="-0.0397">
        <ele>2164.8</ele>
        <time>2023-10-31T10:45:03Z</time>
      </trkpt>
      <trkpt lat="42.80962" lon="-0.0397">
        <ele>2164.9</ele>
        <time>2023-10-31T10:45:04Z</time>
      </trkpt>
      <trkpt lat="42.80963" lon="-0.0397">
        <ele>2165</ele>
        <time>2023-10-31T10:45:05Z</time>
      </trkpt>
      <trkpt lat="42.80963" lon="-0.0397">
        <ele>2165</ele>
        <time>2023-10-31T10:45:06Z</time>
      </trkpt>
      <trkpt lat="42.80963" lon="-0.03971">
        <ele>2165.2</ele>
        <time>2023-10-31T10:45:07Z</time>
      </trkpt>
      <trkpt lat="42.80963" lon="-0.03971">
        <ele>2165.3</ele>
        <time>2023-10-31T10:45:08Z</time>
      </trkpt>
      <trkpt lat="42.80963" lon="-0.03971">
        <ele>2165.5</ele>
        <time>2023-10-31T10:45:09Z</time>
      </trkpt>
      <trkpt lat="42.80963" lon="-0.03972">
        <ele>2165.7</ele>
        <time>2023-10-31T10:45:10Z</time>
      </trkpt>
      <trkpt lat="42.80963" lon="-0.03972">
        <ele>2165.7</ele>
        <time>2023-10-31T10:45:11Z</time>
      </trkpt>
      <trkpt lat="42.80963" lon="-0.03973">
        <ele>2165.9</ele>
        <time>2023-10-31T10:45:12Z</time>
      </trkpt>
      <trkpt lat="42.80963" lon="-0.03973">
        <ele>2166</ele>
        <time>2023-10-31T10:45:13Z</time>
      </trkpt>
      <trkpt lat="42.80963" lon="-0.03974">
        <ele>2166.1</ele>
        <time>2023-10-31T10:45:14Z</time>
      </trkpt>
      <trkpt lat="42.80963" lon="-0.03975">
        <ele>2166.3</ele>
        <time>2023-10-31T10:45:15Z</time>
      </trkpt>
      <trkpt lat="42.80963" lon="-0.03976">
        <ele>2166.5</ele>
        <time>2023-10-31T10:45:16Z</time>
      </trkpt>
      <trkpt lat="42.80964" lon="-0.03976">
        <ele>2166.6</ele>
        <time>2023-10-31T10:45:17Z</time>
      </trkpt>
      <trkpt lat="42.80964" lon="-0.03977">
        <ele>2166.8</ele>
        <time>2023-10-31T10:45:18Z</time>
      </trkpt>
      <trkpt lat="42.80964" lon="-0.03977">
        <ele>2167</ele>
        <time>2023-10-31T10:45:19Z</time>
      </trkpt>
      <trkpt lat="42.80965" lon="-0.03978">
        <ele>2167.1</ele>
        <time>2023-10-31T10:45:20Z</time>
      </trkpt>
      <trkpt lat="42.80965" lon="-0.03978">
        <ele>2167.2</ele>
        <time>2023-10-31T10:45:21Z</time>
      </trkpt>
      <trkpt lat="42.80965" lon="-0.03979">
        <ele>2167.4</ele>
        <time>2023-10-31T10:45:22Z</time>
      </trkpt>
      <trkpt lat="42.80965" lon="-0.03979">
        <ele>2167.5</ele>
        <time>2023-10-31T10:45:23Z</time>
      </trkpt>
      <trkpt lat="42.80965" lon="-0.0398">
        <ele>2167.6</ele>
        <time>2023-10-31T10:45:24Z</time>
      </trkpt>
      <trkpt lat="42.80965" lon="-0.0398">
        <ele>2167.8</ele>
        <time>2023-10-31T10:45:25Z</time>
      </trkpt>
      <trkpt lat="42.80965" lon="-0.03981">
        <ele>2167.9</ele>
        <time>2023-10-31T10:45:26Z</time>
      </trkpt>
      <trkpt lat="42.80965" lon="-0.03981">
        <ele>2168</ele>
        <time>2023-10-31T10:45:27Z</time>
      </trkpt>
      <trkpt lat="42.80966" lon="-0.03982">
        <ele>2168.2</ele>
        <time>2023-10-31T10:45:28Z</time>
      </trkpt>
      <trkpt lat="42.80966" lon="-0.03982">
        <ele>2168.5</ele>
        <time>2023-10-31T10:45:29Z</time>
      </trkpt>
      <trkpt lat="42.80967" lon="-0.03983">
        <ele>2168.7</ele>
        <time>2023-10-31T10:45:30Z</time>
      </trkpt>
      <trkpt lat="42.80968" lon="-0.03983">
        <ele>2168.9</ele>
        <time>2023-10-31T10:45:31Z</time>
      </trkpt>
      <trkpt lat="42.80968" lon="-0.03983">
        <ele>2169</ele>
        <time>2023-10-31T10:45:32Z</time>
      </trkpt>
      <trkpt lat="42.80969" lon="-0.03983">
        <ele>2169.2</ele>
        <time>2023-10-31T10:45:33Z</time>
      </trkpt>
      <trkpt lat="42.80969" lon="-0.03983">
        <ele>2169.4</ele>
        <time>2023-10-31T10:45:34Z</time>
      </trkpt>
      <trkpt lat="42.80969" lon="-0.03984">
        <ele>2169.4</ele>
        <time>2023-10-31T10:45:35Z</time>
      </trkpt>
      <trkpt lat="42.8097" lon="-0.03985">
        <ele>2169.7</ele>
        <time>2023-10-31T10:45:36Z</time>
      </trkpt>
      <trkpt lat="42.8097" lon="-0.03986">
        <ele>2169.9</ele>
        <time>2023-10-31T10:45:37Z</time>
      </trkpt>
      <trkpt lat="42.8097" lon="-0.03986">
        <ele>2170</ele>
        <time>2023-10-31T10:45:38Z</time>
      </trkpt>
      <trkpt lat="42.8097" lon="-0.03987">
        <ele>2170.2</ele>
        <time>2023-10-31T10:45:39Z</time>
      </trkpt>
      <trkpt lat="42.8097" lon="-0.03988">
        <ele>2170.3</ele>
        <time>2023-10-31T10:45:40Z</time>
      </trkpt>
      <trkpt lat="42.8097" lon="-0.03988">
        <ele>2170.4</ele>
        <time>2023-10-31T10:45:41Z</time>
      </trkpt>
      <trkpt lat="42.80971" lon="-0.03988">
        <ele>2170.5</ele>
        <time>2023-10-31T10:45:42Z</time>
      </trkpt>
      <trkpt lat="42.80971" lon="-0.03989">
        <ele>2170.6</ele>
        <time>2023-10-31T10:45:43Z</time>
      </trkpt>
      <trkpt lat="42.80971" lon="-0.03989">
        <ele>2170.7</ele>
        <time>2023-10-31T10:45:44Z</time>
      </trkpt>
      <trkpt lat="42.8097" lon="-0.0399">
        <ele>2171</ele>
        <time>2023-10-31T10:45:45Z</time>
      </trkpt>
      <trkpt lat="42.8097" lon="-0.03991">
        <ele>2171.1</ele>
        <time>2023-10-31T10:45:46Z</time>
      </trkpt>
      <trkpt lat="42.80971" lon="-0.0399">
        <ele>2171.4</ele>
        <time>2023-10-31T10:45:47Z</time>
      </trkpt>
      <trkpt lat="42.80971" lon="-0.0399">
        <ele>2171.4</ele>
        <time>2023-10-31T10:45:48Z</time>
      </trkpt>
      <trkpt lat="42.80972" lon="-0.03992">
        <ele>2171.7</ele>
        <time>2023-10-31T10:45:49Z</time>
      </trkpt>
      <trkpt lat="42.80972" lon="-0.03993">
        <ele>2171.9</ele>
        <time>2023-10-31T10:45:50Z</time>
      </trkpt>
      <trkpt lat="42.80972" lon="-0.03993">
        <ele>2172</ele>
        <time>2023-10-31T10:45:51Z</time>
      </trkpt>
      <trkpt lat="42.80972" lon="-0.03994">
        <ele>2172.1</ele>
        <time>2023-10-31T10:45:52Z</time>
      </trkpt>
      <trkpt lat="42.80973" lon="-0.03995">
        <ele>2172.4</ele>
        <time>2023-10-31T10:45:53Z</time>
      </trkpt>
      <trkpt lat="42.80973" lon="-0.03995">
        <ele>2172.5</ele>
        <time>2023-10-31T10:45:54Z</time>
      </trkpt>
      <trkpt lat="42.80973" lon="-0.03995">
        <ele>2172.6</ele>
        <time>2023-10-31T10:45:55Z</time>
      </trkpt>
      <trkpt lat="42.80974" lon="-0.03996">
        <ele>2172.7</ele>
        <time>2023-10-31T10:45:56Z</time>
      </trkpt>
      <trkpt lat="42.80974" lon="-0.03997">
        <ele>2172.9</ele>
        <time>2023-10-31T10:45:57Z</time>
      </trkpt>
      <trkpt lat="42.80974" lon="-0.03998">
        <ele>2173.1</ele>
        <time>2023-10-31T10:45:58Z</time>
      </trkpt>
      <trkpt lat="42.80973" lon="-0.03998">
        <ele>2173.2</ele>
        <time>2023-10-31T10:45:59Z</time>
      </trkpt>
      <trkpt lat="42.80973" lon="-0.03998">
        <ele>2173.3</ele>
        <time>2023-10-31T10:46:00Z</time>
      </trkpt>
      <trkpt lat="42.80973" lon="-0.03998">
        <ele>2173.4</ele>
        <time>2023-10-31T10:46:01Z</time>
      </trkpt>
      <trkpt lat="42.80973" lon="-0.03999">
        <ele>2173.5</ele>
        <time>2023-10-31T10:46:02Z</time>
      </trkpt>
      <trkpt lat="42.80973" lon="-0.03999">
        <ele>2173.6</ele>
        <time>2023-10-31T10:46:03Z</time>
      </trkpt>
      <trkpt lat="42.80973" lon="-0.04">
        <ele>2173.7</ele>
        <time>2023-10-31T10:46:04Z</time>
      </trkpt>
      <trkpt lat="42.80974" lon="-0.04001">
        <ele>2173.9</ele>
        <time>2023-10-31T10:46:05Z</time>
      </trkpt>
      <trkpt lat="42.80974" lon="-0.04">
        <ele>2174</ele>
        <time>2023-10-31T10:46:06Z</time>
      </trkpt>
      <trkpt lat="42.80974" lon="-0.04001">
        <ele>2174.1</ele>
        <time>2023-10-31T10:46:07Z</time>
      </trkpt>
      <trkpt lat="42.80974" lon="-0.04001">
        <ele>2174.2</ele>
        <time>2023-10-31T10:46:08Z</time>
      </trkpt>
      <trkpt lat="42.80974" lon="-0.04002">
        <ele>2174.3</ele>
        <time>2023-10-31T10:46:09Z</time>
      </trkpt>
      <trkpt lat="42.80975" lon="-0.04002">
        <ele>2174.4</ele>
        <time>2023-10-31T10:46:10Z</time>
      </trkpt>
      <trkpt lat="42.80975" lon="-0.04002">
        <ele>2174.5</ele>
        <time>2023-10-31T10:46:11Z</time>
      </trkpt>
      <trkpt lat="42.80976" lon="-0.04003">
        <ele>2174.7</ele>
        <time>2023-10-31T10:46:12Z</time>
      </trkpt>
      <trkpt lat="42.80976" lon="-0.04004">
        <ele>2174.9</ele>
        <time>2023-10-31T10:46:13Z</time>
      </trkpt>
      <trkpt lat="42.80976" lon="-0.04004">
        <ele>2175</ele>
        <time>2023-10-31T10:46:14Z</time>
      </trkpt>
      <trkpt lat="42.80977" lon="-0.04005">
        <ele>2175.2</ele>
        <time>2023-10-31T10:46:15Z</time>
      </trkpt>
      <trkpt lat="42.80977" lon="-0.04005">
        <ele>2175.3</ele>
        <time>2023-10-31T10:46:16Z</time>
      </trkpt>
      <trkpt lat="42.80978" lon="-0.04006">
        <ele>2175.4</ele>
        <time>2023-10-31T10:46:17Z</time>
      </trkpt>
      <trkpt lat="42.80978" lon="-0.04007">
        <ele>2175.6</ele>
        <time>2023-10-31T10:46:18Z</time>
      </trkpt>
      <trkpt lat="42.80977" lon="-0.04007">
        <ele>2175.8</ele>
        <time>2023-10-31T10:46:19Z</time>
      </trkpt>
      <trkpt lat="42.80977" lon="-0.04007">
        <ele>2175.8</ele>
        <time>2023-10-31T10:46:20Z</time>
      </trkpt>
      <trkpt lat="42.80977" lon="-0.04008">
        <ele>2176</ele>
        <time>2023-10-31T10:46:21Z</time>
      </trkpt>
      <trkpt lat="42.80978" lon="-0.04008">
        <ele>2176</ele>
        <time>2023-10-31T10:46:22Z</time>
      </trkpt>
      <trkpt lat="42.80978" lon="-0.04008">
        <ele>2176.1</ele>
        <time>2023-10-31T10:46:23Z</time>
      </trkpt>
      <trkpt lat="42.80978" lon="-0.04009">
        <ele>2176.2</ele>
        <time>2023-10-31T10:46:24Z</time>
      </trkpt>
      <trkpt lat="42.80978" lon="-0.04009">
        <ele>2176.3</ele>
        <time>2023-10-31T10:46:25Z</time>
      </trkpt>
      <trkpt lat="42.80977" lon="-0.04009">
        <ele>2176.4</ele>
        <time>2023-10-31T10:46:26Z</time>
      </trkpt>
      <trkpt lat="42.80976" lon="-0.04009">
        <ele>2176.5</ele>
        <time>2023-10-31T10:46:27Z</time>
      </trkpt>
      <trkpt lat="42.80976" lon="-0.04009">
        <ele>2176.6</ele>
        <time>2023-10-31T10:46:28Z</time>
      </trkpt>
      <trkpt lat="42.80976" lon="-0.04009">
        <ele>2176.7</ele>
        <time>2023-10-31T10:46:29Z</time>
      </trkpt>
      <trkpt lat="42.80976" lon="-0.04009">
        <ele>2176.7</ele>
        <time>2023-10-31T10:46:30Z</time>
      </trkpt>
      <trkpt lat="42.80975" lon="-0.0401">
        <ele>2176.9</ele>
        <time>2023-10-31T10:46:31Z</time>
      </trkpt>
      <trkpt lat="42.80975" lon="-0.04009">
        <ele>2177</ele>
        <time>2023-10-31T10:46:32Z</time>
      </trkpt>
      <trkpt lat="42.80974" lon="-0.0401">
        <ele>2177.1</ele>
        <time>2023-10-31T10:46:33Z</time>
      </trkpt>
      <trkpt lat="42.80974" lon="-0.0401">
        <ele>2177.1</ele>
        <time>2023-10-31T10:46:34Z</time>
      </trkpt>
      <trkpt lat="42.80974" lon="-0.04011">
        <ele>2177.3</ele>
        <time>2023-10-31T10:46:35Z</time>
      </trkpt>
      <trkpt lat="42.80974" lon="-0.04012">
        <ele>2177.5</ele>
        <time>2023-10-31T10:46:36Z</time>
      </trkpt>
      <trkpt lat="42.80974" lon="-0.04013">
        <ele>2177.6</ele>
        <time>2023-10-31T10:46:37Z</time>
      </trkpt>
      <trkpt lat="42.80974" lon="-0.04013">
        <ele>2177.8</ele>
        <time>2023-10-31T10:46:38Z</time>
      </trkpt>
      <trkpt lat="42.80973" lon="-0.04015">
        <ele>2177.9</ele>
        <time>2023-10-31T10:46:40Z</time>
      </trkpt>
      <trkpt lat="42.80973" lon="-0.04015">
        <ele>2178</ele>
        <time>2023-10-31T10:46:41Z</time>
      </trkpt>
      <trkpt lat="42.80973" lon="-0.04016">
        <ele>2178.2</ele>
        <time>2023-10-31T10:46:42Z</time>
      </trkpt>
      <trkpt lat="42.80974" lon="-0.04016">
        <ele>2178.3</ele>
        <time>2023-10-31T10:46:43Z</time>
      </trkpt>
      <trkpt lat="42.80974" lon="-0.04018">
        <ele>2178.5</ele>
        <time>2023-10-31T10:46:44Z</time>
      </trkpt>
      <trkpt lat="42.80974" lon="-0.04018">
        <ele>2178.6</ele>
        <time>2023-10-31T10:46:45Z</time>
      </trkpt>
      <trkpt lat="42.80975" lon="-0.04019">
        <ele>2178.8</ele>
        <time>2023-10-31T10:46:46Z</time>
      </trkpt>
      <trkpt lat="42.80975" lon="-0.0402">
        <ele>2178.9</ele>
        <time>2023-10-31T10:46:47Z</time>
      </trkpt>
      <trkpt lat="42.80975" lon="-0.04021">
        <ele>2179</ele>
        <time>2023-10-31T10:46:48Z</time>
      </trkpt>
      <trkpt lat="42.80975" lon="-0.04022">
        <ele>2179.2</ele>
        <time>2023-10-31T10:46:49Z</time>
      </trkpt>
      <trkpt lat="42.80975" lon="-0.04022">
        <ele>2179.3</ele>
        <time>2023-10-31T10:46:50Z</time>
      </trkpt>
      <trkpt lat="42.80975" lon="-0.04023">
        <ele>2179.4</ele>
        <time>2023-10-31T10:46:51Z</time>
      </trkpt>
      <trkpt lat="42.80975" lon="-0.04024">
        <ele>2179.6</ele>
        <time>2023-10-31T10:46:52Z</time>
      </trkpt>
      <trkpt lat="42.80975" lon="-0.04025">
        <ele>2179.7</ele>
        <time>2023-10-31T10:46:53Z</time>
      </trkpt>
      <trkpt lat="42.80975" lon="-0.04026">
        <ele>2179.9</ele>
        <time>2023-10-31T10:46:54Z</time>
      </trkpt>
      <trkpt lat="42.80974" lon="-0.04026">
        <ele>2179.9</ele>
        <time>2023-10-31T10:46:55Z</time>
      </trkpt>
      <trkpt lat="42.80974" lon="-0.04027">
        <ele>2180.1</ele>
        <time>2023-10-31T10:46:56Z</time>
      </trkpt>
      <trkpt lat="42.80974" lon="-0.04028">
        <ele>2180.3</ele>
        <time>2023-10-31T10:46:57Z</time>
      </trkpt>
      <trkpt lat="42.80973" lon="-0.04029">
        <ele>2180.4</ele>
        <time>2023-10-31T10:46:58Z</time>
      </trkpt>
      <trkpt lat="42.80974" lon="-0.04029">
        <ele>2180.5</ele>
        <time>2023-10-31T10:46:59Z</time>
      </trkpt>
      <trkpt lat="42.80974" lon="-0.0403">
        <ele>2180.6</ele>
        <time>2023-10-31T10:47:00Z</time>
      </trkpt>
      <trkpt lat="42.80974" lon="-0.04031">
        <ele>2180.8</ele>
        <time>2023-10-31T10:47:01Z</time>
      </trkpt>
      <trkpt lat="42.80975" lon="-0.04031">
        <ele>2180.9</ele>
        <time>2023-10-31T10:47:02Z</time>
      </trkpt>
      <trkpt lat="42.80975" lon="-0.04032">
        <ele>2181.1</ele>
        <time>2023-10-31T10:47:03Z</time>
      </trkpt>
      <trkpt lat="42.80976" lon="-0.04033">
        <ele>2181.4</ele>
        <time>2023-10-31T10:47:04Z</time>
      </trkpt>
      <trkpt lat="42.80977" lon="-0.04034">
        <ele>2181.6</ele>
        <time>2023-10-31T10:47:05Z</time>
      </trkpt>
      <trkpt lat="42.80977" lon="-0.04035">
        <ele>2181.7</ele>
        <time>2023-10-31T10:47:06Z</time>
      </trkpt>
      <trkpt lat="42.80977" lon="-0.04036">
        <ele>2181.8</ele>
        <time>2023-10-31T10:47:07Z</time>
      </trkpt>
      <trkpt lat="42.80978" lon="-0.04036">
        <ele>2181.9</ele>
        <time>2023-10-31T10:47:08Z</time>
      </trkpt>
      <trkpt lat="42.80978" lon="-0.04037">
        <ele>2182.1</ele>
        <time>2023-10-31T10:47:09Z</time>
      </trkpt>
      <trkpt lat="42.80978" lon="-0.04038">
        <ele>2182.1</ele>
        <time>2023-10-31T10:47:10Z</time>
      </trkpt>
      <trkpt lat="42.80978" lon="-0.04039">
        <ele>2182.3</ele>
        <time>2023-10-31T10:47:11Z</time>
      </trkpt>
      <trkpt lat="42.80979" lon="-0.04039">
        <ele>2182.3</ele>
        <time>2023-10-31T10:47:12Z</time>
      </trkpt>
      <trkpt lat="42.80978" lon="-0.04039">
        <ele>2182.4</ele>
        <time>2023-10-31T10:47:13Z</time>
      </trkpt>
      <trkpt lat="42.80978" lon="-0.0404">
        <ele>2182.6</ele>
        <time>2023-10-31T10:47:14Z</time>
      </trkpt>
      <trkpt lat="42.80977" lon="-0.0404">
        <ele>2182.8</ele>
        <time>2023-10-31T10:47:15Z</time>
      </trkpt>
      <trkpt lat="42.80976" lon="-0.0404">
        <ele>2182.9</ele>
        <time>2023-10-31T10:47:16Z</time>
      </trkpt>
      <trkpt lat="42.80975" lon="-0.0404">
        <ele>2183</ele>
        <time>2023-10-31T10:47:17Z</time>
      </trkpt>
      <trkpt lat="42.80975" lon="-0.0404">
        <ele>2183.1</ele>
        <time>2023-10-31T10:47:18Z</time>
      </trkpt>
      <trkpt lat="42.80975" lon="-0.0404">
        <ele>2183.1</ele>
        <time>2023-10-31T10:47:19Z</time>
      </trkpt>
      <trkpt lat="42.80974" lon="-0.0404">
        <ele>2183.3</ele>
        <time>2023-10-31T10:47:20Z</time>
      </trkpt>
      <trkpt lat="42.80973" lon="-0.04039">
        <ele>2183.5</ele>
        <time>2023-10-31T10:47:21Z</time>
      </trkpt>
      <trkpt lat="42.80973" lon="-0.0404">
        <ele>2183.6</ele>
        <time>2023-10-31T10:47:22Z</time>
      </trkpt>
      <trkpt lat="42.80973" lon="-0.0404">
        <ele>2183.6</ele>
        <time>2023-10-31T10:47:23Z</time>
      </trkpt>
      <trkpt lat="42.80973" lon="-0.04042">
        <ele>2183.9</ele>
        <time>2023-10-31T10:47:24Z</time>
      </trkpt>
      <trkpt lat="42.80973" lon="-0.04042">
        <ele>2184</ele>
        <time>2023-10-31T10:47:25Z</time>
      </trkpt>
      <trkpt lat="42.80973" lon="-0.04043">
        <ele>2184</ele>
        <time>2023-10-31T10:47:26Z</time>
      </trkpt>
      <trkpt lat="42.80974" lon="-0.04044">
        <ele>2184.1</ele>
        <time>2023-10-31T10:47:27Z</time>
      </trkpt>
      <trkpt lat="42.80974" lon="-0.04044">
        <ele>2184.2</ele>
        <time>2023-10-31T10:47:28Z</time>
      </trkpt>
      <trkpt lat="42.80974" lon="-0.04044">
        <ele>2184.2</ele>
        <time>2023-10-31T10:47:29Z</time>
      </trkpt>
      <trkpt lat="42.80974" lon="-0.04044">
        <ele>2184.2</ele>
        <time>2023-10-31T10:47:30Z</time>
      </trkpt>
      <trkpt lat="42.80974" lon="-0.04044">
        <ele>2184.2</ele>
        <time>2023-10-31T10:47:31Z</time>
      </trkpt>
      <trkpt lat="42.80973" lon="-0.04045">
        <ele>2184.3</ele>
        <time>2023-10-31T10:47:32Z</time>
      </trkpt>
      <trkpt lat="42.80974" lon="-0.04045">
        <ele>2184.4</ele>
        <time>2023-10-31T10:47:33Z</time>
      </trkpt>
      <trkpt lat="42.80974" lon="-0.04046">
        <ele>2184.5</ele>
        <time>2023-10-31T10:47:34Z</time>
      </trkpt>
      <trkpt lat="42.80974" lon="-0.04045">
        <ele>2184.5</ele>
        <time>2023-10-31T10:47:35Z</time>
      </trkpt>
      <trkpt lat="42.80974" lon="-0.04046">
        <ele>2184.6</ele>
        <time>2023-10-31T10:47:36Z</time>
      </trkpt>
      <trkpt lat="42.80974" lon="-0.04046">
        <ele>2184.6</ele>
        <time>2023-10-31T10:47:37Z</time>
      </trkpt>
      <trkpt lat="42.80974" lon="-0.04048">
        <ele>2184.9</ele>
        <time>2023-10-31T10:47:38Z</time>
      </trkpt>
      <trkpt lat="42.80974" lon="-0.04047">
        <ele>2185</ele>
        <time>2023-10-31T10:47:39Z</time>
      </trkpt>
      <trkpt lat="42.80974" lon="-0.04047">
        <ele>2185</ele>
        <time>2023-10-31T10:47:40Z</time>
      </trkpt>
      <trkpt lat="42.80974" lon="-0.04047">
        <ele>2185</ele>
        <time>2023-10-31T10:47:41Z</time>
      </trkpt>
      <trkpt lat="42.80974" lon="-0.04047">
        <ele>2185</ele>
        <time>2023-10-31T10:47:42Z</time>
      </trkpt>
      <trkpt lat="42.80974" lon="-0.04047">
        <ele>2185</ele>
        <time>2023-10-31T10:47:43Z</time>
      </trkpt>
      <trkpt lat="42.80974" lon="-0.04047">
        <ele>2185</ele>
        <time>2023-10-31T10:47:44Z</time>
      </trkpt>
      <trkpt lat="42.80974" lon="-0.04047">
        <ele>2184.9</ele>
        <time>2023-10-31T10:47:45Z</time>
      </trkpt>
      <trkpt lat="42.80974" lon="-0.04047">
        <ele>2184.9</ele>
        <time>2023-10-31T10:47:46Z</time>
      </trkpt>
      <trkpt lat="42.80974" lon="-0.04047">
        <ele>2184.9</ele>
        <time>2023-10-31T10:47:47Z</time>
      </trkpt>
      <trkpt lat="42.80974" lon="-0.04047">
        <ele>2184.9</ele>
        <time>2023-10-31T10:47:48Z</time>
      </trkpt>
      <trkpt lat="42.80974" lon="-0.04048">
        <ele>2185</ele>
        <time>2023-10-31T10:47:49Z</time>
      </trkpt>
      <trkpt lat="42.80974" lon="-0.04049">
        <ele>2185.2</ele>
        <time>2023-10-31T10:47:50Z</time>
      </trkpt>
      <trkpt lat="42.80974" lon="-0.0405">
        <ele>2185.4</ele>
        <time>2023-10-31T10:47:51Z</time>
      </trkpt>
      <trkpt lat="42.80975" lon="-0.04051">
        <ele>2185.4</ele>
        <time>2023-10-31T10:47:52Z</time>
      </trkpt>
      <trkpt lat="42.80975" lon="-0.04051">
        <ele>2185.5</ele>
        <time>2023-10-31T10:47:53Z</time>
      </trkpt>
      <trkpt lat="42.80975" lon="-0.04052">
        <ele>2185.6</ele>
        <time>2023-10-31T10:47:54Z</time>
      </trkpt>
      <trkpt lat="42.80975" lon="-0.04052">
        <ele>2185.6</ele>
        <time>2023-10-31T10:47:55Z</time>
      </trkpt>
      <trkpt lat="42.80974" lon="-0.04053">
        <ele>2185.8</ele>
        <time>2023-10-31T10:47:56Z</time>
      </trkpt>
      <trkpt lat="42.80974" lon="-0.04053">
        <ele>2185.8</ele>
        <time>2023-10-31T10:47:57Z</time>
      </trkpt>
      <trkpt lat="42.80975" lon="-0.04054">
        <ele>2185.9</ele>
        <time>2023-10-31T10:47:58Z</time>
      </trkpt>
      <trkpt lat="42.80975" lon="-0.04055">
        <ele>2186.1</ele>
        <time>2023-10-31T10:47:59Z</time>
      </trkpt>
      <trkpt lat="42.80975" lon="-0.04056">
        <ele>2186.2</ele>
        <time>2023-10-31T10:48:00Z</time>
      </trkpt>
      <trkpt lat="42.80975" lon="-0.04056">
        <ele>2186.3</ele>
        <time>2023-10-31T10:48:01Z</time>
      </trkpt>
      <trkpt lat="42.80975" lon="-0.04057">
        <ele>2186.4</ele>
        <time>2023-10-31T10:48:02Z</time>
      </trkpt>
      <trkpt lat="42.80975" lon="-0.04058">
        <ele>2186.5</ele>
        <time>2023-10-31T10:48:03Z</time>
      </trkpt>
      <trkpt lat="42.80975" lon="-0.04059">
        <ele>2186.6</ele>
        <time>2023-10-31T10:48:04Z</time>
      </trkpt>
      <trkpt lat="42.80975" lon="-0.04059">
        <ele>2186.7</ele>
        <time>2023-10-31T10:48:05Z</time>
      </trkpt>
      <trkpt lat="42.80976" lon="-0.0406">
        <ele>2186.9</ele>
        <time>2023-10-31T10:48:06Z</time>
      </trkpt>
      <trkpt lat="42.80976" lon="-0.04061">
        <ele>2187</ele>
        <time>2023-10-31T10:48:07Z</time>
      </trkpt>
      <trkpt lat="42.80976" lon="-0.04061">
        <ele>2187</ele>
        <time>2023-10-31T10:48:08Z</time>
      </trkpt>
      <trkpt lat="42.80976" lon="-0.04061">
        <ele>2187</ele>
        <time>2023-10-31T10:48:09Z</time>
      </trkpt>
      <trkpt lat="42.80976" lon="-0.04062">
        <ele>2187.1</ele>
        <time>2023-10-31T10:48:10Z</time>
      </trkpt>
      <trkpt lat="42.80976" lon="-0.04063">
        <ele>2187.2</ele>
        <time>2023-10-31T10:48:11Z</time>
      </trkpt>
      <trkpt lat="42.80976" lon="-0.04064">
        <ele>2187.5</ele>
        <time>2023-10-31T10:48:12Z</time>
      </trkpt>
      <trkpt lat="42.80976" lon="-0.04065">
        <ele>2187.6</ele>
        <time>2023-10-31T10:48:13Z</time>
      </trkpt>
      <trkpt lat="42.80976" lon="-0.04064">
        <ele>2187.6</ele>
        <time>2023-10-31T10:48:14Z</time>
      </trkpt>
      <trkpt lat="42.80976" lon="-0.04064">
        <ele>2187.6</ele>
        <time>2023-10-31T10:48:15Z</time>
      </trkpt>
      <trkpt lat="42.80976" lon="-0.04065">
        <ele>2187.6</ele>
        <time>2023-10-31T10:48:16Z</time>
      </trkpt>
      <trkpt lat="42.80976" lon="-0.04064">
        <ele>2187.6</ele>
        <time>2023-10-31T10:48:17Z</time>
      </trkpt>
      <trkpt lat="42.80976" lon="-0.04065">
        <ele>2187.6</ele>
        <time>2023-10-31T10:48:18Z</time>
      </trkpt>
      <trkpt lat="42.80975" lon="-0.04066">
        <ele>2187.8</ele>
        <time>2023-10-31T10:48:19Z</time>
      </trkpt>
      <trkpt lat="42.80975" lon="-0.04066">
        <ele>2187.8</ele>
        <time>2023-10-31T10:48:20Z</time>
      </trkpt>
      <trkpt lat="42.80975" lon="-0.04066">
        <ele>2187.9</ele>
        <time>2023-10-31T10:48:21Z</time>
      </trkpt>
      <trkpt lat="42.80974" lon="-0.04066">
        <ele>2187.9</ele>
        <time>2023-10-31T10:48:22Z</time>
      </trkpt>
      <trkpt lat="42.80974" lon="-0.04066">
        <ele>2188.1</ele>
        <time>2023-10-31T10:48:23Z</time>
      </trkpt>
      <trkpt lat="42.80973" lon="-0.04066">
        <ele>2188.1</ele>
        <time>2023-10-31T10:48:24Z</time>
      </trkpt>
      <trkpt lat="42.80973" lon="-0.04066">
        <ele>2188.2</ele>
        <time>2023-10-31T10:48:25Z</time>
      </trkpt>
      <trkpt lat="42.80973" lon="-0.04067">
        <ele>2188.3</ele>
        <time>2023-10-31T10:48:26Z</time>
      </trkpt>
      <trkpt lat="42.80973" lon="-0.04067">
        <ele>2188.2</ele>
        <time>2023-10-31T10:48:27Z</time>
      </trkpt>
      <trkpt lat="42.80973" lon="-0.04067">
        <ele>2188.2</ele>
        <time>2023-10-31T10:48:28Z</time>
      </trkpt>
      <trkpt lat="42.80972" lon="-0.04068">
        <ele>2188.4</ele>
        <time>2023-10-31T10:48:29Z</time>
      </trkpt>
      <trkpt lat="42.80972" lon="-0.04068">
        <ele>2188.4</ele>
        <time>2023-10-31T10:48:30Z</time>
      </trkpt>
      <trkpt lat="42.80972" lon="-0.04068">
        <ele>2188.4</ele>
        <time>2023-10-31T10:48:31Z</time>
      </trkpt>
      <trkpt lat="42.80972" lon="-0.04068">
        <ele>2188.5</ele>
        <time>2023-10-31T10:48:32Z</time>
      </trkpt>
      <trkpt lat="42.80972" lon="-0.04069">
        <ele>2188.6</ele>
        <time>2023-10-31T10:48:33Z</time>
      </trkpt>
      <trkpt lat="42.80971" lon="-0.04069">
        <ele>2188.6</ele>
        <time>2023-10-31T10:48:34Z</time>
      </trkpt>
      <trkpt lat="42.80971" lon="-0.0407">
        <ele>2188.7</ele>
        <time>2023-10-31T10:48:35Z</time>
      </trkpt>
      <trkpt lat="42.80971" lon="-0.0407">
        <ele>2188.8</ele>
        <time>2023-10-31T10:48:36Z</time>
      </trkpt>
      <trkpt lat="42.80971" lon="-0.0407">
        <ele>2188.9</ele>
        <time>2023-10-31T10:48:37Z</time>
      </trkpt>
      <trkpt lat="42.80972" lon="-0.04072">
        <ele>2189.1</ele>
        <time>2023-10-31T10:48:38Z</time>
      </trkpt>
      <trkpt lat="42.80972" lon="-0.04073">
        <ele>2189.3</ele>
        <time>2023-10-31T10:48:39Z</time>
      </trkpt>
      <trkpt lat="42.80973" lon="-0.04074">
        <ele>2189.5</ele>
        <time>2023-10-31T10:48:40Z</time>
      </trkpt>
      <trkpt lat="42.80973" lon="-0.04075">
        <ele>2189.6</ele>
        <time>2023-10-31T10:48:41Z</time>
      </trkpt>
      <trkpt lat="42.80973" lon="-0.04076">
        <ele>2189.8</ele>
        <time>2023-10-31T10:48:42Z</time>
      </trkpt>
      <trkpt lat="42.80973" lon="-0.04076">
        <ele>2189.9</ele>
        <time>2023-10-31T10:48:43Z</time>
      </trkpt>
      <trkpt lat="42.80973" lon="-0.04077">
        <ele>2190</ele>
        <time>2023-10-31T10:48:44Z</time>
      </trkpt>
      <trkpt lat="42.80973" lon="-0.04078">
        <ele>2190.1</ele>
        <time>2023-10-31T10:48:46Z</time>
      </trkpt>
      <trkpt lat="42.80973" lon="-0.04077">
        <ele>2190.2</ele>
        <time>2023-10-31T10:48:47Z</time>
      </trkpt>
      <trkpt lat="42.80973" lon="-0.04077">
        <ele>2190.2</ele>
        <time>2023-10-31T10:48:48Z</time>
      </trkpt>
      <trkpt lat="42.80973" lon="-0.04077">
        <ele>2190.2</ele>
        <time>2023-10-31T10:48:49Z</time>
      </trkpt>
      <trkpt lat="42.80973" lon="-0.04077">
        <ele>2190.2</ele>
        <time>2023-10-31T10:48:50Z</time>
      </trkpt>
      <trkpt lat="42.80973" lon="-0.04077">
        <ele>2190.2</ele>
        <time>2023-10-31T10:48:51Z</time>
      </trkpt>
      <trkpt lat="42.80973" lon="-0.04077">
        <ele>2190.3</ele>
        <time>2023-10-31T10:48:52Z</time>
      </trkpt>
      <trkpt lat="42.80973" lon="-0.04078">
        <ele>2190.5</ele>
        <time>2023-10-31T10:48:53Z</time>
      </trkpt>
      <trkpt lat="42.80973" lon="-0.04079">
        <ele>2190.7</ele>
        <time>2023-10-31T10:48:54Z</time>
      </trkpt>
      <trkpt lat="42.80973" lon="-0.0408">
        <ele>2190.9</ele>
        <time>2023-10-31T10:48:55Z</time>
      </trkpt>
      <trkpt lat="42.80973" lon="-0.04081">
        <ele>2191.1</ele>
        <time>2023-10-31T10:48:56Z</time>
      </trkpt>
      <trkpt lat="42.80973" lon="-0.04082">
        <ele>2191.2</ele>
        <time>2023-10-31T10:48:57Z</time>
      </trkpt>
      <trkpt lat="42.80973" lon="-0.04082">
        <ele>2191.3</ele>
        <time>2023-10-31T10:48:58Z</time>
      </trkpt>
      <trkpt lat="42.80973" lon="-0.04083">
        <ele>2191.5</ele>
        <time>2023-10-31T10:48:59Z</time>
      </trkpt>
      <trkpt lat="42.80973" lon="-0.04084">
        <ele>2191.6</ele>
        <time>2023-10-31T10:49:00Z</time>
      </trkpt>
      <trkpt lat="42.80973" lon="-0.04085">
        <ele>2191.7</ele>
        <time>2023-10-31T10:49:01Z</time>
      </trkpt>
      <trkpt lat="42.80974" lon="-0.04085">
        <ele>2191.8</ele>
        <time>2023-10-31T10:49:02Z</time>
      </trkpt>
      <trkpt lat="42.80974" lon="-0.04086">
        <ele>2191.9</ele>
        <time>2023-10-31T10:49:03Z</time>
      </trkpt>
      <trkpt lat="42.80974" lon="-0.04087">
        <ele>2192.1</ele>
        <time>2023-10-31T10:49:04Z</time>
      </trkpt>
      <trkpt lat="42.80974" lon="-0.04088">
        <ele>2192.2</ele>
        <time>2023-10-31T10:49:05Z</time>
      </trkpt>
      <trkpt lat="42.80974" lon="-0.04088">
        <ele>2192.3</ele>
        <time>2023-10-31T10:49:06Z</time>
      </trkpt>
      <trkpt lat="42.80973" lon="-0.04089">
        <ele>2192.4</ele>
        <time>2023-10-31T10:49:07Z</time>
      </trkpt>
      <trkpt lat="42.80973" lon="-0.0409">
        <ele>2192.6</ele>
        <time>2023-10-31T10:49:08Z</time>
      </trkpt>
      <trkpt lat="42.80972" lon="-0.0409">
        <ele>2192.6</ele>
        <time>2023-10-31T10:49:09Z</time>
      </trkpt>
      <trkpt lat="42.80972" lon="-0.04091">
        <ele>2192.8</ele>
        <time>2023-10-31T10:49:10Z</time>
      </trkpt>
      <trkpt lat="42.80972" lon="-0.04092">
        <ele>2192.9</ele>
        <time>2023-10-31T10:49:11Z</time>
      </trkpt>
      <trkpt lat="42.80971" lon="-0.04092">
        <ele>2193.1</ele>
        <time>2023-10-31T10:49:12Z</time>
      </trkpt>
      <trkpt lat="42.80971" lon="-0.04093">
        <ele>2193.2</ele>
        <time>2023-10-31T10:49:13Z</time>
      </trkpt>
      <trkpt lat="42.80971" lon="-0.04094">
        <ele>2193.3</ele>
        <time>2023-10-31T10:49:14Z</time>
      </trkpt>
      <trkpt lat="42.8097" lon="-0.04094">
        <ele>2193.4</ele>
        <time>2023-10-31T10:49:15Z</time>
      </trkpt>
      <trkpt lat="42.8097" lon="-0.04095">
        <ele>2193.5</ele>
        <time>2023-10-31T10:49:16Z</time>
      </trkpt>
      <trkpt lat="42.8097" lon="-0.04096">
        <ele>2193.6</ele>
        <time>2023-10-31T10:49:17Z</time>
      </trkpt>
      <trkpt lat="42.80971" lon="-0.04096">
        <ele>2193.7</ele>
        <time>2023-10-31T10:49:18Z</time>
      </trkpt>
      <trkpt lat="42.80971" lon="-0.04096">
        <ele>2193.9</ele>
        <time>2023-10-31T10:49:19Z</time>
      </trkpt>
      <trkpt lat="42.80972" lon="-0.04097">
        <ele>2194</ele>
        <time>2023-10-31T10:49:20Z</time>
      </trkpt>
      <trkpt lat="42.80972" lon="-0.04098">
        <ele>2194.1</ele>
        <time>2023-10-31T10:49:21Z</time>
      </trkpt>
      <trkpt lat="42.80973" lon="-0.04098">
        <ele>2194.2</ele>
        <time>2023-10-31T10:49:22Z</time>
      </trkpt>
      <trkpt lat="42.80973" lon="-0.04099">
        <ele>2194.3</ele>
        <time>2023-10-31T10:49:23Z</time>
      </trkpt>
      <trkpt lat="42.80972" lon="-0.04099">
        <ele>2194.4</ele>
        <time>2023-10-31T10:49:24Z</time>
      </trkpt>
      <trkpt lat="42.80972" lon="-0.041">
        <ele>2194.5</ele>
        <time>2023-10-31T10:49:25Z</time>
      </trkpt>
      <trkpt lat="42.80972" lon="-0.04101">
        <ele>2194.7</ele>
        <time>2023-10-31T10:49:26Z</time>
      </trkpt>
      <trkpt lat="42.80972" lon="-0.04102">
        <ele>2194.7</ele>
        <time>2023-10-31T10:49:27Z</time>
      </trkpt>
      <trkpt lat="42.80972" lon="-0.04103">
        <ele>2194.8</ele>
        <time>2023-10-31T10:49:28Z</time>
      </trkpt>
      <trkpt lat="42.80972" lon="-0.04104">
        <ele>2195</ele>
        <time>2023-10-31T10:49:29Z</time>
      </trkpt>
      <trkpt lat="42.80972" lon="-0.04104">
        <ele>2195.1</ele>
        <time>2023-10-31T10:49:30Z</time>
      </trkpt>
      <trkpt lat="42.80973" lon="-0.04105">
        <ele>2195.2</ele>
        <time>2023-10-31T10:49:31Z</time>
      </trkpt>
      <trkpt lat="42.80973" lon="-0.04106">
        <ele>2195.3</ele>
        <time>2023-10-31T10:49:32Z</time>
      </trkpt>
      <trkpt lat="42.80973" lon="-0.04107">
        <ele>2195.4</ele>
        <time>2023-10-31T10:49:33Z</time>
      </trkpt>
      <trkpt lat="42.80974" lon="-0.04108">
        <ele>2195.5</ele>
        <time>2023-10-31T10:49:34Z</time>
      </trkpt>
      <trkpt lat="42.80974" lon="-0.04109">
        <ele>2195.7</ele>
        <time>2023-10-31T10:49:35Z</time>
      </trkpt>
      <trkpt lat="42.80974" lon="-0.0411">
        <ele>2195.8</ele>
        <time>2023-10-31T10:49:36Z</time>
      </trkpt>
      <trkpt lat="42.80975" lon="-0.0411">
        <ele>2195.9</ele>
        <time>2023-10-31T10:49:37Z</time>
      </trkpt>
      <trkpt lat="42.80975" lon="-0.04111">
        <ele>2196</ele>
        <time>2023-10-31T10:49:38Z</time>
      </trkpt>
      <trkpt lat="42.80976" lon="-0.04111">
        <ele>2196.1</ele>
        <time>2023-10-31T10:49:39Z</time>
      </trkpt>
      <trkpt lat="42.80976" lon="-0.04111">
        <ele>2196.1</ele>
        <time>2023-10-31T10:49:40Z</time>
      </trkpt>
      <trkpt lat="42.80975" lon="-0.04111">
        <ele>2196.1</ele>
        <time>2023-10-31T10:49:41Z</time>
      </trkpt>
      <trkpt lat="42.80976" lon="-0.04112">
        <ele>2196.3</ele>
        <time>2023-10-31T10:49:42Z</time>
      </trkpt>
      <trkpt lat="42.80976" lon="-0.04113">
        <ele>2196.4</ele>
        <time>2023-10-31T10:49:43Z</time>
      </trkpt>
      <trkpt lat="42.80976" lon="-0.04114">
        <ele>2196.5</ele>
        <time>2023-10-31T10:49:44Z</time>
      </trkpt>
      <trkpt lat="42.80976" lon="-0.04115">
        <ele>2196.7</ele>
        <time>2023-10-31T10:49:45Z</time>
      </trkpt>
      <trkpt lat="42.80976" lon="-0.04116">
        <ele>2196.7</ele>
        <time>2023-10-31T10:49:46Z</time>
      </trkpt>
      <trkpt lat="42.80976" lon="-0.04117">
        <ele>2196.8</ele>
        <time>2023-10-31T10:49:47Z</time>
      </trkpt>
      <trkpt lat="42.80975" lon="-0.04118">
        <ele>2197</ele>
        <time>2023-10-31T10:49:48Z</time>
      </trkpt>
      <trkpt lat="42.80975" lon="-0.04119">
        <ele>2197.1</ele>
        <time>2023-10-31T10:49:49Z</time>
      </trkpt>
      <trkpt lat="42.80976" lon="-0.0412">
        <ele>2197.2</ele>
        <time>2023-10-31T10:49:50Z</time>
      </trkpt>
      <trkpt lat="42.80976" lon="-0.0412">
        <ele>2197.3</ele>
        <time>2023-10-31T10:49:51Z</time>
      </trkpt>
      <trkpt lat="42.80977" lon="-0.04121">
        <ele>2197.5</ele>
        <time>2023-10-31T10:49:52Z</time>
      </trkpt>
      <trkpt lat="42.80977" lon="-0.04122">
        <ele>2197.6</ele>
        <time>2023-10-31T10:49:53Z</time>
      </trkpt>
      <trkpt lat="42.80978" lon="-0.04122">
        <ele>2197.6</ele>
        <time>2023-10-31T10:49:54Z</time>
      </trkpt>
      <trkpt lat="42.80978" lon="-0.04123">
        <ele>2197.7</ele>
        <time>2023-10-31T10:49:55Z</time>
      </trkpt>
      <trkpt lat="42.80978" lon="-0.04123">
        <ele>2197.8</ele>
        <time>2023-10-31T10:49:56Z</time>
      </trkpt>
      <trkpt lat="42.80978" lon="-0.04125">
        <ele>2198</ele>
        <time>2023-10-31T10:49:57Z</time>
      </trkpt>
      <trkpt lat="42.80978" lon="-0.04125">
        <ele>2198</ele>
        <time>2023-10-31T10:49:58Z</time>
      </trkpt>
      <trkpt lat="42.80977" lon="-0.04126">
        <ele>2198.1</ele>
        <time>2023-10-31T10:49:59Z</time>
      </trkpt>
      <trkpt lat="42.80977" lon="-0.04126">
        <ele>2198.2</ele>
        <time>2023-10-31T10:50:00Z</time>
      </trkpt>
      <trkpt lat="42.80977" lon="-0.04127">
        <ele>2198.3</ele>
        <time>2023-10-31T10:50:01Z</time>
      </trkpt>
      <trkpt lat="42.80977" lon="-0.04127">
        <ele>2198.4</ele>
        <time>2023-10-31T10:50:02Z</time>
      </trkpt>
      <trkpt lat="42.80977" lon="-0.04128">
        <ele>2198.4</ele>
        <time>2023-10-31T10:50:03Z</time>
      </trkpt>
      <trkpt lat="42.80977" lon="-0.04129">
        <ele>2198.6</ele>
        <time>2023-10-31T10:50:04Z</time>
      </trkpt>
      <trkpt lat="42.80977" lon="-0.0413">
        <ele>2198.6</ele>
        <time>2023-10-31T10:50:05Z</time>
      </trkpt>
      <trkpt lat="42.80976" lon="-0.0413">
        <ele>2198.7</ele>
        <time>2023-10-31T10:50:06Z</time>
      </trkpt>
      <trkpt lat="42.80976" lon="-0.04131">
        <ele>2198.9</ele>
        <time>2023-10-31T10:50:07Z</time>
      </trkpt>
      <trkpt lat="42.80976" lon="-0.04133">
        <ele>2199</ele>
        <time>2023-10-31T10:50:08Z</time>
      </trkpt>
      <trkpt lat="42.80976" lon="-0.04133">
        <ele>2199.2</ele>
        <time>2023-10-31T10:50:09Z</time>
      </trkpt>
      <trkpt lat="42.80976" lon="-0.04134">
        <ele>2199.2</ele>
        <time>2023-10-31T10:50:10Z</time>
      </trkpt>
      <trkpt lat="42.80976" lon="-0.04134">
        <ele>2199.3</ele>
        <time>2023-10-31T10:50:11Z</time>
      </trkpt>
      <trkpt lat="42.80976" lon="-0.04134">
        <ele>2199.4</ele>
        <time>2023-10-31T10:50:12Z</time>
      </trkpt>
      <trkpt lat="42.80975" lon="-0.04135">
        <ele>2199.6</ele>
        <time>2023-10-31T10:50:13Z</time>
      </trkpt>
      <trkpt lat="42.80974" lon="-0.04135">
        <ele>2199.6</ele>
        <time>2023-10-31T10:50:14Z</time>
      </trkpt>
      <trkpt lat="42.80975" lon="-0.04135">
        <ele>2199.7</ele>
        <time>2023-10-31T10:50:15Z</time>
      </trkpt>
      <trkpt lat="42.80975" lon="-0.04135">
        <ele>2199.8</ele>
        <time>2023-10-31T10:50:16Z</time>
      </trkpt>
      <trkpt lat="42.80975" lon="-0.04135">
        <ele>2199.9</ele>
        <time>2023-10-31T10:50:17Z</time>
      </trkpt>
      <trkpt lat="42.80975" lon="-0.04136">
        <ele>2200</ele>
        <time>2023-10-31T10:50:18Z</time>
      </trkpt>
      <trkpt lat="42.80976" lon="-0.04137">
        <ele>2200.1</ele>
        <time>2023-10-31T10:50:19Z</time>
      </trkpt>
      <trkpt lat="42.80976" lon="-0.04137">
        <ele>2200.2</ele>
        <time>2023-10-31T10:50:20Z</time>
      </trkpt>
      <trkpt lat="42.80977" lon="-0.04138">
        <ele>2200.3</ele>
        <time>2023-10-31T10:50:21Z</time>
      </trkpt>
      <trkpt lat="42.80976" lon="-0.04138">
        <ele>2200.4</ele>
        <time>2023-10-31T10:50:22Z</time>
      </trkpt>
      <trkpt lat="42.80976" lon="-0.04138">
        <ele>2200.4</ele>
        <time>2023-10-31T10:50:23Z</time>
      </trkpt>
      <trkpt lat="42.80977" lon="-0.04139">
        <ele>2200.6</ele>
        <time>2023-10-31T10:50:24Z</time>
      </trkpt>
      <trkpt lat="42.80977" lon="-0.04139">
        <ele>2200.7</ele>
        <time>2023-10-31T10:50:25Z</time>
      </trkpt>
      <trkpt lat="42.80976" lon="-0.0414">
        <ele>2200.8</ele>
        <time>2023-10-31T10:50:26Z</time>
      </trkpt>
      <trkpt lat="42.80976" lon="-0.0414">
        <ele>2200.9</ele>
        <time>2023-10-31T10:50:27Z</time>
      </trkpt>
      <trkpt lat="42.80975" lon="-0.04142">
        <ele>2201.2</ele>
        <time>2023-10-31T10:50:28Z</time>
      </trkpt>
      <trkpt lat="42.80975" lon="-0.04142">
        <ele>2201.2</ele>
        <time>2023-10-31T10:50:29Z</time>
      </trkpt>
      <trkpt lat="42.80975" lon="-0.04142">
        <ele>2201.4</ele>
        <time>2023-10-31T10:50:30Z</time>
      </trkpt>
      <trkpt lat="42.80974" lon="-0.04143">
        <ele>2201.5</ele>
        <time>2023-10-31T10:50:31Z</time>
      </trkpt>
      <trkpt lat="42.80974" lon="-0.04143">
        <ele>2201.6</ele>
        <time>2023-10-31T10:50:32Z</time>
      </trkpt>
      <trkpt lat="42.80973" lon="-0.04143">
        <ele>2201.8</ele>
        <time>2023-10-31T10:50:33Z</time>
      </trkpt>
      <trkpt lat="42.80972" lon="-0.04144">
        <ele>2202</ele>
        <time>2023-10-31T10:50:34Z</time>
      </trkpt>
      <trkpt lat="42.80972" lon="-0.04144">
        <ele>2202.1</ele>
        <time>2023-10-31T10:50:35Z</time>
      </trkpt>
      <trkpt lat="42.80974" lon="-0.04144">
        <ele>2202.4</ele>
        <time>2023-10-31T10:50:36Z</time>
      </trkpt>
      <trkpt lat="42.80974" lon="-0.04145">
        <ele>2202.6</ele>
        <time>2023-10-31T10:50:37Z</time>
      </trkpt>
      <trkpt lat="42.80975" lon="-0.04145">
        <ele>2202.7</ele>
        <time>2023-10-31T10:50:38Z</time>
      </trkpt>
      <trkpt lat="42.80975" lon="-0.04146">
        <ele>2202.9</ele>
        <time>2023-10-31T10:50:39Z</time>
      </trkpt>
      <trkpt lat="42.80976" lon="-0.04147">
        <ele>2203</ele>
        <time>2023-10-31T10:50:40Z</time>
      </trkpt>
      <trkpt lat="42.80976" lon="-0.04147">
        <ele>2203.2</ele>
        <time>2023-10-31T10:50:41Z</time>
      </trkpt>
      <trkpt lat="42.80976" lon="-0.04148">
        <ele>2203.3</ele>
        <time>2023-10-31T10:50:42Z</time>
      </trkpt>
      <trkpt lat="42.80976" lon="-0.04148">
        <ele>2203.5</ele>
        <time>2023-10-31T10:50:43Z</time>
      </trkpt>
      <trkpt lat="42.80977" lon="-0.04149">
        <ele>2203.6</ele>
        <time>2023-10-31T10:50:44Z</time>
      </trkpt>
      <trkpt lat="42.80978" lon="-0.04149">
        <ele>2203.8</ele>
        <time>2023-10-31T10:50:45Z</time>
      </trkpt>
      <trkpt lat="42.80978" lon="-0.04149">
        <ele>2204</ele>
        <time>2023-10-31T10:50:46Z</time>
      </trkpt>
      <trkpt lat="42.80979" lon="-0.0415">
        <ele>2204.2</ele>
        <time>2023-10-31T10:50:47Z</time>
      </trkpt>
      <trkpt lat="42.80979" lon="-0.0415">
        <ele>2204.4</ele>
        <time>2023-10-31T10:50:48Z</time>
      </trkpt>
      <trkpt lat="42.80979" lon="-0.04151">
        <ele>2204.5</ele>
        <time>2023-10-31T10:50:49Z</time>
      </trkpt>
      <trkpt lat="42.8098" lon="-0.04152">
        <ele>2204.7</ele>
        <time>2023-10-31T10:50:50Z</time>
      </trkpt>
      <trkpt lat="42.8098" lon="-0.04152">
        <ele>2204.8</ele>
        <time>2023-10-31T10:50:52Z</time>
      </trkpt>
      <trkpt lat="42.8098" lon="-0.04153">
        <ele>2204.9</ele>
        <time>2023-10-31T10:50:53Z</time>
      </trkpt>
      <trkpt lat="42.8098" lon="-0.04154">
        <ele>2205</ele>
        <time>2023-10-31T10:50:54Z</time>
      </trkpt>
      <trkpt lat="42.8098" lon="-0.04155">
        <ele>2205.2</ele>
        <time>2023-10-31T10:50:55Z</time>
      </trkpt>
      <trkpt lat="42.8098" lon="-0.04155">
        <ele>2205.4</ele>
        <time>2023-10-31T10:50:56Z</time>
      </trkpt>
      <trkpt lat="42.80981" lon="-0.04156">
        <ele>2205.5</ele>
        <time>2023-10-31T10:50:57Z</time>
      </trkpt>
      <trkpt lat="42.80981" lon="-0.04156">
        <ele>2205.6</ele>
        <time>2023-10-31T10:50:58Z</time>
      </trkpt>
      <trkpt lat="42.80981" lon="-0.04157">
        <ele>2205.7</ele>
        <time>2023-10-31T10:50:59Z</time>
      </trkpt>
      <trkpt lat="42.8098" lon="-0.04157">
        <ele>2205.9</ele>
        <time>2023-10-31T10:51:00Z</time>
      </trkpt>
      <trkpt lat="42.8098" lon="-0.04157">
        <ele>2206.1</ele>
        <time>2023-10-31T10:51:01Z</time>
      </trkpt>
      <trkpt lat="42.8098" lon="-0.04158">
        <ele>2206.2</ele>
        <time>2023-10-31T10:51:02Z</time>
      </trkpt>
      <trkpt lat="42.8098" lon="-0.04159">
        <ele>2206.4</ele>
        <time>2023-10-31T10:51:03Z</time>
      </trkpt>
      <trkpt lat="42.8098" lon="-0.04159">
        <ele>2206.5</ele>
        <time>2023-10-31T10:51:04Z</time>
      </trkpt>
      <trkpt lat="42.8098" lon="-0.04159">
        <ele>2206.6</ele>
        <time>2023-10-31T10:51:05Z</time>
      </trkpt>
      <trkpt lat="42.8098" lon="-0.0416">
        <ele>2206.7</ele>
        <time>2023-10-31T10:51:06Z</time>
      </trkpt>
      <trkpt lat="42.8098" lon="-0.04161">
        <ele>2206.9</ele>
        <time>2023-10-31T10:51:07Z</time>
      </trkpt>
      <trkpt lat="42.8098" lon="-0.04161">
        <ele>2207</ele>
        <time>2023-10-31T10:51:08Z</time>
      </trkpt>
      <trkpt lat="42.8098" lon="-0.04162">
        <ele>2207.2</ele>
        <time>2023-10-31T10:51:09Z</time>
      </trkpt>
      <trkpt lat="42.80981" lon="-0.04162">
        <ele>2207.4</ele>
        <time>2023-10-31T10:51:10Z</time>
      </trkpt>
      <trkpt lat="42.80981" lon="-0.04162">
        <ele>2207.5</ele>
        <time>2023-10-31T10:51:11Z</time>
      </trkpt>
      <trkpt lat="42.80981" lon="-0.04163">
        <ele>2207.6</ele>
        <time>2023-10-31T10:51:12Z</time>
      </trkpt>
      <trkpt lat="42.80981" lon="-0.04163">
        <ele>2207.7</ele>
        <time>2023-10-31T10:51:13Z</time>
      </trkpt>
      <trkpt lat="42.80981" lon="-0.04164">
        <ele>2207.8</ele>
        <time>2023-10-31T10:51:14Z</time>
      </trkpt>
      <trkpt lat="42.80981" lon="-0.04165">
        <ele>2207.9</ele>
        <time>2023-10-31T10:51:15Z</time>
      </trkpt>
      <trkpt lat="42.80981" lon="-0.04165">
        <ele>2208.1</ele>
        <time>2023-10-31T10:51:16Z</time>
      </trkpt>
      <trkpt lat="42.80982" lon="-0.04166">
        <ele>2208.3</ele>
        <time>2023-10-31T10:51:17Z</time>
      </trkpt>
      <trkpt lat="42.80982" lon="-0.04167">
        <ele>2208.5</ele>
        <time>2023-10-31T10:51:18Z</time>
      </trkpt>
      <trkpt lat="42.80982" lon="-0.04168">
        <ele>2208.6</ele>
        <time>2023-10-31T10:51:19Z</time>
      </trkpt>
      <trkpt lat="42.80982" lon="-0.04169">
        <ele>2208.7</ele>
        <time>2023-10-31T10:51:20Z</time>
      </trkpt>
      <trkpt lat="42.80981" lon="-0.04169">
        <ele>2208.9</ele>
        <time>2023-10-31T10:51:21Z</time>
      </trkpt>
      <trkpt lat="42.80981" lon="-0.0417">
        <ele>2209.1</ele>
        <time>2023-10-31T10:51:22Z</time>
      </trkpt>
      <trkpt lat="42.8098" lon="-0.0417">
        <ele>2209.2</ele>
        <time>2023-10-31T10:51:23Z</time>
      </trkpt>
      <trkpt lat="42.8098" lon="-0.04169">
        <ele>2209.2</ele>
        <time>2023-10-31T10:51:24Z</time>
      </trkpt>
      <trkpt lat="42.8098" lon="-0.0417">
        <ele>2209.4</ele>
        <time>2023-10-31T10:51:25Z</time>
      </trkpt>
      <trkpt lat="42.8098" lon="-0.04171">
        <ele>2209.6</ele>
        <time>2023-10-31T10:51:26Z</time>
      </trkpt>
      <trkpt lat="42.80981" lon="-0.04171">
        <ele>2209.7</ele>
        <time>2023-10-31T10:51:27Z</time>
      </trkpt>
      <trkpt lat="42.80981" lon="-0.04171">
        <ele>2209.7</ele>
        <time>2023-10-31T10:51:28Z</time>
      </trkpt>
      <trkpt lat="42.80981" lon="-0.04171">
        <ele>2209.7</ele>
        <time>2023-10-31T10:51:29Z</time>
      </trkpt>
      <trkpt lat="42.8098" lon="-0.04171">
        <ele>2209.8</ele>
        <time>2023-10-31T10:51:30Z</time>
      </trkpt>
      <trkpt lat="42.80981" lon="-0.04171">
        <ele>2209.8</ele>
        <time>2023-10-31T10:51:31Z</time>
      </trkpt>
      <trkpt lat="42.80981" lon="-0.04171">
        <ele>2209.8</ele>
        <time>2023-10-31T10:51:32Z</time>
      </trkpt>
      <trkpt lat="42.80981" lon="-0.04171">
        <ele>2209.8</ele>
        <time>2023-10-31T10:51:33Z</time>
      </trkpt>
      <trkpt lat="42.80981" lon="-0.04171">
        <ele>2209.8</ele>
        <time>2023-10-31T10:51:34Z</time>
      </trkpt>
      <trkpt lat="42.80981" lon="-0.04171">
        <ele>2209.8</ele>
        <time>2023-10-31T10:51:35Z</time>
      </trkpt>
      <trkpt lat="42.80981" lon="-0.04171">
        <ele>2209.9</ele>
        <time>2023-10-31T10:51:36Z</time>
      </trkpt>
      <trkpt lat="42.80981" lon="-0.04173">
        <ele>2210.1</ele>
        <time>2023-10-31T10:51:37Z</time>
      </trkpt>
      <trkpt lat="42.80981" lon="-0.04173">
        <ele>2210.3</ele>
        <time>2023-10-31T10:51:38Z</time>
      </trkpt>
      <trkpt lat="42.8098" lon="-0.04174">
        <ele>2210.4</ele>
        <time>2023-10-31T10:51:39Z</time>
      </trkpt>
      <trkpt lat="42.8098" lon="-0.04174">
        <ele>2210.5</ele>
        <time>2023-10-31T10:51:40Z</time>
      </trkpt>
      <trkpt lat="42.8098" lon="-0.04175">
        <ele>2210.7</ele>
        <time>2023-10-31T10:51:41Z</time>
      </trkpt>
      <trkpt lat="42.80979" lon="-0.04176">
        <ele>2210.8</ele>
        <time>2023-10-31T10:51:42Z</time>
      </trkpt>
      <trkpt lat="42.80979" lon="-0.04176">
        <ele>2211</ele>
        <time>2023-10-31T10:51:43Z</time>
      </trkpt>
      <trkpt lat="42.80979" lon="-0.04177">
        <ele>2211</ele>
        <time>2023-10-31T10:51:44Z</time>
      </trkpt>
      <trkpt lat="42.80979" lon="-0.04177">
        <ele>2211</ele>
        <time>2023-10-31T10:51:45Z</time>
      </trkpt>
      <trkpt lat="42.80979" lon="-0.04177">
        <ele>2211.1</ele>
        <time>2023-10-31T10:51:46Z</time>
      </trkpt>
      <trkpt lat="42.80979" lon="-0.04177">
        <ele>2211.1</ele>
        <time>2023-10-31T10:51:47Z</time>
      </trkpt>
      <trkpt lat="42.80979" lon="-0.04177">
        <ele>2211.1</ele>
        <time>2023-10-31T10:51:48Z</time>
      </trkpt>
      <trkpt lat="42.80979" lon="-0.04178">
        <ele>2211.2</ele>
        <time>2023-10-31T10:51:49Z</time>
      </trkpt>
      <trkpt lat="42.80979" lon="-0.04178">
        <ele>2211.2</ele>
        <time>2023-10-31T10:51:50Z</time>
      </trkpt>
      <trkpt lat="42.80979" lon="-0.04178">
        <ele>2211.2</ele>
        <time>2023-10-31T10:51:51Z</time>
      </trkpt>
      <trkpt lat="42.80979" lon="-0.04178">
        <ele>2211.3</ele>
        <time>2023-10-31T10:51:52Z</time>
      </trkpt>
      <trkpt lat="42.80979" lon="-0.04178">
        <ele>2211.3</ele>
        <time>2023-10-31T10:51:53Z</time>
      </trkpt>
      <trkpt lat="42.80979" lon="-0.04178">
        <ele>2211.3</ele>
        <time>2023-10-31T10:51:54Z</time>
      </trkpt>
      <trkpt lat="42.80979" lon="-0.04179">
        <ele>2211.4</ele>
        <time>2023-10-31T10:51:55Z</time>
      </trkpt>
      <trkpt lat="42.80979" lon="-0.04179">
        <ele>2211.4</ele>
        <time>2023-10-31T10:51:56Z</time>
      </trkpt>
      <trkpt lat="42.80979" lon="-0.04179">
        <ele>2211.4</ele>
        <time>2023-10-31T10:51:57Z</time>
      </trkpt>
      <trkpt lat="42.80979" lon="-0.04179">
        <ele>2211.5</ele>
        <time>2023-10-31T10:51:58Z</time>
      </trkpt>
      <trkpt lat="42.80979" lon="-0.04179">
        <ele>2211.5</ele>
        <time>2023-10-31T10:51:59Z</time>
      </trkpt>
      <trkpt lat="42.80979" lon="-0.0418">
        <ele>2211.5</ele>
        <time>2023-10-31T10:52:00Z</time>
      </trkpt>
      <trkpt lat="42.80979" lon="-0.0418">
        <ele>2211.6</ele>
        <time>2023-10-31T10:52:01Z</time>
      </trkpt>
      <trkpt lat="42.80979" lon="-0.0418">
        <ele>2211.6</ele>
        <time>2023-10-31T10:52:02Z</time>
      </trkpt>
      <trkpt lat="42.80979" lon="-0.0418">
        <ele>2211.6</ele>
        <time>2023-10-31T10:52:03Z</time>
      </trkpt>
      <trkpt lat="42.80979" lon="-0.0418">
        <ele>2211.7</ele>
        <time>2023-10-31T10:52:04Z</time>
      </trkpt>
      <trkpt lat="42.80979" lon="-0.04181">
        <ele>2211.7</ele>
        <time>2023-10-31T10:52:05Z</time>
      </trkpt>
      <trkpt lat="42.80979" lon="-0.04181">
        <ele>2211.7</ele>
        <time>2023-10-31T10:52:06Z</time>
      </trkpt>
      <trkpt lat="42.80979" lon="-0.04181">
        <ele>2211.7</ele>
        <time>2023-10-31T10:52:07Z</time>
      </trkpt>
      <trkpt lat="42.80979" lon="-0.04181">
        <ele>2211.8</ele>
        <time>2023-10-31T10:52:08Z</time>
      </trkpt>
      <trkpt lat="42.80978" lon="-0.04182">
        <ele>2211.9</ele>
        <time>2023-10-31T10:52:09Z</time>
      </trkpt>
      <trkpt lat="42.80978" lon="-0.04183">
        <ele>2212.1</ele>
        <time>2023-10-31T10:52:10Z</time>
      </trkpt>
      <trkpt lat="42.80978" lon="-0.04183">
        <ele>2212.1</ele>
        <time>2023-10-31T10:52:11Z</time>
      </trkpt>
      <trkpt lat="42.80978" lon="-0.04183">
        <ele>2212.3</ele>
        <time>2023-10-31T10:52:12Z</time>
      </trkpt>
      <trkpt lat="42.80977" lon="-0.04184">
        <ele>2212.5</ele>
        <time>2023-10-31T10:52:13Z</time>
      </trkpt>
      <trkpt lat="42.80976" lon="-0.04185">
        <ele>2212.6</ele>
        <time>2023-10-31T10:52:14Z</time>
      </trkpt>
      <trkpt lat="42.80976" lon="-0.04186">
        <ele>2212.8</ele>
        <time>2023-10-31T10:52:15Z</time>
      </trkpt>
      <trkpt lat="42.80975" lon="-0.04186">
        <ele>2212.9</ele>
        <time>2023-10-31T10:52:16Z</time>
      </trkpt>
      <trkpt lat="42.80976" lon="-0.04186">
        <ele>2213.1</ele>
        <time>2023-10-31T10:52:17Z</time>
      </trkpt>
      <trkpt lat="42.80976" lon="-0.04187">
        <ele>2213.3</ele>
        <time>2023-10-31T10:52:18Z</time>
      </trkpt>
      <trkpt lat="42.80978" lon="-0.04188">
        <ele>2213.6</ele>
        <time>2023-10-31T10:52:19Z</time>
      </trkpt>
      <trkpt lat="42.80978" lon="-0.04188">
        <ele>2213.7</ele>
        <time>2023-10-31T10:52:20Z</time>
      </trkpt>
      <trkpt lat="42.80978" lon="-0.04189">
        <ele>2213.8</ele>
        <time>2023-10-31T10:52:21Z</time>
      </trkpt>
      <trkpt lat="42.80978" lon="-0.04189">
        <ele>2214</ele>
        <time>2023-10-31T10:52:22Z</time>
      </trkpt>
      <trkpt lat="42.80978" lon="-0.04189">
        <ele>2214</ele>
        <time>2023-10-31T10:52:23Z</time>
      </trkpt>
      <trkpt lat="42.80977" lon="-0.0419">
        <ele>2214.2</ele>
        <time>2023-10-31T10:52:24Z</time>
      </trkpt>
      <trkpt lat="42.80977" lon="-0.04191">
        <ele>2214.4</ele>
        <time>2023-10-31T10:52:25Z</time>
      </trkpt>
      <trkpt lat="42.80977" lon="-0.04192">
        <ele>2214.5</ele>
        <time>2023-10-31T10:52:26Z</time>
      </trkpt>
      <trkpt lat="42.80977" lon="-0.04193">
        <ele>2214.7</ele>
        <time>2023-10-31T10:52:27Z</time>
      </trkpt>
      <trkpt lat="42.80977" lon="-0.04193">
        <ele>2214.8</ele>
        <time>2023-10-31T10:52:28Z</time>
      </trkpt>
      <trkpt lat="42.80977" lon="-0.04194">
        <ele>2214.9</ele>
        <time>2023-10-31T10:52:29Z</time>
      </trkpt>
      <trkpt lat="42.80977" lon="-0.04196">
        <ele>2215.2</ele>
        <time>2023-10-31T10:52:30Z</time>
      </trkpt>
      <trkpt lat="42.80977" lon="-0.04195">
        <ele>2215.3</ele>
        <time>2023-10-31T10:52:31Z</time>
      </trkpt>
      <trkpt lat="42.80978" lon="-0.04196">
        <ele>2215.4</ele>
        <time>2023-10-31T10:52:32Z</time>
      </trkpt>
      <trkpt lat="42.80978" lon="-0.04196">
        <ele>2215.5</ele>
        <time>2023-10-31T10:52:33Z</time>
      </trkpt>
      <trkpt lat="42.80978" lon="-0.04196">
        <ele>2215.6</ele>
        <time>2023-10-31T10:52:34Z</time>
      </trkpt>
      <trkpt lat="42.80978" lon="-0.04197">
        <ele>2215.8</ele>
        <time>2023-10-31T10:52:35Z</time>
      </trkpt>
      <trkpt lat="42.80978" lon="-0.04198">
        <ele>2215.9</ele>
        <time>2023-10-31T10:52:36Z</time>
      </trkpt>
      <trkpt lat="42.80978" lon="-0.04199">
        <ele>2216</ele>
        <time>2023-10-31T10:52:37Z</time>
      </trkpt>
      <trkpt lat="42.80978" lon="-0.042">
        <ele>2216.2</ele>
        <time>2023-10-31T10:52:38Z</time>
      </trkpt>
      <trkpt lat="42.80978" lon="-0.042">
        <ele>2216.2</ele>
        <time>2023-10-31T10:52:39Z</time>
      </trkpt>
      <trkpt lat="42.80978" lon="-0.042">
        <ele>2216.2</ele>
        <time>2023-10-31T10:52:40Z</time>
      </trkpt>
      <trkpt lat="42.80979" lon="-0.04201">
        <ele>2216.5</ele>
        <time>2023-10-31T10:52:41Z</time>
      </trkpt>
      <trkpt lat="42.80979" lon="-0.04201">
        <ele>2216.6</ele>
        <time>2023-10-31T10:52:42Z</time>
      </trkpt>
      <trkpt lat="42.80979" lon="-0.04202">
        <ele>2216.7</ele>
        <time>2023-10-31T10:52:43Z</time>
      </trkpt>
      <trkpt lat="42.80979" lon="-0.04203">
        <ele>2216.8</ele>
        <time>2023-10-31T10:52:44Z</time>
      </trkpt>
      <trkpt lat="42.80979" lon="-0.04203">
        <ele>2216.9</ele>
        <time>2023-10-31T10:52:45Z</time>
      </trkpt>
      <trkpt lat="42.80979" lon="-0.04204">
        <ele>2217</ele>
        <time>2023-10-31T10:52:46Z</time>
      </trkpt>
      <trkpt lat="42.8098" lon="-0.04203">
        <ele>2217.1</ele>
        <time>2023-10-31T10:52:47Z</time>
      </trkpt>
      <trkpt lat="42.8098" lon="-0.04204">
        <ele>2217.2</ele>
        <time>2023-10-31T10:52:48Z</time>
      </trkpt>
      <trkpt lat="42.80981" lon="-0.04205">
        <ele>2217.4</ele>
        <time>2023-10-31T10:52:49Z</time>
      </trkpt>
      <trkpt lat="42.80981" lon="-0.04205">
        <ele>2217.6</ele>
        <time>2023-10-31T10:52:50Z</time>
      </trkpt>
      <trkpt lat="42.80982" lon="-0.04205">
        <ele>2217.7</ele>
        <time>2023-10-31T10:52:51Z</time>
      </trkpt>
      <trkpt lat="42.80982" lon="-0.04205">
        <ele>2217.8</ele>
        <time>2023-10-31T10:52:52Z</time>
      </trkpt>
      <trkpt lat="42.80982" lon="-0.04206">
        <ele>2217.8</ele>
        <time>2023-10-31T10:52:53Z</time>
      </trkpt>
      <trkpt lat="42.80981" lon="-0.04206">
        <ele>2218</ele>
        <time>2023-10-31T10:52:54Z</time>
      </trkpt>
      <trkpt lat="42.80982" lon="-0.04207">
        <ele>2218.1</ele>
        <time>2023-10-31T10:52:55Z</time>
      </trkpt>
      <trkpt lat="42.80982" lon="-0.04208">
        <ele>2218.3</ele>
        <time>2023-10-31T10:52:56Z</time>
      </trkpt>
      <trkpt lat="42.80982" lon="-0.04209">
        <ele>2218.4</ele>
        <time>2023-10-31T10:52:58Z</time>
      </trkpt>
      <trkpt lat="42.80982" lon="-0.04209">
        <ele>2218.5</ele>
        <time>2023-10-31T10:52:59Z</time>
      </trkpt>
      <trkpt lat="42.80982" lon="-0.04209">
        <ele>2218.6</ele>
        <time>2023-10-31T10:53:00Z</time>
      </trkpt>
      <trkpt lat="42.80983" lon="-0.0421">
        <ele>2218.8</ele>
        <time>2023-10-31T10:53:01Z</time>
      </trkpt>
      <trkpt lat="42.80983" lon="-0.0421">
        <ele>2218.9</ele>
        <time>2023-10-31T10:53:02Z</time>
      </trkpt>
      <trkpt lat="42.80983" lon="-0.0421">
        <ele>2219</ele>
        <time>2023-10-31T10:53:03Z</time>
      </trkpt>
      <trkpt lat="42.80982" lon="-0.04211">
        <ele>2219.1</ele>
        <time>2023-10-31T10:53:04Z</time>
      </trkpt>
      <trkpt lat="42.80982" lon="-0.04212">
        <ele>2219.2</ele>
        <time>2023-10-31T10:53:05Z</time>
      </trkpt>
      <trkpt lat="42.80982" lon="-0.04212">
        <ele>2219.4</ele>
        <time>2023-10-31T10:53:06Z</time>
      </trkpt>
      <trkpt lat="42.80981" lon="-0.04213">
        <ele>2219.5</ele>
        <time>2023-10-31T10:53:07Z</time>
      </trkpt>
      <trkpt lat="42.80981" lon="-0.04214">
        <ele>2219.8</ele>
        <time>2023-10-31T10:53:08Z</time>
      </trkpt>
      <trkpt lat="42.80982" lon="-0.04215">
        <ele>2219.9</ele>
        <time>2023-10-31T10:53:09Z</time>
      </trkpt>
      <trkpt lat="42.80982" lon="-0.04216">
        <ele>2220.1</ele>
        <time>2023-10-31T10:53:10Z</time>
      </trkpt>
      <trkpt lat="42.80983" lon="-0.04217">
        <ele>2220.3</ele>
        <time>2023-10-31T10:53:11Z</time>
      </trkpt>
      <trkpt lat="42.80983" lon="-0.04218">
        <ele>2220.5</ele>
        <time>2023-10-31T10:53:12Z</time>
      </trkpt>
      <trkpt lat="42.80984" lon="-0.04218">
        <ele>2220.7</ele>
        <time>2023-10-31T10:53:13Z</time>
      </trkpt>
      <trkpt lat="42.80984" lon="-0.04219">
        <ele>2220.9</ele>
        <time>2023-10-31T10:53:14Z</time>
      </trkpt>
      <trkpt lat="42.80982" lon="-0.04219">
        <ele>2221.2</ele>
        <time>2023-10-31T10:53:15Z</time>
      </trkpt>
      <trkpt lat="42.80982" lon="-0.04219">
        <ele>2221.3</ele>
        <time>2023-10-31T10:53:16Z</time>
      </trkpt>
      <trkpt lat="42.80982" lon="-0.04219">
        <ele>2221.4</ele>
        <time>2023-10-31T10:53:17Z</time>
      </trkpt>
      <trkpt lat="42.80982" lon="-0.04221">
        <ele>2221.7</ele>
        <time>2023-10-31T10:53:18Z</time>
      </trkpt>
      <trkpt lat="42.80981" lon="-0.04221">
        <ele>2221.8</ele>
        <time>2023-10-31T10:53:19Z</time>
      </trkpt>
      <trkpt lat="42.80981" lon="-0.04222">
        <ele>2221.9</ele>
        <time>2023-10-31T10:53:20Z</time>
      </trkpt>
      <trkpt lat="42.80982" lon="-0.04222">
        <ele>2222</ele>
        <time>2023-10-31T10:53:21Z</time>
      </trkpt>
      <trkpt lat="42.80982" lon="-0.04222">
        <ele>2222.1</ele>
        <time>2023-10-31T10:53:22Z</time>
      </trkpt>
      <trkpt lat="42.80982" lon="-0.04223">
        <ele>2222.2</ele>
        <time>2023-10-31T10:53:23Z</time>
      </trkpt>
      <trkpt lat="42.80983" lon="-0.04224">
        <ele>2222.4</ele>
        <time>2023-10-31T10:53:24Z</time>
      </trkpt>
      <trkpt lat="42.80983" lon="-0.04224">
        <ele>2222.4</ele>
        <time>2023-10-31T10:53:25Z</time>
      </trkpt>
      <trkpt lat="42.80983" lon="-0.04225">
        <ele>2222.5</ele>
        <time>2023-10-31T10:53:26Z</time>
      </trkpt>
      <trkpt lat="42.80983" lon="-0.04225">
        <ele>2222.6</ele>
        <time>2023-10-31T10:53:27Z</time>
      </trkpt>
      <trkpt lat="42.80983" lon="-0.04226">
        <ele>2222.7</ele>
        <time>2023-10-31T10:53:28Z</time>
      </trkpt>
      <trkpt lat="42.80983" lon="-0.04226">
        <ele>2222.8</ele>
        <time>2023-10-31T10:53:29Z</time>
      </trkpt>
      <trkpt lat="42.80983" lon="-0.04227">
        <ele>2222.9</ele>
        <time>2023-10-31T10:53:30Z</time>
      </trkpt>
      <trkpt lat="42.80982" lon="-0.04227">
        <ele>2222.9</ele>
        <time>2023-10-31T10:53:31Z</time>
      </trkpt>
      <trkpt lat="42.80983" lon="-0.04228">
        <ele>2223.1</ele>
        <time>2023-10-31T10:53:32Z</time>
      </trkpt>
      <trkpt lat="42.80983" lon="-0.04228">
        <ele>2223.2</ele>
        <time>2023-10-31T10:53:33Z</time>
      </trkpt>
      <trkpt lat="42.80984" lon="-0.04228">
        <ele>2223.3</ele>
        <time>2023-10-31T10:53:34Z</time>
      </trkpt>
      <trkpt lat="42.80984" lon="-0.04228">
        <ele>2223.3</ele>
        <time>2023-10-31T10:53:35Z</time>
      </trkpt>
      <trkpt lat="42.80984" lon="-0.04228">
        <ele>2223.4</ele>
        <time>2023-10-31T10:53:36Z</time>
      </trkpt>
      <trkpt lat="42.80984" lon="-0.0423">
        <ele>2223.6</ele>
        <time>2023-10-31T10:53:37Z</time>
      </trkpt>
      <trkpt lat="42.80984" lon="-0.04231">
        <ele>2223.8</ele>
        <time>2023-10-31T10:53:38Z</time>
      </trkpt>
      <trkpt lat="42.80984" lon="-0.04232">
        <ele>2223.9</ele>
        <time>2023-10-31T10:53:39Z</time>
      </trkpt>
      <trkpt lat="42.80984" lon="-0.04233">
        <ele>2224</ele>
        <time>2023-10-31T10:53:40Z</time>
      </trkpt>
      <trkpt lat="42.80984" lon="-0.04234">
        <ele>2224.2</ele>
        <time>2023-10-31T10:53:41Z</time>
      </trkpt>
      <trkpt lat="42.80984" lon="-0.04235">
        <ele>2224.4</ele>
        <time>2023-10-31T10:53:42Z</time>
      </trkpt>
      <trkpt lat="42.80984" lon="-0.04236">
        <ele>2224.5</ele>
        <time>2023-10-31T10:53:43Z</time>
      </trkpt>
      <trkpt lat="42.80984" lon="-0.04236">
        <ele>2224.6</ele>
        <time>2023-10-31T10:53:44Z</time>
      </trkpt>
      <trkpt lat="42.80985" lon="-0.04236">
        <ele>2224.6</ele>
        <time>2023-10-31T10:53:45Z</time>
      </trkpt>
      <trkpt lat="42.80985" lon="-0.04237">
        <ele>2224.8</ele>
        <time>2023-10-31T10:53:46Z</time>
      </trkpt>
      <trkpt lat="42.80986" lon="-0.04237">
        <ele>2224.9</ele>
        <time>2023-10-31T10:53:47Z</time>
      </trkpt>
      <trkpt lat="42.80986" lon="-0.04237">
        <ele>2224.9</ele>
        <time>2023-10-31T10:53:48Z</time>
      </trkpt>
      <trkpt lat="42.80987" lon="-0.04237">
        <ele>2225</ele>
        <time>2023-10-31T10:53:49Z</time>
      </trkpt>
      <trkpt lat="42.80987" lon="-0.04238">
        <ele>2225.1</ele>
        <time>2023-10-31T10:53:50Z</time>
      </trkpt>
      <trkpt lat="42.80988" lon="-0.04238">
        <ele>2225.2</ele>
        <time>2023-10-31T10:53:51Z</time>
      </trkpt>
      <trkpt lat="42.80988" lon="-0.04238">
        <ele>2225.3</ele>
        <time>2023-10-31T10:53:52Z</time>
      </trkpt>
      <trkpt lat="42.80989" lon="-0.04239">
        <ele>2225.4</ele>
        <time>2023-10-31T10:53:53Z</time>
      </trkpt>
      <trkpt lat="42.80989" lon="-0.04239">
        <ele>2225.5</ele>
        <time>2023-10-31T10:53:54Z</time>
      </trkpt>
      <trkpt lat="42.8099" lon="-0.0424">
        <ele>2225.6</ele>
        <time>2023-10-31T10:53:55Z</time>
      </trkpt>
      <trkpt lat="42.8099" lon="-0.04241">
        <ele>2225.7</ele>
        <time>2023-10-31T10:53:56Z</time>
      </trkpt>
      <trkpt lat="42.8099" lon="-0.04241">
        <ele>2225.8</ele>
        <time>2023-10-31T10:53:57Z</time>
      </trkpt>
      <trkpt lat="42.8099" lon="-0.04241">
        <ele>2225.8</ele>
        <time>2023-10-31T10:53:58Z</time>
      </trkpt>
      <trkpt lat="42.8099" lon="-0.04242">
        <ele>2226</ele>
        <time>2023-10-31T10:53:59Z</time>
      </trkpt>
      <trkpt lat="42.8099" lon="-0.04243">
        <ele>2226.1</ele>
        <time>2023-10-31T10:54:00Z</time>
      </trkpt>
      <trkpt lat="42.8099" lon="-0.04244">
        <ele>2226.1</ele>
        <time>2023-10-31T10:54:01Z</time>
      </trkpt>
      <trkpt lat="42.8099" lon="-0.04244">
        <ele>2226.2</ele>
        <time>2023-10-31T10:54:02Z</time>
      </trkpt>
      <trkpt lat="42.8099" lon="-0.04245">
        <ele>2226.3</ele>
        <time>2023-10-31T10:54:03Z</time>
      </trkpt>
      <trkpt lat="42.8099" lon="-0.04245">
        <ele>2226.3</ele>
        <time>2023-10-31T10:54:04Z</time>
      </trkpt>
      <trkpt lat="42.8099" lon="-0.04246">
        <ele>2226.4</ele>
        <time>2023-10-31T10:54:05Z</time>
      </trkpt>
      <trkpt lat="42.8099" lon="-0.04247">
        <ele>2226.5</ele>
        <time>2023-10-31T10:54:06Z</time>
      </trkpt>
      <trkpt lat="42.8099" lon="-0.04248">
        <ele>2226.6</ele>
        <time>2023-10-31T10:54:07Z</time>
      </trkpt>
      <trkpt lat="42.80991" lon="-0.04248">
        <ele>2226.7</ele>
        <time>2023-10-31T10:54:08Z</time>
      </trkpt>
      <trkpt lat="42.80991" lon="-0.04248">
        <ele>2226.7</ele>
        <time>2023-10-31T10:54:09Z</time>
      </trkpt>
      <trkpt lat="42.80991" lon="-0.04249">
        <ele>2226.8</ele>
        <time>2023-10-31T10:54:10Z</time>
      </trkpt>
      <trkpt lat="42.80991" lon="-0.0425">
        <ele>2226.9</ele>
        <time>2023-10-31T10:54:11Z</time>
      </trkpt>
      <trkpt lat="42.80992" lon="-0.04251">
        <ele>2227</ele>
        <time>2023-10-31T10:54:12Z</time>
      </trkpt>
      <trkpt lat="42.80992" lon="-0.04251">
        <ele>2227.1</ele>
        <time>2023-10-31T10:54:13Z</time>
      </trkpt>
      <trkpt lat="42.80992" lon="-0.04253">
        <ele>2227.2</ele>
        <time>2023-10-31T10:54:14Z</time>
      </trkpt>
      <trkpt lat="42.80992" lon="-0.04253">
        <ele>2227.3</ele>
        <time>2023-10-31T10:54:15Z</time>
      </trkpt>
      <trkpt lat="42.80992" lon="-0.04254">
        <ele>2227.3</ele>
        <time>2023-10-31T10:54:16Z</time>
      </trkpt>
      <trkpt lat="42.80992" lon="-0.04254">
        <ele>2227.4</ele>
        <time>2023-10-31T10:54:17Z</time>
      </trkpt>
      <trkpt lat="42.80992" lon="-0.04256">
        <ele>2227.5</ele>
        <time>2023-10-31T10:54:18Z</time>
      </trkpt>
      <trkpt lat="42.80992" lon="-0.04256">
        <ele>2227.5</ele>
        <time>2023-10-31T10:54:19Z</time>
      </trkpt>
      <trkpt lat="42.80992" lon="-0.04257">
        <ele>2227.6</ele>
        <time>2023-10-31T10:54:20Z</time>
      </trkpt>
      <trkpt lat="42.80992" lon="-0.04257">
        <ele>2227.7</ele>
        <time>2023-10-31T10:54:21Z</time>
      </trkpt>
      <trkpt lat="42.80993" lon="-0.04258">
        <ele>2227.8</ele>
        <time>2023-10-31T10:54:22Z</time>
      </trkpt>
      <trkpt lat="42.80993" lon="-0.04257">
        <ele>2227.8</ele>
        <time>2023-10-31T10:54:23Z</time>
      </trkpt>
      <trkpt lat="42.80993" lon="-0.04258">
        <ele>2227.8</ele>
        <time>2023-10-31T10:54:24Z</time>
      </trkpt>
      <trkpt lat="42.80993" lon="-0.04258">
        <ele>2227.8</ele>
        <time>2023-10-31T10:54:25Z</time>
      </trkpt>
      <trkpt lat="42.80993" lon="-0.04258">
        <ele>2227.9</ele>
        <time>2023-10-31T10:54:26Z</time>
      </trkpt>
      <trkpt lat="42.80993" lon="-0.04258">
        <ele>2227.9</ele>
        <time>2023-10-31T10:54:27Z</time>
      </trkpt>
      <trkpt lat="42.80993" lon="-0.04259">
        <ele>2228</ele>
        <time>2023-10-31T10:54:28Z</time>
      </trkpt>
      <trkpt lat="42.80993" lon="-0.04259">
        <ele>2228</ele>
        <time>2023-10-31T10:54:29Z</time>
      </trkpt>
      <trkpt lat="42.80993" lon="-0.0426">
        <ele>2228.1</ele>
        <time>2023-10-31T10:54:30Z</time>
      </trkpt>
      <trkpt lat="42.80992" lon="-0.04262">
        <ele>2228.2</ele>
        <time>2023-10-31T10:54:31Z</time>
      </trkpt>
      <trkpt lat="42.80992" lon="-0.04263">
        <ele>2228.3</ele>
        <time>2023-10-31T10:54:32Z</time>
      </trkpt>
      <trkpt lat="42.80992" lon="-0.04264">
        <ele>2228.4</ele>
        <time>2023-10-31T10:54:33Z</time>
      </trkpt>
      <trkpt lat="42.80992" lon="-0.04264">
        <ele>2228.5</ele>
        <time>2023-10-31T10:54:34Z</time>
      </trkpt>
      <trkpt lat="42.80993" lon="-0.04266">
        <ele>2228.6</ele>
        <time>2023-10-31T10:54:35Z</time>
      </trkpt>
      <trkpt lat="42.80993" lon="-0.04266">
        <ele>2228.7</ele>
        <time>2023-10-31T10:54:36Z</time>
      </trkpt>
      <trkpt lat="42.80993" lon="-0.04266">
        <ele>2228.7</ele>
        <time>2023-10-31T10:54:37Z</time>
      </trkpt>
      <trkpt lat="42.80993" lon="-0.04265">
        <ele>2228.7</ele>
        <time>2023-10-31T10:54:38Z</time>
      </trkpt>
      <trkpt lat="42.80994" lon="-0.04266">
        <ele>2228.8</ele>
        <time>2023-10-31T10:54:39Z</time>
      </trkpt>
      <trkpt lat="42.80994" lon="-0.04266">
        <ele>2228.8</ele>
        <time>2023-10-31T10:54:40Z</time>
      </trkpt>
      <trkpt lat="42.80994" lon="-0.04266">
        <ele>2228.8</ele>
        <time>2023-10-31T10:54:41Z</time>
      </trkpt>
      <trkpt lat="42.80994" lon="-0.04266">
        <ele>2228.8</ele>
        <time>2023-10-31T10:54:42Z</time>
      </trkpt>
      <trkpt lat="42.80993" lon="-0.04266">
        <ele>2228.9</ele>
        <time>2023-10-31T10:54:43Z</time>
      </trkpt>
      <trkpt lat="42.80993" lon="-0.04266">
        <ele>2228.9</ele>
        <time>2023-10-31T10:54:44Z</time>
      </trkpt>
      <trkpt lat="42.80993" lon="-0.04267">
        <ele>2228.9</ele>
        <time>2023-10-31T10:54:45Z</time>
      </trkpt>
      <trkpt lat="42.80993" lon="-0.04267">
        <ele>2229</ele>
        <time>2023-10-31T10:54:46Z</time>
      </trkpt>
      <trkpt lat="42.80993" lon="-0.04267">
        <ele>2229</ele>
        <time>2023-10-31T10:54:47Z</time>
      </trkpt>
      <trkpt lat="42.80993" lon="-0.04267">
        <ele>2229</ele>
        <time>2023-10-31T10:54:48Z</time>
      </trkpt>
      <trkpt lat="42.80994" lon="-0.04267">
        <ele>2229.1</ele>
        <time>2023-10-31T10:54:49Z</time>
      </trkpt>
      <trkpt lat="42.80994" lon="-0.04267">
        <ele>2229.2</ele>
        <time>2023-10-31T10:54:50Z</time>
      </trkpt>
      <trkpt lat="42.80994" lon="-0.04267">
        <ele>2229.2</ele>
        <time>2023-10-31T10:54:51Z</time>
      </trkpt>
      <trkpt lat="42.80995" lon="-0.04267">
        <ele>2229.2</ele>
        <time>2023-10-31T10:54:52Z</time>
      </trkpt>
      <trkpt lat="42.80995" lon="-0.04268">
        <ele>2229.3</ele>
        <time>2023-10-31T10:54:53Z</time>
      </trkpt>
      <trkpt lat="42.80995" lon="-0.04268">
        <ele>2229.3</ele>
        <time>2023-10-31T10:54:54Z</time>
      </trkpt>
      <trkpt lat="42.80995" lon="-0.04269">
        <ele>2229.4</ele>
        <time>2023-10-31T10:54:55Z</time>
      </trkpt>
      <trkpt lat="42.80994" lon="-0.0427">
        <ele>2229.5</ele>
        <time>2023-10-31T10:54:56Z</time>
      </trkpt>
      <trkpt lat="42.80995" lon="-0.0427">
        <ele>2229.6</ele>
        <time>2023-10-31T10:54:57Z</time>
      </trkpt>
      <trkpt lat="42.80995" lon="-0.04269">
        <ele>2229.7</ele>
        <time>2023-10-31T10:54:58Z</time>
      </trkpt>
      <trkpt lat="42.80995" lon="-0.04269">
        <ele>2229.7</ele>
        <time>2023-10-31T10:54:59Z</time>
      </trkpt>
      <trkpt lat="42.80996" lon="-0.04269">
        <ele>2229.7</ele>
        <time>2023-10-31T10:55:00Z</time>
      </trkpt>
      <trkpt lat="42.80996" lon="-0.0427">
        <ele>2229.9</ele>
        <time>2023-10-31T10:55:01Z</time>
      </trkpt>
      <trkpt lat="42.80996" lon="-0.0427">
        <ele>2229.9</ele>
        <time>2023-10-31T10:55:02Z</time>
      </trkpt>
      <trkpt lat="42.80998" lon="-0.04272">
        <ele>2230.2</ele>
        <time>2023-10-31T10:55:03Z</time>
      </trkpt>
      <trkpt lat="42.80998" lon="-0.04271">
        <ele>2230.3</ele>
        <time>2023-10-31T10:55:04Z</time>
      </trkpt>
      <trkpt lat="42.80998" lon="-0.04271">
        <ele>2230.3</ele>
        <time>2023-10-31T10:55:05Z</time>
      </trkpt>
      <trkpt lat="42.80999" lon="-0.0427">
        <ele>2230.4</ele>
        <time>2023-10-31T10:55:06Z</time>
      </trkpt>
      <trkpt lat="42.80999" lon="-0.0427">
        <ele>2230.4</ele>
        <time>2023-10-31T10:55:07Z</time>
      </trkpt>
      <trkpt lat="42.80999" lon="-0.0427">
        <ele>2230.4</ele>
        <time>2023-10-31T10:55:08Z</time>
      </trkpt>
      <trkpt lat="42.80999" lon="-0.0427">
        <ele>2230.5</ele>
        <time>2023-10-31T10:55:09Z</time>
      </trkpt>
      <trkpt lat="42.81" lon="-0.0427">
        <ele>2230.6</ele>
        <time>2023-10-31T10:55:10Z</time>
      </trkpt>
      <trkpt lat="42.80999" lon="-0.0427">
        <ele>2230.6</ele>
        <time>2023-10-31T10:55:11Z</time>
      </trkpt>
      <trkpt lat="42.80999" lon="-0.04271">
        <ele>2230.7</ele>
        <time>2023-10-31T10:55:12Z</time>
      </trkpt>
      <trkpt lat="42.81" lon="-0.04271">
        <ele>2230.7</ele>
        <time>2023-10-31T10:55:13Z</time>
      </trkpt>
      <trkpt lat="42.81" lon="-0.0427">
        <ele>2230.8</ele>
        <time>2023-10-31T10:55:14Z</time>
      </trkpt>
      <trkpt lat="42.81" lon="-0.0427">
        <ele>2230.8</ele>
        <time>2023-10-31T10:55:15Z</time>
      </trkpt>
      <trkpt lat="42.81" lon="-0.0427">
        <ele>2230.9</ele>
        <time>2023-10-31T10:55:16Z</time>
      </trkpt>
      <trkpt lat="42.81" lon="-0.0427">
        <ele>2230.9</ele>
        <time>2023-10-31T10:55:17Z</time>
      </trkpt>
      <trkpt lat="42.81" lon="-0.04271">
        <ele>2230.9</ele>
        <time>2023-10-31T10:55:18Z</time>
      </trkpt>
      <trkpt lat="42.81001" lon="-0.0427">
        <ele>2231</ele>
        <time>2023-10-31T10:55:19Z</time>
      </trkpt>
      <trkpt lat="42.81001" lon="-0.0427">
        <ele>2231</ele>
        <time>2023-10-31T10:55:20Z</time>
      </trkpt>
      <trkpt lat="42.81001" lon="-0.04271">
        <ele>2231</ele>
        <time>2023-10-31T10:55:21Z</time>
      </trkpt>
      <trkpt lat="42.81001" lon="-0.0427">
        <ele>2231.1</ele>
        <time>2023-10-31T10:55:22Z</time>
      </trkpt>
      <trkpt lat="42.81001" lon="-0.0427">
        <ele>2231.1</ele>
        <time>2023-10-31T10:55:23Z</time>
      </trkpt>
      <trkpt lat="42.81002" lon="-0.04271">
        <ele>2231.2</ele>
        <time>2023-10-31T10:55:24Z</time>
      </trkpt>
      <trkpt lat="42.81002" lon="-0.04271">
        <ele>2231.3</ele>
        <time>2023-10-31T10:55:25Z</time>
      </trkpt>
      <trkpt lat="42.81002" lon="-0.04271">
        <ele>2231.3</ele>
        <time>2023-10-31T10:55:26Z</time>
      </trkpt>
      <trkpt lat="42.81002" lon="-0.04273">
        <ele>2231.5</ele>
        <time>2023-10-31T10:55:27Z</time>
      </trkpt>
      <trkpt lat="42.81001" lon="-0.04271">
        <ele>2231.7</ele>
        <time>2023-10-31T10:55:28Z</time>
      </trkpt>
      <trkpt lat="42.80999" lon="-0.04272">
        <ele>2232</ele>
        <time>2023-10-31T10:55:29Z</time>
      </trkpt>
      <trkpt lat="42.81" lon="-0.04273">
        <ele>2232.1</ele>
        <time>2023-10-31T10:55:30Z</time>
      </trkpt>
      <trkpt lat="42.81" lon="-0.04274">
        <ele>2232.3</ele>
        <time>2023-10-31T10:55:31Z</time>
      </trkpt>
      <trkpt lat="42.81001" lon="-0.04274">
        <ele>2232.3</ele>
        <time>2023-10-31T10:55:32Z</time>
      </trkpt>
      <trkpt lat="42.81001" lon="-0.04274">
        <ele>2232.4</ele>
        <time>2023-10-31T10:55:33Z</time>
      </trkpt>
      <trkpt lat="42.81001" lon="-0.04274">
        <ele>2232.4</ele>
        <time>2023-10-31T10:55:34Z</time>
      </trkpt>
      <trkpt lat="42.81001" lon="-0.04274">
        <ele>2232.4</ele>
        <time>2023-10-31T10:55:35Z</time>
      </trkpt>
      <trkpt lat="42.81001" lon="-0.04274">
        <ele>2232.4</ele>
        <time>2023-10-31T10:55:36Z</time>
      </trkpt>
      <trkpt lat="42.81001" lon="-0.04274">
        <ele>2232.4</ele>
        <time>2023-10-31T10:55:37Z</time>
      </trkpt>
      <trkpt lat="42.81001" lon="-0.04274">
        <ele>2232.5</ele>
        <time>2023-10-31T10:55:38Z</time>
      </trkpt>
      <trkpt lat="42.81001" lon="-0.04274">
        <ele>2232.5</ele>
        <time>2023-10-31T10:55:39Z</time>
      </trkpt>
      <trkpt lat="42.81" lon="-0.04275">
        <ele>2232.5</ele>
        <time>2023-10-31T10:55:40Z</time>
      </trkpt>
      <trkpt lat="42.81" lon="-0.04275">
        <ele>2232.6</ele>
        <time>2023-10-31T10:55:41Z</time>
      </trkpt>
      <trkpt lat="42.81" lon="-0.04275">
        <ele>2232.6</ele>
        <time>2023-10-31T10:55:42Z</time>
      </trkpt>
      <trkpt lat="42.81" lon="-0.04275">
        <ele>2232.6</ele>
        <time>2023-10-31T10:55:43Z</time>
      </trkpt>
      <trkpt lat="42.81" lon="-0.04277">
        <ele>2232.7</ele>
        <time>2023-10-31T10:55:44Z</time>
      </trkpt>
      <trkpt lat="42.81" lon="-0.04277">
        <ele>2232.8</ele>
        <time>2023-10-31T10:55:45Z</time>
      </trkpt>
      <trkpt lat="42.81" lon="-0.04278">
        <ele>2232.8</ele>
        <time>2023-10-31T10:55:46Z</time>
      </trkpt>
      <trkpt lat="42.81" lon="-0.04279">
        <ele>2233</ele>
        <time>2023-10-31T10:55:47Z</time>
      </trkpt>
      <trkpt lat="42.81" lon="-0.0428">
        <ele>2233</ele>
        <time>2023-10-31T10:55:48Z</time>
      </trkpt>
      <trkpt lat="42.81" lon="-0.0428">
        <ele>2233.1</ele>
        <time>2023-10-31T10:55:49Z</time>
      </trkpt>
      <trkpt lat="42.81" lon="-0.04279">
        <ele>2233.1</ele>
        <time>2023-10-31T10:55:50Z</time>
      </trkpt>
      <trkpt lat="42.81" lon="-0.0428">
        <ele>2233.1</ele>
        <time>2023-10-31T10:55:51Z</time>
      </trkpt>
      <trkpt lat="42.81" lon="-0.0428">
        <ele>2233.2</ele>
        <time>2023-10-31T10:55:52Z</time>
      </trkpt>
      <trkpt lat="42.81" lon="-0.04281">
        <ele>2233.2</ele>
        <time>2023-10-31T10:55:53Z</time>
      </trkpt>
      <trkpt lat="42.80999" lon="-0.04282">
        <ele>2233.3</ele>
        <time>2023-10-31T10:55:54Z</time>
      </trkpt>
      <trkpt lat="42.80999" lon="-0.04283">
        <ele>2233.4</ele>
        <time>2023-10-31T10:55:55Z</time>
      </trkpt>
      <trkpt lat="42.80999" lon="-0.04284">
        <ele>2233.5</ele>
        <time>2023-10-31T10:55:56Z</time>
      </trkpt>
      <trkpt lat="42.80999" lon="-0.04284">
        <ele>2233.5</ele>
        <time>2023-10-31T10:55:57Z</time>
      </trkpt>
      <trkpt lat="42.80998" lon="-0.04285">
        <ele>2233.6</ele>
        <time>2023-10-31T10:55:58Z</time>
      </trkpt>
      <trkpt lat="42.80998" lon="-0.04286">
        <ele>2233.7</ele>
        <time>2023-10-31T10:55:59Z</time>
      </trkpt>
      <trkpt lat="42.80998" lon="-0.04287">
        <ele>2233.8</ele>
        <time>2023-10-31T10:56:00Z</time>
      </trkpt>
      <trkpt lat="42.80998" lon="-0.04289">
        <ele>2233.8</ele>
        <time>2023-10-31T10:56:01Z</time>
      </trkpt>
      <trkpt lat="42.80999" lon="-0.0429">
        <ele>2233.9</ele>
        <time>2023-10-31T10:56:02Z</time>
      </trkpt>
      <trkpt lat="42.80999" lon="-0.0429">
        <ele>2234</ele>
        <time>2023-10-31T10:56:03Z</time>
      </trkpt>
      <trkpt lat="42.81" lon="-0.04291">
        <ele>2234</ele>
        <time>2023-10-31T10:56:04Z</time>
      </trkpt>
      <trkpt lat="42.81" lon="-0.04291">
        <ele>2234.1</ele>
        <time>2023-10-31T10:56:05Z</time>
      </trkpt>
      <trkpt lat="42.81001" lon="-0.04292">
        <ele>2234.1</ele>
        <time>2023-10-31T10:56:06Z</time>
      </trkpt>
      <trkpt lat="42.81001" lon="-0.04292">
        <ele>2234.2</ele>
        <time>2023-10-31T10:56:07Z</time>
      </trkpt>
      <trkpt lat="42.81001" lon="-0.04292">
        <ele>2234.2</ele>
        <time>2023-10-31T10:56:08Z</time>
      </trkpt>
      <trkpt lat="42.81001" lon="-0.04292">
        <ele>2234.2</ele>
        <time>2023-10-31T10:56:09Z</time>
      </trkpt>
      <trkpt lat="42.81001" lon="-0.04293">
        <ele>2234.3</ele>
        <time>2023-10-31T10:56:10Z</time>
      </trkpt>
      <trkpt lat="42.81001" lon="-0.04294">
        <ele>2234.3</ele>
        <time>2023-10-31T10:56:11Z</time>
      </trkpt>
      <trkpt lat="42.81002" lon="-0.04294">
        <ele>2234.4</ele>
        <time>2023-10-31T10:56:12Z</time>
      </trkpt>
      <trkpt lat="42.81002" lon="-0.04293">
        <ele>2234.4</ele>
        <time>2023-10-31T10:56:13Z</time>
      </trkpt>
      <trkpt lat="42.81002" lon="-0.04293">
        <ele>2234.4</ele>
        <time>2023-10-31T10:56:14Z</time>
      </trkpt>
      <trkpt lat="42.81002" lon="-0.04293">
        <ele>2234.4</ele>
        <time>2023-10-31T10:56:15Z</time>
      </trkpt>
      <trkpt lat="42.81003" lon="-0.04293">
        <ele>2234.4</ele>
        <time>2023-10-31T10:56:16Z</time>
      </trkpt>
      <trkpt lat="42.81004" lon="-0.04293">
        <ele>2234.5</ele>
        <time>2023-10-31T10:56:17Z</time>
      </trkpt>
      <trkpt lat="42.81004" lon="-0.04293">
        <ele>2234.5</ele>
        <time>2023-10-31T10:56:18Z</time>
      </trkpt>
      <trkpt lat="42.81004" lon="-0.04293">
        <ele>2234.5</ele>
        <time>2023-10-31T10:56:19Z</time>
      </trkpt>
      <trkpt lat="42.81004" lon="-0.04292">
        <ele>2234.5</ele>
        <time>2023-10-31T10:56:20Z</time>
      </trkpt>
      <trkpt lat="42.81004" lon="-0.04292">
        <ele>2234.5</ele>
        <time>2023-10-31T10:56:21Z</time>
      </trkpt>
      <trkpt lat="42.81004" lon="-0.04292">
        <ele>2234.5</ele>
        <time>2023-10-31T10:56:22Z</time>
      </trkpt>
      <trkpt lat="42.81004" lon="-0.04292">
        <ele>2234.5</ele>
        <time>2023-10-31T10:56:23Z</time>
      </trkpt>
      <trkpt lat="42.81004" lon="-0.04293">
        <ele>2234.5</ele>
        <time>2023-10-31T10:56:24Z</time>
      </trkpt>
      <trkpt lat="42.81004" lon="-0.04293">
        <ele>2234.5</ele>
        <time>2023-10-31T10:56:25Z</time>
      </trkpt>
      <trkpt lat="42.81004" lon="-0.04293">
        <ele>2234.5</ele>
        <time>2023-10-31T10:56:26Z</time>
      </trkpt>
      <trkpt lat="42.81004" lon="-0.04293">
        <ele>2234.5</ele>
        <time>2023-10-31T10:56:27Z</time>
      </trkpt>
      <trkpt lat="42.81004" lon="-0.04293">
        <ele>2234.5</ele>
        <time>2023-10-31T10:56:28Z</time>
      </trkpt>
      <trkpt lat="42.81005" lon="-0.04293">
        <ele>2234.6</ele>
        <time>2023-10-31T10:56:29Z</time>
      </trkpt>
      <trkpt lat="42.81005" lon="-0.04294">
        <ele>2234.6</ele>
        <time>2023-10-31T10:56:30Z</time>
      </trkpt>
      <trkpt lat="42.81005" lon="-0.04295">
        <ele>2234.6</ele>
        <time>2023-10-31T10:56:31Z</time>
      </trkpt>
      <trkpt lat="42.81005" lon="-0.04295">
        <ele>2234.6</ele>
        <time>2023-10-31T10:56:32Z</time>
      </trkpt>
      <trkpt lat="42.81006" lon="-0.04296">
        <ele>2234.6</ele>
        <time>2023-10-31T10:56:33Z</time>
      </trkpt>
      <trkpt lat="42.81005" lon="-0.04296">
        <ele>2234.6</ele>
        <time>2023-10-31T10:56:34Z</time>
      </trkpt>
      <trkpt lat="42.81005" lon="-0.04296">
        <ele>2234.6</ele>
        <time>2023-10-31T10:56:35Z</time>
      </trkpt>
      <trkpt lat="42.81006" lon="-0.04296">
        <ele>2234.6</ele>
        <time>2023-10-31T10:56:36Z</time>
      </trkpt>
      <trkpt lat="42.81006" lon="-0.04296">
        <ele>2234.6</ele>
        <time>2023-10-31T10:56:37Z</time>
      </trkpt>
      <trkpt lat="42.81006" lon="-0.04297">
        <ele>2234.6</ele>
        <time>2023-10-31T10:56:38Z</time>
      </trkpt>
      <trkpt lat="42.81005" lon="-0.04298">
        <ele>2234.6</ele>
        <time>2023-10-31T10:56:39Z</time>
      </trkpt>
      <trkpt lat="42.81005" lon="-0.04299">
        <ele>2234.6</ele>
        <time>2023-10-31T10:56:40Z</time>
      </trkpt>
      <trkpt lat="42.81005" lon="-0.043">
        <ele>2234.6</ele>
        <time>2023-10-31T10:56:41Z</time>
      </trkpt>
      <trkpt lat="42.81005" lon="-0.04301">
        <ele>2234.6</ele>
        <time>2023-10-31T10:56:42Z</time>
      </trkpt>
      <trkpt lat="42.81005" lon="-0.04302">
        <ele>2234.6</ele>
        <time>2023-10-31T10:56:43Z</time>
      </trkpt>
      <trkpt lat="42.81004" lon="-0.04303">
        <ele>2234.6</ele>
        <time>2023-10-31T10:56:44Z</time>
      </trkpt>
      <trkpt lat="42.81004" lon="-0.04304">
        <ele>2234.6</ele>
        <time>2023-10-31T10:56:45Z</time>
      </trkpt>
      <trkpt lat="42.81004" lon="-0.04305">
        <ele>2234.5</ele>
        <time>2023-10-31T10:56:46Z</time>
      </trkpt>
      <trkpt lat="42.81004" lon="-0.04306">
        <ele>2234.5</ele>
        <time>2023-10-31T10:56:47Z</time>
      </trkpt>
      <trkpt lat="42.81004" lon="-0.04307">
        <ele>2234.5</ele>
        <time>2023-10-31T10:56:48Z</time>
      </trkpt>
      <trkpt lat="42.81004" lon="-0.04307">
        <ele>2234.4</ele>
        <time>2023-10-31T10:56:49Z</time>
      </trkpt>
      <trkpt lat="42.81003" lon="-0.04308">
        <ele>2234.4</ele>
        <time>2023-10-31T10:56:50Z</time>
      </trkpt>
      <trkpt lat="42.81003" lon="-0.04309">
        <ele>2234.4</ele>
        <time>2023-10-31T10:56:51Z</time>
      </trkpt>
      <trkpt lat="42.81003" lon="-0.0431">
        <ele>2234.4</ele>
        <time>2023-10-31T10:56:52Z</time>
      </trkpt>
      <trkpt lat="42.81003" lon="-0.0431">
        <ele>2234.3</ele>
        <time>2023-10-31T10:56:53Z</time>
      </trkpt>
      <trkpt lat="42.81003" lon="-0.04312">
        <ele>2234.2</ele>
        <time>2023-10-31T10:56:54Z</time>
      </trkpt>
      <trkpt lat="42.81002" lon="-0.04312">
        <ele>2234.2</ele>
        <time>2023-10-31T10:56:55Z</time>
      </trkpt>
      <trkpt lat="42.81002" lon="-0.04313">
        <ele>2234.2</ele>
        <time>2023-10-31T10:56:56Z</time>
      </trkpt>
      <trkpt lat="42.81002" lon="-0.04313">
        <ele>2234.1</ele>
        <time>2023-10-31T10:56:57Z</time>
      </trkpt>
      <trkpt lat="42.81002" lon="-0.04313">
        <ele>2234.1</ele>
        <time>2023-10-31T10:56:58Z</time>
      </trkpt>
      <trkpt lat="42.81003" lon="-0.04314">
        <ele>2234</ele>
        <time>2023-10-31T10:56:59Z</time>
      </trkpt>
      <trkpt lat="42.81003" lon="-0.04315">
        <ele>2234</ele>
        <time>2023-10-31T10:57:00Z</time>
      </trkpt>
      <trkpt lat="42.81003" lon="-0.04316">
        <ele>2233.9</ele>
        <time>2023-10-31T10:57:01Z</time>
      </trkpt>
      <trkpt lat="42.81003" lon="-0.04316">
        <ele>2233.9</ele>
        <time>2023-10-31T10:57:02Z</time>
      </trkpt>
      <trkpt lat="42.81003" lon="-0.04316">
        <ele>2233.9</ele>
        <time>2023-10-31T10:57:03Z</time>
      </trkpt>
      <trkpt lat="42.81003" lon="-0.04317">
        <ele>2233.8</ele>
        <time>2023-10-31T10:57:04Z</time>
      </trkpt>
      <trkpt lat="42.81003" lon="-0.04318">
        <ele>2233.7</ele>
        <time>2023-10-31T10:57:05Z</time>
      </trkpt>
      <trkpt lat="42.81003" lon="-0.04317">
        <ele>2233.6</ele>
        <time>2023-10-31T10:57:06Z</time>
      </trkpt>
      <trkpt lat="42.81003" lon="-0.04317">
        <ele>2233.6</ele>
        <time>2023-10-31T10:57:07Z</time>
      </trkpt>
      <trkpt lat="42.81003" lon="-0.04318">
        <ele>2233.6</ele>
        <time>2023-10-31T10:57:08Z</time>
      </trkpt>
      <trkpt lat="42.81003" lon="-0.04318">
        <ele>2233.6</ele>
        <time>2023-10-31T10:57:09Z</time>
      </trkpt>
      <trkpt lat="42.81003" lon="-0.04318">
        <ele>2233.5</ele>
        <time>2023-10-31T10:57:10Z</time>
      </trkpt>
      <trkpt lat="42.81003" lon="-0.04318">
        <ele>2233.5</ele>
        <time>2023-10-31T10:57:11Z</time>
      </trkpt>
      <trkpt lat="42.81003" lon="-0.04319">
        <ele>2233.4</ele>
        <time>2023-10-31T10:57:12Z</time>
      </trkpt>
      <trkpt lat="42.81003" lon="-0.04319">
        <ele>2233.4</ele>
        <time>2023-10-31T10:57:13Z</time>
      </trkpt>
      <trkpt lat="42.81003" lon="-0.0432">
        <ele>2233.3</ele>
        <time>2023-10-31T10:57:14Z</time>
      </trkpt>
      <trkpt lat="42.81003" lon="-0.0432">
        <ele>2233.2</ele>
        <time>2023-10-31T10:57:15Z</time>
      </trkpt>
      <trkpt lat="42.81003" lon="-0.04321">
        <ele>2233.2</ele>
        <time>2023-10-31T10:57:16Z</time>
      </trkpt>
      <trkpt lat="42.81003" lon="-0.04321">
        <ele>2233.1</ele>
        <time>2023-10-31T10:57:17Z</time>
      </trkpt>
      <trkpt lat="42.81003" lon="-0.04321">
        <ele>2233.1</ele>
        <time>2023-10-31T10:57:18Z</time>
      </trkpt>
      <trkpt lat="42.81004" lon="-0.04322">
        <ele>2233</ele>
        <time>2023-10-31T10:57:19Z</time>
      </trkpt>
      <trkpt lat="42.81004" lon="-0.04322">
        <ele>2233</ele>
        <time>2023-10-31T10:57:20Z</time>
      </trkpt>
      <trkpt lat="42.81004" lon="-0.04322">
        <ele>2232.9</ele>
        <time>2023-10-31T10:57:21Z</time>
      </trkpt>
      <trkpt lat="42.81004" lon="-0.04323">
        <ele>2232.9</ele>
        <time>2023-10-31T10:57:22Z</time>
      </trkpt>
      <trkpt lat="42.81005" lon="-0.04323">
        <ele>2232.8</ele>
        <time>2023-10-31T10:57:23Z</time>
      </trkpt>
      <trkpt lat="42.81005" lon="-0.04323">
        <ele>2232.8</ele>
        <time>2023-10-31T10:57:24Z</time>
      </trkpt>
      <trkpt lat="42.81005" lon="-0.04324">
        <ele>2232.7</ele>
        <time>2023-10-31T10:57:25Z</time>
      </trkpt>
      <trkpt lat="42.81005" lon="-0.04324">
        <ele>2232.6</ele>
        <time>2023-10-31T10:57:26Z</time>
      </trkpt>
      <trkpt lat="42.81005" lon="-0.04325">
        <ele>2232.6</ele>
        <time>2023-10-31T10:57:27Z</time>
      </trkpt>
      <trkpt lat="42.81004" lon="-0.04323">
        <ele>2232.4</ele>
        <time>2023-10-31T10:57:28Z</time>
      </trkpt>
      <trkpt lat="42.81005" lon="-0.04324">
        <ele>2232.3</ele>
        <time>2023-10-31T10:57:29Z</time>
      </trkpt>
      <trkpt lat="42.81004" lon="-0.04324">
        <ele>2232.2</ele>
        <time>2023-10-31T10:57:30Z</time>
      </trkpt>
      <trkpt lat="42.81005" lon="-0.04324">
        <ele>2232.2</ele>
        <time>2023-10-31T10:57:31Z</time>
      </trkpt>
      <trkpt lat="42.81004" lon="-0.04325">
        <ele>2232.1</ele>
        <time>2023-10-31T10:57:32Z</time>
      </trkpt>
      <trkpt lat="42.81004" lon="-0.04326">
        <ele>2232</ele>
        <time>2023-10-31T10:57:33Z</time>
      </trkpt>
      <trkpt lat="42.81004" lon="-0.04326">
        <ele>2231.9</ele>
        <time>2023-10-31T10:57:34Z</time>
      </trkpt>
      <trkpt lat="42.81003" lon="-0.04327">
        <ele>2231.8</ele>
        <time>2023-10-31T10:57:35Z</time>
      </trkpt>
      <trkpt lat="42.81002" lon="-0.04327">
        <ele>2231.6</ele>
        <time>2023-10-31T10:57:36Z</time>
      </trkpt>
      <trkpt lat="42.81002" lon="-0.04327">
        <ele>2231.5</ele>
        <time>2023-10-31T10:57:37Z</time>
      </trkpt>
      <trkpt lat="42.81002" lon="-0.04327">
        <ele>2231.4</ele>
        <time>2023-10-31T10:57:38Z</time>
      </trkpt>
      <trkpt lat="42.81001" lon="-0.04328">
        <ele>2231.4</ele>
        <time>2023-10-31T10:57:39Z</time>
      </trkpt>
      <trkpt lat="42.81001" lon="-0.04329">
        <ele>2231.3</ele>
        <time>2023-10-31T10:57:40Z</time>
      </trkpt>
      <trkpt lat="42.81001" lon="-0.04329">
        <ele>2231.2</ele>
        <time>2023-10-31T10:57:41Z</time>
      </trkpt>
      <trkpt lat="42.81002" lon="-0.04329">
        <ele>2231.2</ele>
        <time>2023-10-31T10:57:42Z</time>
      </trkpt>
      <trkpt lat="42.81001" lon="-0.04329">
        <ele>2231.2</ele>
        <time>2023-10-31T10:57:43Z</time>
      </trkpt>
      <trkpt lat="42.81002" lon="-0.0433">
        <ele>2231</ele>
        <time>2023-10-31T10:57:44Z</time>
      </trkpt>
      <trkpt lat="42.81002" lon="-0.04329">
        <ele>2231</ele>
        <time>2023-10-31T10:57:45Z</time>
      </trkpt>
      <trkpt lat="42.81002" lon="-0.04329">
        <ele>2230.9</ele>
        <time>2023-10-31T10:57:46Z</time>
      </trkpt>
      <trkpt lat="42.81002" lon="-0.0433">
        <ele>2230.9</ele>
        <time>2023-10-31T10:57:47Z</time>
      </trkpt>
      <trkpt lat="42.81002" lon="-0.0433">
        <ele>2230.9</ele>
        <time>2023-10-31T10:57:48Z</time>
      </trkpt>
      <trkpt lat="42.81001" lon="-0.0433">
        <ele>2230.8</ele>
        <time>2023-10-31T10:57:49Z</time>
      </trkpt>
      <trkpt lat="42.81002" lon="-0.0433">
        <ele>2230.8</ele>
        <time>2023-10-31T10:57:50Z</time>
      </trkpt>
      <trkpt lat="42.81001" lon="-0.0433">
        <ele>2230.7</ele>
        <time>2023-10-31T10:57:51Z</time>
      </trkpt>
      <trkpt lat="42.81002" lon="-0.0433">
        <ele>2230.6</ele>
        <time>2023-10-31T10:57:52Z</time>
      </trkpt>
      <trkpt lat="42.81001" lon="-0.0433">
        <ele>2230.6</ele>
        <time>2023-10-31T10:57:53Z</time>
      </trkpt>
      <trkpt lat="42.81001" lon="-0.04331">
        <ele>2230.5</ele>
        <time>2023-10-31T10:57:54Z</time>
      </trkpt>
      <trkpt lat="42.81001" lon="-0.04331">
        <ele>2230.4</ele>
        <time>2023-10-31T10:57:55Z</time>
      </trkpt>
      <trkpt lat="42.81001" lon="-0.04332">
        <ele>2230.3</ele>
        <time>2023-10-31T10:57:56Z</time>
      </trkpt>
      <trkpt lat="42.81002" lon="-0.04332">
        <ele>2230.2</ele>
        <time>2023-10-31T10:57:57Z</time>
      </trkpt>
      <trkpt lat="42.81002" lon="-0.04332">
        <ele>2230.2</ele>
        <time>2023-10-31T10:57:58Z</time>
      </trkpt>
      <trkpt lat="42.81002" lon="-0.04332">
        <ele>2230.1</ele>
        <time>2023-10-31T10:57:59Z</time>
      </trkpt>
      <trkpt lat="42.81003" lon="-0.04333">
        <ele>2229.9</ele>
        <time>2023-10-31T10:58:00Z</time>
      </trkpt>
      <trkpt lat="42.81003" lon="-0.04334">
        <ele>2229.8</ele>
        <time>2023-10-31T10:58:01Z</time>
      </trkpt>
      <trkpt lat="42.81003" lon="-0.04334">
        <ele>2229.7</ele>
        <time>2023-10-31T10:58:02Z</time>
      </trkpt>
      <trkpt lat="42.81003" lon="-0.04335">
        <ele>2229.7</ele>
        <time>2023-10-31T10:58:03Z</time>
      </trkpt>
      <trkpt lat="42.81003" lon="-0.04335">
        <ele>2229.6</ele>
        <time>2023-10-31T10:58:04Z</time>
      </trkpt>
      <trkpt lat="42.81003" lon="-0.04335">
        <ele>2229.6</ele>
        <time>2023-10-31T10:58:05Z</time>
      </trkpt>
      <trkpt lat="42.81003" lon="-0.04336">
        <ele>2229.6</ele>
        <time>2023-10-31T10:58:06Z</time>
      </trkpt>
      <trkpt lat="42.81002" lon="-0.04336">
        <ele>2229.5</ele>
        <time>2023-10-31T10:58:07Z</time>
      </trkpt>
      <trkpt lat="42.81002" lon="-0.04337">
        <ele>2229.4</ele>
        <time>2023-10-31T10:58:08Z</time>
      </trkpt>
      <trkpt lat="42.81001" lon="-0.04337">
        <ele>2229.3</ele>
        <time>2023-10-31T10:58:09Z</time>
      </trkpt>
      <trkpt lat="42.81001" lon="-0.04338">
        <ele>2229.3</ele>
        <time>2023-10-31T10:58:10Z</time>
      </trkpt>
      <trkpt lat="42.81001" lon="-0.04338">
        <ele>2229.2</ele>
        <time>2023-10-31T10:58:11Z</time>
      </trkpt>
      <trkpt lat="42.81" lon="-0.04339">
        <ele>2229.1</ele>
        <time>2023-10-31T10:58:12Z</time>
      </trkpt>
      <trkpt lat="42.81" lon="-0.04338">
        <ele>2229</ele>
        <time>2023-10-31T10:58:13Z</time>
      </trkpt>
      <trkpt lat="42.81" lon="-0.0434">
        <ele>2228.9</ele>
        <time>2023-10-31T10:58:14Z</time>
      </trkpt>
      <trkpt lat="42.80999" lon="-0.0434">
        <ele>2228.8</ele>
        <time>2023-10-31T10:58:15Z</time>
      </trkpt>
      <trkpt lat="42.80999" lon="-0.0434">
        <ele>2228.7</ele>
        <time>2023-10-31T10:58:16Z</time>
      </trkpt>
      <trkpt lat="42.80999" lon="-0.0434">
        <ele>2228.7</ele>
        <time>2023-10-31T10:58:17Z</time>
      </trkpt>
      <trkpt lat="42.80999" lon="-0.04341">
        <ele>2228.7</ele>
        <time>2023-10-31T10:58:18Z</time>
      </trkpt>
      <trkpt lat="42.80999" lon="-0.04341">
        <ele>2228.7</ele>
        <time>2023-10-31T10:58:19Z</time>
      </trkpt>
      <trkpt lat="42.80998" lon="-0.04341">
        <ele>2228.5</ele>
        <time>2023-10-31T10:58:20Z</time>
      </trkpt>
      <trkpt lat="42.80998" lon="-0.04342">
        <ele>2228.4</ele>
        <time>2023-10-31T10:58:21Z</time>
      </trkpt>
      <trkpt lat="42.80999" lon="-0.04343">
        <ele>2228.3</ele>
        <time>2023-10-31T10:58:22Z</time>
      </trkpt>
      <trkpt lat="42.80999" lon="-0.04343">
        <ele>2228.3</ele>
        <time>2023-10-31T10:58:23Z</time>
      </trkpt>
      <trkpt lat="42.80999" lon="-0.04344">
        <ele>2228.2</ele>
        <time>2023-10-31T10:58:24Z</time>
      </trkpt>
      <trkpt lat="42.81" lon="-0.04345">
        <ele>2228.1</ele>
        <time>2023-10-31T10:58:25Z</time>
      </trkpt>
      <trkpt lat="42.81" lon="-0.04346">
        <ele>2228</ele>
        <time>2023-10-31T10:58:26Z</time>
      </trkpt>
      <trkpt lat="42.81001" lon="-0.04347">
        <ele>2227.9</ele>
        <time>2023-10-31T10:58:27Z</time>
      </trkpt>
      <trkpt lat="42.81001" lon="-0.04348">
        <ele>2227.7</ele>
        <time>2023-10-31T10:58:28Z</time>
      </trkpt>
      <trkpt lat="42.81001" lon="-0.04349">
        <ele>2227.7</ele>
        <time>2023-10-31T10:58:29Z</time>
      </trkpt>
      <trkpt lat="42.81002" lon="-0.04349">
        <ele>2227.6</ele>
        <time>2023-10-31T10:58:30Z</time>
      </trkpt>
      <trkpt lat="42.81002" lon="-0.0435">
        <ele>2227.6</ele>
        <time>2023-10-31T10:58:31Z</time>
      </trkpt>
      <trkpt lat="42.81002" lon="-0.04351">
        <ele>2227.5</ele>
        <time>2023-10-31T10:58:32Z</time>
      </trkpt>
      <trkpt lat="42.81002" lon="-0.04352">
        <ele>2227.4</ele>
        <time>2023-10-31T10:58:33Z</time>
      </trkpt>
      <trkpt lat="42.81004" lon="-0.04354">
        <ele>2227.1</ele>
        <time>2023-10-31T10:58:34Z</time>
      </trkpt>
      <trkpt lat="42.81004" lon="-0.04353">
        <ele>2226.9</ele>
        <time>2023-10-31T10:58:35Z</time>
      </trkpt>
      <trkpt lat="42.81005" lon="-0.04353">
        <ele>2226.8</ele>
        <time>2023-10-31T10:58:36Z</time>
      </trkpt>
      <trkpt lat="42.81005" lon="-0.04353">
        <ele>2226.8</ele>
        <time>2023-10-31T10:58:37Z</time>
      </trkpt>
      <trkpt lat="42.81005" lon="-0.04353">
        <ele>2226.7</ele>
        <time>2023-10-31T10:58:38Z</time>
      </trkpt>
      <trkpt lat="42.81006" lon="-0.04353">
        <ele>2226.6</ele>
        <time>2023-10-31T10:58:39Z</time>
      </trkpt>
      <trkpt lat="42.81006" lon="-0.04353">
        <ele>2226.5</ele>
        <time>2023-10-31T10:58:40Z</time>
      </trkpt>
      <trkpt lat="42.81008" lon="-0.04354">
        <ele>2226.4</ele>
        <time>2023-10-31T10:58:41Z</time>
      </trkpt>
      <trkpt lat="42.81008" lon="-0.04353">
        <ele>2226.4</ele>
        <time>2023-10-31T10:58:42Z</time>
      </trkpt>
      <trkpt lat="42.81008" lon="-0.04353">
        <ele>2226.3</ele>
        <time>2023-10-31T10:58:43Z</time>
      </trkpt>
      <trkpt lat="42.81009" lon="-0.04353">
        <ele>2226.2</ele>
        <time>2023-10-31T10:58:44Z</time>
      </trkpt>
      <trkpt lat="42.8101" lon="-0.04354">
        <ele>2226.1</ele>
        <time>2023-10-31T10:58:45Z</time>
      </trkpt>
      <trkpt lat="42.8101" lon="-0.04354">
        <ele>2225.9</ele>
        <time>2023-10-31T10:58:46Z</time>
      </trkpt>
      <trkpt lat="42.8101" lon="-0.04355">
        <ele>2225.9</ele>
        <time>2023-10-31T10:58:47Z</time>
      </trkpt>
      <trkpt lat="42.81011" lon="-0.04355">
        <ele>2225.8</ele>
        <time>2023-10-31T10:58:48Z</time>
      </trkpt>
      <trkpt lat="42.81011" lon="-0.04355">
        <ele>2225.7</ele>
        <time>2023-10-31T10:58:49Z</time>
      </trkpt>
      <trkpt lat="42.81012" lon="-0.04355">
        <ele>2225.6</ele>
        <time>2023-10-31T10:58:50Z</time>
      </trkpt>
      <trkpt lat="42.81011" lon="-0.04355">
        <ele>2225.5</ele>
        <time>2023-10-31T10:58:51Z</time>
      </trkpt>
      <trkpt lat="42.81012" lon="-0.04356">
        <ele>2225.5</ele>
        <time>2023-10-31T10:58:52Z</time>
      </trkpt>
      <trkpt lat="42.81011" lon="-0.04356">
        <ele>2225.4</ele>
        <time>2023-10-31T10:58:53Z</time>
      </trkpt>
      <trkpt lat="42.81011" lon="-0.04356">
        <ele>2225.3</ele>
        <time>2023-10-31T10:58:54Z</time>
      </trkpt>
      <trkpt lat="42.81011" lon="-0.04356">
        <ele>2225.3</ele>
        <time>2023-10-31T10:58:55Z</time>
      </trkpt>
      <trkpt lat="42.81011" lon="-0.04357">
        <ele>2225.2</ele>
        <time>2023-10-31T10:58:56Z</time>
      </trkpt>
      <trkpt lat="42.81011" lon="-0.04357">
        <ele>2225.2</ele>
        <time>2023-10-31T10:58:57Z</time>
      </trkpt>
      <trkpt lat="42.81012" lon="-0.04358">
        <ele>2225</ele>
        <time>2023-10-31T10:58:58Z</time>
      </trkpt>
      <trkpt lat="42.81012" lon="-0.04359">
        <ele>2224.9</ele>
        <time>2023-10-31T10:58:59Z</time>
      </trkpt>
      <trkpt lat="42.81012" lon="-0.04361">
        <ele>2224.8</ele>
        <time>2023-10-31T10:59:00Z</time>
      </trkpt>
      <trkpt lat="42.81013" lon="-0.04361">
        <ele>2224.7</ele>
        <time>2023-10-31T10:59:01Z</time>
      </trkpt>
      <trkpt lat="42.81014" lon="-0.04362">
        <ele>2224.5</ele>
        <time>2023-10-31T10:59:02Z</time>
      </trkpt>
      <trkpt lat="42.81014" lon="-0.04363">
        <ele>2224.5</ele>
        <time>2023-10-31T10:59:03Z</time>
      </trkpt>
      <trkpt lat="42.81014" lon="-0.04363">
        <ele>2224.4</ele>
        <time>2023-10-31T10:59:04Z</time>
      </trkpt>
      <trkpt lat="42.81015" lon="-0.04363">
        <ele>2224.3</ele>
        <time>2023-10-31T10:59:05Z</time>
      </trkpt>
      <trkpt lat="42.81016" lon="-0.04365">
        <ele>2224.1</ele>
        <time>2023-10-31T10:59:06Z</time>
      </trkpt>
      <trkpt lat="42.81017" lon="-0.04365">
        <ele>2224</ele>
        <time>2023-10-31T10:59:07Z</time>
      </trkpt>
      <trkpt lat="42.81017" lon="-0.04364">
        <ele>2224</ele>
        <time>2023-10-31T10:59:08Z</time>
      </trkpt>
      <trkpt lat="42.81017" lon="-0.04364">
        <ele>2224</ele>
        <time>2023-10-31T10:59:09Z</time>
      </trkpt>
      <trkpt lat="42.81018" lon="-0.04364">
        <ele>2223.9</ele>
        <time>2023-10-31T10:59:10Z</time>
      </trkpt>
      <trkpt lat="42.81018" lon="-0.04365">
        <ele>2223.8</ele>
        <time>2023-10-31T10:59:11Z</time>
      </trkpt>
      <trkpt lat="42.81018" lon="-0.04366">
        <ele>2223.7</ele>
        <time>2023-10-31T10:59:12Z</time>
      </trkpt>
      <trkpt lat="42.81018" lon="-0.04368">
        <ele>2223.6</ele>
        <time>2023-10-31T10:59:13Z</time>
      </trkpt>
      <trkpt lat="42.81018" lon="-0.04369">
        <ele>2223.5</ele>
        <time>2023-10-31T10:59:14Z</time>
      </trkpt>
      <trkpt lat="42.81018" lon="-0.04369">
        <ele>2223.5</ele>
        <time>2023-10-31T10:59:15Z</time>
      </trkpt>
      <trkpt lat="42.81018" lon="-0.0437">
        <ele>2223.4</ele>
        <time>2023-10-31T10:59:16Z</time>
      </trkpt>
      <trkpt lat="42.81018" lon="-0.04371">
        <ele>2223.3</ele>
        <time>2023-10-31T10:59:17Z</time>
      </trkpt>
      <trkpt lat="42.81018" lon="-0.04372">
        <ele>2223.3</ele>
        <time>2023-10-31T10:59:18Z</time>
      </trkpt>
      <trkpt lat="42.81018" lon="-0.04373">
        <ele>2223.2</ele>
        <time>2023-10-31T10:59:19Z</time>
      </trkpt>
      <trkpt lat="42.81017" lon="-0.04374">
        <ele>2223.1</ele>
        <time>2023-10-31T10:59:20Z</time>
      </trkpt>
      <trkpt lat="42.81017" lon="-0.04375">
        <ele>2223.1</ele>
        <time>2023-10-31T10:59:21Z</time>
      </trkpt>
      <trkpt lat="42.81017" lon="-0.04375">
        <ele>2223.1</ele>
        <time>2023-10-31T10:59:22Z</time>
      </trkpt>
      <trkpt lat="42.81018" lon="-0.04376">
        <ele>2223</ele>
        <time>2023-10-31T10:59:23Z</time>
      </trkpt>
      <trkpt lat="42.81017" lon="-0.04377">
        <ele>2223</ele>
        <time>2023-10-31T10:59:24Z</time>
      </trkpt>
      <trkpt lat="42.81017" lon="-0.04378">
        <ele>2222.9</ele>
        <time>2023-10-31T10:59:25Z</time>
      </trkpt>
      <trkpt lat="42.81017" lon="-0.04378">
        <ele>2222.9</ele>
        <time>2023-10-31T10:59:26Z</time>
      </trkpt>
      <trkpt lat="42.81017" lon="-0.04379">
        <ele>2222.8</ele>
        <time>2023-10-31T10:59:27Z</time>
      </trkpt>
      <trkpt lat="42.81018" lon="-0.0438">
        <ele>2222.7</ele>
        <time>2023-10-31T10:59:28Z</time>
      </trkpt>
      <trkpt lat="42.81018" lon="-0.04381">
        <ele>2222.6</ele>
        <time>2023-10-31T10:59:29Z</time>
      </trkpt>
      <trkpt lat="42.81018" lon="-0.04382">
        <ele>2222.6</ele>
        <time>2023-10-31T10:59:30Z</time>
      </trkpt>
      <trkpt lat="42.81019" lon="-0.04382">
        <ele>2222.6</ele>
        <time>2023-10-31T10:59:31Z</time>
      </trkpt>
      <trkpt lat="42.81019" lon="-0.04383">
        <ele>2222.5</ele>
        <time>2023-10-31T10:59:32Z</time>
      </trkpt>
      <trkpt lat="42.8102" lon="-0.04385">
        <ele>2222.4</ele>
        <time>2023-10-31T10:59:33Z</time>
      </trkpt>
      <trkpt lat="42.8102" lon="-0.04385">
        <ele>2222.4</ele>
        <time>2023-10-31T10:59:34Z</time>
      </trkpt>
      <trkpt lat="42.81021" lon="-0.04386">
        <ele>2222.3</ele>
        <time>2023-10-31T10:59:35Z</time>
      </trkpt>
      <trkpt lat="42.81022" lon="-0.04387">
        <ele>2222.3</ele>
        <time>2023-10-31T10:59:36Z</time>
      </trkpt>
      <trkpt lat="42.81023" lon="-0.04387">
        <ele>2222.2</ele>
        <time>2023-10-31T10:59:37Z</time>
      </trkpt>
      <trkpt lat="42.81023" lon="-0.04387">
        <ele>2222.2</ele>
        <time>2023-10-31T10:59:38Z</time>
      </trkpt>
      <trkpt lat="42.81023" lon="-0.04387">
        <ele>2222.2</ele>
        <time>2023-10-31T10:59:39Z</time>
      </trkpt>
      <trkpt lat="42.81023" lon="-0.04387">
        <ele>2222.2</ele>
        <time>2023-10-31T10:59:40Z</time>
      </trkpt>
      <trkpt lat="42.81024" lon="-0.04387">
        <ele>2222.1</ele>
        <time>2023-10-31T10:59:41Z</time>
      </trkpt>
      <trkpt lat="42.81024" lon="-0.04387">
        <ele>2222.1</ele>
        <time>2023-10-31T10:59:42Z</time>
      </trkpt>
      <trkpt lat="42.81025" lon="-0.04387">
        <ele>2222.1</ele>
        <time>2023-10-31T10:59:43Z</time>
      </trkpt>
      <trkpt lat="42.81025" lon="-0.04387">
        <ele>2222</ele>
        <time>2023-10-31T10:59:44Z</time>
      </trkpt>
      <trkpt lat="42.81025" lon="-0.04387">
        <ele>2222</ele>
        <time>2023-10-31T10:59:45Z</time>
      </trkpt>
      <trkpt lat="42.81025" lon="-0.04387">
        <ele>2222</ele>
        <time>2023-10-31T10:59:46Z</time>
      </trkpt>
      <trkpt lat="42.81025" lon="-0.04387">
        <ele>2222</ele>
        <time>2023-10-31T10:59:47Z</time>
      </trkpt>
      <trkpt lat="42.81025" lon="-0.04387">
        <ele>2222</ele>
        <time>2023-10-31T10:59:48Z</time>
      </trkpt>
      <trkpt lat="42.81025" lon="-0.04387">
        <ele>2222</ele>
        <time>2023-10-31T10:59:49Z</time>
      </trkpt>
      <trkpt lat="42.81025" lon="-0.04388">
        <ele>2222</ele>
        <time>2023-10-31T10:59:50Z</time>
      </trkpt>
      <trkpt lat="42.81025" lon="-0.04388">
        <ele>2222</ele>
        <time>2023-10-31T10:59:51Z</time>
      </trkpt>
      <trkpt lat="42.81025" lon="-0.04388">
        <ele>2222</ele>
        <time>2023-10-31T10:59:52Z</time>
      </trkpt>
      <trkpt lat="42.81025" lon="-0.04388">
        <ele>2222</ele>
        <time>2023-10-31T10:59:53Z</time>
      </trkpt>
      <trkpt lat="42.81025" lon="-0.04388">
        <ele>2222</ele>
        <time>2023-10-31T10:59:54Z</time>
      </trkpt>
      <trkpt lat="42.81025" lon="-0.04388">
        <ele>2222</ele>
        <time>2023-10-31T10:59:55Z</time>
      </trkpt>
      <trkpt lat="42.81025" lon="-0.04388">
        <ele>2222</ele>
        <time>2023-10-31T10:59:56Z</time>
      </trkpt>
      <trkpt lat="42.81025" lon="-0.04388">
        <ele>2222</ele>
        <time>2023-10-31T10:59:57Z</time>
      </trkpt>
      <trkpt lat="42.81025" lon="-0.04388">
        <ele>2222</ele>
        <time>2023-10-31T10:59:58Z</time>
      </trkpt>
      <trkpt lat="42.81025" lon="-0.04388">
        <ele>2222</ele>
        <time>2023-10-31T10:59:59Z</time>
      </trkpt>
      <trkpt lat="42.81025" lon="-0.04389">
        <ele>2222</ele>
        <time>2023-10-31T11:00:00Z</time>
      </trkpt>
      <trkpt lat="42.81025" lon="-0.04389">
        <ele>2222</ele>
        <time>2023-10-31T11:00:01Z</time>
      </trkpt>
      <trkpt lat="42.81025" lon="-0.04389">
        <ele>2222</ele>
        <time>2023-10-31T11:00:02Z</time>
      </trkpt>
      <trkpt lat="42.81025" lon="-0.04389">
        <ele>2222</ele>
        <time>2023-10-31T11:00:03Z</time>
      </trkpt>
      <trkpt lat="42.81025" lon="-0.04389">
        <ele>2222</ele>
        <time>2023-10-31T11:00:04Z</time>
      </trkpt>
      <trkpt lat="42.81025" lon="-0.04389">
        <ele>2222</ele>
        <time>2023-10-31T11:00:05Z</time>
      </trkpt>
      <trkpt lat="42.81025" lon="-0.04389">
        <ele>2222</ele>
        <time>2023-10-31T11:00:06Z</time>
      </trkpt>
      <trkpt lat="42.81025" lon="-0.04389">
        <ele>2222</ele>
        <time>2023-10-31T11:00:07Z</time>
      </trkpt>
      <trkpt lat="42.81025" lon="-0.04389">
        <ele>2222</ele>
        <time>2023-10-31T11:00:08Z</time>
      </trkpt>
      <trkpt lat="42.81025" lon="-0.04389">
        <ele>2222</ele>
        <time>2023-10-31T11:00:09Z</time>
      </trkpt>
      <trkpt lat="42.81025" lon="-0.04389">
        <ele>2222</ele>
        <time>2023-10-31T11:00:10Z</time>
      </trkpt>
      <trkpt lat="42.81025" lon="-0.0439">
        <ele>2222</ele>
        <time>2023-10-31T11:00:11Z</time>
      </trkpt>
      <trkpt lat="42.81025" lon="-0.0439">
        <ele>2222</ele>
        <time>2023-10-31T11:00:12Z</time>
      </trkpt>
      <trkpt lat="42.81025" lon="-0.0439">
        <ele>2222</ele>
        <time>2023-10-31T11:00:13Z</time>
      </trkpt>
      <trkpt lat="42.81025" lon="-0.0439">
        <ele>2222</ele>
        <time>2023-10-31T11:00:14Z</time>
      </trkpt>
      <trkpt lat="42.81025" lon="-0.0439">
        <ele>2222</ele>
        <time>2023-10-31T11:00:15Z</time>
      </trkpt>
      <trkpt lat="42.81025" lon="-0.0439">
        <ele>2222</ele>
        <time>2023-10-31T11:00:16Z</time>
      </trkpt>
      <trkpt lat="42.81025" lon="-0.0439">
        <ele>2222</ele>
        <time>2023-10-31T11:00:17Z</time>
      </trkpt>
      <trkpt lat="42.81025" lon="-0.0439">
        <ele>2222</ele>
        <time>2023-10-31T11:00:18Z</time>
      </trkpt>
      <trkpt lat="42.81024" lon="-0.0439">
        <ele>2222</ele>
        <time>2023-10-31T11:00:19Z</time>
      </trkpt>
      <trkpt lat="42.81024" lon="-0.0439">
        <ele>2222</ele>
        <time>2023-10-31T11:00:20Z</time>
      </trkpt>
      <trkpt lat="42.81024" lon="-0.0439">
        <ele>2221.9</ele>
        <time>2023-10-31T11:00:21Z</time>
      </trkpt>
      <trkpt lat="42.81024" lon="-0.04391">
        <ele>2221.9</ele>
        <time>2023-10-31T11:00:22Z</time>
      </trkpt>
      <trkpt lat="42.81024" lon="-0.04391">
        <ele>2221.9</ele>
        <time>2023-10-31T11:00:23Z</time>
      </trkpt>
      <trkpt lat="42.81024" lon="-0.04391">
        <ele>2221.9</ele>
        <time>2023-10-31T11:00:24Z</time>
      </trkpt>
      <trkpt lat="42.81024" lon="-0.04391">
        <ele>2221.9</ele>
        <time>2023-10-31T11:00:25Z</time>
      </trkpt>
      <trkpt lat="42.81024" lon="-0.04391">
        <ele>2221.9</ele>
        <time>2023-10-31T11:00:26Z</time>
      </trkpt>
      <trkpt lat="42.81024" lon="-0.04391">
        <ele>2221.9</ele>
        <time>2023-10-31T11:00:27Z</time>
      </trkpt>
      <trkpt lat="42.81024" lon="-0.04391">
        <ele>2221.9</ele>
        <time>2023-10-31T11:00:28Z</time>
      </trkpt>
      <trkpt lat="42.81024" lon="-0.04391">
        <ele>2221.9</ele>
        <time>2023-10-31T11:00:29Z</time>
      </trkpt>
      <trkpt lat="42.81024" lon="-0.04391">
        <ele>2221.9</ele>
        <time>2023-10-31T11:00:30Z</time>
      </trkpt>
      <trkpt lat="42.81024" lon="-0.04391">
        <ele>2221.9</ele>
        <time>2023-10-31T11:00:31Z</time>
      </trkpt>
      <trkpt lat="42.81024" lon="-0.04391">
        <ele>2221.9</ele>
        <time>2023-10-31T11:00:32Z</time>
      </trkpt>
      <trkpt lat="42.81024" lon="-0.04392">
        <ele>2221.9</ele>
        <time>2023-10-31T11:00:33Z</time>
      </trkpt>
      <trkpt lat="42.81024" lon="-0.04392">
        <ele>2221.9</ele>
        <time>2023-10-31T11:00:34Z</time>
      </trkpt>
      <trkpt lat="42.81024" lon="-0.04392">
        <ele>2221.9</ele>
        <time>2023-10-31T11:00:35Z</time>
      </trkpt>
      <trkpt lat="42.81024" lon="-0.04392">
        <ele>2221.9</ele>
        <time>2023-10-31T11:00:36Z</time>
      </trkpt>
      <trkpt lat="42.81024" lon="-0.04392">
        <ele>2221.9</ele>
        <time>2023-10-31T11:00:37Z</time>
      </trkpt>
      <trkpt lat="42.81024" lon="-0.04392">
        <ele>2221.9</ele>
        <time>2023-10-31T11:00:38Z</time>
      </trkpt>
      <trkpt lat="42.81024" lon="-0.04392">
        <ele>2221.9</ele>
        <time>2023-10-31T11:00:39Z</time>
      </trkpt>
      <trkpt lat="42.81024" lon="-0.04392">
        <ele>2221.9</ele>
        <time>2023-10-31T11:00:40Z</time>
      </trkpt>
      <trkpt lat="42.81024" lon="-0.04392">
        <ele>2221.9</ele>
        <time>2023-10-31T11:00:41Z</time>
      </trkpt>
      <trkpt lat="42.81024" lon="-0.04392">
        <ele>2221.9</ele>
        <time>2023-10-31T11:00:42Z</time>
      </trkpt>
      <trkpt lat="42.81024" lon="-0.04392">
        <ele>2221.9</ele>
        <time>2023-10-31T11:00:43Z</time>
      </trkpt>
      <trkpt lat="42.81024" lon="-0.04393">
        <ele>2221.9</ele>
        <time>2023-10-31T11:00:44Z</time>
      </trkpt>
      <trkpt lat="42.81024" lon="-0.04393">
        <ele>2221.9</ele>
        <time>2023-10-31T11:00:45Z</time>
      </trkpt>
      <trkpt lat="42.81024" lon="-0.04393">
        <ele>2221.9</ele>
        <time>2023-10-31T11:00:46Z</time>
      </trkpt>
      <trkpt lat="42.81024" lon="-0.04393">
        <ele>2221.9</ele>
        <time>2023-10-31T11:00:47Z</time>
      </trkpt>
      <trkpt lat="42.81024" lon="-0.04393">
        <ele>2221.9</ele>
        <time>2023-10-31T11:00:48Z</time>
      </trkpt>
      <trkpt lat="42.81024" lon="-0.04393">
        <ele>2221.9</ele>
        <time>2023-10-31T11:00:49Z</time>
      </trkpt>
      <trkpt lat="42.81024" lon="-0.04393">
        <ele>2221.9</ele>
        <time>2023-10-31T11:00:50Z</time>
      </trkpt>
      <trkpt lat="42.81024" lon="-0.04393">
        <ele>2221.9</ele>
        <time>2023-10-31T11:00:51Z</time>
      </trkpt>
      <trkpt lat="42.81024" lon="-0.04393">
        <ele>2221.9</ele>
        <time>2023-10-31T11:00:52Z</time>
      </trkpt>
      <trkpt lat="42.81023" lon="-0.04393">
        <ele>2221.8</ele>
        <time>2023-10-31T11:00:53Z</time>
      </trkpt>
      <trkpt lat="42.81023" lon="-0.04394">
        <ele>2221.8</ele>
        <time>2023-10-31T11:00:54Z</time>
      </trkpt>
      <trkpt lat="42.81022" lon="-0.04395">
        <ele>2221.8</ele>
        <time>2023-10-31T11:00:55Z</time>
      </trkpt>
      <trkpt lat="42.81023" lon="-0.04395">
        <ele>2221.8</ele>
        <time>2023-10-31T11:00:56Z</time>
      </trkpt>
      <trkpt lat="42.81024" lon="-0.04397">
        <ele>2221.9</ele>
        <time>2023-10-31T11:00:57Z</time>
      </trkpt>
      <trkpt lat="42.81024" lon="-0.04397">
        <ele>2221.9</ele>
        <time>2023-10-31T11:00:58Z</time>
      </trkpt>
      <trkpt lat="42.81024" lon="-0.04398">
        <ele>2221.9</ele>
        <time>2023-10-31T11:00:59Z</time>
      </trkpt>
      <trkpt lat="42.81024" lon="-0.04398">
        <ele>2221.9</ele>
        <time>2023-10-31T11:01:00Z</time>
      </trkpt>
      <trkpt lat="42.81025" lon="-0.044">
        <ele>2221.9</ele>
        <time>2023-10-31T11:01:01Z</time>
      </trkpt>
      <trkpt lat="42.81025" lon="-0.044">
        <ele>2221.9</ele>
        <time>2023-10-31T11:01:02Z</time>
      </trkpt>
      <trkpt lat="42.81025" lon="-0.04401">
        <ele>2221.9</ele>
        <time>2023-10-31T11:01:03Z</time>
      </trkpt>
      <trkpt lat="42.81025" lon="-0.04402">
        <ele>2221.9</ele>
        <time>2023-10-31T11:01:04Z</time>
      </trkpt>
      <trkpt lat="42.81025" lon="-0.04403">
        <ele>2222</ele>
        <time>2023-10-31T11:01:05Z</time>
      </trkpt>
      <trkpt lat="42.81026" lon="-0.04405">
        <ele>2222.1</ele>
        <time>2023-10-31T11:01:06Z</time>
      </trkpt>
      <trkpt lat="42.81025" lon="-0.04406">
        <ele>2222.1</ele>
        <time>2023-10-31T11:01:07Z</time>
      </trkpt>
      <trkpt lat="42.81025" lon="-0.04406">
        <ele>2222.1</ele>
        <time>2023-10-31T11:01:08Z</time>
      </trkpt>
      <trkpt lat="42.81025" lon="-0.04407">
        <ele>2222.2</ele>
        <time>2023-10-31T11:01:09Z</time>
      </trkpt>
      <trkpt lat="42.81024" lon="-0.04408">
        <ele>2222.2</ele>
        <time>2023-10-31T11:01:10Z</time>
      </trkpt>
      <trkpt lat="42.81024" lon="-0.04409">
        <ele>2222.3</ele>
        <time>2023-10-31T11:01:11Z</time>
      </trkpt>
      <trkpt lat="42.81023" lon="-0.0441">
        <ele>2222.4</ele>
        <time>2023-10-31T11:01:12Z</time>
      </trkpt>
      <trkpt lat="42.81021" lon="-0.04409">
        <ele>2222.6</ele>
        <time>2023-10-31T11:01:13Z</time>
      </trkpt>
      <trkpt lat="42.81022" lon="-0.04409">
        <ele>2222.8</ele>
        <time>2023-10-31T11:01:14Z</time>
      </trkpt>
      <trkpt lat="42.81022" lon="-0.0441">
        <ele>2222.8</ele>
        <time>2023-10-31T11:01:15Z</time>
      </trkpt>
      <trkpt lat="42.81023" lon="-0.0441">
        <ele>2222.9</ele>
        <time>2023-10-31T11:01:16Z</time>
      </trkpt>
      <trkpt lat="42.81023" lon="-0.0441">
        <ele>2222.9</ele>
        <time>2023-10-31T11:01:17Z</time>
      </trkpt>
      <trkpt lat="42.81023" lon="-0.04411">
        <ele>2222.9</ele>
        <time>2023-10-31T11:01:18Z</time>
      </trkpt>
      <trkpt lat="42.81023" lon="-0.04411">
        <ele>2223</ele>
        <time>2023-10-31T11:01:19Z</time>
      </trkpt>
      <trkpt lat="42.81022" lon="-0.04412">
        <ele>2223.1</ele>
        <time>2023-10-31T11:01:20Z</time>
      </trkpt>
      <trkpt lat="42.81022" lon="-0.04412">
        <ele>2223.2</ele>
        <time>2023-10-31T11:01:21Z</time>
      </trkpt>
      <trkpt lat="42.81021" lon="-0.04414">
        <ele>2223.3</ele>
        <time>2023-10-31T11:01:22Z</time>
      </trkpt>
      <trkpt lat="42.81022" lon="-0.04414">
        <ele>2223.4</ele>
        <time>2023-10-31T11:01:23Z</time>
      </trkpt>
      <trkpt lat="42.81022" lon="-0.04415">
        <ele>2223.4</ele>
        <time>2023-10-31T11:01:24Z</time>
      </trkpt>
      <trkpt lat="42.81021" lon="-0.04416">
        <ele>2223.6</ele>
        <time>2023-10-31T11:01:25Z</time>
      </trkpt>
      <trkpt lat="42.81021" lon="-0.04417">
        <ele>2223.6</ele>
        <time>2023-10-31T11:01:26Z</time>
      </trkpt>
      <trkpt lat="42.81022" lon="-0.04417">
        <ele>2223.7</ele>
        <time>2023-10-31T11:01:27Z</time>
      </trkpt>
      <trkpt lat="42.81021" lon="-0.04418">
        <ele>2223.7</ele>
        <time>2023-10-31T11:01:28Z</time>
      </trkpt>
      <trkpt lat="42.81021" lon="-0.04419">
        <ele>2223.8</ele>
        <time>2023-10-31T11:01:29Z</time>
      </trkpt>
      <trkpt lat="42.81021" lon="-0.04419">
        <ele>2223.9</ele>
        <time>2023-10-31T11:01:30Z</time>
      </trkpt>
      <trkpt lat="42.81022" lon="-0.04415">
        <ele>2224.3</ele>
        <time>2023-10-31T11:01:31Z</time>
      </trkpt>
      <trkpt lat="42.81021" lon="-0.04417">
        <ele>2224.5</ele>
        <time>2023-10-31T11:01:32Z</time>
      </trkpt>
      <trkpt lat="42.81021" lon="-0.04417">
        <ele>2224.6</ele>
        <time>2023-10-31T11:01:33Z</time>
      </trkpt>
      <trkpt lat="42.81021" lon="-0.04419">
        <ele>2224.8</ele>
        <time>2023-10-31T11:01:34Z</time>
      </trkpt>
      <trkpt lat="42.81021" lon="-0.0442">
        <ele>2224.9</ele>
        <time>2023-10-31T11:01:35Z</time>
      </trkpt>
      <trkpt lat="42.81021" lon="-0.0442">
        <ele>2225</ele>
        <time>2023-10-31T11:01:36Z</time>
      </trkpt>
      <trkpt lat="42.8102" lon="-0.04421">
        <ele>2225.1</ele>
        <time>2023-10-31T11:01:37Z</time>
      </trkpt>
      <trkpt lat="42.81019" lon="-0.04422">
        <ele>2225.3</ele>
        <time>2023-10-31T11:01:38Z</time>
      </trkpt>
      <trkpt lat="42.81019" lon="-0.04423">
        <ele>2225.4</ele>
        <time>2023-10-31T11:01:39Z</time>
      </trkpt>
      <trkpt lat="42.81019" lon="-0.04424">
        <ele>2225.5</ele>
        <time>2023-10-31T11:01:40Z</time>
      </trkpt>
      <trkpt lat="42.81019" lon="-0.04425">
        <ele>2225.7</ele>
        <time>2023-10-31T11:01:41Z</time>
      </trkpt>
      <trkpt lat="42.81018" lon="-0.04427">
        <ele>2226</ele>
        <time>2023-10-31T11:01:42Z</time>
      </trkpt>
      <trkpt lat="42.81018" lon="-0.04428">
        <ele>2226.2</ele>
        <time>2023-10-31T11:01:43Z</time>
      </trkpt>
      <trkpt lat="42.81017" lon="-0.04429">
        <ele>2226.3</ele>
        <time>2023-10-31T11:01:44Z</time>
      </trkpt>
      <trkpt lat="42.81017" lon="-0.0443">
        <ele>2226.4</ele>
        <time>2023-10-31T11:01:45Z</time>
      </trkpt>
      <trkpt lat="42.81017" lon="-0.04431">
        <ele>2226.6</ele>
        <time>2023-10-31T11:01:46Z</time>
      </trkpt>
      <trkpt lat="42.81017" lon="-0.04432">
        <ele>2226.7</ele>
        <time>2023-10-31T11:01:47Z</time>
      </trkpt>
      <trkpt lat="42.81017" lon="-0.04432">
        <ele>2226.8</ele>
        <time>2023-10-31T11:01:48Z</time>
      </trkpt>
      <trkpt lat="42.81017" lon="-0.04433">
        <ele>2226.9</ele>
        <time>2023-10-31T11:01:49Z</time>
      </trkpt>
      <trkpt lat="42.81017" lon="-0.04433">
        <ele>2227</ele>
        <time>2023-10-31T11:01:50Z</time>
      </trkpt>
      <trkpt lat="42.81017" lon="-0.04433">
        <ele>2227</ele>
        <time>2023-10-31T11:01:51Z</time>
      </trkpt>
      <trkpt lat="42.81017" lon="-0.04433">
        <ele>2227</ele>
        <time>2023-10-31T11:01:52Z</time>
      </trkpt>
      <trkpt lat="42.81017" lon="-0.04434">
        <ele>2227.1</ele>
        <time>2023-10-31T11:01:53Z</time>
      </trkpt>
      <trkpt lat="42.81016" lon="-0.04436">
        <ele>2227.5</ele>
        <time>2023-10-31T11:01:54Z</time>
      </trkpt>
      <trkpt lat="42.81017" lon="-0.04436">
        <ele>2227.7</ele>
        <time>2023-10-31T11:01:55Z</time>
      </trkpt>
      <trkpt lat="42.81017" lon="-0.04437">
        <ele>2227.8</ele>
        <time>2023-10-31T11:01:56Z</time>
      </trkpt>
      <trkpt lat="42.81017" lon="-0.04438">
        <ele>2227.9</ele>
        <time>2023-10-31T11:01:57Z</time>
      </trkpt>
      <trkpt lat="42.81017" lon="-0.04439">
        <ele>2228</ele>
        <time>2023-10-31T11:01:58Z</time>
      </trkpt>
      <trkpt lat="42.81017" lon="-0.04439">
        <ele>2228.1</ele>
        <time>2023-10-31T11:01:59Z</time>
      </trkpt>
      <trkpt lat="42.81017" lon="-0.04441">
        <ele>2228.3</ele>
        <time>2023-10-31T11:02:00Z</time>
      </trkpt>
      <trkpt lat="42.81017" lon="-0.04442">
        <ele>2228.4</ele>
        <time>2023-10-31T11:02:01Z</time>
      </trkpt>
      <trkpt lat="42.81017" lon="-0.04442">
        <ele>2228.5</ele>
        <time>2023-10-31T11:02:02Z</time>
      </trkpt>
      <trkpt lat="42.81017" lon="-0.04443">
        <ele>2228.5</ele>
        <time>2023-10-31T11:02:03Z</time>
      </trkpt>
      <trkpt lat="42.81017" lon="-0.04443">
        <ele>2228.6</ele>
        <time>2023-10-31T11:02:04Z</time>
      </trkpt>
      <trkpt lat="42.81017" lon="-0.04443">
        <ele>2228.6</ele>
        <time>2023-10-31T11:02:05Z</time>
      </trkpt>
      <trkpt lat="42.81018" lon="-0.04444">
        <ele>2228.7</ele>
        <time>2023-10-31T11:02:06Z</time>
      </trkpt>
      <trkpt lat="42.81018" lon="-0.04445">
        <ele>2228.8</ele>
        <time>2023-10-31T11:02:07Z</time>
      </trkpt>
      <trkpt lat="42.81019" lon="-0.04445">
        <ele>2228.9</ele>
        <time>2023-10-31T11:02:08Z</time>
      </trkpt>
      <trkpt lat="42.81018" lon="-0.04447">
        <ele>2229</ele>
        <time>2023-10-31T11:02:09Z</time>
      </trkpt>
      <trkpt lat="42.81018" lon="-0.04449">
        <ele>2229.2</ele>
        <time>2023-10-31T11:02:10Z</time>
      </trkpt>
      <trkpt lat="42.81019" lon="-0.04449">
        <ele>2229.2</ele>
        <time>2023-10-31T11:02:11Z</time>
      </trkpt>
      <trkpt lat="42.81019" lon="-0.04451">
        <ele>2229.4</ele>
        <time>2023-10-31T11:02:12Z</time>
      </trkpt>
      <trkpt lat="42.81019" lon="-0.04451">
        <ele>2229.5</ele>
        <time>2023-10-31T11:02:13Z</time>
      </trkpt>
      <trkpt lat="42.81019" lon="-0.04452">
        <ele>2229.5</ele>
        <time>2023-10-31T11:02:14Z</time>
      </trkpt>
      <trkpt lat="42.81019" lon="-0.04453">
        <ele>2229.6</ele>
        <time>2023-10-31T11:02:15Z</time>
      </trkpt>
      <trkpt lat="42.81019" lon="-0.04454">
        <ele>2229.6</ele>
        <time>2023-10-31T11:02:16Z</time>
      </trkpt>
      <trkpt lat="42.81019" lon="-0.04454">
        <ele>2229.6</ele>
        <time>2023-10-31T11:02:17Z</time>
      </trkpt>
      <trkpt lat="42.81019" lon="-0.04454">
        <ele>2229.6</ele>
        <time>2023-10-31T11:02:18Z</time>
      </trkpt>
      <trkpt lat="42.81019" lon="-0.04455">
        <ele>2229.7</ele>
        <time>2023-10-31T11:02:19Z</time>
      </trkpt>
      <trkpt lat="42.81019" lon="-0.04455">
        <ele>2229.7</ele>
        <time>2023-10-31T11:02:20Z</time>
      </trkpt>
      <trkpt lat="42.81019" lon="-0.04455">
        <ele>2229.8</ele>
        <time>2023-10-31T11:02:21Z</time>
      </trkpt>
      <trkpt lat="42.8102" lon="-0.04455">
        <ele>2229.8</ele>
        <time>2023-10-31T11:02:22Z</time>
      </trkpt>
      <trkpt lat="42.81019" lon="-0.04456">
        <ele>2229.9</ele>
        <time>2023-10-31T11:02:23Z</time>
      </trkpt>
      <trkpt lat="42.8102" lon="-0.04455">
        <ele>2230</ele>
        <time>2023-10-31T11:02:24Z</time>
      </trkpt>
      <trkpt lat="42.8102" lon="-0.04455">
        <ele>2230.1</ele>
        <time>2023-10-31T11:02:25Z</time>
      </trkpt>
      <trkpt lat="42.8102" lon="-0.04455">
        <ele>2230.1</ele>
        <time>2023-10-31T11:02:26Z</time>
      </trkpt>
      <trkpt lat="42.8102" lon="-0.04455">
        <ele>2230.1</ele>
        <time>2023-10-31T11:02:27Z</time>
      </trkpt>
      <trkpt lat="42.8102" lon="-0.04456">
        <ele>2230.2</ele>
        <time>2023-10-31T11:02:28Z</time>
      </trkpt>
      <trkpt lat="42.8102" lon="-0.04456">
        <ele>2230.2</ele>
        <time>2023-10-31T11:02:29Z</time>
      </trkpt>
      <trkpt lat="42.8102" lon="-0.04457">
        <ele>2230.3</ele>
        <time>2023-10-31T11:02:30Z</time>
      </trkpt>
      <trkpt lat="42.8102" lon="-0.04459">
        <ele>2230.3</ele>
        <time>2023-10-31T11:02:31Z</time>
      </trkpt>
      <trkpt lat="42.81021" lon="-0.0446">
        <ele>2230.4</ele>
        <time>2023-10-31T11:02:32Z</time>
      </trkpt>
      <trkpt lat="42.81021" lon="-0.04461">
        <ele>2230.5</ele>
        <time>2023-10-31T11:02:33Z</time>
      </trkpt>
      <trkpt lat="42.81022" lon="-0.04463">
        <ele>2230.6</ele>
        <time>2023-10-31T11:02:34Z</time>
      </trkpt>
      <trkpt lat="42.81022" lon="-0.04463">
        <ele>2230.6</ele>
        <time>2023-10-31T11:02:35Z</time>
      </trkpt>
      <trkpt lat="42.81022" lon="-0.04463">
        <ele>2230.7</ele>
        <time>2023-10-31T11:02:36Z</time>
      </trkpt>
      <trkpt lat="42.81022" lon="-0.04465">
        <ele>2230.7</ele>
        <time>2023-10-31T11:02:37Z</time>
      </trkpt>
      <trkpt lat="42.81022" lon="-0.04466">
        <ele>2230.9</ele>
        <time>2023-10-31T11:02:38Z</time>
      </trkpt>
      <trkpt lat="42.81022" lon="-0.04467">
        <ele>2230.9</ele>
        <time>2023-10-31T11:02:39Z</time>
      </trkpt>
      <trkpt lat="42.81023" lon="-0.04468">
        <ele>2231</ele>
        <time>2023-10-31T11:02:40Z</time>
      </trkpt>
      <trkpt lat="42.81023" lon="-0.04469">
        <ele>2231</ele>
        <time>2023-10-31T11:02:41Z</time>
      </trkpt>
      <trkpt lat="42.81023" lon="-0.0447">
        <ele>2231.1</ele>
        <time>2023-10-31T11:02:42Z</time>
      </trkpt>
      <trkpt lat="42.81023" lon="-0.04472">
        <ele>2231.3</ele>
        <time>2023-10-31T11:02:43Z</time>
      </trkpt>
      <trkpt lat="42.81023" lon="-0.04474">
        <ele>2231.4</ele>
        <time>2023-10-31T11:02:44Z</time>
      </trkpt>
      <trkpt lat="42.81023" lon="-0.04475">
        <ele>2231.5</ele>
        <time>2023-10-31T11:02:45Z</time>
      </trkpt>
      <trkpt lat="42.81023" lon="-0.04476">
        <ele>2231.6</ele>
        <time>2023-10-31T11:02:46Z</time>
      </trkpt>
      <trkpt lat="42.81023" lon="-0.04478">
        <ele>2231.7</ele>
        <time>2023-10-31T11:02:47Z</time>
      </trkpt>
      <trkpt lat="42.81024" lon="-0.04479">
        <ele>2231.9</ele>
        <time>2023-10-31T11:02:48Z</time>
      </trkpt>
      <trkpt lat="42.81025" lon="-0.0448">
        <ele>2231.9</ele>
        <time>2023-10-31T11:02:49Z</time>
      </trkpt>
      <trkpt lat="42.81025" lon="-0.04481">
        <ele>2232</ele>
        <time>2023-10-31T11:02:50Z</time>
      </trkpt>
      <trkpt lat="42.81025" lon="-0.04483">
        <ele>2232.2</ele>
        <time>2023-10-31T11:02:51Z</time>
      </trkpt>
      <trkpt lat="42.81026" lon="-0.04483">
        <ele>2232.3</ele>
        <time>2023-10-31T11:02:52Z</time>
      </trkpt>
      <trkpt lat="42.81026" lon="-0.04484">
        <ele>2232.4</ele>
        <time>2023-10-31T11:02:53Z</time>
      </trkpt>
      <trkpt lat="42.81026" lon="-0.04485">
        <ele>2232.4</ele>
        <time>2023-10-31T11:02:54Z</time>
      </trkpt>
      <trkpt lat="42.81026" lon="-0.04486">
        <ele>2232.5</ele>
        <time>2023-10-31T11:02:55Z</time>
      </trkpt>
      <trkpt lat="42.81026" lon="-0.04486">
        <ele>2232.6</ele>
        <time>2023-10-31T11:02:56Z</time>
      </trkpt>
      <trkpt lat="42.81027" lon="-0.04486">
        <ele>2232.6</ele>
        <time>2023-10-31T11:02:57Z</time>
      </trkpt>
      <trkpt lat="42.81027" lon="-0.04486">
        <ele>2232.7</ele>
        <time>2023-10-31T11:02:58Z</time>
      </trkpt>
      <trkpt lat="42.81028" lon="-0.04486">
        <ele>2232.8</ele>
        <time>2023-10-31T11:02:59Z</time>
      </trkpt>
      <trkpt lat="42.81029" lon="-0.04486">
        <ele>2232.9</ele>
        <time>2023-10-31T11:03:00Z</time>
      </trkpt>
      <trkpt lat="42.81029" lon="-0.04488">
        <ele>2233.1</ele>
        <time>2023-10-31T11:03:01Z</time>
      </trkpt>
      <trkpt lat="42.81029" lon="-0.04489">
        <ele>2233.2</ele>
        <time>2023-10-31T11:03:02Z</time>
      </trkpt>
      <trkpt lat="42.8103" lon="-0.04489">
        <ele>2233.3</ele>
        <time>2023-10-31T11:03:03Z</time>
      </trkpt>
      <trkpt lat="42.81031" lon="-0.0449">
        <ele>2233.4</ele>
        <time>2023-10-31T11:03:04Z</time>
      </trkpt>
      <trkpt lat="42.81031" lon="-0.04491">
        <ele>2233.5</ele>
        <time>2023-10-31T11:03:05Z</time>
      </trkpt>
      <trkpt lat="42.81031" lon="-0.04492">
        <ele>2233.6</ele>
        <time>2023-10-31T11:03:06Z</time>
      </trkpt>
      <trkpt lat="42.81031" lon="-0.04492">
        <ele>2233.7</ele>
        <time>2023-10-31T11:03:07Z</time>
      </trkpt>
      <trkpt lat="42.81032" lon="-0.04493">
        <ele>2233.8</ele>
        <time>2023-10-31T11:03:08Z</time>
      </trkpt>
      <trkpt lat="42.81032" lon="-0.04495">
        <ele>2234</ele>
        <time>2023-10-31T11:03:09Z</time>
      </trkpt>
      <trkpt lat="42.81033" lon="-0.04496">
        <ele>2234.2</ele>
        <time>2023-10-31T11:03:10Z</time>
      </trkpt>
      <trkpt lat="42.81033" lon="-0.04497">
        <ele>2234.3</ele>
        <time>2023-10-31T11:03:11Z</time>
      </trkpt>
      <trkpt lat="42.81034" lon="-0.04498">
        <ele>2234.5</ele>
        <time>2023-10-31T11:03:12Z</time>
      </trkpt>
      <trkpt lat="42.81035" lon="-0.04499">
        <ele>2234.6</ele>
        <time>2023-10-31T11:03:13Z</time>
      </trkpt>
      <trkpt lat="42.81035" lon="-0.04499">
        <ele>2234.8</ele>
        <time>2023-10-31T11:03:14Z</time>
      </trkpt>
      <trkpt lat="42.81036" lon="-0.045">
        <ele>2234.9</ele>
        <time>2023-10-31T11:03:15Z</time>
      </trkpt>
      <trkpt lat="42.81036" lon="-0.04501">
        <ele>2235</ele>
        <time>2023-10-31T11:03:16Z</time>
      </trkpt>
      <trkpt lat="42.81036" lon="-0.04502">
        <ele>2235.1</ele>
        <time>2023-10-31T11:03:17Z</time>
      </trkpt>
      <trkpt lat="42.81037" lon="-0.04502">
        <ele>2235.1</ele>
        <time>2023-10-31T11:03:18Z</time>
      </trkpt>
      <trkpt lat="42.81037" lon="-0.04503">
        <ele>2235.3</ele>
        <time>2023-10-31T11:03:19Z</time>
      </trkpt>
      <trkpt lat="42.81037" lon="-0.04504">
        <ele>2235.3</ele>
        <time>2023-10-31T11:03:20Z</time>
      </trkpt>
      <trkpt lat="42.81038" lon="-0.04505">
        <ele>2235.4</ele>
        <time>2023-10-31T11:03:21Z</time>
      </trkpt>
      <trkpt lat="42.81038" lon="-0.04505">
        <ele>2235.4</ele>
        <time>2023-10-31T11:03:22Z</time>
      </trkpt>
      <trkpt lat="42.81039" lon="-0.04506">
        <ele>2235.4</ele>
        <time>2023-10-31T11:03:23Z</time>
      </trkpt>
      <trkpt lat="42.81039" lon="-0.04506">
        <ele>2235.5</ele>
        <time>2023-10-31T11:03:24Z</time>
      </trkpt>
      <trkpt lat="42.81039" lon="-0.04506">
        <ele>2235.5</ele>
        <time>2023-10-31T11:03:25Z</time>
      </trkpt>
      <trkpt lat="42.8104" lon="-0.04507">
        <ele>2235.5</ele>
        <time>2023-10-31T11:03:26Z</time>
      </trkpt>
      <trkpt lat="42.8104" lon="-0.04507">
        <ele>2235.6</ele>
        <time>2023-10-31T11:03:27Z</time>
      </trkpt>
      <trkpt lat="42.81041" lon="-0.04508">
        <ele>2235.6</ele>
        <time>2023-10-31T11:03:28Z</time>
      </trkpt>
      <trkpt lat="42.8104" lon="-0.04508">
        <ele>2235.6</ele>
        <time>2023-10-31T11:03:29Z</time>
      </trkpt>
      <trkpt lat="42.8104" lon="-0.04508">
        <ele>2235.7</ele>
        <time>2023-10-31T11:03:30Z</time>
      </trkpt>
      <trkpt lat="42.8104" lon="-0.04508">
        <ele>2235.7</ele>
        <time>2023-10-31T11:03:31Z</time>
      </trkpt>
      <trkpt lat="42.8104" lon="-0.04509">
        <ele>2235.7</ele>
        <time>2023-10-31T11:03:32Z</time>
      </trkpt>
      <trkpt lat="42.8104" lon="-0.04509">
        <ele>2235.8</ele>
        <time>2023-10-31T11:03:33Z</time>
      </trkpt>
      <trkpt lat="42.8104" lon="-0.0451">
        <ele>2235.8</ele>
        <time>2023-10-31T11:03:34Z</time>
      </trkpt>
      <trkpt lat="42.8104" lon="-0.04511">
        <ele>2235.8</ele>
        <time>2023-10-31T11:03:35Z</time>
      </trkpt>
      <trkpt lat="42.81041" lon="-0.04512">
        <ele>2235.9</ele>
        <time>2023-10-31T11:03:36Z</time>
      </trkpt>
      <trkpt lat="42.81041" lon="-0.04513">
        <ele>2235.9</ele>
        <time>2023-10-31T11:03:37Z</time>
      </trkpt>
      <trkpt lat="42.81041" lon="-0.04513">
        <ele>2236</ele>
        <time>2023-10-31T11:03:38Z</time>
      </trkpt>
      <trkpt lat="42.81041" lon="-0.04514">
        <ele>2236</ele>
        <time>2023-10-31T11:03:39Z</time>
      </trkpt>
      <trkpt lat="42.81042" lon="-0.04514">
        <ele>2236</ele>
        <time>2023-10-31T11:03:40Z</time>
      </trkpt>
      <trkpt lat="42.81042" lon="-0.04514">
        <ele>2236</ele>
        <time>2023-10-31T11:03:41Z</time>
      </trkpt>
      <trkpt lat="42.81042" lon="-0.04515">
        <ele>2236.1</ele>
        <time>2023-10-31T11:03:42Z</time>
      </trkpt>
      <trkpt lat="42.81042" lon="-0.04514">
        <ele>2236.1</ele>
        <time>2023-10-31T11:03:43Z</time>
      </trkpt>
      <trkpt lat="42.81042" lon="-0.04514">
        <ele>2236.1</ele>
        <time>2023-10-31T11:03:44Z</time>
      </trkpt>
      <trkpt lat="42.81042" lon="-0.04515">
        <ele>2236.1</ele>
        <time>2023-10-31T11:03:45Z</time>
      </trkpt>
      <trkpt lat="42.81042" lon="-0.04516">
        <ele>2236.2</ele>
        <time>2023-10-31T11:03:46Z</time>
      </trkpt>
      <trkpt lat="42.81042" lon="-0.04516">
        <ele>2236.2</ele>
        <time>2023-10-31T11:03:47Z</time>
      </trkpt>
      <trkpt lat="42.81044" lon="-0.04515">
        <ele>2236.3</ele>
        <time>2023-10-31T11:03:48Z</time>
      </trkpt>
      <trkpt lat="42.81043" lon="-0.04516">
        <ele>2236.3</ele>
        <time>2023-10-31T11:03:49Z</time>
      </trkpt>
      <trkpt lat="42.81043" lon="-0.04515">
        <ele>2236.4</ele>
        <time>2023-10-31T11:03:50Z</time>
      </trkpt>
      <trkpt lat="42.81043" lon="-0.04516">
        <ele>2236.4</ele>
        <time>2023-10-31T11:03:51Z</time>
      </trkpt>
      <trkpt lat="42.81043" lon="-0.04516">
        <ele>2236.4</ele>
        <time>2023-10-31T11:03:52Z</time>
      </trkpt>
      <trkpt lat="42.81043" lon="-0.04516">
        <ele>2236.4</ele>
        <time>2023-10-31T11:03:53Z</time>
      </trkpt>
      <trkpt lat="42.81043" lon="-0.04517">
        <ele>2236.4</ele>
        <time>2023-10-31T11:03:54Z</time>
      </trkpt>
      <trkpt lat="42.81044" lon="-0.04518">
        <ele>2236.5</ele>
        <time>2023-10-31T11:03:55Z</time>
      </trkpt>
      <trkpt lat="42.81044" lon="-0.04518">
        <ele>2236.5</ele>
        <time>2023-10-31T11:03:56Z</time>
      </trkpt>
      <trkpt lat="42.81044" lon="-0.04519">
        <ele>2236.6</ele>
        <time>2023-10-31T11:03:57Z</time>
      </trkpt>
      <trkpt lat="42.81043" lon="-0.0452">
        <ele>2236.6</ele>
        <time>2023-10-31T11:03:58Z</time>
      </trkpt>
      <trkpt lat="42.81043" lon="-0.0452">
        <ele>2236.6</ele>
        <time>2023-10-31T11:03:59Z</time>
      </trkpt>
      <trkpt lat="42.81043" lon="-0.04521">
        <ele>2236.6</ele>
        <time>2023-10-31T11:04:00Z</time>
      </trkpt>
      <trkpt lat="42.81043" lon="-0.04521">
        <ele>2236.7</ele>
        <time>2023-10-31T11:04:01Z</time>
      </trkpt>
      <trkpt lat="42.81042" lon="-0.04522">
        <ele>2236.7</ele>
        <time>2023-10-31T11:04:02Z</time>
      </trkpt>
      <trkpt lat="42.81042" lon="-0.04522">
        <ele>2236.7</ele>
        <time>2023-10-31T11:04:03Z</time>
      </trkpt>
      <trkpt lat="42.81042" lon="-0.04522">
        <ele>2236.8</ele>
        <time>2023-10-31T11:04:04Z</time>
      </trkpt>
      <trkpt lat="42.81042" lon="-0.04522">
        <ele>2236.8</ele>
        <time>2023-10-31T11:04:05Z</time>
      </trkpt>
      <trkpt lat="42.81042" lon="-0.04522">
        <ele>2236.8</ele>
        <time>2023-10-31T11:04:06Z</time>
      </trkpt>
      <trkpt lat="42.81042" lon="-0.04522">
        <ele>2236.8</ele>
        <time>2023-10-31T11:04:07Z</time>
      </trkpt>
      <trkpt lat="42.81042" lon="-0.04523">
        <ele>2236.8</ele>
        <time>2023-10-31T11:04:08Z</time>
      </trkpt>
      <trkpt lat="42.81041" lon="-0.04523">
        <ele>2236.9</ele>
        <time>2023-10-31T11:04:09Z</time>
      </trkpt>
      <trkpt lat="42.81042" lon="-0.04524">
        <ele>2236.9</ele>
        <time>2023-10-31T11:04:10Z</time>
      </trkpt>
      <trkpt lat="42.81042" lon="-0.04524">
        <ele>2236.9</ele>
        <time>2023-10-31T11:04:11Z</time>
      </trkpt>
      <trkpt lat="42.81041" lon="-0.04525">
        <ele>2237</ele>
        <time>2023-10-31T11:04:12Z</time>
      </trkpt>
      <trkpt lat="42.81041" lon="-0.04526">
        <ele>2237</ele>
        <time>2023-10-31T11:04:13Z</time>
      </trkpt>
      <trkpt lat="42.81041" lon="-0.04527">
        <ele>2237</ele>
        <time>2023-10-31T11:04:14Z</time>
      </trkpt>
      <trkpt lat="42.8104" lon="-0.04527">
        <ele>2237.1</ele>
        <time>2023-10-31T11:04:15Z</time>
      </trkpt>
      <trkpt lat="42.8104" lon="-0.04528">
        <ele>2237.1</ele>
        <time>2023-10-31T11:04:16Z</time>
      </trkpt>
      <trkpt lat="42.8104" lon="-0.04529">
        <ele>2237.1</ele>
        <time>2023-10-31T11:04:17Z</time>
      </trkpt>
      <trkpt lat="42.8104" lon="-0.0453">
        <ele>2237.2</ele>
        <time>2023-10-31T11:04:18Z</time>
      </trkpt>
      <trkpt lat="42.81041" lon="-0.0453">
        <ele>2237.3</ele>
        <time>2023-10-31T11:04:19Z</time>
      </trkpt>
      <trkpt lat="42.81042" lon="-0.04532">
        <ele>2237.3</ele>
        <time>2023-10-31T11:04:20Z</time>
      </trkpt>
      <trkpt lat="42.81043" lon="-0.04533">
        <ele>2237.4</ele>
        <time>2023-10-31T11:04:21Z</time>
      </trkpt>
      <trkpt lat="42.81043" lon="-0.04533">
        <ele>2237.4</ele>
        <time>2023-10-31T11:04:22Z</time>
      </trkpt>
      <trkpt lat="42.81043" lon="-0.04534">
        <ele>2237.5</ele>
        <time>2023-10-31T11:04:23Z</time>
      </trkpt>
      <trkpt lat="42.81045" lon="-0.04535">
        <ele>2237.6</ele>
        <time>2023-10-31T11:04:24Z</time>
      </trkpt>
      <trkpt lat="42.81045" lon="-0.04536">
        <ele>2237.6</ele>
        <time>2023-10-31T11:04:25Z</time>
      </trkpt>
      <trkpt lat="42.81045" lon="-0.04536">
        <ele>2237.6</ele>
        <time>2023-10-31T11:04:26Z</time>
      </trkpt>
      <trkpt lat="42.81045" lon="-0.04537">
        <ele>2237.7</ele>
        <time>2023-10-31T11:04:27Z</time>
      </trkpt>
      <trkpt lat="42.81045" lon="-0.04538">
        <ele>2237.7</ele>
        <time>2023-10-31T11:04:28Z</time>
      </trkpt>
      <trkpt lat="42.81046" lon="-0.04539">
        <ele>2237.8</ele>
        <time>2023-10-31T11:04:29Z</time>
      </trkpt>
      <trkpt lat="42.81046" lon="-0.0454">
        <ele>2237.8</ele>
        <time>2023-10-31T11:04:30Z</time>
      </trkpt>
      <trkpt lat="42.81047" lon="-0.0454">
        <ele>2237.8</ele>
        <time>2023-10-31T11:04:31Z</time>
      </trkpt>
      <trkpt lat="42.81047" lon="-0.0454">
        <ele>2237.9</ele>
        <time>2023-10-31T11:04:32Z</time>
      </trkpt>
      <trkpt lat="42.81048" lon="-0.04541">
        <ele>2237.9</ele>
        <time>2023-10-31T11:04:33Z</time>
      </trkpt>
      <trkpt lat="42.81049" lon="-0.04542">
        <ele>2238</ele>
        <time>2023-10-31T11:04:34Z</time>
      </trkpt>
      <trkpt lat="42.81049" lon="-0.04542">
        <ele>2238</ele>
        <time>2023-10-31T11:04:35Z</time>
      </trkpt>
      <trkpt lat="42.81049" lon="-0.04543">
        <ele>2238</ele>
        <time>2023-10-31T11:04:36Z</time>
      </trkpt>
      <trkpt lat="42.81049" lon="-0.04544">
        <ele>2238.1</ele>
        <time>2023-10-31T11:04:37Z</time>
      </trkpt>
      <trkpt lat="42.81049" lon="-0.04545">
        <ele>2238.1</ele>
        <time>2023-10-31T11:04:38Z</time>
      </trkpt>
      <trkpt lat="42.81049" lon="-0.04545">
        <ele>2238.1</ele>
        <time>2023-10-31T11:04:39Z</time>
      </trkpt>
      <trkpt lat="42.81049" lon="-0.04545">
        <ele>2238.2</ele>
        <time>2023-10-31T11:04:40Z</time>
      </trkpt>
      <trkpt lat="42.81049" lon="-0.04545">
        <ele>2238.2</ele>
        <time>2023-10-31T11:04:41Z</time>
      </trkpt>
      <trkpt lat="42.81049" lon="-0.04546">
        <ele>2238.2</ele>
        <time>2023-10-31T11:04:42Z</time>
      </trkpt>
      <trkpt lat="42.81049" lon="-0.04546">
        <ele>2238.3</ele>
        <time>2023-10-31T11:04:43Z</time>
      </trkpt>
      <trkpt lat="42.81049" lon="-0.04546">
        <ele>2238.3</ele>
        <time>2023-10-31T11:04:44Z</time>
      </trkpt>
      <trkpt lat="42.81049" lon="-0.04547">
        <ele>2238.4</ele>
        <time>2023-10-31T11:04:45Z</time>
      </trkpt>
      <trkpt lat="42.81049" lon="-0.04549">
        <ele>2238.4</ele>
        <time>2023-10-31T11:04:46Z</time>
      </trkpt>
      <trkpt lat="42.81049" lon="-0.04549">
        <ele>2238.4</ele>
        <time>2023-10-31T11:04:47Z</time>
      </trkpt>
      <trkpt lat="42.81049" lon="-0.0455">
        <ele>2238.5</ele>
        <time>2023-10-31T11:04:48Z</time>
      </trkpt>
      <trkpt lat="42.8105" lon="-0.04551">
        <ele>2238.5</ele>
        <time>2023-10-31T11:04:49Z</time>
      </trkpt>
      <trkpt lat="42.8105" lon="-0.04552">
        <ele>2238.6</ele>
        <time>2023-10-31T11:04:50Z</time>
      </trkpt>
      <trkpt lat="42.8105" lon="-0.04552">
        <ele>2238.6</ele>
        <time>2023-10-31T11:04:51Z</time>
      </trkpt>
      <trkpt lat="42.8105" lon="-0.04552">
        <ele>2238.6</ele>
        <time>2023-10-31T11:04:52Z</time>
      </trkpt>
      <trkpt lat="42.8105" lon="-0.04552">
        <ele>2238.6</ele>
        <time>2023-10-31T11:04:53Z</time>
      </trkpt>
      <trkpt lat="42.8105" lon="-0.04552">
        <ele>2238.6</ele>
        <time>2023-10-31T11:04:54Z</time>
      </trkpt>
      <trkpt lat="42.8105" lon="-0.04553">
        <ele>2238.6</ele>
        <time>2023-10-31T11:04:55Z</time>
      </trkpt>
      <trkpt lat="42.81051" lon="-0.04553">
        <ele>2238.7</ele>
        <time>2023-10-31T11:04:56Z</time>
      </trkpt>
      <trkpt lat="42.81051" lon="-0.04553">
        <ele>2238.7</ele>
        <time>2023-10-31T11:04:57Z</time>
      </trkpt>
      <trkpt lat="42.81051" lon="-0.04553">
        <ele>2238.8</ele>
        <time>2023-10-31T11:04:58Z</time>
      </trkpt>
      <trkpt lat="42.81051" lon="-0.04553">
        <ele>2238.8</ele>
        <time>2023-10-31T11:04:59Z</time>
      </trkpt>
      <trkpt lat="42.81051" lon="-0.04553">
        <ele>2238.8</ele>
        <time>2023-10-31T11:05:00Z</time>
      </trkpt>
      <trkpt lat="42.81051" lon="-0.04553">
        <ele>2238.8</ele>
        <time>2023-10-31T11:05:01Z</time>
      </trkpt>
      <trkpt lat="42.81051" lon="-0.04553">
        <ele>2238.8</ele>
        <time>2023-10-31T11:05:02Z</time>
      </trkpt>
      <trkpt lat="42.81051" lon="-0.04553">
        <ele>2238.8</ele>
        <time>2023-10-31T11:05:03Z</time>
      </trkpt>
      <trkpt lat="42.81051" lon="-0.04553">
        <ele>2238.8</ele>
        <time>2023-10-31T11:05:04Z</time>
      </trkpt>
      <trkpt lat="42.81051" lon="-0.04553">
        <ele>2238.8</ele>
        <time>2023-10-31T11:05:05Z</time>
      </trkpt>
      <trkpt lat="42.81051" lon="-0.04553">
        <ele>2238.8</ele>
        <time>2023-10-31T11:05:06Z</time>
      </trkpt>
      <trkpt lat="42.81051" lon="-0.04553">
        <ele>2238.8</ele>
        <time>2023-10-31T11:05:07Z</time>
      </trkpt>
      <trkpt lat="42.81051" lon="-0.04553">
        <ele>2238.8</ele>
        <time>2023-10-31T11:05:08Z</time>
      </trkpt>
      <trkpt lat="42.81051" lon="-0.04553">
        <ele>2238.8</ele>
        <time>2023-10-31T11:05:09Z</time>
      </trkpt>
      <trkpt lat="42.81051" lon="-0.04553">
        <ele>2238.8</ele>
        <time>2023-10-31T11:05:10Z</time>
      </trkpt>
      <trkpt lat="42.81051" lon="-0.04553">
        <ele>2238.8</ele>
        <time>2023-10-31T11:05:11Z</time>
      </trkpt>
      <trkpt lat="42.81051" lon="-0.04553">
        <ele>2238.8</ele>
        <time>2023-10-31T11:05:12Z</time>
      </trkpt>
      <trkpt lat="42.81051" lon="-0.04553">
        <ele>2238.8</ele>
        <time>2023-10-31T11:05:13Z</time>
      </trkpt>
      <trkpt lat="42.81051" lon="-0.04553">
        <ele>2238.8</ele>
        <time>2023-10-31T11:05:14Z</time>
      </trkpt>
      <trkpt lat="42.81051" lon="-0.04553">
        <ele>2238.8</ele>
        <time>2023-10-31T11:05:15Z</time>
      </trkpt>
      <trkpt lat="42.81051" lon="-0.04553">
        <ele>2238.8</ele>
        <time>2023-10-31T11:05:16Z</time>
      </trkpt>
      <trkpt lat="42.81051" lon="-0.04553">
        <ele>2238.8</ele>
        <time>2023-10-31T11:05:17Z</time>
      </trkpt>
      <trkpt lat="42.81051" lon="-0.04553">
        <ele>2238.8</ele>
        <time>2023-10-31T11:05:18Z</time>
      </trkpt>
      <trkpt lat="42.81051" lon="-0.04553">
        <ele>2238.8</ele>
        <time>2023-10-31T11:05:19Z</time>
      </trkpt>
      <trkpt lat="42.81051" lon="-0.04553">
        <ele>2238.8</ele>
        <time>2023-10-31T11:05:20Z</time>
      </trkpt>
      <trkpt lat="42.81051" lon="-0.04553">
        <ele>2238.8</ele>
        <time>2023-10-31T11:05:21Z</time>
      </trkpt>
      <trkpt lat="42.81051" lon="-0.04553">
        <ele>2238.8</ele>
        <time>2023-10-31T11:05:22Z</time>
      </trkpt>
      <trkpt lat="42.81051" lon="-0.04553">
        <ele>2238.8</ele>
        <time>2023-10-31T11:05:23Z</time>
      </trkpt>
      <trkpt lat="42.81051" lon="-0.04553">
        <ele>2238.8</ele>
        <time>2023-10-31T11:05:24Z</time>
      </trkpt>
      <trkpt lat="42.81051" lon="-0.04553">
        <ele>2238.8</ele>
        <time>2023-10-31T11:05:25Z</time>
      </trkpt>
      <trkpt lat="42.81051" lon="-0.04553">
        <ele>2238.8</ele>
        <time>2023-10-31T11:05:26Z</time>
      </trkpt>
      <trkpt lat="42.81053" lon="-0.04553">
        <ele>2238.9</ele>
        <time>2023-10-31T11:05:27Z</time>
      </trkpt>
      <trkpt lat="42.81052" lon="-0.04552">
        <ele>2239</ele>
        <time>2023-10-31T11:05:28Z</time>
      </trkpt>
      <trkpt lat="42.81052" lon="-0.04552">
        <ele>2239</ele>
        <time>2023-10-31T11:05:29Z</time>
      </trkpt>
      <trkpt lat="42.81052" lon="-0.04553">
        <ele>2239</ele>
        <time>2023-10-31T11:05:30Z</time>
      </trkpt>
      <trkpt lat="42.81052" lon="-0.04553">
        <ele>2239</ele>
        <time>2023-10-31T11:05:31Z</time>
      </trkpt>
      <trkpt lat="42.81052" lon="-0.04553">
        <ele>2239</ele>
        <time>2023-10-31T11:05:32Z</time>
      </trkpt>
      <trkpt lat="42.81052" lon="-0.04553">
        <ele>2239</ele>
        <time>2023-10-31T11:05:33Z</time>
      </trkpt>
      <trkpt lat="42.81052" lon="-0.04554">
        <ele>2239</ele>
        <time>2023-10-31T11:05:34Z</time>
      </trkpt>
      <trkpt lat="42.81052" lon="-0.04554">
        <ele>2239</ele>
        <time>2023-10-31T11:05:35Z</time>
      </trkpt>
      <trkpt lat="42.81052" lon="-0.04554">
        <ele>2239.1</ele>
        <time>2023-10-31T11:05:36Z</time>
      </trkpt>
      <trkpt lat="42.81051" lon="-0.04554">
        <ele>2239.1</ele>
        <time>2023-10-31T11:05:37Z</time>
      </trkpt>
      <trkpt lat="42.81052" lon="-0.04554">
        <ele>2239.1</ele>
        <time>2023-10-31T11:05:38Z</time>
      </trkpt>
      <trkpt lat="42.81051" lon="-0.04554">
        <ele>2239.1</ele>
        <time>2023-10-31T11:05:39Z</time>
      </trkpt>
      <trkpt lat="42.81051" lon="-0.04554">
        <ele>2239.1</ele>
        <time>2023-10-31T11:05:40Z</time>
      </trkpt>
      <trkpt lat="42.81051" lon="-0.04554">
        <ele>2239.1</ele>
        <time>2023-10-31T11:05:41Z</time>
      </trkpt>
      <trkpt lat="42.81051" lon="-0.04554">
        <ele>2239.1</ele>
        <time>2023-10-31T11:05:42Z</time>
      </trkpt>
      <trkpt lat="42.81052" lon="-0.04554">
        <ele>2239.1</ele>
        <time>2023-10-31T11:05:43Z</time>
      </trkpt>
      <trkpt lat="42.81052" lon="-0.04554">
        <ele>2239.1</ele>
        <time>2023-10-31T11:05:44Z</time>
      </trkpt>
      <trkpt lat="42.81052" lon="-0.04555">
        <ele>2239.1</ele>
        <time>2023-10-31T11:05:45Z</time>
      </trkpt>
      <trkpt lat="42.81052" lon="-0.04555">
        <ele>2239.1</ele>
        <time>2023-10-31T11:05:46Z</time>
      </trkpt>
      <trkpt lat="42.81052" lon="-0.04555">
        <ele>2239.1</ele>
        <time>2023-10-31T11:05:47Z</time>
      </trkpt>
      <trkpt lat="42.81052" lon="-0.04555">
        <ele>2239.2</ele>
        <time>2023-10-31T11:05:48Z</time>
      </trkpt>
      <trkpt lat="42.81052" lon="-0.04555">
        <ele>2239.2</ele>
        <time>2023-10-31T11:05:49Z</time>
      </trkpt>
      <trkpt lat="42.81052" lon="-0.04555">
        <ele>2239.2</ele>
        <time>2023-10-31T11:05:50Z</time>
      </trkpt>
      <trkpt lat="42.81052" lon="-0.04555">
        <ele>2239.2</ele>
        <time>2023-10-31T11:05:51Z</time>
      </trkpt>
      <trkpt lat="42.81052" lon="-0.04555">
        <ele>2239.2</ele>
        <time>2023-10-31T11:05:52Z</time>
      </trkpt>
      <trkpt lat="42.81052" lon="-0.04555">
        <ele>2239.2</ele>
        <time>2023-10-31T11:05:53Z</time>
      </trkpt>
      <trkpt lat="42.81052" lon="-0.04555">
        <ele>2239.2</ele>
        <time>2023-10-31T11:05:54Z</time>
      </trkpt>
      <trkpt lat="42.81052" lon="-0.04556">
        <ele>2239.2</ele>
        <time>2023-10-31T11:05:55Z</time>
      </trkpt>
      <trkpt lat="42.81052" lon="-0.04556">
        <ele>2239.2</ele>
        <time>2023-10-31T11:05:56Z</time>
      </trkpt>
      <trkpt lat="42.81052" lon="-0.04556">
        <ele>2239.2</ele>
        <time>2023-10-31T11:05:57Z</time>
      </trkpt>
      <trkpt lat="42.81052" lon="-0.04556">
        <ele>2239.2</ele>
        <time>2023-10-31T11:05:58Z</time>
      </trkpt>
      <trkpt lat="42.81052" lon="-0.04556">
        <ele>2239.2</ele>
        <time>2023-10-31T11:05:59Z</time>
      </trkpt>
      <trkpt lat="42.81053" lon="-0.04555">
        <ele>2239.3</ele>
        <time>2023-10-31T11:06:00Z</time>
      </trkpt>
      <trkpt lat="42.81053" lon="-0.04555">
        <ele>2239.3</ele>
        <time>2023-10-31T11:06:01Z</time>
      </trkpt>
      <trkpt lat="42.81053" lon="-0.04555">
        <ele>2239.3</ele>
        <time>2023-10-31T11:06:02Z</time>
      </trkpt>
      <trkpt lat="42.81053" lon="-0.04555">
        <ele>2239.4</ele>
        <time>2023-10-31T11:06:03Z</time>
      </trkpt>
      <trkpt lat="42.81053" lon="-0.04555">
        <ele>2239.4</ele>
        <time>2023-10-31T11:06:04Z</time>
      </trkpt>
      <trkpt lat="42.81053" lon="-0.04555">
        <ele>2239.4</ele>
        <time>2023-10-31T11:06:05Z</time>
      </trkpt>
      <trkpt lat="42.81054" lon="-0.04556">
        <ele>2239.4</ele>
        <time>2023-10-31T11:06:06Z</time>
      </trkpt>
      <trkpt lat="42.81054" lon="-0.04556">
        <ele>2239.4</ele>
        <time>2023-10-31T11:06:07Z</time>
      </trkpt>
      <trkpt lat="42.81053" lon="-0.04556">
        <ele>2239.4</ele>
        <time>2023-10-31T11:06:08Z</time>
      </trkpt>
      <trkpt lat="42.81053" lon="-0.04556">
        <ele>2239.4</ele>
        <time>2023-10-31T11:06:09Z</time>
      </trkpt>
      <trkpt lat="42.81054" lon="-0.04556">
        <ele>2239.5</ele>
        <time>2023-10-31T11:06:10Z</time>
      </trkpt>
      <trkpt lat="42.81053" lon="-0.04557">
        <ele>2239.5</ele>
        <time>2023-10-31T11:06:11Z</time>
      </trkpt>
      <trkpt lat="42.81053" lon="-0.04557">
        <ele>2239.5</ele>
        <time>2023-10-31T11:06:12Z</time>
      </trkpt>
      <trkpt lat="42.81053" lon="-0.04557">
        <ele>2239.5</ele>
        <time>2023-10-31T11:06:13Z</time>
      </trkpt>
      <trkpt lat="42.81053" lon="-0.04557">
        <ele>2239.5</ele>
        <time>2023-10-31T11:06:14Z</time>
      </trkpt>
      <trkpt lat="42.81053" lon="-0.04557">
        <ele>2239.5</ele>
        <time>2023-10-31T11:06:15Z</time>
      </trkpt>
      <trkpt lat="42.81054" lon="-0.04557">
        <ele>2239.6</ele>
        <time>2023-10-31T11:06:16Z</time>
      </trkpt>
      <trkpt lat="42.81053" lon="-0.04558">
        <ele>2239.6</ele>
        <time>2023-10-31T11:06:17Z</time>
      </trkpt>
      <trkpt lat="42.81053" lon="-0.04558">
        <ele>2239.6</ele>
        <time>2023-10-31T11:06:18Z</time>
      </trkpt>
      <trkpt lat="42.81053" lon="-0.04558">
        <ele>2239.6</ele>
        <time>2023-10-31T11:06:19Z</time>
      </trkpt>
      <trkpt lat="42.81054" lon="-0.0456">
        <ele>2239.7</ele>
        <time>2023-10-31T11:06:20Z</time>
      </trkpt>
      <trkpt lat="42.81054" lon="-0.04561">
        <ele>2239.7</ele>
        <time>2023-10-31T11:06:21Z</time>
      </trkpt>
      <trkpt lat="42.81054" lon="-0.04561">
        <ele>2239.8</ele>
        <time>2023-10-31T11:06:22Z</time>
      </trkpt>
      <trkpt lat="42.81055" lon="-0.04561">
        <ele>2239.8</ele>
        <time>2023-10-31T11:06:23Z</time>
      </trkpt>
      <trkpt lat="42.81055" lon="-0.04562">
        <ele>2239.8</ele>
        <time>2023-10-31T11:06:24Z</time>
      </trkpt>
      <trkpt lat="42.81055" lon="-0.04563">
        <ele>2239.9</ele>
        <time>2023-10-31T11:06:25Z</time>
      </trkpt>
      <trkpt lat="42.81055" lon="-0.04564">
        <ele>2239.9</ele>
        <time>2023-10-31T11:06:26Z</time>
      </trkpt>
      <trkpt lat="42.81055" lon="-0.04564">
        <ele>2240</ele>
        <time>2023-10-31T11:06:27Z</time>
      </trkpt>
      <trkpt lat="42.81054" lon="-0.04565">
        <ele>2240</ele>
        <time>2023-10-31T11:06:28Z</time>
      </trkpt>
      <trkpt lat="42.81054" lon="-0.04565">
        <ele>2240</ele>
        <time>2023-10-31T11:06:29Z</time>
      </trkpt>
      <trkpt lat="42.81055" lon="-0.04566">
        <ele>2240.1</ele>
        <time>2023-10-31T11:06:30Z</time>
      </trkpt>
      <trkpt lat="42.81056" lon="-0.04567">
        <ele>2240.1</ele>
        <time>2023-10-31T11:06:31Z</time>
      </trkpt>
      <trkpt lat="42.81056" lon="-0.04566">
        <ele>2240.2</ele>
        <time>2023-10-31T11:06:32Z</time>
      </trkpt>
      <trkpt lat="42.81057" lon="-0.04567">
        <ele>2240.2</ele>
        <time>2023-10-31T11:06:33Z</time>
      </trkpt>
      <trkpt lat="42.81058" lon="-0.04567">
        <ele>2240.3</ele>
        <time>2023-10-31T11:06:34Z</time>
      </trkpt>
      <trkpt lat="42.81058" lon="-0.04568">
        <ele>2240.3</ele>
        <time>2023-10-31T11:06:35Z</time>
      </trkpt>
      <trkpt lat="42.81058" lon="-0.04568">
        <ele>2240.3</ele>
        <time>2023-10-31T11:06:36Z</time>
      </trkpt>
      <trkpt lat="42.81059" lon="-0.04568">
        <ele>2240.4</ele>
        <time>2023-10-31T11:06:37Z</time>
      </trkpt>
      <trkpt lat="42.81059" lon="-0.04568">
        <ele>2240.4</ele>
        <time>2023-10-31T11:06:38Z</time>
      </trkpt>
      <trkpt lat="42.81059" lon="-0.04569">
        <ele>2240.4</ele>
        <time>2023-10-31T11:06:39Z</time>
      </trkpt>
      <trkpt lat="42.81059" lon="-0.04569">
        <ele>2240.4</ele>
        <time>2023-10-31T11:06:40Z</time>
      </trkpt>
      <trkpt lat="42.81059" lon="-0.04569">
        <ele>2240.4</ele>
        <time>2023-10-31T11:06:41Z</time>
      </trkpt>
      <trkpt lat="42.81059" lon="-0.0457">
        <ele>2240.5</ele>
        <time>2023-10-31T11:06:42Z</time>
      </trkpt>
      <trkpt lat="42.81058" lon="-0.04569">
        <ele>2240.6</ele>
        <time>2023-10-31T11:06:43Z</time>
      </trkpt>
      <trkpt lat="42.81059" lon="-0.04571">
        <ele>2240.6</ele>
        <time>2023-10-31T11:06:44Z</time>
      </trkpt>
      <trkpt lat="42.81059" lon="-0.04572">
        <ele>2240.7</ele>
        <time>2023-10-31T11:06:45Z</time>
      </trkpt>
      <trkpt lat="42.81059" lon="-0.04572">
        <ele>2240.7</ele>
        <time>2023-10-31T11:06:46Z</time>
      </trkpt>
      <trkpt lat="42.81059" lon="-0.04572">
        <ele>2240.7</ele>
        <time>2023-10-31T11:06:47Z</time>
      </trkpt>
      <trkpt lat="42.81059" lon="-0.04572">
        <ele>2240.7</ele>
        <time>2023-10-31T11:06:48Z</time>
      </trkpt>
      <trkpt lat="42.81059" lon="-0.04572">
        <ele>2240.8</ele>
        <time>2023-10-31T11:06:49Z</time>
      </trkpt>
      <trkpt lat="42.8106" lon="-0.04573">
        <ele>2240.8</ele>
        <time>2023-10-31T11:06:50Z</time>
      </trkpt>
      <trkpt lat="42.8106" lon="-0.04573">
        <ele>2240.8</ele>
        <time>2023-10-31T11:06:51Z</time>
      </trkpt>
      <trkpt lat="42.8106" lon="-0.04573">
        <ele>2240.9</ele>
        <time>2023-10-31T11:06:52Z</time>
      </trkpt>
      <trkpt lat="42.8106" lon="-0.04573">
        <ele>2240.9</ele>
        <time>2023-10-31T11:06:53Z</time>
      </trkpt>
      <trkpt lat="42.81061" lon="-0.04575">
        <ele>2240.9</ele>
        <time>2023-10-31T11:06:54Z</time>
      </trkpt>
      <trkpt lat="42.81061" lon="-0.04575">
        <ele>2241</ele>
        <time>2023-10-31T11:06:55Z</time>
      </trkpt>
      <trkpt lat="42.81061" lon="-0.04575">
        <ele>2241</ele>
        <time>2023-10-31T11:06:56Z</time>
      </trkpt>
      <trkpt lat="42.81061" lon="-0.04575">
        <ele>2241</ele>
        <time>2023-10-31T11:06:57Z</time>
      </trkpt>
      <trkpt lat="42.8106" lon="-0.04576">
        <ele>2241.1</ele>
        <time>2023-10-31T11:06:58Z</time>
      </trkpt>
      <trkpt lat="42.81061" lon="-0.04576">
        <ele>2241.1</ele>
        <time>2023-10-31T11:06:59Z</time>
      </trkpt>
      <trkpt lat="42.81061" lon="-0.04576">
        <ele>2241.1</ele>
        <time>2023-10-31T11:07:00Z</time>
      </trkpt>
      <trkpt lat="42.81061" lon="-0.04576">
        <ele>2241.2</ele>
        <time>2023-10-31T11:07:01Z</time>
      </trkpt>
      <trkpt lat="42.81062" lon="-0.04576">
        <ele>2241.2</ele>
        <time>2023-10-31T11:07:02Z</time>
      </trkpt>
      <trkpt lat="42.81062" lon="-0.04576">
        <ele>2241.2</ele>
        <time>2023-10-31T11:07:03Z</time>
      </trkpt>
      <trkpt lat="42.81062" lon="-0.04576">
        <ele>2241.2</ele>
        <time>2023-10-31T11:07:04Z</time>
      </trkpt>
      <trkpt lat="42.81062" lon="-0.04576">
        <ele>2241.2</ele>
        <time>2023-10-31T11:07:05Z</time>
      </trkpt>
      <trkpt lat="42.81062" lon="-0.04577">
        <ele>2241.2</ele>
        <time>2023-10-31T11:07:06Z</time>
      </trkpt>
      <trkpt lat="42.81062" lon="-0.04577">
        <ele>2241.2</ele>
        <time>2023-10-31T11:07:07Z</time>
      </trkpt>
      <trkpt lat="42.81062" lon="-0.04577">
        <ele>2241.2</ele>
        <time>2023-10-31T11:07:08Z</time>
      </trkpt>
      <trkpt lat="42.81062" lon="-0.04577">
        <ele>2241.2</ele>
        <time>2023-10-31T11:07:09Z</time>
      </trkpt>
      <trkpt lat="42.81062" lon="-0.04577">
        <ele>2241.2</ele>
        <time>2023-10-31T11:07:10Z</time>
      </trkpt>
      <trkpt lat="42.81062" lon="-0.04578">
        <ele>2241.3</ele>
        <time>2023-10-31T11:07:11Z</time>
      </trkpt>
      <trkpt lat="42.81062" lon="-0.04579">
        <ele>2241.4</ele>
        <time>2023-10-31T11:07:12Z</time>
      </trkpt>
      <trkpt lat="42.81062" lon="-0.04579">
        <ele>2241.4</ele>
        <time>2023-10-31T11:07:13Z</time>
      </trkpt>
      <trkpt lat="42.81062" lon="-0.04579">
        <ele>2241.4</ele>
        <time>2023-10-31T11:07:14Z</time>
      </trkpt>
      <trkpt lat="42.81062" lon="-0.04579">
        <ele>2241.4</ele>
        <time>2023-10-31T11:07:15Z</time>
      </trkpt>
      <trkpt lat="42.81062" lon="-0.04579">
        <ele>2241.4</ele>
        <time>2023-10-31T11:07:16Z</time>
      </trkpt>
      <trkpt lat="42.81061" lon="-0.0458">
        <ele>2241.5</ele>
        <time>2023-10-31T11:07:17Z</time>
      </trkpt>
      <trkpt lat="42.81061" lon="-0.04579">
        <ele>2241.5</ele>
        <time>2023-10-31T11:07:18Z</time>
      </trkpt>
      <trkpt lat="42.81062" lon="-0.0458">
        <ele>2241.5</ele>
        <time>2023-10-31T11:07:19Z</time>
      </trkpt>
      <trkpt lat="42.81062" lon="-0.0458">
        <ele>2241.5</ele>
        <time>2023-10-31T11:07:20Z</time>
      </trkpt>
      <trkpt lat="42.81062" lon="-0.0458">
        <ele>2241.5</ele>
        <time>2023-10-31T11:07:21Z</time>
      </trkpt>
      <trkpt lat="42.81062" lon="-0.0458">
        <ele>2241.5</ele>
        <time>2023-10-31T11:07:22Z</time>
      </trkpt>
      <trkpt lat="42.81062" lon="-0.0458">
        <ele>2241.6</ele>
        <time>2023-10-31T11:07:23Z</time>
      </trkpt>
      <trkpt lat="42.81062" lon="-0.0458">
        <ele>2241.6</ele>
        <time>2023-10-31T11:07:24Z</time>
      </trkpt>
      <trkpt lat="42.81062" lon="-0.0458">
        <ele>2241.6</ele>
        <time>2023-10-31T11:07:25Z</time>
      </trkpt>
      <trkpt lat="42.81062" lon="-0.0458">
        <ele>2241.6</ele>
        <time>2023-10-31T11:07:26Z</time>
      </trkpt>
      <trkpt lat="42.81062" lon="-0.0458">
        <ele>2241.6</ele>
        <time>2023-10-31T11:07:27Z</time>
      </trkpt>
      <trkpt lat="42.81062" lon="-0.0458">
        <ele>2241.6</ele>
        <time>2023-10-31T11:07:28Z</time>
      </trkpt>
      <trkpt lat="42.81062" lon="-0.04581">
        <ele>2241.6</ele>
        <time>2023-10-31T11:07:29Z</time>
      </trkpt>
      <trkpt lat="42.81062" lon="-0.0458">
        <ele>2241.6</ele>
        <time>2023-10-31T11:07:30Z</time>
      </trkpt>
      <trkpt lat="42.81062" lon="-0.0458">
        <ele>2241.7</ele>
        <time>2023-10-31T11:07:31Z</time>
      </trkpt>
      <trkpt lat="42.81062" lon="-0.04581">
        <ele>2241.7</ele>
        <time>2023-10-31T11:07:32Z</time>
      </trkpt>
      <trkpt lat="42.81062" lon="-0.04581">
        <ele>2241.7</ele>
        <time>2023-10-31T11:07:33Z</time>
      </trkpt>
      <trkpt lat="42.81062" lon="-0.04581">
        <ele>2241.7</ele>
        <time>2023-10-31T11:07:34Z</time>
      </trkpt>
      <trkpt lat="42.81062" lon="-0.04581">
        <ele>2241.7</ele>
        <time>2023-10-31T11:07:35Z</time>
      </trkpt>
      <trkpt lat="42.81062" lon="-0.04581">
        <ele>2241.7</ele>
        <time>2023-10-31T11:07:36Z</time>
      </trkpt>
      <trkpt lat="42.81062" lon="-0.04581">
        <ele>2241.7</ele>
        <time>2023-10-31T11:07:37Z</time>
      </trkpt>
      <trkpt lat="42.81062" lon="-0.04582">
        <ele>2241.7</ele>
        <time>2023-10-31T11:07:38Z</time>
      </trkpt>
      <trkpt lat="42.81063" lon="-0.04582">
        <ele>2241.8</ele>
        <time>2023-10-31T11:07:39Z</time>
      </trkpt>
      <trkpt lat="42.81062" lon="-0.04583">
        <ele>2241.8</ele>
        <time>2023-10-31T11:07:40Z</time>
      </trkpt>
      <trkpt lat="42.81062" lon="-0.04583">
        <ele>2241.9</ele>
        <time>2023-10-31T11:07:41Z</time>
      </trkpt>
      <trkpt lat="42.81061" lon="-0.04583">
        <ele>2241.9</ele>
        <time>2023-10-31T11:07:42Z</time>
      </trkpt>
      <trkpt lat="42.81061" lon="-0.04583">
        <ele>2241.9</ele>
        <time>2023-10-31T11:07:43Z</time>
      </trkpt>
      <trkpt lat="42.81061" lon="-0.04583">
        <ele>2241.9</ele>
        <time>2023-10-31T11:07:44Z</time>
      </trkpt>
      <trkpt lat="42.81062" lon="-0.04583">
        <ele>2241.9</ele>
        <time>2023-10-31T11:07:45Z</time>
      </trkpt>
      <trkpt lat="42.81061" lon="-0.04584">
        <ele>2242</ele>
        <time>2023-10-31T11:07:46Z</time>
      </trkpt>
      <trkpt lat="42.8106" lon="-0.04584">
        <ele>2242</ele>
        <time>2023-10-31T11:07:47Z</time>
      </trkpt>
      <trkpt lat="42.8106" lon="-0.04584">
        <ele>2242</ele>
        <time>2023-10-31T11:07:48Z</time>
      </trkpt>
      <trkpt lat="42.8106" lon="-0.04585">
        <ele>2242.1</ele>
        <time>2023-10-31T11:07:49Z</time>
      </trkpt>
      <trkpt lat="42.8106" lon="-0.04586">
        <ele>2242.1</ele>
        <time>2023-10-31T11:07:50Z</time>
      </trkpt>
      <trkpt lat="42.81059" lon="-0.04586">
        <ele>2242.1</ele>
        <time>2023-10-31T11:07:51Z</time>
      </trkpt>
      <trkpt lat="42.81059" lon="-0.04586">
        <ele>2242.1</ele>
        <time>2023-10-31T11:07:52Z</time>
      </trkpt>
      <trkpt lat="42.81058" lon="-0.04586">
        <ele>2242.2</ele>
        <time>2023-10-31T11:07:53Z</time>
      </trkpt>
      <trkpt lat="42.81058" lon="-0.04586">
        <ele>2242.2</ele>
        <time>2023-10-31T11:07:54Z</time>
      </trkpt>
      <trkpt lat="42.81058" lon="-0.04587">
        <ele>2242.2</ele>
        <time>2023-10-31T11:07:55Z</time>
      </trkpt>
      <trkpt lat="42.81058" lon="-0.04588">
        <ele>2242.3</ele>
        <time>2023-10-31T11:07:56Z</time>
      </trkpt>
      <trkpt lat="42.81058" lon="-0.04588">
        <ele>2242.3</ele>
        <time>2023-10-31T11:07:57Z</time>
      </trkpt>
      <trkpt lat="42.81058" lon="-0.04589">
        <ele>2242.3</ele>
        <time>2023-10-31T11:07:58Z</time>
      </trkpt>
      <trkpt lat="42.81058" lon="-0.0459">
        <ele>2242.4</ele>
        <time>2023-10-31T11:07:59Z</time>
      </trkpt>
      <trkpt lat="42.81058" lon="-0.04591">
        <ele>2242.4</ele>
        <time>2023-10-31T11:08:00Z</time>
      </trkpt>
      <trkpt lat="42.81058" lon="-0.04591">
        <ele>2242.4</ele>
        <time>2023-10-31T11:08:01Z</time>
      </trkpt>
      <trkpt lat="42.81058" lon="-0.0459">
        <ele>2242.4</ele>
        <time>2023-10-31T11:08:02Z</time>
      </trkpt>
      <trkpt lat="42.81058" lon="-0.0459">
        <ele>2242.4</ele>
        <time>2023-10-31T11:08:03Z</time>
      </trkpt>
      <trkpt lat="42.81058" lon="-0.0459">
        <ele>2242.4</ele>
        <time>2023-10-31T11:08:04Z</time>
      </trkpt>
      <trkpt lat="42.81058" lon="-0.0459">
        <ele>2242.3</ele>
        <time>2023-10-31T11:08:05Z</time>
      </trkpt>
      <trkpt lat="42.81058" lon="-0.0459">
        <ele>2242.3</ele>
        <time>2023-10-31T11:08:06Z</time>
      </trkpt>
      <trkpt lat="42.81058" lon="-0.04589">
        <ele>2242.3</ele>
        <time>2023-10-31T11:08:07Z</time>
      </trkpt>
      <trkpt lat="42.81058" lon="-0.04589">
        <ele>2242.3</ele>
        <time>2023-10-31T11:08:08Z</time>
      </trkpt>
      <trkpt lat="42.81058" lon="-0.04589">
        <ele>2242.3</ele>
        <time>2023-10-31T11:08:09Z</time>
      </trkpt>
      <trkpt lat="42.81058" lon="-0.04589">
        <ele>2242.3</ele>
        <time>2023-10-31T11:08:10Z</time>
      </trkpt>
      <trkpt lat="42.81058" lon="-0.04588">
        <ele>2242.3</ele>
        <time>2023-10-31T11:08:11Z</time>
      </trkpt>
      <trkpt lat="42.81058" lon="-0.04588">
        <ele>2242.3</ele>
        <time>2023-10-31T11:08:12Z</time>
      </trkpt>
      <trkpt lat="42.81058" lon="-0.04588">
        <ele>2242.3</ele>
        <time>2023-10-31T11:08:13Z</time>
      </trkpt>
      <trkpt lat="42.81058" lon="-0.04588">
        <ele>2242.2</ele>
        <time>2023-10-31T11:08:14Z</time>
      </trkpt>
      <trkpt lat="42.81058" lon="-0.04588">
        <ele>2242.2</ele>
        <time>2023-10-31T11:08:15Z</time>
      </trkpt>
      <trkpt lat="42.81058" lon="-0.04587">
        <ele>2242.2</ele>
        <time>2023-10-31T11:08:16Z</time>
      </trkpt>
      <trkpt lat="42.81058" lon="-0.04587">
        <ele>2242.2</ele>
        <time>2023-10-31T11:08:17Z</time>
      </trkpt>
      <trkpt lat="42.81058" lon="-0.04587">
        <ele>2242.2</ele>
        <time>2023-10-31T11:08:18Z</time>
      </trkpt>
      <trkpt lat="42.81058" lon="-0.04587">
        <ele>2242.2</ele>
        <time>2023-10-31T11:08:19Z</time>
      </trkpt>
      <trkpt lat="42.81058" lon="-0.04586">
        <ele>2242.2</ele>
        <time>2023-10-31T11:08:20Z</time>
      </trkpt>
      <trkpt lat="42.81058" lon="-0.04586">
        <ele>2242.2</ele>
        <time>2023-10-31T11:08:21Z</time>
      </trkpt>
      <trkpt lat="42.81058" lon="-0.04586">
        <ele>2242.2</ele>
        <time>2023-10-31T11:08:22Z</time>
      </trkpt>
      <trkpt lat="42.81058" lon="-0.04586">
        <ele>2242.1</ele>
        <time>2023-10-31T11:08:23Z</time>
      </trkpt>
      <trkpt lat="42.81058" lon="-0.04586">
        <ele>2242.1</ele>
        <time>2023-10-31T11:08:24Z</time>
      </trkpt>
      <trkpt lat="42.81058" lon="-0.04585">
        <ele>2242.1</ele>
        <time>2023-10-31T11:08:25Z</time>
      </trkpt>
      <trkpt lat="42.81058" lon="-0.04585">
        <ele>2242.1</ele>
        <time>2023-10-31T11:08:26Z</time>
      </trkpt>
      <trkpt lat="42.81057" lon="-0.04585">
        <ele>2242.1</ele>
        <time>2023-10-31T11:08:27Z</time>
      </trkpt>
      <trkpt lat="42.81057" lon="-0.04585">
        <ele>2242.1</ele>
        <time>2023-10-31T11:08:28Z</time>
      </trkpt>
      <trkpt lat="42.81057" lon="-0.04584">
        <ele>2242.1</ele>
        <time>2023-10-31T11:08:29Z</time>
      </trkpt>
      <trkpt lat="42.81057" lon="-0.04584">
        <ele>2242.1</ele>
        <time>2023-10-31T11:08:30Z</time>
      </trkpt>
      <trkpt lat="42.81057" lon="-0.04584">
        <ele>2242</ele>
        <time>2023-10-31T11:08:31Z</time>
      </trkpt>
      <trkpt lat="42.81057" lon="-0.04584">
        <ele>2242</ele>
        <time>2023-10-31T11:08:32Z</time>
      </trkpt>
      <trkpt lat="42.81057" lon="-0.04584">
        <ele>2242</ele>
        <time>2023-10-31T11:08:33Z</time>
      </trkpt>
      <trkpt lat="42.81057" lon="-0.04583">
        <ele>2242</ele>
        <time>2023-10-31T11:08:34Z</time>
      </trkpt>
      <trkpt lat="42.81057" lon="-0.04583">
        <ele>2242</ele>
        <time>2023-10-31T11:08:35Z</time>
      </trkpt>
      <trkpt lat="42.81057" lon="-0.04583">
        <ele>2242</ele>
        <time>2023-10-31T11:08:36Z</time>
      </trkpt>
      <trkpt lat="42.81057" lon="-0.04583">
        <ele>2242</ele>
        <time>2023-10-31T11:08:37Z</time>
      </trkpt>
      <trkpt lat="42.81057" lon="-0.04582">
        <ele>2242</ele>
        <time>2023-10-31T11:08:38Z</time>
      </trkpt>
      <trkpt lat="42.81057" lon="-0.04582">
        <ele>2242</ele>
        <time>2023-10-31T11:08:39Z</time>
      </trkpt>
      <trkpt lat="42.81057" lon="-0.04582">
        <ele>2241.9</ele>
        <time>2023-10-31T11:08:40Z</time>
      </trkpt>
      <trkpt lat="42.81057" lon="-0.04582">
        <ele>2241.9</ele>
        <time>2023-10-31T11:08:41Z</time>
      </trkpt>
      <trkpt lat="42.81057" lon="-0.04581">
        <ele>2241.9</ele>
        <time>2023-10-31T11:08:42Z</time>
      </trkpt>
      <trkpt lat="42.81057" lon="-0.04581">
        <ele>2241.9</ele>
        <time>2023-10-31T11:08:43Z</time>
      </trkpt>
      <trkpt lat="42.81057" lon="-0.04581">
        <ele>2241.9</ele>
        <time>2023-10-31T11:08:44Z</time>
      </trkpt>
      <trkpt lat="42.81057" lon="-0.04581">
        <ele>2241.9</ele>
        <time>2023-10-31T11:08:45Z</time>
      </trkpt>
      <trkpt lat="42.81057" lon="-0.04581">
        <ele>2241.9</ele>
        <time>2023-10-31T11:08:46Z</time>
      </trkpt>
      <trkpt lat="42.81057" lon="-0.0458">
        <ele>2241.9</ele>
        <time>2023-10-31T11:08:47Z</time>
      </trkpt>
      <trkpt lat="42.81057" lon="-0.0458">
        <ele>2241.8</ele>
        <time>2023-10-31T11:08:48Z</time>
      </trkpt>
      <trkpt lat="42.81057" lon="-0.0458">
        <ele>2241.8</ele>
        <time>2023-10-31T11:08:49Z</time>
      </trkpt>
      <trkpt lat="42.81057" lon="-0.0458">
        <ele>2241.8</ele>
        <time>2023-10-31T11:08:50Z</time>
      </trkpt>
      <trkpt lat="42.81057" lon="-0.04579">
        <ele>2241.8</ele>
        <time>2023-10-31T11:08:51Z</time>
      </trkpt>
      <trkpt lat="42.81057" lon="-0.04579">
        <ele>2241.8</ele>
        <time>2023-10-31T11:08:52Z</time>
      </trkpt>
      <trkpt lat="42.81057" lon="-0.04579">
        <ele>2241.8</ele>
        <time>2023-10-31T11:08:53Z</time>
      </trkpt>
      <trkpt lat="42.81057" lon="-0.04579">
        <ele>2241.8</ele>
        <time>2023-10-31T11:08:54Z</time>
      </trkpt>
      <trkpt lat="42.81057" lon="-0.04579">
        <ele>2241.8</ele>
        <time>2023-10-31T11:08:55Z</time>
      </trkpt>
      <trkpt lat="42.81057" lon="-0.04578">
        <ele>2241.8</ele>
        <time>2023-10-31T11:08:56Z</time>
      </trkpt>
      <trkpt lat="42.81057" lon="-0.04578">
        <ele>2241.7</ele>
        <time>2023-10-31T11:08:57Z</time>
      </trkpt>
      <trkpt lat="42.81057" lon="-0.04578">
        <ele>2241.7</ele>
        <time>2023-10-31T11:08:58Z</time>
      </trkpt>
      <trkpt lat="42.81057" lon="-0.04578">
        <ele>2241.7</ele>
        <time>2023-10-31T11:08:59Z</time>
      </trkpt>
      <trkpt lat="42.81057" lon="-0.04577">
        <ele>2241.7</ele>
        <time>2023-10-31T11:09:00Z</time>
      </trkpt>
      <trkpt lat="42.81057" lon="-0.04577">
        <ele>2241.7</ele>
        <time>2023-10-31T11:09:01Z</time>
      </trkpt>
      <trkpt lat="42.81057" lon="-0.04577">
        <ele>2241.7</ele>
        <time>2023-10-31T11:09:02Z</time>
      </trkpt>
      <trkpt lat="42.81057" lon="-0.04577">
        <ele>2241.7</ele>
        <time>2023-10-31T11:09:03Z</time>
      </trkpt>
      <trkpt lat="42.81057" lon="-0.04577">
        <ele>2241.7</ele>
        <time>2023-10-31T11:09:04Z</time>
      </trkpt>
      <trkpt lat="42.81057" lon="-0.04576">
        <ele>2241.6</ele>
        <time>2023-10-31T11:09:05Z</time>
      </trkpt>
      <trkpt lat="42.81057" lon="-0.04576">
        <ele>2241.6</ele>
        <time>2023-10-31T11:09:06Z</time>
      </trkpt>
      <trkpt lat="42.81057" lon="-0.04576">
        <ele>2241.6</ele>
        <time>2023-10-31T11:09:07Z</time>
      </trkpt>
      <trkpt lat="42.81057" lon="-0.04576">
        <ele>2241.6</ele>
        <time>2023-10-31T11:09:08Z</time>
      </trkpt>
      <trkpt lat="42.81057" lon="-0.04575">
        <ele>2241.6</ele>
        <time>2023-10-31T11:09:09Z</time>
      </trkpt>
      <trkpt lat="42.81057" lon="-0.04575">
        <ele>2241.6</ele>
        <time>2023-10-31T11:09:10Z</time>
      </trkpt>
      <trkpt lat="42.81057" lon="-0.04575">
        <ele>2241.6</ele>
        <time>2023-10-31T11:09:11Z</time>
      </trkpt>
      <trkpt lat="42.81057" lon="-0.04575">
        <ele>2241.6</ele>
        <time>2023-10-31T11:09:12Z</time>
      </trkpt>
      <trkpt lat="42.81057" lon="-0.04575">
        <ele>2241.6</ele>
        <time>2023-10-31T11:09:13Z</time>
      </trkpt>
      <trkpt lat="42.81057" lon="-0.04574">
        <ele>2241.5</ele>
        <time>2023-10-31T11:09:14Z</time>
      </trkpt>
      <trkpt lat="42.81057" lon="-0.04574">
        <ele>2241.5</ele>
        <time>2023-10-31T11:09:15Z</time>
      </trkpt>
      <trkpt lat="42.81057" lon="-0.04574">
        <ele>2241.5</ele>
        <time>2023-10-31T11:09:16Z</time>
      </trkpt>
      <trkpt lat="42.81057" lon="-0.04574">
        <ele>2241.5</ele>
        <time>2023-10-31T11:09:17Z</time>
      </trkpt>
      <trkpt lat="42.81057" lon="-0.04573">
        <ele>2241.5</ele>
        <time>2023-10-31T11:09:18Z</time>
      </trkpt>
      <trkpt lat="42.81057" lon="-0.04573">
        <ele>2241.5</ele>
        <time>2023-10-31T11:09:19Z</time>
      </trkpt>
      <trkpt lat="42.81057" lon="-0.04573">
        <ele>2241.5</ele>
        <time>2023-10-31T11:09:20Z</time>
      </trkpt>
      <trkpt lat="42.81057" lon="-0.04573">
        <ele>2241.5</ele>
        <time>2023-10-31T11:09:21Z</time>
      </trkpt>
      <trkpt lat="42.81056" lon="-0.04573">
        <ele>2241.4</ele>
        <time>2023-10-31T11:09:22Z</time>
      </trkpt>
      <trkpt lat="42.81056" lon="-0.04572">
        <ele>2241.4</ele>
        <time>2023-10-31T11:09:23Z</time>
      </trkpt>
      <trkpt lat="42.81056" lon="-0.04572">
        <ele>2241.4</ele>
        <time>2023-10-31T11:09:24Z</time>
      </trkpt>
      <trkpt lat="42.81056" lon="-0.04572">
        <ele>2241.4</ele>
        <time>2023-10-31T11:09:25Z</time>
      </trkpt>
      <trkpt lat="42.81056" lon="-0.04572">
        <ele>2241.4</ele>
        <time>2023-10-31T11:09:26Z</time>
      </trkpt>
      <trkpt lat="42.81056" lon="-0.04571">
        <ele>2241.4</ele>
        <time>2023-10-31T11:09:27Z</time>
      </trkpt>
      <trkpt lat="42.81056" lon="-0.04571">
        <ele>2241.4</ele>
        <time>2023-10-31T11:09:28Z</time>
      </trkpt>
      <trkpt lat="42.81056" lon="-0.04571">
        <ele>2241.4</ele>
        <time>2023-10-31T11:09:29Z</time>
      </trkpt>
      <trkpt lat="42.81056" lon="-0.04571">
        <ele>2241.4</ele>
        <time>2023-10-31T11:09:30Z</time>
      </trkpt>
      <trkpt lat="42.81056" lon="-0.04571">
        <ele>2241.3</ele>
        <time>2023-10-31T11:09:31Z</time>
      </trkpt>
      <trkpt lat="42.81056" lon="-0.0457">
        <ele>2241.3</ele>
        <time>2023-10-31T11:09:32Z</time>
      </trkpt>
      <trkpt lat="42.81056" lon="-0.0457">
        <ele>2241.3</ele>
        <time>2023-10-31T11:09:33Z</time>
      </trkpt>
      <trkpt lat="42.81056" lon="-0.0457">
        <ele>2241.3</ele>
        <time>2023-10-31T11:09:34Z</time>
      </trkpt>
      <trkpt lat="42.81056" lon="-0.0457">
        <ele>2241.3</ele>
        <time>2023-10-31T11:09:35Z</time>
      </trkpt>
      <trkpt lat="42.81056" lon="-0.04569">
        <ele>2241.3</ele>
        <time>2023-10-31T11:09:36Z</time>
      </trkpt>
      <trkpt lat="42.81056" lon="-0.04569">
        <ele>2241.3</ele>
        <time>2023-10-31T11:09:37Z</time>
      </trkpt>
      <trkpt lat="42.81056" lon="-0.04569">
        <ele>2241.3</ele>
        <time>2023-10-31T11:09:38Z</time>
      </trkpt>
      <trkpt lat="42.81056" lon="-0.04569">
        <ele>2241.2</ele>
        <time>2023-10-31T11:09:39Z</time>
      </trkpt>
      <trkpt lat="42.81056" lon="-0.04569">
        <ele>2241.2</ele>
        <time>2023-10-31T11:09:40Z</time>
      </trkpt>
      <trkpt lat="42.81056" lon="-0.04568">
        <ele>2241.2</ele>
        <time>2023-10-31T11:09:41Z</time>
      </trkpt>
      <trkpt lat="42.81056" lon="-0.04568">
        <ele>2241.2</ele>
        <time>2023-10-31T11:09:42Z</time>
      </trkpt>
      <trkpt lat="42.81056" lon="-0.04568">
        <ele>2241.2</ele>
        <time>2023-10-31T11:09:43Z</time>
      </trkpt>
      <trkpt lat="42.81056" lon="-0.04568">
        <ele>2241.2</ele>
        <time>2023-10-31T11:09:44Z</time>
      </trkpt>
      <trkpt lat="42.81056" lon="-0.04567">
        <ele>2241.2</ele>
        <time>2023-10-31T11:09:46Z</time>
      </trkpt>
      <trkpt lat="42.81056" lon="-0.04567">
        <ele>2241.2</ele>
        <time>2023-10-31T11:09:47Z</time>
      </trkpt>
      <trkpt lat="42.81056" lon="-0.04567">
        <ele>2241.2</ele>
        <time>2023-10-31T11:09:48Z</time>
      </trkpt>
      <trkpt lat="42.81056" lon="-0.04567">
        <ele>2241.1</ele>
        <time>2023-10-31T11:09:49Z</time>
      </trkpt>
      <trkpt lat="42.81056" lon="-0.04566">
        <ele>2241.1</ele>
        <time>2023-10-31T11:09:50Z</time>
      </trkpt>
      <trkpt lat="42.81056" lon="-0.04566">
        <ele>2241.1</ele>
        <time>2023-10-31T11:09:51Z</time>
      </trkpt>
      <trkpt lat="42.81056" lon="-0.04566">
        <ele>2241.1</ele>
        <time>2023-10-31T11:09:52Z</time>
      </trkpt>
      <trkpt lat="42.81056" lon="-0.04566">
        <ele>2241.1</ele>
        <time>2023-10-31T11:09:53Z</time>
      </trkpt>
      <trkpt lat="42.81056" lon="-0.04566">
        <ele>2241.1</ele>
        <time>2023-10-31T11:09:54Z</time>
      </trkpt>
      <trkpt lat="42.81056" lon="-0.04565">
        <ele>2241.1</ele>
        <time>2023-10-31T11:09:55Z</time>
      </trkpt>
      <trkpt lat="42.81056" lon="-0.04565">
        <ele>2241.1</ele>
        <time>2023-10-31T11:09:56Z</time>
      </trkpt>
      <trkpt lat="42.81056" lon="-0.04565">
        <ele>2241</ele>
        <time>2023-10-31T11:09:57Z</time>
      </trkpt>
      <trkpt lat="42.81056" lon="-0.04565">
        <ele>2241</ele>
        <time>2023-10-31T11:09:58Z</time>
      </trkpt>
      <trkpt lat="42.81056" lon="-0.04565">
        <ele>2241</ele>
        <time>2023-10-31T11:09:59Z</time>
      </trkpt>
      <trkpt lat="42.81056" lon="-0.04564">
        <ele>2241</ele>
        <time>2023-10-31T11:10:00Z</time>
      </trkpt>
      <trkpt lat="42.81055" lon="-0.04564">
        <ele>2241</ele>
        <time>2023-10-31T11:10:01Z</time>
      </trkpt>
      <trkpt lat="42.81055" lon="-0.04564">
        <ele>2241</ele>
        <time>2023-10-31T11:10:02Z</time>
      </trkpt>
      <trkpt lat="42.81055" lon="-0.04563">
        <ele>2241</ele>
        <time>2023-10-31T11:10:03Z</time>
      </trkpt>
      <trkpt lat="42.81055" lon="-0.04563">
        <ele>2240.9</ele>
        <time>2023-10-31T11:10:04Z</time>
      </trkpt>
      <trkpt lat="42.81055" lon="-0.04563">
        <ele>2240.9</ele>
        <time>2023-10-31T11:10:05Z</time>
      </trkpt>
      <trkpt lat="42.81055" lon="-0.04563">
        <ele>2240.9</ele>
        <time>2023-10-31T11:10:06Z</time>
      </trkpt>
      <trkpt lat="42.81055" lon="-0.04562">
        <ele>2240.9</ele>
        <time>2023-10-31T11:10:07Z</time>
      </trkpt>
      <trkpt lat="42.81055" lon="-0.04562">
        <ele>2240.9</ele>
        <time>2023-10-31T11:10:08Z</time>
      </trkpt>
      <trkpt lat="42.81055" lon="-0.04562">
        <ele>2240.9</ele>
        <time>2023-10-31T11:10:09Z</time>
      </trkpt>
      <trkpt lat="42.81055" lon="-0.04562">
        <ele>2240.9</ele>
        <time>2023-10-31T11:10:10Z</time>
      </trkpt>
      <trkpt lat="42.81055" lon="-0.04561">
        <ele>2240.8</ele>
        <time>2023-10-31T11:10:11Z</time>
      </trkpt>
      <trkpt lat="42.81055" lon="-0.04561">
        <ele>2240.8</ele>
        <time>2023-10-31T11:10:12Z</time>
      </trkpt>
      <trkpt lat="42.81055" lon="-0.04561">
        <ele>2240.8</ele>
        <time>2023-10-31T11:10:13Z</time>
      </trkpt>
      <trkpt lat="42.81054" lon="-0.04561">
        <ele>2240.8</ele>
        <time>2023-10-31T11:10:14Z</time>
      </trkpt>
      <trkpt lat="42.81054" lon="-0.0456">
        <ele>2240.8</ele>
        <time>2023-10-31T11:10:15Z</time>
      </trkpt>
      <trkpt lat="42.81054" lon="-0.0456">
        <ele>2240.8</ele>
        <time>2023-10-31T11:10:16Z</time>
      </trkpt>
      <trkpt lat="42.81054" lon="-0.0456">
        <ele>2240.8</ele>
        <time>2023-10-31T11:10:17Z</time>
      </trkpt>
      <trkpt lat="42.81054" lon="-0.0456">
        <ele>2240.7</ele>
        <time>2023-10-31T11:10:18Z</time>
      </trkpt>
      <trkpt lat="42.81054" lon="-0.04559">
        <ele>2240.7</ele>
        <time>2023-10-31T11:10:19Z</time>
      </trkpt>
      <trkpt lat="42.81054" lon="-0.04559">
        <ele>2240.7</ele>
        <time>2023-10-31T11:10:20Z</time>
      </trkpt>
      <trkpt lat="42.81054" lon="-0.04559">
        <ele>2240.7</ele>
        <time>2023-10-31T11:10:21Z</time>
      </trkpt>
      <trkpt lat="42.81055" lon="-0.0456">
        <ele>2240.6</ele>
        <time>2023-10-31T11:10:22Z</time>
      </trkpt>
      <trkpt lat="42.81055" lon="-0.0456">
        <ele>2240.5</ele>
        <time>2023-10-31T11:10:23Z</time>
      </trkpt>
      <trkpt lat="42.81055" lon="-0.04559">
        <ele>2240.5</ele>
        <time>2023-10-31T11:10:24Z</time>
      </trkpt>
      <trkpt lat="42.81055" lon="-0.04559">
        <ele>2240.5</ele>
        <time>2023-10-31T11:10:25Z</time>
      </trkpt>
      <trkpt lat="42.81055" lon="-0.04559">
        <ele>2240.5</ele>
        <time>2023-10-31T11:10:26Z</time>
      </trkpt>
      <trkpt lat="42.81054" lon="-0.04559">
        <ele>2240.4</ele>
        <time>2023-10-31T11:10:27Z</time>
      </trkpt>
      <trkpt lat="42.81054" lon="-0.04558">
        <ele>2240.4</ele>
        <time>2023-10-31T11:10:28Z</time>
      </trkpt>
      <trkpt lat="42.81054" lon="-0.04558">
        <ele>2240.4</ele>
        <time>2023-10-31T11:10:29Z</time>
      </trkpt>
      <trkpt lat="42.81054" lon="-0.04557">
        <ele>2240.3</ele>
        <time>2023-10-31T11:10:30Z</time>
      </trkpt>
      <trkpt lat="42.81054" lon="-0.04557">
        <ele>2240.3</ele>
        <time>2023-10-31T11:10:31Z</time>
      </trkpt>
      <trkpt lat="42.81054" lon="-0.04557">
        <ele>2240.3</ele>
        <time>2023-10-31T11:10:32Z</time>
      </trkpt>
      <trkpt lat="42.81054" lon="-0.04557">
        <ele>2240.3</ele>
        <time>2023-10-31T11:10:33Z</time>
      </trkpt>
      <trkpt lat="42.81054" lon="-0.04556">
        <ele>2240.2</ele>
        <time>2023-10-31T11:10:34Z</time>
      </trkpt>
      <trkpt lat="42.81054" lon="-0.04556">
        <ele>2240.2</ele>
        <time>2023-10-31T11:10:35Z</time>
      </trkpt>
      <trkpt lat="42.81054" lon="-0.04556">
        <ele>2240.2</ele>
        <time>2023-10-31T11:10:36Z</time>
      </trkpt>
      <trkpt lat="42.81054" lon="-0.04555">
        <ele>2240.2</ele>
        <time>2023-10-31T11:10:37Z</time>
      </trkpt>
      <trkpt lat="42.81054" lon="-0.04555">
        <ele>2240.1</ele>
        <time>2023-10-31T11:10:38Z</time>
      </trkpt>
      <trkpt lat="42.81054" lon="-0.04555">
        <ele>2240.1</ele>
        <time>2023-10-31T11:10:39Z</time>
      </trkpt>
      <trkpt lat="42.81054" lon="-0.04555">
        <ele>2240.1</ele>
        <time>2023-10-31T11:10:40Z</time>
      </trkpt>
      <trkpt lat="42.81054" lon="-0.04555">
        <ele>2240.1</ele>
        <time>2023-10-31T11:10:41Z</time>
      </trkpt>
      <trkpt lat="42.81054" lon="-0.04554">
        <ele>2240.1</ele>
        <time>2023-10-31T11:10:42Z</time>
      </trkpt>
      <trkpt lat="42.81054" lon="-0.04554">
        <ele>2240.1</ele>
        <time>2023-10-31T11:10:43Z</time>
      </trkpt>
      <trkpt lat="42.81053" lon="-0.04554">
        <ele>2240</ele>
        <time>2023-10-31T11:10:44Z</time>
      </trkpt>
      <trkpt lat="42.81053" lon="-0.04554">
        <ele>2240</ele>
        <time>2023-10-31T11:10:45Z</time>
      </trkpt>
      <trkpt lat="42.81052" lon="-0.04553">
        <ele>2239.9</ele>
        <time>2023-10-31T11:10:46Z</time>
      </trkpt>
      <trkpt lat="42.81053" lon="-0.04554">
        <ele>2239.9</ele>
        <time>2023-10-31T11:10:47Z</time>
      </trkpt>
      <trkpt lat="42.81052" lon="-0.04554">
        <ele>2239.8</ele>
        <time>2023-10-31T11:10:48Z</time>
      </trkpt>
      <trkpt lat="42.81052" lon="-0.04553">
        <ele>2239.8</ele>
        <time>2023-10-31T11:10:49Z</time>
      </trkpt>
      <trkpt lat="42.81051" lon="-0.04552">
        <ele>2239.8</ele>
        <time>2023-10-31T11:10:50Z</time>
      </trkpt>
      <trkpt lat="42.81051" lon="-0.04551">
        <ele>2239.7</ele>
        <time>2023-10-31T11:10:51Z</time>
      </trkpt>
      <trkpt lat="42.81051" lon="-0.0455">
        <ele>2239.6</ele>
        <time>2023-10-31T11:10:52Z</time>
      </trkpt>
      <trkpt lat="42.81051" lon="-0.04549">
        <ele>2239.6</ele>
        <time>2023-10-31T11:10:53Z</time>
      </trkpt>
      <trkpt lat="42.81051" lon="-0.04549">
        <ele>2239.6</ele>
        <time>2023-10-31T11:10:54Z</time>
      </trkpt>
      <trkpt lat="42.8105" lon="-0.04548">
        <ele>2239.5</ele>
        <time>2023-10-31T11:10:55Z</time>
      </trkpt>
      <trkpt lat="42.8105" lon="-0.04547">
        <ele>2239.5</ele>
        <time>2023-10-31T11:10:56Z</time>
      </trkpt>
      <trkpt lat="42.81049" lon="-0.04547">
        <ele>2239.4</ele>
        <time>2023-10-31T11:10:57Z</time>
      </trkpt>
      <trkpt lat="42.81049" lon="-0.04546">
        <ele>2239.4</ele>
        <time>2023-10-31T11:10:58Z</time>
      </trkpt>
      <trkpt lat="42.8105" lon="-0.04546">
        <ele>2239.4</ele>
        <time>2023-10-31T11:10:59Z</time>
      </trkpt>
      <trkpt lat="42.8105" lon="-0.04545">
        <ele>2239.3</ele>
        <time>2023-10-31T11:11:00Z</time>
      </trkpt>
      <trkpt lat="42.81049" lon="-0.04544">
        <ele>2239.3</ele>
        <time>2023-10-31T11:11:01Z</time>
      </trkpt>
      <trkpt lat="42.81049" lon="-0.04545">
        <ele>2239.2</ele>
        <time>2023-10-31T11:11:02Z</time>
      </trkpt>
      <trkpt lat="42.81049" lon="-0.04544">
        <ele>2239.2</ele>
        <time>2023-10-31T11:11:03Z</time>
      </trkpt>
      <trkpt lat="42.81049" lon="-0.04544">
        <ele>2239.2</ele>
        <time>2023-10-31T11:11:04Z</time>
      </trkpt>
      <trkpt lat="42.81049" lon="-0.04542">
        <ele>2239.1</ele>
        <time>2023-10-31T11:11:05Z</time>
      </trkpt>
      <trkpt lat="42.81049" lon="-0.04541">
        <ele>2239</ele>
        <time>2023-10-31T11:11:06Z</time>
      </trkpt>
      <trkpt lat="42.81049" lon="-0.0454">
        <ele>2239</ele>
        <time>2023-10-31T11:11:07Z</time>
      </trkpt>
      <trkpt lat="42.81049" lon="-0.04539">
        <ele>2238.9</ele>
        <time>2023-10-31T11:11:08Z</time>
      </trkpt>
      <trkpt lat="42.81048" lon="-0.04538">
        <ele>2238.9</ele>
        <time>2023-10-31T11:11:09Z</time>
      </trkpt>
      <trkpt lat="42.81047" lon="-0.04538">
        <ele>2238.8</ele>
        <time>2023-10-31T11:11:10Z</time>
      </trkpt>
      <trkpt lat="42.81047" lon="-0.04537">
        <ele>2238.8</ele>
        <time>2023-10-31T11:11:11Z</time>
      </trkpt>
      <trkpt lat="42.81046" lon="-0.04537">
        <ele>2238.7</ele>
        <time>2023-10-31T11:11:12Z</time>
      </trkpt>
      <trkpt lat="42.81045" lon="-0.04537">
        <ele>2238.7</ele>
        <time>2023-10-31T11:11:13Z</time>
      </trkpt>
      <trkpt lat="42.81045" lon="-0.04536">
        <ele>2238.6</ele>
        <time>2023-10-31T11:11:14Z</time>
      </trkpt>
      <trkpt lat="42.81045" lon="-0.04535">
        <ele>2238.6</ele>
        <time>2023-10-31T11:11:15Z</time>
      </trkpt>
      <trkpt lat="42.81045" lon="-0.04533">
        <ele>2238.5</ele>
        <time>2023-10-31T11:11:16Z</time>
      </trkpt>
      <trkpt lat="42.81044" lon="-0.04532">
        <ele>2238.4</ele>
        <time>2023-10-31T11:11:17Z</time>
      </trkpt>
      <trkpt lat="42.81044" lon="-0.04532">
        <ele>2238.4</ele>
        <time>2023-10-31T11:11:18Z</time>
      </trkpt>
      <trkpt lat="42.81044" lon="-0.04532">
        <ele>2238.4</ele>
        <time>2023-10-31T11:11:19Z</time>
      </trkpt>
      <trkpt lat="42.81043" lon="-0.04531">
        <ele>2238.3</ele>
        <time>2023-10-31T11:11:20Z</time>
      </trkpt>
      <trkpt lat="42.81043" lon="-0.04531">
        <ele>2238.3</ele>
        <time>2023-10-31T11:11:21Z</time>
      </trkpt>
      <trkpt lat="42.81043" lon="-0.04531">
        <ele>2238.3</ele>
        <time>2023-10-31T11:11:22Z</time>
      </trkpt>
      <trkpt lat="42.81043" lon="-0.04531">
        <ele>2238.3</ele>
        <time>2023-10-31T11:11:23Z</time>
      </trkpt>
      <trkpt lat="42.81043" lon="-0.04531">
        <ele>2238.3</ele>
        <time>2023-10-31T11:11:24Z</time>
      </trkpt>
      <trkpt lat="42.81043" lon="-0.04531">
        <ele>2238.3</ele>
        <time>2023-10-31T11:11:25Z</time>
      </trkpt>
      <trkpt lat="42.81043" lon="-0.04531">
        <ele>2238.3</ele>
        <time>2023-10-31T11:11:26Z</time>
      </trkpt>
      <trkpt lat="42.81043" lon="-0.04531">
        <ele>2238.3</ele>
        <time>2023-10-31T11:11:27Z</time>
      </trkpt>
      <trkpt lat="42.81043" lon="-0.04531">
        <ele>2238.2</ele>
        <time>2023-10-31T11:11:28Z</time>
      </trkpt>
      <trkpt lat="42.81043" lon="-0.04531">
        <ele>2238.2</ele>
        <time>2023-10-31T11:11:29Z</time>
      </trkpt>
      <trkpt lat="42.81042" lon="-0.04531">
        <ele>2238.2</ele>
        <time>2023-10-31T11:11:30Z</time>
      </trkpt>
      <trkpt lat="42.81042" lon="-0.0453">
        <ele>2238.1</ele>
        <time>2023-10-31T11:11:31Z</time>
      </trkpt>
      <trkpt lat="42.81041" lon="-0.0453">
        <ele>2238.1</ele>
        <time>2023-10-31T11:11:32Z</time>
      </trkpt>
      <trkpt lat="42.81041" lon="-0.04529">
        <ele>2238</ele>
        <time>2023-10-31T11:11:33Z</time>
      </trkpt>
      <trkpt lat="42.81041" lon="-0.04529">
        <ele>2238</ele>
        <time>2023-10-31T11:11:34Z</time>
      </trkpt>
      <trkpt lat="42.81041" lon="-0.04528">
        <ele>2237.9</ele>
        <time>2023-10-31T11:11:35Z</time>
      </trkpt>
      <trkpt lat="42.81041" lon="-0.04527">
        <ele>2237.9</ele>
        <time>2023-10-31T11:11:36Z</time>
      </trkpt>
      <trkpt lat="42.81042" lon="-0.04527">
        <ele>2237.9</ele>
        <time>2023-10-31T11:11:37Z</time>
      </trkpt>
      <trkpt lat="42.81042" lon="-0.04526">
        <ele>2237.8</ele>
        <time>2023-10-31T11:11:38Z</time>
      </trkpt>
      <trkpt lat="42.81042" lon="-0.04526">
        <ele>2237.8</ele>
        <time>2023-10-31T11:11:39Z</time>
      </trkpt>
      <trkpt lat="42.81042" lon="-0.04525">
        <ele>2237.7</ele>
        <time>2023-10-31T11:11:40Z</time>
      </trkpt>
      <trkpt lat="42.81042" lon="-0.04525">
        <ele>2237.7</ele>
        <time>2023-10-31T11:11:41Z</time>
      </trkpt>
      <trkpt lat="42.81042" lon="-0.04524">
        <ele>2237.7</ele>
        <time>2023-10-31T11:11:42Z</time>
      </trkpt>
      <trkpt lat="42.81042" lon="-0.04523">
        <ele>2237.6</ele>
        <time>2023-10-31T11:11:43Z</time>
      </trkpt>
      <trkpt lat="42.81041" lon="-0.04523">
        <ele>2237.6</ele>
        <time>2023-10-31T11:11:44Z</time>
      </trkpt>
      <trkpt lat="42.8104" lon="-0.04522">
        <ele>2237.5</ele>
        <time>2023-10-31T11:11:45Z</time>
      </trkpt>
      <trkpt lat="42.8104" lon="-0.04521">
        <ele>2237.5</ele>
        <time>2023-10-31T11:11:46Z</time>
      </trkpt>
      <trkpt lat="42.81039" lon="-0.04521">
        <ele>2237.4</ele>
        <time>2023-10-31T11:11:47Z</time>
      </trkpt>
      <trkpt lat="42.81038" lon="-0.0452">
        <ele>2237.4</ele>
        <time>2023-10-31T11:11:48Z</time>
      </trkpt>
      <trkpt lat="42.81038" lon="-0.04519">
        <ele>2237.3</ele>
        <time>2023-10-31T11:11:49Z</time>
      </trkpt>
      <trkpt lat="42.81038" lon="-0.04518">
        <ele>2237.2</ele>
        <time>2023-10-31T11:11:50Z</time>
      </trkpt>
      <trkpt lat="42.81038" lon="-0.04517">
        <ele>2237.2</ele>
        <time>2023-10-31T11:11:52Z</time>
      </trkpt>
      <trkpt lat="42.81037" lon="-0.04516">
        <ele>2237.1</ele>
        <time>2023-10-31T11:11:53Z</time>
      </trkpt>
      <trkpt lat="42.81037" lon="-0.04515">
        <ele>2237.1</ele>
        <time>2023-10-31T11:11:54Z</time>
      </trkpt>
      <trkpt lat="42.81037" lon="-0.04514">
        <ele>2237</ele>
        <time>2023-10-31T11:11:55Z</time>
      </trkpt>
      <trkpt lat="42.81038" lon="-0.04515">
        <ele>2237</ele>
        <time>2023-10-31T11:11:56Z</time>
      </trkpt>
      <trkpt lat="42.81038" lon="-0.04515">
        <ele>2236.9</ele>
        <time>2023-10-31T11:11:57Z</time>
      </trkpt>
      <trkpt lat="42.81038" lon="-0.04515">
        <ele>2236.9</ele>
        <time>2023-10-31T11:11:58Z</time>
      </trkpt>
      <trkpt lat="42.81038" lon="-0.04514">
        <ele>2236.9</ele>
        <time>2023-10-31T11:11:59Z</time>
      </trkpt>
      <trkpt lat="42.81038" lon="-0.04513">
        <ele>2236.8</ele>
        <time>2023-10-31T11:12:00Z</time>
      </trkpt>
      <trkpt lat="42.81038" lon="-0.04513">
        <ele>2236.8</ele>
        <time>2023-10-31T11:12:01Z</time>
      </trkpt>
      <trkpt lat="42.81038" lon="-0.04511">
        <ele>2236.7</ele>
        <time>2023-10-31T11:12:02Z</time>
      </trkpt>
      <trkpt lat="42.81038" lon="-0.04511">
        <ele>2236.7</ele>
        <time>2023-10-31T11:12:03Z</time>
      </trkpt>
      <trkpt lat="42.81038" lon="-0.0451">
        <ele>2236.6</ele>
        <time>2023-10-31T11:12:04Z</time>
      </trkpt>
      <trkpt lat="42.81038" lon="-0.0451">
        <ele>2236.6</ele>
        <time>2023-10-31T11:12:05Z</time>
      </trkpt>
      <trkpt lat="42.81037" lon="-0.0451">
        <ele>2236.6</ele>
        <time>2023-10-31T11:12:06Z</time>
      </trkpt>
      <trkpt lat="42.81037" lon="-0.0451">
        <ele>2236.6</ele>
        <time>2023-10-31T11:12:07Z</time>
      </trkpt>
      <trkpt lat="42.81037" lon="-0.0451">
        <ele>2236.5</ele>
        <time>2023-10-31T11:12:08Z</time>
      </trkpt>
      <trkpt lat="42.81037" lon="-0.0451">
        <ele>2236.5</ele>
        <time>2023-10-31T11:12:09Z</time>
      </trkpt>
      <trkpt lat="42.81037" lon="-0.0451">
        <ele>2236.5</ele>
        <time>2023-10-31T11:12:10Z</time>
      </trkpt>
      <trkpt lat="42.81037" lon="-0.0451">
        <ele>2236.5</ele>
        <time>2023-10-31T11:12:11Z</time>
      </trkpt>
      <trkpt lat="42.81037" lon="-0.0451">
        <ele>2236.5</ele>
        <time>2023-10-31T11:12:12Z</time>
      </trkpt>
      <trkpt lat="42.81037" lon="-0.0451">
        <ele>2236.5</ele>
        <time>2023-10-31T11:12:13Z</time>
      </trkpt>
      <trkpt lat="42.81037" lon="-0.0451">
        <ele>2236.4</ele>
        <time>2023-10-31T11:12:14Z</time>
      </trkpt>
      <trkpt lat="42.81036" lon="-0.0451">
        <ele>2236.4</ele>
        <time>2023-10-31T11:12:15Z</time>
      </trkpt>
      <trkpt lat="42.81037" lon="-0.0451">
        <ele>2236.4</ele>
        <time>2023-10-31T11:12:16Z</time>
      </trkpt>
      <trkpt lat="42.81036" lon="-0.0451">
        <ele>2236.4</ele>
        <time>2023-10-31T11:12:17Z</time>
      </trkpt>
      <trkpt lat="42.81036" lon="-0.0451">
        <ele>2236.4</ele>
        <time>2023-10-31T11:12:18Z</time>
      </trkpt>
      <trkpt lat="42.81037" lon="-0.0451">
        <ele>2236.3</ele>
        <time>2023-10-31T11:12:19Z</time>
      </trkpt>
      <trkpt lat="42.81037" lon="-0.0451">
        <ele>2236.3</ele>
        <time>2023-10-31T11:12:20Z</time>
      </trkpt>
      <trkpt lat="42.81038" lon="-0.0451">
        <ele>2236.2</ele>
        <time>2023-10-31T11:12:21Z</time>
      </trkpt>
      <trkpt lat="42.81038" lon="-0.0451">
        <ele>2236.2</ele>
        <time>2023-10-31T11:12:22Z</time>
      </trkpt>
      <trkpt lat="42.81038" lon="-0.04509">
        <ele>2236.2</ele>
        <time>2023-10-31T11:12:23Z</time>
      </trkpt>
      <trkpt lat="42.81038" lon="-0.04509">
        <ele>2236.2</ele>
        <time>2023-10-31T11:12:24Z</time>
      </trkpt>
      <trkpt lat="42.81038" lon="-0.04509">
        <ele>2236.2</ele>
        <time>2023-10-31T11:12:25Z</time>
      </trkpt>
      <trkpt lat="42.81038" lon="-0.04508">
        <ele>2236.2</ele>
        <time>2023-10-31T11:12:26Z</time>
      </trkpt>
      <trkpt lat="42.81038" lon="-0.04509">
        <ele>2236.1</ele>
        <time>2023-10-31T11:12:27Z</time>
      </trkpt>
      <trkpt lat="42.81038" lon="-0.04509">
        <ele>2236.1</ele>
        <time>2023-10-31T11:12:28Z</time>
      </trkpt>
      <trkpt lat="42.81038" lon="-0.04508">
        <ele>2236.1</ele>
        <time>2023-10-31T11:12:29Z</time>
      </trkpt>
      <trkpt lat="42.81038" lon="-0.04508">
        <ele>2236.1</ele>
        <time>2023-10-31T11:12:30Z</time>
      </trkpt>
      <trkpt lat="42.81038" lon="-0.04509">
        <ele>2236</ele>
        <time>2023-10-31T11:12:31Z</time>
      </trkpt>
      <trkpt lat="42.81039" lon="-0.04509">
        <ele>2236</ele>
        <time>2023-10-31T11:12:32Z</time>
      </trkpt>
      <trkpt lat="42.81039" lon="-0.0451">
        <ele>2236</ele>
        <time>2023-10-31T11:12:33Z</time>
      </trkpt>
      <trkpt lat="42.81039" lon="-0.0451">
        <ele>2235.9</ele>
        <time>2023-10-31T11:12:34Z</time>
      </trkpt>
      <trkpt lat="42.8104" lon="-0.0451">
        <ele>2235.9</ele>
        <time>2023-10-31T11:12:35Z</time>
      </trkpt>
      <trkpt lat="42.8104" lon="-0.0451">
        <ele>2235.9</ele>
        <time>2023-10-31T11:12:36Z</time>
      </trkpt>
      <trkpt lat="42.8104" lon="-0.0451">
        <ele>2235.9</ele>
        <time>2023-10-31T11:12:37Z</time>
      </trkpt>
      <trkpt lat="42.8104" lon="-0.0451">
        <ele>2235.9</ele>
        <time>2023-10-31T11:12:38Z</time>
      </trkpt>
      <trkpt lat="42.8104" lon="-0.0451">
        <ele>2235.9</ele>
        <time>2023-10-31T11:12:39Z</time>
      </trkpt>
      <trkpt lat="42.8104" lon="-0.04511">
        <ele>2235.8</ele>
        <time>2023-10-31T11:12:40Z</time>
      </trkpt>
      <trkpt lat="42.81041" lon="-0.0451">
        <ele>2235.8</ele>
        <time>2023-10-31T11:12:41Z</time>
      </trkpt>
      <trkpt lat="42.81041" lon="-0.0451">
        <ele>2235.8</ele>
        <time>2023-10-31T11:12:42Z</time>
      </trkpt>
      <trkpt lat="42.81041" lon="-0.04509">
        <ele>2235.8</ele>
        <time>2023-10-31T11:12:43Z</time>
      </trkpt>
      <trkpt lat="42.81041" lon="-0.04509">
        <ele>2235.7</ele>
        <time>2023-10-31T11:12:44Z</time>
      </trkpt>
      <trkpt lat="42.81041" lon="-0.04508">
        <ele>2235.7</ele>
        <time>2023-10-31T11:12:45Z</time>
      </trkpt>
      <trkpt lat="42.81041" lon="-0.04508">
        <ele>2235.7</ele>
        <time>2023-10-31T11:12:46Z</time>
      </trkpt>
      <trkpt lat="42.81041" lon="-0.04507">
        <ele>2235.6</ele>
        <time>2023-10-31T11:12:47Z</time>
      </trkpt>
      <trkpt lat="42.81041" lon="-0.04506">
        <ele>2235.6</ele>
        <time>2023-10-31T11:12:48Z</time>
      </trkpt>
      <trkpt lat="42.81041" lon="-0.04505">
        <ele>2235.5</ele>
        <time>2023-10-31T11:12:49Z</time>
      </trkpt>
      <trkpt lat="42.81039" lon="-0.04504">
        <ele>2235.4</ele>
        <time>2023-10-31T11:12:50Z</time>
      </trkpt>
      <trkpt lat="42.81039" lon="-0.04503">
        <ele>2235.3</ele>
        <time>2023-10-31T11:12:51Z</time>
      </trkpt>
      <trkpt lat="42.81038" lon="-0.04502">
        <ele>2235.2</ele>
        <time>2023-10-31T11:12:52Z</time>
      </trkpt>
      <trkpt lat="42.81037" lon="-0.04501">
        <ele>2235</ele>
        <time>2023-10-31T11:12:53Z</time>
      </trkpt>
      <trkpt lat="42.81036" lon="-0.04499">
        <ele>2234.8</ele>
        <time>2023-10-31T11:12:54Z</time>
      </trkpt>
      <trkpt lat="42.81036" lon="-0.04498">
        <ele>2234.5</ele>
        <time>2023-10-31T11:12:55Z</time>
      </trkpt>
      <trkpt lat="42.81036" lon="-0.04497">
        <ele>2234.5</ele>
        <time>2023-10-31T11:12:56Z</time>
      </trkpt>
      <trkpt lat="42.81035" lon="-0.04496">
        <ele>2234.3</ele>
        <time>2023-10-31T11:12:57Z</time>
      </trkpt>
      <trkpt lat="42.81035" lon="-0.04496">
        <ele>2234.2</ele>
        <time>2023-10-31T11:12:58Z</time>
      </trkpt>
      <trkpt lat="42.81034" lon="-0.04495">
        <ele>2234.1</ele>
        <time>2023-10-31T11:12:59Z</time>
      </trkpt>
      <trkpt lat="42.81034" lon="-0.04494">
        <ele>2233.9</ele>
        <time>2023-10-31T11:13:00Z</time>
      </trkpt>
      <trkpt lat="42.81034" lon="-0.04492">
        <ele>2233.8</ele>
        <time>2023-10-31T11:13:01Z</time>
      </trkpt>
      <trkpt lat="42.81033" lon="-0.04491">
        <ele>2233.6</ele>
        <time>2023-10-31T11:13:02Z</time>
      </trkpt>
      <trkpt lat="42.81034" lon="-0.04491">
        <ele>2233.5</ele>
        <time>2023-10-31T11:13:03Z</time>
      </trkpt>
      <trkpt lat="42.81034" lon="-0.0449">
        <ele>2233.4</ele>
        <time>2023-10-31T11:13:04Z</time>
      </trkpt>
      <trkpt lat="42.81033" lon="-0.04489">
        <ele>2233.2</ele>
        <time>2023-10-31T11:13:05Z</time>
      </trkpt>
      <trkpt lat="42.81033" lon="-0.04488">
        <ele>2233.2</ele>
        <time>2023-10-31T11:13:06Z</time>
      </trkpt>
      <trkpt lat="42.81032" lon="-0.04487">
        <ele>2233.1</ele>
        <time>2023-10-31T11:13:07Z</time>
      </trkpt>
      <trkpt lat="42.81032" lon="-0.04487">
        <ele>2233</ele>
        <time>2023-10-31T11:13:08Z</time>
      </trkpt>
      <trkpt lat="42.81032" lon="-0.04486">
        <ele>2233</ele>
        <time>2023-10-31T11:13:09Z</time>
      </trkpt>
      <trkpt lat="42.81033" lon="-0.04487">
        <ele>2232.9</ele>
        <time>2023-10-31T11:13:10Z</time>
      </trkpt>
      <trkpt lat="42.81032" lon="-0.04487">
        <ele>2232.9</ele>
        <time>2023-10-31T11:13:11Z</time>
      </trkpt>
      <trkpt lat="42.81032" lon="-0.04486">
        <ele>2232.8</ele>
        <time>2023-10-31T11:13:12Z</time>
      </trkpt>
      <trkpt lat="42.81032" lon="-0.04485">
        <ele>2232.7</ele>
        <time>2023-10-31T11:13:13Z</time>
      </trkpt>
      <trkpt lat="42.81031" lon="-0.04484">
        <ele>2232.6</ele>
        <time>2023-10-31T11:13:14Z</time>
      </trkpt>
      <trkpt lat="42.8103" lon="-0.04484">
        <ele>2232.4</ele>
        <time>2023-10-31T11:13:15Z</time>
      </trkpt>
      <trkpt lat="42.8103" lon="-0.04483">
        <ele>2232.3</ele>
        <time>2023-10-31T11:13:16Z</time>
      </trkpt>
      <trkpt lat="42.81029" lon="-0.04482">
        <ele>2232.2</ele>
        <time>2023-10-31T11:13:17Z</time>
      </trkpt>
      <trkpt lat="42.81029" lon="-0.04481">
        <ele>2232.1</ele>
        <time>2023-10-31T11:13:18Z</time>
      </trkpt>
      <trkpt lat="42.81028" lon="-0.0448">
        <ele>2232</ele>
        <time>2023-10-31T11:13:19Z</time>
      </trkpt>
      <trkpt lat="42.81027" lon="-0.04479">
        <ele>2231.9</ele>
        <time>2023-10-31T11:13:20Z</time>
      </trkpt>
      <trkpt lat="42.81027" lon="-0.04478">
        <ele>2231.8</ele>
        <time>2023-10-31T11:13:21Z</time>
      </trkpt>
      <trkpt lat="42.81027" lon="-0.04476">
        <ele>2231.7</ele>
        <time>2023-10-31T11:13:22Z</time>
      </trkpt>
      <trkpt lat="42.81027" lon="-0.04476">
        <ele>2231.6</ele>
        <time>2023-10-31T11:13:23Z</time>
      </trkpt>
      <trkpt lat="42.81027" lon="-0.04475">
        <ele>2231.5</ele>
        <time>2023-10-31T11:13:24Z</time>
      </trkpt>
      <trkpt lat="42.81027" lon="-0.04474">
        <ele>2231.5</ele>
        <time>2023-10-31T11:13:25Z</time>
      </trkpt>
      <trkpt lat="42.81026" lon="-0.04474">
        <ele>2231.4</ele>
        <time>2023-10-31T11:13:26Z</time>
      </trkpt>
      <trkpt lat="42.81026" lon="-0.04473">
        <ele>2231.4</ele>
        <time>2023-10-31T11:13:27Z</time>
      </trkpt>
      <trkpt lat="42.81026" lon="-0.04473">
        <ele>2231.4</ele>
        <time>2023-10-31T11:13:28Z</time>
      </trkpt>
      <trkpt lat="42.81026" lon="-0.04473">
        <ele>2231.3</ele>
        <time>2023-10-31T11:13:29Z</time>
      </trkpt>
      <trkpt lat="42.81026" lon="-0.04472">
        <ele>2231.2</ele>
        <time>2023-10-31T11:13:30Z</time>
      </trkpt>
      <trkpt lat="42.81026" lon="-0.04471">
        <ele>2231.2</ele>
        <time>2023-10-31T11:13:31Z</time>
      </trkpt>
      <trkpt lat="42.81026" lon="-0.04469">
        <ele>2231.1</ele>
        <time>2023-10-31T11:13:32Z</time>
      </trkpt>
      <trkpt lat="42.81026" lon="-0.04468">
        <ele>2231</ele>
        <time>2023-10-31T11:13:33Z</time>
      </trkpt>
      <trkpt lat="42.81026" lon="-0.04468">
        <ele>2230.9</ele>
        <time>2023-10-31T11:13:34Z</time>
      </trkpt>
      <trkpt lat="42.81026" lon="-0.04467">
        <ele>2230.9</ele>
        <time>2023-10-31T11:13:35Z</time>
      </trkpt>
      <trkpt lat="42.81026" lon="-0.04467">
        <ele>2230.9</ele>
        <time>2023-10-31T11:13:36Z</time>
      </trkpt>
      <trkpt lat="42.81026" lon="-0.04467">
        <ele>2230.9</ele>
        <time>2023-10-31T11:13:37Z</time>
      </trkpt>
      <trkpt lat="42.81025" lon="-0.04466">
        <ele>2230.8</ele>
        <time>2023-10-31T11:13:38Z</time>
      </trkpt>
      <trkpt lat="42.81025" lon="-0.04465">
        <ele>2230.7</ele>
        <time>2023-10-31T11:13:39Z</time>
      </trkpt>
      <trkpt lat="42.81025" lon="-0.04465">
        <ele>2230.7</ele>
        <time>2023-10-31T11:13:40Z</time>
      </trkpt>
      <trkpt lat="42.81025" lon="-0.04465">
        <ele>2230.7</ele>
        <time>2023-10-31T11:13:41Z</time>
      </trkpt>
      <trkpt lat="42.81025" lon="-0.04465">
        <ele>2230.7</ele>
        <time>2023-10-31T11:13:42Z</time>
      </trkpt>
      <trkpt lat="42.81025" lon="-0.04465">
        <ele>2230.7</ele>
        <time>2023-10-31T11:13:43Z</time>
      </trkpt>
      <trkpt lat="42.81025" lon="-0.04465">
        <ele>2230.7</ele>
        <time>2023-10-31T11:13:44Z</time>
      </trkpt>
      <trkpt lat="42.81025" lon="-0.04465">
        <ele>2230.7</ele>
        <time>2023-10-31T11:13:45Z</time>
      </trkpt>
      <trkpt lat="42.81025" lon="-0.04465">
        <ele>2230.7</ele>
        <time>2023-10-31T11:13:46Z</time>
      </trkpt>
      <trkpt lat="42.81025" lon="-0.04465">
        <ele>2230.7</ele>
        <time>2023-10-31T11:13:47Z</time>
      </trkpt>
      <trkpt lat="42.81025" lon="-0.04465">
        <ele>2230.7</ele>
        <time>2023-10-31T11:13:48Z</time>
      </trkpt>
      <trkpt lat="42.81025" lon="-0.04465">
        <ele>2230.7</ele>
        <time>2023-10-31T11:13:49Z</time>
      </trkpt>
      <trkpt lat="42.81025" lon="-0.04465">
        <ele>2230.7</ele>
        <time>2023-10-31T11:13:50Z</time>
      </trkpt>
      <trkpt lat="42.81024" lon="-0.04464">
        <ele>2230.6</ele>
        <time>2023-10-31T11:13:51Z</time>
      </trkpt>
      <trkpt lat="42.81024" lon="-0.04464">
        <ele>2230.6</ele>
        <time>2023-10-31T11:13:52Z</time>
      </trkpt>
      <trkpt lat="42.81024" lon="-0.04464">
        <ele>2230.6</ele>
        <time>2023-10-31T11:13:53Z</time>
      </trkpt>
      <trkpt lat="42.81024" lon="-0.04464">
        <ele>2230.6</ele>
        <time>2023-10-31T11:13:54Z</time>
      </trkpt>
      <trkpt lat="42.81024" lon="-0.04464">
        <ele>2230.6</ele>
        <time>2023-10-31T11:13:55Z</time>
      </trkpt>
      <trkpt lat="42.81024" lon="-0.04463">
        <ele>2230.5</ele>
        <time>2023-10-31T11:13:56Z</time>
      </trkpt>
      <trkpt lat="42.81024" lon="-0.04462">
        <ele>2230.4</ele>
        <time>2023-10-31T11:13:58Z</time>
      </trkpt>
      <trkpt lat="42.81024" lon="-0.04461">
        <ele>2230.4</ele>
        <time>2023-10-31T11:13:59Z</time>
      </trkpt>
      <trkpt lat="42.81024" lon="-0.04459">
        <ele>2230.3</ele>
        <time>2023-10-31T11:14:00Z</time>
      </trkpt>
      <trkpt lat="42.81023" lon="-0.04459">
        <ele>2230.2</ele>
        <time>2023-10-31T11:14:01Z</time>
      </trkpt>
      <trkpt lat="42.81023" lon="-0.04458">
        <ele>2230.2</ele>
        <time>2023-10-31T11:14:02Z</time>
      </trkpt>
      <trkpt lat="42.81023" lon="-0.04457">
        <ele>2230.1</ele>
        <time>2023-10-31T11:14:03Z</time>
      </trkpt>
      <trkpt lat="42.81023" lon="-0.04456">
        <ele>2230.1</ele>
        <time>2023-10-31T11:14:04Z</time>
      </trkpt>
      <trkpt lat="42.81022" lon="-0.04456">
        <ele>2230</ele>
        <time>2023-10-31T11:14:05Z</time>
      </trkpt>
      <trkpt lat="42.81022" lon="-0.04456">
        <ele>2230</ele>
        <time>2023-10-31T11:14:06Z</time>
      </trkpt>
      <trkpt lat="42.81023" lon="-0.04455">
        <ele>2230</ele>
        <time>2023-10-31T11:14:07Z</time>
      </trkpt>
      <trkpt lat="42.81022" lon="-0.04455">
        <ele>2229.9</ele>
        <time>2023-10-31T11:14:08Z</time>
      </trkpt>
      <trkpt lat="42.81022" lon="-0.04455">
        <ele>2229.9</ele>
        <time>2023-10-31T11:14:09Z</time>
      </trkpt>
      <trkpt lat="42.81022" lon="-0.04455">
        <ele>2229.9</ele>
        <time>2023-10-31T11:14:10Z</time>
      </trkpt>
      <trkpt lat="42.81023" lon="-0.04455">
        <ele>2229.9</ele>
        <time>2023-10-31T11:14:11Z</time>
      </trkpt>
      <trkpt lat="42.81022" lon="-0.04455">
        <ele>2229.8</ele>
        <time>2023-10-31T11:14:12Z</time>
      </trkpt>
      <trkpt lat="42.81022" lon="-0.04455">
        <ele>2229.8</ele>
        <time>2023-10-31T11:14:13Z</time>
      </trkpt>
      <trkpt lat="42.81022" lon="-0.04455">
        <ele>2229.8</ele>
        <time>2023-10-31T11:14:14Z</time>
      </trkpt>
      <trkpt lat="42.81022" lon="-0.04454">
        <ele>2229.8</ele>
        <time>2023-10-31T11:14:15Z</time>
      </trkpt>
      <trkpt lat="42.81022" lon="-0.04454">
        <ele>2229.8</ele>
        <time>2023-10-31T11:14:16Z</time>
      </trkpt>
      <trkpt lat="42.81022" lon="-0.04454">
        <ele>2229.7</ele>
        <time>2023-10-31T11:14:17Z</time>
      </trkpt>
      <trkpt lat="42.81022" lon="-0.04454">
        <ele>2229.7</ele>
        <time>2023-10-31T11:14:18Z</time>
      </trkpt>
      <trkpt lat="42.81022" lon="-0.04454">
        <ele>2229.7</ele>
        <time>2023-10-31T11:14:19Z</time>
      </trkpt>
      <trkpt lat="42.81022" lon="-0.04454">
        <ele>2229.7</ele>
        <time>2023-10-31T11:14:20Z</time>
      </trkpt>
      <trkpt lat="42.81021" lon="-0.04454">
        <ele>2229.7</ele>
        <time>2023-10-31T11:14:21Z</time>
      </trkpt>
      <trkpt lat="42.81021" lon="-0.04454">
        <ele>2229.6</ele>
        <time>2023-10-31T11:14:22Z</time>
      </trkpt>
      <trkpt lat="42.81021" lon="-0.04454">
        <ele>2229.6</ele>
        <time>2023-10-31T11:14:23Z</time>
      </trkpt>
      <trkpt lat="42.81021" lon="-0.04454">
        <ele>2229.6</ele>
        <time>2023-10-31T11:14:24Z</time>
      </trkpt>
      <trkpt lat="42.81021" lon="-0.04453">
        <ele>2229.6</ele>
        <time>2023-10-31T11:14:25Z</time>
      </trkpt>
      <trkpt lat="42.81021" lon="-0.04453">
        <ele>2229.6</ele>
        <time>2023-10-31T11:14:26Z</time>
      </trkpt>
      <trkpt lat="42.81021" lon="-0.04452">
        <ele>2229.5</ele>
        <time>2023-10-31T11:14:27Z</time>
      </trkpt>
      <trkpt lat="42.8102" lon="-0.04451">
        <ele>2229.4</ele>
        <time>2023-10-31T11:14:28Z</time>
      </trkpt>
      <trkpt lat="42.8102" lon="-0.0445">
        <ele>2229.3</ele>
        <time>2023-10-31T11:14:29Z</time>
      </trkpt>
      <trkpt lat="42.8102" lon="-0.04449">
        <ele>2229.2</ele>
        <time>2023-10-31T11:14:30Z</time>
      </trkpt>
      <trkpt lat="42.8102" lon="-0.04449">
        <ele>2229.2</ele>
        <time>2023-10-31T11:14:31Z</time>
      </trkpt>
      <trkpt lat="42.8102" lon="-0.04448">
        <ele>2229.1</ele>
        <time>2023-10-31T11:14:32Z</time>
      </trkpt>
      <trkpt lat="42.81019" lon="-0.04447">
        <ele>2229</ele>
        <time>2023-10-31T11:14:33Z</time>
      </trkpt>
      <trkpt lat="42.81019" lon="-0.04446">
        <ele>2228.9</ele>
        <time>2023-10-31T11:14:34Z</time>
      </trkpt>
      <trkpt lat="42.81019" lon="-0.04446">
        <ele>2228.8</ele>
        <time>2023-10-31T11:14:35Z</time>
      </trkpt>
      <trkpt lat="42.81019" lon="-0.04446">
        <ele>2228.8</ele>
        <time>2023-10-31T11:14:36Z</time>
      </trkpt>
      <trkpt lat="42.81019" lon="-0.04447">
        <ele>2228.8</ele>
        <time>2023-10-31T11:14:37Z</time>
      </trkpt>
      <trkpt lat="42.81019" lon="-0.04446">
        <ele>2228.8</ele>
        <time>2023-10-31T11:14:38Z</time>
      </trkpt>
      <trkpt lat="42.81019" lon="-0.04446">
        <ele>2228.8</ele>
        <time>2023-10-31T11:14:39Z</time>
      </trkpt>
      <trkpt lat="42.8102" lon="-0.04446">
        <ele>2228.7</ele>
        <time>2023-10-31T11:14:40Z</time>
      </trkpt>
      <trkpt lat="42.81019" lon="-0.04445">
        <ele>2228.6</ele>
        <time>2023-10-31T11:14:41Z</time>
      </trkpt>
      <trkpt lat="42.81019" lon="-0.04445">
        <ele>2228.5</ele>
        <time>2023-10-31T11:14:42Z</time>
      </trkpt>
      <trkpt lat="42.81019" lon="-0.04445">
        <ele>2228.5</ele>
        <time>2023-10-31T11:14:43Z</time>
      </trkpt>
      <trkpt lat="42.81019" lon="-0.04445">
        <ele>2228.5</ele>
        <time>2023-10-31T11:14:44Z</time>
      </trkpt>
      <trkpt lat="42.81019" lon="-0.04445">
        <ele>2228.5</ele>
        <time>2023-10-31T11:14:45Z</time>
      </trkpt>
      <trkpt lat="42.81019" lon="-0.04445">
        <ele>2228.5</ele>
        <time>2023-10-31T11:14:46Z</time>
      </trkpt>
      <trkpt lat="42.81019" lon="-0.04445">
        <ele>2228.5</ele>
        <time>2023-10-31T11:14:47Z</time>
      </trkpt>
      <trkpt lat="42.81019" lon="-0.04445">
        <ele>2228.5</ele>
        <time>2023-10-31T11:14:48Z</time>
      </trkpt>
      <trkpt lat="42.81019" lon="-0.04445">
        <ele>2228.5</ele>
        <time>2023-10-31T11:14:49Z</time>
      </trkpt>
      <trkpt lat="42.81018" lon="-0.04445">
        <ele>2228.4</ele>
        <time>2023-10-31T11:14:50Z</time>
      </trkpt>
      <trkpt lat="42.81018" lon="-0.04445">
        <ele>2228.3</ele>
        <time>2023-10-31T11:14:51Z</time>
      </trkpt>
      <trkpt lat="42.81018" lon="-0.04444">
        <ele>2228.3</ele>
        <time>2023-10-31T11:14:52Z</time>
      </trkpt>
      <trkpt lat="42.81018" lon="-0.04443">
        <ele>2228.1</ele>
        <time>2023-10-31T11:14:53Z</time>
      </trkpt>
      <trkpt lat="42.81018" lon="-0.04443">
        <ele>2228.1</ele>
        <time>2023-10-31T11:14:54Z</time>
      </trkpt>
      <trkpt lat="42.81018" lon="-0.04442">
        <ele>2228</ele>
        <time>2023-10-31T11:14:55Z</time>
      </trkpt>
      <trkpt lat="42.81017" lon="-0.04442">
        <ele>2227.9</ele>
        <time>2023-10-31T11:14:56Z</time>
      </trkpt>
      <trkpt lat="42.81017" lon="-0.04441">
        <ele>2227.8</ele>
        <time>2023-10-31T11:14:57Z</time>
      </trkpt>
      <trkpt lat="42.81017" lon="-0.0444">
        <ele>2227.6</ele>
        <time>2023-10-31T11:14:58Z</time>
      </trkpt>
      <trkpt lat="42.81017" lon="-0.0444">
        <ele>2227.6</ele>
        <time>2023-10-31T11:14:59Z</time>
      </trkpt>
      <trkpt lat="42.81017" lon="-0.04439">
        <ele>2227.4</ele>
        <time>2023-10-31T11:15:00Z</time>
      </trkpt>
      <trkpt lat="42.81017" lon="-0.04438">
        <ele>2227.3</ele>
        <time>2023-10-31T11:15:01Z</time>
      </trkpt>
      <trkpt lat="42.81017" lon="-0.04437">
        <ele>2227.2</ele>
        <time>2023-10-31T11:15:02Z</time>
      </trkpt>
      <trkpt lat="42.81017" lon="-0.04436">
        <ele>2227.1</ele>
        <time>2023-10-31T11:15:03Z</time>
      </trkpt>
      <trkpt lat="42.81017" lon="-0.04436">
        <ele>2227</ele>
        <time>2023-10-31T11:15:04Z</time>
      </trkpt>
      <trkpt lat="42.81017" lon="-0.04436">
        <ele>2227</ele>
        <time>2023-10-31T11:15:05Z</time>
      </trkpt>
      <trkpt lat="42.81017" lon="-0.04436">
        <ele>2226.9</ele>
        <time>2023-10-31T11:15:06Z</time>
      </trkpt>
      <trkpt lat="42.81017" lon="-0.04434">
        <ele>2226.7</ele>
        <time>2023-10-31T11:15:07Z</time>
      </trkpt>
      <trkpt lat="42.81017" lon="-0.04433">
        <ele>2226.5</ele>
        <time>2023-10-31T11:15:08Z</time>
      </trkpt>
      <trkpt lat="42.81017" lon="-0.04432">
        <ele>2226.4</ele>
        <time>2023-10-31T11:15:09Z</time>
      </trkpt>
      <trkpt lat="42.81018" lon="-0.04432">
        <ele>2226.3</ele>
        <time>2023-10-31T11:15:10Z</time>
      </trkpt>
      <trkpt lat="42.81018" lon="-0.04431">
        <ele>2226.2</ele>
        <time>2023-10-31T11:15:11Z</time>
      </trkpt>
      <trkpt lat="42.81019" lon="-0.04429">
        <ele>2225.9</ele>
        <time>2023-10-31T11:15:12Z</time>
      </trkpt>
      <trkpt lat="42.81019" lon="-0.04428">
        <ele>2225.7</ele>
        <time>2023-10-31T11:15:13Z</time>
      </trkpt>
      <trkpt lat="42.81019" lon="-0.04427">
        <ele>2225.6</ele>
        <time>2023-10-31T11:15:14Z</time>
      </trkpt>
      <trkpt lat="42.8102" lon="-0.04426">
        <ele>2225.4</ele>
        <time>2023-10-31T11:15:15Z</time>
      </trkpt>
      <trkpt lat="42.8102" lon="-0.04427">
        <ele>2225.4</ele>
        <time>2023-10-31T11:15:16Z</time>
      </trkpt>
      <trkpt lat="42.81021" lon="-0.04427">
        <ele>2225.1</ele>
        <time>2023-10-31T11:15:17Z</time>
      </trkpt>
      <trkpt lat="42.81022" lon="-0.04427">
        <ele>2225</ele>
        <time>2023-10-31T11:15:18Z</time>
      </trkpt>
      <trkpt lat="42.81021" lon="-0.04426">
        <ele>2224.8</ele>
        <time>2023-10-31T11:15:19Z</time>
      </trkpt>
      <trkpt lat="42.81021" lon="-0.04425">
        <ele>2224.7</ele>
        <time>2023-10-31T11:15:20Z</time>
      </trkpt>
      <trkpt lat="42.81021" lon="-0.04425">
        <ele>2224.6</ele>
        <time>2023-10-31T11:15:21Z</time>
      </trkpt>
      <trkpt lat="42.81021" lon="-0.04425">
        <ele>2224.6</ele>
        <time>2023-10-31T11:15:22Z</time>
      </trkpt>
      <trkpt lat="42.81021" lon="-0.04424">
        <ele>2224.4</ele>
        <time>2023-10-31T11:15:23Z</time>
      </trkpt>
      <trkpt lat="42.81021" lon="-0.04424">
        <ele>2224.4</ele>
        <time>2023-10-31T11:15:24Z</time>
      </trkpt>
      <trkpt lat="42.81021" lon="-0.04424">
        <ele>2224.4</ele>
        <time>2023-10-31T11:15:25Z</time>
      </trkpt>
      <trkpt lat="42.81022" lon="-0.04424">
        <ele>2224.3</ele>
        <time>2023-10-31T11:15:26Z</time>
      </trkpt>
      <trkpt lat="42.81022" lon="-0.04424">
        <ele>2224.3</ele>
        <time>2023-10-31T11:15:27Z</time>
      </trkpt>
      <trkpt lat="42.81022" lon="-0.04424">
        <ele>2224.3</ele>
        <time>2023-10-31T11:15:28Z</time>
      </trkpt>
      <trkpt lat="42.81022" lon="-0.04423">
        <ele>2224.3</ele>
        <time>2023-10-31T11:15:29Z</time>
      </trkpt>
      <trkpt lat="42.81022" lon="-0.04423">
        <ele>2224.2</ele>
        <time>2023-10-31T11:15:30Z</time>
      </trkpt>
      <trkpt lat="42.81025" lon="-0.04425">
        <ele>2223.8</ele>
        <time>2023-10-31T11:15:31Z</time>
      </trkpt>
      <trkpt lat="42.81024" lon="-0.04423">
        <ele>2223.6</ele>
        <time>2023-10-31T11:15:32Z</time>
      </trkpt>
      <trkpt lat="42.81024" lon="-0.04422">
        <ele>2223.5</ele>
        <time>2023-10-31T11:15:33Z</time>
      </trkpt>
      <trkpt lat="42.81024" lon="-0.04421">
        <ele>2223.4</ele>
        <time>2023-10-31T11:15:34Z</time>
      </trkpt>
      <trkpt lat="42.81024" lon="-0.0442">
        <ele>2223.3</ele>
        <time>2023-10-31T11:15:35Z</time>
      </trkpt>
      <trkpt lat="42.81024" lon="-0.0442">
        <ele>2223.2</ele>
        <time>2023-10-31T11:15:36Z</time>
      </trkpt>
      <trkpt lat="42.81024" lon="-0.0442">
        <ele>2223.2</ele>
        <time>2023-10-31T11:15:37Z</time>
      </trkpt>
      <trkpt lat="42.81024" lon="-0.04417">
        <ele>2222.9</ele>
        <time>2023-10-31T11:15:38Z</time>
      </trkpt>
      <trkpt lat="42.81024" lon="-0.04416">
        <ele>2222.8</ele>
        <time>2023-10-31T11:15:39Z</time>
      </trkpt>
      <trkpt lat="42.81025" lon="-0.04415">
        <ele>2222.8</ele>
        <time>2023-10-31T11:15:40Z</time>
      </trkpt>
      <trkpt lat="42.81025" lon="-0.04415">
        <ele>2222.7</ele>
        <time>2023-10-31T11:15:41Z</time>
      </trkpt>
      <trkpt lat="42.81025" lon="-0.04415">
        <ele>2222.7</ele>
        <time>2023-10-31T11:15:42Z</time>
      </trkpt>
      <trkpt lat="42.81025" lon="-0.04415">
        <ele>2222.6</ele>
        <time>2023-10-31T11:15:43Z</time>
      </trkpt>
      <trkpt lat="42.81025" lon="-0.04415">
        <ele>2222.6</ele>
        <time>2023-10-31T11:15:44Z</time>
      </trkpt>
      <trkpt lat="42.81025" lon="-0.04414">
        <ele>2222.6</ele>
        <time>2023-10-31T11:15:45Z</time>
      </trkpt>
      <trkpt lat="42.81026" lon="-0.04413">
        <ele>2222.5</ele>
        <time>2023-10-31T11:15:46Z</time>
      </trkpt>
      <trkpt lat="42.81026" lon="-0.04411">
        <ele>2222.3</ele>
        <time>2023-10-31T11:15:47Z</time>
      </trkpt>
      <trkpt lat="42.81026" lon="-0.04409">
        <ele>2222.2</ele>
        <time>2023-10-31T11:15:48Z</time>
      </trkpt>
      <trkpt lat="42.81026" lon="-0.04409">
        <ele>2222.2</ele>
        <time>2023-10-31T11:15:49Z</time>
      </trkpt>
      <trkpt lat="42.81026" lon="-0.04409">
        <ele>2222.2</ele>
        <time>2023-10-31T11:15:50Z</time>
      </trkpt>
      <trkpt lat="42.81027" lon="-0.04408">
        <ele>2222.1</ele>
        <time>2023-10-31T11:15:51Z</time>
      </trkpt>
      <trkpt lat="42.81027" lon="-0.04407">
        <ele>2222.1</ele>
        <time>2023-10-31T11:15:52Z</time>
      </trkpt>
      <trkpt lat="42.81027" lon="-0.04407">
        <ele>2222.1</ele>
        <time>2023-10-31T11:15:53Z</time>
      </trkpt>
      <trkpt lat="42.81028" lon="-0.04405">
        <ele>2222</ele>
        <time>2023-10-31T11:15:54Z</time>
      </trkpt>
      <trkpt lat="42.81027" lon="-0.04404">
        <ele>2221.9</ele>
        <time>2023-10-31T11:15:55Z</time>
      </trkpt>
      <trkpt lat="42.81027" lon="-0.04403">
        <ele>2221.9</ele>
        <time>2023-10-31T11:15:56Z</time>
      </trkpt>
      <trkpt lat="42.81027" lon="-0.04402">
        <ele>2221.9</ele>
        <time>2023-10-31T11:15:57Z</time>
      </trkpt>
      <trkpt lat="42.81027" lon="-0.04401">
        <ele>2221.9</ele>
        <time>2023-10-31T11:15:58Z</time>
      </trkpt>
      <trkpt lat="42.81027" lon="-0.044">
        <ele>2221.9</ele>
        <time>2023-10-31T11:15:59Z</time>
      </trkpt>
      <trkpt lat="42.81027" lon="-0.04399">
        <ele>2221.9</ele>
        <time>2023-10-31T11:16:00Z</time>
      </trkpt>
      <trkpt lat="42.81026" lon="-0.04398">
        <ele>2221.9</ele>
        <time>2023-10-31T11:16:01Z</time>
      </trkpt>
      <trkpt lat="42.81026" lon="-0.04397">
        <ele>2221.8</ele>
        <time>2023-10-31T11:16:02Z</time>
      </trkpt>
      <trkpt lat="42.81026" lon="-0.04397">
        <ele>2221.8</ele>
        <time>2023-10-31T11:16:04Z</time>
      </trkpt>
      <trkpt lat="42.81025" lon="-0.04396">
        <ele>2221.8</ele>
        <time>2023-10-31T11:16:05Z</time>
      </trkpt>
      <trkpt lat="42.81025" lon="-0.04395">
        <ele>2221.8</ele>
        <time>2023-10-31T11:16:06Z</time>
      </trkpt>
      <trkpt lat="42.81025" lon="-0.04395">
        <ele>2221.9</ele>
        <time>2023-10-31T11:16:07Z</time>
      </trkpt>
      <trkpt lat="42.81025" lon="-0.04394">
        <ele>2221.9</ele>
        <time>2023-10-31T11:16:08Z</time>
      </trkpt>
      <trkpt lat="42.81024" lon="-0.04393">
        <ele>2221.9</ele>
        <time>2023-10-31T11:16:09Z</time>
      </trkpt>
      <trkpt lat="42.81024" lon="-0.04392">
        <ele>2221.9</ele>
        <time>2023-10-31T11:16:10Z</time>
      </trkpt>
      <trkpt lat="42.81024" lon="-0.04391">
        <ele>2222</ele>
        <time>2023-10-31T11:16:11Z</time>
      </trkpt>
      <trkpt lat="42.81024" lon="-0.0439">
        <ele>2222</ele>
        <time>2023-10-31T11:16:12Z</time>
      </trkpt>
      <trkpt lat="42.81024" lon="-0.04389">
        <ele>2222</ele>
        <time>2023-10-31T11:16:13Z</time>
      </trkpt>
      <trkpt lat="42.81024" lon="-0.04389">
        <ele>2222</ele>
        <time>2023-10-31T11:16:14Z</time>
      </trkpt>
      <trkpt lat="42.81024" lon="-0.04388">
        <ele>2222</ele>
        <time>2023-10-31T11:16:15Z</time>
      </trkpt>
      <trkpt lat="42.81024" lon="-0.04388">
        <ele>2222.1</ele>
        <time>2023-10-31T11:16:16Z</time>
      </trkpt>
      <trkpt lat="42.81024" lon="-0.04388">
        <ele>2222.1</ele>
        <time>2023-10-31T11:16:17Z</time>
      </trkpt>
      <trkpt lat="42.81024" lon="-0.04388">
        <ele>2222.1</ele>
        <time>2023-10-31T11:16:18Z</time>
      </trkpt>
      <trkpt lat="42.81024" lon="-0.04388">
        <ele>2222.1</ele>
        <time>2023-10-31T11:16:19Z</time>
      </trkpt>
      <trkpt lat="42.81024" lon="-0.04388">
        <ele>2222.1</ele>
        <time>2023-10-31T11:16:20Z</time>
      </trkpt>
      <trkpt lat="42.81024" lon="-0.04388">
        <ele>2222.1</ele>
        <time>2023-10-31T11:16:21Z</time>
      </trkpt>
      <trkpt lat="42.81025" lon="-0.04388">
        <ele>2222.1</ele>
        <time>2023-10-31T11:16:22Z</time>
      </trkpt>
      <trkpt lat="42.81024" lon="-0.04388">
        <ele>2222.1</ele>
        <time>2023-10-31T11:16:23Z</time>
      </trkpt>
      <trkpt lat="42.81023" lon="-0.04386">
        <ele>2222.3</ele>
        <time>2023-10-31T11:16:24Z</time>
      </trkpt>
      <trkpt lat="42.81023" lon="-0.04385">
        <ele>2222.3</ele>
        <time>2023-10-31T11:16:25Z</time>
      </trkpt>
      <trkpt lat="42.81023" lon="-0.04385">
        <ele>2222.3</ele>
        <time>2023-10-31T11:16:26Z</time>
      </trkpt>
      <trkpt lat="42.81023" lon="-0.04384">
        <ele>2222.4</ele>
        <time>2023-10-31T11:16:27Z</time>
      </trkpt>
      <trkpt lat="42.81022" lon="-0.04384">
        <ele>2222.4</ele>
        <time>2023-10-31T11:16:28Z</time>
      </trkpt>
      <trkpt lat="42.81022" lon="-0.04383">
        <ele>2222.4</ele>
        <time>2023-10-31T11:16:29Z</time>
      </trkpt>
      <trkpt lat="42.81021" lon="-0.04382">
        <ele>2222.5</ele>
        <time>2023-10-31T11:16:30Z</time>
      </trkpt>
      <trkpt lat="42.81021" lon="-0.04381">
        <ele>2222.6</ele>
        <time>2023-10-31T11:16:31Z</time>
      </trkpt>
      <trkpt lat="42.8102" lon="-0.0438">
        <ele>2222.6</ele>
        <time>2023-10-31T11:16:32Z</time>
      </trkpt>
      <trkpt lat="42.8102" lon="-0.04379">
        <ele>2222.7</ele>
        <time>2023-10-31T11:16:33Z</time>
      </trkpt>
      <trkpt lat="42.8102" lon="-0.04379">
        <ele>2222.7</ele>
        <time>2023-10-31T11:16:34Z</time>
      </trkpt>
      <trkpt lat="42.81019" lon="-0.04378">
        <ele>2222.8</ele>
        <time>2023-10-31T11:16:35Z</time>
      </trkpt>
      <trkpt lat="42.81019" lon="-0.04377">
        <ele>2222.8</ele>
        <time>2023-10-31T11:16:36Z</time>
      </trkpt>
      <trkpt lat="42.81019" lon="-0.04377">
        <ele>2222.9</ele>
        <time>2023-10-31T11:16:37Z</time>
      </trkpt>
      <trkpt lat="42.81019" lon="-0.04377">
        <ele>2222.9</ele>
        <time>2023-10-31T11:16:38Z</time>
      </trkpt>
      <trkpt lat="42.8102" lon="-0.04375">
        <ele>2223.1</ele>
        <time>2023-10-31T11:16:39Z</time>
      </trkpt>
      <trkpt lat="42.8102" lon="-0.04375">
        <ele>2223.1</ele>
        <time>2023-10-31T11:16:40Z</time>
      </trkpt>
      <trkpt lat="42.8102" lon="-0.04374">
        <ele>2223.2</ele>
        <time>2023-10-31T11:16:41Z</time>
      </trkpt>
      <trkpt lat="42.8102" lon="-0.04374">
        <ele>2223.2</ele>
        <time>2023-10-31T11:16:42Z</time>
      </trkpt>
      <trkpt lat="42.8102" lon="-0.04373">
        <ele>2223.3</ele>
        <time>2023-10-31T11:16:43Z</time>
      </trkpt>
      <trkpt lat="42.8102" lon="-0.04371">
        <ele>2223.4</ele>
        <time>2023-10-31T11:16:44Z</time>
      </trkpt>
      <trkpt lat="42.8102" lon="-0.0437">
        <ele>2223.4</ele>
        <time>2023-10-31T11:16:45Z</time>
      </trkpt>
      <trkpt lat="42.8102" lon="-0.0437">
        <ele>2223.5</ele>
        <time>2023-10-31T11:16:46Z</time>
      </trkpt>
      <trkpt lat="42.81021" lon="-0.04369">
        <ele>2223.5</ele>
        <time>2023-10-31T11:16:47Z</time>
      </trkpt>
      <trkpt lat="42.8102" lon="-0.04368">
        <ele>2223.7</ele>
        <time>2023-10-31T11:16:48Z</time>
      </trkpt>
      <trkpt lat="42.8102" lon="-0.04367">
        <ele>2223.8</ele>
        <time>2023-10-31T11:16:49Z</time>
      </trkpt>
      <trkpt lat="42.8102" lon="-0.04366">
        <ele>2223.9</ele>
        <time>2023-10-31T11:16:50Z</time>
      </trkpt>
      <trkpt lat="42.8102" lon="-0.04365">
        <ele>2223.9</ele>
        <time>2023-10-31T11:16:51Z</time>
      </trkpt>
      <trkpt lat="42.8102" lon="-0.04365">
        <ele>2223.9</ele>
        <time>2023-10-31T11:16:52Z</time>
      </trkpt>
      <trkpt lat="42.8102" lon="-0.04364">
        <ele>2224</ele>
        <time>2023-10-31T11:16:53Z</time>
      </trkpt>
      <trkpt lat="42.81019" lon="-0.04365">
        <ele>2224.1</ele>
        <time>2023-10-31T11:16:54Z</time>
      </trkpt>
      <trkpt lat="42.81019" lon="-0.04363">
        <ele>2224.2</ele>
        <time>2023-10-31T11:16:55Z</time>
      </trkpt>
      <trkpt lat="42.81019" lon="-0.04364">
        <ele>2224.3</ele>
        <time>2023-10-31T11:16:56Z</time>
      </trkpt>
      <trkpt lat="42.81018" lon="-0.04364">
        <ele>2224.4</ele>
        <time>2023-10-31T11:16:57Z</time>
      </trkpt>
      <trkpt lat="42.81017" lon="-0.04363">
        <ele>2224.6</ele>
        <time>2023-10-31T11:16:58Z</time>
      </trkpt>
      <trkpt lat="42.81017" lon="-0.04363">
        <ele>2224.6</ele>
        <time>2023-10-31T11:16:59Z</time>
      </trkpt>
      <trkpt lat="42.81017" lon="-0.04362">
        <ele>2224.7</ele>
        <time>2023-10-31T11:17:00Z</time>
      </trkpt>
      <trkpt lat="42.81016" lon="-0.04362">
        <ele>2224.8</ele>
        <time>2023-10-31T11:17:01Z</time>
      </trkpt>
      <trkpt lat="42.81015" lon="-0.04361">
        <ele>2224.9</ele>
        <time>2023-10-31T11:17:02Z</time>
      </trkpt>
      <trkpt lat="42.81015" lon="-0.04361">
        <ele>2225</ele>
        <time>2023-10-31T11:17:03Z</time>
      </trkpt>
      <trkpt lat="42.81014" lon="-0.0436">
        <ele>2225.1</ele>
        <time>2023-10-31T11:17:04Z</time>
      </trkpt>
      <trkpt lat="42.81014" lon="-0.0436">
        <ele>2225.2</ele>
        <time>2023-10-31T11:17:05Z</time>
      </trkpt>
      <trkpt lat="42.81015" lon="-0.0436">
        <ele>2225.2</ele>
        <time>2023-10-31T11:17:06Z</time>
      </trkpt>
      <trkpt lat="42.81014" lon="-0.04358">
        <ele>2225.4</ele>
        <time>2023-10-31T11:17:07Z</time>
      </trkpt>
      <trkpt lat="42.81013" lon="-0.04358">
        <ele>2225.5</ele>
        <time>2023-10-31T11:17:08Z</time>
      </trkpt>
      <trkpt lat="42.81013" lon="-0.04358">
        <ele>2225.6</ele>
        <time>2023-10-31T11:17:09Z</time>
      </trkpt>
      <trkpt lat="42.81013" lon="-0.04357">
        <ele>2225.6</ele>
        <time>2023-10-31T11:17:10Z</time>
      </trkpt>
      <trkpt lat="42.81013" lon="-0.04357">
        <ele>2225.7</ele>
        <time>2023-10-31T11:17:11Z</time>
      </trkpt>
      <trkpt lat="42.81013" lon="-0.04356">
        <ele>2225.8</ele>
        <time>2023-10-31T11:17:12Z</time>
      </trkpt>
      <trkpt lat="42.81013" lon="-0.04355">
        <ele>2225.9</ele>
        <time>2023-10-31T11:17:13Z</time>
      </trkpt>
      <trkpt lat="42.81013" lon="-0.04355">
        <ele>2225.9</ele>
        <time>2023-10-31T11:17:14Z</time>
      </trkpt>
      <trkpt lat="42.81013" lon="-0.04355">
        <ele>2225.9</ele>
        <time>2023-10-31T11:17:15Z</time>
      </trkpt>
      <trkpt lat="42.81012" lon="-0.04354">
        <ele>2226.1</ele>
        <time>2023-10-31T11:17:16Z</time>
      </trkpt>
      <trkpt lat="42.81011" lon="-0.04354">
        <ele>2226.2</ele>
        <time>2023-10-31T11:17:17Z</time>
      </trkpt>
      <trkpt lat="42.81011" lon="-0.04354">
        <ele>2226.3</ele>
        <time>2023-10-31T11:17:18Z</time>
      </trkpt>
      <trkpt lat="42.81011" lon="-0.04354">
        <ele>2226.3</ele>
        <time>2023-10-31T11:17:19Z</time>
      </trkpt>
      <trkpt lat="42.81011" lon="-0.04354">
        <ele>2226.4</ele>
        <time>2023-10-31T11:17:20Z</time>
      </trkpt>
      <trkpt lat="42.81011" lon="-0.04354">
        <ele>2226.4</ele>
        <time>2023-10-31T11:17:21Z</time>
      </trkpt>
      <trkpt lat="42.81011" lon="-0.04353">
        <ele>2226.4</ele>
        <time>2023-10-31T11:17:22Z</time>
      </trkpt>
      <trkpt lat="42.8101" lon="-0.04352">
        <ele>2226.5</ele>
        <time>2023-10-31T11:17:23Z</time>
      </trkpt>
      <trkpt lat="42.8101" lon="-0.04352">
        <ele>2226.6</ele>
        <time>2023-10-31T11:17:24Z</time>
      </trkpt>
      <trkpt lat="42.8101" lon="-0.04352">
        <ele>2226.6</ele>
        <time>2023-10-31T11:17:25Z</time>
      </trkpt>
      <trkpt lat="42.81009" lon="-0.04351">
        <ele>2226.7</ele>
        <time>2023-10-31T11:17:26Z</time>
      </trkpt>
      <trkpt lat="42.81009" lon="-0.04351">
        <ele>2226.9</ele>
        <time>2023-10-31T11:17:27Z</time>
      </trkpt>
      <trkpt lat="42.81008" lon="-0.04351">
        <ele>2226.9</ele>
        <time>2023-10-31T11:17:28Z</time>
      </trkpt>
      <trkpt lat="42.81007" lon="-0.04351">
        <ele>2227</ele>
        <time>2023-10-31T11:17:29Z</time>
      </trkpt>
      <trkpt lat="42.81007" lon="-0.04351">
        <ele>2227.1</ele>
        <time>2023-10-31T11:17:30Z</time>
      </trkpt>
      <trkpt lat="42.81006" lon="-0.0435">
        <ele>2227.2</ele>
        <time>2023-10-31T11:17:31Z</time>
      </trkpt>
      <trkpt lat="42.81006" lon="-0.0435">
        <ele>2227.2</ele>
        <time>2023-10-31T11:17:32Z</time>
      </trkpt>
      <trkpt lat="42.81005" lon="-0.0435">
        <ele>2227.4</ele>
        <time>2023-10-31T11:17:33Z</time>
      </trkpt>
      <trkpt lat="42.81005" lon="-0.0435">
        <ele>2227.4</ele>
        <time>2023-10-31T11:17:34Z</time>
      </trkpt>
      <trkpt lat="42.81004" lon="-0.0435">
        <ele>2227.5</ele>
        <time>2023-10-31T11:17:35Z</time>
      </trkpt>
      <trkpt lat="42.81004" lon="-0.0435">
        <ele>2227.5</ele>
        <time>2023-10-31T11:17:36Z</time>
      </trkpt>
      <trkpt lat="42.81003" lon="-0.0435">
        <ele>2227.7</ele>
        <time>2023-10-31T11:17:37Z</time>
      </trkpt>
      <trkpt lat="42.81004" lon="-0.0435">
        <ele>2227.7</ele>
        <time>2023-10-31T11:17:38Z</time>
      </trkpt>
      <trkpt lat="42.81003" lon="-0.04349">
        <ele>2227.8</ele>
        <time>2023-10-31T11:17:39Z</time>
      </trkpt>
      <trkpt lat="42.81003" lon="-0.04349">
        <ele>2227.9</ele>
        <time>2023-10-31T11:17:40Z</time>
      </trkpt>
      <trkpt lat="42.81003" lon="-0.04349">
        <ele>2227.9</ele>
        <time>2023-10-31T11:17:41Z</time>
      </trkpt>
      <trkpt lat="42.81003" lon="-0.04349">
        <ele>2228</ele>
        <time>2023-10-31T11:17:42Z</time>
      </trkpt>
      <trkpt lat="42.81003" lon="-0.04348">
        <ele>2228</ele>
        <time>2023-10-31T11:17:43Z</time>
      </trkpt>
      <trkpt lat="42.81003" lon="-0.04347">
        <ele>2228.1</ele>
        <time>2023-10-31T11:17:44Z</time>
      </trkpt>
      <trkpt lat="42.81003" lon="-0.04346">
        <ele>2228.2</ele>
        <time>2023-10-31T11:17:45Z</time>
      </trkpt>
      <trkpt lat="42.81003" lon="-0.04345">
        <ele>2228.3</ele>
        <time>2023-10-31T11:17:46Z</time>
      </trkpt>
      <trkpt lat="42.81002" lon="-0.04345">
        <ele>2228.4</ele>
        <time>2023-10-31T11:17:47Z</time>
      </trkpt>
      <trkpt lat="42.81002" lon="-0.04344">
        <ele>2228.5</ele>
        <time>2023-10-31T11:17:48Z</time>
      </trkpt>
      <trkpt lat="42.81002" lon="-0.04343">
        <ele>2228.6</ele>
        <time>2023-10-31T11:17:49Z</time>
      </trkpt>
      <trkpt lat="42.81001" lon="-0.04343">
        <ele>2228.6</ele>
        <time>2023-10-31T11:17:50Z</time>
      </trkpt>
      <trkpt lat="42.81002" lon="-0.04342">
        <ele>2228.7</ele>
        <time>2023-10-31T11:17:51Z</time>
      </trkpt>
      <trkpt lat="42.81002" lon="-0.04341">
        <ele>2228.8</ele>
        <time>2023-10-31T11:17:52Z</time>
      </trkpt>
      <trkpt lat="42.81002" lon="-0.04341">
        <ele>2228.8</ele>
        <time>2023-10-31T11:17:53Z</time>
      </trkpt>
      <trkpt lat="42.81001" lon="-0.0434">
        <ele>2228.9</ele>
        <time>2023-10-31T11:17:54Z</time>
      </trkpt>
      <trkpt lat="42.81002" lon="-0.04341">
        <ele>2229</ele>
        <time>2023-10-31T11:17:55Z</time>
      </trkpt>
      <trkpt lat="42.81002" lon="-0.0434">
        <ele>2229.1</ele>
        <time>2023-10-31T11:17:56Z</time>
      </trkpt>
      <trkpt lat="42.81003" lon="-0.0434">
        <ele>2229.1</ele>
        <time>2023-10-31T11:17:57Z</time>
      </trkpt>
      <trkpt lat="42.81003" lon="-0.04339">
        <ele>2229.2</ele>
        <time>2023-10-31T11:17:58Z</time>
      </trkpt>
      <trkpt lat="42.81003" lon="-0.04338">
        <ele>2229.3</ele>
        <time>2023-10-31T11:17:59Z</time>
      </trkpt>
      <trkpt lat="42.81004" lon="-0.04337">
        <ele>2229.4</ele>
        <time>2023-10-31T11:18:00Z</time>
      </trkpt>
      <trkpt lat="42.81004" lon="-0.04337">
        <ele>2229.4</ele>
        <time>2023-10-31T11:18:01Z</time>
      </trkpt>
      <trkpt lat="42.81004" lon="-0.04337">
        <ele>2229.4</ele>
        <time>2023-10-31T11:18:02Z</time>
      </trkpt>
      <trkpt lat="42.81004" lon="-0.04337">
        <ele>2229.5</ele>
        <time>2023-10-31T11:18:03Z</time>
      </trkpt>
      <trkpt lat="42.81005" lon="-0.04336">
        <ele>2229.6</ele>
        <time>2023-10-31T11:18:04Z</time>
      </trkpt>
      <trkpt lat="42.81005" lon="-0.04335">
        <ele>2229.7</ele>
        <time>2023-10-31T11:18:05Z</time>
      </trkpt>
      <trkpt lat="42.81005" lon="-0.04334">
        <ele>2229.8</ele>
        <time>2023-10-31T11:18:06Z</time>
      </trkpt>
      <trkpt lat="42.81004" lon="-0.04334">
        <ele>2229.8</ele>
        <time>2023-10-31T11:18:07Z</time>
      </trkpt>
      <trkpt lat="42.81004" lon="-0.04333">
        <ele>2230</ele>
        <time>2023-10-31T11:18:08Z</time>
      </trkpt>
      <trkpt lat="42.81004" lon="-0.04332">
        <ele>2230.1</ele>
        <time>2023-10-31T11:18:10Z</time>
      </trkpt>
      <trkpt lat="42.81004" lon="-0.04331">
        <ele>2230.2</ele>
        <time>2023-10-31T11:18:11Z</time>
      </trkpt>
      <trkpt lat="42.81004" lon="-0.04331">
        <ele>2230.2</ele>
        <time>2023-10-31T11:18:12Z</time>
      </trkpt>
      <trkpt lat="42.81004" lon="-0.04331">
        <ele>2230.3</ele>
        <time>2023-10-31T11:18:13Z</time>
      </trkpt>
      <trkpt lat="42.81004" lon="-0.04331">
        <ele>2230.3</ele>
        <time>2023-10-31T11:18:14Z</time>
      </trkpt>
      <trkpt lat="42.81003" lon="-0.04331">
        <ele>2230.4</ele>
        <time>2023-10-31T11:18:15Z</time>
      </trkpt>
      <trkpt lat="42.81003" lon="-0.04331">
        <ele>2230.4</ele>
        <time>2023-10-31T11:18:16Z</time>
      </trkpt>
      <trkpt lat="42.81003" lon="-0.0433">
        <ele>2230.5</ele>
        <time>2023-10-31T11:18:17Z</time>
      </trkpt>
      <trkpt lat="42.81003" lon="-0.0433">
        <ele>2230.5</ele>
        <time>2023-10-31T11:18:18Z</time>
      </trkpt>
      <trkpt lat="42.81003" lon="-0.0433">
        <ele>2230.5</ele>
        <time>2023-10-31T11:18:19Z</time>
      </trkpt>
      <trkpt lat="42.81003" lon="-0.0433">
        <ele>2230.6</ele>
        <time>2023-10-31T11:18:20Z</time>
      </trkpt>
      <trkpt lat="42.81003" lon="-0.04329">
        <ele>2230.8</ele>
        <time>2023-10-31T11:18:21Z</time>
      </trkpt>
      <trkpt lat="42.81003" lon="-0.0433">
        <ele>2230.8</ele>
        <time>2023-10-31T11:18:22Z</time>
      </trkpt>
      <trkpt lat="42.81003" lon="-0.04329">
        <ele>2230.9</ele>
        <time>2023-10-31T11:18:23Z</time>
      </trkpt>
      <trkpt lat="42.81003" lon="-0.04329">
        <ele>2230.9</ele>
        <time>2023-10-31T11:18:24Z</time>
      </trkpt>
      <trkpt lat="42.81003" lon="-0.04329">
        <ele>2231</ele>
        <time>2023-10-31T11:18:25Z</time>
      </trkpt>
      <trkpt lat="42.81004" lon="-0.04329">
        <ele>2231</ele>
        <time>2023-10-31T11:18:26Z</time>
      </trkpt>
      <trkpt lat="42.81004" lon="-0.04329">
        <ele>2231</ele>
        <time>2023-10-31T11:18:27Z</time>
      </trkpt>
      <trkpt lat="42.81003" lon="-0.04328">
        <ele>2231.1</ele>
        <time>2023-10-31T11:18:28Z</time>
      </trkpt>
      <trkpt lat="42.81003" lon="-0.04328">
        <ele>2231.2</ele>
        <time>2023-10-31T11:18:29Z</time>
      </trkpt>
      <trkpt lat="42.81003" lon="-0.04327">
        <ele>2231.3</ele>
        <time>2023-10-31T11:18:30Z</time>
      </trkpt>
      <trkpt lat="42.81003" lon="-0.04327">
        <ele>2231.3</ele>
        <time>2023-10-31T11:18:31Z</time>
      </trkpt>
      <trkpt lat="42.81003" lon="-0.04327">
        <ele>2231.4</ele>
        <time>2023-10-31T11:18:32Z</time>
      </trkpt>
      <trkpt lat="42.81004" lon="-0.04326">
        <ele>2231.6</ele>
        <time>2023-10-31T11:18:33Z</time>
      </trkpt>
      <trkpt lat="42.81004" lon="-0.04325">
        <ele>2231.7</ele>
        <time>2023-10-31T11:18:34Z</time>
      </trkpt>
      <trkpt lat="42.81005" lon="-0.04325">
        <ele>2231.8</ele>
        <time>2023-10-31T11:18:35Z</time>
      </trkpt>
      <trkpt lat="42.81006" lon="-0.04324">
        <ele>2231.9</ele>
        <time>2023-10-31T11:18:36Z</time>
      </trkpt>
      <trkpt lat="42.81006" lon="-0.04324">
        <ele>2232</ele>
        <time>2023-10-31T11:18:37Z</time>
      </trkpt>
      <trkpt lat="42.81005" lon="-0.04324">
        <ele>2232.1</ele>
        <time>2023-10-31T11:18:38Z</time>
      </trkpt>
      <trkpt lat="42.81006" lon="-0.04322">
        <ele>2232.3</ele>
        <time>2023-10-31T11:18:39Z</time>
      </trkpt>
      <trkpt lat="42.81005" lon="-0.04322">
        <ele>2232.4</ele>
        <time>2023-10-31T11:18:40Z</time>
      </trkpt>
      <trkpt lat="42.81005" lon="-0.04322">
        <ele>2232.4</ele>
        <time>2023-10-31T11:18:41Z</time>
      </trkpt>
      <trkpt lat="42.81004" lon="-0.04321">
        <ele>2232.6</ele>
        <time>2023-10-31T11:18:42Z</time>
      </trkpt>
      <trkpt lat="42.81004" lon="-0.04321">
        <ele>2232.6</ele>
        <time>2023-10-31T11:18:43Z</time>
      </trkpt>
      <trkpt lat="42.81004" lon="-0.0432">
        <ele>2232.7</ele>
        <time>2023-10-31T11:18:44Z</time>
      </trkpt>
      <trkpt lat="42.81004" lon="-0.04321">
        <ele>2232.8</ele>
        <time>2023-10-31T11:18:45Z</time>
      </trkpt>
      <trkpt lat="42.81005" lon="-0.04319">
        <ele>2233</ele>
        <time>2023-10-31T11:18:46Z</time>
      </trkpt>
      <trkpt lat="42.81005" lon="-0.04318">
        <ele>2233</ele>
        <time>2023-10-31T11:18:47Z</time>
      </trkpt>
      <trkpt lat="42.81004" lon="-0.04318">
        <ele>2233.1</ele>
        <time>2023-10-31T11:18:48Z</time>
      </trkpt>
      <trkpt lat="42.81004" lon="-0.04318">
        <ele>2233.2</ele>
        <time>2023-10-31T11:18:49Z</time>
      </trkpt>
      <trkpt lat="42.81004" lon="-0.04317">
        <ele>2233.2</ele>
        <time>2023-10-31T11:18:50Z</time>
      </trkpt>
      <trkpt lat="42.81004" lon="-0.04316">
        <ele>2233.3</ele>
        <time>2023-10-31T11:18:51Z</time>
      </trkpt>
      <trkpt lat="42.81005" lon="-0.04315">
        <ele>2233.4</ele>
        <time>2023-10-31T11:18:52Z</time>
      </trkpt>
      <trkpt lat="42.81005" lon="-0.04314">
        <ele>2233.5</ele>
        <time>2023-10-31T11:18:53Z</time>
      </trkpt>
      <trkpt lat="42.81005" lon="-0.04314">
        <ele>2233.6</ele>
        <time>2023-10-31T11:18:54Z</time>
      </trkpt>
      <trkpt lat="42.81005" lon="-0.04312">
        <ele>2233.7</ele>
        <time>2023-10-31T11:18:55Z</time>
      </trkpt>
      <trkpt lat="42.81005" lon="-0.04312">
        <ele>2233.8</ele>
        <time>2023-10-31T11:18:56Z</time>
      </trkpt>
      <trkpt lat="42.81004" lon="-0.04311">
        <ele>2233.8</ele>
        <time>2023-10-31T11:18:57Z</time>
      </trkpt>
      <trkpt lat="42.81004" lon="-0.04309">
        <ele>2233.9</ele>
        <time>2023-10-31T11:18:58Z</time>
      </trkpt>
      <trkpt lat="42.81005" lon="-0.04309">
        <ele>2234</ele>
        <time>2023-10-31T11:18:59Z</time>
      </trkpt>
      <trkpt lat="42.81005" lon="-0.04308">
        <ele>2234</ele>
        <time>2023-10-31T11:19:00Z</time>
      </trkpt>
      <trkpt lat="42.81005" lon="-0.04307">
        <ele>2234.1</ele>
        <time>2023-10-31T11:19:01Z</time>
      </trkpt>
      <trkpt lat="42.81005" lon="-0.04306">
        <ele>2234.2</ele>
        <time>2023-10-31T11:19:02Z</time>
      </trkpt>
      <trkpt lat="42.81005" lon="-0.04305">
        <ele>2234.2</ele>
        <time>2023-10-31T11:19:03Z</time>
      </trkpt>
      <trkpt lat="42.81006" lon="-0.04304">
        <ele>2234.3</ele>
        <time>2023-10-31T11:19:04Z</time>
      </trkpt>
      <trkpt lat="42.81006" lon="-0.04303">
        <ele>2234.4</ele>
        <time>2023-10-31T11:19:05Z</time>
      </trkpt>
      <trkpt lat="42.81005" lon="-0.04302">
        <ele>2234.4</ele>
        <time>2023-10-31T11:19:06Z</time>
      </trkpt>
      <trkpt lat="42.81005" lon="-0.04302">
        <ele>2234.4</ele>
        <time>2023-10-31T11:19:07Z</time>
      </trkpt>
      <trkpt lat="42.81005" lon="-0.04301">
        <ele>2234.4</ele>
        <time>2023-10-31T11:19:08Z</time>
      </trkpt>
      <trkpt lat="42.81005" lon="-0.04301">
        <ele>2234.4</ele>
        <time>2023-10-31T11:19:09Z</time>
      </trkpt>
      <trkpt lat="42.81006" lon="-0.04301">
        <ele>2234.5</ele>
        <time>2023-10-31T11:19:10Z</time>
      </trkpt>
      <trkpt lat="42.81006" lon="-0.043">
        <ele>2234.5</ele>
        <time>2023-10-31T11:19:11Z</time>
      </trkpt>
      <trkpt lat="42.81007" lon="-0.04298">
        <ele>2234.6</ele>
        <time>2023-10-31T11:19:12Z</time>
      </trkpt>
      <trkpt lat="42.81007" lon="-0.04297">
        <ele>2234.6</ele>
        <time>2023-10-31T11:19:13Z</time>
      </trkpt>
      <trkpt lat="42.81007" lon="-0.04296">
        <ele>2234.6</ele>
        <time>2023-10-31T11:19:14Z</time>
      </trkpt>
      <trkpt lat="42.81006" lon="-0.04296">
        <ele>2234.6</ele>
        <time>2023-10-31T11:19:15Z</time>
      </trkpt>
      <trkpt lat="42.81006" lon="-0.04295">
        <ele>2234.6</ele>
        <time>2023-10-31T11:19:16Z</time>
      </trkpt>
      <trkpt lat="42.81006" lon="-0.04294">
        <ele>2234.6</ele>
        <time>2023-10-31T11:19:17Z</time>
      </trkpt>
      <trkpt lat="42.81005" lon="-0.04293">
        <ele>2234.6</ele>
        <time>2023-10-31T11:19:18Z</time>
      </trkpt>
      <trkpt lat="42.81005" lon="-0.04292">
        <ele>2234.6</ele>
        <time>2023-10-31T11:19:19Z</time>
      </trkpt>
      <trkpt lat="42.81006" lon="-0.04291">
        <ele>2234.6</ele>
        <time>2023-10-31T11:19:20Z</time>
      </trkpt>
      <trkpt lat="42.81006" lon="-0.04291">
        <ele>2234.6</ele>
        <time>2023-10-31T11:19:21Z</time>
      </trkpt>
      <trkpt lat="42.81005" lon="-0.04291">
        <ele>2234.6</ele>
        <time>2023-10-31T11:19:22Z</time>
      </trkpt>
      <trkpt lat="42.81004" lon="-0.04291">
        <ele>2234.6</ele>
        <time>2023-10-31T11:19:23Z</time>
      </trkpt>
      <trkpt lat="42.81004" lon="-0.04292">
        <ele>2234.6</ele>
        <time>2023-10-31T11:19:24Z</time>
      </trkpt>
      <trkpt lat="42.81003" lon="-0.04291">
        <ele>2234.6</ele>
        <time>2023-10-31T11:19:25Z</time>
      </trkpt>
      <trkpt lat="42.81004" lon="-0.04292">
        <ele>2234.5</ele>
        <time>2023-10-31T11:19:26Z</time>
      </trkpt>
      <trkpt lat="42.81003" lon="-0.04292">
        <ele>2234.5</ele>
        <time>2023-10-31T11:19:27Z</time>
      </trkpt>
      <trkpt lat="42.81003" lon="-0.04292">
        <ele>2234.5</ele>
        <time>2023-10-31T11:19:28Z</time>
      </trkpt>
      <trkpt lat="42.81003" lon="-0.04291">
        <ele>2234.5</ele>
        <time>2023-10-31T11:19:29Z</time>
      </trkpt>
      <trkpt lat="42.81003" lon="-0.04291">
        <ele>2234.5</ele>
        <time>2023-10-31T11:19:30Z</time>
      </trkpt>
      <trkpt lat="42.81003" lon="-0.04291">
        <ele>2234.5</ele>
        <time>2023-10-31T11:19:31Z</time>
      </trkpt>
      <trkpt lat="42.81003" lon="-0.04291">
        <ele>2234.5</ele>
        <time>2023-10-31T11:19:32Z</time>
      </trkpt>
      <trkpt lat="42.81003" lon="-0.04291">
        <ele>2234.5</ele>
        <time>2023-10-31T11:19:33Z</time>
      </trkpt>
      <trkpt lat="42.81003" lon="-0.04291">
        <ele>2234.5</ele>
        <time>2023-10-31T11:19:34Z</time>
      </trkpt>
      <trkpt lat="42.81003" lon="-0.04291">
        <ele>2234.5</ele>
        <time>2023-10-31T11:19:35Z</time>
      </trkpt>
      <trkpt lat="42.81003" lon="-0.04291">
        <ele>2234.5</ele>
        <time>2023-10-31T11:19:36Z</time>
      </trkpt>
      <trkpt lat="42.81003" lon="-0.04292">
        <ele>2234.4</ele>
        <time>2023-10-31T11:19:37Z</time>
      </trkpt>
      <trkpt lat="42.81003" lon="-0.04292">
        <ele>2234.4</ele>
        <time>2023-10-31T11:19:38Z</time>
      </trkpt>
      <trkpt lat="42.81003" lon="-0.04292">
        <ele>2234.4</ele>
        <time>2023-10-31T11:19:39Z</time>
      </trkpt>
      <trkpt lat="42.81002" lon="-0.04292">
        <ele>2234.4</ele>
        <time>2023-10-31T11:19:40Z</time>
      </trkpt>
      <trkpt lat="42.81001" lon="-0.04292">
        <ele>2234.3</ele>
        <time>2023-10-31T11:19:41Z</time>
      </trkpt>
      <trkpt lat="42.81002" lon="-0.04292">
        <ele>2234.3</ele>
        <time>2023-10-31T11:19:42Z</time>
      </trkpt>
      <trkpt lat="42.81002" lon="-0.04292">
        <ele>2234.3</ele>
        <time>2023-10-31T11:19:43Z</time>
      </trkpt>
      <trkpt lat="42.81002" lon="-0.04291">
        <ele>2234.2</ele>
        <time>2023-10-31T11:19:44Z</time>
      </trkpt>
      <trkpt lat="42.81001" lon="-0.04291">
        <ele>2234.2</ele>
        <time>2023-10-31T11:19:45Z</time>
      </trkpt>
      <trkpt lat="42.81002" lon="-0.04291">
        <ele>2234.1</ele>
        <time>2023-10-31T11:19:46Z</time>
      </trkpt>
      <trkpt lat="42.81001" lon="-0.0429">
        <ele>2234</ele>
        <time>2023-10-31T11:19:47Z</time>
      </trkpt>
      <trkpt lat="42.81" lon="-0.04288">
        <ele>2233.9</ele>
        <time>2023-10-31T11:19:48Z</time>
      </trkpt>
      <trkpt lat="42.81" lon="-0.04287">
        <ele>2233.8</ele>
        <time>2023-10-31T11:19:49Z</time>
      </trkpt>
      <trkpt lat="42.80999" lon="-0.04285">
        <ele>2233.7</ele>
        <time>2023-10-31T11:19:50Z</time>
      </trkpt>
      <trkpt lat="42.81" lon="-0.04284">
        <ele>2233.6</ele>
        <time>2023-10-31T11:19:51Z</time>
      </trkpt>
      <trkpt lat="42.81" lon="-0.04283">
        <ele>2233.5</ele>
        <time>2023-10-31T11:19:52Z</time>
      </trkpt>
      <trkpt lat="42.81001" lon="-0.04282">
        <ele>2233.4</ele>
        <time>2023-10-31T11:19:53Z</time>
      </trkpt>
      <trkpt lat="42.81001" lon="-0.04281">
        <ele>2233.3</ele>
        <time>2023-10-31T11:19:54Z</time>
      </trkpt>
      <trkpt lat="42.81001" lon="-0.0428">
        <ele>2233.2</ele>
        <time>2023-10-31T11:19:55Z</time>
      </trkpt>
      <trkpt lat="42.81001" lon="-0.04279">
        <ele>2233.1</ele>
        <time>2023-10-31T11:19:56Z</time>
      </trkpt>
      <trkpt lat="42.81001" lon="-0.0428">
        <ele>2233.1</ele>
        <time>2023-10-31T11:19:57Z</time>
      </trkpt>
      <trkpt lat="42.81001" lon="-0.04279">
        <ele>2233.1</ele>
        <time>2023-10-31T11:19:58Z</time>
      </trkpt>
      <trkpt lat="42.81001" lon="-0.04279">
        <ele>2233.1</ele>
        <time>2023-10-31T11:19:59Z</time>
      </trkpt>
      <trkpt lat="42.81001" lon="-0.04279">
        <ele>2233.1</ele>
        <time>2023-10-31T11:20:00Z</time>
      </trkpt>
      <trkpt lat="42.81001" lon="-0.04279">
        <ele>2233.1</ele>
        <time>2023-10-31T11:20:01Z</time>
      </trkpt>
      <trkpt lat="42.81002" lon="-0.04279">
        <ele>2233</ele>
        <time>2023-10-31T11:20:02Z</time>
      </trkpt>
      <trkpt lat="42.81002" lon="-0.04278">
        <ele>2233</ele>
        <time>2023-10-31T11:20:03Z</time>
      </trkpt>
      <trkpt lat="42.81002" lon="-0.04278">
        <ele>2232.9</ele>
        <time>2023-10-31T11:20:04Z</time>
      </trkpt>
      <trkpt lat="42.81002" lon="-0.04278">
        <ele>2232.9</ele>
        <time>2023-10-31T11:20:05Z</time>
      </trkpt>
      <trkpt lat="42.81003" lon="-0.04277">
        <ele>2232.8</ele>
        <time>2023-10-31T11:20:06Z</time>
      </trkpt>
      <trkpt lat="42.81002" lon="-0.04277">
        <ele>2232.8</ele>
        <time>2023-10-31T11:20:07Z</time>
      </trkpt>
      <trkpt lat="42.81003" lon="-0.04278">
        <ele>2232.8</ele>
        <time>2023-10-31T11:20:08Z</time>
      </trkpt>
      <trkpt lat="42.81003" lon="-0.04277">
        <ele>2232.7</ele>
        <time>2023-10-31T11:20:09Z</time>
      </trkpt>
      <trkpt lat="42.81003" lon="-0.04277">
        <ele>2232.7</ele>
        <time>2023-10-31T11:20:10Z</time>
      </trkpt>
      <trkpt lat="42.81003" lon="-0.04277">
        <ele>2232.7</ele>
        <time>2023-10-31T11:20:11Z</time>
      </trkpt>
      <trkpt lat="42.81003" lon="-0.04277">
        <ele>2232.7</ele>
        <time>2023-10-31T11:20:12Z</time>
      </trkpt>
      <trkpt lat="42.81003" lon="-0.04277">
        <ele>2232.7</ele>
        <time>2023-10-31T11:20:13Z</time>
      </trkpt>
      <trkpt lat="42.81003" lon="-0.04277">
        <ele>2232.6</ele>
        <time>2023-10-31T11:20:14Z</time>
      </trkpt>
      <trkpt lat="42.81003" lon="-0.04277">
        <ele>2232.5</ele>
        <time>2023-10-31T11:20:16Z</time>
      </trkpt>
      <trkpt lat="42.81004" lon="-0.04276">
        <ele>2232.5</ele>
        <time>2023-10-31T11:20:17Z</time>
      </trkpt>
      <trkpt lat="42.81004" lon="-0.04276">
        <ele>2232.4</ele>
        <time>2023-10-31T11:20:18Z</time>
      </trkpt>
      <trkpt lat="42.81003" lon="-0.04276">
        <ele>2232.4</ele>
        <time>2023-10-31T11:20:19Z</time>
      </trkpt>
      <trkpt lat="42.81003" lon="-0.04275">
        <ele>2232.4</ele>
        <time>2023-10-31T11:20:20Z</time>
      </trkpt>
      <trkpt lat="42.81003" lon="-0.04275">
        <ele>2232.3</ele>
        <time>2023-10-31T11:20:21Z</time>
      </trkpt>
      <trkpt lat="42.81003" lon="-0.04275">
        <ele>2232.3</ele>
        <time>2023-10-31T11:20:22Z</time>
      </trkpt>
      <trkpt lat="42.81003" lon="-0.04275">
        <ele>2232.3</ele>
        <time>2023-10-31T11:20:23Z</time>
      </trkpt>
      <trkpt lat="42.81003" lon="-0.04275">
        <ele>2232.2</ele>
        <time>2023-10-31T11:20:24Z</time>
      </trkpt>
      <trkpt lat="42.81003" lon="-0.04275">
        <ele>2232.2</ele>
        <time>2023-10-31T11:20:25Z</time>
      </trkpt>
      <trkpt lat="42.81003" lon="-0.04274">
        <ele>2232.1</ele>
        <time>2023-10-31T11:20:26Z</time>
      </trkpt>
      <trkpt lat="42.81003" lon="-0.04274">
        <ele>2232.1</ele>
        <time>2023-10-31T11:20:27Z</time>
      </trkpt>
      <trkpt lat="42.81004" lon="-0.04274">
        <ele>2232.1</ele>
        <time>2023-10-31T11:20:28Z</time>
      </trkpt>
      <trkpt lat="42.81003" lon="-0.04274">
        <ele>2232</ele>
        <time>2023-10-31T11:20:29Z</time>
      </trkpt>
      <trkpt lat="42.81003" lon="-0.04274">
        <ele>2231.9</ele>
        <time>2023-10-31T11:20:30Z</time>
      </trkpt>
      <trkpt lat="42.81003" lon="-0.04274">
        <ele>2231.9</ele>
        <time>2023-10-31T11:20:31Z</time>
      </trkpt>
      <trkpt lat="42.81003" lon="-0.04274">
        <ele>2231.9</ele>
        <time>2023-10-31T11:20:32Z</time>
      </trkpt>
      <trkpt lat="42.81003" lon="-0.04274">
        <ele>2231.9</ele>
        <time>2023-10-31T11:20:33Z</time>
      </trkpt>
      <trkpt lat="42.81003" lon="-0.04274">
        <ele>2231.8</ele>
        <time>2023-10-31T11:20:34Z</time>
      </trkpt>
      <trkpt lat="42.81003" lon="-0.04274">
        <ele>2231.8</ele>
        <time>2023-10-31T11:20:35Z</time>
      </trkpt>
      <trkpt lat="42.81003" lon="-0.04274">
        <ele>2231.8</ele>
        <time>2023-10-31T11:20:36Z</time>
      </trkpt>
      <trkpt lat="42.81003" lon="-0.04274">
        <ele>2231.8</ele>
        <time>2023-10-31T11:20:37Z</time>
      </trkpt>
      <trkpt lat="42.81003" lon="-0.04274">
        <ele>2231.8</ele>
        <time>2023-10-31T11:20:38Z</time>
      </trkpt>
      <trkpt lat="42.81003" lon="-0.04274">
        <ele>2231.8</ele>
        <time>2023-10-31T11:20:39Z</time>
      </trkpt>
      <trkpt lat="42.81003" lon="-0.04274">
        <ele>2231.8</ele>
        <time>2023-10-31T11:20:40Z</time>
      </trkpt>
      <trkpt lat="42.81003" lon="-0.04274">
        <ele>2231.8</ele>
        <time>2023-10-31T11:20:41Z</time>
      </trkpt>
      <trkpt lat="42.81003" lon="-0.04274">
        <ele>2231.8</ele>
        <time>2023-10-31T11:20:42Z</time>
      </trkpt>
      <trkpt lat="42.81003" lon="-0.04274">
        <ele>2231.8</ele>
        <time>2023-10-31T11:20:43Z</time>
      </trkpt>
      <trkpt lat="42.81003" lon="-0.04274">
        <ele>2231.8</ele>
        <time>2023-10-31T11:20:44Z</time>
      </trkpt>
      <trkpt lat="42.81003" lon="-0.04273">
        <ele>2231.7</ele>
        <time>2023-10-31T11:20:45Z</time>
      </trkpt>
      <trkpt lat="42.81003" lon="-0.04273">
        <ele>2231.7</ele>
        <time>2023-10-31T11:20:46Z</time>
      </trkpt>
      <trkpt lat="42.81003" lon="-0.04273">
        <ele>2231.6</ele>
        <time>2023-10-31T11:20:47Z</time>
      </trkpt>
      <trkpt lat="42.81003" lon="-0.04273">
        <ele>2231.6</ele>
        <time>2023-10-31T11:20:48Z</time>
      </trkpt>
      <trkpt lat="42.81003" lon="-0.04272">
        <ele>2231.5</ele>
        <time>2023-10-31T11:20:49Z</time>
      </trkpt>
      <trkpt lat="42.81003" lon="-0.04272">
        <ele>2231.5</ele>
        <time>2023-10-31T11:20:50Z</time>
      </trkpt>
      <trkpt lat="42.81003" lon="-0.04273">
        <ele>2231.4</ele>
        <time>2023-10-31T11:20:51Z</time>
      </trkpt>
      <trkpt lat="42.81003" lon="-0.04271">
        <ele>2231.3</ele>
        <time>2023-10-31T11:20:52Z</time>
      </trkpt>
      <trkpt lat="42.81003" lon="-0.0427">
        <ele>2231.2</ele>
        <time>2023-10-31T11:20:53Z</time>
      </trkpt>
      <trkpt lat="42.81003" lon="-0.0427">
        <ele>2231.1</ele>
        <time>2023-10-31T11:20:54Z</time>
      </trkpt>
      <trkpt lat="42.81003" lon="-0.0427">
        <ele>2231.1</ele>
        <time>2023-10-31T11:20:55Z</time>
      </trkpt>
      <trkpt lat="42.81003" lon="-0.0427">
        <ele>2231</ele>
        <time>2023-10-31T11:20:56Z</time>
      </trkpt>
      <trkpt lat="42.81003" lon="-0.0427">
        <ele>2231</ele>
        <time>2023-10-31T11:20:57Z</time>
      </trkpt>
      <trkpt lat="42.81003" lon="-0.0427">
        <ele>2231</ele>
        <time>2023-10-31T11:20:58Z</time>
      </trkpt>
      <trkpt lat="42.81003" lon="-0.0427">
        <ele>2231</ele>
        <time>2023-10-31T11:20:59Z</time>
      </trkpt>
      <trkpt lat="42.81003" lon="-0.0427">
        <ele>2230.9</ele>
        <time>2023-10-31T11:21:00Z</time>
      </trkpt>
      <trkpt lat="42.81002" lon="-0.04272">
        <ele>2230.8</ele>
        <time>2023-10-31T11:21:01Z</time>
      </trkpt>
      <trkpt lat="42.81003" lon="-0.04271">
        <ele>2230.7</ele>
        <time>2023-10-31T11:21:02Z</time>
      </trkpt>
      <trkpt lat="42.81003" lon="-0.0427">
        <ele>2230.6</ele>
        <time>2023-10-31T11:21:03Z</time>
      </trkpt>
      <trkpt lat="42.81003" lon="-0.0427">
        <ele>2230.5</ele>
        <time>2023-10-31T11:21:04Z</time>
      </trkpt>
      <trkpt lat="42.81003" lon="-0.04269">
        <ele>2230.5</ele>
        <time>2023-10-31T11:21:05Z</time>
      </trkpt>
      <trkpt lat="42.81003" lon="-0.04269">
        <ele>2230.5</ele>
        <time>2023-10-31T11:21:06Z</time>
      </trkpt>
      <trkpt lat="42.81004" lon="-0.04269">
        <ele>2230.4</ele>
        <time>2023-10-31T11:21:07Z</time>
      </trkpt>
      <trkpt lat="42.81004" lon="-0.04269">
        <ele>2230.4</ele>
        <time>2023-10-31T11:21:08Z</time>
      </trkpt>
      <trkpt lat="42.81004" lon="-0.04268">
        <ele>2230.3</ele>
        <time>2023-10-31T11:21:09Z</time>
      </trkpt>
      <trkpt lat="42.81004" lon="-0.04267">
        <ele>2230.3</ele>
        <time>2023-10-31T11:21:10Z</time>
      </trkpt>
      <trkpt lat="42.81004" lon="-0.04267">
        <ele>2230.2</ele>
        <time>2023-10-31T11:21:11Z</time>
      </trkpt>
      <trkpt lat="42.81003" lon="-0.04267">
        <ele>2230.1</ele>
        <time>2023-10-31T11:21:12Z</time>
      </trkpt>
      <trkpt lat="42.81003" lon="-0.04267">
        <ele>2230.1</ele>
        <time>2023-10-31T11:21:13Z</time>
      </trkpt>
      <trkpt lat="42.81003" lon="-0.04266">
        <ele>2230</ele>
        <time>2023-10-31T11:21:14Z</time>
      </trkpt>
      <trkpt lat="42.81002" lon="-0.04266">
        <ele>2229.9</ele>
        <time>2023-10-31T11:21:15Z</time>
      </trkpt>
      <trkpt lat="42.81002" lon="-0.04265">
        <ele>2229.8</ele>
        <time>2023-10-31T11:21:16Z</time>
      </trkpt>
      <trkpt lat="42.81002" lon="-0.04265">
        <ele>2229.8</ele>
        <time>2023-10-31T11:21:17Z</time>
      </trkpt>
      <trkpt lat="42.81002" lon="-0.04264">
        <ele>2229.6</ele>
        <time>2023-10-31T11:21:18Z</time>
      </trkpt>
      <trkpt lat="42.81002" lon="-0.04264">
        <ele>2229.6</ele>
        <time>2023-10-31T11:21:19Z</time>
      </trkpt>
      <trkpt lat="42.81002" lon="-0.04264">
        <ele>2229.6</ele>
        <time>2023-10-31T11:21:20Z</time>
      </trkpt>
      <trkpt lat="42.81002" lon="-0.04264">
        <ele>2229.6</ele>
        <time>2023-10-31T11:21:21Z</time>
      </trkpt>
      <trkpt lat="42.81002" lon="-0.04264">
        <ele>2229.5</ele>
        <time>2023-10-31T11:21:22Z</time>
      </trkpt>
      <trkpt lat="42.81002" lon="-0.04264">
        <ele>2229.5</ele>
        <time>2023-10-31T11:21:23Z</time>
      </trkpt>
      <trkpt lat="42.81002" lon="-0.04263">
        <ele>2229.5</ele>
        <time>2023-10-31T11:21:24Z</time>
      </trkpt>
      <trkpt lat="42.81001" lon="-0.04263">
        <ele>2229.4</ele>
        <time>2023-10-31T11:21:25Z</time>
      </trkpt>
      <trkpt lat="42.81001" lon="-0.04263">
        <ele>2229.4</ele>
        <time>2023-10-31T11:21:26Z</time>
      </trkpt>
      <trkpt lat="42.81001" lon="-0.04264">
        <ele>2229.4</ele>
        <time>2023-10-31T11:21:27Z</time>
      </trkpt>
      <trkpt lat="42.81001" lon="-0.04263">
        <ele>2229.3</ele>
        <time>2023-10-31T11:21:28Z</time>
      </trkpt>
      <trkpt lat="42.81001" lon="-0.04263">
        <ele>2229.3</ele>
        <time>2023-10-31T11:21:29Z</time>
      </trkpt>
      <trkpt lat="42.81001" lon="-0.04263">
        <ele>2229.3</ele>
        <time>2023-10-31T11:21:30Z</time>
      </trkpt>
      <trkpt lat="42.81001" lon="-0.04263">
        <ele>2229.2</ele>
        <time>2023-10-31T11:21:31Z</time>
      </trkpt>
      <trkpt lat="42.81001" lon="-0.04263">
        <ele>2229.2</ele>
        <time>2023-10-31T11:21:32Z</time>
      </trkpt>
      <trkpt lat="42.81001" lon="-0.04263">
        <ele>2229.2</ele>
        <time>2023-10-31T11:21:33Z</time>
      </trkpt>
      <trkpt lat="42.81001" lon="-0.04264">
        <ele>2229</ele>
        <time>2023-10-31T11:21:34Z</time>
      </trkpt>
      <trkpt lat="42.81001" lon="-0.04263">
        <ele>2228.9</ele>
        <time>2023-10-31T11:21:35Z</time>
      </trkpt>
      <trkpt lat="42.81001" lon="-0.04263">
        <ele>2228.9</ele>
        <time>2023-10-31T11:21:36Z</time>
      </trkpt>
      <trkpt lat="42.81" lon="-0.04263">
        <ele>2228.8</ele>
        <time>2023-10-31T11:21:37Z</time>
      </trkpt>
      <trkpt lat="42.81001" lon="-0.04263">
        <ele>2228.8</ele>
        <time>2023-10-31T11:21:38Z</time>
      </trkpt>
      <trkpt lat="42.81001" lon="-0.04263">
        <ele>2228.8</ele>
        <time>2023-10-31T11:21:39Z</time>
      </trkpt>
      <trkpt lat="42.81001" lon="-0.04263">
        <ele>2228.7</ele>
        <time>2023-10-31T11:21:40Z</time>
      </trkpt>
      <trkpt lat="42.81001" lon="-0.04263">
        <ele>2228.7</ele>
        <time>2023-10-31T11:21:41Z</time>
      </trkpt>
      <trkpt lat="42.81001" lon="-0.04263">
        <ele>2228.6</ele>
        <time>2023-10-31T11:21:42Z</time>
      </trkpt>
      <trkpt lat="42.81001" lon="-0.04263">
        <ele>2228.6</ele>
        <time>2023-10-31T11:21:43Z</time>
      </trkpt>
      <trkpt lat="42.81001" lon="-0.04263">
        <ele>2228.6</ele>
        <time>2023-10-31T11:21:44Z</time>
      </trkpt>
      <trkpt lat="42.81002" lon="-0.04263">
        <ele>2228.5</ele>
        <time>2023-10-31T11:21:45Z</time>
      </trkpt>
      <trkpt lat="42.81001" lon="-0.04262">
        <ele>2228.4</ele>
        <time>2023-10-31T11:21:46Z</time>
      </trkpt>
      <trkpt lat="42.81001" lon="-0.04262">
        <ele>2228.4</ele>
        <time>2023-10-31T11:21:47Z</time>
      </trkpt>
      <trkpt lat="42.81001" lon="-0.04262">
        <ele>2228.4</ele>
        <time>2023-10-31T11:21:48Z</time>
      </trkpt>
      <trkpt lat="42.81002" lon="-0.04261">
        <ele>2228.3</ele>
        <time>2023-10-31T11:21:49Z</time>
      </trkpt>
      <trkpt lat="42.81002" lon="-0.04261">
        <ele>2228.3</ele>
        <time>2023-10-31T11:21:50Z</time>
      </trkpt>
      <trkpt lat="42.81002" lon="-0.04262">
        <ele>2228.3</ele>
        <time>2023-10-31T11:21:51Z</time>
      </trkpt>
      <trkpt lat="42.81003" lon="-0.04261">
        <ele>2228.2</ele>
        <time>2023-10-31T11:21:52Z</time>
      </trkpt>
      <trkpt lat="42.81003" lon="-0.04261">
        <ele>2228.1</ele>
        <time>2023-10-31T11:21:53Z</time>
      </trkpt>
      <trkpt lat="42.81003" lon="-0.04261">
        <ele>2228.1</ele>
        <time>2023-10-31T11:21:54Z</time>
      </trkpt>
      <trkpt lat="42.81003" lon="-0.04261">
        <ele>2228.1</ele>
        <time>2023-10-31T11:21:55Z</time>
      </trkpt>
      <trkpt lat="42.81003" lon="-0.04261">
        <ele>2228.1</ele>
        <time>2023-10-31T11:21:56Z</time>
      </trkpt>
      <trkpt lat="42.81003" lon="-0.0426">
        <ele>2228</ele>
        <time>2023-10-31T11:21:57Z</time>
      </trkpt>
      <trkpt lat="42.81003" lon="-0.04259">
        <ele>2227.9</ele>
        <time>2023-10-31T11:21:58Z</time>
      </trkpt>
      <trkpt lat="42.81003" lon="-0.04259">
        <ele>2227.9</ele>
        <time>2023-10-31T11:21:59Z</time>
      </trkpt>
      <trkpt lat="42.81002" lon="-0.04259">
        <ele>2227.8</ele>
        <time>2023-10-31T11:22:00Z</time>
      </trkpt>
      <trkpt lat="42.81002" lon="-0.04258">
        <ele>2227.8</ele>
        <time>2023-10-31T11:22:01Z</time>
      </trkpt>
      <trkpt lat="42.81002" lon="-0.04258">
        <ele>2227.7</ele>
        <time>2023-10-31T11:22:02Z</time>
      </trkpt>
      <trkpt lat="42.81002" lon="-0.04258">
        <ele>2227.7</ele>
        <time>2023-10-31T11:22:03Z</time>
      </trkpt>
      <trkpt lat="42.81002" lon="-0.04257">
        <ele>2227.7</ele>
        <time>2023-10-31T11:22:04Z</time>
      </trkpt>
      <trkpt lat="42.81002" lon="-0.04258">
        <ele>2227.7</ele>
        <time>2023-10-31T11:22:05Z</time>
      </trkpt>
      <trkpt lat="42.81002" lon="-0.04257">
        <ele>2227.6</ele>
        <time>2023-10-31T11:22:06Z</time>
      </trkpt>
      <trkpt lat="42.81002" lon="-0.04257">
        <ele>2227.6</ele>
        <time>2023-10-31T11:22:07Z</time>
      </trkpt>
      <trkpt lat="42.81002" lon="-0.04257">
        <ele>2227.6</ele>
        <time>2023-10-31T11:22:08Z</time>
      </trkpt>
      <trkpt lat="42.81002" lon="-0.04257">
        <ele>2227.6</ele>
        <time>2023-10-31T11:22:09Z</time>
      </trkpt>
      <trkpt lat="42.81002" lon="-0.04257">
        <ele>2227.6</ele>
        <time>2023-10-31T11:22:10Z</time>
      </trkpt>
      <trkpt lat="42.81002" lon="-0.04257">
        <ele>2227.6</ele>
        <time>2023-10-31T11:22:11Z</time>
      </trkpt>
      <trkpt lat="42.81002" lon="-0.04257">
        <ele>2227.6</ele>
        <time>2023-10-31T11:22:12Z</time>
      </trkpt>
      <trkpt lat="42.81002" lon="-0.04257">
        <ele>2227.6</ele>
        <time>2023-10-31T11:22:13Z</time>
      </trkpt>
      <trkpt lat="42.81002" lon="-0.04257">
        <ele>2227.6</ele>
        <time>2023-10-31T11:22:14Z</time>
      </trkpt>
      <trkpt lat="42.81002" lon="-0.04257">
        <ele>2227.6</ele>
        <time>2023-10-31T11:22:15Z</time>
      </trkpt>
      <trkpt lat="42.81001" lon="-0.04257">
        <ele>2227.5</ele>
        <time>2023-10-31T11:22:16Z</time>
      </trkpt>
      <trkpt lat="42.81001" lon="-0.04257">
        <ele>2227.5</ele>
        <time>2023-10-31T11:22:17Z</time>
      </trkpt>
      <trkpt lat="42.81001" lon="-0.04257">
        <ele>2227.5</ele>
        <time>2023-10-31T11:22:18Z</time>
      </trkpt>
      <trkpt lat="42.81001" lon="-0.04257">
        <ele>2227.5</ele>
        <time>2023-10-31T11:22:19Z</time>
      </trkpt>
      <trkpt lat="42.81001" lon="-0.04257">
        <ele>2227.5</ele>
        <time>2023-10-31T11:22:20Z</time>
      </trkpt>
      <trkpt lat="42.81001" lon="-0.04257">
        <ele>2227.5</ele>
        <time>2023-10-31T11:22:22Z</time>
      </trkpt>
      <trkpt lat="42.81001" lon="-0.04257">
        <ele>2227.5</ele>
        <time>2023-10-31T11:22:23Z</time>
      </trkpt>
      <trkpt lat="42.81001" lon="-0.04257">
        <ele>2227.5</ele>
        <time>2023-10-31T11:22:24Z</time>
      </trkpt>
      <trkpt lat="42.81001" lon="-0.04257">
        <ele>2227.5</ele>
        <time>2023-10-31T11:22:25Z</time>
      </trkpt>
      <trkpt lat="42.81001" lon="-0.04257">
        <ele>2227.5</ele>
        <time>2023-10-31T11:22:26Z</time>
      </trkpt>
      <trkpt lat="42.81001" lon="-0.04257">
        <ele>2227.5</ele>
        <time>2023-10-31T11:22:27Z</time>
      </trkpt>
      <trkpt lat="42.81001" lon="-0.04257">
        <ele>2227.5</ele>
        <time>2023-10-31T11:22:28Z</time>
      </trkpt>
      <trkpt lat="42.81001" lon="-0.04257">
        <ele>2227.5</ele>
        <time>2023-10-31T11:22:29Z</time>
      </trkpt>
      <trkpt lat="42.81001" lon="-0.04257">
        <ele>2227.5</ele>
        <time>2023-10-31T11:22:30Z</time>
      </trkpt>
      <trkpt lat="42.81001" lon="-0.04258">
        <ele>2227.4</ele>
        <time>2023-10-31T11:22:31Z</time>
      </trkpt>
      <trkpt lat="42.81001" lon="-0.04258">
        <ele>2227.4</ele>
        <time>2023-10-31T11:22:32Z</time>
      </trkpt>
      <trkpt lat="42.81001" lon="-0.04258">
        <ele>2227.4</ele>
        <time>2023-10-31T11:22:33Z</time>
      </trkpt>
      <trkpt lat="42.81003" lon="-0.04257">
        <ele>2227.1</ele>
        <time>2023-10-31T11:22:34Z</time>
      </trkpt>
      <trkpt lat="42.81002" lon="-0.04257">
        <ele>2227</ele>
        <time>2023-10-31T11:22:35Z</time>
      </trkpt>
      <trkpt lat="42.81002" lon="-0.04257">
        <ele>2227</ele>
        <time>2023-10-31T11:22:36Z</time>
      </trkpt>
      <trkpt lat="42.81002" lon="-0.04257">
        <ele>2227</ele>
        <time>2023-10-31T11:22:37Z</time>
      </trkpt>
      <trkpt lat="42.81001" lon="-0.04256">
        <ele>2226.9</ele>
        <time>2023-10-31T11:22:38Z</time>
      </trkpt>
      <trkpt lat="42.81001" lon="-0.04256">
        <ele>2226.8</ele>
        <time>2023-10-31T11:22:39Z</time>
      </trkpt>
      <trkpt lat="42.81001" lon="-0.04256">
        <ele>2226.8</ele>
        <time>2023-10-31T11:22:40Z</time>
      </trkpt>
      <trkpt lat="42.81001" lon="-0.04256">
        <ele>2226.8</ele>
        <time>2023-10-31T11:22:41Z</time>
      </trkpt>
      <trkpt lat="42.81001" lon="-0.04256">
        <ele>2226.8</ele>
        <time>2023-10-31T11:22:42Z</time>
      </trkpt>
      <trkpt lat="42.81001" lon="-0.04255">
        <ele>2226.7</ele>
        <time>2023-10-31T11:22:43Z</time>
      </trkpt>
      <trkpt lat="42.81001" lon="-0.04255">
        <ele>2226.7</ele>
        <time>2023-10-31T11:22:44Z</time>
      </trkpt>
      <trkpt lat="42.81001" lon="-0.04255">
        <ele>2226.6</ele>
        <time>2023-10-31T11:22:45Z</time>
      </trkpt>
      <trkpt lat="42.81001" lon="-0.04255">
        <ele>2226.6</ele>
        <time>2023-10-31T11:22:46Z</time>
      </trkpt>
      <trkpt lat="42.81002" lon="-0.04254">
        <ele>2226.5</ele>
        <time>2023-10-31T11:22:47Z</time>
      </trkpt>
      <trkpt lat="42.81001" lon="-0.04255">
        <ele>2226.4</ele>
        <time>2023-10-31T11:22:48Z</time>
      </trkpt>
      <trkpt lat="42.81" lon="-0.04253">
        <ele>2226.2</ele>
        <time>2023-10-31T11:22:49Z</time>
      </trkpt>
      <trkpt lat="42.81001" lon="-0.04254">
        <ele>2226</ele>
        <time>2023-10-31T11:22:50Z</time>
      </trkpt>
      <trkpt lat="42.81001" lon="-0.04254">
        <ele>2226</ele>
        <time>2023-10-31T11:22:51Z</time>
      </trkpt>
      <trkpt lat="42.81001" lon="-0.04254">
        <ele>2225.9</ele>
        <time>2023-10-31T11:22:52Z</time>
      </trkpt>
      <trkpt lat="42.81001" lon="-0.04254">
        <ele>2225.9</ele>
        <time>2023-10-31T11:22:53Z</time>
      </trkpt>
      <trkpt lat="42.81001" lon="-0.04253">
        <ele>2225.9</ele>
        <time>2023-10-31T11:22:54Z</time>
      </trkpt>
      <trkpt lat="42.81001" lon="-0.04253">
        <ele>2225.8</ele>
        <time>2023-10-31T11:22:55Z</time>
      </trkpt>
      <trkpt lat="42.81001" lon="-0.04253">
        <ele>2225.8</ele>
        <time>2023-10-31T11:22:56Z</time>
      </trkpt>
      <trkpt lat="42.81001" lon="-0.04253">
        <ele>2225.7</ele>
        <time>2023-10-31T11:22:57Z</time>
      </trkpt>
      <trkpt lat="42.81001" lon="-0.04253">
        <ele>2225.7</ele>
        <time>2023-10-31T11:22:58Z</time>
      </trkpt>
      <trkpt lat="42.81001" lon="-0.04252">
        <ele>2225.7</ele>
        <time>2023-10-31T11:22:59Z</time>
      </trkpt>
      <trkpt lat="42.81001" lon="-0.04252">
        <ele>2225.6</ele>
        <time>2023-10-31T11:23:00Z</time>
      </trkpt>
      <trkpt lat="42.81001" lon="-0.04252">
        <ele>2225.6</ele>
        <time>2023-10-31T11:23:01Z</time>
      </trkpt>
      <trkpt lat="42.81001" lon="-0.04252">
        <ele>2225.6</ele>
        <time>2023-10-31T11:23:02Z</time>
      </trkpt>
      <trkpt lat="42.81" lon="-0.04255">
        <ele>2225.2</ele>
        <time>2023-10-31T11:23:03Z</time>
      </trkpt>
      <trkpt lat="42.81" lon="-0.04253">
        <ele>2224.8</ele>
        <time>2023-10-31T11:23:04Z</time>
      </trkpt>
      <trkpt lat="42.81" lon="-0.04252">
        <ele>2224.7</ele>
        <time>2023-10-31T11:23:05Z</time>
      </trkpt>
      <trkpt lat="42.81" lon="-0.04252">
        <ele>2224.7</ele>
        <time>2023-10-31T11:23:06Z</time>
      </trkpt>
      <trkpt lat="42.81" lon="-0.04252">
        <ele>2224.7</ele>
        <time>2023-10-31T11:23:07Z</time>
      </trkpt>
      <trkpt lat="42.81" lon="-0.04252">
        <ele>2224.6</ele>
        <time>2023-10-31T11:23:08Z</time>
      </trkpt>
      <trkpt lat="42.81" lon="-0.04252">
        <ele>2224.6</ele>
        <time>2023-10-31T11:23:09Z</time>
      </trkpt>
      <trkpt lat="42.81" lon="-0.04251">
        <ele>2224.5</ele>
        <time>2023-10-31T11:23:10Z</time>
      </trkpt>
      <trkpt lat="42.81" lon="-0.0425">
        <ele>2224.4</ele>
        <time>2023-10-31T11:23:11Z</time>
      </trkpt>
      <trkpt lat="42.81" lon="-0.04252">
        <ele>2224.1</ele>
        <time>2023-10-31T11:23:12Z</time>
      </trkpt>
      <trkpt lat="42.81" lon="-0.04251">
        <ele>2224</ele>
        <time>2023-10-31T11:23:13Z</time>
      </trkpt>
      <trkpt lat="42.81" lon="-0.04251">
        <ele>2224</ele>
        <time>2023-10-31T11:23:14Z</time>
      </trkpt>
      <trkpt lat="42.81" lon="-0.0425">
        <ele>2223.9</ele>
        <time>2023-10-31T11:23:15Z</time>
      </trkpt>
      <trkpt lat="42.81001" lon="-0.0425">
        <ele>2223.8</ele>
        <time>2023-10-31T11:23:16Z</time>
      </trkpt>
      <trkpt lat="42.81001" lon="-0.04249">
        <ele>2223.8</ele>
        <time>2023-10-31T11:23:17Z</time>
      </trkpt>
      <trkpt lat="42.81" lon="-0.04249">
        <ele>2223.7</ele>
        <time>2023-10-31T11:23:18Z</time>
      </trkpt>
      <trkpt lat="42.81" lon="-0.04248">
        <ele>2223.6</ele>
        <time>2023-10-31T11:23:19Z</time>
      </trkpt>
      <trkpt lat="42.81" lon="-0.04248">
        <ele>2223.5</ele>
        <time>2023-10-31T11:23:20Z</time>
      </trkpt>
      <trkpt lat="42.81" lon="-0.04248">
        <ele>2223.5</ele>
        <time>2023-10-31T11:23:21Z</time>
      </trkpt>
      <trkpt lat="42.80999" lon="-0.04249">
        <ele>2223.3</ele>
        <time>2023-10-31T11:23:22Z</time>
      </trkpt>
      <trkpt lat="42.80999" lon="-0.04248">
        <ele>2223.2</ele>
        <time>2023-10-31T11:23:23Z</time>
      </trkpt>
      <trkpt lat="42.81" lon="-0.04248">
        <ele>2223.1</ele>
        <time>2023-10-31T11:23:24Z</time>
      </trkpt>
      <trkpt lat="42.81" lon="-0.04248">
        <ele>2223.1</ele>
        <time>2023-10-31T11:23:25Z</time>
      </trkpt>
      <trkpt lat="42.80999" lon="-0.04248">
        <ele>2223</ele>
        <time>2023-10-31T11:23:26Z</time>
      </trkpt>
      <trkpt lat="42.81" lon="-0.04249">
        <ele>2222.9</ele>
        <time>2023-10-31T11:23:27Z</time>
      </trkpt>
      <trkpt lat="42.81" lon="-0.04247">
        <ele>2222.7</ele>
        <time>2023-10-31T11:23:28Z</time>
      </trkpt>
      <trkpt lat="42.81" lon="-0.04248">
        <ele>2222.6</ele>
        <time>2023-10-31T11:23:29Z</time>
      </trkpt>
      <trkpt lat="42.80999" lon="-0.04248">
        <ele>2222.6</ele>
        <time>2023-10-31T11:23:30Z</time>
      </trkpt>
      <trkpt lat="42.80999" lon="-0.04247">
        <ele>2222.4</ele>
        <time>2023-10-31T11:23:31Z</time>
      </trkpt>
      <trkpt lat="42.80999" lon="-0.04246">
        <ele>2222.3</ele>
        <time>2023-10-31T11:23:32Z</time>
      </trkpt>
      <trkpt lat="42.80999" lon="-0.04246">
        <ele>2222.3</ele>
        <time>2023-10-31T11:23:33Z</time>
      </trkpt>
      <trkpt lat="42.80999" lon="-0.04246">
        <ele>2222.2</ele>
        <time>2023-10-31T11:23:34Z</time>
      </trkpt>
      <trkpt lat="42.80999" lon="-0.04246">
        <ele>2222.2</ele>
        <time>2023-10-31T11:23:35Z</time>
      </trkpt>
      <trkpt lat="42.80999" lon="-0.04246">
        <ele>2222.2</ele>
        <time>2023-10-31T11:23:36Z</time>
      </trkpt>
      <trkpt lat="42.80999" lon="-0.04246">
        <ele>2222.1</ele>
        <time>2023-10-31T11:23:37Z</time>
      </trkpt>
      <trkpt lat="42.80998" lon="-0.04246">
        <ele>2222</ele>
        <time>2023-10-31T11:23:38Z</time>
      </trkpt>
      <trkpt lat="42.80998" lon="-0.04245">
        <ele>2221.9</ele>
        <time>2023-10-31T11:23:39Z</time>
      </trkpt>
      <trkpt lat="42.80997" lon="-0.04244">
        <ele>2221.7</ele>
        <time>2023-10-31T11:23:40Z</time>
      </trkpt>
      <trkpt lat="42.80997" lon="-0.04244">
        <ele>2221.6</ele>
        <time>2023-10-31T11:23:41Z</time>
      </trkpt>
      <trkpt lat="42.80997" lon="-0.04244">
        <ele>2221.6</ele>
        <time>2023-10-31T11:23:42Z</time>
      </trkpt>
      <trkpt lat="42.80997" lon="-0.04244">
        <ele>2221.5</ele>
        <time>2023-10-31T11:23:43Z</time>
      </trkpt>
      <trkpt lat="42.80997" lon="-0.04244">
        <ele>2221.4</ele>
        <time>2023-10-31T11:23:44Z</time>
      </trkpt>
      <trkpt lat="42.80997" lon="-0.04243">
        <ele>2221.2</ele>
        <time>2023-10-31T11:23:45Z</time>
      </trkpt>
      <trkpt lat="42.80996" lon="-0.04242">
        <ele>2221.1</ele>
        <time>2023-10-31T11:23:46Z</time>
      </trkpt>
      <trkpt lat="42.80996" lon="-0.04242">
        <ele>2221</ele>
        <time>2023-10-31T11:23:47Z</time>
      </trkpt>
      <trkpt lat="42.80996" lon="-0.04242">
        <ele>2221</ele>
        <time>2023-10-31T11:23:48Z</time>
      </trkpt>
      <trkpt lat="42.80996" lon="-0.04242">
        <ele>2221</ele>
        <time>2023-10-31T11:23:49Z</time>
      </trkpt>
      <trkpt lat="42.80996" lon="-0.04242">
        <ele>2220.9</ele>
        <time>2023-10-31T11:23:50Z</time>
      </trkpt>
      <trkpt lat="42.80996" lon="-0.04241">
        <ele>2220.8</ele>
        <time>2023-10-31T11:23:51Z</time>
      </trkpt>
      <trkpt lat="42.80995" lon="-0.04241">
        <ele>2220.8</ele>
        <time>2023-10-31T11:23:52Z</time>
      </trkpt>
      <trkpt lat="42.80995" lon="-0.04241">
        <ele>2220.7</ele>
        <time>2023-10-31T11:23:53Z</time>
      </trkpt>
      <trkpt lat="42.80995" lon="-0.04241">
        <ele>2220.7</ele>
        <time>2023-10-31T11:23:54Z</time>
      </trkpt>
      <trkpt lat="42.80995" lon="-0.0424">
        <ele>2220.5</ele>
        <time>2023-10-31T11:23:55Z</time>
      </trkpt>
      <trkpt lat="42.80993" lon="-0.04239">
        <ele>2220.1</ele>
        <time>2023-10-31T11:23:56Z</time>
      </trkpt>
      <trkpt lat="42.80993" lon="-0.04239">
        <ele>2220.1</ele>
        <time>2023-10-31T11:23:57Z</time>
      </trkpt>
      <trkpt lat="42.80993" lon="-0.04239">
        <ele>2220</ele>
        <time>2023-10-31T11:23:58Z</time>
      </trkpt>
      <trkpt lat="42.80993" lon="-0.04239">
        <ele>2219.9</ele>
        <time>2023-10-31T11:23:59Z</time>
      </trkpt>
      <trkpt lat="42.80992" lon="-0.04239">
        <ele>2219.7</ele>
        <time>2023-10-31T11:24:00Z</time>
      </trkpt>
      <trkpt lat="42.8099" lon="-0.04239">
        <ele>2219.3</ele>
        <time>2023-10-31T11:24:01Z</time>
      </trkpt>
      <trkpt lat="42.80991" lon="-0.04238">
        <ele>2219.2</ele>
        <time>2023-10-31T11:24:02Z</time>
      </trkpt>
      <trkpt lat="42.80991" lon="-0.04238">
        <ele>2219.1</ele>
        <time>2023-10-31T11:24:03Z</time>
      </trkpt>
      <trkpt lat="42.8099" lon="-0.04237">
        <ele>2219</ele>
        <time>2023-10-31T11:24:04Z</time>
      </trkpt>
      <trkpt lat="42.8099" lon="-0.04237">
        <ele>2218.8</ele>
        <time>2023-10-31T11:24:05Z</time>
      </trkpt>
      <trkpt lat="42.80989" lon="-0.04236">
        <ele>2218.5</ele>
        <time>2023-10-31T11:24:06Z</time>
      </trkpt>
      <trkpt lat="42.80989" lon="-0.04237">
        <ele>2218.5</ele>
        <time>2023-10-31T11:24:07Z</time>
      </trkpt>
      <trkpt lat="42.80989" lon="-0.04236">
        <ele>2218.4</ele>
        <time>2023-10-31T11:24:08Z</time>
      </trkpt>
      <trkpt lat="42.80987" lon="-0.04235">
        <ele>2218</ele>
        <time>2023-10-31T11:24:09Z</time>
      </trkpt>
      <trkpt lat="42.80986" lon="-0.04235">
        <ele>2217.6</ele>
        <time>2023-10-31T11:24:10Z</time>
      </trkpt>
      <trkpt lat="42.80986" lon="-0.04234">
        <ele>2217.5</ele>
        <time>2023-10-31T11:24:11Z</time>
      </trkpt>
      <trkpt lat="42.80984" lon="-0.04232">
        <ele>2217</ele>
        <time>2023-10-31T11:24:12Z</time>
      </trkpt>
      <trkpt lat="42.80985" lon="-0.04231">
        <ele>2216.8</ele>
        <time>2023-10-31T11:24:13Z</time>
      </trkpt>
      <trkpt lat="42.80985" lon="-0.0423">
        <ele>2216.5</ele>
        <time>2023-10-31T11:24:14Z</time>
      </trkpt>
      <trkpt lat="42.80985" lon="-0.04229">
        <ele>2216.3</ele>
        <time>2023-10-31T11:24:15Z</time>
      </trkpt>
      <trkpt lat="42.80986" lon="-0.04228">
        <ele>2216.1</ele>
        <time>2023-10-31T11:24:16Z</time>
      </trkpt>
      <trkpt lat="42.80985" lon="-0.04227">
        <ele>2215.9</ele>
        <time>2023-10-31T11:24:17Z</time>
      </trkpt>
      <trkpt lat="42.80985" lon="-0.04226">
        <ele>2215.8</ele>
        <time>2023-10-31T11:24:18Z</time>
      </trkpt>
      <trkpt lat="42.80985" lon="-0.04226">
        <ele>2215.7</ele>
        <time>2023-10-31T11:24:19Z</time>
      </trkpt>
      <trkpt lat="42.80984" lon="-0.04225">
        <ele>2215.5</ele>
        <time>2023-10-31T11:24:20Z</time>
      </trkpt>
      <trkpt lat="42.80984" lon="-0.04224">
        <ele>2215.3</ele>
        <time>2023-10-31T11:24:21Z</time>
      </trkpt>
      <trkpt lat="42.80984" lon="-0.04224">
        <ele>2215.2</ele>
        <time>2023-10-31T11:24:22Z</time>
      </trkpt>
      <trkpt lat="42.80984" lon="-0.04222">
        <ele>2214.9</ele>
        <time>2023-10-31T11:24:23Z</time>
      </trkpt>
      <trkpt lat="42.80984" lon="-0.04221">
        <ele>2214.8</ele>
        <time>2023-10-31T11:24:24Z</time>
      </trkpt>
      <trkpt lat="42.80984" lon="-0.0422">
        <ele>2214.6</ele>
        <time>2023-10-31T11:24:25Z</time>
      </trkpt>
      <trkpt lat="42.80983" lon="-0.0422">
        <ele>2214.5</ele>
        <time>2023-10-31T11:24:26Z</time>
      </trkpt>
      <trkpt lat="42.80983" lon="-0.04219">
        <ele>2214.4</ele>
        <time>2023-10-31T11:24:28Z</time>
      </trkpt>
      <trkpt lat="42.80983" lon="-0.04219">
        <ele>2214.3</ele>
        <time>2023-10-31T11:24:29Z</time>
      </trkpt>
      <trkpt lat="42.80983" lon="-0.04219">
        <ele>2214.3</ele>
        <time>2023-10-31T11:24:30Z</time>
      </trkpt>
      <trkpt lat="42.80983" lon="-0.04219">
        <ele>2214.2</ele>
        <time>2023-10-31T11:24:31Z</time>
      </trkpt>
      <trkpt lat="42.80983" lon="-0.04218">
        <ele>2214</ele>
        <time>2023-10-31T11:24:32Z</time>
      </trkpt>
      <trkpt lat="42.80983" lon="-0.04217">
        <ele>2213.8</ele>
        <time>2023-10-31T11:24:33Z</time>
      </trkpt>
      <trkpt lat="42.80983" lon="-0.04216">
        <ele>2213.7</ele>
        <time>2023-10-31T11:24:34Z</time>
      </trkpt>
      <trkpt lat="42.80983" lon="-0.04215">
        <ele>2213.5</ele>
        <time>2023-10-31T11:24:35Z</time>
      </trkpt>
      <trkpt lat="42.80983" lon="-0.04215">
        <ele>2213.4</ele>
        <time>2023-10-31T11:24:36Z</time>
      </trkpt>
      <trkpt lat="42.80982" lon="-0.04214">
        <ele>2213.3</ele>
        <time>2023-10-31T11:24:37Z</time>
      </trkpt>
      <trkpt lat="42.80982" lon="-0.04214">
        <ele>2213.2</ele>
        <time>2023-10-31T11:24:38Z</time>
      </trkpt>
      <trkpt lat="42.80982" lon="-0.04214">
        <ele>2213.1</ele>
        <time>2023-10-31T11:24:39Z</time>
      </trkpt>
      <trkpt lat="42.80982" lon="-0.04213">
        <ele>2213.1</ele>
        <time>2023-10-31T11:24:40Z</time>
      </trkpt>
      <trkpt lat="42.80983" lon="-0.04213">
        <ele>2212.9</ele>
        <time>2023-10-31T11:24:41Z</time>
      </trkpt>
      <trkpt lat="42.80983" lon="-0.04212">
        <ele>2212.7</ele>
        <time>2023-10-31T11:24:42Z</time>
      </trkpt>
      <trkpt lat="42.80983" lon="-0.04211">
        <ele>2212.6</ele>
        <time>2023-10-31T11:24:43Z</time>
      </trkpt>
      <trkpt lat="42.80984" lon="-0.0421">
        <ele>2212.4</ele>
        <time>2023-10-31T11:24:44Z</time>
      </trkpt>
      <trkpt lat="42.80984" lon="-0.04209">
        <ele>2212.3</ele>
        <time>2023-10-31T11:24:45Z</time>
      </trkpt>
      <trkpt lat="42.80984" lon="-0.04209">
        <ele>2212.2</ele>
        <time>2023-10-31T11:24:46Z</time>
      </trkpt>
      <trkpt lat="42.80984" lon="-0.04208">
        <ele>2212</ele>
        <time>2023-10-31T11:24:47Z</time>
      </trkpt>
      <trkpt lat="42.80984" lon="-0.04208">
        <ele>2212</ele>
        <time>2023-10-31T11:24:48Z</time>
      </trkpt>
      <trkpt lat="42.80984" lon="-0.04208">
        <ele>2211.9</ele>
        <time>2023-10-31T11:24:49Z</time>
      </trkpt>
      <trkpt lat="42.80983" lon="-0.04208">
        <ele>2211.8</ele>
        <time>2023-10-31T11:24:50Z</time>
      </trkpt>
      <trkpt lat="42.80983" lon="-0.04207">
        <ele>2211.7</ele>
        <time>2023-10-31T11:24:51Z</time>
      </trkpt>
      <trkpt lat="42.80983" lon="-0.04207">
        <ele>2211.6</ele>
        <time>2023-10-31T11:24:52Z</time>
      </trkpt>
      <trkpt lat="42.80983" lon="-0.04206">
        <ele>2211.5</ele>
        <time>2023-10-31T11:24:53Z</time>
      </trkpt>
      <trkpt lat="42.80983" lon="-0.04205">
        <ele>2211.3</ele>
        <time>2023-10-31T11:24:54Z</time>
      </trkpt>
      <trkpt lat="42.80983" lon="-0.04204">
        <ele>2211.1</ele>
        <time>2023-10-31T11:24:55Z</time>
      </trkpt>
      <trkpt lat="42.80983" lon="-0.04204">
        <ele>2211</ele>
        <time>2023-10-31T11:24:56Z</time>
      </trkpt>
      <trkpt lat="42.80983" lon="-0.04203">
        <ele>2210.8</ele>
        <time>2023-10-31T11:24:57Z</time>
      </trkpt>
      <trkpt lat="42.80982" lon="-0.04203">
        <ele>2210.6</ele>
        <time>2023-10-31T11:24:58Z</time>
      </trkpt>
      <trkpt lat="42.80981" lon="-0.04203">
        <ele>2210.4</ele>
        <time>2023-10-31T11:24:59Z</time>
      </trkpt>
      <trkpt lat="42.8098" lon="-0.04202">
        <ele>2210.2</ele>
        <time>2023-10-31T11:25:00Z</time>
      </trkpt>
      <trkpt lat="42.8098" lon="-0.04202">
        <ele>2210.1</ele>
        <time>2023-10-31T11:25:01Z</time>
      </trkpt>
      <trkpt lat="42.8098" lon="-0.04201">
        <ele>2209.9</ele>
        <time>2023-10-31T11:25:02Z</time>
      </trkpt>
      <trkpt lat="42.8098" lon="-0.042">
        <ele>2209.8</ele>
        <time>2023-10-31T11:25:03Z</time>
      </trkpt>
      <trkpt lat="42.8098" lon="-0.04199">
        <ele>2209.5</ele>
        <time>2023-10-31T11:25:04Z</time>
      </trkpt>
      <trkpt lat="42.80979" lon="-0.04197">
        <ele>2209.2</ele>
        <time>2023-10-31T11:25:05Z</time>
      </trkpt>
      <trkpt lat="42.80979" lon="-0.04196">
        <ele>2208.9</ele>
        <time>2023-10-31T11:25:06Z</time>
      </trkpt>
      <trkpt lat="42.80978" lon="-0.04195">
        <ele>2208.7</ele>
        <time>2023-10-31T11:25:07Z</time>
      </trkpt>
      <trkpt lat="42.80979" lon="-0.04194">
        <ele>2208.5</ele>
        <time>2023-10-31T11:25:08Z</time>
      </trkpt>
      <trkpt lat="42.80979" lon="-0.04194">
        <ele>2208.4</ele>
        <time>2023-10-31T11:25:09Z</time>
      </trkpt>
      <trkpt lat="42.80979" lon="-0.04193">
        <ele>2208.2</ele>
        <time>2023-10-31T11:25:10Z</time>
      </trkpt>
      <trkpt lat="42.80978" lon="-0.04192">
        <ele>2208</ele>
        <time>2023-10-31T11:25:11Z</time>
      </trkpt>
      <trkpt lat="42.80978" lon="-0.04192">
        <ele>2207.9</ele>
        <time>2023-10-31T11:25:12Z</time>
      </trkpt>
      <trkpt lat="42.80978" lon="-0.04191">
        <ele>2207.7</ele>
        <time>2023-10-31T11:25:13Z</time>
      </trkpt>
      <trkpt lat="42.80978" lon="-0.0419">
        <ele>2207.6</ele>
        <time>2023-10-31T11:25:14Z</time>
      </trkpt>
      <trkpt lat="42.80978" lon="-0.0419">
        <ele>2207.5</ele>
        <time>2023-10-31T11:25:15Z</time>
      </trkpt>
      <trkpt lat="42.80978" lon="-0.04189">
        <ele>2207.4</ele>
        <time>2023-10-31T11:25:16Z</time>
      </trkpt>
      <trkpt lat="42.80978" lon="-0.04189">
        <ele>2207.2</ele>
        <time>2023-10-31T11:25:17Z</time>
      </trkpt>
      <trkpt lat="42.80978" lon="-0.04188">
        <ele>2207.1</ele>
        <time>2023-10-31T11:25:18Z</time>
      </trkpt>
      <trkpt lat="42.80978" lon="-0.04187">
        <ele>2206.9</ele>
        <time>2023-10-31T11:25:19Z</time>
      </trkpt>
      <trkpt lat="42.80979" lon="-0.04186">
        <ele>2206.7</ele>
        <time>2023-10-31T11:25:20Z</time>
      </trkpt>
      <trkpt lat="42.80979" lon="-0.04187">
        <ele>2206.7</ele>
        <time>2023-10-31T11:25:21Z</time>
      </trkpt>
      <trkpt lat="42.80978" lon="-0.04186">
        <ele>2206.6</ele>
        <time>2023-10-31T11:25:22Z</time>
      </trkpt>
      <trkpt lat="42.80978" lon="-0.04186">
        <ele>2206.5</ele>
        <time>2023-10-31T11:25:23Z</time>
      </trkpt>
      <trkpt lat="42.80978" lon="-0.04186">
        <ele>2206.4</ele>
        <time>2023-10-31T11:25:24Z</time>
      </trkpt>
      <trkpt lat="42.80978" lon="-0.04186">
        <ele>2206.4</ele>
        <time>2023-10-31T11:25:25Z</time>
      </trkpt>
      <trkpt lat="42.80978" lon="-0.04185">
        <ele>2206.2</ele>
        <time>2023-10-31T11:25:26Z</time>
      </trkpt>
      <trkpt lat="42.80978" lon="-0.04184">
        <ele>2206</ele>
        <time>2023-10-31T11:25:27Z</time>
      </trkpt>
      <trkpt lat="42.80979" lon="-0.04185">
        <ele>2205.8</ele>
        <time>2023-10-31T11:25:28Z</time>
      </trkpt>
      <trkpt lat="42.8098" lon="-0.04183">
        <ele>2205.3</ele>
        <time>2023-10-31T11:25:29Z</time>
      </trkpt>
      <trkpt lat="42.8098" lon="-0.04183">
        <ele>2205.2</ele>
        <time>2023-10-31T11:25:30Z</time>
      </trkpt>
      <trkpt lat="42.8098" lon="-0.04183">
        <ele>2205.2</ele>
        <time>2023-10-31T11:25:31Z</time>
      </trkpt>
      <trkpt lat="42.8098" lon="-0.04183">
        <ele>2205.1</ele>
        <time>2023-10-31T11:25:32Z</time>
      </trkpt>
      <trkpt lat="42.80981" lon="-0.04182">
        <ele>2204.9</ele>
        <time>2023-10-31T11:25:33Z</time>
      </trkpt>
      <trkpt lat="42.80981" lon="-0.04181">
        <ele>2204.7</ele>
        <time>2023-10-31T11:25:34Z</time>
      </trkpt>
      <trkpt lat="42.80981" lon="-0.0418">
        <ele>2204.4</ele>
        <time>2023-10-31T11:25:35Z</time>
      </trkpt>
      <trkpt lat="42.80982" lon="-0.04178">
        <ele>2204.1</ele>
        <time>2023-10-31T11:25:36Z</time>
      </trkpt>
      <trkpt lat="42.80982" lon="-0.04178">
        <ele>2204</ele>
        <time>2023-10-31T11:25:37Z</time>
      </trkpt>
      <trkpt lat="42.80982" lon="-0.04177">
        <ele>2203.9</ele>
        <time>2023-10-31T11:25:38Z</time>
      </trkpt>
      <trkpt lat="42.80982" lon="-0.04176">
        <ele>2203.7</ele>
        <time>2023-10-31T11:25:39Z</time>
      </trkpt>
      <trkpt lat="42.80982" lon="-0.04175">
        <ele>2203.5</ele>
        <time>2023-10-31T11:25:40Z</time>
      </trkpt>
      <trkpt lat="42.80982" lon="-0.04175">
        <ele>2203.4</ele>
        <time>2023-10-31T11:25:41Z</time>
      </trkpt>
      <trkpt lat="42.80982" lon="-0.04174">
        <ele>2203.2</ele>
        <time>2023-10-31T11:25:42Z</time>
      </trkpt>
      <trkpt lat="42.80982" lon="-0.04173">
        <ele>2203</ele>
        <time>2023-10-31T11:25:43Z</time>
      </trkpt>
      <trkpt lat="42.80982" lon="-0.04172">
        <ele>2202.8</ele>
        <time>2023-10-31T11:25:44Z</time>
      </trkpt>
      <trkpt lat="42.80983" lon="-0.04171">
        <ele>2202.6</ele>
        <time>2023-10-31T11:25:45Z</time>
      </trkpt>
      <trkpt lat="42.80983" lon="-0.0417">
        <ele>2202.4</ele>
        <time>2023-10-31T11:25:46Z</time>
      </trkpt>
      <trkpt lat="42.80982" lon="-0.04168">
        <ele>2202.1</ele>
        <time>2023-10-31T11:25:47Z</time>
      </trkpt>
      <trkpt lat="42.80982" lon="-0.04168">
        <ele>2202</ele>
        <time>2023-10-31T11:25:48Z</time>
      </trkpt>
      <trkpt lat="42.80983" lon="-0.04168">
        <ele>2201.9</ele>
        <time>2023-10-31T11:25:49Z</time>
      </trkpt>
      <trkpt lat="42.80983" lon="-0.04168">
        <ele>2201.8</ele>
        <time>2023-10-31T11:25:50Z</time>
      </trkpt>
      <trkpt lat="42.80984" lon="-0.04166">
        <ele>2201.5</ele>
        <time>2023-10-31T11:25:51Z</time>
      </trkpt>
      <trkpt lat="42.80983" lon="-0.04165">
        <ele>2201.3</ele>
        <time>2023-10-31T11:25:52Z</time>
      </trkpt>
      <trkpt lat="42.80983" lon="-0.04164">
        <ele>2201.1</ele>
        <time>2023-10-31T11:25:53Z</time>
      </trkpt>
      <trkpt lat="42.80983" lon="-0.04163">
        <ele>2200.9</ele>
        <time>2023-10-31T11:25:54Z</time>
      </trkpt>
      <trkpt lat="42.80984" lon="-0.04163">
        <ele>2200.8</ele>
        <time>2023-10-31T11:25:55Z</time>
      </trkpt>
      <trkpt lat="42.80984" lon="-0.04162">
        <ele>2200.6</ele>
        <time>2023-10-31T11:25:56Z</time>
      </trkpt>
      <trkpt lat="42.80984" lon="-0.04161">
        <ele>2200.6</ele>
        <time>2023-10-31T11:25:57Z</time>
      </trkpt>
      <trkpt lat="42.80983" lon="-0.0416">
        <ele>2200.3</ele>
        <time>2023-10-31T11:25:58Z</time>
      </trkpt>
      <trkpt lat="42.80983" lon="-0.0416">
        <ele>2200.2</ele>
        <time>2023-10-31T11:25:59Z</time>
      </trkpt>
      <trkpt lat="42.80982" lon="-0.0416">
        <ele>2200.1</ele>
        <time>2023-10-31T11:26:00Z</time>
      </trkpt>
      <trkpt lat="42.80982" lon="-0.04159">
        <ele>2200</ele>
        <time>2023-10-31T11:26:01Z</time>
      </trkpt>
      <trkpt lat="42.80982" lon="-0.04159">
        <ele>2199.8</ele>
        <time>2023-10-31T11:26:02Z</time>
      </trkpt>
      <trkpt lat="42.80982" lon="-0.04158">
        <ele>2199.8</ele>
        <time>2023-10-31T11:26:03Z</time>
      </trkpt>
      <trkpt lat="42.80982" lon="-0.04158">
        <ele>2199.7</ele>
        <time>2023-10-31T11:26:04Z</time>
      </trkpt>
      <trkpt lat="42.80982" lon="-0.04157">
        <ele>2199.6</ele>
        <time>2023-10-31T11:26:05Z</time>
      </trkpt>
      <trkpt lat="42.80982" lon="-0.04157">
        <ele>2199.5</ele>
        <time>2023-10-31T11:26:06Z</time>
      </trkpt>
      <trkpt lat="42.80983" lon="-0.04156">
        <ele>2199.4</ele>
        <time>2023-10-31T11:26:07Z</time>
      </trkpt>
      <trkpt lat="42.80983" lon="-0.04156">
        <ele>2199.4</ele>
        <time>2023-10-31T11:26:08Z</time>
      </trkpt>
      <trkpt lat="42.80983" lon="-0.04155">
        <ele>2199.3</ele>
        <time>2023-10-31T11:26:09Z</time>
      </trkpt>
      <trkpt lat="42.80983" lon="-0.04155">
        <ele>2199.2</ele>
        <time>2023-10-31T11:26:10Z</time>
      </trkpt>
      <trkpt lat="42.80983" lon="-0.04153">
        <ele>2199</ele>
        <time>2023-10-31T11:26:11Z</time>
      </trkpt>
      <trkpt lat="42.80982" lon="-0.04152">
        <ele>2198.8</ele>
        <time>2023-10-31T11:26:12Z</time>
      </trkpt>
      <trkpt lat="42.80982" lon="-0.04151">
        <ele>2198.6</ele>
        <time>2023-10-31T11:26:13Z</time>
      </trkpt>
      <trkpt lat="42.80982" lon="-0.0415">
        <ele>2198.5</ele>
        <time>2023-10-31T11:26:14Z</time>
      </trkpt>
      <trkpt lat="42.80981" lon="-0.0415">
        <ele>2198.4</ele>
        <time>2023-10-31T11:26:15Z</time>
      </trkpt>
      <trkpt lat="42.80981" lon="-0.04149">
        <ele>2198.3</ele>
        <time>2023-10-31T11:26:16Z</time>
      </trkpt>
      <trkpt lat="42.80981" lon="-0.04148">
        <ele>2198.2</ele>
        <time>2023-10-31T11:26:17Z</time>
      </trkpt>
      <trkpt lat="42.80981" lon="-0.04147">
        <ele>2198.1</ele>
        <time>2023-10-31T11:26:18Z</time>
      </trkpt>
      <trkpt lat="42.80981" lon="-0.04147">
        <ele>2198</ele>
        <time>2023-10-31T11:26:19Z</time>
      </trkpt>
      <trkpt lat="42.8098" lon="-0.04146">
        <ele>2197.8</ele>
        <time>2023-10-31T11:26:20Z</time>
      </trkpt>
      <trkpt lat="42.80979" lon="-0.04147">
        <ele>2197.7</ele>
        <time>2023-10-31T11:26:21Z</time>
      </trkpt>
      <trkpt lat="42.80979" lon="-0.04147">
        <ele>2197.6</ele>
        <time>2023-10-31T11:26:22Z</time>
      </trkpt>
      <trkpt lat="42.80978" lon="-0.04145">
        <ele>2197.4</ele>
        <time>2023-10-31T11:26:23Z</time>
      </trkpt>
      <trkpt lat="42.80978" lon="-0.04144">
        <ele>2197.3</ele>
        <time>2023-10-31T11:26:24Z</time>
      </trkpt>
      <trkpt lat="42.80978" lon="-0.04144">
        <ele>2197.2</ele>
        <time>2023-10-31T11:26:25Z</time>
      </trkpt>
      <trkpt lat="42.80977" lon="-0.04144">
        <ele>2197.2</ele>
        <time>2023-10-31T11:26:26Z</time>
      </trkpt>
      <trkpt lat="42.80977" lon="-0.04144">
        <ele>2197.1</ele>
        <time>2023-10-31T11:26:27Z</time>
      </trkpt>
      <trkpt lat="42.80977" lon="-0.04145">
        <ele>2197.1</ele>
        <time>2023-10-31T11:26:28Z</time>
      </trkpt>
      <trkpt lat="42.80977" lon="-0.04145">
        <ele>2197.1</ele>
        <time>2023-10-31T11:26:29Z</time>
      </trkpt>
      <trkpt lat="42.80977" lon="-0.04145">
        <ele>2197</ele>
        <time>2023-10-31T11:26:30Z</time>
      </trkpt>
      <trkpt lat="42.80977" lon="-0.04145">
        <ele>2197</ele>
        <time>2023-10-31T11:26:31Z</time>
      </trkpt>
      <trkpt lat="42.80977" lon="-0.04145">
        <ele>2197</ele>
        <time>2023-10-31T11:26:32Z</time>
      </trkpt>
      <trkpt lat="42.80977" lon="-0.04145">
        <ele>2197</ele>
        <time>2023-10-31T11:26:34Z</time>
      </trkpt>
      <trkpt lat="42.80977" lon="-0.04145">
        <ele>2197</ele>
        <time>2023-10-31T11:26:35Z</time>
      </trkpt>
      <trkpt lat="42.80977" lon="-0.04145">
        <ele>2197</ele>
        <time>2023-10-31T11:26:36Z</time>
      </trkpt>
      <trkpt lat="42.80977" lon="-0.04145">
        <ele>2197</ele>
        <time>2023-10-31T11:26:37Z</time>
      </trkpt>
      <trkpt lat="42.80977" lon="-0.04145">
        <ele>2196.9</ele>
        <time>2023-10-31T11:26:38Z</time>
      </trkpt>
      <trkpt lat="42.80977" lon="-0.04145">
        <ele>2196.9</ele>
        <time>2023-10-31T11:26:39Z</time>
      </trkpt>
      <trkpt lat="42.80977" lon="-0.04145">
        <ele>2196.9</ele>
        <time>2023-10-31T11:26:40Z</time>
      </trkpt>
      <trkpt lat="42.80977" lon="-0.04145">
        <ele>2196.9</ele>
        <time>2023-10-31T11:26:41Z</time>
      </trkpt>
      <trkpt lat="42.80977" lon="-0.04145">
        <ele>2196.9</ele>
        <time>2023-10-31T11:26:43Z</time>
      </trkpt>
      <trkpt lat="42.80978" lon="-0.04145">
        <ele>2196.7</ele>
        <time>2023-10-31T11:26:44Z</time>
      </trkpt>
      <trkpt lat="42.80978" lon="-0.04145">
        <ele>2196.6</ele>
        <time>2023-10-31T11:26:46Z</time>
      </trkpt>
      <trkpt lat="42.80977" lon="-0.04144">
        <ele>2196.4</ele>
        <time>2023-10-31T11:26:47Z</time>
      </trkpt>
      <trkpt lat="42.80977" lon="-0.04144">
        <ele>2196.4</ele>
        <time>2023-10-31T11:26:48Z</time>
      </trkpt>
      <trkpt lat="42.80977" lon="-0.04143">
        <ele>2196.3</ele>
        <time>2023-10-31T11:26:49Z</time>
      </trkpt>
      <trkpt lat="42.80978" lon="-0.04144">
        <ele>2196.2</ele>
        <time>2023-10-31T11:26:50Z</time>
      </trkpt>
      <trkpt lat="42.80979" lon="-0.04142">
        <ele>2195.9</ele>
        <time>2023-10-31T11:26:51Z</time>
      </trkpt>
      <trkpt lat="42.80979" lon="-0.04142">
        <ele>2195.8</ele>
        <time>2023-10-31T11:26:52Z</time>
      </trkpt>
      <trkpt lat="42.80979" lon="-0.0414">
        <ele>2195.6</ele>
        <time>2023-10-31T11:26:53Z</time>
      </trkpt>
      <trkpt lat="42.80979" lon="-0.04139">
        <ele>2195.5</ele>
        <time>2023-10-31T11:26:54Z</time>
      </trkpt>
      <trkpt lat="42.80979" lon="-0.04138">
        <ele>2195.4</ele>
        <time>2023-10-31T11:26:55Z</time>
      </trkpt>
      <trkpt lat="42.80979" lon="-0.04137">
        <ele>2195.2</ele>
        <time>2023-10-31T11:26:56Z</time>
      </trkpt>
      <trkpt lat="42.80979" lon="-0.04135">
        <ele>2195</ele>
        <time>2023-10-31T11:26:57Z</time>
      </trkpt>
      <trkpt lat="42.80979" lon="-0.04134">
        <ele>2194.9</ele>
        <time>2023-10-31T11:26:58Z</time>
      </trkpt>
      <trkpt lat="42.80979" lon="-0.04134">
        <ele>2194.8</ele>
        <time>2023-10-31T11:26:59Z</time>
      </trkpt>
      <trkpt lat="42.8098" lon="-0.04133">
        <ele>2194.6</ele>
        <time>2023-10-31T11:27:00Z</time>
      </trkpt>
      <trkpt lat="42.8098" lon="-0.04131">
        <ele>2194.4</ele>
        <time>2023-10-31T11:27:01Z</time>
      </trkpt>
      <trkpt lat="42.8098" lon="-0.04129">
        <ele>2194.2</ele>
        <time>2023-10-31T11:27:02Z</time>
      </trkpt>
      <trkpt lat="42.8098" lon="-0.04128">
        <ele>2194.1</ele>
        <time>2023-10-31T11:27:03Z</time>
      </trkpt>
      <trkpt lat="42.8098" lon="-0.04128">
        <ele>2194</ele>
        <time>2023-10-31T11:27:04Z</time>
      </trkpt>
      <trkpt lat="42.8098" lon="-0.04127">
        <ele>2193.9</ele>
        <time>2023-10-31T11:27:05Z</time>
      </trkpt>
      <trkpt lat="42.8098" lon="-0.04126">
        <ele>2193.8</ele>
        <time>2023-10-31T11:27:06Z</time>
      </trkpt>
      <trkpt lat="42.80979" lon="-0.04125">
        <ele>2193.6</ele>
        <time>2023-10-31T11:27:07Z</time>
      </trkpt>
      <trkpt lat="42.80979" lon="-0.04124">
        <ele>2193.4</ele>
        <time>2023-10-31T11:27:08Z</time>
      </trkpt>
      <trkpt lat="42.8098" lon="-0.04123">
        <ele>2193.2</ele>
        <time>2023-10-31T11:27:09Z</time>
      </trkpt>
      <trkpt lat="42.8098" lon="-0.04121">
        <ele>2192.9</ele>
        <time>2023-10-31T11:27:10Z</time>
      </trkpt>
      <trkpt lat="42.8098" lon="-0.0412">
        <ele>2192.7</ele>
        <time>2023-10-31T11:27:11Z</time>
      </trkpt>
      <trkpt lat="42.80979" lon="-0.04118">
        <ele>2192.5</ele>
        <time>2023-10-31T11:27:12Z</time>
      </trkpt>
      <trkpt lat="42.80978" lon="-0.04117">
        <ele>2192.3</ele>
        <time>2023-10-31T11:27:13Z</time>
      </trkpt>
      <trkpt lat="42.80978" lon="-0.04117">
        <ele>2192.2</ele>
        <time>2023-10-31T11:27:14Z</time>
      </trkpt>
      <trkpt lat="42.80978" lon="-0.04116">
        <ele>2192.1</ele>
        <time>2023-10-31T11:27:15Z</time>
      </trkpt>
      <trkpt lat="42.80978" lon="-0.04115">
        <ele>2191.9</ele>
        <time>2023-10-31T11:27:16Z</time>
      </trkpt>
      <trkpt lat="42.80977" lon="-0.04112">
        <ele>2191.4</ele>
        <time>2023-10-31T11:27:17Z</time>
      </trkpt>
      <trkpt lat="42.80978" lon="-0.04111">
        <ele>2191.3</ele>
        <time>2023-10-31T11:27:18Z</time>
      </trkpt>
      <trkpt lat="42.80978" lon="-0.0411">
        <ele>2191</ele>
        <time>2023-10-31T11:27:19Z</time>
      </trkpt>
      <trkpt lat="42.80978" lon="-0.04109">
        <ele>2190.9</ele>
        <time>2023-10-31T11:27:20Z</time>
      </trkpt>
      <trkpt lat="42.80977" lon="-0.04108">
        <ele>2190.6</ele>
        <time>2023-10-31T11:27:21Z</time>
      </trkpt>
      <trkpt lat="42.80977" lon="-0.04108">
        <ele>2190.6</ele>
        <time>2023-10-31T11:27:22Z</time>
      </trkpt>
      <trkpt lat="42.80977" lon="-0.04108">
        <ele>2190.5</ele>
        <time>2023-10-31T11:27:23Z</time>
      </trkpt>
      <trkpt lat="42.80977" lon="-0.04108">
        <ele>2190.4</ele>
        <time>2023-10-31T11:27:24Z</time>
      </trkpt>
      <trkpt lat="42.80977" lon="-0.04108">
        <ele>2190.2</ele>
        <time>2023-10-31T11:27:25Z</time>
      </trkpt>
      <trkpt lat="42.80976" lon="-0.04106">
        <ele>2189.9</ele>
        <time>2023-10-31T11:27:26Z</time>
      </trkpt>
      <trkpt lat="42.80975" lon="-0.04105">
        <ele>2189.7</ele>
        <time>2023-10-31T11:27:27Z</time>
      </trkpt>
      <trkpt lat="42.80976" lon="-0.04104">
        <ele>2189.5</ele>
        <time>2023-10-31T11:27:28Z</time>
      </trkpt>
      <trkpt lat="42.80976" lon="-0.04103">
        <ele>2189.3</ele>
        <time>2023-10-31T11:27:29Z</time>
      </trkpt>
      <trkpt lat="42.80975" lon="-0.04102">
        <ele>2189.1</ele>
        <time>2023-10-31T11:27:30Z</time>
      </trkpt>
      <trkpt lat="42.80975" lon="-0.04101">
        <ele>2188.9</ele>
        <time>2023-10-31T11:27:31Z</time>
      </trkpt>
      <trkpt lat="42.80975" lon="-0.04099">
        <ele>2188.7</ele>
        <time>2023-10-31T11:27:32Z</time>
      </trkpt>
      <trkpt lat="42.80975" lon="-0.04099">
        <ele>2188.6</ele>
        <time>2023-10-31T11:27:33Z</time>
      </trkpt>
      <trkpt lat="42.80975" lon="-0.04098">
        <ele>2188.4</ele>
        <time>2023-10-31T11:27:34Z</time>
      </trkpt>
      <trkpt lat="42.80975" lon="-0.04097">
        <ele>2188.3</ele>
        <time>2023-10-31T11:27:35Z</time>
      </trkpt>
      <trkpt lat="42.80975" lon="-0.04097">
        <ele>2188.2</ele>
        <time>2023-10-31T11:27:36Z</time>
      </trkpt>
      <trkpt lat="42.80975" lon="-0.04096">
        <ele>2188.1</ele>
        <time>2023-10-31T11:27:37Z</time>
      </trkpt>
      <trkpt lat="42.80975" lon="-0.04096">
        <ele>2188</ele>
        <time>2023-10-31T11:27:38Z</time>
      </trkpt>
      <trkpt lat="42.80974" lon="-0.04096">
        <ele>2187.9</ele>
        <time>2023-10-31T11:27:39Z</time>
      </trkpt>
      <trkpt lat="42.80974" lon="-0.04095">
        <ele>2187.7</ele>
        <time>2023-10-31T11:27:40Z</time>
      </trkpt>
      <trkpt lat="42.80974" lon="-0.04095">
        <ele>2187.6</ele>
        <time>2023-10-31T11:27:41Z</time>
      </trkpt>
      <trkpt lat="42.80973" lon="-0.04093">
        <ele>2187.3</ele>
        <time>2023-10-31T11:27:42Z</time>
      </trkpt>
      <trkpt lat="42.80972" lon="-0.0409">
        <ele>2186.8</ele>
        <time>2023-10-31T11:27:43Z</time>
      </trkpt>
      <trkpt lat="42.80973" lon="-0.04089">
        <ele>2186.6</ele>
        <time>2023-10-31T11:27:44Z</time>
      </trkpt>
      <trkpt lat="42.80974" lon="-0.04088">
        <ele>2186.4</ele>
        <time>2023-10-31T11:27:45Z</time>
      </trkpt>
      <trkpt lat="42.80975" lon="-0.04088">
        <ele>2186.2</ele>
        <time>2023-10-31T11:27:46Z</time>
      </trkpt>
      <trkpt lat="42.80975" lon="-0.04087">
        <ele>2186</ele>
        <time>2023-10-31T11:27:47Z</time>
      </trkpt>
      <trkpt lat="42.80976" lon="-0.04086">
        <ele>2185.8</ele>
        <time>2023-10-31T11:27:48Z</time>
      </trkpt>
      <trkpt lat="42.80976" lon="-0.04085">
        <ele>2185.6</ele>
        <time>2023-10-31T11:27:49Z</time>
      </trkpt>
      <trkpt lat="42.80976" lon="-0.04084">
        <ele>2185.4</ele>
        <time>2023-10-31T11:27:50Z</time>
      </trkpt>
      <trkpt lat="42.80977" lon="-0.04083">
        <ele>2185.3</ele>
        <time>2023-10-31T11:27:51Z</time>
      </trkpt>
      <trkpt lat="42.80977" lon="-0.04083">
        <ele>2185.2</ele>
        <time>2023-10-31T11:27:52Z</time>
      </trkpt>
      <trkpt lat="42.80977" lon="-0.04082">
        <ele>2185.1</ele>
        <time>2023-10-31T11:27:53Z</time>
      </trkpt>
      <trkpt lat="42.80976" lon="-0.04081">
        <ele>2184.9</ele>
        <time>2023-10-31T11:27:54Z</time>
      </trkpt>
      <trkpt lat="42.80976" lon="-0.04081">
        <ele>2184.8</ele>
        <time>2023-10-31T11:27:55Z</time>
      </trkpt>
      <trkpt lat="42.80976" lon="-0.0408">
        <ele>2184.7</ele>
        <time>2023-10-31T11:27:56Z</time>
      </trkpt>
      <trkpt lat="42.80975" lon="-0.04079">
        <ele>2184.4</ele>
        <time>2023-10-31T11:27:57Z</time>
      </trkpt>
      <trkpt lat="42.80976" lon="-0.04078">
        <ele>2184.3</ele>
        <time>2023-10-31T11:27:58Z</time>
      </trkpt>
      <trkpt lat="42.80976" lon="-0.04078">
        <ele>2184.2</ele>
        <time>2023-10-31T11:27:59Z</time>
      </trkpt>
      <trkpt lat="42.80975" lon="-0.04077">
        <ele>2184</ele>
        <time>2023-10-31T11:28:00Z</time>
      </trkpt>
      <trkpt lat="42.80975" lon="-0.04076">
        <ele>2183.9</ele>
        <time>2023-10-31T11:28:01Z</time>
      </trkpt>
      <trkpt lat="42.80975" lon="-0.04076">
        <ele>2183.8</ele>
        <time>2023-10-31T11:28:02Z</time>
      </trkpt>
      <trkpt lat="42.80976" lon="-0.04075">
        <ele>2183.7</ele>
        <time>2023-10-31T11:28:03Z</time>
      </trkpt>
      <trkpt lat="42.80976" lon="-0.04074">
        <ele>2183.5</ele>
        <time>2023-10-31T11:28:04Z</time>
      </trkpt>
      <trkpt lat="42.80975" lon="-0.04073">
        <ele>2183.3</ele>
        <time>2023-10-31T11:28:05Z</time>
      </trkpt>
      <trkpt lat="42.80975" lon="-0.04072">
        <ele>2183.1</ele>
        <time>2023-10-31T11:28:06Z</time>
      </trkpt>
      <trkpt lat="42.80976" lon="-0.04071">
        <ele>2183</ele>
        <time>2023-10-31T11:28:07Z</time>
      </trkpt>
      <trkpt lat="42.80975" lon="-0.0407">
        <ele>2182.7</ele>
        <time>2023-10-31T11:28:08Z</time>
      </trkpt>
      <trkpt lat="42.80975" lon="-0.04069">
        <ele>2182.7</ele>
        <time>2023-10-31T11:28:09Z</time>
      </trkpt>
      <trkpt lat="42.80975" lon="-0.04068">
        <ele>2182.5</ele>
        <time>2023-10-31T11:28:10Z</time>
      </trkpt>
      <trkpt lat="42.80975" lon="-0.04069">
        <ele>2182.4</ele>
        <time>2023-10-31T11:28:11Z</time>
      </trkpt>
      <trkpt lat="42.80975" lon="-0.04069">
        <ele>2182.4</ele>
        <time>2023-10-31T11:28:12Z</time>
      </trkpt>
      <trkpt lat="42.80975" lon="-0.04068">
        <ele>2182.2</ele>
        <time>2023-10-31T11:28:13Z</time>
      </trkpt>
      <trkpt lat="42.80975" lon="-0.04068">
        <ele>2182.1</ele>
        <time>2023-10-31T11:28:14Z</time>
      </trkpt>
      <trkpt lat="42.80975" lon="-0.04067">
        <ele>2182</ele>
        <time>2023-10-31T11:28:15Z</time>
      </trkpt>
      <trkpt lat="42.80974" lon="-0.04067">
        <ele>2181.9</ele>
        <time>2023-10-31T11:28:16Z</time>
      </trkpt>
      <trkpt lat="42.80974" lon="-0.04066">
        <ele>2181.8</ele>
        <time>2023-10-31T11:28:17Z</time>
      </trkpt>
      <trkpt lat="42.80974" lon="-0.04067">
        <ele>2181.7</ele>
        <time>2023-10-31T11:28:18Z</time>
      </trkpt>
      <trkpt lat="42.80974" lon="-0.04066">
        <ele>2181.6</ele>
        <time>2023-10-31T11:28:19Z</time>
      </trkpt>
      <trkpt lat="42.80974" lon="-0.04066">
        <ele>2181.6</ele>
        <time>2023-10-31T11:28:20Z</time>
      </trkpt>
      <trkpt lat="42.80974" lon="-0.04066">
        <ele>2181.4</ele>
        <time>2023-10-31T11:28:21Z</time>
      </trkpt>
      <trkpt lat="42.80974" lon="-0.04065">
        <ele>2181.4</ele>
        <time>2023-10-31T11:28:22Z</time>
      </trkpt>
      <trkpt lat="42.80974" lon="-0.04065">
        <ele>2181.3</ele>
        <time>2023-10-31T11:28:23Z</time>
      </trkpt>
      <trkpt lat="42.80975" lon="-0.04064">
        <ele>2181.2</ele>
        <time>2023-10-31T11:28:24Z</time>
      </trkpt>
      <trkpt lat="42.80974" lon="-0.04064">
        <ele>2181.1</ele>
        <time>2023-10-31T11:28:25Z</time>
      </trkpt>
      <trkpt lat="42.80975" lon="-0.04064">
        <ele>2181.1</ele>
        <time>2023-10-31T11:28:26Z</time>
      </trkpt>
      <trkpt lat="42.80975" lon="-0.04064">
        <ele>2181</ele>
        <time>2023-10-31T11:28:27Z</time>
      </trkpt>
      <trkpt lat="42.80975" lon="-0.04064">
        <ele>2181</ele>
        <time>2023-10-31T11:28:28Z</time>
      </trkpt>
      <trkpt lat="42.80975" lon="-0.04064">
        <ele>2180.9</ele>
        <time>2023-10-31T11:28:29Z</time>
      </trkpt>
      <trkpt lat="42.80975" lon="-0.04064">
        <ele>2180.9</ele>
        <time>2023-10-31T11:28:30Z</time>
      </trkpt>
      <trkpt lat="42.80975" lon="-0.04064">
        <ele>2180.9</ele>
        <time>2023-10-31T11:28:31Z</time>
      </trkpt>
      <trkpt lat="42.80975" lon="-0.04065">
        <ele>2180.8</ele>
        <time>2023-10-31T11:28:32Z</time>
      </trkpt>
      <trkpt lat="42.80975" lon="-0.04064">
        <ele>2180.8</ele>
        <time>2023-10-31T11:28:33Z</time>
      </trkpt>
      <trkpt lat="42.80975" lon="-0.04064">
        <ele>2180.8</ele>
        <time>2023-10-31T11:28:34Z</time>
      </trkpt>
      <trkpt lat="42.80975" lon="-0.04064">
        <ele>2180.7</ele>
        <time>2023-10-31T11:28:35Z</time>
      </trkpt>
      <trkpt lat="42.80975" lon="-0.04064">
        <ele>2180.7</ele>
        <time>2023-10-31T11:28:36Z</time>
      </trkpt>
      <trkpt lat="42.80976" lon="-0.04064">
        <ele>2180.6</ele>
        <time>2023-10-31T11:28:37Z</time>
      </trkpt>
      <trkpt lat="42.80976" lon="-0.04064">
        <ele>2180.5</ele>
        <time>2023-10-31T11:28:38Z</time>
      </trkpt>
      <trkpt lat="42.80977" lon="-0.04064">
        <ele>2180.4</ele>
        <time>2023-10-31T11:28:40Z</time>
      </trkpt>
      <trkpt lat="42.80977" lon="-0.04061">
        <ele>2180</ele>
        <time>2023-10-31T11:28:41Z</time>
      </trkpt>
      <trkpt lat="42.80977" lon="-0.04061">
        <ele>2179.9</ele>
        <time>2023-10-31T11:28:43Z</time>
      </trkpt>
      <trkpt lat="42.80978" lon="-0.04059">
        <ele>2179.6</ele>
        <time>2023-10-31T11:28:44Z</time>
      </trkpt>
      <trkpt lat="42.80978" lon="-0.04059">
        <ele>2179.5</ele>
        <time>2023-10-31T11:28:46Z</time>
      </trkpt>
      <trkpt lat="42.80977" lon="-0.04057">
        <ele>2179.1</ele>
        <time>2023-10-31T11:28:47Z</time>
      </trkpt>
      <trkpt lat="42.80976" lon="-0.04055">
        <ele>2178.9</ele>
        <time>2023-10-31T11:28:48Z</time>
      </trkpt>
      <trkpt lat="42.80976" lon="-0.04055">
        <ele>2178.8</ele>
        <time>2023-10-31T11:28:50Z</time>
      </trkpt>
      <trkpt lat="42.80976" lon="-0.04054">
        <ele>2178.7</ele>
        <time>2023-10-31T11:28:51Z</time>
      </trkpt>
      <trkpt lat="42.80976" lon="-0.04053">
        <ele>2178.5</ele>
        <time>2023-10-31T11:28:53Z</time>
      </trkpt>
      <trkpt lat="42.80976" lon="-0.04052">
        <ele>2178.4</ele>
        <time>2023-10-31T11:28:54Z</time>
      </trkpt>
      <trkpt lat="42.80977" lon="-0.04052">
        <ele>2178.3</ele>
        <time>2023-10-31T11:28:55Z</time>
      </trkpt>
      <trkpt lat="42.80977" lon="-0.04051">
        <ele>2178.2</ele>
        <time>2023-10-31T11:28:56Z</time>
      </trkpt>
      <trkpt lat="42.80977" lon="-0.0405">
        <ele>2178.1</ele>
        <time>2023-10-31T11:28:57Z</time>
      </trkpt>
      <trkpt lat="42.80977" lon="-0.04049">
        <ele>2178</ele>
        <time>2023-10-31T11:28:58Z</time>
      </trkpt>
      <trkpt lat="42.80977" lon="-0.04049">
        <ele>2177.9</ele>
        <time>2023-10-31T11:28:59Z</time>
      </trkpt>
      <trkpt lat="42.80977" lon="-0.04048">
        <ele>2177.7</ele>
        <time>2023-10-31T11:29:00Z</time>
      </trkpt>
      <trkpt lat="42.80977" lon="-0.04047">
        <ele>2177.6</ele>
        <time>2023-10-31T11:29:01Z</time>
      </trkpt>
      <trkpt lat="42.80976" lon="-0.04046">
        <ele>2177.4</ele>
        <time>2023-10-31T11:29:02Z</time>
      </trkpt>
      <trkpt lat="42.80976" lon="-0.04045">
        <ele>2177.3</ele>
        <time>2023-10-31T11:29:03Z</time>
      </trkpt>
      <trkpt lat="42.80976" lon="-0.04045">
        <ele>2177.2</ele>
        <time>2023-10-31T11:29:04Z</time>
      </trkpt>
      <trkpt lat="42.80975" lon="-0.04044">
        <ele>2177.1</ele>
        <time>2023-10-31T11:29:05Z</time>
      </trkpt>
      <trkpt lat="42.80975" lon="-0.04044">
        <ele>2177</ele>
        <time>2023-10-31T11:29:06Z</time>
      </trkpt>
      <trkpt lat="42.80975" lon="-0.04044">
        <ele>2177</ele>
        <time>2023-10-31T11:29:07Z</time>
      </trkpt>
      <trkpt lat="42.80975" lon="-0.04044">
        <ele>2176.9</ele>
        <time>2023-10-31T11:29:08Z</time>
      </trkpt>
      <trkpt lat="42.80975" lon="-0.04043">
        <ele>2176.8</ele>
        <time>2023-10-31T11:29:09Z</time>
      </trkpt>
      <trkpt lat="42.80976" lon="-0.04042">
        <ele>2176.7</ele>
        <time>2023-10-31T11:29:10Z</time>
      </trkpt>
      <trkpt lat="42.80975" lon="-0.04042">
        <ele>2176.6</ele>
        <time>2023-10-31T11:29:11Z</time>
      </trkpt>
      <trkpt lat="42.80976" lon="-0.04042">
        <ele>2176.6</ele>
        <time>2023-10-31T11:29:12Z</time>
      </trkpt>
      <trkpt lat="42.80975" lon="-0.04042">
        <ele>2176.5</ele>
        <time>2023-10-31T11:29:13Z</time>
      </trkpt>
      <trkpt lat="42.80975" lon="-0.04042">
        <ele>2176.5</ele>
        <time>2023-10-31T11:29:14Z</time>
      </trkpt>
      <trkpt lat="42.80975" lon="-0.04042">
        <ele>2176.5</ele>
        <time>2023-10-31T11:29:15Z</time>
      </trkpt>
      <trkpt lat="42.80975" lon="-0.04042">
        <ele>2176.5</ele>
        <time>2023-10-31T11:29:16Z</time>
      </trkpt>
      <trkpt lat="42.80975" lon="-0.04042">
        <ele>2176.5</ele>
        <time>2023-10-31T11:29:17Z</time>
      </trkpt>
      <trkpt lat="42.80975" lon="-0.04042">
        <ele>2176.5</ele>
        <time>2023-10-31T11:29:18Z</time>
      </trkpt>
      <trkpt lat="42.80975" lon="-0.04042">
        <ele>2176.5</ele>
        <time>2023-10-31T11:29:19Z</time>
      </trkpt>
      <trkpt lat="42.80975" lon="-0.04042">
        <ele>2176.5</ele>
        <time>2023-10-31T11:29:20Z</time>
      </trkpt>
      <trkpt lat="42.80976" lon="-0.04042">
        <ele>2176.4</ele>
        <time>2023-10-31T11:29:21Z</time>
      </trkpt>
      <trkpt lat="42.80975" lon="-0.04042">
        <ele>2176.4</ele>
        <time>2023-10-31T11:29:22Z</time>
      </trkpt>
      <trkpt lat="42.80975" lon="-0.04042">
        <ele>2176.4</ele>
        <time>2023-10-31T11:29:23Z</time>
      </trkpt>
      <trkpt lat="42.80975" lon="-0.04042">
        <ele>2176.4</ele>
        <time>2023-10-31T11:29:24Z</time>
      </trkpt>
      <trkpt lat="42.80975" lon="-0.04042">
        <ele>2176.3</ele>
        <time>2023-10-31T11:29:25Z</time>
      </trkpt>
      <trkpt lat="42.80975" lon="-0.04041">
        <ele>2176.3</ele>
        <time>2023-10-31T11:29:26Z</time>
      </trkpt>
      <trkpt lat="42.80975" lon="-0.04041">
        <ele>2176.2</ele>
        <time>2023-10-31T11:29:27Z</time>
      </trkpt>
      <trkpt lat="42.80976" lon="-0.04041">
        <ele>2176.1</ele>
        <time>2023-10-31T11:29:28Z</time>
      </trkpt>
      <trkpt lat="42.80976" lon="-0.0404">
        <ele>2176</ele>
        <time>2023-10-31T11:29:29Z</time>
      </trkpt>
      <trkpt lat="42.80977" lon="-0.04041">
        <ele>2175.8</ele>
        <time>2023-10-31T11:29:30Z</time>
      </trkpt>
      <trkpt lat="42.80977" lon="-0.0404">
        <ele>2175.6</ele>
        <time>2023-10-31T11:29:31Z</time>
      </trkpt>
      <trkpt lat="42.80978" lon="-0.0404">
        <ele>2175.4</ele>
        <time>2023-10-31T11:29:32Z</time>
      </trkpt>
      <trkpt lat="42.80979" lon="-0.0404">
        <ele>2175.3</ele>
        <time>2023-10-31T11:29:33Z</time>
      </trkpt>
      <trkpt lat="42.80979" lon="-0.04039">
        <ele>2175.1</ele>
        <time>2023-10-31T11:29:34Z</time>
      </trkpt>
      <trkpt lat="42.8098" lon="-0.04039">
        <ele>2175</ele>
        <time>2023-10-31T11:29:35Z</time>
      </trkpt>
      <trkpt lat="42.80979" lon="-0.04038">
        <ele>2174.9</ele>
        <time>2023-10-31T11:29:36Z</time>
      </trkpt>
      <trkpt lat="42.8098" lon="-0.04038">
        <ele>2174.8</ele>
        <time>2023-10-31T11:29:37Z</time>
      </trkpt>
      <trkpt lat="42.80979" lon="-0.04036">
        <ele>2174.5</ele>
        <time>2023-10-31T11:29:38Z</time>
      </trkpt>
      <trkpt lat="42.80979" lon="-0.04035">
        <ele>2174.3</ele>
        <time>2023-10-31T11:29:39Z</time>
      </trkpt>
      <trkpt lat="42.80978" lon="-0.04033">
        <ele>2173.9</ele>
        <time>2023-10-31T11:29:40Z</time>
      </trkpt>
      <trkpt lat="42.80977" lon="-0.04032">
        <ele>2173.7</ele>
        <time>2023-10-31T11:29:41Z</time>
      </trkpt>
      <trkpt lat="42.80977" lon="-0.04031">
        <ele>2173.4</ele>
        <time>2023-10-31T11:29:42Z</time>
      </trkpt>
      <trkpt lat="42.80976" lon="-0.0403">
        <ele>2173.2</ele>
        <time>2023-10-31T11:29:43Z</time>
      </trkpt>
      <trkpt lat="42.80976" lon="-0.04029">
        <ele>2173</ele>
        <time>2023-10-31T11:29:44Z</time>
      </trkpt>
      <trkpt lat="42.80976" lon="-0.04028">
        <ele>2172.8</ele>
        <time>2023-10-31T11:29:45Z</time>
      </trkpt>
      <trkpt lat="42.80976" lon="-0.04027">
        <ele>2172.7</ele>
        <time>2023-10-31T11:29:46Z</time>
      </trkpt>
      <trkpt lat="42.80977" lon="-0.04026">
        <ele>2172.5</ele>
        <time>2023-10-31T11:29:47Z</time>
      </trkpt>
      <trkpt lat="42.80977" lon="-0.04025">
        <ele>2172.2</ele>
        <time>2023-10-31T11:29:48Z</time>
      </trkpt>
      <trkpt lat="42.80977" lon="-0.04024">
        <ele>2172.1</ele>
        <time>2023-10-31T11:29:49Z</time>
      </trkpt>
      <trkpt lat="42.80977" lon="-0.04024">
        <ele>2172</ele>
        <time>2023-10-31T11:29:50Z</time>
      </trkpt>
      <trkpt lat="42.80977" lon="-0.04023">
        <ele>2171.8</ele>
        <time>2023-10-31T11:29:51Z</time>
      </trkpt>
      <trkpt lat="42.80977" lon="-0.04023">
        <ele>2171.8</ele>
        <time>2023-10-31T11:29:52Z</time>
      </trkpt>
      <trkpt lat="42.80977" lon="-0.04023">
        <ele>2171.7</ele>
        <time>2023-10-31T11:29:53Z</time>
      </trkpt>
      <trkpt lat="42.80977" lon="-0.04022">
        <ele>2171.6</ele>
        <time>2023-10-31T11:29:54Z</time>
      </trkpt>
      <trkpt lat="42.80977" lon="-0.04021">
        <ele>2171.4</ele>
        <time>2023-10-31T11:29:55Z</time>
      </trkpt>
      <trkpt lat="42.80977" lon="-0.0402">
        <ele>2171.3</ele>
        <time>2023-10-31T11:29:56Z</time>
      </trkpt>
      <trkpt lat="42.80977" lon="-0.04019">
        <ele>2171.1</ele>
        <time>2023-10-31T11:29:57Z</time>
      </trkpt>
      <trkpt lat="42.80977" lon="-0.04018">
        <ele>2170.9</ele>
        <time>2023-10-31T11:29:58Z</time>
      </trkpt>
      <trkpt lat="42.80977" lon="-0.04017">
        <ele>2170.6</ele>
        <time>2023-10-31T11:29:59Z</time>
      </trkpt>
      <trkpt lat="42.80977" lon="-0.04016">
        <ele>2170.4</ele>
        <time>2023-10-31T11:30:00Z</time>
      </trkpt>
      <trkpt lat="42.80976" lon="-0.04015">
        <ele>2170.1</ele>
        <time>2023-10-31T11:30:01Z</time>
      </trkpt>
      <trkpt lat="42.80976" lon="-0.04014">
        <ele>2170</ele>
        <time>2023-10-31T11:30:02Z</time>
      </trkpt>
      <trkpt lat="42.80976" lon="-0.04013">
        <ele>2169.8</ele>
        <time>2023-10-31T11:30:03Z</time>
      </trkpt>
      <trkpt lat="42.80976" lon="-0.04012">
        <ele>2169.6</ele>
        <time>2023-10-31T11:30:04Z</time>
      </trkpt>
      <trkpt lat="42.80976" lon="-0.04011">
        <ele>2169.4</ele>
        <time>2023-10-31T11:30:05Z</time>
      </trkpt>
      <trkpt lat="42.80976" lon="-0.04011">
        <ele>2169.2</ele>
        <time>2023-10-31T11:30:06Z</time>
      </trkpt>
      <trkpt lat="42.80976" lon="-0.0401">
        <ele>2169</ele>
        <time>2023-10-31T11:30:07Z</time>
      </trkpt>
      <trkpt lat="42.80976" lon="-0.04009">
        <ele>2168.9</ele>
        <time>2023-10-31T11:30:08Z</time>
      </trkpt>
      <trkpt lat="42.80976" lon="-0.04009">
        <ele>2168.9</ele>
        <time>2023-10-31T11:30:09Z</time>
      </trkpt>
      <trkpt lat="42.80976" lon="-0.04009">
        <ele>2168.8</ele>
        <time>2023-10-31T11:30:10Z</time>
      </trkpt>
      <trkpt lat="42.80977" lon="-0.04008">
        <ele>2168.8</ele>
        <time>2023-10-31T11:30:11Z</time>
      </trkpt>
      <trkpt lat="42.80977" lon="-0.04007">
        <ele>2168.5</ele>
        <time>2023-10-31T11:30:12Z</time>
      </trkpt>
      <trkpt lat="42.80977" lon="-0.04008">
        <ele>2168.4</ele>
        <time>2023-10-31T11:30:13Z</time>
      </trkpt>
      <trkpt lat="42.80978" lon="-0.04008">
        <ele>2168.2</ele>
        <time>2023-10-31T11:30:14Z</time>
      </trkpt>
      <trkpt lat="42.80979" lon="-0.04008">
        <ele>2168</ele>
        <time>2023-10-31T11:30:15Z</time>
      </trkpt>
      <trkpt lat="42.80979" lon="-0.04008">
        <ele>2167.9</ele>
        <time>2023-10-31T11:30:16Z</time>
      </trkpt>
      <trkpt lat="42.80979" lon="-0.04007">
        <ele>2167.7</ele>
        <time>2023-10-31T11:30:17Z</time>
      </trkpt>
      <trkpt lat="42.80979" lon="-0.04006">
        <ele>2167.5</ele>
        <time>2023-10-31T11:30:18Z</time>
      </trkpt>
      <trkpt lat="42.80979" lon="-0.04006">
        <ele>2167.3</ele>
        <time>2023-10-31T11:30:19Z</time>
      </trkpt>
      <trkpt lat="42.80979" lon="-0.04005">
        <ele>2167.2</ele>
        <time>2023-10-31T11:30:20Z</time>
      </trkpt>
      <trkpt lat="42.80979" lon="-0.04004">
        <ele>2166.9</ele>
        <time>2023-10-31T11:30:21Z</time>
      </trkpt>
      <trkpt lat="42.80979" lon="-0.04003">
        <ele>2166.7</ele>
        <time>2023-10-31T11:30:22Z</time>
      </trkpt>
      <trkpt lat="42.80979" lon="-0.04002">
        <ele>2166.5</ele>
        <time>2023-10-31T11:30:23Z</time>
      </trkpt>
      <trkpt lat="42.80978" lon="-0.04001">
        <ele>2166.2</ele>
        <time>2023-10-31T11:30:24Z</time>
      </trkpt>
      <trkpt lat="42.80978" lon="-0.04001">
        <ele>2166.1</ele>
        <time>2023-10-31T11:30:25Z</time>
      </trkpt>
      <trkpt lat="42.80977" lon="-0.04">
        <ele>2165.9</ele>
        <time>2023-10-31T11:30:26Z</time>
      </trkpt>
      <trkpt lat="42.80977" lon="-0.04">
        <ele>2165.7</ele>
        <time>2023-10-31T11:30:27Z</time>
      </trkpt>
      <trkpt lat="42.80977" lon="-0.04">
        <ele>2165.6</ele>
        <time>2023-10-31T11:30:28Z</time>
      </trkpt>
      <trkpt lat="42.80977" lon="-0.04">
        <ele>2165.4</ele>
        <time>2023-10-31T11:30:29Z</time>
      </trkpt>
      <trkpt lat="42.80977" lon="-0.03999">
        <ele>2165.3</ele>
        <time>2023-10-31T11:30:30Z</time>
      </trkpt>
      <trkpt lat="42.80977" lon="-0.03999">
        <ele>2165.1</ele>
        <time>2023-10-31T11:30:31Z</time>
      </trkpt>
      <trkpt lat="42.80976" lon="-0.03999">
        <ele>2165</ele>
        <time>2023-10-31T11:30:32Z</time>
      </trkpt>
      <trkpt lat="42.80976" lon="-0.03999">
        <ele>2165</ele>
        <time>2023-10-31T11:30:33Z</time>
      </trkpt>
      <trkpt lat="42.80976" lon="-0.03998">
        <ele>2164.8</ele>
        <time>2023-10-31T11:30:34Z</time>
      </trkpt>
      <trkpt lat="42.80976" lon="-0.03998">
        <ele>2164.8</ele>
        <time>2023-10-31T11:30:35Z</time>
      </trkpt>
      <trkpt lat="42.80976" lon="-0.03997">
        <ele>2164.6</ele>
        <time>2023-10-31T11:30:36Z</time>
      </trkpt>
      <trkpt lat="42.80976" lon="-0.03996">
        <ele>2164.4</ele>
        <time>2023-10-31T11:30:37Z</time>
      </trkpt>
      <trkpt lat="42.80976" lon="-0.03995">
        <ele>2164.2</ele>
        <time>2023-10-31T11:30:38Z</time>
      </trkpt>
      <trkpt lat="42.80975" lon="-0.03993">
        <ele>2163.7</ele>
        <time>2023-10-31T11:30:39Z</time>
      </trkpt>
      <trkpt lat="42.80976" lon="-0.03993">
        <ele>2163.6</ele>
        <time>2023-10-31T11:30:40Z</time>
      </trkpt>
      <trkpt lat="42.80975" lon="-0.03992">
        <ele>2163.4</ele>
        <time>2023-10-31T11:30:41Z</time>
      </trkpt>
      <trkpt lat="42.80975" lon="-0.03991">
        <ele>2163.2</ele>
        <time>2023-10-31T11:30:42Z</time>
      </trkpt>
      <trkpt lat="42.80975" lon="-0.03991">
        <ele>2163.1</ele>
        <time>2023-10-31T11:30:43Z</time>
      </trkpt>
      <trkpt lat="42.80975" lon="-0.03991">
        <ele>2163</ele>
        <time>2023-10-31T11:30:44Z</time>
      </trkpt>
      <trkpt lat="42.80975" lon="-0.03991">
        <ele>2163</ele>
        <time>2023-10-31T11:30:45Z</time>
      </trkpt>
      <trkpt lat="42.80975" lon="-0.03991">
        <ele>2163</ele>
        <time>2023-10-31T11:30:46Z</time>
      </trkpt>
      <trkpt lat="42.80975" lon="-0.03991">
        <ele>2163</ele>
        <time>2023-10-31T11:30:47Z</time>
      </trkpt>
      <trkpt lat="42.80975" lon="-0.03991">
        <ele>2163</ele>
        <time>2023-10-31T11:30:48Z</time>
      </trkpt>
      <trkpt lat="42.80975" lon="-0.03991">
        <ele>2162.9</ele>
        <time>2023-10-31T11:30:49Z</time>
      </trkpt>
      <trkpt lat="42.80974" lon="-0.0399">
        <ele>2162.7</ele>
        <time>2023-10-31T11:30:50Z</time>
      </trkpt>
      <trkpt lat="42.80974" lon="-0.03989">
        <ele>2162.6</ele>
        <time>2023-10-31T11:30:51Z</time>
      </trkpt>
      <trkpt lat="42.80974" lon="-0.03988">
        <ele>2162.4</ele>
        <time>2023-10-31T11:30:52Z</time>
      </trkpt>
      <trkpt lat="42.80973" lon="-0.03988">
        <ele>2162.2</ele>
        <time>2023-10-31T11:30:53Z</time>
      </trkpt>
      <trkpt lat="42.80973" lon="-0.03987">
        <ele>2162</ele>
        <time>2023-10-31T11:30:54Z</time>
      </trkpt>
      <trkpt lat="42.80973" lon="-0.03986">
        <ele>2161.8</ele>
        <time>2023-10-31T11:30:55Z</time>
      </trkpt>
      <trkpt lat="42.80973" lon="-0.03985">
        <ele>2161.7</ele>
        <time>2023-10-31T11:30:56Z</time>
      </trkpt>
      <trkpt lat="42.80972" lon="-0.03984">
        <ele>2161.4</ele>
        <time>2023-10-31T11:30:57Z</time>
      </trkpt>
      <trkpt lat="42.80972" lon="-0.03983">
        <ele>2161.2</ele>
        <time>2023-10-31T11:30:58Z</time>
      </trkpt>
      <trkpt lat="42.80972" lon="-0.03982">
        <ele>2161</ele>
        <time>2023-10-31T11:30:59Z</time>
      </trkpt>
      <trkpt lat="42.80971" lon="-0.03982">
        <ele>2160.8</ele>
        <time>2023-10-31T11:31:00Z</time>
      </trkpt>
      <trkpt lat="42.8097" lon="-0.03981">
        <ele>2160.4</ele>
        <time>2023-10-31T11:31:01Z</time>
      </trkpt>
      <trkpt lat="42.80969" lon="-0.03981">
        <ele>2160.2</ele>
        <time>2023-10-31T11:31:02Z</time>
      </trkpt>
      <trkpt lat="42.80969" lon="-0.03981">
        <ele>2160.2</ele>
        <time>2023-10-31T11:31:03Z</time>
      </trkpt>
      <trkpt lat="42.80968" lon="-0.03981">
        <ele>2160</ele>
        <time>2023-10-31T11:31:04Z</time>
      </trkpt>
      <trkpt lat="42.80968" lon="-0.03981">
        <ele>2159.9</ele>
        <time>2023-10-31T11:31:05Z</time>
      </trkpt>
      <trkpt lat="42.80967" lon="-0.03981">
        <ele>2159.7</ele>
        <time>2023-10-31T11:31:06Z</time>
      </trkpt>
      <trkpt lat="42.80967" lon="-0.03981">
        <ele>2159.6</ele>
        <time>2023-10-31T11:31:07Z</time>
      </trkpt>
      <trkpt lat="42.80966" lon="-0.03981">
        <ele>2159.3</ele>
        <time>2023-10-31T11:31:08Z</time>
      </trkpt>
      <trkpt lat="42.80966" lon="-0.03981">
        <ele>2159.2</ele>
        <time>2023-10-31T11:31:09Z</time>
      </trkpt>
      <trkpt lat="42.80965" lon="-0.0398">
        <ele>2159.1</ele>
        <time>2023-10-31T11:31:10Z</time>
      </trkpt>
      <trkpt lat="42.80965" lon="-0.0398">
        <ele>2159</ele>
        <time>2023-10-31T11:31:11Z</time>
      </trkpt>
      <trkpt lat="42.80965" lon="-0.03979">
        <ele>2159</ele>
        <time>2023-10-31T11:31:12Z</time>
      </trkpt>
      <trkpt lat="42.80965" lon="-0.03979">
        <ele>2158.8</ele>
        <time>2023-10-31T11:31:13Z</time>
      </trkpt>
      <trkpt lat="42.80966" lon="-0.03978">
        <ele>2158.7</ele>
        <time>2023-10-31T11:31:14Z</time>
      </trkpt>
      <trkpt lat="42.80966" lon="-0.03978">
        <ele>2158.6</ele>
        <time>2023-10-31T11:31:15Z</time>
      </trkpt>
      <trkpt lat="42.80966" lon="-0.03976">
        <ele>2158.4</ele>
        <time>2023-10-31T11:31:16Z</time>
      </trkpt>
      <trkpt lat="42.80966" lon="-0.03975">
        <ele>2158.1</ele>
        <time>2023-10-31T11:31:17Z</time>
      </trkpt>
      <trkpt lat="42.80966" lon="-0.03975">
        <ele>2158</ele>
        <time>2023-10-31T11:31:18Z</time>
      </trkpt>
      <trkpt lat="42.80966" lon="-0.03973">
        <ele>2157.8</ele>
        <time>2023-10-31T11:31:19Z</time>
      </trkpt>
      <trkpt lat="42.80965" lon="-0.03973">
        <ele>2157.7</ele>
        <time>2023-10-31T11:31:20Z</time>
      </trkpt>
      <trkpt lat="42.80965" lon="-0.03972">
        <ele>2157.5</ele>
        <time>2023-10-31T11:31:21Z</time>
      </trkpt>
      <trkpt lat="42.80966" lon="-0.03971">
        <ele>2157.4</ele>
        <time>2023-10-31T11:31:22Z</time>
      </trkpt>
      <trkpt lat="42.80966" lon="-0.03971">
        <ele>2157.3</ele>
        <time>2023-10-31T11:31:23Z</time>
      </trkpt>
      <trkpt lat="42.80966" lon="-0.03971">
        <ele>2157.3</ele>
        <time>2023-10-31T11:31:24Z</time>
      </trkpt>
      <trkpt lat="42.80966" lon="-0.03971">
        <ele>2157.2</ele>
        <time>2023-10-31T11:31:25Z</time>
      </trkpt>
      <trkpt lat="42.80966" lon="-0.0397">
        <ele>2157.1</ele>
        <time>2023-10-31T11:31:26Z</time>
      </trkpt>
      <trkpt lat="42.80965" lon="-0.0397">
        <ele>2157.1</ele>
        <time>2023-10-31T11:31:27Z</time>
      </trkpt>
      <trkpt lat="42.80965" lon="-0.0397">
        <ele>2157</ele>
        <time>2023-10-31T11:31:28Z</time>
      </trkpt>
      <trkpt lat="42.80965" lon="-0.0397">
        <ele>2156.9</ele>
        <time>2023-10-31T11:31:29Z</time>
      </trkpt>
      <trkpt lat="42.80965" lon="-0.03969">
        <ele>2156.8</ele>
        <time>2023-10-31T11:31:30Z</time>
      </trkpt>
      <trkpt lat="42.80965" lon="-0.03968">
        <ele>2156.6</ele>
        <time>2023-10-31T11:31:31Z</time>
      </trkpt>
      <trkpt lat="42.80965" lon="-0.03966">
        <ele>2156.3</ele>
        <time>2023-10-31T11:31:32Z</time>
      </trkpt>
      <trkpt lat="42.80966" lon="-0.03965">
        <ele>2156</ele>
        <time>2023-10-31T11:31:33Z</time>
      </trkpt>
      <trkpt lat="42.80965" lon="-0.03963">
        <ele>2155.7</ele>
        <time>2023-10-31T11:31:34Z</time>
      </trkpt>
      <trkpt lat="42.80966" lon="-0.03962">
        <ele>2155.5</ele>
        <time>2023-10-31T11:31:35Z</time>
      </trkpt>
      <trkpt lat="42.80966" lon="-0.03961">
        <ele>2155.3</ele>
        <time>2023-10-31T11:31:36Z</time>
      </trkpt>
      <trkpt lat="42.80966" lon="-0.0396">
        <ele>2155.1</ele>
        <time>2023-10-31T11:31:37Z</time>
      </trkpt>
      <trkpt lat="42.80966" lon="-0.03959">
        <ele>2155</ele>
        <time>2023-10-31T11:31:38Z</time>
      </trkpt>
      <trkpt lat="42.80966" lon="-0.03958">
        <ele>2154.8</ele>
        <time>2023-10-31T11:31:39Z</time>
      </trkpt>
      <trkpt lat="42.80966" lon="-0.03957">
        <ele>2154.6</ele>
        <time>2023-10-31T11:31:40Z</time>
      </trkpt>
      <trkpt lat="42.80966" lon="-0.03957">
        <ele>2154.5</ele>
        <time>2023-10-31T11:31:41Z</time>
      </trkpt>
      <trkpt lat="42.80966" lon="-0.03956">
        <ele>2154.3</ele>
        <time>2023-10-31T11:31:42Z</time>
      </trkpt>
      <trkpt lat="42.80966" lon="-0.03956">
        <ele>2154.2</ele>
        <time>2023-10-31T11:31:43Z</time>
      </trkpt>
      <trkpt lat="42.80966" lon="-0.03956">
        <ele>2154.2</ele>
        <time>2023-10-31T11:31:44Z</time>
      </trkpt>
      <trkpt lat="42.80966" lon="-0.03956">
        <ele>2154</ele>
        <time>2023-10-31T11:31:45Z</time>
      </trkpt>
      <trkpt lat="42.80967" lon="-0.03956">
        <ele>2153.9</ele>
        <time>2023-10-31T11:31:46Z</time>
      </trkpt>
      <trkpt lat="42.80967" lon="-0.03955">
        <ele>2153.6</ele>
        <time>2023-10-31T11:31:47Z</time>
      </trkpt>
      <trkpt lat="42.80966" lon="-0.03953">
        <ele>2153.3</ele>
        <time>2023-10-31T11:31:48Z</time>
      </trkpt>
      <trkpt lat="42.80966" lon="-0.03952">
        <ele>2153.1</ele>
        <time>2023-10-31T11:31:49Z</time>
      </trkpt>
      <trkpt lat="42.80966" lon="-0.03951">
        <ele>2152.8</ele>
        <time>2023-10-31T11:31:50Z</time>
      </trkpt>
      <trkpt lat="42.80965" lon="-0.0395">
        <ele>2152.4</ele>
        <time>2023-10-31T11:31:51Z</time>
      </trkpt>
      <trkpt lat="42.80964" lon="-0.03949">
        <ele>2152.2</ele>
        <time>2023-10-31T11:31:52Z</time>
      </trkpt>
      <trkpt lat="42.80963" lon="-0.03949">
        <ele>2152</ele>
        <time>2023-10-31T11:31:53Z</time>
      </trkpt>
      <trkpt lat="42.80963" lon="-0.03948">
        <ele>2151.8</ele>
        <time>2023-10-31T11:31:54Z</time>
      </trkpt>
      <trkpt lat="42.80963" lon="-0.03947">
        <ele>2151.6</ele>
        <time>2023-10-31T11:31:55Z</time>
      </trkpt>
      <trkpt lat="42.80962" lon="-0.03946">
        <ele>2151.4</ele>
        <time>2023-10-31T11:31:56Z</time>
      </trkpt>
      <trkpt lat="42.80962" lon="-0.03946">
        <ele>2151.3</ele>
        <time>2023-10-31T11:31:57Z</time>
      </trkpt>
      <trkpt lat="42.80962" lon="-0.03945">
        <ele>2151.1</ele>
        <time>2023-10-31T11:31:58Z</time>
      </trkpt>
      <trkpt lat="42.80962" lon="-0.03944">
        <ele>2150.9</ele>
        <time>2023-10-31T11:31:59Z</time>
      </trkpt>
      <trkpt lat="42.80962" lon="-0.03942">
        <ele>2150.6</ele>
        <time>2023-10-31T11:32:00Z</time>
      </trkpt>
      <trkpt lat="42.80962" lon="-0.03941">
        <ele>2150.4</ele>
        <time>2023-10-31T11:32:01Z</time>
      </trkpt>
      <trkpt lat="42.80962" lon="-0.0394">
        <ele>2150.2</ele>
        <time>2023-10-31T11:32:02Z</time>
      </trkpt>
      <trkpt lat="42.80962" lon="-0.03939">
        <ele>2150</ele>
        <time>2023-10-31T11:32:03Z</time>
      </trkpt>
      <trkpt lat="42.80962" lon="-0.03938">
        <ele>2149.8</ele>
        <time>2023-10-31T11:32:04Z</time>
      </trkpt>
      <trkpt lat="42.80962" lon="-0.03937">
        <ele>2149.6</ele>
        <time>2023-10-31T11:32:05Z</time>
      </trkpt>
      <trkpt lat="42.80963" lon="-0.03937">
        <ele>2149.4</ele>
        <time>2023-10-31T11:32:06Z</time>
      </trkpt>
      <trkpt lat="42.80962" lon="-0.03936">
        <ele>2149.3</ele>
        <time>2023-10-31T11:32:07Z</time>
      </trkpt>
      <trkpt lat="42.80961" lon="-0.03935">
        <ele>2149</ele>
        <time>2023-10-31T11:32:08Z</time>
      </trkpt>
      <trkpt lat="42.80961" lon="-0.03935">
        <ele>2148.9</ele>
        <time>2023-10-31T11:32:09Z</time>
      </trkpt>
      <trkpt lat="42.80961" lon="-0.03934">
        <ele>2148.8</ele>
        <time>2023-10-31T11:32:10Z</time>
      </trkpt>
      <trkpt lat="42.8096" lon="-0.03934">
        <ele>2148.6</ele>
        <time>2023-10-31T11:32:11Z</time>
      </trkpt>
      <trkpt lat="42.8096" lon="-0.03934">
        <ele>2148.5</ele>
        <time>2023-10-31T11:32:12Z</time>
      </trkpt>
      <trkpt lat="42.80959" lon="-0.03933">
        <ele>2148.4</ele>
        <time>2023-10-31T11:32:13Z</time>
      </trkpt>
      <trkpt lat="42.80959" lon="-0.03932">
        <ele>2148.2</ele>
        <time>2023-10-31T11:32:14Z</time>
      </trkpt>
      <trkpt lat="42.80959" lon="-0.03933">
        <ele>2148.1</ele>
        <time>2023-10-31T11:32:15Z</time>
      </trkpt>
      <trkpt lat="42.80959" lon="-0.03933">
        <ele>2148.1</ele>
        <time>2023-10-31T11:32:16Z</time>
      </trkpt>
      <trkpt lat="42.8096" lon="-0.03933">
        <ele>2147.9</ele>
        <time>2023-10-31T11:32:17Z</time>
      </trkpt>
      <trkpt lat="42.80959" lon="-0.03933">
        <ele>2147.8</ele>
        <time>2023-10-31T11:32:18Z</time>
      </trkpt>
      <trkpt lat="42.8096" lon="-0.03933">
        <ele>2147.7</ele>
        <time>2023-10-31T11:32:19Z</time>
      </trkpt>
      <trkpt lat="42.8096" lon="-0.03933">
        <ele>2147.7</ele>
        <time>2023-10-31T11:32:20Z</time>
      </trkpt>
      <trkpt lat="42.8096" lon="-0.03933">
        <ele>2147.7</ele>
        <time>2023-10-31T11:32:21Z</time>
      </trkpt>
      <trkpt lat="42.8096" lon="-0.03933">
        <ele>2147.6</ele>
        <time>2023-10-31T11:32:22Z</time>
      </trkpt>
      <trkpt lat="42.8096" lon="-0.03933">
        <ele>2147.5</ele>
        <time>2023-10-31T11:32:23Z</time>
      </trkpt>
      <trkpt lat="42.80959" lon="-0.03933">
        <ele>2147.4</ele>
        <time>2023-10-31T11:32:24Z</time>
      </trkpt>
      <trkpt lat="42.80959" lon="-0.03932">
        <ele>2147.3</ele>
        <time>2023-10-31T11:32:25Z</time>
      </trkpt>
      <trkpt lat="42.80958" lon="-0.03932">
        <ele>2147.2</ele>
        <time>2023-10-31T11:32:26Z</time>
      </trkpt>
      <trkpt lat="42.80958" lon="-0.03932">
        <ele>2147.1</ele>
        <time>2023-10-31T11:32:27Z</time>
      </trkpt>
      <trkpt lat="42.80957" lon="-0.03931">
        <ele>2146.9</ele>
        <time>2023-10-31T11:32:28Z</time>
      </trkpt>
      <trkpt lat="42.80958" lon="-0.03931">
        <ele>2146.9</ele>
        <time>2023-10-31T11:32:29Z</time>
      </trkpt>
      <trkpt lat="42.80958" lon="-0.0393">
        <ele>2146.6</ele>
        <time>2023-10-31T11:32:30Z</time>
      </trkpt>
      <trkpt lat="42.80958" lon="-0.03929">
        <ele>2146.5</ele>
        <time>2023-10-31T11:32:31Z</time>
      </trkpt>
      <trkpt lat="42.80957" lon="-0.03929">
        <ele>2146.4</ele>
        <time>2023-10-31T11:32:32Z</time>
      </trkpt>
      <trkpt lat="42.80957" lon="-0.03929">
        <ele>2146.4</ele>
        <time>2023-10-31T11:32:33Z</time>
      </trkpt>
      <trkpt lat="42.80956" lon="-0.03928">
        <ele>2146.2</ele>
        <time>2023-10-31T11:32:34Z</time>
      </trkpt>
      <trkpt lat="42.80956" lon="-0.03928">
        <ele>2146.1</ele>
        <time>2023-10-31T11:32:35Z</time>
      </trkpt>
      <trkpt lat="42.80956" lon="-0.03928">
        <ele>2146.1</ele>
        <time>2023-10-31T11:32:36Z</time>
      </trkpt>
      <trkpt lat="42.80956" lon="-0.03927">
        <ele>2146</ele>
        <time>2023-10-31T11:32:37Z</time>
      </trkpt>
      <trkpt lat="42.80956" lon="-0.03926">
        <ele>2145.9</ele>
        <time>2023-10-31T11:32:38Z</time>
      </trkpt>
      <trkpt lat="42.80956" lon="-0.03926">
        <ele>2145.7</ele>
        <time>2023-10-31T11:32:39Z</time>
      </trkpt>
      <trkpt lat="42.80955" lon="-0.03925">
        <ele>2145.6</ele>
        <time>2023-10-31T11:32:40Z</time>
      </trkpt>
      <trkpt lat="42.80955" lon="-0.03924">
        <ele>2145.5</ele>
        <time>2023-10-31T11:32:41Z</time>
      </trkpt>
      <trkpt lat="42.80955" lon="-0.03923">
        <ele>2145.3</ele>
        <time>2023-10-31T11:32:42Z</time>
      </trkpt>
      <trkpt lat="42.80955" lon="-0.03923">
        <ele>2145.3</ele>
        <time>2023-10-31T11:32:43Z</time>
      </trkpt>
      <trkpt lat="42.80954" lon="-0.03923">
        <ele>2145.2</ele>
        <time>2023-10-31T11:32:44Z</time>
      </trkpt>
      <trkpt lat="42.80953" lon="-0.03922">
        <ele>2145</ele>
        <time>2023-10-31T11:32:45Z</time>
      </trkpt>
      <trkpt lat="42.80953" lon="-0.03921">
        <ele>2144.9</ele>
        <time>2023-10-31T11:32:46Z</time>
      </trkpt>
      <trkpt lat="42.80953" lon="-0.03921">
        <ele>2144.8</ele>
        <time>2023-10-31T11:32:47Z</time>
      </trkpt>
      <trkpt lat="42.80953" lon="-0.0392">
        <ele>2144.7</ele>
        <time>2023-10-31T11:32:48Z</time>
      </trkpt>
      <trkpt lat="42.80952" lon="-0.0392">
        <ele>2144.6</ele>
        <time>2023-10-31T11:32:49Z</time>
      </trkpt>
      <trkpt lat="42.80951" lon="-0.03919">
        <ele>2144.4</ele>
        <time>2023-10-31T11:32:50Z</time>
      </trkpt>
      <trkpt lat="42.8095" lon="-0.03918">
        <ele>2144.1</ele>
        <time>2023-10-31T11:32:51Z</time>
      </trkpt>
      <trkpt lat="42.8095" lon="-0.03918">
        <ele>2144</ele>
        <time>2023-10-31T11:32:52Z</time>
      </trkpt>
      <trkpt lat="42.80949" lon="-0.03918">
        <ele>2143.9</ele>
        <time>2023-10-31T11:32:53Z</time>
      </trkpt>
      <trkpt lat="42.80948" lon="-0.03918">
        <ele>2143.7</ele>
        <time>2023-10-31T11:32:54Z</time>
      </trkpt>
      <trkpt lat="42.80947" lon="-0.03918">
        <ele>2143.5</ele>
        <time>2023-10-31T11:32:55Z</time>
      </trkpt>
      <trkpt lat="42.80946" lon="-0.03917">
        <ele>2143.2</ele>
        <time>2023-10-31T11:32:56Z</time>
      </trkpt>
      <trkpt lat="42.80944" lon="-0.03915">
        <ele>2142.9</ele>
        <time>2023-10-31T11:32:57Z</time>
      </trkpt>
      <trkpt lat="42.80944" lon="-0.03914">
        <ele>2142.7</ele>
        <time>2023-10-31T11:32:58Z</time>
      </trkpt>
      <trkpt lat="42.80944" lon="-0.03912">
        <ele>2142.5</ele>
        <time>2023-10-31T11:32:59Z</time>
      </trkpt>
      <trkpt lat="42.80944" lon="-0.03911">
        <ele>2142.3</ele>
        <time>2023-10-31T11:33:00Z</time>
      </trkpt>
      <trkpt lat="42.80944" lon="-0.03908">
        <ele>2142</ele>
        <time>2023-10-31T11:33:01Z</time>
      </trkpt>
      <trkpt lat="42.80944" lon="-0.03907">
        <ele>2141.8</ele>
        <time>2023-10-31T11:33:02Z</time>
      </trkpt>
      <trkpt lat="42.80944" lon="-0.03906">
        <ele>2141.7</ele>
        <time>2023-10-31T11:33:03Z</time>
      </trkpt>
      <trkpt lat="42.80944" lon="-0.03905">
        <ele>2141.6</ele>
        <time>2023-10-31T11:33:04Z</time>
      </trkpt>
      <trkpt lat="42.80945" lon="-0.03904">
        <ele>2141.5</ele>
        <time>2023-10-31T11:33:05Z</time>
      </trkpt>
      <trkpt lat="42.80945" lon="-0.03904">
        <ele>2141.4</ele>
        <time>2023-10-31T11:33:06Z</time>
      </trkpt>
      <trkpt lat="42.80945" lon="-0.03903">
        <ele>2141.3</ele>
        <time>2023-10-31T11:33:07Z</time>
      </trkpt>
      <trkpt lat="42.80945" lon="-0.03903">
        <ele>2141.2</ele>
        <time>2023-10-31T11:33:08Z</time>
      </trkpt>
      <trkpt lat="42.80945" lon="-0.03902">
        <ele>2141.1</ele>
        <time>2023-10-31T11:33:09Z</time>
      </trkpt>
      <trkpt lat="42.80945" lon="-0.03901">
        <ele>2140.9</ele>
        <time>2023-10-31T11:33:10Z</time>
      </trkpt>
      <trkpt lat="42.80945" lon="-0.039">
        <ele>2140.8</ele>
        <time>2023-10-31T11:33:11Z</time>
      </trkpt>
      <trkpt lat="42.80945" lon="-0.03899">
        <ele>2140.7</ele>
        <time>2023-10-31T11:33:12Z</time>
      </trkpt>
      <trkpt lat="42.80945" lon="-0.03898">
        <ele>2140.5</ele>
        <time>2023-10-31T11:33:13Z</time>
      </trkpt>
      <trkpt lat="42.80945" lon="-0.03896">
        <ele>2140.3</ele>
        <time>2023-10-31T11:33:14Z</time>
      </trkpt>
      <trkpt lat="42.80945" lon="-0.03894">
        <ele>2140.1</ele>
        <time>2023-10-31T11:33:15Z</time>
      </trkpt>
      <trkpt lat="42.80946" lon="-0.03894">
        <ele>2140</ele>
        <time>2023-10-31T11:33:16Z</time>
      </trkpt>
      <trkpt lat="42.80946" lon="-0.03894">
        <ele>2139.9</ele>
        <time>2023-10-31T11:33:17Z</time>
      </trkpt>
      <trkpt lat="42.80946" lon="-0.03893">
        <ele>2139.8</ele>
        <time>2023-10-31T11:33:18Z</time>
      </trkpt>
      <trkpt lat="42.80947" lon="-0.03892">
        <ele>2139.6</ele>
        <time>2023-10-31T11:33:19Z</time>
      </trkpt>
      <trkpt lat="42.80947" lon="-0.03891">
        <ele>2139.5</ele>
        <time>2023-10-31T11:33:20Z</time>
      </trkpt>
      <trkpt lat="42.80947" lon="-0.0389">
        <ele>2139.4</ele>
        <time>2023-10-31T11:33:21Z</time>
      </trkpt>
      <trkpt lat="42.80946" lon="-0.03889">
        <ele>2139.3</ele>
        <time>2023-10-31T11:33:22Z</time>
      </trkpt>
      <trkpt lat="42.80945" lon="-0.03889">
        <ele>2139.1</ele>
        <time>2023-10-31T11:33:23Z</time>
      </trkpt>
      <trkpt lat="42.80944" lon="-0.03889">
        <ele>2138.9</ele>
        <time>2023-10-31T11:33:24Z</time>
      </trkpt>
      <trkpt lat="42.80943" lon="-0.03888">
        <ele>2138.8</ele>
        <time>2023-10-31T11:33:25Z</time>
      </trkpt>
      <trkpt lat="42.80943" lon="-0.03887">
        <ele>2138.6</ele>
        <time>2023-10-31T11:33:26Z</time>
      </trkpt>
      <trkpt lat="42.80943" lon="-0.03886">
        <ele>2138.5</ele>
        <time>2023-10-31T11:33:27Z</time>
      </trkpt>
      <trkpt lat="42.80943" lon="-0.03885">
        <ele>2138.4</ele>
        <time>2023-10-31T11:33:28Z</time>
      </trkpt>
      <trkpt lat="42.80942" lon="-0.03884">
        <ele>2138.3</ele>
        <time>2023-10-31T11:33:29Z</time>
      </trkpt>
      <trkpt lat="42.80942" lon="-0.03882">
        <ele>2138.1</ele>
        <time>2023-10-31T11:33:30Z</time>
      </trkpt>
      <trkpt lat="42.80942" lon="-0.03881">
        <ele>2138</ele>
        <time>2023-10-31T11:33:31Z</time>
      </trkpt>
      <trkpt lat="42.80941" lon="-0.0388">
        <ele>2137.8</ele>
        <time>2023-10-31T11:33:32Z</time>
      </trkpt>
      <trkpt lat="42.8094" lon="-0.03879">
        <ele>2137.7</ele>
        <time>2023-10-31T11:33:33Z</time>
      </trkpt>
      <trkpt lat="42.80941" lon="-0.03878">
        <ele>2137.5</ele>
        <time>2023-10-31T11:33:34Z</time>
      </trkpt>
      <trkpt lat="42.80941" lon="-0.03876">
        <ele>2137.4</ele>
        <time>2023-10-31T11:33:35Z</time>
      </trkpt>
      <trkpt lat="42.80941" lon="-0.03875">
        <ele>2137.2</ele>
        <time>2023-10-31T11:33:36Z</time>
      </trkpt>
      <trkpt lat="42.80942" lon="-0.03874">
        <ele>2137.1</ele>
        <time>2023-10-31T11:33:37Z</time>
      </trkpt>
      <trkpt lat="42.80942" lon="-0.03873">
        <ele>2137</ele>
        <time>2023-10-31T11:33:38Z</time>
      </trkpt>
      <trkpt lat="42.80941" lon="-0.03872">
        <ele>2136.9</ele>
        <time>2023-10-31T11:33:39Z</time>
      </trkpt>
      <trkpt lat="42.8094" lon="-0.03872">
        <ele>2136.8</ele>
        <time>2023-10-31T11:33:40Z</time>
      </trkpt>
      <trkpt lat="42.8094" lon="-0.03871">
        <ele>2136.7</ele>
        <time>2023-10-31T11:33:41Z</time>
      </trkpt>
      <trkpt lat="42.80939" lon="-0.0387">
        <ele>2136.5</ele>
        <time>2023-10-31T11:33:42Z</time>
      </trkpt>
      <trkpt lat="42.80938" lon="-0.03869">
        <ele>2136.3</ele>
        <time>2023-10-31T11:33:43Z</time>
      </trkpt>
      <trkpt lat="42.80937" lon="-0.03869">
        <ele>2136.2</ele>
        <time>2023-10-31T11:33:44Z</time>
      </trkpt>
      <trkpt lat="42.80936" lon="-0.03868">
        <ele>2136.1</ele>
        <time>2023-10-31T11:33:45Z</time>
      </trkpt>
      <trkpt lat="42.80936" lon="-0.03868">
        <ele>2136</ele>
        <time>2023-10-31T11:33:46Z</time>
      </trkpt>
      <trkpt lat="42.80935" lon="-0.03867">
        <ele>2135.8</ele>
        <time>2023-10-31T11:33:47Z</time>
      </trkpt>
      <trkpt lat="42.80934" lon="-0.03866">
        <ele>2135.6</ele>
        <time>2023-10-31T11:33:48Z</time>
      </trkpt>
      <trkpt lat="42.80933" lon="-0.03865">
        <ele>2135.5</ele>
        <time>2023-10-31T11:33:49Z</time>
      </trkpt>
      <trkpt lat="42.80932" lon="-0.03864">
        <ele>2135.3</ele>
        <time>2023-10-31T11:33:50Z</time>
      </trkpt>
      <trkpt lat="42.80931" lon="-0.03863">
        <ele>2135.1</ele>
        <time>2023-10-31T11:33:51Z</time>
      </trkpt>
      <trkpt lat="42.80931" lon="-0.03862">
        <ele>2135</ele>
        <time>2023-10-31T11:33:52Z</time>
      </trkpt>
      <trkpt lat="42.80931" lon="-0.03861">
        <ele>2134.9</ele>
        <time>2023-10-31T11:33:53Z</time>
      </trkpt>
      <trkpt lat="42.80932" lon="-0.03859">
        <ele>2134.7</ele>
        <time>2023-10-31T11:33:54Z</time>
      </trkpt>
      <trkpt lat="42.80931" lon="-0.03859">
        <ele>2134.6</ele>
        <time>2023-10-31T11:33:55Z</time>
      </trkpt>
      <trkpt lat="42.80931" lon="-0.0386">
        <ele>2134.5</ele>
        <time>2023-10-31T11:33:56Z</time>
      </trkpt>
      <trkpt lat="42.80931" lon="-0.0386">
        <ele>2134.5</ele>
        <time>2023-10-31T11:33:57Z</time>
      </trkpt>
      <trkpt lat="42.80931" lon="-0.0386">
        <ele>2134.5</ele>
        <time>2023-10-31T11:33:58Z</time>
      </trkpt>
      <trkpt lat="42.80931" lon="-0.0386">
        <ele>2134.5</ele>
        <time>2023-10-31T11:33:59Z</time>
      </trkpt>
      <trkpt lat="42.80931" lon="-0.0386">
        <ele>2134.5</ele>
        <time>2023-10-31T11:34:00Z</time>
      </trkpt>
      <trkpt lat="42.80931" lon="-0.0386">
        <ele>2134.5</ele>
        <time>2023-10-31T11:34:01Z</time>
      </trkpt>
      <trkpt lat="42.80931" lon="-0.0386">
        <ele>2134.5</ele>
        <time>2023-10-31T11:34:02Z</time>
      </trkpt>
      <trkpt lat="42.80931" lon="-0.0386">
        <ele>2134.5</ele>
        <time>2023-10-31T11:34:03Z</time>
      </trkpt>
      <trkpt lat="42.80931" lon="-0.0386">
        <ele>2134.5</ele>
        <time>2023-10-31T11:34:04Z</time>
      </trkpt>
      <trkpt lat="42.8093" lon="-0.0386">
        <ele>2134.4</ele>
        <time>2023-10-31T11:34:05Z</time>
      </trkpt>
      <trkpt lat="42.8093" lon="-0.0386">
        <ele>2134.4</ele>
        <time>2023-10-31T11:34:06Z</time>
      </trkpt>
      <trkpt lat="42.8093" lon="-0.0386">
        <ele>2134.3</ele>
        <time>2023-10-31T11:34:07Z</time>
      </trkpt>
      <trkpt lat="42.8093" lon="-0.0386">
        <ele>2134.3</ele>
        <time>2023-10-31T11:34:08Z</time>
      </trkpt>
      <trkpt lat="42.8093" lon="-0.03859">
        <ele>2134.2</ele>
        <time>2023-10-31T11:34:09Z</time>
      </trkpt>
      <trkpt lat="42.80929" lon="-0.03858">
        <ele>2134.1</ele>
        <time>2023-10-31T11:34:10Z</time>
      </trkpt>
      <trkpt lat="42.80929" lon="-0.03857">
        <ele>2133.9</ele>
        <time>2023-10-31T11:34:11Z</time>
      </trkpt>
      <trkpt lat="42.80929" lon="-0.03856">
        <ele>2133.9</ele>
        <time>2023-10-31T11:34:12Z</time>
      </trkpt>
      <trkpt lat="42.80929" lon="-0.03856">
        <ele>2133.8</ele>
        <time>2023-10-31T11:34:13Z</time>
      </trkpt>
      <trkpt lat="42.80929" lon="-0.03855">
        <ele>2133.7</ele>
        <time>2023-10-31T11:34:14Z</time>
      </trkpt>
      <trkpt lat="42.80929" lon="-0.03853">
        <ele>2133.4</ele>
        <time>2023-10-31T11:34:15Z</time>
      </trkpt>
      <trkpt lat="42.80929" lon="-0.03852">
        <ele>2133.3</ele>
        <time>2023-10-31T11:34:16Z</time>
      </trkpt>
      <trkpt lat="42.80929" lon="-0.03851">
        <ele>2133.1</ele>
        <time>2023-10-31T11:34:17Z</time>
      </trkpt>
      <trkpt lat="42.80929" lon="-0.0385">
        <ele>2133</ele>
        <time>2023-10-31T11:34:18Z</time>
      </trkpt>
      <trkpt lat="42.80929" lon="-0.03849">
        <ele>2132.8</ele>
        <time>2023-10-31T11:34:19Z</time>
      </trkpt>
      <trkpt lat="42.80928" lon="-0.03848">
        <ele>2132.7</ele>
        <time>2023-10-31T11:34:20Z</time>
      </trkpt>
      <trkpt lat="42.80928" lon="-0.03848">
        <ele>2132.5</ele>
        <time>2023-10-31T11:34:21Z</time>
      </trkpt>
      <trkpt lat="42.80928" lon="-0.03848">
        <ele>2132.5</ele>
        <time>2023-10-31T11:34:22Z</time>
      </trkpt>
      <trkpt lat="42.80928" lon="-0.03847">
        <ele>2132.4</ele>
        <time>2023-10-31T11:34:23Z</time>
      </trkpt>
      <trkpt lat="42.80927" lon="-0.03847">
        <ele>2132.2</ele>
        <time>2023-10-31T11:34:24Z</time>
      </trkpt>
      <trkpt lat="42.80927" lon="-0.03847">
        <ele>2132.1</ele>
        <time>2023-10-31T11:34:25Z</time>
      </trkpt>
      <trkpt lat="42.80926" lon="-0.03848">
        <ele>2131.9</ele>
        <time>2023-10-31T11:34:26Z</time>
      </trkpt>
      <trkpt lat="42.80925" lon="-0.03847">
        <ele>2131.7</ele>
        <time>2023-10-31T11:34:27Z</time>
      </trkpt>
      <trkpt lat="42.80924" lon="-0.03847">
        <ele>2131.5</ele>
        <time>2023-10-31T11:34:28Z</time>
      </trkpt>
      <trkpt lat="42.80923" lon="-0.03844">
        <ele>2131</ele>
        <time>2023-10-31T11:34:29Z</time>
      </trkpt>
      <trkpt lat="42.80923" lon="-0.03843">
        <ele>2130.8</ele>
        <time>2023-10-31T11:34:30Z</time>
      </trkpt>
      <trkpt lat="42.80923" lon="-0.03842">
        <ele>2130.6</ele>
        <time>2023-10-31T11:34:31Z</time>
      </trkpt>
      <trkpt lat="42.80923" lon="-0.03841">
        <ele>2130.5</ele>
        <time>2023-10-31T11:34:32Z</time>
      </trkpt>
      <trkpt lat="42.80924" lon="-0.03841">
        <ele>2130.4</ele>
        <time>2023-10-31T11:34:33Z</time>
      </trkpt>
      <trkpt lat="42.80924" lon="-0.03841">
        <ele>2130.2</ele>
        <time>2023-10-31T11:34:34Z</time>
      </trkpt>
      <trkpt lat="42.80924" lon="-0.0384">
        <ele>2130</ele>
        <time>2023-10-31T11:34:35Z</time>
      </trkpt>
      <trkpt lat="42.80924" lon="-0.03838">
        <ele>2129.9</ele>
        <time>2023-10-31T11:34:36Z</time>
      </trkpt>
      <trkpt lat="42.80924" lon="-0.03838">
        <ele>2129.7</ele>
        <time>2023-10-31T11:34:37Z</time>
      </trkpt>
      <trkpt lat="42.80924" lon="-0.03837">
        <ele>2129.6</ele>
        <time>2023-10-31T11:34:38Z</time>
      </trkpt>
      <trkpt lat="42.80924" lon="-0.03837">
        <ele>2129.5</ele>
        <time>2023-10-31T11:34:39Z</time>
      </trkpt>
      <trkpt lat="42.80924" lon="-0.03837">
        <ele>2129.5</ele>
        <time>2023-10-31T11:34:40Z</time>
      </trkpt>
      <trkpt lat="42.80924" lon="-0.03836">
        <ele>2129.3</ele>
        <time>2023-10-31T11:34:41Z</time>
      </trkpt>
      <trkpt lat="42.80924" lon="-0.03835">
        <ele>2129.3</ele>
        <time>2023-10-31T11:34:42Z</time>
      </trkpt>
      <trkpt lat="42.80924" lon="-0.03834">
        <ele>2129.1</ele>
        <time>2023-10-31T11:34:43Z</time>
      </trkpt>
      <trkpt lat="42.80924" lon="-0.03834">
        <ele>2129</ele>
        <time>2023-10-31T11:34:44Z</time>
      </trkpt>
      <trkpt lat="42.80924" lon="-0.03833">
        <ele>2128.9</ele>
        <time>2023-10-31T11:34:45Z</time>
      </trkpt>
      <trkpt lat="42.80924" lon="-0.03833">
        <ele>2128.8</ele>
        <time>2023-10-31T11:34:46Z</time>
      </trkpt>
      <trkpt lat="42.80923" lon="-0.03833">
        <ele>2128.8</ele>
        <time>2023-10-31T11:34:47Z</time>
      </trkpt>
      <trkpt lat="42.80923" lon="-0.03832">
        <ele>2128.7</ele>
        <time>2023-10-31T11:34:48Z</time>
      </trkpt>
      <trkpt lat="42.80923" lon="-0.03831">
        <ele>2128.6</ele>
        <time>2023-10-31T11:34:49Z</time>
      </trkpt>
      <trkpt lat="42.80923" lon="-0.03831">
        <ele>2128.5</ele>
        <time>2023-10-31T11:34:50Z</time>
      </trkpt>
      <trkpt lat="42.80923" lon="-0.0383">
        <ele>2128.5</ele>
        <time>2023-10-31T11:34:51Z</time>
      </trkpt>
      <trkpt lat="42.80923" lon="-0.0383">
        <ele>2128.4</ele>
        <time>2023-10-31T11:34:52Z</time>
      </trkpt>
      <trkpt lat="42.80923" lon="-0.03829">
        <ele>2128.4</ele>
        <time>2023-10-31T11:34:53Z</time>
      </trkpt>
      <trkpt lat="42.80922" lon="-0.03829">
        <ele>2128.2</ele>
        <time>2023-10-31T11:34:54Z</time>
      </trkpt>
      <trkpt lat="42.80921" lon="-0.03826">
        <ele>2127.8</ele>
        <time>2023-10-31T11:34:55Z</time>
      </trkpt>
      <trkpt lat="42.80921" lon="-0.03825">
        <ele>2127.7</ele>
        <time>2023-10-31T11:34:56Z</time>
      </trkpt>
      <trkpt lat="42.80921" lon="-0.03825">
        <ele>2127.6</ele>
        <time>2023-10-31T11:34:57Z</time>
      </trkpt>
      <trkpt lat="42.80921" lon="-0.03825">
        <ele>2127.6</ele>
        <time>2023-10-31T11:34:58Z</time>
      </trkpt>
      <trkpt lat="42.80919" lon="-0.03824">
        <ele>2127.4</ele>
        <time>2023-10-31T11:34:59Z</time>
      </trkpt>
      <trkpt lat="42.80919" lon="-0.03823">
        <ele>2127.3</ele>
        <time>2023-10-31T11:35:00Z</time>
      </trkpt>
      <trkpt lat="42.80918" lon="-0.03822">
        <ele>2127.1</ele>
        <time>2023-10-31T11:35:01Z</time>
      </trkpt>
      <trkpt lat="42.80917" lon="-0.03821">
        <ele>2126.9</ele>
        <time>2023-10-31T11:35:02Z</time>
      </trkpt>
      <trkpt lat="42.80916" lon="-0.03819">
        <ele>2126.7</ele>
        <time>2023-10-31T11:35:03Z</time>
      </trkpt>
      <trkpt lat="42.80916" lon="-0.03818">
        <ele>2126.6</ele>
        <time>2023-10-31T11:35:04Z</time>
      </trkpt>
      <trkpt lat="42.80916" lon="-0.03817">
        <ele>2126.6</ele>
        <time>2023-10-31T11:35:05Z</time>
      </trkpt>
      <trkpt lat="42.80916" lon="-0.03817">
        <ele>2126.5</ele>
        <time>2023-10-31T11:35:06Z</time>
      </trkpt>
      <trkpt lat="42.80916" lon="-0.03816">
        <ele>2126.5</ele>
        <time>2023-10-31T11:35:07Z</time>
      </trkpt>
      <trkpt lat="42.80916" lon="-0.03815">
        <ele>2126.3</ele>
        <time>2023-10-31T11:35:08Z</time>
      </trkpt>
      <trkpt lat="42.80915" lon="-0.03813">
        <ele>2126.2</ele>
        <time>2023-10-31T11:35:09Z</time>
      </trkpt>
      <trkpt lat="42.80914" lon="-0.03813">
        <ele>2126.1</ele>
        <time>2023-10-31T11:35:10Z</time>
      </trkpt>
      <trkpt lat="42.80913" lon="-0.03813">
        <ele>2126</ele>
        <time>2023-10-31T11:35:11Z</time>
      </trkpt>
      <trkpt lat="42.80913" lon="-0.03813">
        <ele>2126</ele>
        <time>2023-10-31T11:35:12Z</time>
      </trkpt>
      <trkpt lat="42.80913" lon="-0.03813">
        <ele>2125.9</ele>
        <time>2023-10-31T11:35:13Z</time>
      </trkpt>
      <trkpt lat="42.80914" lon="-0.03811">
        <ele>2125.8</ele>
        <time>2023-10-31T11:35:14Z</time>
      </trkpt>
      <trkpt lat="42.80913" lon="-0.0381">
        <ele>2125.6</ele>
        <time>2023-10-31T11:35:15Z</time>
      </trkpt>
      <trkpt lat="42.80913" lon="-0.03809">
        <ele>2125.5</ele>
        <time>2023-10-31T11:35:16Z</time>
      </trkpt>
      <trkpt lat="42.80912" lon="-0.03809">
        <ele>2125.5</ele>
        <time>2023-10-31T11:35:17Z</time>
      </trkpt>
      <trkpt lat="42.80912" lon="-0.03808">
        <ele>2125.3</ele>
        <time>2023-10-31T11:35:18Z</time>
      </trkpt>
      <trkpt lat="42.80912" lon="-0.03806">
        <ele>2125.2</ele>
        <time>2023-10-31T11:35:19Z</time>
      </trkpt>
      <trkpt lat="42.80911" lon="-0.03805">
        <ele>2125</ele>
        <time>2023-10-31T11:35:20Z</time>
      </trkpt>
      <trkpt lat="42.80911" lon="-0.03803">
        <ele>2124.9</ele>
        <time>2023-10-31T11:35:21Z</time>
      </trkpt>
      <trkpt lat="42.80911" lon="-0.03803">
        <ele>2124.8</ele>
        <time>2023-10-31T11:35:22Z</time>
      </trkpt>
      <trkpt lat="42.80911" lon="-0.03802">
        <ele>2124.7</ele>
        <time>2023-10-31T11:35:23Z</time>
      </trkpt>
      <trkpt lat="42.8091" lon="-0.03801">
        <ele>2124.5</ele>
        <time>2023-10-31T11:35:24Z</time>
      </trkpt>
      <trkpt lat="42.8091" lon="-0.03799">
        <ele>2124.3</ele>
        <time>2023-10-31T11:35:25Z</time>
      </trkpt>
      <trkpt lat="42.8091" lon="-0.03798">
        <ele>2124.2</ele>
        <time>2023-10-31T11:35:26Z</time>
      </trkpt>
      <trkpt lat="42.8091" lon="-0.03798">
        <ele>2124.2</ele>
        <time>2023-10-31T11:35:27Z</time>
      </trkpt>
      <trkpt lat="42.8091" lon="-0.03798">
        <ele>2124.2</ele>
        <time>2023-10-31T11:35:28Z</time>
      </trkpt>
      <trkpt lat="42.80908" lon="-0.03797">
        <ele>2123.9</ele>
        <time>2023-10-31T11:35:29Z</time>
      </trkpt>
      <trkpt lat="42.80907" lon="-0.03796">
        <ele>2123.7</ele>
        <time>2023-10-31T11:35:30Z</time>
      </trkpt>
      <trkpt lat="42.80906" lon="-0.03795">
        <ele>2123.5</ele>
        <time>2023-10-31T11:35:31Z</time>
      </trkpt>
      <trkpt lat="42.80906" lon="-0.03795">
        <ele>2123.4</ele>
        <time>2023-10-31T11:35:32Z</time>
      </trkpt>
      <trkpt lat="42.80907" lon="-0.03795">
        <ele>2123.3</ele>
        <time>2023-10-31T11:35:33Z</time>
      </trkpt>
      <trkpt lat="42.80906" lon="-0.03795">
        <ele>2123.1</ele>
        <time>2023-10-31T11:35:34Z</time>
      </trkpt>
      <trkpt lat="42.80905" lon="-0.03794">
        <ele>2123</ele>
        <time>2023-10-31T11:35:35Z</time>
      </trkpt>
      <trkpt lat="42.80905" lon="-0.03794">
        <ele>2122.9</ele>
        <time>2023-10-31T11:35:36Z</time>
      </trkpt>
      <trkpt lat="42.80904" lon="-0.03794">
        <ele>2122.7</ele>
        <time>2023-10-31T11:35:37Z</time>
      </trkpt>
      <trkpt lat="42.80904" lon="-0.03793">
        <ele>2122.6</ele>
        <time>2023-10-31T11:35:38Z</time>
      </trkpt>
      <trkpt lat="42.80904" lon="-0.03792">
        <ele>2122.4</ele>
        <time>2023-10-31T11:35:39Z</time>
      </trkpt>
      <trkpt lat="42.80904" lon="-0.03791">
        <ele>2122.3</ele>
        <time>2023-10-31T11:35:40Z</time>
      </trkpt>
      <trkpt lat="42.80904" lon="-0.03791">
        <ele>2122.2</ele>
        <time>2023-10-31T11:35:41Z</time>
      </trkpt>
      <trkpt lat="42.80904" lon="-0.0379">
        <ele>2122.1</ele>
        <time>2023-10-31T11:35:42Z</time>
      </trkpt>
      <trkpt lat="42.80903" lon="-0.0379">
        <ele>2122</ele>
        <time>2023-10-31T11:35:43Z</time>
      </trkpt>
      <trkpt lat="42.80903" lon="-0.03791">
        <ele>2121.9</ele>
        <time>2023-10-31T11:35:44Z</time>
      </trkpt>
      <trkpt lat="42.80903" lon="-0.03791">
        <ele>2121.8</ele>
        <time>2023-10-31T11:35:45Z</time>
      </trkpt>
      <trkpt lat="42.80903" lon="-0.03792">
        <ele>2121.5</ele>
        <time>2023-10-31T11:35:46Z</time>
      </trkpt>
      <trkpt lat="42.80902" lon="-0.0379">
        <ele>2121.2</ele>
        <time>2023-10-31T11:35:47Z</time>
      </trkpt>
      <trkpt lat="42.80902" lon="-0.0379">
        <ele>2121.1</ele>
        <time>2023-10-31T11:35:48Z</time>
      </trkpt>
      <trkpt lat="42.80902" lon="-0.03789">
        <ele>2120.9</ele>
        <time>2023-10-31T11:35:49Z</time>
      </trkpt>
      <trkpt lat="42.80901" lon="-0.03788">
        <ele>2120.7</ele>
        <time>2023-10-31T11:35:50Z</time>
      </trkpt>
      <trkpt lat="42.80901" lon="-0.03788">
        <ele>2120.6</ele>
        <time>2023-10-31T11:35:51Z</time>
      </trkpt>
      <trkpt lat="42.809" lon="-0.03788">
        <ele>2120.5</ele>
        <time>2023-10-31T11:35:52Z</time>
      </trkpt>
      <trkpt lat="42.809" lon="-0.03788">
        <ele>2120.3</ele>
        <time>2023-10-31T11:35:53Z</time>
      </trkpt>
      <trkpt lat="42.80899" lon="-0.03789">
        <ele>2120.1</ele>
        <time>2023-10-31T11:35:54Z</time>
      </trkpt>
      <trkpt lat="42.80899" lon="-0.03789">
        <ele>2120.1</ele>
        <time>2023-10-31T11:35:55Z</time>
      </trkpt>
      <trkpt lat="42.80898" lon="-0.03789">
        <ele>2120</ele>
        <time>2023-10-31T11:35:56Z</time>
      </trkpt>
      <trkpt lat="42.80898" lon="-0.03788">
        <ele>2119.9</ele>
        <time>2023-10-31T11:35:57Z</time>
      </trkpt>
      <trkpt lat="42.80898" lon="-0.03788">
        <ele>2119.8</ele>
        <time>2023-10-31T11:35:58Z</time>
      </trkpt>
      <trkpt lat="42.80898" lon="-0.03787">
        <ele>2119.7</ele>
        <time>2023-10-31T11:35:59Z</time>
      </trkpt>
      <trkpt lat="42.80899" lon="-0.03786">
        <ele>2119.6</ele>
        <time>2023-10-31T11:36:00Z</time>
      </trkpt>
      <trkpt lat="42.80898" lon="-0.03786">
        <ele>2119.4</ele>
        <time>2023-10-31T11:36:01Z</time>
      </trkpt>
      <trkpt lat="42.80898" lon="-0.03784">
        <ele>2119.3</ele>
        <time>2023-10-31T11:36:02Z</time>
      </trkpt>
      <trkpt lat="42.80898" lon="-0.03783">
        <ele>2119.2</ele>
        <time>2023-10-31T11:36:03Z</time>
      </trkpt>
      <trkpt lat="42.80898" lon="-0.03784">
        <ele>2119.1</ele>
        <time>2023-10-31T11:36:04Z</time>
      </trkpt>
      <trkpt lat="42.80897" lon="-0.03784">
        <ele>2119</ele>
        <time>2023-10-31T11:36:05Z</time>
      </trkpt>
      <trkpt lat="42.80897" lon="-0.03784">
        <ele>2119</ele>
        <time>2023-10-31T11:36:06Z</time>
      </trkpt>
      <trkpt lat="42.80897" lon="-0.03783">
        <ele>2118.9</ele>
        <time>2023-10-31T11:36:07Z</time>
      </trkpt>
      <trkpt lat="42.80897" lon="-0.03783">
        <ele>2118.8</ele>
        <time>2023-10-31T11:36:08Z</time>
      </trkpt>
      <trkpt lat="42.80896" lon="-0.03782">
        <ele>2118.7</ele>
        <time>2023-10-31T11:36:09Z</time>
      </trkpt>
      <trkpt lat="42.80896" lon="-0.03781">
        <ele>2118.6</ele>
        <time>2023-10-31T11:36:10Z</time>
      </trkpt>
      <trkpt lat="42.80896" lon="-0.03779">
        <ele>2118.4</ele>
        <time>2023-10-31T11:36:11Z</time>
      </trkpt>
      <trkpt lat="42.80896" lon="-0.03778">
        <ele>2118.2</ele>
        <time>2023-10-31T11:36:12Z</time>
      </trkpt>
      <trkpt lat="42.80896" lon="-0.03777">
        <ele>2118.1</ele>
        <time>2023-10-31T11:36:13Z</time>
      </trkpt>
      <trkpt lat="42.80896" lon="-0.03776">
        <ele>2118</ele>
        <time>2023-10-31T11:36:14Z</time>
      </trkpt>
      <trkpt lat="42.80896" lon="-0.03775">
        <ele>2117.9</ele>
        <time>2023-10-31T11:36:15Z</time>
      </trkpt>
      <trkpt lat="42.80896" lon="-0.03774">
        <ele>2117.8</ele>
        <time>2023-10-31T11:36:16Z</time>
      </trkpt>
      <trkpt lat="42.80896" lon="-0.03772">
        <ele>2117.7</ele>
        <time>2023-10-31T11:36:17Z</time>
      </trkpt>
      <trkpt lat="42.80895" lon="-0.03771">
        <ele>2117.5</ele>
        <time>2023-10-31T11:36:18Z</time>
      </trkpt>
      <trkpt lat="42.80895" lon="-0.03771">
        <ele>2117.5</ele>
        <time>2023-10-31T11:36:19Z</time>
      </trkpt>
      <trkpt lat="42.80895" lon="-0.0377">
        <ele>2117.4</ele>
        <time>2023-10-31T11:36:20Z</time>
      </trkpt>
      <trkpt lat="42.80895" lon="-0.0377">
        <ele>2117.4</ele>
        <time>2023-10-31T11:36:21Z</time>
      </trkpt>
      <trkpt lat="42.80894" lon="-0.03768">
        <ele>2117.3</ele>
        <time>2023-10-31T11:36:22Z</time>
      </trkpt>
      <trkpt lat="42.80894" lon="-0.03767">
        <ele>2117.2</ele>
        <time>2023-10-31T11:36:23Z</time>
      </trkpt>
      <trkpt lat="42.80894" lon="-0.03767">
        <ele>2117.1</ele>
        <time>2023-10-31T11:36:24Z</time>
      </trkpt>
      <trkpt lat="42.80894" lon="-0.03766">
        <ele>2117.1</ele>
        <time>2023-10-31T11:36:25Z</time>
      </trkpt>
      <trkpt lat="42.80894" lon="-0.03766">
        <ele>2117.1</ele>
        <time>2023-10-31T11:36:26Z</time>
      </trkpt>
      <trkpt lat="42.80894" lon="-0.03766">
        <ele>2117</ele>
        <time>2023-10-31T11:36:27Z</time>
      </trkpt>
      <trkpt lat="42.80894" lon="-0.03765">
        <ele>2117</ele>
        <time>2023-10-31T11:36:28Z</time>
      </trkpt>
      <trkpt lat="42.80894" lon="-0.03764">
        <ele>2116.9</ele>
        <time>2023-10-31T11:36:29Z</time>
      </trkpt>
      <trkpt lat="42.80893" lon="-0.03763">
        <ele>2116.8</ele>
        <time>2023-10-31T11:36:30Z</time>
      </trkpt>
      <trkpt lat="42.80892" lon="-0.03762">
        <ele>2116.7</ele>
        <time>2023-10-31T11:36:31Z</time>
      </trkpt>
      <trkpt lat="42.80892" lon="-0.03761">
        <ele>2116.6</ele>
        <time>2023-10-31T11:36:32Z</time>
      </trkpt>
      <trkpt lat="42.80891" lon="-0.03761">
        <ele>2116.5</ele>
        <time>2023-10-31T11:36:33Z</time>
      </trkpt>
      <trkpt lat="42.80891" lon="-0.0376">
        <ele>2116.4</ele>
        <time>2023-10-31T11:36:34Z</time>
      </trkpt>
      <trkpt lat="42.80891" lon="-0.03759">
        <ele>2116.4</ele>
        <time>2023-10-31T11:36:35Z</time>
      </trkpt>
      <trkpt lat="42.80891" lon="-0.03759">
        <ele>2116.4</ele>
        <time>2023-10-31T11:36:36Z</time>
      </trkpt>
      <trkpt lat="42.80891" lon="-0.03758">
        <ele>2116.3</ele>
        <time>2023-10-31T11:36:37Z</time>
      </trkpt>
      <trkpt lat="42.80891" lon="-0.03758">
        <ele>2116.3</ele>
        <time>2023-10-31T11:36:38Z</time>
      </trkpt>
      <trkpt lat="42.80891" lon="-0.03757">
        <ele>2116.2</ele>
        <time>2023-10-31T11:36:39Z</time>
      </trkpt>
      <trkpt lat="42.80891" lon="-0.03757">
        <ele>2116.2</ele>
        <time>2023-10-31T11:36:40Z</time>
      </trkpt>
      <trkpt lat="42.80891" lon="-0.03756">
        <ele>2116.1</ele>
        <time>2023-10-31T11:36:41Z</time>
      </trkpt>
      <trkpt lat="42.8089" lon="-0.03755">
        <ele>2116</ele>
        <time>2023-10-31T11:36:42Z</time>
      </trkpt>
      <trkpt lat="42.8089" lon="-0.03755">
        <ele>2116</ele>
        <time>2023-10-31T11:36:43Z</time>
      </trkpt>
      <trkpt lat="42.80891" lon="-0.03755">
        <ele>2115.9</ele>
        <time>2023-10-31T11:36:44Z</time>
      </trkpt>
      <trkpt lat="42.80891" lon="-0.03755">
        <ele>2115.9</ele>
        <time>2023-10-31T11:36:45Z</time>
      </trkpt>
      <trkpt lat="42.80891" lon="-0.03754">
        <ele>2115.8</ele>
        <time>2023-10-31T11:36:46Z</time>
      </trkpt>
      <trkpt lat="42.80891" lon="-0.03753">
        <ele>2115.8</ele>
        <time>2023-10-31T11:36:47Z</time>
      </trkpt>
      <trkpt lat="42.8089" lon="-0.03752">
        <ele>2115.6</ele>
        <time>2023-10-31T11:36:48Z</time>
      </trkpt>
      <trkpt lat="42.8089" lon="-0.03751">
        <ele>2115.6</ele>
        <time>2023-10-31T11:36:49Z</time>
      </trkpt>
      <trkpt lat="42.80889" lon="-0.0375">
        <ele>2115.4</ele>
        <time>2023-10-31T11:36:50Z</time>
      </trkpt>
      <trkpt lat="42.80889" lon="-0.0375">
        <ele>2115.3</ele>
        <time>2023-10-31T11:36:51Z</time>
      </trkpt>
      <trkpt lat="42.80888" lon="-0.0375">
        <ele>2115.3</ele>
        <time>2023-10-31T11:36:52Z</time>
      </trkpt>
      <trkpt lat="42.80888" lon="-0.03749">
        <ele>2115.2</ele>
        <time>2023-10-31T11:36:53Z</time>
      </trkpt>
      <trkpt lat="42.80887" lon="-0.03749">
        <ele>2115.1</ele>
        <time>2023-10-31T11:36:54Z</time>
      </trkpt>
      <trkpt lat="42.80887" lon="-0.03749">
        <ele>2115.1</ele>
        <time>2023-10-31T11:36:55Z</time>
      </trkpt>
      <trkpt lat="42.80886" lon="-0.03748">
        <ele>2114.9</ele>
        <time>2023-10-31T11:36:56Z</time>
      </trkpt>
      <trkpt lat="42.80885" lon="-0.03748">
        <ele>2114.8</ele>
        <time>2023-10-31T11:36:57Z</time>
      </trkpt>
      <trkpt lat="42.80884" lon="-0.03747">
        <ele>2114.7</ele>
        <time>2023-10-31T11:36:58Z</time>
      </trkpt>
      <trkpt lat="42.80884" lon="-0.03747">
        <ele>2114.6</ele>
        <time>2023-10-31T11:36:59Z</time>
      </trkpt>
      <trkpt lat="42.80884" lon="-0.03748">
        <ele>2114.5</ele>
        <time>2023-10-31T11:37:00Z</time>
      </trkpt>
      <trkpt lat="42.80884" lon="-0.03748">
        <ele>2114.4</ele>
        <time>2023-10-31T11:37:01Z</time>
      </trkpt>
      <trkpt lat="42.80884" lon="-0.03747">
        <ele>2114.4</ele>
        <time>2023-10-31T11:37:02Z</time>
      </trkpt>
      <trkpt lat="42.80884" lon="-0.03747">
        <ele>2114.4</ele>
        <time>2023-10-31T11:37:03Z</time>
      </trkpt>
      <trkpt lat="42.80884" lon="-0.03747">
        <ele>2114.3</ele>
        <time>2023-10-31T11:37:04Z</time>
      </trkpt>
      <trkpt lat="42.80885" lon="-0.03746">
        <ele>2114.2</ele>
        <time>2023-10-31T11:37:05Z</time>
      </trkpt>
      <trkpt lat="42.80885" lon="-0.03745">
        <ele>2114.1</ele>
        <time>2023-10-31T11:37:06Z</time>
      </trkpt>
      <trkpt lat="42.80885" lon="-0.03745">
        <ele>2114</ele>
        <time>2023-10-31T11:37:07Z</time>
      </trkpt>
      <trkpt lat="42.80885" lon="-0.03745">
        <ele>2114</ele>
        <time>2023-10-31T11:37:08Z</time>
      </trkpt>
      <trkpt lat="42.80885" lon="-0.03744">
        <ele>2113.9</ele>
        <time>2023-10-31T11:37:09Z</time>
      </trkpt>
      <trkpt lat="42.80885" lon="-0.03743">
        <ele>2113.8</ele>
        <time>2023-10-31T11:37:10Z</time>
      </trkpt>
      <trkpt lat="42.80885" lon="-0.03743">
        <ele>2113.8</ele>
        <time>2023-10-31T11:37:11Z</time>
      </trkpt>
      <trkpt lat="42.80886" lon="-0.03741">
        <ele>2113.6</ele>
        <time>2023-10-31T11:37:12Z</time>
      </trkpt>
      <trkpt lat="42.80886" lon="-0.0374">
        <ele>2113.4</ele>
        <time>2023-10-31T11:37:13Z</time>
      </trkpt>
      <trkpt lat="42.80887" lon="-0.03739">
        <ele>2113.3</ele>
        <time>2023-10-31T11:37:14Z</time>
      </trkpt>
      <trkpt lat="42.80887" lon="-0.03739">
        <ele>2113.2</ele>
        <time>2023-10-31T11:37:15Z</time>
      </trkpt>
      <trkpt lat="42.80886" lon="-0.03739">
        <ele>2113.1</ele>
        <time>2023-10-31T11:37:16Z</time>
      </trkpt>
      <trkpt lat="42.80886" lon="-0.03737">
        <ele>2112.9</ele>
        <time>2023-10-31T11:37:17Z</time>
      </trkpt>
      <trkpt lat="42.80885" lon="-0.03736">
        <ele>2112.7</ele>
        <time>2023-10-31T11:37:18Z</time>
      </trkpt>
      <trkpt lat="42.80885" lon="-0.03735">
        <ele>2112.7</ele>
        <time>2023-10-31T11:37:19Z</time>
      </trkpt>
      <trkpt lat="42.80884" lon="-0.03734">
        <ele>2112.5</ele>
        <time>2023-10-31T11:37:20Z</time>
      </trkpt>
      <trkpt lat="42.80884" lon="-0.03732">
        <ele>2112.3</ele>
        <time>2023-10-31T11:37:21Z</time>
      </trkpt>
      <trkpt lat="42.80884" lon="-0.03731">
        <ele>2112.1</ele>
        <time>2023-10-31T11:37:22Z</time>
      </trkpt>
      <trkpt lat="42.80883" lon="-0.0373">
        <ele>2112</ele>
        <time>2023-10-31T11:37:23Z</time>
      </trkpt>
      <trkpt lat="42.80883" lon="-0.0373">
        <ele>2111.9</ele>
        <time>2023-10-31T11:37:24Z</time>
      </trkpt>
      <trkpt lat="42.80883" lon="-0.03729">
        <ele>2111.8</ele>
        <time>2023-10-31T11:37:25Z</time>
      </trkpt>
      <trkpt lat="42.80882" lon="-0.03729">
        <ele>2111.7</ele>
        <time>2023-10-31T11:37:26Z</time>
      </trkpt>
      <trkpt lat="42.80882" lon="-0.03729">
        <ele>2111.7</ele>
        <time>2023-10-31T11:37:27Z</time>
      </trkpt>
      <trkpt lat="42.80881" lon="-0.03728">
        <ele>2111.5</ele>
        <time>2023-10-31T11:37:28Z</time>
      </trkpt>
      <trkpt lat="42.80881" lon="-0.03727">
        <ele>2111.4</ele>
        <time>2023-10-31T11:37:29Z</time>
      </trkpt>
      <trkpt lat="42.80881" lon="-0.03726">
        <ele>2111.2</ele>
        <time>2023-10-31T11:37:30Z</time>
      </trkpt>
      <trkpt lat="42.8088" lon="-0.03722">
        <ele>2110.8</ele>
        <time>2023-10-31T11:37:31Z</time>
      </trkpt>
      <trkpt lat="42.8088" lon="-0.0372">
        <ele>2110.6</ele>
        <time>2023-10-31T11:37:32Z</time>
      </trkpt>
      <trkpt lat="42.80881" lon="-0.0372">
        <ele>2110.4</ele>
        <time>2023-10-31T11:37:33Z</time>
      </trkpt>
      <trkpt lat="42.80881" lon="-0.03718">
        <ele>2110.2</ele>
        <time>2023-10-31T11:37:34Z</time>
      </trkpt>
      <trkpt lat="42.80882" lon="-0.03717">
        <ele>2110</ele>
        <time>2023-10-31T11:37:35Z</time>
      </trkpt>
      <trkpt lat="42.80881" lon="-0.03715">
        <ele>2109.8</ele>
        <time>2023-10-31T11:37:36Z</time>
      </trkpt>
      <trkpt lat="42.8088" lon="-0.03714">
        <ele>2109.7</ele>
        <time>2023-10-31T11:37:37Z</time>
      </trkpt>
      <trkpt lat="42.80879" lon="-0.03713">
        <ele>2109.5</ele>
        <time>2023-10-31T11:37:38Z</time>
      </trkpt>
      <trkpt lat="42.8088" lon="-0.0371">
        <ele>2109.2</ele>
        <time>2023-10-31T11:37:39Z</time>
      </trkpt>
      <trkpt lat="42.80881" lon="-0.0371">
        <ele>2109</ele>
        <time>2023-10-31T11:37:40Z</time>
      </trkpt>
      <trkpt lat="42.80881" lon="-0.03709">
        <ele>2108.9</ele>
        <time>2023-10-31T11:37:41Z</time>
      </trkpt>
      <trkpt lat="42.80882" lon="-0.03708">
        <ele>2108.8</ele>
        <time>2023-10-31T11:37:42Z</time>
      </trkpt>
      <trkpt lat="42.80881" lon="-0.03706">
        <ele>2108.5</ele>
        <time>2023-10-31T11:37:43Z</time>
      </trkpt>
      <trkpt lat="42.8088" lon="-0.03705">
        <ele>2108.3</ele>
        <time>2023-10-31T11:37:44Z</time>
      </trkpt>
      <trkpt lat="42.8088" lon="-0.03704">
        <ele>2108.3</ele>
        <time>2023-10-31T11:37:45Z</time>
      </trkpt>
      <trkpt lat="42.8088" lon="-0.03705">
        <ele>2108.2</ele>
        <time>2023-10-31T11:37:46Z</time>
      </trkpt>
      <trkpt lat="42.8088" lon="-0.03705">
        <ele>2108.1</ele>
        <time>2023-10-31T11:37:47Z</time>
      </trkpt>
      <trkpt lat="42.8088" lon="-0.03706">
        <ele>2108.1</ele>
        <time>2023-10-31T11:37:48Z</time>
      </trkpt>
      <trkpt lat="42.8088" lon="-0.03705">
        <ele>2108</ele>
        <time>2023-10-31T11:37:49Z</time>
      </trkpt>
      <trkpt lat="42.80879" lon="-0.03706">
        <ele>2108</ele>
        <time>2023-10-31T11:37:50Z</time>
      </trkpt>
      <trkpt lat="42.80879" lon="-0.03706">
        <ele>2108</ele>
        <time>2023-10-31T11:37:51Z</time>
      </trkpt>
      <trkpt lat="42.80879" lon="-0.03706">
        <ele>2108</ele>
        <time>2023-10-31T11:37:52Z</time>
      </trkpt>
      <trkpt lat="42.80879" lon="-0.03706">
        <ele>2108</ele>
        <time>2023-10-31T11:37:53Z</time>
      </trkpt>
      <trkpt lat="42.80879" lon="-0.03706">
        <ele>2108</ele>
        <time>2023-10-31T11:37:54Z</time>
      </trkpt>
      <trkpt lat="42.80879" lon="-0.03706">
        <ele>2108</ele>
        <time>2023-10-31T11:37:55Z</time>
      </trkpt>
      <trkpt lat="42.80879" lon="-0.03706">
        <ele>2108</ele>
        <time>2023-10-31T11:37:56Z</time>
      </trkpt>
      <trkpt lat="42.80879" lon="-0.03706">
        <ele>2108</ele>
        <time>2023-10-31T11:37:57Z</time>
      </trkpt>
      <trkpt lat="42.80879" lon="-0.03706">
        <ele>2108</ele>
        <time>2023-10-31T11:37:58Z</time>
      </trkpt>
      <trkpt lat="42.80879" lon="-0.03706">
        <ele>2108</ele>
        <time>2023-10-31T11:37:59Z</time>
      </trkpt>
      <trkpt lat="42.80879" lon="-0.03706">
        <ele>2108</ele>
        <time>2023-10-31T11:38:00Z</time>
      </trkpt>
      <trkpt lat="42.80879" lon="-0.03706">
        <ele>2108</ele>
        <time>2023-10-31T11:38:01Z</time>
      </trkpt>
      <trkpt lat="42.80879" lon="-0.03706">
        <ele>2108</ele>
        <time>2023-10-31T11:38:02Z</time>
      </trkpt>
      <trkpt lat="42.80879" lon="-0.03706">
        <ele>2108</ele>
        <time>2023-10-31T11:38:03Z</time>
      </trkpt>
      <trkpt lat="42.80879" lon="-0.03707">
        <ele>2107.8</ele>
        <time>2023-10-31T11:38:04Z</time>
      </trkpt>
      <trkpt lat="42.80879" lon="-0.03706">
        <ele>2107.6</ele>
        <time>2023-10-31T11:38:05Z</time>
      </trkpt>
      <trkpt lat="42.80878" lon="-0.03705">
        <ele>2107.5</ele>
        <time>2023-10-31T11:38:06Z</time>
      </trkpt>
      <trkpt lat="42.80878" lon="-0.03704">
        <ele>2107.4</ele>
        <time>2023-10-31T11:38:07Z</time>
      </trkpt>
      <trkpt lat="42.80878" lon="-0.03704">
        <ele>2107.3</ele>
        <time>2023-10-31T11:38:08Z</time>
      </trkpt>
      <trkpt lat="42.80877" lon="-0.03703">
        <ele>2107.1</ele>
        <time>2023-10-31T11:38:09Z</time>
      </trkpt>
      <trkpt lat="42.80876" lon="-0.03703">
        <ele>2106.9</ele>
        <time>2023-10-31T11:38:10Z</time>
      </trkpt>
      <trkpt lat="42.80875" lon="-0.03703">
        <ele>2106.8</ele>
        <time>2023-10-31T11:38:11Z</time>
      </trkpt>
      <trkpt lat="42.80875" lon="-0.03703">
        <ele>2106.8</ele>
        <time>2023-10-31T11:38:12Z</time>
      </trkpt>
      <trkpt lat="42.80875" lon="-0.03704">
        <ele>2106.8</ele>
        <time>2023-10-31T11:38:13Z</time>
      </trkpt>
      <trkpt lat="42.80874" lon="-0.03703">
        <ele>2106.7</ele>
        <time>2023-10-31T11:38:14Z</time>
      </trkpt>
      <trkpt lat="42.80874" lon="-0.03702">
        <ele>2106.5</ele>
        <time>2023-10-31T11:38:15Z</time>
      </trkpt>
      <trkpt lat="42.80873" lon="-0.03701">
        <ele>2106.4</ele>
        <time>2023-10-31T11:38:16Z</time>
      </trkpt>
      <trkpt lat="42.80873" lon="-0.037">
        <ele>2106.2</ele>
        <time>2023-10-31T11:38:17Z</time>
      </trkpt>
      <trkpt lat="42.80873" lon="-0.03699">
        <ele>2106.1</ele>
        <time>2023-10-31T11:38:18Z</time>
      </trkpt>
      <trkpt lat="42.80873" lon="-0.03697">
        <ele>2105.9</ele>
        <time>2023-10-31T11:38:19Z</time>
      </trkpt>
      <trkpt lat="42.80873" lon="-0.03697">
        <ele>2105.8</ele>
        <time>2023-10-31T11:38:20Z</time>
      </trkpt>
      <trkpt lat="42.80872" lon="-0.03696">
        <ele>2105.6</ele>
        <time>2023-10-31T11:38:21Z</time>
      </trkpt>
      <trkpt lat="42.80872" lon="-0.03695">
        <ele>2105.5</ele>
        <time>2023-10-31T11:38:22Z</time>
      </trkpt>
      <trkpt lat="42.80871" lon="-0.03693">
        <ele>2105.2</ele>
        <time>2023-10-31T11:38:23Z</time>
      </trkpt>
      <trkpt lat="42.8087" lon="-0.03692">
        <ele>2105.1</ele>
        <time>2023-10-31T11:38:24Z</time>
      </trkpt>
      <trkpt lat="42.80869" lon="-0.03692">
        <ele>2104.9</ele>
        <time>2023-10-31T11:38:25Z</time>
      </trkpt>
      <trkpt lat="42.80869" lon="-0.03691">
        <ele>2104.8</ele>
        <time>2023-10-31T11:38:26Z</time>
      </trkpt>
      <trkpt lat="42.80869" lon="-0.0369">
        <ele>2104.7</ele>
        <time>2023-10-31T11:38:27Z</time>
      </trkpt>
      <trkpt lat="42.80868" lon="-0.03689">
        <ele>2104.5</ele>
        <time>2023-10-31T11:38:28Z</time>
      </trkpt>
      <trkpt lat="42.80868" lon="-0.03689">
        <ele>2104.4</ele>
        <time>2023-10-31T11:38:29Z</time>
      </trkpt>
      <trkpt lat="42.80868" lon="-0.03688">
        <ele>2104.3</ele>
        <time>2023-10-31T11:38:30Z</time>
      </trkpt>
      <trkpt lat="42.80867" lon="-0.03687">
        <ele>2104.2</ele>
        <time>2023-10-31T11:38:31Z</time>
      </trkpt>
      <trkpt lat="42.80867" lon="-0.03687">
        <ele>2104.1</ele>
        <time>2023-10-31T11:38:32Z</time>
      </trkpt>
      <trkpt lat="42.80867" lon="-0.03686">
        <ele>2103.9</ele>
        <time>2023-10-31T11:38:33Z</time>
      </trkpt>
      <trkpt lat="42.80867" lon="-0.03684">
        <ele>2103.8</ele>
        <time>2023-10-31T11:38:34Z</time>
      </trkpt>
      <trkpt lat="42.80866" lon="-0.03684">
        <ele>2103.7</ele>
        <time>2023-10-31T11:38:35Z</time>
      </trkpt>
      <trkpt lat="42.80865" lon="-0.03683">
        <ele>2103.5</ele>
        <time>2023-10-31T11:38:36Z</time>
      </trkpt>
      <trkpt lat="42.80865" lon="-0.03682">
        <ele>2103.3</ele>
        <time>2023-10-31T11:38:37Z</time>
      </trkpt>
      <trkpt lat="42.80864" lon="-0.03681">
        <ele>2103.1</ele>
        <time>2023-10-31T11:38:38Z</time>
      </trkpt>
      <trkpt lat="42.80864" lon="-0.03681">
        <ele>2103</ele>
        <time>2023-10-31T11:38:39Z</time>
      </trkpt>
      <trkpt lat="42.80863" lon="-0.0368">
        <ele>2102.9</ele>
        <time>2023-10-31T11:38:40Z</time>
      </trkpt>
      <trkpt lat="42.80862" lon="-0.0368">
        <ele>2102.6</ele>
        <time>2023-10-31T11:38:41Z</time>
      </trkpt>
      <trkpt lat="42.80861" lon="-0.03679">
        <ele>2102.4</ele>
        <time>2023-10-31T11:38:42Z</time>
      </trkpt>
      <trkpt lat="42.80861" lon="-0.03678">
        <ele>2102.3</ele>
        <time>2023-10-31T11:38:43Z</time>
      </trkpt>
      <trkpt lat="42.8086" lon="-0.03677">
        <ele>2102.1</ele>
        <time>2023-10-31T11:38:44Z</time>
      </trkpt>
      <trkpt lat="42.8086" lon="-0.03676">
        <ele>2101.9</ele>
        <time>2023-10-31T11:38:45Z</time>
      </trkpt>
      <trkpt lat="42.8086" lon="-0.03675">
        <ele>2101.7</ele>
        <time>2023-10-31T11:38:46Z</time>
      </trkpt>
      <trkpt lat="42.8086" lon="-0.03674">
        <ele>2101.6</ele>
        <time>2023-10-31T11:38:47Z</time>
      </trkpt>
      <trkpt lat="42.80859" lon="-0.03674">
        <ele>2101.5</ele>
        <time>2023-10-31T11:38:48Z</time>
      </trkpt>
      <trkpt lat="42.80859" lon="-0.03673">
        <ele>2101.4</ele>
        <time>2023-10-31T11:38:49Z</time>
      </trkpt>
      <trkpt lat="42.80859" lon="-0.03673">
        <ele>2101.3</ele>
        <time>2023-10-31T11:38:50Z</time>
      </trkpt>
      <trkpt lat="42.80857" lon="-0.03672">
        <ele>2101</ele>
        <time>2023-10-31T11:38:51Z</time>
      </trkpt>
      <trkpt lat="42.80856" lon="-0.03672">
        <ele>2100.8</ele>
        <time>2023-10-31T11:38:52Z</time>
      </trkpt>
      <trkpt lat="42.80856" lon="-0.03671">
        <ele>2100.7</ele>
        <time>2023-10-31T11:38:53Z</time>
      </trkpt>
      <trkpt lat="42.80855" lon="-0.0367">
        <ele>2100.6</ele>
        <time>2023-10-31T11:38:54Z</time>
      </trkpt>
      <trkpt lat="42.80855" lon="-0.03669">
        <ele>2100.4</ele>
        <time>2023-10-31T11:38:55Z</time>
      </trkpt>
      <trkpt lat="42.80855" lon="-0.03668">
        <ele>2100.2</ele>
        <time>2023-10-31T11:38:56Z</time>
      </trkpt>
      <trkpt lat="42.80855" lon="-0.03667">
        <ele>2100.1</ele>
        <time>2023-10-31T11:38:57Z</time>
      </trkpt>
      <trkpt lat="42.80855" lon="-0.03666">
        <ele>2100</ele>
        <time>2023-10-31T11:38:58Z</time>
      </trkpt>
      <trkpt lat="42.80855" lon="-0.03665">
        <ele>2099.8</ele>
        <time>2023-10-31T11:38:59Z</time>
      </trkpt>
      <trkpt lat="42.80854" lon="-0.03665">
        <ele>2099.7</ele>
        <time>2023-10-31T11:39:00Z</time>
      </trkpt>
      <trkpt lat="42.80854" lon="-0.03663">
        <ele>2099.6</ele>
        <time>2023-10-31T11:39:01Z</time>
      </trkpt>
      <trkpt lat="42.80853" lon="-0.03663">
        <ele>2099.4</ele>
        <time>2023-10-31T11:39:02Z</time>
      </trkpt>
      <trkpt lat="42.80852" lon="-0.03662">
        <ele>2099.2</ele>
        <time>2023-10-31T11:39:03Z</time>
      </trkpt>
      <trkpt lat="42.80852" lon="-0.03661">
        <ele>2099</ele>
        <time>2023-10-31T11:39:04Z</time>
      </trkpt>
      <trkpt lat="42.80852" lon="-0.0366">
        <ele>2098.9</ele>
        <time>2023-10-31T11:39:05Z</time>
      </trkpt>
      <trkpt lat="42.80851" lon="-0.03659">
        <ele>2098.7</ele>
        <time>2023-10-31T11:39:06Z</time>
      </trkpt>
      <trkpt lat="42.80851" lon="-0.03658">
        <ele>2098.6</ele>
        <time>2023-10-31T11:39:07Z</time>
      </trkpt>
      <trkpt lat="42.8085" lon="-0.03657">
        <ele>2098.5</ele>
        <time>2023-10-31T11:39:08Z</time>
      </trkpt>
      <trkpt lat="42.8085" lon="-0.03656">
        <ele>2098.4</ele>
        <time>2023-10-31T11:39:09Z</time>
      </trkpt>
      <trkpt lat="42.80849" lon="-0.03655">
        <ele>2098.2</ele>
        <time>2023-10-31T11:39:10Z</time>
      </trkpt>
      <trkpt lat="42.80849" lon="-0.03654">
        <ele>2098</ele>
        <time>2023-10-31T11:39:11Z</time>
      </trkpt>
      <trkpt lat="42.80849" lon="-0.03652">
        <ele>2097.8</ele>
        <time>2023-10-31T11:39:12Z</time>
      </trkpt>
      <trkpt lat="42.80849" lon="-0.03651">
        <ele>2097.8</ele>
        <time>2023-10-31T11:39:13Z</time>
      </trkpt>
      <trkpt lat="42.80849" lon="-0.0365">
        <ele>2097.6</ele>
        <time>2023-10-31T11:39:14Z</time>
      </trkpt>
      <trkpt lat="42.80849" lon="-0.0365">
        <ele>2097.5</ele>
        <time>2023-10-31T11:39:15Z</time>
      </trkpt>
      <trkpt lat="42.80848" lon="-0.03649">
        <ele>2097.4</ele>
        <time>2023-10-31T11:39:16Z</time>
      </trkpt>
      <trkpt lat="42.80849" lon="-0.03648">
        <ele>2097.3</ele>
        <time>2023-10-31T11:39:17Z</time>
      </trkpt>
      <trkpt lat="42.80849" lon="-0.03647">
        <ele>2097.1</ele>
        <time>2023-10-31T11:39:18Z</time>
      </trkpt>
      <trkpt lat="42.80849" lon="-0.03646">
        <ele>2097.1</ele>
        <time>2023-10-31T11:39:19Z</time>
      </trkpt>
      <trkpt lat="42.80849" lon="-0.03646">
        <ele>2097</ele>
        <time>2023-10-31T11:39:20Z</time>
      </trkpt>
      <trkpt lat="42.80849" lon="-0.03645">
        <ele>2096.9</ele>
        <time>2023-10-31T11:39:21Z</time>
      </trkpt>
      <trkpt lat="42.80849" lon="-0.03644">
        <ele>2096.8</ele>
        <time>2023-10-31T11:39:22Z</time>
      </trkpt>
      <trkpt lat="42.80849" lon="-0.03643">
        <ele>2096.6</ele>
        <time>2023-10-31T11:39:23Z</time>
      </trkpt>
      <trkpt lat="42.80849" lon="-0.03642">
        <ele>2096.5</ele>
        <time>2023-10-31T11:39:24Z</time>
      </trkpt>
      <trkpt lat="42.80849" lon="-0.03641">
        <ele>2096.4</ele>
        <time>2023-10-31T11:39:25Z</time>
      </trkpt>
      <trkpt lat="42.80848" lon="-0.0364">
        <ele>2096.2</ele>
        <time>2023-10-31T11:39:26Z</time>
      </trkpt>
      <trkpt lat="42.80848" lon="-0.03639">
        <ele>2096.1</ele>
        <time>2023-10-31T11:39:27Z</time>
      </trkpt>
      <trkpt lat="42.80847" lon="-0.03639">
        <ele>2095.9</ele>
        <time>2023-10-31T11:39:28Z</time>
      </trkpt>
      <trkpt lat="42.80846" lon="-0.03638">
        <ele>2095.8</ele>
        <time>2023-10-31T11:39:29Z</time>
      </trkpt>
      <trkpt lat="42.80845" lon="-0.03637">
        <ele>2095.6</ele>
        <time>2023-10-31T11:39:30Z</time>
      </trkpt>
      <trkpt lat="42.80846" lon="-0.03637">
        <ele>2095.5</ele>
        <time>2023-10-31T11:39:31Z</time>
      </trkpt>
      <trkpt lat="42.80846" lon="-0.03636">
        <ele>2095.4</ele>
        <time>2023-10-31T11:39:32Z</time>
      </trkpt>
      <trkpt lat="42.80845" lon="-0.03635">
        <ele>2095.1</ele>
        <time>2023-10-31T11:39:33Z</time>
      </trkpt>
      <trkpt lat="42.80844" lon="-0.03634">
        <ele>2094.9</ele>
        <time>2023-10-31T11:39:34Z</time>
      </trkpt>
      <trkpt lat="42.80844" lon="-0.03633">
        <ele>2094.8</ele>
        <time>2023-10-31T11:39:35Z</time>
      </trkpt>
      <trkpt lat="42.80844" lon="-0.03631">
        <ele>2094.6</ele>
        <time>2023-10-31T11:39:36Z</time>
      </trkpt>
      <trkpt lat="42.80844" lon="-0.0363">
        <ele>2094.4</ele>
        <time>2023-10-31T11:39:37Z</time>
      </trkpt>
      <trkpt lat="42.80844" lon="-0.0363">
        <ele>2094.2</ele>
        <time>2023-10-31T11:39:38Z</time>
      </trkpt>
      <trkpt lat="42.80843" lon="-0.03629">
        <ele>2094</ele>
        <time>2023-10-31T11:39:39Z</time>
      </trkpt>
      <trkpt lat="42.80843" lon="-0.03628">
        <ele>2093.9</ele>
        <time>2023-10-31T11:39:40Z</time>
      </trkpt>
      <trkpt lat="42.80842" lon="-0.03628">
        <ele>2093.8</ele>
        <time>2023-10-31T11:39:41Z</time>
      </trkpt>
      <trkpt lat="42.80842" lon="-0.03627">
        <ele>2093.7</ele>
        <time>2023-10-31T11:39:42Z</time>
      </trkpt>
      <trkpt lat="42.80842" lon="-0.03627">
        <ele>2093.6</ele>
        <time>2023-10-31T11:39:43Z</time>
      </trkpt>
      <trkpt lat="42.80842" lon="-0.03626">
        <ele>2093.5</ele>
        <time>2023-10-31T11:39:44Z</time>
      </trkpt>
      <trkpt lat="42.80842" lon="-0.03625">
        <ele>2093.2</ele>
        <time>2023-10-31T11:39:45Z</time>
      </trkpt>
      <trkpt lat="42.80842" lon="-0.03624">
        <ele>2093.1</ele>
        <time>2023-10-31T11:39:46Z</time>
      </trkpt>
      <trkpt lat="42.80842" lon="-0.03623">
        <ele>2092.9</ele>
        <time>2023-10-31T11:39:47Z</time>
      </trkpt>
      <trkpt lat="42.80841" lon="-0.03622">
        <ele>2092.8</ele>
        <time>2023-10-31T11:39:48Z</time>
      </trkpt>
      <trkpt lat="42.80841" lon="-0.03621">
        <ele>2092.6</ele>
        <time>2023-10-31T11:39:49Z</time>
      </trkpt>
      <trkpt lat="42.8084" lon="-0.0362">
        <ele>2092.4</ele>
        <time>2023-10-31T11:39:50Z</time>
      </trkpt>
      <trkpt lat="42.80839" lon="-0.03619">
        <ele>2092.1</ele>
        <time>2023-10-31T11:39:51Z</time>
      </trkpt>
      <trkpt lat="42.80839" lon="-0.03618">
        <ele>2092</ele>
        <time>2023-10-31T11:39:52Z</time>
      </trkpt>
      <trkpt lat="42.80839" lon="-0.03617">
        <ele>2091.9</ele>
        <time>2023-10-31T11:39:53Z</time>
      </trkpt>
      <trkpt lat="42.80838" lon="-0.03617">
        <ele>2091.8</ele>
        <time>2023-10-31T11:39:54Z</time>
      </trkpt>
      <trkpt lat="42.80838" lon="-0.03617">
        <ele>2091.7</ele>
        <time>2023-10-31T11:39:55Z</time>
      </trkpt>
      <trkpt lat="42.80838" lon="-0.03616">
        <ele>2091.5</ele>
        <time>2023-10-31T11:39:56Z</time>
      </trkpt>
      <trkpt lat="42.80838" lon="-0.03615">
        <ele>2091.4</ele>
        <time>2023-10-31T11:39:57Z</time>
      </trkpt>
      <trkpt lat="42.80838" lon="-0.03614">
        <ele>2091.2</ele>
        <time>2023-10-31T11:39:58Z</time>
      </trkpt>
      <trkpt lat="42.80837" lon="-0.03614">
        <ele>2091</ele>
        <time>2023-10-31T11:39:59Z</time>
      </trkpt>
      <trkpt lat="42.80837" lon="-0.03613">
        <ele>2090.9</ele>
        <time>2023-10-31T11:40:00Z</time>
      </trkpt>
      <trkpt lat="42.80837" lon="-0.03612">
        <ele>2090.7</ele>
        <time>2023-10-31T11:40:01Z</time>
      </trkpt>
      <trkpt lat="42.80836" lon="-0.03611">
        <ele>2090.5</ele>
        <time>2023-10-31T11:40:02Z</time>
      </trkpt>
      <trkpt lat="42.80836" lon="-0.03611">
        <ele>2090.4</ele>
        <time>2023-10-31T11:40:03Z</time>
      </trkpt>
      <trkpt lat="42.80835" lon="-0.03611">
        <ele>2090.3</ele>
        <time>2023-10-31T11:40:04Z</time>
      </trkpt>
      <trkpt lat="42.80836" lon="-0.03611">
        <ele>2090.2</ele>
        <time>2023-10-31T11:40:05Z</time>
      </trkpt>
      <trkpt lat="42.80835" lon="-0.03609">
        <ele>2089.9</ele>
        <time>2023-10-31T11:40:06Z</time>
      </trkpt>
      <trkpt lat="42.80835" lon="-0.03608">
        <ele>2089.7</ele>
        <time>2023-10-31T11:40:07Z</time>
      </trkpt>
      <trkpt lat="42.80835" lon="-0.03608">
        <ele>2089.6</ele>
        <time>2023-10-31T11:40:08Z</time>
      </trkpt>
      <trkpt lat="42.80835" lon="-0.03607">
        <ele>2089.5</ele>
        <time>2023-10-31T11:40:09Z</time>
      </trkpt>
      <trkpt lat="42.80835" lon="-0.03606">
        <ele>2089.3</ele>
        <time>2023-10-31T11:40:10Z</time>
      </trkpt>
      <trkpt lat="42.80834" lon="-0.03605">
        <ele>2089.1</ele>
        <time>2023-10-31T11:40:11Z</time>
      </trkpt>
      <trkpt lat="42.80834" lon="-0.03603">
        <ele>2088.8</ele>
        <time>2023-10-31T11:40:12Z</time>
      </trkpt>
      <trkpt lat="42.80833" lon="-0.03603">
        <ele>2088.7</ele>
        <time>2023-10-31T11:40:13Z</time>
      </trkpt>
      <trkpt lat="42.80833" lon="-0.03603">
        <ele>2088.6</ele>
        <time>2023-10-31T11:40:14Z</time>
      </trkpt>
      <trkpt lat="42.80833" lon="-0.03603">
        <ele>2088.6</ele>
        <time>2023-10-31T11:40:15Z</time>
      </trkpt>
      <trkpt lat="42.80833" lon="-0.03602">
        <ele>2088.4</ele>
        <time>2023-10-31T11:40:16Z</time>
      </trkpt>
      <trkpt lat="42.80833" lon="-0.03601">
        <ele>2088.4</ele>
        <time>2023-10-31T11:40:17Z</time>
      </trkpt>
      <trkpt lat="42.80833" lon="-0.036">
        <ele>2088.1</ele>
        <time>2023-10-31T11:40:18Z</time>
      </trkpt>
      <trkpt lat="42.80832" lon="-0.03599">
        <ele>2087.8</ele>
        <time>2023-10-31T11:40:19Z</time>
      </trkpt>
      <trkpt lat="42.80831" lon="-0.03598">
        <ele>2087.7</ele>
        <time>2023-10-31T11:40:20Z</time>
      </trkpt>
      <trkpt lat="42.80831" lon="-0.03598">
        <ele>2087.5</ele>
        <time>2023-10-31T11:40:21Z</time>
      </trkpt>
      <trkpt lat="42.8083" lon="-0.03597">
        <ele>2087.3</ele>
        <time>2023-10-31T11:40:22Z</time>
      </trkpt>
      <trkpt lat="42.8083" lon="-0.03597">
        <ele>2087.1</ele>
        <time>2023-10-31T11:40:23Z</time>
      </trkpt>
      <trkpt lat="42.80829" lon="-0.03597">
        <ele>2087</ele>
        <time>2023-10-31T11:40:24Z</time>
      </trkpt>
      <trkpt lat="42.80828" lon="-0.03597">
        <ele>2086.9</ele>
        <time>2023-10-31T11:40:25Z</time>
      </trkpt>
      <trkpt lat="42.80828" lon="-0.03598">
        <ele>2086.7</ele>
        <time>2023-10-31T11:40:26Z</time>
      </trkpt>
      <trkpt lat="42.80827" lon="-0.03598">
        <ele>2086.6</ele>
        <time>2023-10-31T11:40:27Z</time>
      </trkpt>
      <trkpt lat="42.80827" lon="-0.03597">
        <ele>2086.5</ele>
        <time>2023-10-31T11:40:28Z</time>
      </trkpt>
      <trkpt lat="42.80826" lon="-0.03596">
        <ele>2086.2</ele>
        <time>2023-10-31T11:40:29Z</time>
      </trkpt>
      <trkpt lat="42.80826" lon="-0.03595">
        <ele>2085.9</ele>
        <time>2023-10-31T11:40:30Z</time>
      </trkpt>
      <trkpt lat="42.80825" lon="-0.03594">
        <ele>2085.8</ele>
        <time>2023-10-31T11:40:31Z</time>
      </trkpt>
      <trkpt lat="42.80825" lon="-0.03594">
        <ele>2085.7</ele>
        <time>2023-10-31T11:40:32Z</time>
      </trkpt>
      <trkpt lat="42.80824" lon="-0.03592">
        <ele>2085.4</ele>
        <time>2023-10-31T11:40:33Z</time>
      </trkpt>
      <trkpt lat="42.80823" lon="-0.03592">
        <ele>2085.2</ele>
        <time>2023-10-31T11:40:34Z</time>
      </trkpt>
      <trkpt lat="42.80823" lon="-0.03591">
        <ele>2084.9</ele>
        <time>2023-10-31T11:40:35Z</time>
      </trkpt>
      <trkpt lat="42.80822" lon="-0.0359">
        <ele>2084.7</ele>
        <time>2023-10-31T11:40:36Z</time>
      </trkpt>
      <trkpt lat="42.80821" lon="-0.03589">
        <ele>2084.5</ele>
        <time>2023-10-31T11:40:37Z</time>
      </trkpt>
      <trkpt lat="42.80821" lon="-0.03588">
        <ele>2084.3</ele>
        <time>2023-10-31T11:40:38Z</time>
      </trkpt>
      <trkpt lat="42.8082" lon="-0.03588">
        <ele>2084.2</ele>
        <time>2023-10-31T11:40:39Z</time>
      </trkpt>
      <trkpt lat="42.8082" lon="-0.03587">
        <ele>2084</ele>
        <time>2023-10-31T11:40:40Z</time>
      </trkpt>
      <trkpt lat="42.80819" lon="-0.03586">
        <ele>2083.8</ele>
        <time>2023-10-31T11:40:41Z</time>
      </trkpt>
      <trkpt lat="42.80819" lon="-0.03586">
        <ele>2083.6</ele>
        <time>2023-10-31T11:40:42Z</time>
      </trkpt>
      <trkpt lat="42.80818" lon="-0.03585">
        <ele>2083.5</ele>
        <time>2023-10-31T11:40:43Z</time>
      </trkpt>
      <trkpt lat="42.80818" lon="-0.03583">
        <ele>2083.2</ele>
        <time>2023-10-31T11:40:44Z</time>
      </trkpt>
      <trkpt lat="42.80817" lon="-0.03581">
        <ele>2082.8</ele>
        <time>2023-10-31T11:40:45Z</time>
      </trkpt>
      <trkpt lat="42.80816" lon="-0.03581">
        <ele>2082.6</ele>
        <time>2023-10-31T11:40:46Z</time>
      </trkpt>
      <trkpt lat="42.80817" lon="-0.0358">
        <ele>2082.5</ele>
        <time>2023-10-31T11:40:47Z</time>
      </trkpt>
      <trkpt lat="42.80817" lon="-0.0358">
        <ele>2082.4</ele>
        <time>2023-10-31T11:40:48Z</time>
      </trkpt>
      <trkpt lat="42.80817" lon="-0.03579">
        <ele>2082.3</ele>
        <time>2023-10-31T11:40:49Z</time>
      </trkpt>
      <trkpt lat="42.80818" lon="-0.03579">
        <ele>2082.2</ele>
        <time>2023-10-31T11:40:50Z</time>
      </trkpt>
      <trkpt lat="42.80818" lon="-0.03578">
        <ele>2082</ele>
        <time>2023-10-31T11:40:51Z</time>
      </trkpt>
      <trkpt lat="42.80819" lon="-0.03578">
        <ele>2081.9</ele>
        <time>2023-10-31T11:40:52Z</time>
      </trkpt>
      <trkpt lat="42.80819" lon="-0.03578">
        <ele>2081.8</ele>
        <time>2023-10-31T11:40:53Z</time>
      </trkpt>
      <trkpt lat="42.8082" lon="-0.03578">
        <ele>2081.5</ele>
        <time>2023-10-31T11:40:54Z</time>
      </trkpt>
      <trkpt lat="42.80821" lon="-0.03578">
        <ele>2081.5</ele>
        <time>2023-10-31T11:40:55Z</time>
      </trkpt>
      <trkpt lat="42.80822" lon="-0.03578">
        <ele>2081.3</ele>
        <time>2023-10-31T11:40:56Z</time>
      </trkpt>
      <trkpt lat="42.80822" lon="-0.03577">
        <ele>2081.1</ele>
        <time>2023-10-31T11:40:57Z</time>
      </trkpt>
      <trkpt lat="42.80823" lon="-0.03575">
        <ele>2080.8</ele>
        <time>2023-10-31T11:40:58Z</time>
      </trkpt>
      <trkpt lat="42.80822" lon="-0.03575">
        <ele>2080.7</ele>
        <time>2023-10-31T11:40:59Z</time>
      </trkpt>
      <trkpt lat="42.80822" lon="-0.03573">
        <ele>2080.5</ele>
        <time>2023-10-31T11:41:00Z</time>
      </trkpt>
      <trkpt lat="42.80821" lon="-0.03572">
        <ele>2080.3</ele>
        <time>2023-10-31T11:41:01Z</time>
      </trkpt>
      <trkpt lat="42.80821" lon="-0.03572">
        <ele>2080.2</ele>
        <time>2023-10-31T11:41:02Z</time>
      </trkpt>
      <trkpt lat="42.80821" lon="-0.0357">
        <ele>2080</ele>
        <time>2023-10-31T11:41:03Z</time>
      </trkpt>
      <trkpt lat="42.8082" lon="-0.03569">
        <ele>2079.7</ele>
        <time>2023-10-31T11:41:04Z</time>
      </trkpt>
      <trkpt lat="42.80819" lon="-0.03568">
        <ele>2079.5</ele>
        <time>2023-10-31T11:41:05Z</time>
      </trkpt>
      <trkpt lat="42.80819" lon="-0.03568">
        <ele>2079.4</ele>
        <time>2023-10-31T11:41:06Z</time>
      </trkpt>
      <trkpt lat="42.80818" lon="-0.03567">
        <ele>2079.3</ele>
        <time>2023-10-31T11:41:07Z</time>
      </trkpt>
      <trkpt lat="42.80817" lon="-0.03567">
        <ele>2079</ele>
        <time>2023-10-31T11:41:08Z</time>
      </trkpt>
      <trkpt lat="42.80817" lon="-0.03567">
        <ele>2078.9</ele>
        <time>2023-10-31T11:41:09Z</time>
      </trkpt>
      <trkpt lat="42.80817" lon="-0.03567">
        <ele>2078.9</ele>
        <time>2023-10-31T11:41:10Z</time>
      </trkpt>
      <trkpt lat="42.80817" lon="-0.03565">
        <ele>2078.6</ele>
        <time>2023-10-31T11:41:11Z</time>
      </trkpt>
      <trkpt lat="42.80817" lon="-0.03564">
        <ele>2078.3</ele>
        <time>2023-10-31T11:41:12Z</time>
      </trkpt>
      <trkpt lat="42.80818" lon="-0.03562">
        <ele>2078.1</ele>
        <time>2023-10-31T11:41:13Z</time>
      </trkpt>
      <trkpt lat="42.80817" lon="-0.0356">
        <ele>2077.8</ele>
        <time>2023-10-31T11:41:14Z</time>
      </trkpt>
      <trkpt lat="42.80817" lon="-0.03559">
        <ele>2077.6</ele>
        <time>2023-10-31T11:41:15Z</time>
      </trkpt>
      <trkpt lat="42.80816" lon="-0.03558">
        <ele>2077.4</ele>
        <time>2023-10-31T11:41:16Z</time>
      </trkpt>
      <trkpt lat="42.80816" lon="-0.03556">
        <ele>2077.2</ele>
        <time>2023-10-31T11:41:17Z</time>
      </trkpt>
      <trkpt lat="42.80815" lon="-0.03556">
        <ele>2077</ele>
        <time>2023-10-31T11:41:18Z</time>
      </trkpt>
      <trkpt lat="42.80815" lon="-0.03554">
        <ele>2076.8</ele>
        <time>2023-10-31T11:41:19Z</time>
      </trkpt>
      <trkpt lat="42.80814" lon="-0.03552">
        <ele>2076.6</ele>
        <time>2023-10-31T11:41:20Z</time>
      </trkpt>
      <trkpt lat="42.80814" lon="-0.03551">
        <ele>2076.5</ele>
        <time>2023-10-31T11:41:21Z</time>
      </trkpt>
      <trkpt lat="42.80814" lon="-0.03551">
        <ele>2076.4</ele>
        <time>2023-10-31T11:41:22Z</time>
      </trkpt>
      <trkpt lat="42.80815" lon="-0.0355">
        <ele>2076.2</ele>
        <time>2023-10-31T11:41:23Z</time>
      </trkpt>
      <trkpt lat="42.80815" lon="-0.03549">
        <ele>2076.1</ele>
        <time>2023-10-31T11:41:24Z</time>
      </trkpt>
      <trkpt lat="42.80814" lon="-0.03547">
        <ele>2075.9</ele>
        <time>2023-10-31T11:41:25Z</time>
      </trkpt>
      <trkpt lat="42.80814" lon="-0.03546">
        <ele>2075.8</ele>
        <time>2023-10-31T11:41:26Z</time>
      </trkpt>
      <trkpt lat="42.80813" lon="-0.03545">
        <ele>2075.5</ele>
        <time>2023-10-31T11:41:27Z</time>
      </trkpt>
      <trkpt lat="42.80812" lon="-0.03544">
        <ele>2075.4</ele>
        <time>2023-10-31T11:41:28Z</time>
      </trkpt>
      <trkpt lat="42.80812" lon="-0.03543">
        <ele>2075.3</ele>
        <time>2023-10-31T11:41:29Z</time>
      </trkpt>
      <trkpt lat="42.80812" lon="-0.03542">
        <ele>2075.2</ele>
        <time>2023-10-31T11:41:30Z</time>
      </trkpt>
      <trkpt lat="42.80811" lon="-0.03541">
        <ele>2075</ele>
        <time>2023-10-31T11:41:31Z</time>
      </trkpt>
      <trkpt lat="42.8081" lon="-0.0354">
        <ele>2074.8</ele>
        <time>2023-10-31T11:41:32Z</time>
      </trkpt>
      <trkpt lat="42.80809" lon="-0.03539">
        <ele>2074.7</ele>
        <time>2023-10-31T11:41:33Z</time>
      </trkpt>
      <trkpt lat="42.80809" lon="-0.03538">
        <ele>2074.5</ele>
        <time>2023-10-31T11:41:34Z</time>
      </trkpt>
      <trkpt lat="42.80809" lon="-0.03536">
        <ele>2074.4</ele>
        <time>2023-10-31T11:41:35Z</time>
      </trkpt>
      <trkpt lat="42.80809" lon="-0.03535">
        <ele>2074.3</ele>
        <time>2023-10-31T11:41:36Z</time>
      </trkpt>
      <trkpt lat="42.80809" lon="-0.03535">
        <ele>2074.2</ele>
        <time>2023-10-31T11:41:37Z</time>
      </trkpt>
      <trkpt lat="42.80808" lon="-0.03534">
        <ele>2074.1</ele>
        <time>2023-10-31T11:41:38Z</time>
      </trkpt>
      <trkpt lat="42.80808" lon="-0.03533">
        <ele>2074</ele>
        <time>2023-10-31T11:41:39Z</time>
      </trkpt>
      <trkpt lat="42.80808" lon="-0.03532">
        <ele>2074</ele>
        <time>2023-10-31T11:41:40Z</time>
      </trkpt>
      <trkpt lat="42.80808" lon="-0.03532">
        <ele>2073.9</ele>
        <time>2023-10-31T11:41:41Z</time>
      </trkpt>
      <trkpt lat="42.80808" lon="-0.03531">
        <ele>2073.8</ele>
        <time>2023-10-31T11:41:42Z</time>
      </trkpt>
      <trkpt lat="42.80808" lon="-0.0353">
        <ele>2073.7</ele>
        <time>2023-10-31T11:41:43Z</time>
      </trkpt>
      <trkpt lat="42.80808" lon="-0.03529">
        <ele>2073.6</ele>
        <time>2023-10-31T11:41:44Z</time>
      </trkpt>
      <trkpt lat="42.80807" lon="-0.03529">
        <ele>2073.6</ele>
        <time>2023-10-31T11:41:45Z</time>
      </trkpt>
      <trkpt lat="42.80807" lon="-0.03528">
        <ele>2073.4</ele>
        <time>2023-10-31T11:41:46Z</time>
      </trkpt>
      <trkpt lat="42.80806" lon="-0.03528">
        <ele>2073.4</ele>
        <time>2023-10-31T11:41:47Z</time>
      </trkpt>
      <trkpt lat="42.80806" lon="-0.03527">
        <ele>2073.3</ele>
        <time>2023-10-31T11:41:48Z</time>
      </trkpt>
      <trkpt lat="42.80806" lon="-0.03526">
        <ele>2073.2</ele>
        <time>2023-10-31T11:41:49Z</time>
      </trkpt>
      <trkpt lat="42.80805" lon="-0.03525">
        <ele>2073.1</ele>
        <time>2023-10-31T11:41:50Z</time>
      </trkpt>
      <trkpt lat="42.80805" lon="-0.03526">
        <ele>2073.1</ele>
        <time>2023-10-31T11:41:51Z</time>
      </trkpt>
      <trkpt lat="42.80804" lon="-0.03526">
        <ele>2073</ele>
        <time>2023-10-31T11:41:52Z</time>
      </trkpt>
      <trkpt lat="42.80803" lon="-0.03526">
        <ele>2072.9</ele>
        <time>2023-10-31T11:41:53Z</time>
      </trkpt>
      <trkpt lat="42.80804" lon="-0.03525">
        <ele>2072.9</ele>
        <time>2023-10-31T11:41:54Z</time>
      </trkpt>
      <trkpt lat="42.80804" lon="-0.03525">
        <ele>2072.8</ele>
        <time>2023-10-31T11:41:55Z</time>
      </trkpt>
      <trkpt lat="42.80804" lon="-0.03524">
        <ele>2072.8</ele>
        <time>2023-10-31T11:41:56Z</time>
      </trkpt>
      <trkpt lat="42.80804" lon="-0.03524">
        <ele>2072.7</ele>
        <time>2023-10-31T11:41:57Z</time>
      </trkpt>
      <trkpt lat="42.80805" lon="-0.03523">
        <ele>2072.6</ele>
        <time>2023-10-31T11:41:58Z</time>
      </trkpt>
      <trkpt lat="42.80805" lon="-0.03522">
        <ele>2072.5</ele>
        <time>2023-10-31T11:41:59Z</time>
      </trkpt>
      <trkpt lat="42.80805" lon="-0.03521">
        <ele>2072.4</ele>
        <time>2023-10-31T11:42:00Z</time>
      </trkpt>
      <trkpt lat="42.80805" lon="-0.0352">
        <ele>2072.3</ele>
        <time>2023-10-31T11:42:01Z</time>
      </trkpt>
      <trkpt lat="42.80805" lon="-0.03519">
        <ele>2072.2</ele>
        <time>2023-10-31T11:42:02Z</time>
      </trkpt>
      <trkpt lat="42.80806" lon="-0.03518">
        <ele>2072.1</ele>
        <time>2023-10-31T11:42:03Z</time>
      </trkpt>
      <trkpt lat="42.80806" lon="-0.03517">
        <ele>2072</ele>
        <time>2023-10-31T11:42:04Z</time>
      </trkpt>
      <trkpt lat="42.80806" lon="-0.03516">
        <ele>2071.9</ele>
        <time>2023-10-31T11:42:05Z</time>
      </trkpt>
      <trkpt lat="42.80806" lon="-0.03514">
        <ele>2071.8</ele>
        <time>2023-10-31T11:42:06Z</time>
      </trkpt>
      <trkpt lat="42.80806" lon="-0.03512">
        <ele>2071.5</ele>
        <time>2023-10-31T11:42:07Z</time>
      </trkpt>
      <trkpt lat="42.80805" lon="-0.0351">
        <ele>2071.3</ele>
        <time>2023-10-31T11:42:08Z</time>
      </trkpt>
      <trkpt lat="42.80805" lon="-0.03509">
        <ele>2071.2</ele>
        <time>2023-10-31T11:42:09Z</time>
      </trkpt>
      <trkpt lat="42.80805" lon="-0.03509">
        <ele>2071.2</ele>
        <time>2023-10-31T11:42:10Z</time>
      </trkpt>
      <trkpt lat="42.80805" lon="-0.03511">
        <ele>2071.1</ele>
        <time>2023-10-31T11:42:11Z</time>
      </trkpt>
      <trkpt lat="42.80805" lon="-0.03509">
        <ele>2070.9</ele>
        <time>2023-10-31T11:42:12Z</time>
      </trkpt>
      <trkpt lat="42.80804" lon="-0.03508">
        <ele>2070.8</ele>
        <time>2023-10-31T11:42:13Z</time>
      </trkpt>
      <trkpt lat="42.80804" lon="-0.03507">
        <ele>2070.6</ele>
        <time>2023-10-31T11:42:14Z</time>
      </trkpt>
      <trkpt lat="42.80803" lon="-0.03506">
        <ele>2070.5</ele>
        <time>2023-10-31T11:42:15Z</time>
      </trkpt>
      <trkpt lat="42.80802" lon="-0.03505">
        <ele>2070.4</ele>
        <time>2023-10-31T11:42:16Z</time>
      </trkpt>
      <trkpt lat="42.80802" lon="-0.03504">
        <ele>2070.2</ele>
        <time>2023-10-31T11:42:17Z</time>
      </trkpt>
      <trkpt lat="42.80801" lon="-0.03502">
        <ele>2070</ele>
        <time>2023-10-31T11:42:18Z</time>
      </trkpt>
      <trkpt lat="42.808" lon="-0.03501">
        <ele>2069.8</ele>
        <time>2023-10-31T11:42:19Z</time>
      </trkpt>
      <trkpt lat="42.80799" lon="-0.035">
        <ele>2069.6</ele>
        <time>2023-10-31T11:42:20Z</time>
      </trkpt>
      <trkpt lat="42.80798" lon="-0.03499">
        <ele>2069.4</ele>
        <time>2023-10-31T11:42:21Z</time>
      </trkpt>
      <trkpt lat="42.80797" lon="-0.03497">
        <ele>2069.1</ele>
        <time>2023-10-31T11:42:22Z</time>
      </trkpt>
      <trkpt lat="42.80797" lon="-0.03495">
        <ele>2068.9</ele>
        <time>2023-10-31T11:42:23Z</time>
      </trkpt>
      <trkpt lat="42.80797" lon="-0.03494">
        <ele>2068.8</ele>
        <time>2023-10-31T11:42:24Z</time>
      </trkpt>
      <trkpt lat="42.80796" lon="-0.03493">
        <ele>2068.6</ele>
        <time>2023-10-31T11:42:25Z</time>
      </trkpt>
      <trkpt lat="42.80795" lon="-0.03492">
        <ele>2068.3</ele>
        <time>2023-10-31T11:42:26Z</time>
      </trkpt>
      <trkpt lat="42.80794" lon="-0.03491">
        <ele>2068.1</ele>
        <time>2023-10-31T11:42:27Z</time>
      </trkpt>
      <trkpt lat="42.80794" lon="-0.0349">
        <ele>2068</ele>
        <time>2023-10-31T11:42:28Z</time>
      </trkpt>
      <trkpt lat="42.80793" lon="-0.03488">
        <ele>2067.8</ele>
        <time>2023-10-31T11:42:29Z</time>
      </trkpt>
      <trkpt lat="42.80793" lon="-0.03487">
        <ele>2067.6</ele>
        <time>2023-10-31T11:42:30Z</time>
      </trkpt>
      <trkpt lat="42.80792" lon="-0.03485">
        <ele>2067.4</ele>
        <time>2023-10-31T11:42:31Z</time>
      </trkpt>
      <trkpt lat="42.80792" lon="-0.03484">
        <ele>2067.3</ele>
        <time>2023-10-31T11:42:32Z</time>
      </trkpt>
      <trkpt lat="42.80791" lon="-0.03483">
        <ele>2067.1</ele>
        <time>2023-10-31T11:42:33Z</time>
      </trkpt>
      <trkpt lat="42.8079" lon="-0.03482">
        <ele>2067</ele>
        <time>2023-10-31T11:42:34Z</time>
      </trkpt>
      <trkpt lat="42.80789" lon="-0.03481">
        <ele>2066.8</ele>
        <time>2023-10-31T11:42:35Z</time>
      </trkpt>
      <trkpt lat="42.80788" lon="-0.03479">
        <ele>2066.6</ele>
        <time>2023-10-31T11:42:36Z</time>
      </trkpt>
      <trkpt lat="42.80788" lon="-0.03479">
        <ele>2066.5</ele>
        <time>2023-10-31T11:42:37Z</time>
      </trkpt>
      <trkpt lat="42.80787" lon="-0.03478">
        <ele>2066.4</ele>
        <time>2023-10-31T11:42:38Z</time>
      </trkpt>
      <trkpt lat="42.80787" lon="-0.03477">
        <ele>2066.2</ele>
        <time>2023-10-31T11:42:39Z</time>
      </trkpt>
      <trkpt lat="42.80786" lon="-0.03476">
        <ele>2066.1</ele>
        <time>2023-10-31T11:42:40Z</time>
      </trkpt>
      <trkpt lat="42.80786" lon="-0.03475">
        <ele>2066</ele>
        <time>2023-10-31T11:42:41Z</time>
      </trkpt>
      <trkpt lat="42.80785" lon="-0.03474">
        <ele>2065.8</ele>
        <time>2023-10-31T11:42:42Z</time>
      </trkpt>
      <trkpt lat="42.80785" lon="-0.03474">
        <ele>2065.7</ele>
        <time>2023-10-31T11:42:43Z</time>
      </trkpt>
      <trkpt lat="42.80783" lon="-0.03473">
        <ele>2065.6</ele>
        <time>2023-10-31T11:42:44Z</time>
      </trkpt>
      <trkpt lat="42.80783" lon="-0.03471">
        <ele>2065.4</ele>
        <time>2023-10-31T11:42:45Z</time>
      </trkpt>
      <trkpt lat="42.80783" lon="-0.0347">
        <ele>2065.3</ele>
        <time>2023-10-31T11:42:46Z</time>
      </trkpt>
      <trkpt lat="42.80782" lon="-0.03469">
        <ele>2065.2</ele>
        <time>2023-10-31T11:42:47Z</time>
      </trkpt>
      <trkpt lat="42.80782" lon="-0.03467">
        <ele>2065</ele>
        <time>2023-10-31T11:42:48Z</time>
      </trkpt>
      <trkpt lat="42.80781" lon="-0.03466">
        <ele>2064.9</ele>
        <time>2023-10-31T11:42:49Z</time>
      </trkpt>
      <trkpt lat="42.80781" lon="-0.03466">
        <ele>2064.8</ele>
        <time>2023-10-31T11:42:50Z</time>
      </trkpt>
      <trkpt lat="42.80781" lon="-0.03465">
        <ele>2064.7</ele>
        <time>2023-10-31T11:42:51Z</time>
      </trkpt>
      <trkpt lat="42.8078" lon="-0.03463">
        <ele>2064.6</ele>
        <time>2023-10-31T11:42:52Z</time>
      </trkpt>
      <trkpt lat="42.8078" lon="-0.03462">
        <ele>2064.5</ele>
        <time>2023-10-31T11:42:53Z</time>
      </trkpt>
      <trkpt lat="42.80779" lon="-0.0346">
        <ele>2064.3</ele>
        <time>2023-10-31T11:42:54Z</time>
      </trkpt>
      <trkpt lat="42.80779" lon="-0.03459">
        <ele>2064.2</ele>
        <time>2023-10-31T11:42:55Z</time>
      </trkpt>
      <trkpt lat="42.80778" lon="-0.03458">
        <ele>2064.1</ele>
        <time>2023-10-31T11:42:56Z</time>
      </trkpt>
      <trkpt lat="42.80778" lon="-0.03456">
        <ele>2064</ele>
        <time>2023-10-31T11:42:57Z</time>
      </trkpt>
      <trkpt lat="42.80778" lon="-0.03456">
        <ele>2064</ele>
        <time>2023-10-31T11:42:58Z</time>
      </trkpt>
      <trkpt lat="42.80778" lon="-0.03455">
        <ele>2063.9</ele>
        <time>2023-10-31T11:42:59Z</time>
      </trkpt>
      <trkpt lat="42.80778" lon="-0.03454">
        <ele>2063.8</ele>
        <time>2023-10-31T11:43:00Z</time>
      </trkpt>
      <trkpt lat="42.80778" lon="-0.03452">
        <ele>2063.7</ele>
        <time>2023-10-31T11:43:01Z</time>
      </trkpt>
      <trkpt lat="42.80777" lon="-0.03451">
        <ele>2063.6</ele>
        <time>2023-10-31T11:43:02Z</time>
      </trkpt>
      <trkpt lat="42.80777" lon="-0.03449">
        <ele>2063.5</ele>
        <time>2023-10-31T11:43:03Z</time>
      </trkpt>
      <trkpt lat="42.80777" lon="-0.03447">
        <ele>2063.3</ele>
        <time>2023-10-31T11:43:04Z</time>
      </trkpt>
      <trkpt lat="42.80777" lon="-0.03446">
        <ele>2063.2</ele>
        <time>2023-10-31T11:43:05Z</time>
      </trkpt>
      <trkpt lat="42.80777" lon="-0.03444">
        <ele>2063.1</ele>
        <time>2023-10-31T11:43:06Z</time>
      </trkpt>
      <trkpt lat="42.80777" lon="-0.03443">
        <ele>2063</ele>
        <time>2023-10-31T11:43:07Z</time>
      </trkpt>
      <trkpt lat="42.80776" lon="-0.03441">
        <ele>2062.9</ele>
        <time>2023-10-31T11:43:08Z</time>
      </trkpt>
      <trkpt lat="42.80776" lon="-0.03439">
        <ele>2062.7</ele>
        <time>2023-10-31T11:43:09Z</time>
      </trkpt>
      <trkpt lat="42.80776" lon="-0.03437">
        <ele>2062.6</ele>
        <time>2023-10-31T11:43:10Z</time>
      </trkpt>
      <trkpt lat="42.80776" lon="-0.03435">
        <ele>2062.5</ele>
        <time>2023-10-31T11:43:11Z</time>
      </trkpt>
      <trkpt lat="42.80777" lon="-0.03434">
        <ele>2062.4</ele>
        <time>2023-10-31T11:43:12Z</time>
      </trkpt>
      <trkpt lat="42.80777" lon="-0.03434">
        <ele>2062.3</ele>
        <time>2023-10-31T11:43:13Z</time>
      </trkpt>
      <trkpt lat="42.80777" lon="-0.03433">
        <ele>2062.2</ele>
        <time>2023-10-31T11:43:14Z</time>
      </trkpt>
      <trkpt lat="42.80777" lon="-0.03432">
        <ele>2062.2</ele>
        <time>2023-10-31T11:43:15Z</time>
      </trkpt>
      <trkpt lat="42.80777" lon="-0.03432">
        <ele>2062.1</ele>
        <time>2023-10-31T11:43:16Z</time>
      </trkpt>
      <trkpt lat="42.80778" lon="-0.03431">
        <ele>2062.1</ele>
        <time>2023-10-31T11:43:17Z</time>
      </trkpt>
      <trkpt lat="42.80778" lon="-0.0343">
        <ele>2062</ele>
        <time>2023-10-31T11:43:18Z</time>
      </trkpt>
      <trkpt lat="42.80778" lon="-0.03429">
        <ele>2061.9</ele>
        <time>2023-10-31T11:43:19Z</time>
      </trkpt>
      <trkpt lat="42.80777" lon="-0.03428">
        <ele>2061.9</ele>
        <time>2023-10-31T11:43:20Z</time>
      </trkpt>
      <trkpt lat="42.80776" lon="-0.03427">
        <ele>2061.7</ele>
        <time>2023-10-31T11:43:21Z</time>
      </trkpt>
      <trkpt lat="42.80776" lon="-0.03426">
        <ele>2061.7</ele>
        <time>2023-10-31T11:43:22Z</time>
      </trkpt>
      <trkpt lat="42.80775" lon="-0.03425">
        <ele>2061.6</ele>
        <time>2023-10-31T11:43:23Z</time>
      </trkpt>
      <trkpt lat="42.80775" lon="-0.03424">
        <ele>2061.5</ele>
        <time>2023-10-31T11:43:24Z</time>
      </trkpt>
      <trkpt lat="42.80775" lon="-0.03423">
        <ele>2061.4</ele>
        <time>2023-10-31T11:43:25Z</time>
      </trkpt>
      <trkpt lat="42.80775" lon="-0.03422">
        <ele>2061.3</ele>
        <time>2023-10-31T11:43:26Z</time>
      </trkpt>
      <trkpt lat="42.80775" lon="-0.03421">
        <ele>2061.3</ele>
        <time>2023-10-31T11:43:27Z</time>
      </trkpt>
      <trkpt lat="42.80776" lon="-0.0342">
        <ele>2061.2</ele>
        <time>2023-10-31T11:43:28Z</time>
      </trkpt>
      <trkpt lat="42.80776" lon="-0.03419">
        <ele>2061.1</ele>
        <time>2023-10-31T11:43:29Z</time>
      </trkpt>
      <trkpt lat="42.80775" lon="-0.03418">
        <ele>2061</ele>
        <time>2023-10-31T11:43:30Z</time>
      </trkpt>
      <trkpt lat="42.80775" lon="-0.03418">
        <ele>2061</ele>
        <time>2023-10-31T11:43:31Z</time>
      </trkpt>
      <trkpt lat="42.80775" lon="-0.03417">
        <ele>2060.9</ele>
        <time>2023-10-31T11:43:32Z</time>
      </trkpt>
      <trkpt lat="42.80775" lon="-0.03416">
        <ele>2060.9</ele>
        <time>2023-10-31T11:43:33Z</time>
      </trkpt>
      <trkpt lat="42.80775" lon="-0.03415">
        <ele>2060.7</ele>
        <time>2023-10-31T11:43:34Z</time>
      </trkpt>
      <trkpt lat="42.80774" lon="-0.03414">
        <ele>2060.7</ele>
        <time>2023-10-31T11:43:35Z</time>
      </trkpt>
      <trkpt lat="42.80774" lon="-0.03413">
        <ele>2060.6</ele>
        <time>2023-10-31T11:43:36Z</time>
      </trkpt>
      <trkpt lat="42.80774" lon="-0.03412">
        <ele>2060.5</ele>
        <time>2023-10-31T11:43:37Z</time>
      </trkpt>
      <trkpt lat="42.80774" lon="-0.03411">
        <ele>2060.4</ele>
        <time>2023-10-31T11:43:38Z</time>
      </trkpt>
      <trkpt lat="42.80774" lon="-0.03411">
        <ele>2060.4</ele>
        <time>2023-10-31T11:43:39Z</time>
      </trkpt>
      <trkpt lat="42.80774" lon="-0.03411">
        <ele>2060.4</ele>
        <time>2023-10-31T11:43:40Z</time>
      </trkpt>
      <trkpt lat="42.80774" lon="-0.03409">
        <ele>2060.3</ele>
        <time>2023-10-31T11:43:41Z</time>
      </trkpt>
      <trkpt lat="42.80774" lon="-0.03408">
        <ele>2060.2</ele>
        <time>2023-10-31T11:43:42Z</time>
      </trkpt>
      <trkpt lat="42.80774" lon="-0.03407">
        <ele>2060.1</ele>
        <time>2023-10-31T11:43:43Z</time>
      </trkpt>
      <trkpt lat="42.80775" lon="-0.03407">
        <ele>2060.1</ele>
        <time>2023-10-31T11:43:44Z</time>
      </trkpt>
      <trkpt lat="42.80774" lon="-0.03407">
        <ele>2060</ele>
        <time>2023-10-31T11:43:45Z</time>
      </trkpt>
      <trkpt lat="42.80773" lon="-0.03407">
        <ele>2059.9</ele>
        <time>2023-10-31T11:43:46Z</time>
      </trkpt>
      <trkpt lat="42.80773" lon="-0.03406">
        <ele>2059.9</ele>
        <time>2023-10-31T11:43:47Z</time>
      </trkpt>
      <trkpt lat="42.80772" lon="-0.03405">
        <ele>2059.8</ele>
        <time>2023-10-31T11:43:48Z</time>
      </trkpt>
      <trkpt lat="42.80772" lon="-0.03404">
        <ele>2059.7</ele>
        <time>2023-10-31T11:43:49Z</time>
      </trkpt>
      <trkpt lat="42.80772" lon="-0.03402">
        <ele>2059.6</ele>
        <time>2023-10-31T11:43:50Z</time>
      </trkpt>
      <trkpt lat="42.80772" lon="-0.03401">
        <ele>2059.5</ele>
        <time>2023-10-31T11:43:51Z</time>
      </trkpt>
      <trkpt lat="42.80772" lon="-0.03402">
        <ele>2059.5</ele>
        <time>2023-10-31T11:43:52Z</time>
      </trkpt>
      <trkpt lat="42.80772" lon="-0.03402">
        <ele>2059.5</ele>
        <time>2023-10-31T11:43:53Z</time>
      </trkpt>
      <trkpt lat="42.80772" lon="-0.03402">
        <ele>2059.5</ele>
        <time>2023-10-31T11:43:54Z</time>
      </trkpt>
      <trkpt lat="42.80772" lon="-0.03402">
        <ele>2059.5</ele>
        <time>2023-10-31T11:43:55Z</time>
      </trkpt>
      <trkpt lat="42.80772" lon="-0.03402">
        <ele>2059.5</ele>
        <time>2023-10-31T11:43:56Z</time>
      </trkpt>
      <trkpt lat="42.80772" lon="-0.03402">
        <ele>2059.5</ele>
        <time>2023-10-31T11:43:57Z</time>
      </trkpt>
      <trkpt lat="42.80771" lon="-0.03401">
        <ele>2059.4</ele>
        <time>2023-10-31T11:43:58Z</time>
      </trkpt>
      <trkpt lat="42.80771" lon="-0.03401">
        <ele>2059.4</ele>
        <time>2023-10-31T11:43:59Z</time>
      </trkpt>
      <trkpt lat="42.80771" lon="-0.03401">
        <ele>2059.4</ele>
        <time>2023-10-31T11:44:00Z</time>
      </trkpt>
      <trkpt lat="42.80771" lon="-0.03401">
        <ele>2059.4</ele>
        <time>2023-10-31T11:44:01Z</time>
      </trkpt>
      <trkpt lat="42.80771" lon="-0.03401">
        <ele>2059.4</ele>
        <time>2023-10-31T11:44:02Z</time>
      </trkpt>
      <trkpt lat="42.80771" lon="-0.03401">
        <ele>2059.4</ele>
        <time>2023-10-31T11:44:03Z</time>
      </trkpt>
      <trkpt lat="42.80771" lon="-0.03401">
        <ele>2059.4</ele>
        <time>2023-10-31T11:44:04Z</time>
      </trkpt>
      <trkpt lat="42.80771" lon="-0.03401">
        <ele>2059.4</ele>
        <time>2023-10-31T11:44:05Z</time>
      </trkpt>
      <trkpt lat="42.80771" lon="-0.03401">
        <ele>2059.4</ele>
        <time>2023-10-31T11:44:06Z</time>
      </trkpt>
      <trkpt lat="42.80771" lon="-0.03401">
        <ele>2059.4</ele>
        <time>2023-10-31T11:44:07Z</time>
      </trkpt>
      <trkpt lat="42.80771" lon="-0.03401">
        <ele>2059.4</ele>
        <time>2023-10-31T11:44:08Z</time>
      </trkpt>
      <trkpt lat="42.80771" lon="-0.03401">
        <ele>2059.4</ele>
        <time>2023-10-31T11:44:09Z</time>
      </trkpt>
      <trkpt lat="42.80771" lon="-0.03401">
        <ele>2059.4</ele>
        <time>2023-10-31T11:44:10Z</time>
      </trkpt>
      <trkpt lat="42.80771" lon="-0.03401">
        <ele>2059.4</ele>
        <time>2023-10-31T11:44:11Z</time>
      </trkpt>
      <trkpt lat="42.80771" lon="-0.03401">
        <ele>2059.3</ele>
        <time>2023-10-31T11:44:12Z</time>
      </trkpt>
      <trkpt lat="42.80771" lon="-0.03401">
        <ele>2059.3</ele>
        <time>2023-10-31T11:44:13Z</time>
      </trkpt>
      <trkpt lat="42.80771" lon="-0.03401">
        <ele>2059.3</ele>
        <time>2023-10-31T11:44:14Z</time>
      </trkpt>
      <trkpt lat="42.80771" lon="-0.03401">
        <ele>2059.3</ele>
        <time>2023-10-31T11:44:15Z</time>
      </trkpt>
      <trkpt lat="42.80771" lon="-0.03401">
        <ele>2059.3</ele>
        <time>2023-10-31T11:44:16Z</time>
      </trkpt>
      <trkpt lat="42.80771" lon="-0.03401">
        <ele>2059.3</ele>
        <time>2023-10-31T11:44:17Z</time>
      </trkpt>
      <trkpt lat="42.80771" lon="-0.03401">
        <ele>2059.3</ele>
        <time>2023-10-31T11:44:18Z</time>
      </trkpt>
      <trkpt lat="42.80771" lon="-0.03401">
        <ele>2059.3</ele>
        <time>2023-10-31T11:44:19Z</time>
      </trkpt>
      <trkpt lat="42.80771" lon="-0.03401">
        <ele>2059.3</ele>
        <time>2023-10-31T11:44:20Z</time>
      </trkpt>
      <trkpt lat="42.80771" lon="-0.03401">
        <ele>2059.3</ele>
        <time>2023-10-31T11:44:21Z</time>
      </trkpt>
      <trkpt lat="42.80771" lon="-0.03401">
        <ele>2059.3</ele>
        <time>2023-10-31T11:44:22Z</time>
      </trkpt>
      <trkpt lat="42.80771" lon="-0.03401">
        <ele>2059.3</ele>
        <time>2023-10-31T11:44:23Z</time>
      </trkpt>
      <trkpt lat="42.80771" lon="-0.03401">
        <ele>2059.3</ele>
        <time>2023-10-31T11:44:24Z</time>
      </trkpt>
      <trkpt lat="42.80771" lon="-0.03401">
        <ele>2059.3</ele>
        <time>2023-10-31T11:44:25Z</time>
      </trkpt>
      <trkpt lat="42.80771" lon="-0.03402">
        <ele>2059.2</ele>
        <time>2023-10-31T11:44:26Z</time>
      </trkpt>
      <trkpt lat="42.8077" lon="-0.034">
        <ele>2059.1</ele>
        <time>2023-10-31T11:44:27Z</time>
      </trkpt>
      <trkpt lat="42.80769" lon="-0.034">
        <ele>2059.1</ele>
        <time>2023-10-31T11:44:28Z</time>
      </trkpt>
      <trkpt lat="42.80769" lon="-0.03399">
        <ele>2059</ele>
        <time>2023-10-31T11:44:29Z</time>
      </trkpt>
      <trkpt lat="42.8077" lon="-0.03399">
        <ele>2059</ele>
        <time>2023-10-31T11:44:30Z</time>
      </trkpt>
      <trkpt lat="42.8077" lon="-0.03399">
        <ele>2058.9</ele>
        <time>2023-10-31T11:44:31Z</time>
      </trkpt>
      <trkpt lat="42.8077" lon="-0.03399">
        <ele>2058.9</ele>
        <time>2023-10-31T11:44:32Z</time>
      </trkpt>
      <trkpt lat="42.8077" lon="-0.03399">
        <ele>2058.9</ele>
        <time>2023-10-31T11:44:33Z</time>
      </trkpt>
      <trkpt lat="42.8077" lon="-0.03399">
        <ele>2058.9</ele>
        <time>2023-10-31T11:44:34Z</time>
      </trkpt>
      <trkpt lat="42.8077" lon="-0.03398">
        <ele>2058.9</ele>
        <time>2023-10-31T11:44:35Z</time>
      </trkpt>
      <trkpt lat="42.80769" lon="-0.03397">
        <ele>2058.8</ele>
        <time>2023-10-31T11:44:36Z</time>
      </trkpt>
      <trkpt lat="42.80768" lon="-0.03396">
        <ele>2058.7</ele>
        <time>2023-10-31T11:44:37Z</time>
      </trkpt>
      <trkpt lat="42.80768" lon="-0.03394">
        <ele>2058.6</ele>
        <time>2023-10-31T11:44:38Z</time>
      </trkpt>
      <trkpt lat="42.80768" lon="-0.03393">
        <ele>2058.4</ele>
        <time>2023-10-31T11:44:39Z</time>
      </trkpt>
      <trkpt lat="42.80768" lon="-0.03391">
        <ele>2058.3</ele>
        <time>2023-10-31T11:44:40Z</time>
      </trkpt>
      <trkpt lat="42.80768" lon="-0.0339">
        <ele>2058.2</ele>
        <time>2023-10-31T11:44:41Z</time>
      </trkpt>
      <trkpt lat="42.80767" lon="-0.03389">
        <ele>2058.1</ele>
        <time>2023-10-31T11:44:42Z</time>
      </trkpt>
      <trkpt lat="42.80767" lon="-0.03388">
        <ele>2058</ele>
        <time>2023-10-31T11:44:43Z</time>
      </trkpt>
      <trkpt lat="42.80766" lon="-0.03387">
        <ele>2057.9</ele>
        <time>2023-10-31T11:44:44Z</time>
      </trkpt>
      <trkpt lat="42.80766" lon="-0.03386">
        <ele>2057.8</ele>
        <time>2023-10-31T11:44:45Z</time>
      </trkpt>
      <trkpt lat="42.80766" lon="-0.03385">
        <ele>2057.7</ele>
        <time>2023-10-31T11:44:46Z</time>
      </trkpt>
      <trkpt lat="42.80765" lon="-0.03385">
        <ele>2057.7</ele>
        <time>2023-10-31T11:44:47Z</time>
      </trkpt>
      <trkpt lat="42.80765" lon="-0.03384">
        <ele>2057.6</ele>
        <time>2023-10-31T11:44:48Z</time>
      </trkpt>
      <trkpt lat="42.80765" lon="-0.03384">
        <ele>2057.5</ele>
        <time>2023-10-31T11:44:49Z</time>
      </trkpt>
      <trkpt lat="42.80764" lon="-0.03383">
        <ele>2057.4</ele>
        <time>2023-10-31T11:44:50Z</time>
      </trkpt>
      <trkpt lat="42.80763" lon="-0.03382">
        <ele>2057.3</ele>
        <time>2023-10-31T11:44:51Z</time>
      </trkpt>
      <trkpt lat="42.80764" lon="-0.03383">
        <ele>2057.2</ele>
        <time>2023-10-31T11:44:52Z</time>
      </trkpt>
      <trkpt lat="42.80764" lon="-0.03382">
        <ele>2057.1</ele>
        <time>2023-10-31T11:44:53Z</time>
      </trkpt>
      <trkpt lat="42.80764" lon="-0.03382">
        <ele>2057.1</ele>
        <time>2023-10-31T11:44:54Z</time>
      </trkpt>
      <trkpt lat="42.80764" lon="-0.03381">
        <ele>2057</ele>
        <time>2023-10-31T11:44:55Z</time>
      </trkpt>
      <trkpt lat="42.80764" lon="-0.0338">
        <ele>2056.9</ele>
        <time>2023-10-31T11:44:56Z</time>
      </trkpt>
      <trkpt lat="42.80764" lon="-0.0338">
        <ele>2056.8</ele>
        <time>2023-10-31T11:44:57Z</time>
      </trkpt>
      <trkpt lat="42.80763" lon="-0.0338">
        <ele>2056.8</ele>
        <time>2023-10-31T11:44:58Z</time>
      </trkpt>
      <trkpt lat="42.80766" lon="-0.0338">
        <ele>2056.4</ele>
        <time>2023-10-31T11:44:59Z</time>
      </trkpt>
      <trkpt lat="42.80764" lon="-0.03379">
        <ele>2056.2</ele>
        <time>2023-10-31T11:45:00Z</time>
      </trkpt>
      <trkpt lat="42.80764" lon="-0.03378">
        <ele>2056</ele>
        <time>2023-10-31T11:45:01Z</time>
      </trkpt>
      <trkpt lat="42.80763" lon="-0.03378">
        <ele>2055.9</ele>
        <time>2023-10-31T11:45:02Z</time>
      </trkpt>
      <trkpt lat="42.80762" lon="-0.03377">
        <ele>2055.7</ele>
        <time>2023-10-31T11:45:03Z</time>
      </trkpt>
      <trkpt lat="42.80762" lon="-0.03377">
        <ele>2055.7</ele>
        <time>2023-10-31T11:45:04Z</time>
      </trkpt>
      <trkpt lat="42.80762" lon="-0.03376">
        <ele>2055.5</ele>
        <time>2023-10-31T11:45:05Z</time>
      </trkpt>
      <trkpt lat="42.80762" lon="-0.03375">
        <ele>2055.4</ele>
        <time>2023-10-31T11:45:06Z</time>
      </trkpt>
      <trkpt lat="42.80762" lon="-0.03374">
        <ele>2055.4</ele>
        <time>2023-10-31T11:45:07Z</time>
      </trkpt>
      <trkpt lat="42.80762" lon="-0.03375">
        <ele>2055.3</ele>
        <time>2023-10-31T11:45:08Z</time>
      </trkpt>
      <trkpt lat="42.80762" lon="-0.03374">
        <ele>2055.3</ele>
        <time>2023-10-31T11:45:09Z</time>
      </trkpt>
      <trkpt lat="42.80762" lon="-0.03375">
        <ele>2055.2</ele>
        <time>2023-10-31T11:45:10Z</time>
      </trkpt>
      <trkpt lat="42.80762" lon="-0.03374">
        <ele>2055.2</ele>
        <time>2023-10-31T11:45:11Z</time>
      </trkpt>
      <trkpt lat="42.80762" lon="-0.03374">
        <ele>2055.2</ele>
        <time>2023-10-31T11:45:12Z</time>
      </trkpt>
      <trkpt lat="42.80762" lon="-0.03374">
        <ele>2055.2</ele>
        <time>2023-10-31T11:45:13Z</time>
      </trkpt>
      <trkpt lat="42.80762" lon="-0.03374">
        <ele>2055.2</ele>
        <time>2023-10-31T11:45:14Z</time>
      </trkpt>
      <trkpt lat="42.80762" lon="-0.03374">
        <ele>2055.2</ele>
        <time>2023-10-31T11:45:15Z</time>
      </trkpt>
      <trkpt lat="42.80762" lon="-0.03374">
        <ele>2055.1</ele>
        <time>2023-10-31T11:45:16Z</time>
      </trkpt>
      <trkpt lat="42.80762" lon="-0.03374">
        <ele>2055.1</ele>
        <time>2023-10-31T11:45:17Z</time>
      </trkpt>
      <trkpt lat="42.80762" lon="-0.03374">
        <ele>2055.1</ele>
        <time>2023-10-31T11:45:18Z</time>
      </trkpt>
      <trkpt lat="42.80762" lon="-0.03374">
        <ele>2055.1</ele>
        <time>2023-10-31T11:45:19Z</time>
      </trkpt>
      <trkpt lat="42.80762" lon="-0.03373">
        <ele>2054.9</ele>
        <time>2023-10-31T11:45:20Z</time>
      </trkpt>
      <trkpt lat="42.80762" lon="-0.03372">
        <ele>2054.7</ele>
        <time>2023-10-31T11:45:21Z</time>
      </trkpt>
      <trkpt lat="42.80762" lon="-0.03372">
        <ele>2054.7</ele>
        <time>2023-10-31T11:45:22Z</time>
      </trkpt>
      <trkpt lat="42.80762" lon="-0.03371">
        <ele>2054.5</ele>
        <time>2023-10-31T11:45:23Z</time>
      </trkpt>
      <trkpt lat="42.80762" lon="-0.0337">
        <ele>2054.3</ele>
        <time>2023-10-31T11:45:24Z</time>
      </trkpt>
      <trkpt lat="42.80763" lon="-0.03369">
        <ele>2054.1</ele>
        <time>2023-10-31T11:45:25Z</time>
      </trkpt>
      <trkpt lat="42.80764" lon="-0.03368">
        <ele>2053.9</ele>
        <time>2023-10-31T11:45:26Z</time>
      </trkpt>
      <trkpt lat="42.80764" lon="-0.03368">
        <ele>2053.9</ele>
        <time>2023-10-31T11:45:27Z</time>
      </trkpt>
      <trkpt lat="42.80765" lon="-0.03367">
        <ele>2053.7</ele>
        <time>2023-10-31T11:45:28Z</time>
      </trkpt>
      <trkpt lat="42.80766" lon="-0.03367">
        <ele>2053.5</ele>
        <time>2023-10-31T11:45:29Z</time>
      </trkpt>
      <trkpt lat="42.80766" lon="-0.03366">
        <ele>2053.4</ele>
        <time>2023-10-31T11:45:30Z</time>
      </trkpt>
      <trkpt lat="42.80767" lon="-0.03366">
        <ele>2053.2</ele>
        <time>2023-10-31T11:45:31Z</time>
      </trkpt>
      <trkpt lat="42.80767" lon="-0.03366">
        <ele>2053.1</ele>
        <time>2023-10-31T11:45:32Z</time>
      </trkpt>
      <trkpt lat="42.80767" lon="-0.03366">
        <ele>2053</ele>
        <time>2023-10-31T11:45:33Z</time>
      </trkpt>
      <trkpt lat="42.80767" lon="-0.03365">
        <ele>2052.9</ele>
        <time>2023-10-31T11:45:34Z</time>
      </trkpt>
      <trkpt lat="42.80767" lon="-0.03365">
        <ele>2052.8</ele>
        <time>2023-10-31T11:45:35Z</time>
      </trkpt>
      <trkpt lat="42.80767" lon="-0.03364">
        <ele>2052.7</ele>
        <time>2023-10-31T11:45:36Z</time>
      </trkpt>
      <trkpt lat="42.80768" lon="-0.03364">
        <ele>2052.7</ele>
        <time>2023-10-31T11:45:37Z</time>
      </trkpt>
      <trkpt lat="42.80768" lon="-0.03364">
        <ele>2052.5</ele>
        <time>2023-10-31T11:45:38Z</time>
      </trkpt>
      <trkpt lat="42.80769" lon="-0.03363">
        <ele>2052.3</ele>
        <time>2023-10-31T11:45:39Z</time>
      </trkpt>
      <trkpt lat="42.80769" lon="-0.03362">
        <ele>2052.1</ele>
        <time>2023-10-31T11:45:40Z</time>
      </trkpt>
      <trkpt lat="42.8077" lon="-0.03361">
        <ele>2051.9</ele>
        <time>2023-10-31T11:45:41Z</time>
      </trkpt>
      <trkpt lat="42.8077" lon="-0.0336">
        <ele>2051.8</ele>
        <time>2023-10-31T11:45:42Z</time>
      </trkpt>
      <trkpt lat="42.80771" lon="-0.0336">
        <ele>2051.6</ele>
        <time>2023-10-31T11:45:43Z</time>
      </trkpt>
      <trkpt lat="42.80772" lon="-0.03359">
        <ele>2051.4</ele>
        <time>2023-10-31T11:45:44Z</time>
      </trkpt>
      <trkpt lat="42.80772" lon="-0.03359">
        <ele>2051.3</ele>
        <time>2023-10-31T11:45:45Z</time>
      </trkpt>
      <trkpt lat="42.80773" lon="-0.03359">
        <ele>2051.2</ele>
        <time>2023-10-31T11:45:46Z</time>
      </trkpt>
      <trkpt lat="42.80773" lon="-0.03359">
        <ele>2051.1</ele>
        <time>2023-10-31T11:45:47Z</time>
      </trkpt>
      <trkpt lat="42.80773" lon="-0.03358">
        <ele>2051.1</ele>
        <time>2023-10-31T11:45:48Z</time>
      </trkpt>
      <trkpt lat="42.80774" lon="-0.03357">
        <ele>2050.9</ele>
        <time>2023-10-31T11:45:49Z</time>
      </trkpt>
      <trkpt lat="42.80774" lon="-0.03358">
        <ele>2050.8</ele>
        <time>2023-10-31T11:45:50Z</time>
      </trkpt>
      <trkpt lat="42.80774" lon="-0.03358">
        <ele>2050.8</ele>
        <time>2023-10-31T11:45:51Z</time>
      </trkpt>
      <trkpt lat="42.80774" lon="-0.03358">
        <ele>2050.7</ele>
        <time>2023-10-31T11:45:52Z</time>
      </trkpt>
      <trkpt lat="42.80774" lon="-0.03358">
        <ele>2050.7</ele>
        <time>2023-10-31T11:45:53Z</time>
      </trkpt>
      <trkpt lat="42.80775" lon="-0.03358">
        <ele>2050.5</ele>
        <time>2023-10-31T11:45:54Z</time>
      </trkpt>
      <trkpt lat="42.80775" lon="-0.03357">
        <ele>2050.4</ele>
        <time>2023-10-31T11:45:55Z</time>
      </trkpt>
      <trkpt lat="42.80776" lon="-0.03357">
        <ele>2050.3</ele>
        <time>2023-10-31T11:45:56Z</time>
      </trkpt>
      <trkpt lat="42.80776" lon="-0.03356">
        <ele>2050.1</ele>
        <time>2023-10-31T11:45:57Z</time>
      </trkpt>
      <trkpt lat="42.80776" lon="-0.03356">
        <ele>2050.1</ele>
        <time>2023-10-31T11:45:58Z</time>
      </trkpt>
      <trkpt lat="42.80776" lon="-0.03355">
        <ele>2050</ele>
        <time>2023-10-31T11:45:59Z</time>
      </trkpt>
      <trkpt lat="42.80776" lon="-0.03355">
        <ele>2049.8</ele>
        <time>2023-10-31T11:46:00Z</time>
      </trkpt>
      <trkpt lat="42.80777" lon="-0.03354">
        <ele>2049.7</ele>
        <time>2023-10-31T11:46:01Z</time>
      </trkpt>
      <trkpt lat="42.80777" lon="-0.03354">
        <ele>2049.6</ele>
        <time>2023-10-31T11:46:02Z</time>
      </trkpt>
      <trkpt lat="42.80775" lon="-0.03353">
        <ele>2049.3</ele>
        <time>2023-10-31T11:46:03Z</time>
      </trkpt>
      <trkpt lat="42.80775" lon="-0.03352">
        <ele>2049</ele>
        <time>2023-10-31T11:46:04Z</time>
      </trkpt>
      <trkpt lat="42.80775" lon="-0.03352">
        <ele>2048.9</ele>
        <time>2023-10-31T11:46:05Z</time>
      </trkpt>
      <trkpt lat="42.80775" lon="-0.03352">
        <ele>2048.8</ele>
        <time>2023-10-31T11:46:06Z</time>
      </trkpt>
      <trkpt lat="42.80774" lon="-0.03352">
        <ele>2048.7</ele>
        <time>2023-10-31T11:46:07Z</time>
      </trkpt>
      <trkpt lat="42.80774" lon="-0.03352">
        <ele>2048.6</ele>
        <time>2023-10-31T11:46:08Z</time>
      </trkpt>
      <trkpt lat="42.80775" lon="-0.03351">
        <ele>2048.4</ele>
        <time>2023-10-31T11:46:09Z</time>
      </trkpt>
      <trkpt lat="42.80774" lon="-0.03351">
        <ele>2048</ele>
        <time>2023-10-31T11:46:10Z</time>
      </trkpt>
      <trkpt lat="42.80773" lon="-0.03351">
        <ele>2047.9</ele>
        <time>2023-10-31T11:46:11Z</time>
      </trkpt>
      <trkpt lat="42.80773" lon="-0.03351">
        <ele>2047.7</ele>
        <time>2023-10-31T11:46:12Z</time>
      </trkpt>
      <trkpt lat="42.80772" lon="-0.03351">
        <ele>2047.5</ele>
        <time>2023-10-31T11:46:13Z</time>
      </trkpt>
      <trkpt lat="42.80772" lon="-0.03351">
        <ele>2047.4</ele>
        <time>2023-10-31T11:46:14Z</time>
      </trkpt>
      <trkpt lat="42.80772" lon="-0.0335">
        <ele>2047.2</ele>
        <time>2023-10-31T11:46:15Z</time>
      </trkpt>
      <trkpt lat="42.80771" lon="-0.03349">
        <ele>2047</ele>
        <time>2023-10-31T11:46:16Z</time>
      </trkpt>
      <trkpt lat="42.8077" lon="-0.03349">
        <ele>2046.9</ele>
        <time>2023-10-31T11:46:17Z</time>
      </trkpt>
      <trkpt lat="42.80771" lon="-0.03349">
        <ele>2046.8</ele>
        <time>2023-10-31T11:46:18Z</time>
      </trkpt>
      <trkpt lat="42.8077" lon="-0.0335">
        <ele>2046.7</ele>
        <time>2023-10-31T11:46:19Z</time>
      </trkpt>
      <trkpt lat="42.8077" lon="-0.0335">
        <ele>2046.7</ele>
        <time>2023-10-31T11:46:20Z</time>
      </trkpt>
      <trkpt lat="42.8077" lon="-0.03349">
        <ele>2046.6</ele>
        <time>2023-10-31T11:46:21Z</time>
      </trkpt>
      <trkpt lat="42.80769" lon="-0.03349">
        <ele>2046.3</ele>
        <time>2023-10-31T11:46:22Z</time>
      </trkpt>
      <trkpt lat="42.80769" lon="-0.03349">
        <ele>2046.3</ele>
        <time>2023-10-31T11:46:23Z</time>
      </trkpt>
      <trkpt lat="42.80769" lon="-0.03348">
        <ele>2046.1</ele>
        <time>2023-10-31T11:46:24Z</time>
      </trkpt>
      <trkpt lat="42.80769" lon="-0.03348">
        <ele>2046.1</ele>
        <time>2023-10-31T11:46:25Z</time>
      </trkpt>
      <trkpt lat="42.80769" lon="-0.03348">
        <ele>2046</ele>
        <time>2023-10-31T11:46:26Z</time>
      </trkpt>
      <trkpt lat="42.80769" lon="-0.03348">
        <ele>2045.9</ele>
        <time>2023-10-31T11:46:27Z</time>
      </trkpt>
      <trkpt lat="42.80768" lon="-0.03347">
        <ele>2045.8</ele>
        <time>2023-10-31T11:46:28Z</time>
      </trkpt>
      <trkpt lat="42.80768" lon="-0.03346">
        <ele>2045.6</ele>
        <time>2023-10-31T11:46:29Z</time>
      </trkpt>
      <trkpt lat="42.80768" lon="-0.03346">
        <ele>2045.5</ele>
        <time>2023-10-31T11:46:30Z</time>
      </trkpt>
      <trkpt lat="42.80768" lon="-0.03344">
        <ele>2045.1</ele>
        <time>2023-10-31T11:46:31Z</time>
      </trkpt>
      <trkpt lat="42.80768" lon="-0.03342">
        <ele>2044.7</ele>
        <time>2023-10-31T11:46:32Z</time>
      </trkpt>
      <trkpt lat="42.80767" lon="-0.03343">
        <ele>2044.4</ele>
        <time>2023-10-31T11:46:33Z</time>
      </trkpt>
      <trkpt lat="42.80768" lon="-0.03345">
        <ele>2044.1</ele>
        <time>2023-10-31T11:46:34Z</time>
      </trkpt>
      <trkpt lat="42.80767" lon="-0.03343">
        <ele>2043.7</ele>
        <time>2023-10-31T11:46:35Z</time>
      </trkpt>
      <trkpt lat="42.80766" lon="-0.03342">
        <ele>2043.4</ele>
        <time>2023-10-31T11:46:36Z</time>
      </trkpt>
      <trkpt lat="42.80766" lon="-0.03342">
        <ele>2043.3</ele>
        <time>2023-10-31T11:46:37Z</time>
      </trkpt>
      <trkpt lat="42.80766" lon="-0.03342">
        <ele>2043.1</ele>
        <time>2023-10-31T11:46:38Z</time>
      </trkpt>
      <trkpt lat="42.80766" lon="-0.03342">
        <ele>2043.1</ele>
        <time>2023-10-31T11:46:39Z</time>
      </trkpt>
      <trkpt lat="42.80766" lon="-0.03342">
        <ele>2043</ele>
        <time>2023-10-31T11:46:40Z</time>
      </trkpt>
      <trkpt lat="42.80766" lon="-0.03342">
        <ele>2043</ele>
        <time>2023-10-31T11:46:41Z</time>
      </trkpt>
      <trkpt lat="42.80765" lon="-0.03342">
        <ele>2043</ele>
        <time>2023-10-31T11:46:42Z</time>
      </trkpt>
      <trkpt lat="42.80765" lon="-0.03342">
        <ele>2042.9</ele>
        <time>2023-10-31T11:46:43Z</time>
      </trkpt>
      <trkpt lat="42.80766" lon="-0.03343">
        <ele>2042.8</ele>
        <time>2023-10-31T11:46:44Z</time>
      </trkpt>
      <trkpt lat="42.80766" lon="-0.03343">
        <ele>2042.7</ele>
        <time>2023-10-31T11:46:45Z</time>
      </trkpt>
      <trkpt lat="42.80766" lon="-0.03343">
        <ele>2042.7</ele>
        <time>2023-10-31T11:46:46Z</time>
      </trkpt>
      <trkpt lat="42.80766" lon="-0.03343">
        <ele>2042.7</ele>
        <time>2023-10-31T11:46:47Z</time>
      </trkpt>
      <trkpt lat="42.80766" lon="-0.03343">
        <ele>2042.7</ele>
        <time>2023-10-31T11:46:48Z</time>
      </trkpt>
      <trkpt lat="42.80766" lon="-0.03343">
        <ele>2042.7</ele>
        <time>2023-10-31T11:46:49Z</time>
      </trkpt>
      <trkpt lat="42.80766" lon="-0.03343">
        <ele>2042.7</ele>
        <time>2023-10-31T11:46:50Z</time>
      </trkpt>
      <trkpt lat="42.80766" lon="-0.03343">
        <ele>2042.7</ele>
        <time>2023-10-31T11:46:51Z</time>
      </trkpt>
      <trkpt lat="42.80766" lon="-0.03343">
        <ele>2042.7</ele>
        <time>2023-10-31T11:46:52Z</time>
      </trkpt>
      <trkpt lat="42.80766" lon="-0.03343">
        <ele>2042.7</ele>
        <time>2023-10-31T11:46:53Z</time>
      </trkpt>
      <trkpt lat="42.80766" lon="-0.03343">
        <ele>2042.7</ele>
        <time>2023-10-31T11:46:54Z</time>
      </trkpt>
      <trkpt lat="42.80766" lon="-0.03343">
        <ele>2042.7</ele>
        <time>2023-10-31T11:46:55Z</time>
      </trkpt>
      <trkpt lat="42.80764" lon="-0.03343">
        <ele>2042.2</ele>
        <time>2023-10-31T11:46:56Z</time>
      </trkpt>
      <trkpt lat="42.80763" lon="-0.03342">
        <ele>2042</ele>
        <time>2023-10-31T11:46:57Z</time>
      </trkpt>
      <trkpt lat="42.80763" lon="-0.03341">
        <ele>2041.8</ele>
        <time>2023-10-31T11:46:58Z</time>
      </trkpt>
      <trkpt lat="42.80762" lon="-0.03341">
        <ele>2041.6</ele>
        <time>2023-10-31T11:46:59Z</time>
      </trkpt>
      <trkpt lat="42.80762" lon="-0.03341">
        <ele>2041.4</ele>
        <time>2023-10-31T11:47:00Z</time>
      </trkpt>
      <trkpt lat="42.80762" lon="-0.0334">
        <ele>2041.3</ele>
        <time>2023-10-31T11:47:01Z</time>
      </trkpt>
      <trkpt lat="42.8076" lon="-0.03339">
        <ele>2040.9</ele>
        <time>2023-10-31T11:47:02Z</time>
      </trkpt>
      <trkpt lat="42.8076" lon="-0.03339">
        <ele>2040.8</ele>
        <time>2023-10-31T11:47:03Z</time>
      </trkpt>
      <trkpt lat="42.8076" lon="-0.03338">
        <ele>2040.7</ele>
        <time>2023-10-31T11:47:04Z</time>
      </trkpt>
      <trkpt lat="42.80761" lon="-0.03338">
        <ele>2040.4</ele>
        <time>2023-10-31T11:47:05Z</time>
      </trkpt>
      <trkpt lat="42.8076" lon="-0.03337">
        <ele>2040.2</ele>
        <time>2023-10-31T11:47:06Z</time>
      </trkpt>
      <trkpt lat="42.8076" lon="-0.03337">
        <ele>2039.9</ele>
        <time>2023-10-31T11:47:07Z</time>
      </trkpt>
      <trkpt lat="42.80759" lon="-0.03336">
        <ele>2039.5</ele>
        <time>2023-10-31T11:47:08Z</time>
      </trkpt>
      <trkpt lat="42.80758" lon="-0.03336">
        <ele>2039.4</ele>
        <time>2023-10-31T11:47:09Z</time>
      </trkpt>
      <trkpt lat="42.80757" lon="-0.03335">
        <ele>2039</ele>
        <time>2023-10-31T11:47:10Z</time>
      </trkpt>
      <trkpt lat="42.80757" lon="-0.03335">
        <ele>2038.9</ele>
        <time>2023-10-31T11:47:11Z</time>
      </trkpt>
      <trkpt lat="42.80757" lon="-0.03334">
        <ele>2038.8</ele>
        <time>2023-10-31T11:47:12Z</time>
      </trkpt>
      <trkpt lat="42.80758" lon="-0.03333">
        <ele>2038.6</ele>
        <time>2023-10-31T11:47:13Z</time>
      </trkpt>
      <trkpt lat="42.80758" lon="-0.03333">
        <ele>2038.4</ele>
        <time>2023-10-31T11:47:14Z</time>
      </trkpt>
      <trkpt lat="42.80759" lon="-0.03333">
        <ele>2038</ele>
        <time>2023-10-31T11:47:15Z</time>
      </trkpt>
      <trkpt lat="42.8076" lon="-0.03332">
        <ele>2037.7</ele>
        <time>2023-10-31T11:47:16Z</time>
      </trkpt>
      <trkpt lat="42.80761" lon="-0.03332">
        <ele>2037.4</ele>
        <time>2023-10-31T11:47:17Z</time>
      </trkpt>
      <trkpt lat="42.80761" lon="-0.03331">
        <ele>2037.3</ele>
        <time>2023-10-31T11:47:18Z</time>
      </trkpt>
      <trkpt lat="42.8076" lon="-0.03331">
        <ele>2037.3</ele>
        <time>2023-10-31T11:47:19Z</time>
      </trkpt>
      <trkpt lat="42.8076" lon="-0.03331">
        <ele>2037.1</ele>
        <time>2023-10-31T11:47:20Z</time>
      </trkpt>
      <trkpt lat="42.8076" lon="-0.0333">
        <ele>2036.9</ele>
        <time>2023-10-31T11:47:21Z</time>
      </trkpt>
      <trkpt lat="42.80759" lon="-0.0333">
        <ele>2036.7</ele>
        <time>2023-10-31T11:47:22Z</time>
      </trkpt>
      <trkpt lat="42.80758" lon="-0.03328">
        <ele>2036.3</ele>
        <time>2023-10-31T11:47:23Z</time>
      </trkpt>
      <trkpt lat="42.80757" lon="-0.03327">
        <ele>2035.9</ele>
        <time>2023-10-31T11:47:24Z</time>
      </trkpt>
      <trkpt lat="42.80757" lon="-0.03326">
        <ele>2035.6</ele>
        <time>2023-10-31T11:47:25Z</time>
      </trkpt>
      <trkpt lat="42.80757" lon="-0.03325">
        <ele>2035.4</ele>
        <time>2023-10-31T11:47:26Z</time>
      </trkpt>
      <trkpt lat="42.80757" lon="-0.03325">
        <ele>2035.2</ele>
        <time>2023-10-31T11:47:27Z</time>
      </trkpt>
      <trkpt lat="42.80757" lon="-0.03324">
        <ele>2035</ele>
        <time>2023-10-31T11:47:28Z</time>
      </trkpt>
      <trkpt lat="42.80757" lon="-0.03323">
        <ele>2034.7</ele>
        <time>2023-10-31T11:47:29Z</time>
      </trkpt>
      <trkpt lat="42.80757" lon="-0.03322">
        <ele>2034.5</ele>
        <time>2023-10-31T11:47:30Z</time>
      </trkpt>
      <trkpt lat="42.80757" lon="-0.03321">
        <ele>2034.4</ele>
        <time>2023-10-31T11:47:31Z</time>
      </trkpt>
      <trkpt lat="42.80756" lon="-0.03321">
        <ele>2034.1</ele>
        <time>2023-10-31T11:47:32Z</time>
      </trkpt>
      <trkpt lat="42.80756" lon="-0.0332">
        <ele>2033.9</ele>
        <time>2023-10-31T11:47:33Z</time>
      </trkpt>
      <trkpt lat="42.80755" lon="-0.0332">
        <ele>2033.6</ele>
        <time>2023-10-31T11:47:34Z</time>
      </trkpt>
      <trkpt lat="42.80755" lon="-0.0332">
        <ele>2033.5</ele>
        <time>2023-10-31T11:47:35Z</time>
      </trkpt>
      <trkpt lat="42.80755" lon="-0.03319">
        <ele>2033.4</ele>
        <time>2023-10-31T11:47:36Z</time>
      </trkpt>
      <trkpt lat="42.80755" lon="-0.03319">
        <ele>2033.3</ele>
        <time>2023-10-31T11:47:37Z</time>
      </trkpt>
      <trkpt lat="42.80755" lon="-0.03318">
        <ele>2033</ele>
        <time>2023-10-31T11:47:38Z</time>
      </trkpt>
      <trkpt lat="42.80754" lon="-0.03317">
        <ele>2032.7</ele>
        <time>2023-10-31T11:47:39Z</time>
      </trkpt>
      <trkpt lat="42.80754" lon="-0.03316">
        <ele>2032.5</ele>
        <time>2023-10-31T11:47:40Z</time>
      </trkpt>
      <trkpt lat="42.80754" lon="-0.03316">
        <ele>2032.4</ele>
        <time>2023-10-31T11:47:41Z</time>
      </trkpt>
      <trkpt lat="42.80754" lon="-0.03314">
        <ele>2032.1</ele>
        <time>2023-10-31T11:47:42Z</time>
      </trkpt>
      <trkpt lat="42.80754" lon="-0.03313">
        <ele>2031.8</ele>
        <time>2023-10-31T11:47:43Z</time>
      </trkpt>
      <trkpt lat="42.80753" lon="-0.03312">
        <ele>2031.4</ele>
        <time>2023-10-31T11:47:44Z</time>
      </trkpt>
      <trkpt lat="42.80753" lon="-0.03311">
        <ele>2031.2</ele>
        <time>2023-10-31T11:47:45Z</time>
      </trkpt>
      <trkpt lat="42.80753" lon="-0.0331">
        <ele>2031</ele>
        <time>2023-10-31T11:47:46Z</time>
      </trkpt>
      <trkpt lat="42.80753" lon="-0.03308">
        <ele>2030.6</ele>
        <time>2023-10-31T11:47:47Z</time>
      </trkpt>
      <trkpt lat="42.80753" lon="-0.03308">
        <ele>2030.5</ele>
        <time>2023-10-31T11:47:48Z</time>
      </trkpt>
      <trkpt lat="42.80754" lon="-0.03307">
        <ele>2030.3</ele>
        <time>2023-10-31T11:47:49Z</time>
      </trkpt>
      <trkpt lat="42.80754" lon="-0.03308">
        <ele>2030.1</ele>
        <time>2023-10-31T11:47:50Z</time>
      </trkpt>
      <trkpt lat="42.80755" lon="-0.03308">
        <ele>2030</ele>
        <time>2023-10-31T11:47:51Z</time>
      </trkpt>
      <trkpt lat="42.80755" lon="-0.03307">
        <ele>2029.8</ele>
        <time>2023-10-31T11:47:52Z</time>
      </trkpt>
      <trkpt lat="42.80756" lon="-0.03307">
        <ele>2029.7</ele>
        <time>2023-10-31T11:47:53Z</time>
      </trkpt>
      <trkpt lat="42.80755" lon="-0.03307">
        <ele>2029.6</ele>
        <time>2023-10-31T11:47:54Z</time>
      </trkpt>
      <trkpt lat="42.80755" lon="-0.03307">
        <ele>2029.6</ele>
        <time>2023-10-31T11:47:55Z</time>
      </trkpt>
      <trkpt lat="42.80755" lon="-0.03307">
        <ele>2029.6</ele>
        <time>2023-10-31T11:47:56Z</time>
      </trkpt>
      <trkpt lat="42.80756" lon="-0.03307">
        <ele>2029.5</ele>
        <time>2023-10-31T11:47:57Z</time>
      </trkpt>
      <trkpt lat="42.80756" lon="-0.03307">
        <ele>2029.5</ele>
        <time>2023-10-31T11:47:58Z</time>
      </trkpt>
      <trkpt lat="42.80756" lon="-0.03307">
        <ele>2029.5</ele>
        <time>2023-10-31T11:47:59Z</time>
      </trkpt>
      <trkpt lat="42.80756" lon="-0.03307">
        <ele>2029.5</ele>
        <time>2023-10-31T11:48:00Z</time>
      </trkpt>
      <trkpt lat="42.80756" lon="-0.03307">
        <ele>2029.5</ele>
        <time>2023-10-31T11:48:01Z</time>
      </trkpt>
      <trkpt lat="42.80756" lon="-0.03307">
        <ele>2029.4</ele>
        <time>2023-10-31T11:48:02Z</time>
      </trkpt>
      <trkpt lat="42.80756" lon="-0.03307">
        <ele>2029.3</ele>
        <time>2023-10-31T11:48:03Z</time>
      </trkpt>
      <trkpt lat="42.80756" lon="-0.03307">
        <ele>2029.2</ele>
        <time>2023-10-31T11:48:04Z</time>
      </trkpt>
      <trkpt lat="42.80756" lon="-0.03307">
        <ele>2029.1</ele>
        <time>2023-10-31T11:48:05Z</time>
      </trkpt>
      <trkpt lat="42.80755" lon="-0.03307">
        <ele>2028.9</ele>
        <time>2023-10-31T11:48:06Z</time>
      </trkpt>
      <trkpt lat="42.80755" lon="-0.03307">
        <ele>2028.7</ele>
        <time>2023-10-31T11:48:07Z</time>
      </trkpt>
      <trkpt lat="42.80754" lon="-0.03307">
        <ele>2028.5</ele>
        <time>2023-10-31T11:48:08Z</time>
      </trkpt>
      <trkpt lat="42.80754" lon="-0.03307">
        <ele>2028.4</ele>
        <time>2023-10-31T11:48:09Z</time>
      </trkpt>
      <trkpt lat="42.80753" lon="-0.03307">
        <ele>2028.2</ele>
        <time>2023-10-31T11:48:10Z</time>
      </trkpt>
      <trkpt lat="42.80753" lon="-0.03307">
        <ele>2028.1</ele>
        <time>2023-10-31T11:48:11Z</time>
      </trkpt>
      <trkpt lat="42.80753" lon="-0.03306">
        <ele>2028</ele>
        <time>2023-10-31T11:48:12Z</time>
      </trkpt>
      <trkpt lat="42.80752" lon="-0.03306">
        <ele>2027.8</ele>
        <time>2023-10-31T11:48:13Z</time>
      </trkpt>
      <trkpt lat="42.80752" lon="-0.03306">
        <ele>2027.7</ele>
        <time>2023-10-31T11:48:14Z</time>
      </trkpt>
      <trkpt lat="42.80752" lon="-0.03306">
        <ele>2027.6</ele>
        <time>2023-10-31T11:48:15Z</time>
      </trkpt>
      <trkpt lat="42.80751" lon="-0.03305">
        <ele>2027.3</ele>
        <time>2023-10-31T11:48:16Z</time>
      </trkpt>
      <trkpt lat="42.8075" lon="-0.03305">
        <ele>2027.1</ele>
        <time>2023-10-31T11:48:17Z</time>
      </trkpt>
      <trkpt lat="42.80749" lon="-0.03305">
        <ele>2026.9</ele>
        <time>2023-10-31T11:48:18Z</time>
      </trkpt>
      <trkpt lat="42.8075" lon="-0.03305">
        <ele>2026.8</ele>
        <time>2023-10-31T11:48:19Z</time>
      </trkpt>
      <trkpt lat="42.80749" lon="-0.03304">
        <ele>2026.6</ele>
        <time>2023-10-31T11:48:20Z</time>
      </trkpt>
      <trkpt lat="42.80749" lon="-0.03304">
        <ele>2026.5</ele>
        <time>2023-10-31T11:48:21Z</time>
      </trkpt>
      <trkpt lat="42.80751" lon="-0.03303">
        <ele>2026</ele>
        <time>2023-10-31T11:48:22Z</time>
      </trkpt>
      <trkpt lat="42.80751" lon="-0.03303">
        <ele>2025.9</ele>
        <time>2023-10-31T11:48:23Z</time>
      </trkpt>
      <trkpt lat="42.8075" lon="-0.03303">
        <ele>2025.5</ele>
        <time>2023-10-31T11:48:24Z</time>
      </trkpt>
      <trkpt lat="42.8075" lon="-0.03303">
        <ele>2025.4</ele>
        <time>2023-10-31T11:48:25Z</time>
      </trkpt>
      <trkpt lat="42.8075" lon="-0.03303">
        <ele>2025.4</ele>
        <time>2023-10-31T11:48:26Z</time>
      </trkpt>
      <trkpt lat="42.8075" lon="-0.03303">
        <ele>2025.4</ele>
        <time>2023-10-31T11:48:27Z</time>
      </trkpt>
      <trkpt lat="42.8075" lon="-0.03303">
        <ele>2025.3</ele>
        <time>2023-10-31T11:48:28Z</time>
      </trkpt>
      <trkpt lat="42.8075" lon="-0.03303">
        <ele>2025.3</ele>
        <time>2023-10-31T11:48:29Z</time>
      </trkpt>
      <trkpt lat="42.8075" lon="-0.03303">
        <ele>2025.3</ele>
        <time>2023-10-31T11:48:30Z</time>
      </trkpt>
      <trkpt lat="42.8075" lon="-0.03303">
        <ele>2025.2</ele>
        <time>2023-10-31T11:48:31Z</time>
      </trkpt>
      <trkpt lat="42.8075" lon="-0.03303">
        <ele>2025.2</ele>
        <time>2023-10-31T11:48:32Z</time>
      </trkpt>
      <trkpt lat="42.8075" lon="-0.03303">
        <ele>2025.2</ele>
        <time>2023-10-31T11:48:33Z</time>
      </trkpt>
      <trkpt lat="42.8075" lon="-0.03303">
        <ele>2025.1</ele>
        <time>2023-10-31T11:48:34Z</time>
      </trkpt>
      <trkpt lat="42.8075" lon="-0.03303">
        <ele>2025.1</ele>
        <time>2023-10-31T11:48:35Z</time>
      </trkpt>
      <trkpt lat="42.8075" lon="-0.03304">
        <ele>2025.1</ele>
        <time>2023-10-31T11:48:36Z</time>
      </trkpt>
      <trkpt lat="42.8075" lon="-0.03303">
        <ele>2025.1</ele>
        <time>2023-10-31T11:48:37Z</time>
      </trkpt>
      <trkpt lat="42.8075" lon="-0.03303">
        <ele>2025</ele>
        <time>2023-10-31T11:48:38Z</time>
      </trkpt>
      <trkpt lat="42.80749" lon="-0.03303">
        <ele>2024.8</ele>
        <time>2023-10-31T11:48:39Z</time>
      </trkpt>
      <trkpt lat="42.80749" lon="-0.03303">
        <ele>2024.8</ele>
        <time>2023-10-31T11:48:40Z</time>
      </trkpt>
      <trkpt lat="42.80749" lon="-0.03303">
        <ele>2024.8</ele>
        <time>2023-10-31T11:48:41Z</time>
      </trkpt>
      <trkpt lat="42.8075" lon="-0.03302">
        <ele>2024.5</ele>
        <time>2023-10-31T11:48:42Z</time>
      </trkpt>
      <trkpt lat="42.80749" lon="-0.03303">
        <ele>2024.3</ele>
        <time>2023-10-31T11:48:43Z</time>
      </trkpt>
      <trkpt lat="42.80749" lon="-0.03303">
        <ele>2024.3</ele>
        <time>2023-10-31T11:48:44Z</time>
      </trkpt>
      <trkpt lat="42.80749" lon="-0.03303">
        <ele>2024.2</ele>
        <time>2023-10-31T11:48:45Z</time>
      </trkpt>
      <trkpt lat="42.80749" lon="-0.03303">
        <ele>2024.2</ele>
        <time>2023-10-31T11:48:46Z</time>
      </trkpt>
      <trkpt lat="42.80749" lon="-0.03303">
        <ele>2024.1</ele>
        <time>2023-10-31T11:48:47Z</time>
      </trkpt>
      <trkpt lat="42.80749" lon="-0.03303">
        <ele>2024.1</ele>
        <time>2023-10-31T11:48:48Z</time>
      </trkpt>
      <trkpt lat="42.80749" lon="-0.03303">
        <ele>2024.1</ele>
        <time>2023-10-31T11:48:49Z</time>
      </trkpt>
      <trkpt lat="42.80749" lon="-0.03304">
        <ele>2023.9</ele>
        <time>2023-10-31T11:48:50Z</time>
      </trkpt>
      <trkpt lat="42.80749" lon="-0.03304">
        <ele>2023.9</ele>
        <time>2023-10-31T11:48:51Z</time>
      </trkpt>
      <trkpt lat="42.80749" lon="-0.03304">
        <ele>2023.9</ele>
        <time>2023-10-31T11:48:52Z</time>
      </trkpt>
      <trkpt lat="42.80749" lon="-0.03303">
        <ele>2023.7</ele>
        <time>2023-10-31T11:48:53Z</time>
      </trkpt>
      <trkpt lat="42.80749" lon="-0.03303">
        <ele>2023.7</ele>
        <time>2023-10-31T11:48:54Z</time>
      </trkpt>
      <trkpt lat="42.80748" lon="-0.03303">
        <ele>2023.4</ele>
        <time>2023-10-31T11:48:55Z</time>
      </trkpt>
      <trkpt lat="42.80749" lon="-0.03303">
        <ele>2023.1</ele>
        <time>2023-10-31T11:48:56Z</time>
      </trkpt>
      <trkpt lat="42.80749" lon="-0.03303">
        <ele>2023.1</ele>
        <time>2023-10-31T11:48:57Z</time>
      </trkpt>
      <trkpt lat="42.80749" lon="-0.03303">
        <ele>2023</ele>
        <time>2023-10-31T11:48:58Z</time>
      </trkpt>
      <trkpt lat="42.80749" lon="-0.03303">
        <ele>2022.9</ele>
        <time>2023-10-31T11:48:59Z</time>
      </trkpt>
      <trkpt lat="42.80749" lon="-0.03303">
        <ele>2022.8</ele>
        <time>2023-10-31T11:49:00Z</time>
      </trkpt>
      <trkpt lat="42.80749" lon="-0.03303">
        <ele>2022.8</ele>
        <time>2023-10-31T11:49:01Z</time>
      </trkpt>
      <trkpt lat="42.80749" lon="-0.03303">
        <ele>2022.8</ele>
        <time>2023-10-31T11:49:02Z</time>
      </trkpt>
      <trkpt lat="42.80748" lon="-0.03303">
        <ele>2022.5</ele>
        <time>2023-10-31T11:49:03Z</time>
      </trkpt>
      <trkpt lat="42.80749" lon="-0.03303">
        <ele>2022.3</ele>
        <time>2023-10-31T11:49:04Z</time>
      </trkpt>
      <trkpt lat="42.80748" lon="-0.03303">
        <ele>2022.2</ele>
        <time>2023-10-31T11:49:05Z</time>
      </trkpt>
      <trkpt lat="42.80748" lon="-0.03303">
        <ele>2022.1</ele>
        <time>2023-10-31T11:49:06Z</time>
      </trkpt>
      <trkpt lat="42.80748" lon="-0.03303">
        <ele>2022.1</ele>
        <time>2023-10-31T11:49:07Z</time>
      </trkpt>
      <trkpt lat="42.80748" lon="-0.03303">
        <ele>2022.1</ele>
        <time>2023-10-31T11:49:08Z</time>
      </trkpt>
      <trkpt lat="42.80696" lon="-0.03247">
        <ele>1997.3</ele>
        <time>2023-10-31T12:14:01Z</time>
      </trkpt>
      <trkpt lat="42.80675" lon="-0.03271">
        <ele>1995</ele>
        <time>2023-10-31T12:14:02Z</time>
      </trkpt>
      <trkpt lat="42.80669" lon="-0.03269">
        <ele>1994.1</ele>
        <time>2023-10-31T12:14:03Z</time>
      </trkpt>
      <trkpt lat="42.80693" lon="-0.03233">
        <ele>1989.4</ele>
        <time>2023-10-31T12:14:04Z</time>
      </trkpt>
      <trkpt lat="42.80694" lon="-0.03235">
        <ele>1989.2</ele>
        <time>2023-10-31T12:14:05Z</time>
      </trkpt>
      <trkpt lat="42.80695" lon="-0.03236">
        <ele>1989.1</ele>
        <time>2023-10-31T12:14:06Z</time>
      </trkpt>
      <trkpt lat="42.80696" lon="-0.03237">
        <ele>1988.9</ele>
        <time>2023-10-31T12:14:07Z</time>
      </trkpt>
      <trkpt lat="42.80696" lon="-0.03237">
        <ele>1988.9</ele>
        <time>2023-10-31T12:14:08Z</time>
      </trkpt>
      <trkpt lat="42.80697" lon="-0.03237">
        <ele>1988.9</ele>
        <time>2023-10-31T12:14:09Z</time>
      </trkpt>
      <trkpt lat="42.80697" lon="-0.03238">
        <ele>1988.9</ele>
        <time>2023-10-31T12:14:10Z</time>
      </trkpt>
      <trkpt lat="42.80697" lon="-0.03238">
        <ele>1988.9</ele>
        <time>2023-10-31T12:14:11Z</time>
      </trkpt>
      <trkpt lat="42.80697" lon="-0.03238">
        <ele>1988.8</ele>
        <time>2023-10-31T12:14:12Z</time>
      </trkpt>
      <trkpt lat="42.80697" lon="-0.03238">
        <ele>1988.8</ele>
        <time>2023-10-31T12:14:13Z</time>
      </trkpt>
      <trkpt lat="42.80697" lon="-0.03238">
        <ele>1988.8</ele>
        <time>2023-10-31T12:14:14Z</time>
      </trkpt>
      <trkpt lat="42.80697" lon="-0.03238">
        <ele>1988.8</ele>
        <time>2023-10-31T12:14:15Z</time>
      </trkpt>
      <trkpt lat="42.80698" lon="-0.03238">
        <ele>1988.8</ele>
        <time>2023-10-31T12:14:16Z</time>
      </trkpt>
      <trkpt lat="42.80698" lon="-0.03239">
        <ele>1988.7</ele>
        <time>2023-10-31T12:14:17Z</time>
      </trkpt>
      <trkpt lat="42.80698" lon="-0.03239">
        <ele>1988.7</ele>
        <time>2023-10-31T12:14:18Z</time>
      </trkpt>
      <trkpt lat="42.80698" lon="-0.03239">
        <ele>1988.7</ele>
        <time>2023-10-31T12:14:19Z</time>
      </trkpt>
      <trkpt lat="42.80698" lon="-0.03239">
        <ele>1988.7</ele>
        <time>2023-10-31T12:14:20Z</time>
      </trkpt>
      <trkpt lat="42.80698" lon="-0.03239">
        <ele>1988.7</ele>
        <time>2023-10-31T12:14:21Z</time>
      </trkpt>
      <trkpt lat="42.80698" lon="-0.03239">
        <ele>1988.7</ele>
        <time>2023-10-31T12:14:22Z</time>
      </trkpt>
      <trkpt lat="42.80699" lon="-0.03239">
        <ele>1988.6</ele>
        <time>2023-10-31T12:14:23Z</time>
      </trkpt>
      <trkpt lat="42.80699" lon="-0.0324">
        <ele>1988.6</ele>
        <time>2023-10-31T12:14:24Z</time>
      </trkpt>
      <trkpt lat="42.80699" lon="-0.03239">
        <ele>1988.6</ele>
        <time>2023-10-31T12:14:25Z</time>
      </trkpt>
      <trkpt lat="42.807" lon="-0.03241">
        <ele>1988.5</ele>
        <time>2023-10-31T12:14:26Z</time>
      </trkpt>
      <trkpt lat="42.807" lon="-0.03241">
        <ele>1988.4</ele>
        <time>2023-10-31T12:14:27Z</time>
      </trkpt>
      <trkpt lat="42.807" lon="-0.03241">
        <ele>1988.4</ele>
        <time>2023-10-31T12:14:28Z</time>
      </trkpt>
      <trkpt lat="42.80699" lon="-0.03242">
        <ele>1988.3</ele>
        <time>2023-10-31T12:14:29Z</time>
      </trkpt>
      <trkpt lat="42.807" lon="-0.03243">
        <ele>1988.2</ele>
        <time>2023-10-31T12:14:30Z</time>
      </trkpt>
      <trkpt lat="42.807" lon="-0.03242">
        <ele>1988.1</ele>
        <time>2023-10-31T12:14:31Z</time>
      </trkpt>
      <trkpt lat="42.80699" lon="-0.03243">
        <ele>1988</ele>
        <time>2023-10-31T12:14:32Z</time>
      </trkpt>
      <trkpt lat="42.80699" lon="-0.03243">
        <ele>1988</ele>
        <time>2023-10-31T12:14:33Z</time>
      </trkpt>
      <trkpt lat="42.80699" lon="-0.03243">
        <ele>1988</ele>
        <time>2023-10-31T12:14:34Z</time>
      </trkpt>
      <trkpt lat="42.807" lon="-0.03243">
        <ele>1987.9</ele>
        <time>2023-10-31T12:14:35Z</time>
      </trkpt>
      <trkpt lat="42.80699" lon="-0.03244">
        <ele>1987.9</ele>
        <time>2023-10-31T12:14:36Z</time>
      </trkpt>
      <trkpt lat="42.80699" lon="-0.03244">
        <ele>1987.8</ele>
        <time>2023-10-31T12:14:37Z</time>
      </trkpt>
      <trkpt lat="42.80699" lon="-0.03244">
        <ele>1987.8</ele>
        <time>2023-10-31T12:14:38Z</time>
      </trkpt>
      <trkpt lat="42.80699" lon="-0.03244">
        <ele>1987.7</ele>
        <time>2023-10-31T12:14:39Z</time>
      </trkpt>
      <trkpt lat="42.80699" lon="-0.03244">
        <ele>1987.7</ele>
        <time>2023-10-31T12:14:40Z</time>
      </trkpt>
      <trkpt lat="42.80699" lon="-0.03244">
        <ele>1987.7</ele>
        <time>2023-10-31T12:14:41Z</time>
      </trkpt>
      <trkpt lat="42.80699" lon="-0.03245">
        <ele>1987.7</ele>
        <time>2023-10-31T12:14:42Z</time>
      </trkpt>
      <trkpt lat="42.80699" lon="-0.03245">
        <ele>1987.7</ele>
        <time>2023-10-31T12:14:43Z</time>
      </trkpt>
      <trkpt lat="42.80699" lon="-0.03245">
        <ele>1987.6</ele>
        <time>2023-10-31T12:14:44Z</time>
      </trkpt>
      <trkpt lat="42.80699" lon="-0.03245">
        <ele>1987.6</ele>
        <time>2023-10-31T12:14:45Z</time>
      </trkpt>
      <trkpt lat="42.80699" lon="-0.03244">
        <ele>1987.6</ele>
        <time>2023-10-31T12:14:46Z</time>
      </trkpt>
      <trkpt lat="42.80699" lon="-0.03244">
        <ele>1987.6</ele>
        <time>2023-10-31T12:14:47Z</time>
      </trkpt>
      <trkpt lat="42.80699" lon="-0.03244">
        <ele>1987.6</ele>
        <time>2023-10-31T12:14:48Z</time>
      </trkpt>
      <trkpt lat="42.80699" lon="-0.03244">
        <ele>1987.5</ele>
        <time>2023-10-31T12:14:49Z</time>
      </trkpt>
      <trkpt lat="42.80699" lon="-0.03244">
        <ele>1987.5</ele>
        <time>2023-10-31T12:14:50Z</time>
      </trkpt>
      <trkpt lat="42.80698" lon="-0.03244">
        <ele>1987.5</ele>
        <time>2023-10-31T12:14:51Z</time>
      </trkpt>
      <trkpt lat="42.80699" lon="-0.03244">
        <ele>1987.5</ele>
        <time>2023-10-31T12:14:52Z</time>
      </trkpt>
      <trkpt lat="42.80698" lon="-0.03244">
        <ele>1987.5</ele>
        <time>2023-10-31T12:14:53Z</time>
      </trkpt>
      <trkpt lat="42.80698" lon="-0.03244">
        <ele>1987.4</ele>
        <time>2023-10-31T12:14:54Z</time>
      </trkpt>
      <trkpt lat="42.80699" lon="-0.03244">
        <ele>1987.4</ele>
        <time>2023-10-31T12:14:55Z</time>
      </trkpt>
      <trkpt lat="42.80699" lon="-0.03244">
        <ele>1987.4</ele>
        <time>2023-10-31T12:14:56Z</time>
      </trkpt>
      <trkpt lat="42.80699" lon="-0.03244">
        <ele>1987.4</ele>
        <time>2023-10-31T12:14:57Z</time>
      </trkpt>
      <trkpt lat="42.80699" lon="-0.03244">
        <ele>1987.4</ele>
        <time>2023-10-31T12:14:58Z</time>
      </trkpt>
      <trkpt lat="42.80699" lon="-0.03245">
        <ele>1987.3</ele>
        <time>2023-10-31T12:14:59Z</time>
      </trkpt>
      <trkpt lat="42.80699" lon="-0.03245">
        <ele>1987.3</ele>
        <time>2023-10-31T12:15:00Z</time>
      </trkpt>
      <trkpt lat="42.80699" lon="-0.03245">
        <ele>1987.3</ele>
        <time>2023-10-31T12:15:01Z</time>
      </trkpt>
      <trkpt lat="42.80699" lon="-0.03245">
        <ele>1987.2</ele>
        <time>2023-10-31T12:15:02Z</time>
      </trkpt>
      <trkpt lat="42.80699" lon="-0.03245">
        <ele>1987.2</ele>
        <time>2023-10-31T12:15:03Z</time>
      </trkpt>
      <trkpt lat="42.80699" lon="-0.03246">
        <ele>1987.2</ele>
        <time>2023-10-31T12:15:04Z</time>
      </trkpt>
      <trkpt lat="42.80698" lon="-0.03246">
        <ele>1987.1</ele>
        <time>2023-10-31T12:15:05Z</time>
      </trkpt>
      <trkpt lat="42.80699" lon="-0.03247">
        <ele>1987.1</ele>
        <time>2023-10-31T12:15:06Z</time>
      </trkpt>
      <trkpt lat="42.80699" lon="-0.03247">
        <ele>1987</ele>
        <time>2023-10-31T12:15:07Z</time>
      </trkpt>
      <trkpt lat="42.80699" lon="-0.03247">
        <ele>1987</ele>
        <time>2023-10-31T12:15:08Z</time>
      </trkpt>
      <trkpt lat="42.80699" lon="-0.03247">
        <ele>1987</ele>
        <time>2023-10-31T12:15:09Z</time>
      </trkpt>
      <trkpt lat="42.80699" lon="-0.03247">
        <ele>1987</ele>
        <time>2023-10-31T12:15:10Z</time>
      </trkpt>
      <trkpt lat="42.80699" lon="-0.03247">
        <ele>1987</ele>
        <time>2023-10-31T12:15:11Z</time>
      </trkpt>
      <trkpt lat="42.80699" lon="-0.03247">
        <ele>1987</ele>
        <time>2023-10-31T12:15:12Z</time>
      </trkpt>
      <trkpt lat="42.80698" lon="-0.03247">
        <ele>1986.9</ele>
        <time>2023-10-31T12:15:13Z</time>
      </trkpt>
      <trkpt lat="42.80698" lon="-0.03247">
        <ele>1986.9</ele>
        <time>2023-10-31T12:15:14Z</time>
      </trkpt>
      <trkpt lat="42.80698" lon="-0.03247">
        <ele>1986.9</ele>
        <time>2023-10-31T12:15:15Z</time>
      </trkpt>
      <trkpt lat="42.80698" lon="-0.03247">
        <ele>1986.9</ele>
        <time>2023-10-31T12:15:16Z</time>
      </trkpt>
      <trkpt lat="42.80698" lon="-0.03247">
        <ele>1986.9</ele>
        <time>2023-10-31T12:15:17Z</time>
      </trkpt>
      <trkpt lat="42.80698" lon="-0.03247">
        <ele>1986.8</ele>
        <time>2023-10-31T12:15:18Z</time>
      </trkpt>
      <trkpt lat="42.80698" lon="-0.03247">
        <ele>1986.8</ele>
        <time>2023-10-31T12:15:19Z</time>
      </trkpt>
      <trkpt lat="42.80698" lon="-0.03247">
        <ele>1986.8</ele>
        <time>2023-10-31T12:15:20Z</time>
      </trkpt>
      <trkpt lat="42.80698" lon="-0.03247">
        <ele>1986.8</ele>
        <time>2023-10-31T12:15:21Z</time>
      </trkpt>
      <trkpt lat="42.80698" lon="-0.03247">
        <ele>1986.8</ele>
        <time>2023-10-31T12:15:22Z</time>
      </trkpt>
      <trkpt lat="42.80698" lon="-0.03247">
        <ele>1986.7</ele>
        <time>2023-10-31T12:15:23Z</time>
      </trkpt>
      <trkpt lat="42.80698" lon="-0.03248">
        <ele>1986.7</ele>
        <time>2023-10-31T12:15:24Z</time>
      </trkpt>
      <trkpt lat="42.80698" lon="-0.03248">
        <ele>1986.7</ele>
        <time>2023-10-31T12:15:25Z</time>
      </trkpt>
      <trkpt lat="42.80698" lon="-0.03248">
        <ele>1986.7</ele>
        <time>2023-10-31T12:15:26Z</time>
      </trkpt>
      <trkpt lat="42.80698" lon="-0.03248">
        <ele>1986.6</ele>
        <time>2023-10-31T12:15:27Z</time>
      </trkpt>
      <trkpt lat="42.80698" lon="-0.03248">
        <ele>1986.6</ele>
        <time>2023-10-31T12:15:28Z</time>
      </trkpt>
      <trkpt lat="42.80698" lon="-0.03249">
        <ele>1986.6</ele>
        <time>2023-10-31T12:15:29Z</time>
      </trkpt>
      <trkpt lat="42.80698" lon="-0.03249">
        <ele>1986.5</ele>
        <time>2023-10-31T12:15:30Z</time>
      </trkpt>
      <trkpt lat="42.80698" lon="-0.0325">
        <ele>1986.5</ele>
        <time>2023-10-31T12:15:31Z</time>
      </trkpt>
      <trkpt lat="42.80697" lon="-0.0325">
        <ele>1986.4</ele>
        <time>2023-10-31T12:15:32Z</time>
      </trkpt>
      <trkpt lat="42.80697" lon="-0.03252">
        <ele>1986.3</ele>
        <time>2023-10-31T12:15:33Z</time>
      </trkpt>
      <trkpt lat="42.80697" lon="-0.03253">
        <ele>1986.2</ele>
        <time>2023-10-31T12:15:34Z</time>
      </trkpt>
      <trkpt lat="42.80696" lon="-0.03253">
        <ele>1986.1</ele>
        <time>2023-10-31T12:15:35Z</time>
      </trkpt>
      <trkpt lat="42.80696" lon="-0.03254">
        <ele>1986</ele>
        <time>2023-10-31T12:15:36Z</time>
      </trkpt>
      <trkpt lat="42.80696" lon="-0.03255">
        <ele>1986</ele>
        <time>2023-10-31T12:15:37Z</time>
      </trkpt>
      <trkpt lat="42.80696" lon="-0.03255">
        <ele>1985.9</ele>
        <time>2023-10-31T12:15:38Z</time>
      </trkpt>
      <trkpt lat="42.80697" lon="-0.03254">
        <ele>1985.8</ele>
        <time>2023-10-31T12:15:39Z</time>
      </trkpt>
      <trkpt lat="42.80697" lon="-0.03254">
        <ele>1985.8</ele>
        <time>2023-10-31T12:15:40Z</time>
      </trkpt>
      <trkpt lat="42.80697" lon="-0.03254">
        <ele>1985.8</ele>
        <time>2023-10-31T12:15:41Z</time>
      </trkpt>
      <trkpt lat="42.80697" lon="-0.03254">
        <ele>1985.8</ele>
        <time>2023-10-31T12:15:42Z</time>
      </trkpt>
      <trkpt lat="42.80696" lon="-0.03254">
        <ele>1985.7</ele>
        <time>2023-10-31T12:15:43Z</time>
      </trkpt>
      <trkpt lat="42.80696" lon="-0.03255">
        <ele>1985.7</ele>
        <time>2023-10-31T12:15:44Z</time>
      </trkpt>
      <trkpt lat="42.80696" lon="-0.03255">
        <ele>1985.6</ele>
        <time>2023-10-31T12:15:45Z</time>
      </trkpt>
      <trkpt lat="42.80695" lon="-0.03256">
        <ele>1985.5</ele>
        <time>2023-10-31T12:15:46Z</time>
      </trkpt>
      <trkpt lat="42.80695" lon="-0.03256">
        <ele>1985.5</ele>
        <time>2023-10-31T12:15:47Z</time>
      </trkpt>
      <trkpt lat="42.80696" lon="-0.03256">
        <ele>1985.4</ele>
        <time>2023-10-31T12:15:48Z</time>
      </trkpt>
      <trkpt lat="42.80696" lon="-0.03257">
        <ele>1985.4</ele>
        <time>2023-10-31T12:15:49Z</time>
      </trkpt>
      <trkpt lat="42.80695" lon="-0.03257">
        <ele>1985.4</ele>
        <time>2023-10-31T12:15:50Z</time>
      </trkpt>
      <trkpt lat="42.80695" lon="-0.03258">
        <ele>1985.2</ele>
        <time>2023-10-31T12:15:51Z</time>
      </trkpt>
      <trkpt lat="42.80695" lon="-0.03259">
        <ele>1985.1</ele>
        <time>2023-10-31T12:15:52Z</time>
      </trkpt>
      <trkpt lat="42.80694" lon="-0.03261">
        <ele>1985</ele>
        <time>2023-10-31T12:15:53Z</time>
      </trkpt>
      <trkpt lat="42.80693" lon="-0.03262">
        <ele>1984.9</ele>
        <time>2023-10-31T12:15:54Z</time>
      </trkpt>
      <trkpt lat="42.80693" lon="-0.03262">
        <ele>1984.8</ele>
        <time>2023-10-31T12:15:55Z</time>
      </trkpt>
      <trkpt lat="42.80693" lon="-0.03263">
        <ele>1984.7</ele>
        <time>2023-10-31T12:15:56Z</time>
      </trkpt>
      <trkpt lat="42.80693" lon="-0.03264">
        <ele>1984.7</ele>
        <time>2023-10-31T12:15:57Z</time>
      </trkpt>
      <trkpt lat="42.80693" lon="-0.03266">
        <ele>1984.5</ele>
        <time>2023-10-31T12:15:58Z</time>
      </trkpt>
      <trkpt lat="42.80692" lon="-0.03267">
        <ele>1984.4</ele>
        <time>2023-10-31T12:15:59Z</time>
      </trkpt>
      <trkpt lat="42.80692" lon="-0.03268">
        <ele>1984.3</ele>
        <time>2023-10-31T12:16:00Z</time>
      </trkpt>
      <trkpt lat="42.80692" lon="-0.03269">
        <ele>1984.2</ele>
        <time>2023-10-31T12:16:01Z</time>
      </trkpt>
      <trkpt lat="42.80692" lon="-0.03271">
        <ele>1984.1</ele>
        <time>2023-10-31T12:16:02Z</time>
      </trkpt>
      <trkpt lat="42.80692" lon="-0.03271">
        <ele>1984.1</ele>
        <time>2023-10-31T12:16:03Z</time>
      </trkpt>
      <trkpt lat="42.80691" lon="-0.03272">
        <ele>1984</ele>
        <time>2023-10-31T12:16:04Z</time>
      </trkpt>
      <trkpt lat="42.80691" lon="-0.03272">
        <ele>1984</ele>
        <time>2023-10-31T12:16:05Z</time>
      </trkpt>
      <trkpt lat="42.80691" lon="-0.03272">
        <ele>1984</ele>
        <time>2023-10-31T12:16:06Z</time>
      </trkpt>
      <trkpt lat="42.80691" lon="-0.03272">
        <ele>1984</ele>
        <time>2023-10-31T12:16:07Z</time>
      </trkpt>
      <trkpt lat="42.80691" lon="-0.03272">
        <ele>1984</ele>
        <time>2023-10-31T12:16:08Z</time>
      </trkpt>
      <trkpt lat="42.80692" lon="-0.03272">
        <ele>1984</ele>
        <time>2023-10-31T12:16:09Z</time>
      </trkpt>
      <trkpt lat="42.80691" lon="-0.03272">
        <ele>1984</ele>
        <time>2023-10-31T12:16:10Z</time>
      </trkpt>
      <trkpt lat="42.8069" lon="-0.03273">
        <ele>1983.8</ele>
        <time>2023-10-31T12:16:11Z</time>
      </trkpt>
      <trkpt lat="42.80691" lon="-0.03273">
        <ele>1983.8</ele>
        <time>2023-10-31T12:16:12Z</time>
      </trkpt>
      <trkpt lat="42.80691" lon="-0.03273">
        <ele>1983.8</ele>
        <time>2023-10-31T12:16:13Z</time>
      </trkpt>
      <trkpt lat="42.80691" lon="-0.03273">
        <ele>1983.8</ele>
        <time>2023-10-31T12:16:14Z</time>
      </trkpt>
      <trkpt lat="42.80691" lon="-0.03273">
        <ele>1983.8</ele>
        <time>2023-10-31T12:16:15Z</time>
      </trkpt>
      <trkpt lat="42.80691" lon="-0.03272">
        <ele>1983.7</ele>
        <time>2023-10-31T12:16:16Z</time>
      </trkpt>
      <trkpt lat="42.8069" lon="-0.03273">
        <ele>1983.7</ele>
        <time>2023-10-31T12:16:17Z</time>
      </trkpt>
      <trkpt lat="42.8069" lon="-0.03273">
        <ele>1983.7</ele>
        <time>2023-10-31T12:16:18Z</time>
      </trkpt>
      <trkpt lat="42.8069" lon="-0.03273">
        <ele>1983.7</ele>
        <time>2023-10-31T12:16:19Z</time>
      </trkpt>
      <trkpt lat="42.8069" lon="-0.03272">
        <ele>1983.7</ele>
        <time>2023-10-31T12:16:20Z</time>
      </trkpt>
      <trkpt lat="42.8069" lon="-0.03272">
        <ele>1983.7</ele>
        <time>2023-10-31T12:16:21Z</time>
      </trkpt>
      <trkpt lat="42.8069" lon="-0.03272">
        <ele>1983.7</ele>
        <time>2023-10-31T12:16:22Z</time>
      </trkpt>
      <trkpt lat="42.8069" lon="-0.03272">
        <ele>1983.7</ele>
        <time>2023-10-31T12:16:23Z</time>
      </trkpt>
      <trkpt lat="42.8069" lon="-0.03272">
        <ele>1983.7</ele>
        <time>2023-10-31T12:16:24Z</time>
      </trkpt>
      <trkpt lat="42.80691" lon="-0.03272">
        <ele>1983.7</ele>
        <time>2023-10-31T12:16:25Z</time>
      </trkpt>
      <trkpt lat="42.80691" lon="-0.03272">
        <ele>1983.6</ele>
        <time>2023-10-31T12:16:26Z</time>
      </trkpt>
      <trkpt lat="42.80691" lon="-0.03272">
        <ele>1983.6</ele>
        <time>2023-10-31T12:16:27Z</time>
      </trkpt>
      <trkpt lat="42.80691" lon="-0.03272">
        <ele>1983.6</ele>
        <time>2023-10-31T12:16:28Z</time>
      </trkpt>
      <trkpt lat="42.80691" lon="-0.03272">
        <ele>1983.6</ele>
        <time>2023-10-31T12:16:29Z</time>
      </trkpt>
      <trkpt lat="42.80691" lon="-0.03272">
        <ele>1983.6</ele>
        <time>2023-10-31T12:16:30Z</time>
      </trkpt>
      <trkpt lat="42.80691" lon="-0.03272">
        <ele>1983.6</ele>
        <time>2023-10-31T12:16:31Z</time>
      </trkpt>
      <trkpt lat="42.80691" lon="-0.03273">
        <ele>1983.6</ele>
        <time>2023-10-31T12:16:32Z</time>
      </trkpt>
      <trkpt lat="42.80691" lon="-0.03273">
        <ele>1983.6</ele>
        <time>2023-10-31T12:16:33Z</time>
      </trkpt>
      <trkpt lat="42.80691" lon="-0.03273">
        <ele>1983.6</ele>
        <time>2023-10-31T12:16:34Z</time>
      </trkpt>
      <trkpt lat="42.80691" lon="-0.03273">
        <ele>1983.6</ele>
        <time>2023-10-31T12:16:35Z</time>
      </trkpt>
      <trkpt lat="42.80691" lon="-0.03273">
        <ele>1983.6</ele>
        <time>2023-10-31T12:16:36Z</time>
      </trkpt>
      <trkpt lat="42.80691" lon="-0.03273">
        <ele>1983.6</ele>
        <time>2023-10-31T12:16:37Z</time>
      </trkpt>
      <trkpt lat="42.80691" lon="-0.03272">
        <ele>1983.6</ele>
        <time>2023-10-31T12:16:38Z</time>
      </trkpt>
      <trkpt lat="42.80691" lon="-0.03272">
        <ele>1983.6</ele>
        <time>2023-10-31T12:16:39Z</time>
      </trkpt>
      <trkpt lat="42.80691" lon="-0.03272">
        <ele>1983.6</ele>
        <time>2023-10-31T12:16:40Z</time>
      </trkpt>
      <trkpt lat="42.80691" lon="-0.03272">
        <ele>1983.6</ele>
        <time>2023-10-31T12:16:41Z</time>
      </trkpt>
      <trkpt lat="42.80691" lon="-0.03272">
        <ele>1983.6</ele>
        <time>2023-10-31T12:16:42Z</time>
      </trkpt>
      <trkpt lat="42.80691" lon="-0.03272">
        <ele>1983.5</ele>
        <time>2023-10-31T12:16:43Z</time>
      </trkpt>
      <trkpt lat="42.80691" lon="-0.03272">
        <ele>1983.5</ele>
        <time>2023-10-31T12:16:44Z</time>
      </trkpt>
      <trkpt lat="42.80691" lon="-0.03272">
        <ele>1983.5</ele>
        <time>2023-10-31T12:16:45Z</time>
      </trkpt>
      <trkpt lat="42.80691" lon="-0.03271">
        <ele>1983.5</ele>
        <time>2023-10-31T12:16:46Z</time>
      </trkpt>
      <trkpt lat="42.80691" lon="-0.03271">
        <ele>1983.5</ele>
        <time>2023-10-31T12:16:47Z</time>
      </trkpt>
      <trkpt lat="42.80691" lon="-0.03273">
        <ele>1983.4</ele>
        <time>2023-10-31T12:16:48Z</time>
      </trkpt>
      <trkpt lat="42.80692" lon="-0.03275">
        <ele>1983.4</ele>
        <time>2023-10-31T12:16:49Z</time>
      </trkpt>
      <trkpt lat="42.80692" lon="-0.03276">
        <ele>1983.4</ele>
        <time>2023-10-31T12:16:50Z</time>
      </trkpt>
      <trkpt lat="42.80692" lon="-0.03277">
        <ele>1983.4</ele>
        <time>2023-10-31T12:16:51Z</time>
      </trkpt>
      <trkpt lat="42.80691" lon="-0.03278">
        <ele>1983.3</ele>
        <time>2023-10-31T12:16:52Z</time>
      </trkpt>
      <trkpt lat="42.80691" lon="-0.03279">
        <ele>1983.3</ele>
        <time>2023-10-31T12:16:53Z</time>
      </trkpt>
      <trkpt lat="42.80691" lon="-0.0328">
        <ele>1983.3</ele>
        <time>2023-10-31T12:16:54Z</time>
      </trkpt>
      <trkpt lat="42.80691" lon="-0.03281">
        <ele>1983.3</ele>
        <time>2023-10-31T12:16:55Z</time>
      </trkpt>
      <trkpt lat="42.80692" lon="-0.03282">
        <ele>1983.3</ele>
        <time>2023-10-31T12:16:56Z</time>
      </trkpt>
      <trkpt lat="42.80692" lon="-0.03281">
        <ele>1983.3</ele>
        <time>2023-10-31T12:16:57Z</time>
      </trkpt>
      <trkpt lat="42.80692" lon="-0.03281">
        <ele>1983.3</ele>
        <time>2023-10-31T12:16:58Z</time>
      </trkpt>
      <trkpt lat="42.80691" lon="-0.03282">
        <ele>1983.3</ele>
        <time>2023-10-31T12:16:59Z</time>
      </trkpt>
      <trkpt lat="42.80691" lon="-0.03283">
        <ele>1983.4</ele>
        <time>2023-10-31T12:17:00Z</time>
      </trkpt>
      <trkpt lat="42.80691" lon="-0.03283">
        <ele>1983.4</ele>
        <time>2023-10-31T12:17:01Z</time>
      </trkpt>
      <trkpt lat="42.80691" lon="-0.03283">
        <ele>1983.4</ele>
        <time>2023-10-31T12:17:02Z</time>
      </trkpt>
      <trkpt lat="42.80691" lon="-0.03283">
        <ele>1983.4</ele>
        <time>2023-10-31T12:17:03Z</time>
      </trkpt>
      <trkpt lat="42.80691" lon="-0.03283">
        <ele>1983.4</ele>
        <time>2023-10-31T12:17:04Z</time>
      </trkpt>
      <trkpt lat="42.8069" lon="-0.03284">
        <ele>1983.4</ele>
        <time>2023-10-31T12:17:05Z</time>
      </trkpt>
      <trkpt lat="42.8069" lon="-0.03284">
        <ele>1983.4</ele>
        <time>2023-10-31T12:17:06Z</time>
      </trkpt>
      <trkpt lat="42.8069" lon="-0.03284">
        <ele>1983.4</ele>
        <time>2023-10-31T12:17:07Z</time>
      </trkpt>
      <trkpt lat="42.8069" lon="-0.03285">
        <ele>1983.4</ele>
        <time>2023-10-31T12:17:08Z</time>
      </trkpt>
      <trkpt lat="42.8069" lon="-0.03285">
        <ele>1983.4</ele>
        <time>2023-10-31T12:17:09Z</time>
      </trkpt>
      <trkpt lat="42.8069" lon="-0.03285">
        <ele>1983.5</ele>
        <time>2023-10-31T12:17:10Z</time>
      </trkpt>
      <trkpt lat="42.8069" lon="-0.03286">
        <ele>1983.5</ele>
        <time>2023-10-31T12:17:11Z</time>
      </trkpt>
      <trkpt lat="42.8069" lon="-0.03286">
        <ele>1983.5</ele>
        <time>2023-10-31T12:17:12Z</time>
      </trkpt>
      <trkpt lat="42.8069" lon="-0.03288">
        <ele>1983.6</ele>
        <time>2023-10-31T12:17:13Z</time>
      </trkpt>
      <trkpt lat="42.8069" lon="-0.03289">
        <ele>1983.6</ele>
        <time>2023-10-31T12:17:14Z</time>
      </trkpt>
      <trkpt lat="42.8069" lon="-0.03289">
        <ele>1983.7</ele>
        <time>2023-10-31T12:17:15Z</time>
      </trkpt>
      <trkpt lat="42.8069" lon="-0.0329">
        <ele>1983.8</ele>
        <time>2023-10-31T12:17:16Z</time>
      </trkpt>
      <trkpt lat="42.8069" lon="-0.03292">
        <ele>1983.9</ele>
        <time>2023-10-31T12:17:17Z</time>
      </trkpt>
      <trkpt lat="42.8069" lon="-0.03294">
        <ele>1984</ele>
        <time>2023-10-31T12:17:18Z</time>
      </trkpt>
      <trkpt lat="42.8069" lon="-0.03294">
        <ele>1984</ele>
        <time>2023-10-31T12:17:19Z</time>
      </trkpt>
      <trkpt lat="42.8069" lon="-0.03295">
        <ele>1984.1</ele>
        <time>2023-10-31T12:17:20Z</time>
      </trkpt>
      <trkpt lat="42.8069" lon="-0.03296">
        <ele>1984.2</ele>
        <time>2023-10-31T12:17:21Z</time>
      </trkpt>
      <trkpt lat="42.80691" lon="-0.03296">
        <ele>1984.2</ele>
        <time>2023-10-31T12:17:22Z</time>
      </trkpt>
      <trkpt lat="42.80691" lon="-0.03297">
        <ele>1984.3</ele>
        <time>2023-10-31T12:17:23Z</time>
      </trkpt>
      <trkpt lat="42.80691" lon="-0.03297">
        <ele>1984.3</ele>
        <time>2023-10-31T12:17:24Z</time>
      </trkpt>
      <trkpt lat="42.80691" lon="-0.03296">
        <ele>1984.3</ele>
        <time>2023-10-31T12:17:25Z</time>
      </trkpt>
      <trkpt lat="42.80691" lon="-0.03297">
        <ele>1984.4</ele>
        <time>2023-10-31T12:17:26Z</time>
      </trkpt>
      <trkpt lat="42.8069" lon="-0.03297">
        <ele>1984.4</ele>
        <time>2023-10-31T12:17:27Z</time>
      </trkpt>
      <trkpt lat="42.8069" lon="-0.03297">
        <ele>1984.5</ele>
        <time>2023-10-31T12:17:28Z</time>
      </trkpt>
      <trkpt lat="42.80691" lon="-0.03298">
        <ele>1984.6</ele>
        <time>2023-10-31T12:17:29Z</time>
      </trkpt>
      <trkpt lat="42.8069" lon="-0.03298">
        <ele>1984.6</ele>
        <time>2023-10-31T12:17:30Z</time>
      </trkpt>
      <trkpt lat="42.80691" lon="-0.03298">
        <ele>1984.7</ele>
        <time>2023-10-31T12:17:31Z</time>
      </trkpt>
      <trkpt lat="42.8069" lon="-0.03298">
        <ele>1984.7</ele>
        <time>2023-10-31T12:17:32Z</time>
      </trkpt>
      <trkpt lat="42.8069" lon="-0.03298">
        <ele>1984.7</ele>
        <time>2023-10-31T12:17:33Z</time>
      </trkpt>
      <trkpt lat="42.80691" lon="-0.03299">
        <ele>1984.8</ele>
        <time>2023-10-31T12:17:34Z</time>
      </trkpt>
      <trkpt lat="42.80691" lon="-0.03299">
        <ele>1984.8</ele>
        <time>2023-10-31T12:17:35Z</time>
      </trkpt>
      <trkpt lat="42.80691" lon="-0.03299">
        <ele>1984.9</ele>
        <time>2023-10-31T12:17:36Z</time>
      </trkpt>
      <trkpt lat="42.80691" lon="-0.03299">
        <ele>1984.9</ele>
        <time>2023-10-31T12:17:37Z</time>
      </trkpt>
      <trkpt lat="42.80691" lon="-0.03299">
        <ele>1984.9</ele>
        <time>2023-10-31T12:17:38Z</time>
      </trkpt>
      <trkpt lat="42.8069" lon="-0.033">
        <ele>1985</ele>
        <time>2023-10-31T12:17:39Z</time>
      </trkpt>
      <trkpt lat="42.80691" lon="-0.033">
        <ele>1985.1</ele>
        <time>2023-10-31T12:17:40Z</time>
      </trkpt>
      <trkpt lat="42.80691" lon="-0.03299">
        <ele>1985.1</ele>
        <time>2023-10-31T12:17:41Z</time>
      </trkpt>
      <trkpt lat="42.80691" lon="-0.033">
        <ele>1985.2</ele>
        <time>2023-10-31T12:17:42Z</time>
      </trkpt>
      <trkpt lat="42.80691" lon="-0.03299">
        <ele>1985.2</ele>
        <time>2023-10-31T12:17:43Z</time>
      </trkpt>
      <trkpt lat="42.8069" lon="-0.033">
        <ele>1985.3</ele>
        <time>2023-10-31T12:17:44Z</time>
      </trkpt>
      <trkpt lat="42.8069" lon="-0.033">
        <ele>1985.3</ele>
        <time>2023-10-31T12:17:45Z</time>
      </trkpt>
      <trkpt lat="42.80691" lon="-0.033">
        <ele>1985.3</ele>
        <time>2023-10-31T12:17:46Z</time>
      </trkpt>
      <trkpt lat="42.80691" lon="-0.033">
        <ele>1985.4</ele>
        <time>2023-10-31T12:17:47Z</time>
      </trkpt>
      <trkpt lat="42.8069" lon="-0.03301">
        <ele>1985.5</ele>
        <time>2023-10-31T12:17:48Z</time>
      </trkpt>
      <trkpt lat="42.8069" lon="-0.03301">
        <ele>1985.5</ele>
        <time>2023-10-31T12:17:49Z</time>
      </trkpt>
      <trkpt lat="42.8069" lon="-0.03301">
        <ele>1985.6</ele>
        <time>2023-10-31T12:17:50Z</time>
      </trkpt>
      <trkpt lat="42.8069" lon="-0.03301">
        <ele>1985.6</ele>
        <time>2023-10-31T12:17:51Z</time>
      </trkpt>
      <trkpt lat="42.8069" lon="-0.03301">
        <ele>1985.7</ele>
        <time>2023-10-31T12:17:52Z</time>
      </trkpt>
      <trkpt lat="42.8069" lon="-0.03303">
        <ele>1985.9</ele>
        <time>2023-10-31T12:17:53Z</time>
      </trkpt>
      <trkpt lat="42.80691" lon="-0.03304">
        <ele>1986.1</ele>
        <time>2023-10-31T12:17:54Z</time>
      </trkpt>
      <trkpt lat="42.80691" lon="-0.03305">
        <ele>1986.3</ele>
        <time>2023-10-31T12:17:55Z</time>
      </trkpt>
      <trkpt lat="42.80691" lon="-0.03307">
        <ele>1986.6</ele>
        <time>2023-10-31T12:17:56Z</time>
      </trkpt>
      <trkpt lat="42.80691" lon="-0.03308">
        <ele>1986.8</ele>
        <time>2023-10-31T12:17:57Z</time>
      </trkpt>
      <trkpt lat="42.80691" lon="-0.0331">
        <ele>1987.1</ele>
        <time>2023-10-31T12:17:58Z</time>
      </trkpt>
      <trkpt lat="42.80691" lon="-0.03312">
        <ele>1987.4</ele>
        <time>2023-10-31T12:17:59Z</time>
      </trkpt>
      <trkpt lat="42.80691" lon="-0.03312">
        <ele>1987.5</ele>
        <time>2023-10-31T12:18:00Z</time>
      </trkpt>
      <trkpt lat="42.80692" lon="-0.03313">
        <ele>1987.6</ele>
        <time>2023-10-31T12:18:01Z</time>
      </trkpt>
      <trkpt lat="42.80692" lon="-0.03313">
        <ele>1987.7</ele>
        <time>2023-10-31T12:18:02Z</time>
      </trkpt>
      <trkpt lat="42.80692" lon="-0.03314">
        <ele>1987.8</ele>
        <time>2023-10-31T12:18:03Z</time>
      </trkpt>
      <trkpt lat="42.80692" lon="-0.03315">
        <ele>1988</ele>
        <time>2023-10-31T12:18:04Z</time>
      </trkpt>
      <trkpt lat="42.80692" lon="-0.03315">
        <ele>1988</ele>
        <time>2023-10-31T12:18:05Z</time>
      </trkpt>
      <trkpt lat="42.80692" lon="-0.03316">
        <ele>1988.2</ele>
        <time>2023-10-31T12:18:06Z</time>
      </trkpt>
      <trkpt lat="42.80691" lon="-0.03316">
        <ele>1988.2</ele>
        <time>2023-10-31T12:18:07Z</time>
      </trkpt>
      <trkpt lat="42.80692" lon="-0.03316">
        <ele>1988.3</ele>
        <time>2023-10-31T12:18:08Z</time>
      </trkpt>
      <trkpt lat="42.80692" lon="-0.03316">
        <ele>1988.3</ele>
        <time>2023-10-31T12:18:09Z</time>
      </trkpt>
      <trkpt lat="42.80691" lon="-0.03317">
        <ele>1988.5</ele>
        <time>2023-10-31T12:18:10Z</time>
      </trkpt>
      <trkpt lat="42.80691" lon="-0.03317">
        <ele>1988.6</ele>
        <time>2023-10-31T12:18:11Z</time>
      </trkpt>
      <trkpt lat="42.80691" lon="-0.03318">
        <ele>1988.8</ele>
        <time>2023-10-31T12:18:12Z</time>
      </trkpt>
      <trkpt lat="42.8069" lon="-0.03319">
        <ele>1989</ele>
        <time>2023-10-31T12:18:13Z</time>
      </trkpt>
      <trkpt lat="42.80689" lon="-0.03319">
        <ele>1989.2</ele>
        <time>2023-10-31T12:18:14Z</time>
      </trkpt>
      <trkpt lat="42.80689" lon="-0.0332">
        <ele>1989.4</ele>
        <time>2023-10-31T12:18:15Z</time>
      </trkpt>
      <trkpt lat="42.80689" lon="-0.03322">
        <ele>1989.7</ele>
        <time>2023-10-31T12:18:16Z</time>
      </trkpt>
      <trkpt lat="42.8069" lon="-0.03323">
        <ele>1989.9</ele>
        <time>2023-10-31T12:18:17Z</time>
      </trkpt>
      <trkpt lat="42.8069" lon="-0.03323">
        <ele>1990.1</ele>
        <time>2023-10-31T12:18:18Z</time>
      </trkpt>
      <trkpt lat="42.8069" lon="-0.03323">
        <ele>1990.2</ele>
        <time>2023-10-31T12:18:19Z</time>
      </trkpt>
      <trkpt lat="42.80689" lon="-0.03325">
        <ele>1990.6</ele>
        <time>2023-10-31T12:18:20Z</time>
      </trkpt>
      <trkpt lat="42.80688" lon="-0.03326">
        <ele>1990.9</ele>
        <time>2023-10-31T12:18:21Z</time>
      </trkpt>
      <trkpt lat="42.80688" lon="-0.03328">
        <ele>1991.2</ele>
        <time>2023-10-31T12:18:22Z</time>
      </trkpt>
      <trkpt lat="42.80688" lon="-0.03329">
        <ele>1991.4</ele>
        <time>2023-10-31T12:18:23Z</time>
      </trkpt>
      <trkpt lat="42.80688" lon="-0.0333">
        <ele>1991.5</ele>
        <time>2023-10-31T12:18:24Z</time>
      </trkpt>
      <trkpt lat="42.80688" lon="-0.0333">
        <ele>1991.6</ele>
        <time>2023-10-31T12:18:25Z</time>
      </trkpt>
      <trkpt lat="42.80688" lon="-0.03331">
        <ele>1991.8</ele>
        <time>2023-10-31T12:18:26Z</time>
      </trkpt>
      <trkpt lat="42.80687" lon="-0.03333">
        <ele>1992</ele>
        <time>2023-10-31T12:18:27Z</time>
      </trkpt>
      <trkpt lat="42.80688" lon="-0.03334">
        <ele>1992.2</ele>
        <time>2023-10-31T12:18:28Z</time>
      </trkpt>
      <trkpt lat="42.80687" lon="-0.03335">
        <ele>1992.4</ele>
        <time>2023-10-31T12:18:29Z</time>
      </trkpt>
      <trkpt lat="42.80687" lon="-0.03336">
        <ele>1992.5</ele>
        <time>2023-10-31T12:18:30Z</time>
      </trkpt>
      <trkpt lat="42.80687" lon="-0.03338">
        <ele>1992.8</ele>
        <time>2023-10-31T12:18:31Z</time>
      </trkpt>
      <trkpt lat="42.80687" lon="-0.0334">
        <ele>1993.1</ele>
        <time>2023-10-31T12:18:32Z</time>
      </trkpt>
      <trkpt lat="42.80687" lon="-0.03341">
        <ele>1993.3</ele>
        <time>2023-10-31T12:18:33Z</time>
      </trkpt>
      <trkpt lat="42.80687" lon="-0.03342">
        <ele>1993.5</ele>
        <time>2023-10-31T12:18:34Z</time>
      </trkpt>
      <trkpt lat="42.80687" lon="-0.03344">
        <ele>1993.7</ele>
        <time>2023-10-31T12:18:35Z</time>
      </trkpt>
      <trkpt lat="42.80686" lon="-0.03346">
        <ele>1994</ele>
        <time>2023-10-31T12:18:36Z</time>
      </trkpt>
      <trkpt lat="42.80686" lon="-0.03347">
        <ele>1994.2</ele>
        <time>2023-10-31T12:18:37Z</time>
      </trkpt>
      <trkpt lat="42.80685" lon="-0.03348">
        <ele>1994.4</ele>
        <time>2023-10-31T12:18:38Z</time>
      </trkpt>
      <trkpt lat="42.80685" lon="-0.03349">
        <ele>1994.5</ele>
        <time>2023-10-31T12:18:39Z</time>
      </trkpt>
      <trkpt lat="42.80684" lon="-0.0335">
        <ele>1994.7</ele>
        <time>2023-10-31T12:18:40Z</time>
      </trkpt>
      <trkpt lat="42.80683" lon="-0.03351">
        <ele>1994.8</ele>
        <time>2023-10-31T12:18:41Z</time>
      </trkpt>
      <trkpt lat="42.80683" lon="-0.03351">
        <ele>1994.9</ele>
        <time>2023-10-31T12:18:42Z</time>
      </trkpt>
      <trkpt lat="42.80683" lon="-0.03352">
        <ele>1995.1</ele>
        <time>2023-10-31T12:18:43Z</time>
      </trkpt>
      <trkpt lat="42.80682" lon="-0.03353">
        <ele>1995.2</ele>
        <time>2023-10-31T12:18:44Z</time>
      </trkpt>
      <trkpt lat="42.80682" lon="-0.03354">
        <ele>1995.3</ele>
        <time>2023-10-31T12:18:45Z</time>
      </trkpt>
      <trkpt lat="42.80682" lon="-0.03355">
        <ele>1995.5</ele>
        <time>2023-10-31T12:18:46Z</time>
      </trkpt>
      <trkpt lat="42.80681" lon="-0.03357">
        <ele>1995.6</ele>
        <time>2023-10-31T12:18:47Z</time>
      </trkpt>
      <trkpt lat="42.80681" lon="-0.03357">
        <ele>1995.7</ele>
        <time>2023-10-31T12:18:48Z</time>
      </trkpt>
      <trkpt lat="42.80681" lon="-0.03359">
        <ele>1995.9</ele>
        <time>2023-10-31T12:18:49Z</time>
      </trkpt>
      <trkpt lat="42.80681" lon="-0.0336">
        <ele>1996</ele>
        <time>2023-10-31T12:18:50Z</time>
      </trkpt>
      <trkpt lat="42.80682" lon="-0.03361">
        <ele>1996.1</ele>
        <time>2023-10-31T12:18:51Z</time>
      </trkpt>
      <trkpt lat="42.80682" lon="-0.03361">
        <ele>1996.3</ele>
        <time>2023-10-31T12:18:52Z</time>
      </trkpt>
      <trkpt lat="42.80683" lon="-0.03362">
        <ele>1996.4</ele>
        <time>2023-10-31T12:18:53Z</time>
      </trkpt>
      <trkpt lat="42.80684" lon="-0.03362">
        <ele>1996.5</ele>
        <time>2023-10-31T12:18:54Z</time>
      </trkpt>
      <trkpt lat="42.80684" lon="-0.03363">
        <ele>1996.6</ele>
        <time>2023-10-31T12:18:55Z</time>
      </trkpt>
      <trkpt lat="42.80684" lon="-0.03364">
        <ele>1996.6</ele>
        <time>2023-10-31T12:18:56Z</time>
      </trkpt>
      <trkpt lat="42.80684" lon="-0.03364">
        <ele>1996.7</ele>
        <time>2023-10-31T12:18:57Z</time>
      </trkpt>
      <trkpt lat="42.80685" lon="-0.03365">
        <ele>1996.8</ele>
        <time>2023-10-31T12:18:58Z</time>
      </trkpt>
      <trkpt lat="42.80685" lon="-0.03364">
        <ele>1996.9</ele>
        <time>2023-10-31T12:18:59Z</time>
      </trkpt>
      <trkpt lat="42.80685" lon="-0.03364">
        <ele>1996.9</ele>
        <time>2023-10-31T12:19:00Z</time>
      </trkpt>
      <trkpt lat="42.80686" lon="-0.03365">
        <ele>1997</ele>
        <time>2023-10-31T12:19:01Z</time>
      </trkpt>
      <trkpt lat="42.80686" lon="-0.03365">
        <ele>1997</ele>
        <time>2023-10-31T12:19:02Z</time>
      </trkpt>
      <trkpt lat="42.80686" lon="-0.03365">
        <ele>1997.1</ele>
        <time>2023-10-31T12:19:03Z</time>
      </trkpt>
      <trkpt lat="42.80686" lon="-0.03367">
        <ele>1997.2</ele>
        <time>2023-10-31T12:19:04Z</time>
      </trkpt>
      <trkpt lat="42.80686" lon="-0.03368">
        <ele>1997.3</ele>
        <time>2023-10-31T12:19:05Z</time>
      </trkpt>
      <trkpt lat="42.80685" lon="-0.03368">
        <ele>1997.3</ele>
        <time>2023-10-31T12:19:06Z</time>
      </trkpt>
      <trkpt lat="42.80686" lon="-0.03368">
        <ele>1997.4</ele>
        <time>2023-10-31T12:19:07Z</time>
      </trkpt>
      <trkpt lat="42.80686" lon="-0.03369">
        <ele>1997.5</ele>
        <time>2023-10-31T12:19:08Z</time>
      </trkpt>
      <trkpt lat="42.80686" lon="-0.0337">
        <ele>1997.6</ele>
        <time>2023-10-31T12:19:09Z</time>
      </trkpt>
      <trkpt lat="42.80686" lon="-0.0337">
        <ele>1997.6</ele>
        <time>2023-10-31T12:19:10Z</time>
      </trkpt>
      <trkpt lat="42.80685" lon="-0.03371">
        <ele>1997.7</ele>
        <time>2023-10-31T12:19:11Z</time>
      </trkpt>
      <trkpt lat="42.80685" lon="-0.03372">
        <ele>1997.8</ele>
        <time>2023-10-31T12:19:12Z</time>
      </trkpt>
      <trkpt lat="42.80685" lon="-0.03372">
        <ele>1997.8</ele>
        <time>2023-10-31T12:19:13Z</time>
      </trkpt>
      <trkpt lat="42.80686" lon="-0.03373">
        <ele>1997.9</ele>
        <time>2023-10-31T12:19:14Z</time>
      </trkpt>
      <trkpt lat="42.80686" lon="-0.03373">
        <ele>1998</ele>
        <time>2023-10-31T12:19:15Z</time>
      </trkpt>
      <trkpt lat="42.80687" lon="-0.03374">
        <ele>1998.1</ele>
        <time>2023-10-31T12:19:16Z</time>
      </trkpt>
      <trkpt lat="42.80687" lon="-0.03374">
        <ele>1998.1</ele>
        <time>2023-10-31T12:19:17Z</time>
      </trkpt>
      <trkpt lat="42.80687" lon="-0.03375">
        <ele>1998.2</ele>
        <time>2023-10-31T12:19:18Z</time>
      </trkpt>
      <trkpt lat="42.80688" lon="-0.03375">
        <ele>1998.3</ele>
        <time>2023-10-31T12:19:19Z</time>
      </trkpt>
      <trkpt lat="42.80688" lon="-0.03376">
        <ele>1998.3</ele>
        <time>2023-10-31T12:19:20Z</time>
      </trkpt>
      <trkpt lat="42.80688" lon="-0.03376">
        <ele>1998.4</ele>
        <time>2023-10-31T12:19:21Z</time>
      </trkpt>
      <trkpt lat="42.80688" lon="-0.03376">
        <ele>1998.4</ele>
        <time>2023-10-31T12:19:22Z</time>
      </trkpt>
      <trkpt lat="42.80688" lon="-0.03377">
        <ele>1998.5</ele>
        <time>2023-10-31T12:19:23Z</time>
      </trkpt>
      <trkpt lat="42.80688" lon="-0.03378">
        <ele>1998.6</ele>
        <time>2023-10-31T12:19:24Z</time>
      </trkpt>
      <trkpt lat="42.80688" lon="-0.03379">
        <ele>1998.7</ele>
        <time>2023-10-31T12:19:25Z</time>
      </trkpt>
      <trkpt lat="42.80687" lon="-0.03379">
        <ele>1998.8</ele>
        <time>2023-10-31T12:19:26Z</time>
      </trkpt>
      <trkpt lat="42.80687" lon="-0.03379">
        <ele>1998.8</ele>
        <time>2023-10-31T12:19:27Z</time>
      </trkpt>
      <trkpt lat="42.80686" lon="-0.03381">
        <ele>1998.9</ele>
        <time>2023-10-31T12:19:28Z</time>
      </trkpt>
      <trkpt lat="42.80686" lon="-0.03382">
        <ele>1999.1</ele>
        <time>2023-10-31T12:19:29Z</time>
      </trkpt>
      <trkpt lat="42.80686" lon="-0.03383">
        <ele>1999.1</ele>
        <time>2023-10-31T12:19:30Z</time>
      </trkpt>
      <trkpt lat="42.80687" lon="-0.03383">
        <ele>1999.2</ele>
        <time>2023-10-31T12:19:31Z</time>
      </trkpt>
      <trkpt lat="42.80687" lon="-0.03384">
        <ele>1999.2</ele>
        <time>2023-10-31T12:19:32Z</time>
      </trkpt>
      <trkpt lat="42.80687" lon="-0.03384">
        <ele>1999.3</ele>
        <time>2023-10-31T12:19:33Z</time>
      </trkpt>
      <trkpt lat="42.80688" lon="-0.03383">
        <ele>1999.3</ele>
        <time>2023-10-31T12:19:34Z</time>
      </trkpt>
      <trkpt lat="42.80688" lon="-0.03383">
        <ele>1999.4</ele>
        <time>2023-10-31T12:19:35Z</time>
      </trkpt>
      <trkpt lat="42.80688" lon="-0.03383">
        <ele>1999.4</ele>
        <time>2023-10-31T12:19:36Z</time>
      </trkpt>
      <trkpt lat="42.80689" lon="-0.03383">
        <ele>1999.4</ele>
        <time>2023-10-31T12:19:37Z</time>
      </trkpt>
      <trkpt lat="42.80689" lon="-0.03383">
        <ele>1999.5</ele>
        <time>2023-10-31T12:19:38Z</time>
      </trkpt>
      <trkpt lat="42.80689" lon="-0.03383">
        <ele>1999.5</ele>
        <time>2023-10-31T12:19:39Z</time>
      </trkpt>
      <trkpt lat="42.80689" lon="-0.03383">
        <ele>1999.5</ele>
        <time>2023-10-31T12:19:40Z</time>
      </trkpt>
      <trkpt lat="42.80689" lon="-0.03384">
        <ele>1999.6</ele>
        <time>2023-10-31T12:19:41Z</time>
      </trkpt>
      <trkpt lat="42.80689" lon="-0.03384">
        <ele>1999.6</ele>
        <time>2023-10-31T12:19:42Z</time>
      </trkpt>
      <trkpt lat="42.80689" lon="-0.03385">
        <ele>1999.7</ele>
        <time>2023-10-31T12:19:43Z</time>
      </trkpt>
      <trkpt lat="42.80689" lon="-0.03385">
        <ele>1999.7</ele>
        <time>2023-10-31T12:19:44Z</time>
      </trkpt>
      <trkpt lat="42.8069" lon="-0.03385">
        <ele>1999.7</ele>
        <time>2023-10-31T12:19:45Z</time>
      </trkpt>
      <trkpt lat="42.8069" lon="-0.03385">
        <ele>1999.8</ele>
        <time>2023-10-31T12:19:46Z</time>
      </trkpt>
      <trkpt lat="42.8069" lon="-0.03386">
        <ele>1999.9</ele>
        <time>2023-10-31T12:19:47Z</time>
      </trkpt>
      <trkpt lat="42.8069" lon="-0.03387">
        <ele>1999.9</ele>
        <time>2023-10-31T12:19:48Z</time>
      </trkpt>
      <trkpt lat="42.80689" lon="-0.03387">
        <ele>2000</ele>
        <time>2023-10-31T12:19:49Z</time>
      </trkpt>
      <trkpt lat="42.80689" lon="-0.03388">
        <ele>2000.1</ele>
        <time>2023-10-31T12:19:50Z</time>
      </trkpt>
      <trkpt lat="42.80689" lon="-0.03389">
        <ele>2000.1</ele>
        <time>2023-10-31T12:19:51Z</time>
      </trkpt>
      <trkpt lat="42.80689" lon="-0.03389">
        <ele>2000.2</ele>
        <time>2023-10-31T12:19:52Z</time>
      </trkpt>
      <trkpt lat="42.80689" lon="-0.0339">
        <ele>2000.3</ele>
        <time>2023-10-31T12:19:53Z</time>
      </trkpt>
      <trkpt lat="42.8069" lon="-0.0339">
        <ele>2000.4</ele>
        <time>2023-10-31T12:19:54Z</time>
      </trkpt>
      <trkpt lat="42.8069" lon="-0.0339">
        <ele>2000.4</ele>
        <time>2023-10-31T12:19:55Z</time>
      </trkpt>
      <trkpt lat="42.8069" lon="-0.0339">
        <ele>2000.4</ele>
        <time>2023-10-31T12:19:56Z</time>
      </trkpt>
      <trkpt lat="42.8069" lon="-0.03391">
        <ele>2000.5</ele>
        <time>2023-10-31T12:19:57Z</time>
      </trkpt>
      <trkpt lat="42.8069" lon="-0.03392">
        <ele>2000.6</ele>
        <time>2023-10-31T12:19:58Z</time>
      </trkpt>
      <trkpt lat="42.8069" lon="-0.03394">
        <ele>2000.8</ele>
        <time>2023-10-31T12:19:59Z</time>
      </trkpt>
      <trkpt lat="42.8069" lon="-0.03394">
        <ele>2000.9</ele>
        <time>2023-10-31T12:20:00Z</time>
      </trkpt>
      <trkpt lat="42.80691" lon="-0.03394">
        <ele>2001</ele>
        <time>2023-10-31T12:20:01Z</time>
      </trkpt>
      <trkpt lat="42.80691" lon="-0.03395">
        <ele>2001.1</ele>
        <time>2023-10-31T12:20:02Z</time>
      </trkpt>
      <trkpt lat="42.80691" lon="-0.03395">
        <ele>2001.1</ele>
        <time>2023-10-31T12:20:03Z</time>
      </trkpt>
      <trkpt lat="42.80691" lon="-0.03396">
        <ele>2001.2</ele>
        <time>2023-10-31T12:20:04Z</time>
      </trkpt>
      <trkpt lat="42.80691" lon="-0.03396">
        <ele>2001.2</ele>
        <time>2023-10-31T12:20:05Z</time>
      </trkpt>
      <trkpt lat="42.80691" lon="-0.03397">
        <ele>2001.3</ele>
        <time>2023-10-31T12:20:06Z</time>
      </trkpt>
      <trkpt lat="42.80692" lon="-0.03398">
        <ele>2001.4</ele>
        <time>2023-10-31T12:20:07Z</time>
      </trkpt>
      <trkpt lat="42.80692" lon="-0.03398">
        <ele>2001.4</ele>
        <time>2023-10-31T12:20:08Z</time>
      </trkpt>
      <trkpt lat="42.80692" lon="-0.03399">
        <ele>2001.5</ele>
        <time>2023-10-31T12:20:09Z</time>
      </trkpt>
      <trkpt lat="42.80692" lon="-0.034">
        <ele>2001.6</ele>
        <time>2023-10-31T12:20:10Z</time>
      </trkpt>
      <trkpt lat="42.80692" lon="-0.034">
        <ele>2001.6</ele>
        <time>2023-10-31T12:20:11Z</time>
      </trkpt>
      <trkpt lat="42.80692" lon="-0.034">
        <ele>2001.7</ele>
        <time>2023-10-31T12:20:12Z</time>
      </trkpt>
      <trkpt lat="42.80693" lon="-0.034">
        <ele>2001.7</ele>
        <time>2023-10-31T12:20:13Z</time>
      </trkpt>
      <trkpt lat="42.80693" lon="-0.034">
        <ele>2001.8</ele>
        <time>2023-10-31T12:20:14Z</time>
      </trkpt>
      <trkpt lat="42.80693" lon="-0.03401">
        <ele>2001.9</ele>
        <time>2023-10-31T12:20:15Z</time>
      </trkpt>
      <trkpt lat="42.80693" lon="-0.03401">
        <ele>2001.9</ele>
        <time>2023-10-31T12:20:16Z</time>
      </trkpt>
      <trkpt lat="42.80693" lon="-0.03401">
        <ele>2001.9</ele>
        <time>2023-10-31T12:20:17Z</time>
      </trkpt>
      <trkpt lat="42.80693" lon="-0.03402">
        <ele>2002</ele>
        <time>2023-10-31T12:20:18Z</time>
      </trkpt>
      <trkpt lat="42.80693" lon="-0.03402">
        <ele>2002</ele>
        <time>2023-10-31T12:20:19Z</time>
      </trkpt>
      <trkpt lat="42.80693" lon="-0.03403">
        <ele>2002.2</ele>
        <time>2023-10-31T12:20:20Z</time>
      </trkpt>
      <trkpt lat="42.80693" lon="-0.03405">
        <ele>2002.3</ele>
        <time>2023-10-31T12:20:21Z</time>
      </trkpt>
      <trkpt lat="42.80693" lon="-0.03405">
        <ele>2002.3</ele>
        <time>2023-10-31T12:20:22Z</time>
      </trkpt>
      <trkpt lat="42.80693" lon="-0.03406">
        <ele>2002.4</ele>
        <time>2023-10-31T12:20:23Z</time>
      </trkpt>
      <trkpt lat="42.80693" lon="-0.03406">
        <ele>2002.5</ele>
        <time>2023-10-31T12:20:24Z</time>
      </trkpt>
      <trkpt lat="42.80693" lon="-0.03406">
        <ele>2002.5</ele>
        <time>2023-10-31T12:20:25Z</time>
      </trkpt>
      <trkpt lat="42.80692" lon="-0.03407">
        <ele>2002.5</ele>
        <time>2023-10-31T12:20:26Z</time>
      </trkpt>
      <trkpt lat="42.80692" lon="-0.03407">
        <ele>2002.6</ele>
        <time>2023-10-31T12:20:27Z</time>
      </trkpt>
      <trkpt lat="42.80692" lon="-0.03408">
        <ele>2002.7</ele>
        <time>2023-10-31T12:20:28Z</time>
      </trkpt>
      <trkpt lat="42.80692" lon="-0.03408">
        <ele>2002.8</ele>
        <time>2023-10-31T12:20:29Z</time>
      </trkpt>
      <trkpt lat="42.80693" lon="-0.03409">
        <ele>2002.9</ele>
        <time>2023-10-31T12:20:30Z</time>
      </trkpt>
      <trkpt lat="42.80694" lon="-0.03411">
        <ele>2003.1</ele>
        <time>2023-10-31T12:20:31Z</time>
      </trkpt>
      <trkpt lat="42.80694" lon="-0.0341">
        <ele>2003.1</ele>
        <time>2023-10-31T12:20:32Z</time>
      </trkpt>
      <trkpt lat="42.80694" lon="-0.03411">
        <ele>2003.2</ele>
        <time>2023-10-31T12:20:33Z</time>
      </trkpt>
      <trkpt lat="42.80694" lon="-0.03412">
        <ele>2003.3</ele>
        <time>2023-10-31T12:20:34Z</time>
      </trkpt>
      <trkpt lat="42.80694" lon="-0.03413">
        <ele>2003.4</ele>
        <time>2023-10-31T12:20:35Z</time>
      </trkpt>
      <trkpt lat="42.80694" lon="-0.03414">
        <ele>2003.5</ele>
        <time>2023-10-31T12:20:36Z</time>
      </trkpt>
      <trkpt lat="42.80694" lon="-0.03416">
        <ele>2003.7</ele>
        <time>2023-10-31T12:20:37Z</time>
      </trkpt>
      <trkpt lat="42.80694" lon="-0.03417">
        <ele>2003.8</ele>
        <time>2023-10-31T12:20:38Z</time>
      </trkpt>
      <trkpt lat="42.80693" lon="-0.03418">
        <ele>2003.8</ele>
        <time>2023-10-31T12:20:39Z</time>
      </trkpt>
      <trkpt lat="42.80693" lon="-0.03418">
        <ele>2003.9</ele>
        <time>2023-10-31T12:20:40Z</time>
      </trkpt>
      <trkpt lat="42.80693" lon="-0.03419">
        <ele>2004</ele>
        <time>2023-10-31T12:20:41Z</time>
      </trkpt>
      <trkpt lat="42.80693" lon="-0.0342">
        <ele>2004.1</ele>
        <time>2023-10-31T12:20:42Z</time>
      </trkpt>
      <trkpt lat="42.80693" lon="-0.03421">
        <ele>2004.1</ele>
        <time>2023-10-31T12:20:43Z</time>
      </trkpt>
      <trkpt lat="42.80693" lon="-0.0342">
        <ele>2004.2</ele>
        <time>2023-10-31T12:20:44Z</time>
      </trkpt>
      <trkpt lat="42.80692" lon="-0.03421">
        <ele>2004.2</ele>
        <time>2023-10-31T12:20:45Z</time>
      </trkpt>
      <trkpt lat="42.80692" lon="-0.0342">
        <ele>2004.3</ele>
        <time>2023-10-31T12:20:46Z</time>
      </trkpt>
      <trkpt lat="42.80691" lon="-0.0342">
        <ele>2004.3</ele>
        <time>2023-10-31T12:20:47Z</time>
      </trkpt>
      <trkpt lat="42.80691" lon="-0.0342">
        <ele>2004.4</ele>
        <time>2023-10-31T12:20:48Z</time>
      </trkpt>
      <trkpt lat="42.80689" lon="-0.03421">
        <ele>2004.6</ele>
        <time>2023-10-31T12:20:49Z</time>
      </trkpt>
      <trkpt lat="42.8069" lon="-0.03422">
        <ele>2004.7</ele>
        <time>2023-10-31T12:20:50Z</time>
      </trkpt>
      <trkpt lat="42.8069" lon="-0.03422">
        <ele>2004.7</ele>
        <time>2023-10-31T12:20:51Z</time>
      </trkpt>
      <trkpt lat="42.8069" lon="-0.03423">
        <ele>2004.9</ele>
        <time>2023-10-31T12:20:52Z</time>
      </trkpt>
      <trkpt lat="42.80691" lon="-0.03424">
        <ele>2004.9</ele>
        <time>2023-10-31T12:20:53Z</time>
      </trkpt>
      <trkpt lat="42.80691" lon="-0.03424">
        <ele>2005</ele>
        <time>2023-10-31T12:20:54Z</time>
      </trkpt>
      <trkpt lat="42.80691" lon="-0.03424">
        <ele>2005</ele>
        <time>2023-10-31T12:20:55Z</time>
      </trkpt>
      <trkpt lat="42.80691" lon="-0.03425">
        <ele>2005.1</ele>
        <time>2023-10-31T12:20:56Z</time>
      </trkpt>
      <trkpt lat="42.80691" lon="-0.03426">
        <ele>2005.2</ele>
        <time>2023-10-31T12:20:57Z</time>
      </trkpt>
      <trkpt lat="42.80691" lon="-0.03427">
        <ele>2005.3</ele>
        <time>2023-10-31T12:20:58Z</time>
      </trkpt>
      <trkpt lat="42.80692" lon="-0.03427">
        <ele>2005.4</ele>
        <time>2023-10-31T12:20:59Z</time>
      </trkpt>
      <trkpt lat="42.80693" lon="-0.03428">
        <ele>2005.7</ele>
        <time>2023-10-31T12:21:00Z</time>
      </trkpt>
      <trkpt lat="42.80693" lon="-0.03429">
        <ele>2005.8</ele>
        <time>2023-10-31T12:21:01Z</time>
      </trkpt>
      <trkpt lat="42.80694" lon="-0.03431">
        <ele>2005.9</ele>
        <time>2023-10-31T12:21:02Z</time>
      </trkpt>
      <trkpt lat="42.80694" lon="-0.03432">
        <ele>2006</ele>
        <time>2023-10-31T12:21:03Z</time>
      </trkpt>
      <trkpt lat="42.80694" lon="-0.03433">
        <ele>2006.1</ele>
        <time>2023-10-31T12:21:04Z</time>
      </trkpt>
      <trkpt lat="42.80694" lon="-0.03434">
        <ele>2006.3</ele>
        <time>2023-10-31T12:21:05Z</time>
      </trkpt>
      <trkpt lat="42.80695" lon="-0.03435">
        <ele>2006.3</ele>
        <time>2023-10-31T12:21:06Z</time>
      </trkpt>
      <trkpt lat="42.80695" lon="-0.03435">
        <ele>2006.4</ele>
        <time>2023-10-31T12:21:07Z</time>
      </trkpt>
      <trkpt lat="42.80696" lon="-0.03435">
        <ele>2006.5</ele>
        <time>2023-10-31T12:21:08Z</time>
      </trkpt>
      <trkpt lat="42.80696" lon="-0.03436">
        <ele>2006.5</ele>
        <time>2023-10-31T12:21:09Z</time>
      </trkpt>
      <trkpt lat="42.80696" lon="-0.03436">
        <ele>2006.6</ele>
        <time>2023-10-31T12:21:10Z</time>
      </trkpt>
      <trkpt lat="42.80696" lon="-0.03438">
        <ele>2006.7</ele>
        <time>2023-10-31T12:21:11Z</time>
      </trkpt>
      <trkpt lat="42.80697" lon="-0.03438">
        <ele>2006.8</ele>
        <time>2023-10-31T12:21:12Z</time>
      </trkpt>
      <trkpt lat="42.80696" lon="-0.03438">
        <ele>2006.9</ele>
        <time>2023-10-31T12:21:13Z</time>
      </trkpt>
      <trkpt lat="42.80697" lon="-0.03438">
        <ele>2007</ele>
        <time>2023-10-31T12:21:14Z</time>
      </trkpt>
      <trkpt lat="42.80697" lon="-0.03438">
        <ele>2007</ele>
        <time>2023-10-31T12:21:15Z</time>
      </trkpt>
      <trkpt lat="42.80697" lon="-0.03439">
        <ele>2007.1</ele>
        <time>2023-10-31T12:21:16Z</time>
      </trkpt>
      <trkpt lat="42.80697" lon="-0.03439">
        <ele>2007.1</ele>
        <time>2023-10-31T12:21:17Z</time>
      </trkpt>
      <trkpt lat="42.80698" lon="-0.0344">
        <ele>2007.3</ele>
        <time>2023-10-31T12:21:18Z</time>
      </trkpt>
      <trkpt lat="42.80697" lon="-0.03439">
        <ele>2007.4</ele>
        <time>2023-10-31T12:21:19Z</time>
      </trkpt>
      <trkpt lat="42.80698" lon="-0.03439">
        <ele>2007.4</ele>
        <time>2023-10-31T12:21:20Z</time>
      </trkpt>
      <trkpt lat="42.80698" lon="-0.03439">
        <ele>2007.4</ele>
        <time>2023-10-31T12:21:21Z</time>
      </trkpt>
      <trkpt lat="42.80699" lon="-0.0344">
        <ele>2007.5</ele>
        <time>2023-10-31T12:21:22Z</time>
      </trkpt>
      <trkpt lat="42.80699" lon="-0.0344">
        <ele>2007.6</ele>
        <time>2023-10-31T12:21:23Z</time>
      </trkpt>
      <trkpt lat="42.80699" lon="-0.0344">
        <ele>2007.6</ele>
        <time>2023-10-31T12:21:24Z</time>
      </trkpt>
      <trkpt lat="42.80699" lon="-0.0344">
        <ele>2007.6</ele>
        <time>2023-10-31T12:21:25Z</time>
      </trkpt>
      <trkpt lat="42.80699" lon="-0.03441">
        <ele>2007.7</ele>
        <time>2023-10-31T12:21:26Z</time>
      </trkpt>
      <trkpt lat="42.807" lon="-0.03442">
        <ele>2007.8</ele>
        <time>2023-10-31T12:21:27Z</time>
      </trkpt>
      <trkpt lat="42.807" lon="-0.03443">
        <ele>2007.9</ele>
        <time>2023-10-31T12:21:28Z</time>
      </trkpt>
      <trkpt lat="42.807" lon="-0.03443">
        <ele>2007.9</ele>
        <time>2023-10-31T12:21:29Z</time>
      </trkpt>
      <trkpt lat="42.807" lon="-0.03443">
        <ele>2008</ele>
        <time>2023-10-31T12:21:30Z</time>
      </trkpt>
      <trkpt lat="42.80699" lon="-0.03443">
        <ele>2008.1</ele>
        <time>2023-10-31T12:21:31Z</time>
      </trkpt>
      <trkpt lat="42.80699" lon="-0.03444">
        <ele>2008.2</ele>
        <time>2023-10-31T12:21:32Z</time>
      </trkpt>
      <trkpt lat="42.807" lon="-0.03444">
        <ele>2008.2</ele>
        <time>2023-10-31T12:21:33Z</time>
      </trkpt>
      <trkpt lat="42.807" lon="-0.03444">
        <ele>2008.3</ele>
        <time>2023-10-31T12:21:34Z</time>
      </trkpt>
      <trkpt lat="42.807" lon="-0.03445">
        <ele>2008.4</ele>
        <time>2023-10-31T12:21:35Z</time>
      </trkpt>
      <trkpt lat="42.80701" lon="-0.03446">
        <ele>2008.4</ele>
        <time>2023-10-31T12:21:36Z</time>
      </trkpt>
      <trkpt lat="42.80701" lon="-0.03447">
        <ele>2008.6</ele>
        <time>2023-10-31T12:21:37Z</time>
      </trkpt>
      <trkpt lat="42.80702" lon="-0.03448">
        <ele>2008.7</ele>
        <time>2023-10-31T12:21:38Z</time>
      </trkpt>
      <trkpt lat="42.80702" lon="-0.03449">
        <ele>2008.7</ele>
        <time>2023-10-31T12:21:39Z</time>
      </trkpt>
      <trkpt lat="42.80702" lon="-0.03449">
        <ele>2008.8</ele>
        <time>2023-10-31T12:21:40Z</time>
      </trkpt>
      <trkpt lat="42.80702" lon="-0.0345">
        <ele>2008.9</ele>
        <time>2023-10-31T12:21:41Z</time>
      </trkpt>
      <trkpt lat="42.80702" lon="-0.03451">
        <ele>2008.9</ele>
        <time>2023-10-31T12:21:42Z</time>
      </trkpt>
      <trkpt lat="42.80703" lon="-0.03452">
        <ele>2009</ele>
        <time>2023-10-31T12:21:43Z</time>
      </trkpt>
      <trkpt lat="42.80703" lon="-0.03452">
        <ele>2009.1</ele>
        <time>2023-10-31T12:21:44Z</time>
      </trkpt>
      <trkpt lat="42.80702" lon="-0.03453">
        <ele>2009.1</ele>
        <time>2023-10-31T12:21:45Z</time>
      </trkpt>
      <trkpt lat="42.80702" lon="-0.03454">
        <ele>2009.2</ele>
        <time>2023-10-31T12:21:46Z</time>
      </trkpt>
      <trkpt lat="42.80702" lon="-0.03454">
        <ele>2009.3</ele>
        <time>2023-10-31T12:21:47Z</time>
      </trkpt>
      <trkpt lat="42.80703" lon="-0.03455">
        <ele>2009.3</ele>
        <time>2023-10-31T12:21:48Z</time>
      </trkpt>
      <trkpt lat="42.80703" lon="-0.03455">
        <ele>2009.4</ele>
        <time>2023-10-31T12:21:49Z</time>
      </trkpt>
      <trkpt lat="42.80703" lon="-0.03455">
        <ele>2009.4</ele>
        <time>2023-10-31T12:21:50Z</time>
      </trkpt>
      <trkpt lat="42.80703" lon="-0.03455">
        <ele>2009.4</ele>
        <time>2023-10-31T12:21:51Z</time>
      </trkpt>
      <trkpt lat="42.80702" lon="-0.03455">
        <ele>2009.4</ele>
        <time>2023-10-31T12:21:52Z</time>
      </trkpt>
      <trkpt lat="42.80703" lon="-0.03456">
        <ele>2009.5</ele>
        <time>2023-10-31T12:21:53Z</time>
      </trkpt>
      <trkpt lat="42.80703" lon="-0.03456">
        <ele>2009.5</ele>
        <time>2023-10-31T12:21:54Z</time>
      </trkpt>
      <trkpt lat="42.80702" lon="-0.03456">
        <ele>2009.5</ele>
        <time>2023-10-31T12:21:55Z</time>
      </trkpt>
      <trkpt lat="42.80703" lon="-0.03456">
        <ele>2009.5</ele>
        <time>2023-10-31T12:21:56Z</time>
      </trkpt>
      <trkpt lat="42.80703" lon="-0.03456">
        <ele>2009.5</ele>
        <time>2023-10-31T12:21:57Z</time>
      </trkpt>
      <trkpt lat="42.80703" lon="-0.03457">
        <ele>2009.6</ele>
        <time>2023-10-31T12:21:58Z</time>
      </trkpt>
      <trkpt lat="42.80703" lon="-0.03457">
        <ele>2009.6</ele>
        <time>2023-10-31T12:21:59Z</time>
      </trkpt>
      <trkpt lat="42.80703" lon="-0.03457">
        <ele>2009.7</ele>
        <time>2023-10-31T12:22:00Z</time>
      </trkpt>
      <trkpt lat="42.80704" lon="-0.03457">
        <ele>2009.7</ele>
        <time>2023-10-31T12:22:01Z</time>
      </trkpt>
      <trkpt lat="42.80704" lon="-0.03459">
        <ele>2009.8</ele>
        <time>2023-10-31T12:22:02Z</time>
      </trkpt>
      <trkpt lat="42.80704" lon="-0.03459">
        <ele>2009.9</ele>
        <time>2023-10-31T12:22:03Z</time>
      </trkpt>
      <trkpt lat="42.80703" lon="-0.03459">
        <ele>2009.9</ele>
        <time>2023-10-31T12:22:04Z</time>
      </trkpt>
      <trkpt lat="42.80703" lon="-0.0346">
        <ele>2010</ele>
        <time>2023-10-31T12:22:05Z</time>
      </trkpt>
      <trkpt lat="42.80703" lon="-0.0346">
        <ele>2010</ele>
        <time>2023-10-31T12:22:06Z</time>
      </trkpt>
      <trkpt lat="42.80703" lon="-0.03461">
        <ele>2010.1</ele>
        <time>2023-10-31T12:22:07Z</time>
      </trkpt>
      <trkpt lat="42.80702" lon="-0.03461">
        <ele>2010.2</ele>
        <time>2023-10-31T12:22:08Z</time>
      </trkpt>
      <trkpt lat="42.80702" lon="-0.03462">
        <ele>2010.2</ele>
        <time>2023-10-31T12:22:09Z</time>
      </trkpt>
      <trkpt lat="42.80702" lon="-0.03462">
        <ele>2010.3</ele>
        <time>2023-10-31T12:22:10Z</time>
      </trkpt>
      <trkpt lat="42.80702" lon="-0.03463">
        <ele>2010.3</ele>
        <time>2023-10-31T12:22:11Z</time>
      </trkpt>
      <trkpt lat="42.80702" lon="-0.03464">
        <ele>2010.4</ele>
        <time>2023-10-31T12:22:12Z</time>
      </trkpt>
      <trkpt lat="42.80702" lon="-0.03465">
        <ele>2010.5</ele>
        <time>2023-10-31T12:22:13Z</time>
      </trkpt>
      <trkpt lat="42.80702" lon="-0.03465">
        <ele>2010.6</ele>
        <time>2023-10-31T12:22:14Z</time>
      </trkpt>
      <trkpt lat="42.80702" lon="-0.03466">
        <ele>2010.7</ele>
        <time>2023-10-31T12:22:15Z</time>
      </trkpt>
      <trkpt lat="42.80702" lon="-0.03468">
        <ele>2010.8</ele>
        <time>2023-10-31T12:22:16Z</time>
      </trkpt>
      <trkpt lat="42.80702" lon="-0.03469">
        <ele>2010.9</ele>
        <time>2023-10-31T12:22:17Z</time>
      </trkpt>
      <trkpt lat="42.80702" lon="-0.0347">
        <ele>2011.1</ele>
        <time>2023-10-31T12:22:18Z</time>
      </trkpt>
      <trkpt lat="42.80702" lon="-0.03471">
        <ele>2011.1</ele>
        <time>2023-10-31T12:22:19Z</time>
      </trkpt>
      <trkpt lat="42.80702" lon="-0.03472">
        <ele>2011.2</ele>
        <time>2023-10-31T12:22:20Z</time>
      </trkpt>
      <trkpt lat="42.80702" lon="-0.03473">
        <ele>2011.3</ele>
        <time>2023-10-31T12:22:21Z</time>
      </trkpt>
      <trkpt lat="42.80703" lon="-0.03474">
        <ele>2011.4</ele>
        <time>2023-10-31T12:22:22Z</time>
      </trkpt>
      <trkpt lat="42.80703" lon="-0.03475">
        <ele>2011.5</ele>
        <time>2023-10-31T12:22:23Z</time>
      </trkpt>
      <trkpt lat="42.80703" lon="-0.03476">
        <ele>2011.6</ele>
        <time>2023-10-31T12:22:24Z</time>
      </trkpt>
      <trkpt lat="42.80703" lon="-0.03476">
        <ele>2011.6</ele>
        <time>2023-10-31T12:22:25Z</time>
      </trkpt>
      <trkpt lat="42.80703" lon="-0.03476">
        <ele>2011.7</ele>
        <time>2023-10-31T12:22:26Z</time>
      </trkpt>
      <trkpt lat="42.80703" lon="-0.03477">
        <ele>2011.7</ele>
        <time>2023-10-31T12:22:27Z</time>
      </trkpt>
      <trkpt lat="42.80703" lon="-0.03477">
        <ele>2011.7</ele>
        <time>2023-10-31T12:22:28Z</time>
      </trkpt>
      <trkpt lat="42.80703" lon="-0.03478">
        <ele>2011.8</ele>
        <time>2023-10-31T12:22:29Z</time>
      </trkpt>
      <trkpt lat="42.80704" lon="-0.03478">
        <ele>2011.8</ele>
        <time>2023-10-31T12:22:30Z</time>
      </trkpt>
      <trkpt lat="42.80704" lon="-0.03478">
        <ele>2011.9</ele>
        <time>2023-10-31T12:22:31Z</time>
      </trkpt>
      <trkpt lat="42.80704" lon="-0.03479">
        <ele>2011.9</ele>
        <time>2023-10-31T12:22:32Z</time>
      </trkpt>
      <trkpt lat="42.80704" lon="-0.03479">
        <ele>2011.9</ele>
        <time>2023-10-31T12:22:33Z</time>
      </trkpt>
      <trkpt lat="42.80704" lon="-0.0348">
        <ele>2012</ele>
        <time>2023-10-31T12:22:34Z</time>
      </trkpt>
      <trkpt lat="42.80704" lon="-0.03481">
        <ele>2012.1</ele>
        <time>2023-10-31T12:22:35Z</time>
      </trkpt>
      <trkpt lat="42.80704" lon="-0.03481">
        <ele>2012.1</ele>
        <time>2023-10-31T12:22:36Z</time>
      </trkpt>
      <trkpt lat="42.80703" lon="-0.03481">
        <ele>2012.2</ele>
        <time>2023-10-31T12:22:37Z</time>
      </trkpt>
      <trkpt lat="42.80703" lon="-0.03482">
        <ele>2012.2</ele>
        <time>2023-10-31T12:22:38Z</time>
      </trkpt>
      <trkpt lat="42.80703" lon="-0.03482">
        <ele>2012.3</ele>
        <time>2023-10-31T12:22:39Z</time>
      </trkpt>
      <trkpt lat="42.80703" lon="-0.03482">
        <ele>2012.3</ele>
        <time>2023-10-31T12:22:40Z</time>
      </trkpt>
      <trkpt lat="42.80703" lon="-0.03483">
        <ele>2012.4</ele>
        <time>2023-10-31T12:22:41Z</time>
      </trkpt>
      <trkpt lat="42.80703" lon="-0.03484">
        <ele>2012.5</ele>
        <time>2023-10-31T12:22:42Z</time>
      </trkpt>
      <trkpt lat="42.80703" lon="-0.03485">
        <ele>2012.6</ele>
        <time>2023-10-31T12:22:43Z</time>
      </trkpt>
      <trkpt lat="42.80703" lon="-0.03487">
        <ele>2012.7</ele>
        <time>2023-10-31T12:22:44Z</time>
      </trkpt>
      <trkpt lat="42.80703" lon="-0.03487">
        <ele>2012.8</ele>
        <time>2023-10-31T12:22:45Z</time>
      </trkpt>
      <trkpt lat="42.80702" lon="-0.03487">
        <ele>2012.9</ele>
        <time>2023-10-31T12:22:46Z</time>
      </trkpt>
      <trkpt lat="42.80701" lon="-0.03488">
        <ele>2013</ele>
        <time>2023-10-31T12:22:47Z</time>
      </trkpt>
      <trkpt lat="42.807" lon="-0.03489">
        <ele>2013.1</ele>
        <time>2023-10-31T12:22:48Z</time>
      </trkpt>
      <trkpt lat="42.807" lon="-0.03489">
        <ele>2013.2</ele>
        <time>2023-10-31T12:22:49Z</time>
      </trkpt>
      <trkpt lat="42.807" lon="-0.03491">
        <ele>2013.3</ele>
        <time>2023-10-31T12:22:50Z</time>
      </trkpt>
      <trkpt lat="42.80701" lon="-0.03492">
        <ele>2013.3</ele>
        <time>2023-10-31T12:22:51Z</time>
      </trkpt>
      <trkpt lat="42.80702" lon="-0.03493">
        <ele>2013.4</ele>
        <time>2023-10-31T12:22:52Z</time>
      </trkpt>
      <trkpt lat="42.80703" lon="-0.03494">
        <ele>2013.5</ele>
        <time>2023-10-31T12:22:53Z</time>
      </trkpt>
      <trkpt lat="42.80703" lon="-0.03495">
        <ele>2013.6</ele>
        <time>2023-10-31T12:22:54Z</time>
      </trkpt>
      <trkpt lat="42.80704" lon="-0.03496">
        <ele>2013.6</ele>
        <time>2023-10-31T12:22:55Z</time>
      </trkpt>
      <trkpt lat="42.80704" lon="-0.03497">
        <ele>2013.6</ele>
        <time>2023-10-31T12:22:56Z</time>
      </trkpt>
      <trkpt lat="42.80703" lon="-0.03497">
        <ele>2013.7</ele>
        <time>2023-10-31T12:22:57Z</time>
      </trkpt>
      <trkpt lat="42.80703" lon="-0.03498">
        <ele>2013.7</ele>
        <time>2023-10-31T12:22:58Z</time>
      </trkpt>
      <trkpt lat="42.80702" lon="-0.03499">
        <ele>2013.7</ele>
        <time>2023-10-31T12:22:59Z</time>
      </trkpt>
      <trkpt lat="42.80702" lon="-0.03499">
        <ele>2013.7</ele>
        <time>2023-10-31T12:23:00Z</time>
      </trkpt>
      <trkpt lat="42.80702" lon="-0.035">
        <ele>2013.7</ele>
        <time>2023-10-31T12:23:01Z</time>
      </trkpt>
      <trkpt lat="42.80702" lon="-0.035">
        <ele>2013.7</ele>
        <time>2023-10-31T12:23:02Z</time>
      </trkpt>
      <trkpt lat="42.80702" lon="-0.03501">
        <ele>2013.8</ele>
        <time>2023-10-31T12:23:03Z</time>
      </trkpt>
      <trkpt lat="42.80703" lon="-0.03502">
        <ele>2013.8</ele>
        <time>2023-10-31T12:23:04Z</time>
      </trkpt>
      <trkpt lat="42.80703" lon="-0.03503">
        <ele>2013.8</ele>
        <time>2023-10-31T12:23:05Z</time>
      </trkpt>
      <trkpt lat="42.80704" lon="-0.03505">
        <ele>2013.8</ele>
        <time>2023-10-31T12:23:06Z</time>
      </trkpt>
      <trkpt lat="42.80704" lon="-0.03506">
        <ele>2013.8</ele>
        <time>2023-10-31T12:23:07Z</time>
      </trkpt>
      <trkpt lat="42.80705" lon="-0.03507">
        <ele>2013.8</ele>
        <time>2023-10-31T12:23:08Z</time>
      </trkpt>
      <trkpt lat="42.80705" lon="-0.03509">
        <ele>2013.8</ele>
        <time>2023-10-31T12:23:09Z</time>
      </trkpt>
      <trkpt lat="42.80706" lon="-0.0351">
        <ele>2013.8</ele>
        <time>2023-10-31T12:23:10Z</time>
      </trkpt>
      <trkpt lat="42.80707" lon="-0.0351">
        <ele>2013.7</ele>
        <time>2023-10-31T12:23:11Z</time>
      </trkpt>
      <trkpt lat="42.80708" lon="-0.0351">
        <ele>2013.7</ele>
        <time>2023-10-31T12:23:12Z</time>
      </trkpt>
      <trkpt lat="42.80709" lon="-0.0351">
        <ele>2013.7</ele>
        <time>2023-10-31T12:23:13Z</time>
      </trkpt>
      <trkpt lat="42.8071" lon="-0.0351">
        <ele>2013.7</ele>
        <time>2023-10-31T12:23:14Z</time>
      </trkpt>
      <trkpt lat="42.80711" lon="-0.03511">
        <ele>2013.6</ele>
        <time>2023-10-31T12:23:15Z</time>
      </trkpt>
      <trkpt lat="42.80712" lon="-0.03512">
        <ele>2013.6</ele>
        <time>2023-10-31T12:23:16Z</time>
      </trkpt>
      <trkpt lat="42.80712" lon="-0.03513">
        <ele>2013.6</ele>
        <time>2023-10-31T12:23:17Z</time>
      </trkpt>
      <trkpt lat="42.80713" lon="-0.03514">
        <ele>2013.5</ele>
        <time>2023-10-31T12:23:18Z</time>
      </trkpt>
      <trkpt lat="42.80713" lon="-0.03514">
        <ele>2013.5</ele>
        <time>2023-10-31T12:23:19Z</time>
      </trkpt>
      <trkpt lat="42.80713" lon="-0.03514">
        <ele>2013.5</ele>
        <time>2023-10-31T12:23:20Z</time>
      </trkpt>
      <trkpt lat="42.80713" lon="-0.03515">
        <ele>2013.5</ele>
        <time>2023-10-31T12:23:21Z</time>
      </trkpt>
      <trkpt lat="42.80714" lon="-0.03515">
        <ele>2013.5</ele>
        <time>2023-10-31T12:23:22Z</time>
      </trkpt>
      <trkpt lat="42.80715" lon="-0.03516">
        <ele>2013.4</ele>
        <time>2023-10-31T12:23:23Z</time>
      </trkpt>
      <trkpt lat="42.80716" lon="-0.03516">
        <ele>2013.4</ele>
        <time>2023-10-31T12:23:24Z</time>
      </trkpt>
      <trkpt lat="42.80717" lon="-0.03516">
        <ele>2013.4</ele>
        <time>2023-10-31T12:23:25Z</time>
      </trkpt>
      <trkpt lat="42.80718" lon="-0.03517">
        <ele>2013.3</ele>
        <time>2023-10-31T12:23:26Z</time>
      </trkpt>
      <trkpt lat="42.80718" lon="-0.03518">
        <ele>2013.3</ele>
        <time>2023-10-31T12:23:27Z</time>
      </trkpt>
      <trkpt lat="42.80718" lon="-0.03519">
        <ele>2013.3</ele>
        <time>2023-10-31T12:23:28Z</time>
      </trkpt>
      <trkpt lat="42.80718" lon="-0.0352">
        <ele>2013.3</ele>
        <time>2023-10-31T12:23:29Z</time>
      </trkpt>
      <trkpt lat="42.80718" lon="-0.03521">
        <ele>2013.2</ele>
        <time>2023-10-31T12:23:30Z</time>
      </trkpt>
      <trkpt lat="42.80719" lon="-0.03522">
        <ele>2013.2</ele>
        <time>2023-10-31T12:23:31Z</time>
      </trkpt>
      <trkpt lat="42.80719" lon="-0.03522">
        <ele>2013.2</ele>
        <time>2023-10-31T12:23:32Z</time>
      </trkpt>
      <trkpt lat="42.80719" lon="-0.03523">
        <ele>2013.2</ele>
        <time>2023-10-31T12:23:33Z</time>
      </trkpt>
      <trkpt lat="42.8072" lon="-0.03524">
        <ele>2013.2</ele>
        <time>2023-10-31T12:23:34Z</time>
      </trkpt>
      <trkpt lat="42.8072" lon="-0.03524">
        <ele>2013.2</ele>
        <time>2023-10-31T12:23:35Z</time>
      </trkpt>
      <trkpt lat="42.80721" lon="-0.03525">
        <ele>2013.1</ele>
        <time>2023-10-31T12:23:36Z</time>
      </trkpt>
      <trkpt lat="42.80721" lon="-0.03526">
        <ele>2013.1</ele>
        <time>2023-10-31T12:23:37Z</time>
      </trkpt>
      <trkpt lat="42.80722" lon="-0.03526">
        <ele>2013.1</ele>
        <time>2023-10-31T12:23:38Z</time>
      </trkpt>
      <trkpt lat="42.80722" lon="-0.03527">
        <ele>2013.1</ele>
        <time>2023-10-31T12:23:39Z</time>
      </trkpt>
      <trkpt lat="42.80721" lon="-0.03528">
        <ele>2013.1</ele>
        <time>2023-10-31T12:23:40Z</time>
      </trkpt>
      <trkpt lat="42.80721" lon="-0.03529">
        <ele>2013</ele>
        <time>2023-10-31T12:23:41Z</time>
      </trkpt>
      <trkpt lat="42.80721" lon="-0.0353">
        <ele>2013</ele>
        <time>2023-10-31T12:23:42Z</time>
      </trkpt>
      <trkpt lat="42.80721" lon="-0.03531">
        <ele>2013</ele>
        <time>2023-10-31T12:23:43Z</time>
      </trkpt>
      <trkpt lat="42.80721" lon="-0.03532">
        <ele>2013</ele>
        <time>2023-10-31T12:23:44Z</time>
      </trkpt>
      <trkpt lat="42.80721" lon="-0.03532">
        <ele>2013</ele>
        <time>2023-10-31T12:23:45Z</time>
      </trkpt>
      <trkpt lat="42.8072" lon="-0.03533">
        <ele>2013</ele>
        <time>2023-10-31T12:23:46Z</time>
      </trkpt>
      <trkpt lat="42.8072" lon="-0.03533">
        <ele>2013</ele>
        <time>2023-10-31T12:23:47Z</time>
      </trkpt>
      <trkpt lat="42.8072" lon="-0.03534">
        <ele>2012.9</ele>
        <time>2023-10-31T12:23:48Z</time>
      </trkpt>
      <trkpt lat="42.8072" lon="-0.03535">
        <ele>2012.9</ele>
        <time>2023-10-31T12:23:49Z</time>
      </trkpt>
      <trkpt lat="42.8072" lon="-0.03536">
        <ele>2012.9</ele>
        <time>2023-10-31T12:23:50Z</time>
      </trkpt>
      <trkpt lat="42.8072" lon="-0.03536">
        <ele>2012.9</ele>
        <time>2023-10-31T12:23:51Z</time>
      </trkpt>
      <trkpt lat="42.8072" lon="-0.03536">
        <ele>2012.9</ele>
        <time>2023-10-31T12:23:52Z</time>
      </trkpt>
      <trkpt lat="42.8072" lon="-0.03536">
        <ele>2012.9</ele>
        <time>2023-10-31T12:23:53Z</time>
      </trkpt>
      <trkpt lat="42.8072" lon="-0.03536">
        <ele>2012.9</ele>
        <time>2023-10-31T12:23:54Z</time>
      </trkpt>
      <trkpt lat="42.8072" lon="-0.03536">
        <ele>2012.9</ele>
        <time>2023-10-31T12:23:55Z</time>
      </trkpt>
      <trkpt lat="42.8072" lon="-0.03536">
        <ele>2012.9</ele>
        <time>2023-10-31T12:23:56Z</time>
      </trkpt>
      <trkpt lat="42.8072" lon="-0.03536">
        <ele>2012.9</ele>
        <time>2023-10-31T12:23:57Z</time>
      </trkpt>
      <trkpt lat="42.80721" lon="-0.03536">
        <ele>2012.9</ele>
        <time>2023-10-31T12:23:58Z</time>
      </trkpt>
      <trkpt lat="42.80721" lon="-0.03536">
        <ele>2012.9</ele>
        <time>2023-10-31T12:23:59Z</time>
      </trkpt>
      <trkpt lat="42.80721" lon="-0.03536">
        <ele>2012.9</ele>
        <time>2023-10-31T12:24:00Z</time>
      </trkpt>
      <trkpt lat="42.80721" lon="-0.03536">
        <ele>2012.9</ele>
        <time>2023-10-31T12:24:01Z</time>
      </trkpt>
      <trkpt lat="42.80721" lon="-0.03536">
        <ele>2012.9</ele>
        <time>2023-10-31T12:24:02Z</time>
      </trkpt>
      <trkpt lat="42.80721" lon="-0.03536">
        <ele>2012.9</ele>
        <time>2023-10-31T12:24:03Z</time>
      </trkpt>
      <trkpt lat="42.80721" lon="-0.03536">
        <ele>2012.9</ele>
        <time>2023-10-31T12:24:04Z</time>
      </trkpt>
      <trkpt lat="42.80721" lon="-0.03536">
        <ele>2012.9</ele>
        <time>2023-10-31T12:24:05Z</time>
      </trkpt>
      <trkpt lat="42.80721" lon="-0.03536">
        <ele>2012.9</ele>
        <time>2023-10-31T12:24:06Z</time>
      </trkpt>
      <trkpt lat="42.80721" lon="-0.03536">
        <ele>2012.9</ele>
        <time>2023-10-31T12:24:07Z</time>
      </trkpt>
      <trkpt lat="42.80721" lon="-0.03536">
        <ele>2012.9</ele>
        <time>2023-10-31T12:24:08Z</time>
      </trkpt>
      <trkpt lat="42.80721" lon="-0.03536">
        <ele>2012.9</ele>
        <time>2023-10-31T12:24:09Z</time>
      </trkpt>
      <trkpt lat="42.80721" lon="-0.03536">
        <ele>2012.9</ele>
        <time>2023-10-31T12:24:10Z</time>
      </trkpt>
      <trkpt lat="42.80721" lon="-0.03536">
        <ele>2012.9</ele>
        <time>2023-10-31T12:24:11Z</time>
      </trkpt>
      <trkpt lat="42.80721" lon="-0.03537">
        <ele>2012.9</ele>
        <time>2023-10-31T12:24:12Z</time>
      </trkpt>
      <trkpt lat="42.80721" lon="-0.03537">
        <ele>2012.9</ele>
        <time>2023-10-31T12:24:13Z</time>
      </trkpt>
      <trkpt lat="42.80721" lon="-0.03537">
        <ele>2012.9</ele>
        <time>2023-10-31T12:24:14Z</time>
      </trkpt>
      <trkpt lat="42.80721" lon="-0.03537">
        <ele>2012.9</ele>
        <time>2023-10-31T12:24:15Z</time>
      </trkpt>
      <trkpt lat="42.80721" lon="-0.03537">
        <ele>2012.9</ele>
        <time>2023-10-31T12:24:16Z</time>
      </trkpt>
      <trkpt lat="42.80722" lon="-0.03537">
        <ele>2012.9</ele>
        <time>2023-10-31T12:24:17Z</time>
      </trkpt>
      <trkpt lat="42.80722" lon="-0.03537">
        <ele>2012.9</ele>
        <time>2023-10-31T12:24:18Z</time>
      </trkpt>
      <trkpt lat="42.80722" lon="-0.03537">
        <ele>2012.9</ele>
        <time>2023-10-31T12:24:19Z</time>
      </trkpt>
      <trkpt lat="42.80722" lon="-0.03537">
        <ele>2012.9</ele>
        <time>2023-10-31T12:24:20Z</time>
      </trkpt>
      <trkpt lat="42.80722" lon="-0.03537">
        <ele>2012.8</ele>
        <time>2023-10-31T12:24:21Z</time>
      </trkpt>
      <trkpt lat="42.80722" lon="-0.03537">
        <ele>2012.8</ele>
        <time>2023-10-31T12:24:22Z</time>
      </trkpt>
      <trkpt lat="42.80722" lon="-0.03537">
        <ele>2012.8</ele>
        <time>2023-10-31T12:24:23Z</time>
      </trkpt>
      <trkpt lat="42.80722" lon="-0.03537">
        <ele>2012.8</ele>
        <time>2023-10-31T12:24:24Z</time>
      </trkpt>
      <trkpt lat="42.80722" lon="-0.03537">
        <ele>2012.8</ele>
        <time>2023-10-31T12:24:25Z</time>
      </trkpt>
      <trkpt lat="42.80722" lon="-0.03537">
        <ele>2012.8</ele>
        <time>2023-10-31T12:24:26Z</time>
      </trkpt>
      <trkpt lat="42.80722" lon="-0.03537">
        <ele>2012.8</ele>
        <time>2023-10-31T12:24:27Z</time>
      </trkpt>
      <trkpt lat="42.80722" lon="-0.03537">
        <ele>2012.8</ele>
        <time>2023-10-31T12:24:28Z</time>
      </trkpt>
      <trkpt lat="42.80722" lon="-0.03537">
        <ele>2012.8</ele>
        <time>2023-10-31T12:24:29Z</time>
      </trkpt>
      <trkpt lat="42.80722" lon="-0.03537">
        <ele>2012.8</ele>
        <time>2023-10-31T12:24:30Z</time>
      </trkpt>
      <trkpt lat="42.80722" lon="-0.03537">
        <ele>2012.8</ele>
        <time>2023-10-31T12:24:31Z</time>
      </trkpt>
      <trkpt lat="42.80722" lon="-0.03537">
        <ele>2012.8</ele>
        <time>2023-10-31T12:24:32Z</time>
      </trkpt>
      <trkpt lat="42.80722" lon="-0.03537">
        <ele>2012.8</ele>
        <time>2023-10-31T12:24:33Z</time>
      </trkpt>
      <trkpt lat="42.80722" lon="-0.03537">
        <ele>2012.8</ele>
        <time>2023-10-31T12:24:34Z</time>
      </trkpt>
      <trkpt lat="42.80722" lon="-0.03537">
        <ele>2012.8</ele>
        <time>2023-10-31T12:24:35Z</time>
      </trkpt>
      <trkpt lat="42.80723" lon="-0.03537">
        <ele>2012.8</ele>
        <time>2023-10-31T12:24:37Z</time>
      </trkpt>
      <trkpt lat="42.80723" lon="-0.03537">
        <ele>2012.8</ele>
        <time>2023-10-31T12:24:38Z</time>
      </trkpt>
      <trkpt lat="42.80723" lon="-0.03537">
        <ele>2012.8</ele>
        <time>2023-10-31T12:24:39Z</time>
      </trkpt>
      <trkpt lat="42.80723" lon="-0.03537">
        <ele>2012.8</ele>
        <time>2023-10-31T12:24:40Z</time>
      </trkpt>
      <trkpt lat="42.80723" lon="-0.03537">
        <ele>2012.8</ele>
        <time>2023-10-31T12:24:41Z</time>
      </trkpt>
      <trkpt lat="42.80723" lon="-0.03537">
        <ele>2012.8</ele>
        <time>2023-10-31T12:24:42Z</time>
      </trkpt>
      <trkpt lat="42.80723" lon="-0.03537">
        <ele>2012.8</ele>
        <time>2023-10-31T12:24:43Z</time>
      </trkpt>
      <trkpt lat="42.80723" lon="-0.03537">
        <ele>2012.8</ele>
        <time>2023-10-31T12:24:44Z</time>
      </trkpt>
      <trkpt lat="42.80723" lon="-0.03537">
        <ele>2012.8</ele>
        <time>2023-10-31T12:24:45Z</time>
      </trkpt>
      <trkpt lat="42.80723" lon="-0.03537">
        <ele>2012.8</ele>
        <time>2023-10-31T12:24:46Z</time>
      </trkpt>
      <trkpt lat="42.80723" lon="-0.03537">
        <ele>2012.8</ele>
        <time>2023-10-31T12:24:47Z</time>
      </trkpt>
      <trkpt lat="42.80723" lon="-0.03537">
        <ele>2012.8</ele>
        <time>2023-10-31T12:24:48Z</time>
      </trkpt>
      <trkpt lat="42.80723" lon="-0.03537">
        <ele>2012.8</ele>
        <time>2023-10-31T12:24:49Z</time>
      </trkpt>
      <trkpt lat="42.80723" lon="-0.03537">
        <ele>2012.8</ele>
        <time>2023-10-31T12:24:50Z</time>
      </trkpt>
      <trkpt lat="42.80723" lon="-0.03537">
        <ele>2012.8</ele>
        <time>2023-10-31T12:24:51Z</time>
      </trkpt>
      <trkpt lat="42.80723" lon="-0.03537">
        <ele>2012.8</ele>
        <time>2023-10-31T12:24:52Z</time>
      </trkpt>
      <trkpt lat="42.80723" lon="-0.03537">
        <ele>2012.8</ele>
        <time>2023-10-31T12:24:53Z</time>
      </trkpt>
      <trkpt lat="42.80723" lon="-0.03537">
        <ele>2012.8</ele>
        <time>2023-10-31T12:24:54Z</time>
      </trkpt>
      <trkpt lat="42.80723" lon="-0.03537">
        <ele>2012.8</ele>
        <time>2023-10-31T12:24:55Z</time>
      </trkpt>
      <trkpt lat="42.80724" lon="-0.03537">
        <ele>2012.8</ele>
        <time>2023-10-31T12:24:56Z</time>
      </trkpt>
      <trkpt lat="42.80724" lon="-0.03537">
        <ele>2012.8</ele>
        <time>2023-10-31T12:24:57Z</time>
      </trkpt>
      <trkpt lat="42.80724" lon="-0.03538">
        <ele>2012.8</ele>
        <time>2023-10-31T12:24:58Z</time>
      </trkpt>
      <trkpt lat="42.80724" lon="-0.03538">
        <ele>2012.8</ele>
        <time>2023-10-31T12:24:59Z</time>
      </trkpt>
      <trkpt lat="42.80724" lon="-0.03538">
        <ele>2012.8</ele>
        <time>2023-10-31T12:25:00Z</time>
      </trkpt>
      <trkpt lat="42.80724" lon="-0.03538">
        <ele>2012.8</ele>
        <time>2023-10-31T12:25:01Z</time>
      </trkpt>
      <trkpt lat="42.80724" lon="-0.03538">
        <ele>2012.8</ele>
        <time>2023-10-31T12:25:02Z</time>
      </trkpt>
      <trkpt lat="42.80724" lon="-0.03538">
        <ele>2012.8</ele>
        <time>2023-10-31T12:25:03Z</time>
      </trkpt>
      <trkpt lat="42.80724" lon="-0.03538">
        <ele>2012.8</ele>
        <time>2023-10-31T12:25:04Z</time>
      </trkpt>
      <trkpt lat="42.80724" lon="-0.03538">
        <ele>2012.8</ele>
        <time>2023-10-31T12:25:05Z</time>
      </trkpt>
      <trkpt lat="42.80724" lon="-0.03538">
        <ele>2012.8</ele>
        <time>2023-10-31T12:25:06Z</time>
      </trkpt>
      <trkpt lat="42.80724" lon="-0.03538">
        <ele>2012.8</ele>
        <time>2023-10-31T12:25:07Z</time>
      </trkpt>
      <trkpt lat="42.80724" lon="-0.03538">
        <ele>2012.8</ele>
        <time>2023-10-31T12:25:08Z</time>
      </trkpt>
      <trkpt lat="42.80724" lon="-0.03538">
        <ele>2012.8</ele>
        <time>2023-10-31T12:25:09Z</time>
      </trkpt>
      <trkpt lat="42.80724" lon="-0.03538">
        <ele>2012.8</ele>
        <time>2023-10-31T12:25:10Z</time>
      </trkpt>
      <trkpt lat="42.80724" lon="-0.03538">
        <ele>2012.7</ele>
        <time>2023-10-31T12:25:11Z</time>
      </trkpt>
      <trkpt lat="42.80724" lon="-0.03538">
        <ele>2012.7</ele>
        <time>2023-10-31T12:25:12Z</time>
      </trkpt>
      <trkpt lat="42.80724" lon="-0.03538">
        <ele>2012.7</ele>
        <time>2023-10-31T12:25:13Z</time>
      </trkpt>
      <trkpt lat="42.80724" lon="-0.03538">
        <ele>2012.7</ele>
        <time>2023-10-31T12:25:14Z</time>
      </trkpt>
      <trkpt lat="42.80724" lon="-0.03538">
        <ele>2012.7</ele>
        <time>2023-10-31T12:25:15Z</time>
      </trkpt>
      <trkpt lat="42.80724" lon="-0.03538">
        <ele>2012.7</ele>
        <time>2023-10-31T12:25:16Z</time>
      </trkpt>
      <trkpt lat="42.80724" lon="-0.03538">
        <ele>2012.7</ele>
        <time>2023-10-31T12:25:17Z</time>
      </trkpt>
      <trkpt lat="42.80724" lon="-0.03538">
        <ele>2012.7</ele>
        <time>2023-10-31T12:25:18Z</time>
      </trkpt>
      <trkpt lat="42.80724" lon="-0.03538">
        <ele>2012.7</ele>
        <time>2023-10-31T12:25:19Z</time>
      </trkpt>
      <trkpt lat="42.80724" lon="-0.03538">
        <ele>2012.7</ele>
        <time>2023-10-31T12:25:20Z</time>
      </trkpt>
      <trkpt lat="42.80724" lon="-0.03538">
        <ele>2012.7</ele>
        <time>2023-10-31T12:25:21Z</time>
      </trkpt>
      <trkpt lat="42.80724" lon="-0.03538">
        <ele>2012.7</ele>
        <time>2023-10-31T12:25:22Z</time>
      </trkpt>
      <trkpt lat="42.80723" lon="-0.03538">
        <ele>2012.7</ele>
        <time>2023-10-31T12:25:23Z</time>
      </trkpt>
      <trkpt lat="42.80723" lon="-0.03538">
        <ele>2012.7</ele>
        <time>2023-10-31T12:25:24Z</time>
      </trkpt>
      <trkpt lat="42.80723" lon="-0.03538">
        <ele>2012.7</ele>
        <time>2023-10-31T12:25:25Z</time>
      </trkpt>
      <trkpt lat="42.80723" lon="-0.03538">
        <ele>2012.7</ele>
        <time>2023-10-31T12:25:26Z</time>
      </trkpt>
      <trkpt lat="42.80723" lon="-0.03538">
        <ele>2012.7</ele>
        <time>2023-10-31T12:25:27Z</time>
      </trkpt>
      <trkpt lat="42.80723" lon="-0.03538">
        <ele>2012.7</ele>
        <time>2023-10-31T12:25:28Z</time>
      </trkpt>
      <trkpt lat="42.80723" lon="-0.03538">
        <ele>2012.7</ele>
        <time>2023-10-31T12:25:29Z</time>
      </trkpt>
      <trkpt lat="42.80722" lon="-0.03538">
        <ele>2012.7</ele>
        <time>2023-10-31T12:25:30Z</time>
      </trkpt>
      <trkpt lat="42.80722" lon="-0.03538">
        <ele>2012.7</ele>
        <time>2023-10-31T12:25:31Z</time>
      </trkpt>
      <trkpt lat="42.80722" lon="-0.03538">
        <ele>2012.6</ele>
        <time>2023-10-31T12:25:32Z</time>
      </trkpt>
      <trkpt lat="42.80722" lon="-0.03538">
        <ele>2012.6</ele>
        <time>2023-10-31T12:25:33Z</time>
      </trkpt>
      <trkpt lat="42.80722" lon="-0.03538">
        <ele>2012.6</ele>
        <time>2023-10-31T12:25:34Z</time>
      </trkpt>
      <trkpt lat="42.80722" lon="-0.03538">
        <ele>2012.6</ele>
        <time>2023-10-31T12:25:35Z</time>
      </trkpt>
      <trkpt lat="42.80722" lon="-0.03539">
        <ele>2012.6</ele>
        <time>2023-10-31T12:25:36Z</time>
      </trkpt>
      <trkpt lat="42.80721" lon="-0.03539">
        <ele>2012.6</ele>
        <time>2023-10-31T12:25:37Z</time>
      </trkpt>
      <trkpt lat="42.80721" lon="-0.03539">
        <ele>2012.6</ele>
        <time>2023-10-31T12:25:38Z</time>
      </trkpt>
      <trkpt lat="42.80721" lon="-0.03539">
        <ele>2012.6</ele>
        <time>2023-10-31T12:25:39Z</time>
      </trkpt>
      <trkpt lat="42.80721" lon="-0.03539">
        <ele>2012.6</ele>
        <time>2023-10-31T12:25:40Z</time>
      </trkpt>
      <trkpt lat="42.80721" lon="-0.03539">
        <ele>2012.6</ele>
        <time>2023-10-31T12:25:41Z</time>
      </trkpt>
      <trkpt lat="42.80721" lon="-0.03539">
        <ele>2012.6</ele>
        <time>2023-10-31T12:25:42Z</time>
      </trkpt>
      <trkpt lat="42.80721" lon="-0.03539">
        <ele>2012.6</ele>
        <time>2023-10-31T12:25:43Z</time>
      </trkpt>
      <trkpt lat="42.80721" lon="-0.03539">
        <ele>2012.6</ele>
        <time>2023-10-31T12:25:44Z</time>
      </trkpt>
      <trkpt lat="42.80721" lon="-0.0354">
        <ele>2012.6</ele>
        <time>2023-10-31T12:25:45Z</time>
      </trkpt>
      <trkpt lat="42.80721" lon="-0.03541">
        <ele>2012.5</ele>
        <time>2023-10-31T12:25:46Z</time>
      </trkpt>
      <trkpt lat="42.80721" lon="-0.03542">
        <ele>2012.5</ele>
        <time>2023-10-31T12:25:47Z</time>
      </trkpt>
      <trkpt lat="42.80721" lon="-0.03544">
        <ele>2012.4</ele>
        <time>2023-10-31T12:25:48Z</time>
      </trkpt>
      <trkpt lat="42.80721" lon="-0.03545">
        <ele>2012.3</ele>
        <time>2023-10-31T12:25:49Z</time>
      </trkpt>
      <trkpt lat="42.80721" lon="-0.03546">
        <ele>2012.3</ele>
        <time>2023-10-31T12:25:50Z</time>
      </trkpt>
      <trkpt lat="42.80721" lon="-0.03547">
        <ele>2012.3</ele>
        <time>2023-10-31T12:25:51Z</time>
      </trkpt>
      <trkpt lat="42.80722" lon="-0.03549">
        <ele>2012.2</ele>
        <time>2023-10-31T12:25:52Z</time>
      </trkpt>
      <trkpt lat="42.80722" lon="-0.0355">
        <ele>2012.2</ele>
        <time>2023-10-31T12:25:53Z</time>
      </trkpt>
      <trkpt lat="42.80722" lon="-0.03551">
        <ele>2012.1</ele>
        <time>2023-10-31T12:25:54Z</time>
      </trkpt>
      <trkpt lat="42.80723" lon="-0.03552">
        <ele>2012.1</ele>
        <time>2023-10-31T12:25:55Z</time>
      </trkpt>
      <trkpt lat="42.80723" lon="-0.03554">
        <ele>2012</ele>
        <time>2023-10-31T12:25:56Z</time>
      </trkpt>
      <trkpt lat="42.80724" lon="-0.03556">
        <ele>2011.9</ele>
        <time>2023-10-31T12:25:57Z</time>
      </trkpt>
      <trkpt lat="42.80724" lon="-0.03557">
        <ele>2011.9</ele>
        <time>2023-10-31T12:25:58Z</time>
      </trkpt>
      <trkpt lat="42.80724" lon="-0.03557">
        <ele>2011.9</ele>
        <time>2023-10-31T12:25:59Z</time>
      </trkpt>
      <trkpt lat="42.80725" lon="-0.03558">
        <ele>2011.8</ele>
        <time>2023-10-31T12:26:00Z</time>
      </trkpt>
      <trkpt lat="42.80725" lon="-0.03559">
        <ele>2011.8</ele>
        <time>2023-10-31T12:26:01Z</time>
      </trkpt>
      <trkpt lat="42.80725" lon="-0.0356">
        <ele>2011.8</ele>
        <time>2023-10-31T12:26:02Z</time>
      </trkpt>
      <trkpt lat="42.80725" lon="-0.03562">
        <ele>2011.7</ele>
        <time>2023-10-31T12:26:03Z</time>
      </trkpt>
      <trkpt lat="42.80725" lon="-0.03563">
        <ele>2011.7</ele>
        <time>2023-10-31T12:26:04Z</time>
      </trkpt>
      <trkpt lat="42.80725" lon="-0.03563">
        <ele>2011.7</ele>
        <time>2023-10-31T12:26:05Z</time>
      </trkpt>
      <trkpt lat="42.80725" lon="-0.03565">
        <ele>2011.6</ele>
        <time>2023-10-31T12:26:06Z</time>
      </trkpt>
      <trkpt lat="42.80725" lon="-0.03565">
        <ele>2011.6</ele>
        <time>2023-10-31T12:26:07Z</time>
      </trkpt>
      <trkpt lat="42.80725" lon="-0.03564">
        <ele>2011.6</ele>
        <time>2023-10-31T12:26:08Z</time>
      </trkpt>
      <trkpt lat="42.80725" lon="-0.03564">
        <ele>2011.6</ele>
        <time>2023-10-31T12:26:09Z</time>
      </trkpt>
      <trkpt lat="42.80725" lon="-0.03565">
        <ele>2011.6</ele>
        <time>2023-10-31T12:26:10Z</time>
      </trkpt>
      <trkpt lat="42.80725" lon="-0.03565">
        <ele>2011.6</ele>
        <time>2023-10-31T12:26:11Z</time>
      </trkpt>
      <trkpt lat="42.80726" lon="-0.03567">
        <ele>2011.6</ele>
        <time>2023-10-31T12:26:12Z</time>
      </trkpt>
      <trkpt lat="42.80726" lon="-0.03567">
        <ele>2011.5</ele>
        <time>2023-10-31T12:26:13Z</time>
      </trkpt>
      <trkpt lat="42.80726" lon="-0.03568">
        <ele>2011.5</ele>
        <time>2023-10-31T12:26:14Z</time>
      </trkpt>
      <trkpt lat="42.80727" lon="-0.03569">
        <ele>2011.5</ele>
        <time>2023-10-31T12:26:15Z</time>
      </trkpt>
      <trkpt lat="42.80726" lon="-0.03571">
        <ele>2011.5</ele>
        <time>2023-10-31T12:26:16Z</time>
      </trkpt>
      <trkpt lat="42.80726" lon="-0.03572">
        <ele>2011.5</ele>
        <time>2023-10-31T12:26:17Z</time>
      </trkpt>
      <trkpt lat="42.80727" lon="-0.03572">
        <ele>2011.5</ele>
        <time>2023-10-31T12:26:18Z</time>
      </trkpt>
      <trkpt lat="42.80727" lon="-0.03574">
        <ele>2011.5</ele>
        <time>2023-10-31T12:26:19Z</time>
      </trkpt>
      <trkpt lat="42.80726" lon="-0.03575">
        <ele>2011.5</ele>
        <time>2023-10-31T12:26:20Z</time>
      </trkpt>
      <trkpt lat="42.80725" lon="-0.03576">
        <ele>2011.5</ele>
        <time>2023-10-31T12:26:21Z</time>
      </trkpt>
      <trkpt lat="42.80724" lon="-0.03577">
        <ele>2011.5</ele>
        <time>2023-10-31T12:26:22Z</time>
      </trkpt>
      <trkpt lat="42.80724" lon="-0.03577">
        <ele>2011.5</ele>
        <time>2023-10-31T12:26:23Z</time>
      </trkpt>
      <trkpt lat="42.80723" lon="-0.03577">
        <ele>2011.5</ele>
        <time>2023-10-31T12:26:24Z</time>
      </trkpt>
      <trkpt lat="42.80722" lon="-0.03578">
        <ele>2011.5</ele>
        <time>2023-10-31T12:26:25Z</time>
      </trkpt>
      <trkpt lat="42.80721" lon="-0.03579">
        <ele>2011.6</ele>
        <time>2023-10-31T12:26:26Z</time>
      </trkpt>
      <trkpt lat="42.80721" lon="-0.0358">
        <ele>2011.6</ele>
        <time>2023-10-31T12:26:27Z</time>
      </trkpt>
      <trkpt lat="42.8072" lon="-0.03581">
        <ele>2011.6</ele>
        <time>2023-10-31T12:26:28Z</time>
      </trkpt>
      <trkpt lat="42.8072" lon="-0.03582">
        <ele>2011.7</ele>
        <time>2023-10-31T12:26:29Z</time>
      </trkpt>
      <trkpt lat="42.80721" lon="-0.03584">
        <ele>2011.8</ele>
        <time>2023-10-31T12:26:30Z</time>
      </trkpt>
      <trkpt lat="42.80721" lon="-0.03586">
        <ele>2011.8</ele>
        <time>2023-10-31T12:26:31Z</time>
      </trkpt>
      <trkpt lat="42.8072" lon="-0.03588">
        <ele>2011.9</ele>
        <time>2023-10-31T12:26:32Z</time>
      </trkpt>
      <trkpt lat="42.8072" lon="-0.03588">
        <ele>2012</ele>
        <time>2023-10-31T12:26:33Z</time>
      </trkpt>
      <trkpt lat="42.80719" lon="-0.03589">
        <ele>2012</ele>
        <time>2023-10-31T12:26:34Z</time>
      </trkpt>
      <trkpt lat="42.80719" lon="-0.03589">
        <ele>2012.1</ele>
        <time>2023-10-31T12:26:35Z</time>
      </trkpt>
      <trkpt lat="42.80718" lon="-0.03591">
        <ele>2012.1</ele>
        <time>2023-10-31T12:26:36Z</time>
      </trkpt>
      <trkpt lat="42.80719" lon="-0.03592">
        <ele>2012.2</ele>
        <time>2023-10-31T12:26:37Z</time>
      </trkpt>
      <trkpt lat="42.8072" lon="-0.03594">
        <ele>2012.3</ele>
        <time>2023-10-31T12:26:38Z</time>
      </trkpt>
      <trkpt lat="42.8072" lon="-0.03595">
        <ele>2012.4</ele>
        <time>2023-10-31T12:26:39Z</time>
      </trkpt>
      <trkpt lat="42.8072" lon="-0.03596">
        <ele>2012.5</ele>
        <time>2023-10-31T12:26:40Z</time>
      </trkpt>
      <trkpt lat="42.80721" lon="-0.03597">
        <ele>2012.6</ele>
        <time>2023-10-31T12:26:41Z</time>
      </trkpt>
      <trkpt lat="42.8072" lon="-0.03599">
        <ele>2012.8</ele>
        <time>2023-10-31T12:26:42Z</time>
      </trkpt>
      <trkpt lat="42.8072" lon="-0.036">
        <ele>2012.9</ele>
        <time>2023-10-31T12:26:43Z</time>
      </trkpt>
      <trkpt lat="42.80719" lon="-0.03601">
        <ele>2013</ele>
        <time>2023-10-31T12:26:44Z</time>
      </trkpt>
      <trkpt lat="42.80719" lon="-0.03602">
        <ele>2013.1</ele>
        <time>2023-10-31T12:26:45Z</time>
      </trkpt>
      <trkpt lat="42.8072" lon="-0.03604">
        <ele>2013.3</ele>
        <time>2023-10-31T12:26:46Z</time>
      </trkpt>
      <trkpt lat="42.80722" lon="-0.03606">
        <ele>2013.5</ele>
        <time>2023-10-31T12:26:47Z</time>
      </trkpt>
      <trkpt lat="42.80722" lon="-0.03607">
        <ele>2013.6</ele>
        <time>2023-10-31T12:26:48Z</time>
      </trkpt>
      <trkpt lat="42.80723" lon="-0.03608">
        <ele>2013.7</ele>
        <time>2023-10-31T12:26:49Z</time>
      </trkpt>
      <trkpt lat="42.80723" lon="-0.03609">
        <ele>2013.8</ele>
        <time>2023-10-31T12:26:50Z</time>
      </trkpt>
      <trkpt lat="42.80724" lon="-0.03611">
        <ele>2013.9</ele>
        <time>2023-10-31T12:26:51Z</time>
      </trkpt>
      <trkpt lat="42.80724" lon="-0.03612">
        <ele>2014</ele>
        <time>2023-10-31T12:26:52Z</time>
      </trkpt>
      <trkpt lat="42.80724" lon="-0.03615">
        <ele>2014.2</ele>
        <time>2023-10-31T12:26:53Z</time>
      </trkpt>
      <trkpt lat="42.80723" lon="-0.03616">
        <ele>2014.3</ele>
        <time>2023-10-31T12:26:54Z</time>
      </trkpt>
      <trkpt lat="42.80723" lon="-0.03617">
        <ele>2014.4</ele>
        <time>2023-10-31T12:26:55Z</time>
      </trkpt>
      <trkpt lat="42.80722" lon="-0.03618">
        <ele>2014.6</ele>
        <time>2023-10-31T12:26:56Z</time>
      </trkpt>
      <trkpt lat="42.80722" lon="-0.03619">
        <ele>2014.7</ele>
        <time>2023-10-31T12:26:57Z</time>
      </trkpt>
      <trkpt lat="42.80723" lon="-0.03621">
        <ele>2014.8</ele>
        <time>2023-10-31T12:26:58Z</time>
      </trkpt>
      <trkpt lat="42.80724" lon="-0.03622">
        <ele>2015</ele>
        <time>2023-10-31T12:26:59Z</time>
      </trkpt>
      <trkpt lat="42.80725" lon="-0.03623">
        <ele>2015.1</ele>
        <time>2023-10-31T12:27:00Z</time>
      </trkpt>
      <trkpt lat="42.80725" lon="-0.03625">
        <ele>2015.2</ele>
        <time>2023-10-31T12:27:01Z</time>
      </trkpt>
      <trkpt lat="42.80725" lon="-0.03626">
        <ele>2015.4</ele>
        <time>2023-10-31T12:27:02Z</time>
      </trkpt>
      <trkpt lat="42.80725" lon="-0.03628">
        <ele>2015.5</ele>
        <time>2023-10-31T12:27:03Z</time>
      </trkpt>
      <trkpt lat="42.80726" lon="-0.03629">
        <ele>2015.6</ele>
        <time>2023-10-31T12:27:04Z</time>
      </trkpt>
      <trkpt lat="42.80726" lon="-0.03631">
        <ele>2015.7</ele>
        <time>2023-10-31T12:27:05Z</time>
      </trkpt>
      <trkpt lat="42.80726" lon="-0.03632">
        <ele>2015.8</ele>
        <time>2023-10-31T12:27:06Z</time>
      </trkpt>
      <trkpt lat="42.80726" lon="-0.03634">
        <ele>2015.9</ele>
        <time>2023-10-31T12:27:07Z</time>
      </trkpt>
      <trkpt lat="42.80725" lon="-0.03635">
        <ele>2016</ele>
        <time>2023-10-31T12:27:08Z</time>
      </trkpt>
      <trkpt lat="42.80726" lon="-0.03636">
        <ele>2016.1</ele>
        <time>2023-10-31T12:27:09Z</time>
      </trkpt>
      <trkpt lat="42.80726" lon="-0.03638">
        <ele>2016.2</ele>
        <time>2023-10-31T12:27:10Z</time>
      </trkpt>
      <trkpt lat="42.80727" lon="-0.03639">
        <ele>2016.3</ele>
        <time>2023-10-31T12:27:11Z</time>
      </trkpt>
      <trkpt lat="42.80727" lon="-0.0364">
        <ele>2016.4</ele>
        <time>2023-10-31T12:27:12Z</time>
      </trkpt>
      <trkpt lat="42.80727" lon="-0.03641">
        <ele>2016.5</ele>
        <time>2023-10-31T12:27:13Z</time>
      </trkpt>
      <trkpt lat="42.80727" lon="-0.03642">
        <ele>2016.5</ele>
        <time>2023-10-31T12:27:14Z</time>
      </trkpt>
      <trkpt lat="42.80727" lon="-0.03643">
        <ele>2016.6</ele>
        <time>2023-10-31T12:27:15Z</time>
      </trkpt>
      <trkpt lat="42.80728" lon="-0.03644">
        <ele>2016.7</ele>
        <time>2023-10-31T12:27:16Z</time>
      </trkpt>
      <trkpt lat="42.80729" lon="-0.03645">
        <ele>2016.7</ele>
        <time>2023-10-31T12:27:17Z</time>
      </trkpt>
      <trkpt lat="42.80729" lon="-0.03645">
        <ele>2016.7</ele>
        <time>2023-10-31T12:27:18Z</time>
      </trkpt>
      <trkpt lat="42.80729" lon="-0.03646">
        <ele>2016.8</ele>
        <time>2023-10-31T12:27:19Z</time>
      </trkpt>
      <trkpt lat="42.80729" lon="-0.03647">
        <ele>2016.8</ele>
        <time>2023-10-31T12:27:20Z</time>
      </trkpt>
      <trkpt lat="42.8073" lon="-0.03648">
        <ele>2016.9</ele>
        <time>2023-10-31T12:27:21Z</time>
      </trkpt>
      <trkpt lat="42.8073" lon="-0.03649">
        <ele>2016.9</ele>
        <time>2023-10-31T12:27:22Z</time>
      </trkpt>
      <trkpt lat="42.8073" lon="-0.03651">
        <ele>2017</ele>
        <time>2023-10-31T12:27:23Z</time>
      </trkpt>
      <trkpt lat="42.80731" lon="-0.03652">
        <ele>2017</ele>
        <time>2023-10-31T12:27:24Z</time>
      </trkpt>
      <trkpt lat="42.80731" lon="-0.03653">
        <ele>2017</ele>
        <time>2023-10-31T12:27:25Z</time>
      </trkpt>
      <trkpt lat="42.80731" lon="-0.03654">
        <ele>2017</ele>
        <time>2023-10-31T12:27:26Z</time>
      </trkpt>
      <trkpt lat="42.80731" lon="-0.03656">
        <ele>2017</ele>
        <time>2023-10-31T12:27:27Z</time>
      </trkpt>
      <trkpt lat="42.80731" lon="-0.03656">
        <ele>2017</ele>
        <time>2023-10-31T12:27:28Z</time>
      </trkpt>
      <trkpt lat="42.80731" lon="-0.03658">
        <ele>2017.1</ele>
        <time>2023-10-31T12:27:29Z</time>
      </trkpt>
      <trkpt lat="42.80732" lon="-0.03659">
        <ele>2017</ele>
        <time>2023-10-31T12:27:30Z</time>
      </trkpt>
      <trkpt lat="42.80732" lon="-0.0366">
        <ele>2017</ele>
        <time>2023-10-31T12:27:31Z</time>
      </trkpt>
      <trkpt lat="42.80732" lon="-0.03662">
        <ele>2017</ele>
        <time>2023-10-31T12:27:32Z</time>
      </trkpt>
      <trkpt lat="42.80733" lon="-0.03663">
        <ele>2017</ele>
        <time>2023-10-31T12:27:33Z</time>
      </trkpt>
      <trkpt lat="42.80734" lon="-0.03664">
        <ele>2017</ele>
        <time>2023-10-31T12:27:34Z</time>
      </trkpt>
      <trkpt lat="42.80734" lon="-0.03665">
        <ele>2017</ele>
        <time>2023-10-31T12:27:35Z</time>
      </trkpt>
      <trkpt lat="42.80734" lon="-0.03667">
        <ele>2016.9</ele>
        <time>2023-10-31T12:27:36Z</time>
      </trkpt>
      <trkpt lat="42.80734" lon="-0.03669">
        <ele>2016.9</ele>
        <time>2023-10-31T12:27:37Z</time>
      </trkpt>
      <trkpt lat="42.80735" lon="-0.03669">
        <ele>2016.8</ele>
        <time>2023-10-31T12:27:38Z</time>
      </trkpt>
      <trkpt lat="42.80735" lon="-0.0367">
        <ele>2016.8</ele>
        <time>2023-10-31T12:27:39Z</time>
      </trkpt>
      <trkpt lat="42.80735" lon="-0.03671">
        <ele>2016.8</ele>
        <time>2023-10-31T12:27:40Z</time>
      </trkpt>
      <trkpt lat="42.80736" lon="-0.03672">
        <ele>2016.7</ele>
        <time>2023-10-31T12:27:41Z</time>
      </trkpt>
      <trkpt lat="42.80736" lon="-0.03673">
        <ele>2016.7</ele>
        <time>2023-10-31T12:27:42Z</time>
      </trkpt>
      <trkpt lat="42.80736" lon="-0.03675">
        <ele>2016.6</ele>
        <time>2023-10-31T12:27:43Z</time>
      </trkpt>
      <trkpt lat="42.80736" lon="-0.03676">
        <ele>2016.6</ele>
        <time>2023-10-31T12:27:44Z</time>
      </trkpt>
      <trkpt lat="42.80737" lon="-0.03677">
        <ele>2016.5</ele>
        <time>2023-10-31T12:27:45Z</time>
      </trkpt>
      <trkpt lat="42.80737" lon="-0.03678">
        <ele>2016.5</ele>
        <time>2023-10-31T12:27:46Z</time>
      </trkpt>
      <trkpt lat="42.80737" lon="-0.03679">
        <ele>2016.4</ele>
        <time>2023-10-31T12:27:47Z</time>
      </trkpt>
      <trkpt lat="42.80737" lon="-0.03681">
        <ele>2016.4</ele>
        <time>2023-10-31T12:27:48Z</time>
      </trkpt>
      <trkpt lat="42.80737" lon="-0.03682">
        <ele>2016.4</ele>
        <time>2023-10-31T12:27:49Z</time>
      </trkpt>
      <trkpt lat="42.80737" lon="-0.03682">
        <ele>2016.3</ele>
        <time>2023-10-31T12:27:50Z</time>
      </trkpt>
      <trkpt lat="42.80738" lon="-0.03683">
        <ele>2016.3</ele>
        <time>2023-10-31T12:27:51Z</time>
      </trkpt>
      <trkpt lat="42.80738" lon="-0.03684">
        <ele>2016.3</ele>
        <time>2023-10-31T12:27:52Z</time>
      </trkpt>
      <trkpt lat="42.80738" lon="-0.03685">
        <ele>2016.2</ele>
        <time>2023-10-31T12:27:53Z</time>
      </trkpt>
      <trkpt lat="42.80737" lon="-0.03686">
        <ele>2016.2</ele>
        <time>2023-10-31T12:27:54Z</time>
      </trkpt>
      <trkpt lat="42.80737" lon="-0.03688">
        <ele>2016.2</ele>
        <time>2023-10-31T12:27:55Z</time>
      </trkpt>
      <trkpt lat="42.80737" lon="-0.03689">
        <ele>2016.1</ele>
        <time>2023-10-31T12:27:56Z</time>
      </trkpt>
      <trkpt lat="42.80737" lon="-0.0369">
        <ele>2016.1</ele>
        <time>2023-10-31T12:27:57Z</time>
      </trkpt>
      <trkpt lat="42.80737" lon="-0.03689">
        <ele>2016.1</ele>
        <time>2023-10-31T12:27:58Z</time>
      </trkpt>
      <trkpt lat="42.80737" lon="-0.03691">
        <ele>2016.1</ele>
        <time>2023-10-31T12:27:59Z</time>
      </trkpt>
      <trkpt lat="42.80737" lon="-0.03693">
        <ele>2016</ele>
        <time>2023-10-31T12:28:00Z</time>
      </trkpt>
      <trkpt lat="42.80736" lon="-0.03694">
        <ele>2016</ele>
        <time>2023-10-31T12:28:01Z</time>
      </trkpt>
      <trkpt lat="42.80736" lon="-0.03696">
        <ele>2015.9</ele>
        <time>2023-10-31T12:28:02Z</time>
      </trkpt>
      <trkpt lat="42.80736" lon="-0.03698">
        <ele>2015.9</ele>
        <time>2023-10-31T12:28:03Z</time>
      </trkpt>
      <trkpt lat="42.80736" lon="-0.03699">
        <ele>2015.9</ele>
        <time>2023-10-31T12:28:04Z</time>
      </trkpt>
      <trkpt lat="42.80737" lon="-0.037">
        <ele>2015.9</ele>
        <time>2023-10-31T12:28:05Z</time>
      </trkpt>
      <trkpt lat="42.80737" lon="-0.03701">
        <ele>2015.9</ele>
        <time>2023-10-31T12:28:06Z</time>
      </trkpt>
      <trkpt lat="42.80737" lon="-0.03701">
        <ele>2015.9</ele>
        <time>2023-10-31T12:28:07Z</time>
      </trkpt>
      <trkpt lat="42.80736" lon="-0.03702">
        <ele>2015.9</ele>
        <time>2023-10-31T12:28:08Z</time>
      </trkpt>
      <trkpt lat="42.80736" lon="-0.03703">
        <ele>2015.9</ele>
        <time>2023-10-31T12:28:09Z</time>
      </trkpt>
      <trkpt lat="42.80736" lon="-0.03704">
        <ele>2015.9</ele>
        <time>2023-10-31T12:28:10Z</time>
      </trkpt>
      <trkpt lat="42.80736" lon="-0.03705">
        <ele>2015.9</ele>
        <time>2023-10-31T12:28:11Z</time>
      </trkpt>
      <trkpt lat="42.80736" lon="-0.03705">
        <ele>2015.9</ele>
        <time>2023-10-31T12:28:12Z</time>
      </trkpt>
      <trkpt lat="42.80735" lon="-0.03705">
        <ele>2015.9</ele>
        <time>2023-10-31T12:28:13Z</time>
      </trkpt>
      <trkpt lat="42.80735" lon="-0.03707">
        <ele>2015.9</ele>
        <time>2023-10-31T12:28:14Z</time>
      </trkpt>
      <trkpt lat="42.80736" lon="-0.03708">
        <ele>2015.9</ele>
        <time>2023-10-31T12:28:15Z</time>
      </trkpt>
      <trkpt lat="42.80736" lon="-0.03708">
        <ele>2015.9</ele>
        <time>2023-10-31T12:28:16Z</time>
      </trkpt>
      <trkpt lat="42.80735" lon="-0.03709">
        <ele>2015.9</ele>
        <time>2023-10-31T12:28:17Z</time>
      </trkpt>
      <trkpt lat="42.80735" lon="-0.03711">
        <ele>2015.9</ele>
        <time>2023-10-31T12:28:18Z</time>
      </trkpt>
      <trkpt lat="42.80735" lon="-0.03714">
        <ele>2015.9</ele>
        <time>2023-10-31T12:28:19Z</time>
      </trkpt>
      <trkpt lat="42.80736" lon="-0.03715">
        <ele>2015.9</ele>
        <time>2023-10-31T12:28:20Z</time>
      </trkpt>
      <trkpt lat="42.80736" lon="-0.03718">
        <ele>2015.9</ele>
        <time>2023-10-31T12:28:21Z</time>
      </trkpt>
      <trkpt lat="42.80736" lon="-0.03719">
        <ele>2015.9</ele>
        <time>2023-10-31T12:28:22Z</time>
      </trkpt>
      <trkpt lat="42.80735" lon="-0.0372">
        <ele>2015.9</ele>
        <time>2023-10-31T12:28:23Z</time>
      </trkpt>
      <trkpt lat="42.80735" lon="-0.03721">
        <ele>2015.9</ele>
        <time>2023-10-31T12:28:24Z</time>
      </trkpt>
      <trkpt lat="42.80736" lon="-0.03723">
        <ele>2016</ele>
        <time>2023-10-31T12:28:25Z</time>
      </trkpt>
      <trkpt lat="42.80737" lon="-0.03725">
        <ele>2016</ele>
        <time>2023-10-31T12:28:26Z</time>
      </trkpt>
      <trkpt lat="42.80737" lon="-0.03728">
        <ele>2016</ele>
        <time>2023-10-31T12:28:27Z</time>
      </trkpt>
      <trkpt lat="42.80738" lon="-0.03729">
        <ele>2016</ele>
        <time>2023-10-31T12:28:28Z</time>
      </trkpt>
      <trkpt lat="42.80738" lon="-0.0373">
        <ele>2016</ele>
        <time>2023-10-31T12:28:29Z</time>
      </trkpt>
      <trkpt lat="42.80738" lon="-0.03732">
        <ele>2016</ele>
        <time>2023-10-31T12:28:30Z</time>
      </trkpt>
      <trkpt lat="42.80739" lon="-0.03733">
        <ele>2016</ele>
        <time>2023-10-31T12:28:31Z</time>
      </trkpt>
      <trkpt lat="42.80739" lon="-0.03734">
        <ele>2016</ele>
        <time>2023-10-31T12:28:32Z</time>
      </trkpt>
      <trkpt lat="42.8074" lon="-0.03735">
        <ele>2016</ele>
        <time>2023-10-31T12:28:33Z</time>
      </trkpt>
      <trkpt lat="42.80741" lon="-0.03736">
        <ele>2016</ele>
        <time>2023-10-31T12:28:34Z</time>
      </trkpt>
      <trkpt lat="42.80741" lon="-0.03737">
        <ele>2016</ele>
        <time>2023-10-31T12:28:35Z</time>
      </trkpt>
      <trkpt lat="42.80741" lon="-0.03738">
        <ele>2016</ele>
        <time>2023-10-31T12:28:36Z</time>
      </trkpt>
      <trkpt lat="42.80741" lon="-0.0374">
        <ele>2016</ele>
        <time>2023-10-31T12:28:37Z</time>
      </trkpt>
      <trkpt lat="42.80741" lon="-0.03741">
        <ele>2016</ele>
        <time>2023-10-31T12:28:38Z</time>
      </trkpt>
      <trkpt lat="42.80741" lon="-0.03743">
        <ele>2016</ele>
        <time>2023-10-31T12:28:39Z</time>
      </trkpt>
      <trkpt lat="42.80741" lon="-0.03746">
        <ele>2016</ele>
        <time>2023-10-31T12:28:40Z</time>
      </trkpt>
      <trkpt lat="42.80741" lon="-0.03746">
        <ele>2016</ele>
        <time>2023-10-31T12:28:41Z</time>
      </trkpt>
      <trkpt lat="42.80742" lon="-0.03747">
        <ele>2016</ele>
        <time>2023-10-31T12:28:42Z</time>
      </trkpt>
      <trkpt lat="42.80743" lon="-0.03748">
        <ele>2015.9</ele>
        <time>2023-10-31T12:28:43Z</time>
      </trkpt>
      <trkpt lat="42.80743" lon="-0.03749">
        <ele>2015.9</ele>
        <time>2023-10-31T12:28:44Z</time>
      </trkpt>
      <trkpt lat="42.80744" lon="-0.03751">
        <ele>2015.9</ele>
        <time>2023-10-31T12:28:45Z</time>
      </trkpt>
      <trkpt lat="42.80743" lon="-0.03753">
        <ele>2015.9</ele>
        <time>2023-10-31T12:28:46Z</time>
      </trkpt>
      <trkpt lat="42.80744" lon="-0.03755">
        <ele>2015.8</ele>
        <time>2023-10-31T12:28:47Z</time>
      </trkpt>
      <trkpt lat="42.80744" lon="-0.03756">
        <ele>2015.8</ele>
        <time>2023-10-31T12:28:48Z</time>
      </trkpt>
      <trkpt lat="42.80744" lon="-0.03757">
        <ele>2015.8</ele>
        <time>2023-10-31T12:28:49Z</time>
      </trkpt>
      <trkpt lat="42.80745" lon="-0.03759">
        <ele>2015.8</ele>
        <time>2023-10-31T12:28:50Z</time>
      </trkpt>
      <trkpt lat="42.80745" lon="-0.0376">
        <ele>2015.7</ele>
        <time>2023-10-31T12:28:51Z</time>
      </trkpt>
      <trkpt lat="42.80746" lon="-0.03761">
        <ele>2015.7</ele>
        <time>2023-10-31T12:28:52Z</time>
      </trkpt>
      <trkpt lat="42.80745" lon="-0.03763">
        <ele>2015.7</ele>
        <time>2023-10-31T12:28:53Z</time>
      </trkpt>
      <trkpt lat="42.80745" lon="-0.03765">
        <ele>2015.7</ele>
        <time>2023-10-31T12:28:54Z</time>
      </trkpt>
      <trkpt lat="42.80745" lon="-0.03766">
        <ele>2015.6</ele>
        <time>2023-10-31T12:28:55Z</time>
      </trkpt>
      <trkpt lat="42.80746" lon="-0.03767">
        <ele>2015.6</ele>
        <time>2023-10-31T12:28:56Z</time>
      </trkpt>
      <trkpt lat="42.80746" lon="-0.03769">
        <ele>2015.6</ele>
        <time>2023-10-31T12:28:57Z</time>
      </trkpt>
      <trkpt lat="42.80746" lon="-0.0377">
        <ele>2015.6</ele>
        <time>2023-10-31T12:28:58Z</time>
      </trkpt>
      <trkpt lat="42.80746" lon="-0.03771">
        <ele>2015.6</ele>
        <time>2023-10-31T12:28:59Z</time>
      </trkpt>
      <trkpt lat="42.80746" lon="-0.03773">
        <ele>2015.6</ele>
        <time>2023-10-31T12:29:00Z</time>
      </trkpt>
      <trkpt lat="42.80747" lon="-0.03775">
        <ele>2015.5</ele>
        <time>2023-10-31T12:29:01Z</time>
      </trkpt>
      <trkpt lat="42.80747" lon="-0.03776">
        <ele>2015.5</ele>
        <time>2023-10-31T12:29:02Z</time>
      </trkpt>
      <trkpt lat="42.80748" lon="-0.03777">
        <ele>2015.5</ele>
        <time>2023-10-31T12:29:03Z</time>
      </trkpt>
      <trkpt lat="42.80749" lon="-0.03778">
        <ele>2015.5</ele>
        <time>2023-10-31T12:29:04Z</time>
      </trkpt>
      <trkpt lat="42.8075" lon="-0.03779">
        <ele>2015.5</ele>
        <time>2023-10-31T12:29:05Z</time>
      </trkpt>
      <trkpt lat="42.8075" lon="-0.0378">
        <ele>2015.5</ele>
        <time>2023-10-31T12:29:06Z</time>
      </trkpt>
      <trkpt lat="42.8075" lon="-0.03782">
        <ele>2015.5</ele>
        <time>2023-10-31T12:29:07Z</time>
      </trkpt>
      <trkpt lat="42.80751" lon="-0.03784">
        <ele>2015.5</ele>
        <time>2023-10-31T12:29:08Z</time>
      </trkpt>
      <trkpt lat="42.80751" lon="-0.03786">
        <ele>2015.5</ele>
        <time>2023-10-31T12:29:09Z</time>
      </trkpt>
      <trkpt lat="42.80751" lon="-0.03788">
        <ele>2015.5</ele>
        <time>2023-10-31T12:29:10Z</time>
      </trkpt>
      <trkpt lat="42.80751" lon="-0.03789">
        <ele>2015.5</ele>
        <time>2023-10-31T12:29:11Z</time>
      </trkpt>
      <trkpt lat="42.80751" lon="-0.03792">
        <ele>2015.5</ele>
        <time>2023-10-31T12:29:12Z</time>
      </trkpt>
      <trkpt lat="42.80751" lon="-0.03793">
        <ele>2015.5</ele>
        <time>2023-10-31T12:29:13Z</time>
      </trkpt>
      <trkpt lat="42.80751" lon="-0.03795">
        <ele>2015.5</ele>
        <time>2023-10-31T12:29:14Z</time>
      </trkpt>
      <trkpt lat="42.80751" lon="-0.03796">
        <ele>2015.5</ele>
        <time>2023-10-31T12:29:15Z</time>
      </trkpt>
      <trkpt lat="42.80751" lon="-0.03798">
        <ele>2015.5</ele>
        <time>2023-10-31T12:29:16Z</time>
      </trkpt>
      <trkpt lat="42.8075" lon="-0.03799">
        <ele>2015.5</ele>
        <time>2023-10-31T12:29:17Z</time>
      </trkpt>
      <trkpt lat="42.80749" lon="-0.03802">
        <ele>2015.5</ele>
        <time>2023-10-31T12:29:18Z</time>
      </trkpt>
      <trkpt lat="42.80749" lon="-0.03803">
        <ele>2015.5</ele>
        <time>2023-10-31T12:29:19Z</time>
      </trkpt>
      <trkpt lat="42.80749" lon="-0.03804">
        <ele>2015.5</ele>
        <time>2023-10-31T12:29:20Z</time>
      </trkpt>
      <trkpt lat="42.80748" lon="-0.03805">
        <ele>2015.5</ele>
        <time>2023-10-31T12:29:21Z</time>
      </trkpt>
      <trkpt lat="42.80747" lon="-0.03806">
        <ele>2015.5</ele>
        <time>2023-10-31T12:29:22Z</time>
      </trkpt>
      <trkpt lat="42.80746" lon="-0.03808">
        <ele>2015.5</ele>
        <time>2023-10-31T12:29:23Z</time>
      </trkpt>
      <trkpt lat="42.80746" lon="-0.03809">
        <ele>2015.5</ele>
        <time>2023-10-31T12:29:24Z</time>
      </trkpt>
      <trkpt lat="42.80746" lon="-0.03811">
        <ele>2015.5</ele>
        <time>2023-10-31T12:29:25Z</time>
      </trkpt>
      <trkpt lat="42.80746" lon="-0.03812">
        <ele>2015.5</ele>
        <time>2023-10-31T12:29:26Z</time>
      </trkpt>
      <trkpt lat="42.80746" lon="-0.03814">
        <ele>2015.5</ele>
        <time>2023-10-31T12:29:27Z</time>
      </trkpt>
      <trkpt lat="42.80745" lon="-0.03815">
        <ele>2015.5</ele>
        <time>2023-10-31T12:29:28Z</time>
      </trkpt>
      <trkpt lat="42.80745" lon="-0.03817">
        <ele>2015.5</ele>
        <time>2023-10-31T12:29:29Z</time>
      </trkpt>
      <trkpt lat="42.80745" lon="-0.03819">
        <ele>2015.5</ele>
        <time>2023-10-31T12:29:30Z</time>
      </trkpt>
      <trkpt lat="42.80745" lon="-0.0382">
        <ele>2015.4</ele>
        <time>2023-10-31T12:29:31Z</time>
      </trkpt>
      <trkpt lat="42.80745" lon="-0.03822">
        <ele>2015.4</ele>
        <time>2023-10-31T12:29:32Z</time>
      </trkpt>
      <trkpt lat="42.80745" lon="-0.03823">
        <ele>2015.4</ele>
        <time>2023-10-31T12:29:33Z</time>
      </trkpt>
      <trkpt lat="42.80745" lon="-0.03825">
        <ele>2015.4</ele>
        <time>2023-10-31T12:29:34Z</time>
      </trkpt>
      <trkpt lat="42.80745" lon="-0.03826">
        <ele>2015.4</ele>
        <time>2023-10-31T12:29:35Z</time>
      </trkpt>
      <trkpt lat="42.80745" lon="-0.03828">
        <ele>2015.4</ele>
        <time>2023-10-31T12:29:36Z</time>
      </trkpt>
      <trkpt lat="42.80744" lon="-0.0383">
        <ele>2015.4</ele>
        <time>2023-10-31T12:29:37Z</time>
      </trkpt>
      <trkpt lat="42.80744" lon="-0.03831">
        <ele>2015.3</ele>
        <time>2023-10-31T12:29:38Z</time>
      </trkpt>
      <trkpt lat="42.80744" lon="-0.03833">
        <ele>2015.2</ele>
        <time>2023-10-31T12:29:39Z</time>
      </trkpt>
      <trkpt lat="42.80744" lon="-0.03834">
        <ele>2015.1</ele>
        <time>2023-10-31T12:29:40Z</time>
      </trkpt>
      <trkpt lat="42.80744" lon="-0.03836">
        <ele>2014.9</ele>
        <time>2023-10-31T12:29:41Z</time>
      </trkpt>
      <trkpt lat="42.80744" lon="-0.03837">
        <ele>2014.8</ele>
        <time>2023-10-31T12:29:42Z</time>
      </trkpt>
      <trkpt lat="42.80744" lon="-0.03839">
        <ele>2014.7</ele>
        <time>2023-10-31T12:29:43Z</time>
      </trkpt>
      <trkpt lat="42.80743" lon="-0.0384">
        <ele>2014.5</ele>
        <time>2023-10-31T12:29:44Z</time>
      </trkpt>
      <trkpt lat="42.80743" lon="-0.03842">
        <ele>2014.4</ele>
        <time>2023-10-31T12:29:45Z</time>
      </trkpt>
      <trkpt lat="42.80744" lon="-0.03843">
        <ele>2014.2</ele>
        <time>2023-10-31T12:29:46Z</time>
      </trkpt>
      <trkpt lat="42.80743" lon="-0.03845">
        <ele>2014.1</ele>
        <time>2023-10-31T12:29:47Z</time>
      </trkpt>
      <trkpt lat="42.80742" lon="-0.03847">
        <ele>2013.8</ele>
        <time>2023-10-31T12:29:48Z</time>
      </trkpt>
      <trkpt lat="42.80742" lon="-0.03848">
        <ele>2013.6</ele>
        <time>2023-10-31T12:29:49Z</time>
      </trkpt>
      <trkpt lat="42.80741" lon="-0.03849">
        <ele>2013.5</ele>
        <time>2023-10-31T12:29:50Z</time>
      </trkpt>
      <trkpt lat="42.80742" lon="-0.03851">
        <ele>2013.3</ele>
        <time>2023-10-31T12:29:51Z</time>
      </trkpt>
      <trkpt lat="42.80743" lon="-0.03852">
        <ele>2013.1</ele>
        <time>2023-10-31T12:29:52Z</time>
      </trkpt>
      <trkpt lat="42.80743" lon="-0.03853">
        <ele>2012.9</ele>
        <time>2023-10-31T12:29:53Z</time>
      </trkpt>
      <trkpt lat="42.80743" lon="-0.03854">
        <ele>2012.7</ele>
        <time>2023-10-31T12:29:54Z</time>
      </trkpt>
      <trkpt lat="42.80743" lon="-0.03856">
        <ele>2012.5</ele>
        <time>2023-10-31T12:29:55Z</time>
      </trkpt>
      <trkpt lat="42.80743" lon="-0.03857">
        <ele>2012.3</ele>
        <time>2023-10-31T12:29:56Z</time>
      </trkpt>
      <trkpt lat="42.80741" lon="-0.03857">
        <ele>2012.1</ele>
        <time>2023-10-31T12:29:57Z</time>
      </trkpt>
      <trkpt lat="42.8074" lon="-0.03857">
        <ele>2011.8</ele>
        <time>2023-10-31T12:29:58Z</time>
      </trkpt>
      <trkpt lat="42.80739" lon="-0.03857">
        <ele>2011.6</ele>
        <time>2023-10-31T12:29:59Z</time>
      </trkpt>
      <trkpt lat="42.80739" lon="-0.03859">
        <ele>2011.4</ele>
        <time>2023-10-31T12:30:00Z</time>
      </trkpt>
      <trkpt lat="42.80738" lon="-0.0386">
        <ele>2011.2</ele>
        <time>2023-10-31T12:30:01Z</time>
      </trkpt>
      <trkpt lat="42.80738" lon="-0.03861">
        <ele>2011</ele>
        <time>2023-10-31T12:30:02Z</time>
      </trkpt>
      <trkpt lat="42.80737" lon="-0.03861">
        <ele>2010.9</ele>
        <time>2023-10-31T12:30:03Z</time>
      </trkpt>
      <trkpt lat="42.80737" lon="-0.03861">
        <ele>2010.8</ele>
        <time>2023-10-31T12:30:04Z</time>
      </trkpt>
      <trkpt lat="42.80736" lon="-0.03862">
        <ele>2010.7</ele>
        <time>2023-10-31T12:30:05Z</time>
      </trkpt>
      <trkpt lat="42.80735" lon="-0.03863">
        <ele>2010.5</ele>
        <time>2023-10-31T12:30:06Z</time>
      </trkpt>
      <trkpt lat="42.80735" lon="-0.03864">
        <ele>2010.3</ele>
        <time>2023-10-31T12:30:07Z</time>
      </trkpt>
      <trkpt lat="42.80734" lon="-0.03865">
        <ele>2010.2</ele>
        <time>2023-10-31T12:30:08Z</time>
      </trkpt>
      <trkpt lat="42.80734" lon="-0.03866">
        <ele>2010</ele>
        <time>2023-10-31T12:30:09Z</time>
      </trkpt>
      <trkpt lat="42.80733" lon="-0.03867">
        <ele>2009.8</ele>
        <time>2023-10-31T12:30:10Z</time>
      </trkpt>
      <trkpt lat="42.80732" lon="-0.03868">
        <ele>2009.6</ele>
        <time>2023-10-31T12:30:11Z</time>
      </trkpt>
      <trkpt lat="42.80732" lon="-0.03869">
        <ele>2009.4</ele>
        <time>2023-10-31T12:30:12Z</time>
      </trkpt>
      <trkpt lat="42.80732" lon="-0.0387">
        <ele>2009.3</ele>
        <time>2023-10-31T12:30:13Z</time>
      </trkpt>
      <trkpt lat="42.80732" lon="-0.03871">
        <ele>2009.2</ele>
        <time>2023-10-31T12:30:14Z</time>
      </trkpt>
      <trkpt lat="42.80731" lon="-0.03872">
        <ele>2009.1</ele>
        <time>2023-10-31T12:30:15Z</time>
      </trkpt>
      <trkpt lat="42.80731" lon="-0.03873">
        <ele>2008.9</ele>
        <time>2023-10-31T12:30:16Z</time>
      </trkpt>
      <trkpt lat="42.8073" lon="-0.03875">
        <ele>2008.7</ele>
        <time>2023-10-31T12:30:17Z</time>
      </trkpt>
      <trkpt lat="42.8073" lon="-0.03876">
        <ele>2008.6</ele>
        <time>2023-10-31T12:30:18Z</time>
      </trkpt>
      <trkpt lat="42.8073" lon="-0.03877">
        <ele>2008.4</ele>
        <time>2023-10-31T12:30:19Z</time>
      </trkpt>
      <trkpt lat="42.80729" lon="-0.03879">
        <ele>2008.1</ele>
        <time>2023-10-31T12:30:20Z</time>
      </trkpt>
      <trkpt lat="42.80728" lon="-0.0388">
        <ele>2007.9</ele>
        <time>2023-10-31T12:30:21Z</time>
      </trkpt>
      <trkpt lat="42.80728" lon="-0.03881">
        <ele>2007.7</ele>
        <time>2023-10-31T12:30:22Z</time>
      </trkpt>
      <trkpt lat="42.80727" lon="-0.03882">
        <ele>2007.6</ele>
        <time>2023-10-31T12:30:23Z</time>
      </trkpt>
      <trkpt lat="42.80727" lon="-0.03884">
        <ele>2007.3</ele>
        <time>2023-10-31T12:30:24Z</time>
      </trkpt>
      <trkpt lat="42.80727" lon="-0.03886">
        <ele>2007.2</ele>
        <time>2023-10-31T12:30:25Z</time>
      </trkpt>
      <trkpt lat="42.80726" lon="-0.03887">
        <ele>2007</ele>
        <time>2023-10-31T12:30:26Z</time>
      </trkpt>
      <trkpt lat="42.80726" lon="-0.03888">
        <ele>2006.8</ele>
        <time>2023-10-31T12:30:27Z</time>
      </trkpt>
      <trkpt lat="42.80726" lon="-0.0389">
        <ele>2006.6</ele>
        <time>2023-10-31T12:30:28Z</time>
      </trkpt>
      <trkpt lat="42.80726" lon="-0.03891">
        <ele>2006.4</ele>
        <time>2023-10-31T12:30:29Z</time>
      </trkpt>
      <trkpt lat="42.80725" lon="-0.03892">
        <ele>2006.2</ele>
        <time>2023-10-31T12:30:30Z</time>
      </trkpt>
      <trkpt lat="42.80725" lon="-0.03893">
        <ele>2006</ele>
        <time>2023-10-31T12:30:31Z</time>
      </trkpt>
      <trkpt lat="42.80724" lon="-0.03895">
        <ele>2005.7</ele>
        <time>2023-10-31T12:30:32Z</time>
      </trkpt>
      <trkpt lat="42.80724" lon="-0.03896">
        <ele>2005.5</ele>
        <time>2023-10-31T12:30:33Z</time>
      </trkpt>
      <trkpt lat="42.80724" lon="-0.03898">
        <ele>2005.2</ele>
        <time>2023-10-31T12:30:34Z</time>
      </trkpt>
      <trkpt lat="42.80724" lon="-0.03899">
        <ele>2005.1</ele>
        <time>2023-10-31T12:30:35Z</time>
      </trkpt>
      <trkpt lat="42.80725" lon="-0.03899">
        <ele>2005</ele>
        <time>2023-10-31T12:30:36Z</time>
      </trkpt>
      <trkpt lat="42.80725" lon="-0.03897">
        <ele>2004.6</ele>
        <time>2023-10-31T12:30:37Z</time>
      </trkpt>
      <trkpt lat="42.80725" lon="-0.03896">
        <ele>2004.6</ele>
        <time>2023-10-31T12:30:38Z</time>
      </trkpt>
      <trkpt lat="42.80725" lon="-0.03896">
        <ele>2004.6</ele>
        <time>2023-10-31T12:30:39Z</time>
      </trkpt>
      <trkpt lat="42.80725" lon="-0.03896">
        <ele>2004.5</ele>
        <time>2023-10-31T12:30:40Z</time>
      </trkpt>
      <trkpt lat="42.80725" lon="-0.03896">
        <ele>2004.5</ele>
        <time>2023-10-31T12:30:41Z</time>
      </trkpt>
      <trkpt lat="42.80724" lon="-0.03896">
        <ele>2004.4</ele>
        <time>2023-10-31T12:30:42Z</time>
      </trkpt>
      <trkpt lat="42.80724" lon="-0.03897">
        <ele>2004.3</ele>
        <time>2023-10-31T12:30:43Z</time>
      </trkpt>
      <trkpt lat="42.80724" lon="-0.03898">
        <ele>2004</ele>
        <time>2023-10-31T12:30:44Z</time>
      </trkpt>
      <trkpt lat="42.80723" lon="-0.039">
        <ele>2003.8</ele>
        <time>2023-10-31T12:30:45Z</time>
      </trkpt>
      <trkpt lat="42.80723" lon="-0.039">
        <ele>2003.6</ele>
        <time>2023-10-31T12:30:46Z</time>
      </trkpt>
      <trkpt lat="42.80723" lon="-0.03901">
        <ele>2003.5</ele>
        <time>2023-10-31T12:30:47Z</time>
      </trkpt>
      <trkpt lat="42.80723" lon="-0.03902">
        <ele>2003.4</ele>
        <time>2023-10-31T12:30:48Z</time>
      </trkpt>
      <trkpt lat="42.80723" lon="-0.03902">
        <ele>2003.2</ele>
        <time>2023-10-31T12:30:49Z</time>
      </trkpt>
      <trkpt lat="42.80722" lon="-0.03903">
        <ele>2003.1</ele>
        <time>2023-10-31T12:30:50Z</time>
      </trkpt>
      <trkpt lat="42.80722" lon="-0.03903">
        <ele>2002.9</ele>
        <time>2023-10-31T12:30:51Z</time>
      </trkpt>
      <trkpt lat="42.80722" lon="-0.03903">
        <ele>2002.8</ele>
        <time>2023-10-31T12:30:52Z</time>
      </trkpt>
      <trkpt lat="42.80722" lon="-0.03904">
        <ele>2002.6</ele>
        <time>2023-10-31T12:30:53Z</time>
      </trkpt>
      <trkpt lat="42.80722" lon="-0.03906">
        <ele>2002.3</ele>
        <time>2023-10-31T12:30:54Z</time>
      </trkpt>
      <trkpt lat="42.80721" lon="-0.03906">
        <ele>2002.1</ele>
        <time>2023-10-31T12:30:55Z</time>
      </trkpt>
      <trkpt lat="42.8072" lon="-0.03906">
        <ele>2001.9</ele>
        <time>2023-10-31T12:30:56Z</time>
      </trkpt>
      <trkpt lat="42.8072" lon="-0.03907">
        <ele>2001.8</ele>
        <time>2023-10-31T12:30:57Z</time>
      </trkpt>
      <trkpt lat="42.80719" lon="-0.03907">
        <ele>2001.6</ele>
        <time>2023-10-31T12:30:58Z</time>
      </trkpt>
      <trkpt lat="42.80718" lon="-0.03908">
        <ele>2001.4</ele>
        <time>2023-10-31T12:30:59Z</time>
      </trkpt>
      <trkpt lat="42.80718" lon="-0.03909">
        <ele>2001.2</ele>
        <time>2023-10-31T12:31:00Z</time>
      </trkpt>
      <trkpt lat="42.80717" lon="-0.03909">
        <ele>2000.9</ele>
        <time>2023-10-31T12:31:01Z</time>
      </trkpt>
      <trkpt lat="42.80717" lon="-0.0391">
        <ele>2000.8</ele>
        <time>2023-10-31T12:31:02Z</time>
      </trkpt>
      <trkpt lat="42.80717" lon="-0.0391">
        <ele>2000.7</ele>
        <time>2023-10-31T12:31:03Z</time>
      </trkpt>
      <trkpt lat="42.80716" lon="-0.03911">
        <ele>2000.5</ele>
        <time>2023-10-31T12:31:04Z</time>
      </trkpt>
      <trkpt lat="42.80716" lon="-0.03911">
        <ele>2000.4</ele>
        <time>2023-10-31T12:31:05Z</time>
      </trkpt>
      <trkpt lat="42.80716" lon="-0.03912">
        <ele>2000.2</ele>
        <time>2023-10-31T12:31:06Z</time>
      </trkpt>
      <trkpt lat="42.80715" lon="-0.03913">
        <ele>2000</ele>
        <time>2023-10-31T12:31:07Z</time>
      </trkpt>
      <trkpt lat="42.80715" lon="-0.03915">
        <ele>1999.6</ele>
        <time>2023-10-31T12:31:08Z</time>
      </trkpt>
      <trkpt lat="42.80714" lon="-0.03916">
        <ele>1999.5</ele>
        <time>2023-10-31T12:31:09Z</time>
      </trkpt>
      <trkpt lat="42.80713" lon="-0.03916">
        <ele>1999.2</ele>
        <time>2023-10-31T12:31:10Z</time>
      </trkpt>
      <trkpt lat="42.80713" lon="-0.03918">
        <ele>1999</ele>
        <time>2023-10-31T12:31:11Z</time>
      </trkpt>
      <trkpt lat="42.80712" lon="-0.03918">
        <ele>1998.8</ele>
        <time>2023-10-31T12:31:12Z</time>
      </trkpt>
      <trkpt lat="42.80712" lon="-0.03919">
        <ele>1998.6</ele>
        <time>2023-10-31T12:31:13Z</time>
      </trkpt>
      <trkpt lat="42.80711" lon="-0.0392">
        <ele>1998.4</ele>
        <time>2023-10-31T12:31:14Z</time>
      </trkpt>
      <trkpt lat="42.80711" lon="-0.0392">
        <ele>1998.2</ele>
        <time>2023-10-31T12:31:15Z</time>
      </trkpt>
      <trkpt lat="42.8071" lon="-0.03921">
        <ele>1998.1</ele>
        <time>2023-10-31T12:31:16Z</time>
      </trkpt>
      <trkpt lat="42.8071" lon="-0.03922">
        <ele>1997.9</ele>
        <time>2023-10-31T12:31:17Z</time>
      </trkpt>
      <trkpt lat="42.8071" lon="-0.03922">
        <ele>1997.8</ele>
        <time>2023-10-31T12:31:18Z</time>
      </trkpt>
      <trkpt lat="42.8071" lon="-0.03923">
        <ele>1997.7</ele>
        <time>2023-10-31T12:31:19Z</time>
      </trkpt>
      <trkpt lat="42.8071" lon="-0.03924">
        <ele>1997.5</ele>
        <time>2023-10-31T12:31:20Z</time>
      </trkpt>
      <trkpt lat="42.80709" lon="-0.03924">
        <ele>1997.5</ele>
        <time>2023-10-31T12:31:21Z</time>
      </trkpt>
      <trkpt lat="42.80709" lon="-0.03925">
        <ele>1997.3</ele>
        <time>2023-10-31T12:31:22Z</time>
      </trkpt>
      <trkpt lat="42.80709" lon="-0.03927">
        <ele>1997.1</ele>
        <time>2023-10-31T12:31:23Z</time>
      </trkpt>
      <trkpt lat="42.80709" lon="-0.03928">
        <ele>1996.8</ele>
        <time>2023-10-31T12:31:24Z</time>
      </trkpt>
      <trkpt lat="42.80708" lon="-0.03929">
        <ele>1996.5</ele>
        <time>2023-10-31T12:31:25Z</time>
      </trkpt>
      <trkpt lat="42.80708" lon="-0.0393">
        <ele>1996.4</ele>
        <time>2023-10-31T12:31:26Z</time>
      </trkpt>
      <trkpt lat="42.80707" lon="-0.0393">
        <ele>1996.2</ele>
        <time>2023-10-31T12:31:27Z</time>
      </trkpt>
      <trkpt lat="42.80707" lon="-0.03931">
        <ele>1996.1</ele>
        <time>2023-10-31T12:31:28Z</time>
      </trkpt>
      <trkpt lat="42.80706" lon="-0.03931">
        <ele>1996</ele>
        <time>2023-10-31T12:31:29Z</time>
      </trkpt>
      <trkpt lat="42.80705" lon="-0.03933">
        <ele>1995.6</ele>
        <time>2023-10-31T12:31:30Z</time>
      </trkpt>
      <trkpt lat="42.80705" lon="-0.03934">
        <ele>1995.5</ele>
        <time>2023-10-31T12:31:31Z</time>
      </trkpt>
      <trkpt lat="42.80705" lon="-0.03934">
        <ele>1995.3</ele>
        <time>2023-10-31T12:31:32Z</time>
      </trkpt>
      <trkpt lat="42.80704" lon="-0.03935">
        <ele>1995.1</ele>
        <time>2023-10-31T12:31:33Z</time>
      </trkpt>
      <trkpt lat="42.80704" lon="-0.03937">
        <ele>1994.9</ele>
        <time>2023-10-31T12:31:34Z</time>
      </trkpt>
      <trkpt lat="42.80703" lon="-0.03938">
        <ele>1994.6</ele>
        <time>2023-10-31T12:31:35Z</time>
      </trkpt>
      <trkpt lat="42.80702" lon="-0.03938">
        <ele>1994.6</ele>
        <time>2023-10-31T12:31:36Z</time>
      </trkpt>
      <trkpt lat="42.80702" lon="-0.03939">
        <ele>1994.4</ele>
        <time>2023-10-31T12:31:37Z</time>
      </trkpt>
      <trkpt lat="42.80703" lon="-0.03939">
        <ele>1994.3</ele>
        <time>2023-10-31T12:31:38Z</time>
      </trkpt>
      <trkpt lat="42.80703" lon="-0.03939">
        <ele>1994.3</ele>
        <time>2023-10-31T12:31:39Z</time>
      </trkpt>
      <trkpt lat="42.80703" lon="-0.03939">
        <ele>1994.2</ele>
        <time>2023-10-31T12:31:40Z</time>
      </trkpt>
      <trkpt lat="42.80703" lon="-0.03939">
        <ele>1994.2</ele>
        <time>2023-10-31T12:31:41Z</time>
      </trkpt>
      <trkpt lat="42.80702" lon="-0.03939">
        <ele>1994.1</ele>
        <time>2023-10-31T12:31:42Z</time>
      </trkpt>
      <trkpt lat="42.80702" lon="-0.03939">
        <ele>1994.1</ele>
        <time>2023-10-31T12:31:43Z</time>
      </trkpt>
      <trkpt lat="42.80702" lon="-0.03939">
        <ele>1994.1</ele>
        <time>2023-10-31T12:31:44Z</time>
      </trkpt>
      <trkpt lat="42.80702" lon="-0.0394">
        <ele>1994</ele>
        <time>2023-10-31T12:31:45Z</time>
      </trkpt>
      <trkpt lat="42.80702" lon="-0.0394">
        <ele>1994</ele>
        <time>2023-10-31T12:31:46Z</time>
      </trkpt>
      <trkpt lat="42.80702" lon="-0.0394">
        <ele>1994</ele>
        <time>2023-10-31T12:31:47Z</time>
      </trkpt>
      <trkpt lat="42.80703" lon="-0.0394">
        <ele>1994</ele>
        <time>2023-10-31T12:31:48Z</time>
      </trkpt>
      <trkpt lat="42.80702" lon="-0.03939">
        <ele>1993.8</ele>
        <time>2023-10-31T12:31:49Z</time>
      </trkpt>
      <trkpt lat="42.80702" lon="-0.03939">
        <ele>1993.8</ele>
        <time>2023-10-31T12:31:50Z</time>
      </trkpt>
      <trkpt lat="42.80702" lon="-0.0394">
        <ele>1993.7</ele>
        <time>2023-10-31T12:31:51Z</time>
      </trkpt>
      <trkpt lat="42.80702" lon="-0.03941">
        <ele>1993.5</ele>
        <time>2023-10-31T12:31:52Z</time>
      </trkpt>
      <trkpt lat="42.80702" lon="-0.03942">
        <ele>1993.4</ele>
        <time>2023-10-31T12:31:53Z</time>
      </trkpt>
      <trkpt lat="42.80701" lon="-0.03943">
        <ele>1993.3</ele>
        <time>2023-10-31T12:31:54Z</time>
      </trkpt>
      <trkpt lat="42.80701" lon="-0.03944">
        <ele>1993.1</ele>
        <time>2023-10-31T12:31:55Z</time>
      </trkpt>
      <trkpt lat="42.80701" lon="-0.03944">
        <ele>1993</ele>
        <time>2023-10-31T12:31:56Z</time>
      </trkpt>
      <trkpt lat="42.80701" lon="-0.03945">
        <ele>1992.8</ele>
        <time>2023-10-31T12:31:57Z</time>
      </trkpt>
      <trkpt lat="42.80701" lon="-0.03947">
        <ele>1992.6</ele>
        <time>2023-10-31T12:31:58Z</time>
      </trkpt>
      <trkpt lat="42.80699" lon="-0.03949">
        <ele>1992.3</ele>
        <time>2023-10-31T12:31:59Z</time>
      </trkpt>
      <trkpt lat="42.80699" lon="-0.0395">
        <ele>1992.1</ele>
        <time>2023-10-31T12:32:00Z</time>
      </trkpt>
      <trkpt lat="42.80698" lon="-0.03951">
        <ele>1992</ele>
        <time>2023-10-31T12:32:01Z</time>
      </trkpt>
      <trkpt lat="42.80698" lon="-0.03952">
        <ele>1991.8</ele>
        <time>2023-10-31T12:32:02Z</time>
      </trkpt>
      <trkpt lat="42.80697" lon="-0.03952">
        <ele>1991.7</ele>
        <time>2023-10-31T12:32:03Z</time>
      </trkpt>
      <trkpt lat="42.80697" lon="-0.03954">
        <ele>1991.4</ele>
        <time>2023-10-31T12:32:04Z</time>
      </trkpt>
      <trkpt lat="42.80696" lon="-0.03955">
        <ele>1991.2</ele>
        <time>2023-10-31T12:32:05Z</time>
      </trkpt>
      <trkpt lat="42.80696" lon="-0.03956">
        <ele>1991</ele>
        <time>2023-10-31T12:32:06Z</time>
      </trkpt>
      <trkpt lat="42.80696" lon="-0.03958">
        <ele>1990.9</ele>
        <time>2023-10-31T12:32:07Z</time>
      </trkpt>
      <trkpt lat="42.80695" lon="-0.0396">
        <ele>1990.4</ele>
        <time>2023-10-31T12:32:08Z</time>
      </trkpt>
      <trkpt lat="42.80694" lon="-0.03962">
        <ele>1990.3</ele>
        <time>2023-10-31T12:32:09Z</time>
      </trkpt>
      <trkpt lat="42.80694" lon="-0.03963">
        <ele>1990.1</ele>
        <time>2023-10-31T12:32:10Z</time>
      </trkpt>
      <trkpt lat="42.80693" lon="-0.03965">
        <ele>1989.7</ele>
        <time>2023-10-31T12:32:11Z</time>
      </trkpt>
      <trkpt lat="42.80692" lon="-0.03966">
        <ele>1989.6</ele>
        <time>2023-10-31T12:32:12Z</time>
      </trkpt>
      <trkpt lat="42.80692" lon="-0.03967">
        <ele>1989.4</ele>
        <time>2023-10-31T12:32:13Z</time>
      </trkpt>
      <trkpt lat="42.80692" lon="-0.03968">
        <ele>1989.2</ele>
        <time>2023-10-31T12:32:14Z</time>
      </trkpt>
      <trkpt lat="42.80691" lon="-0.0397">
        <ele>1989</ele>
        <time>2023-10-31T12:32:15Z</time>
      </trkpt>
      <trkpt lat="42.8069" lon="-0.03971">
        <ele>1988.9</ele>
        <time>2023-10-31T12:32:16Z</time>
      </trkpt>
      <trkpt lat="42.80689" lon="-0.03971">
        <ele>1988.5</ele>
        <time>2023-10-31T12:32:17Z</time>
      </trkpt>
      <trkpt lat="42.80688" lon="-0.03971">
        <ele>1988.4</ele>
        <time>2023-10-31T12:32:18Z</time>
      </trkpt>
      <trkpt lat="42.80688" lon="-0.03971">
        <ele>1988.3</ele>
        <time>2023-10-31T12:32:19Z</time>
      </trkpt>
      <trkpt lat="42.80687" lon="-0.03971">
        <ele>1988.2</ele>
        <time>2023-10-31T12:32:20Z</time>
      </trkpt>
      <trkpt lat="42.80686" lon="-0.03971">
        <ele>1988.1</ele>
        <time>2023-10-31T12:32:21Z</time>
      </trkpt>
      <trkpt lat="42.80686" lon="-0.03972">
        <ele>1987.9</ele>
        <time>2023-10-31T12:32:22Z</time>
      </trkpt>
      <trkpt lat="42.80685" lon="-0.03973">
        <ele>1987.7</ele>
        <time>2023-10-31T12:32:23Z</time>
      </trkpt>
      <trkpt lat="42.80684" lon="-0.03973">
        <ele>1987.6</ele>
        <time>2023-10-31T12:32:24Z</time>
      </trkpt>
      <trkpt lat="42.80683" lon="-0.03973">
        <ele>1987.4</ele>
        <time>2023-10-31T12:32:25Z</time>
      </trkpt>
      <trkpt lat="42.80683" lon="-0.03974">
        <ele>1987.3</ele>
        <time>2023-10-31T12:32:26Z</time>
      </trkpt>
      <trkpt lat="42.80682" lon="-0.03974">
        <ele>1987</ele>
        <time>2023-10-31T12:32:27Z</time>
      </trkpt>
      <trkpt lat="42.80681" lon="-0.03974">
        <ele>1986.8</ele>
        <time>2023-10-31T12:32:28Z</time>
      </trkpt>
      <trkpt lat="42.8068" lon="-0.03975">
        <ele>1986.6</ele>
        <time>2023-10-31T12:32:29Z</time>
      </trkpt>
      <trkpt lat="42.80679" lon="-0.03974">
        <ele>1986.4</ele>
        <time>2023-10-31T12:32:30Z</time>
      </trkpt>
      <trkpt lat="42.80677" lon="-0.03974">
        <ele>1986.1</ele>
        <time>2023-10-31T12:32:31Z</time>
      </trkpt>
      <trkpt lat="42.80676" lon="-0.03975">
        <ele>1985.8</ele>
        <time>2023-10-31T12:32:32Z</time>
      </trkpt>
      <trkpt lat="42.80675" lon="-0.03974">
        <ele>1985.6</ele>
        <time>2023-10-31T12:32:33Z</time>
      </trkpt>
      <trkpt lat="42.80674" lon="-0.03974">
        <ele>1985.3</ele>
        <time>2023-10-31T12:32:34Z</time>
      </trkpt>
      <trkpt lat="42.80673" lon="-0.03974">
        <ele>1985.1</ele>
        <time>2023-10-31T12:32:35Z</time>
      </trkpt>
      <trkpt lat="42.80672" lon="-0.03974">
        <ele>1984.9</ele>
        <time>2023-10-31T12:32:36Z</time>
      </trkpt>
      <trkpt lat="42.80671" lon="-0.03973">
        <ele>1984.7</ele>
        <time>2023-10-31T12:32:37Z</time>
      </trkpt>
      <trkpt lat="42.80671" lon="-0.03973">
        <ele>1984.7</ele>
        <time>2023-10-31T12:32:38Z</time>
      </trkpt>
      <trkpt lat="42.80671" lon="-0.03973">
        <ele>1984.6</ele>
        <time>2023-10-31T12:32:39Z</time>
      </trkpt>
      <trkpt lat="42.80671" lon="-0.03973">
        <ele>1984.6</ele>
        <time>2023-10-31T12:32:40Z</time>
      </trkpt>
      <trkpt lat="42.80671" lon="-0.03973">
        <ele>1984.5</ele>
        <time>2023-10-31T12:32:41Z</time>
      </trkpt>
      <trkpt lat="42.80671" lon="-0.03973">
        <ele>1984.5</ele>
        <time>2023-10-31T12:32:42Z</time>
      </trkpt>
      <trkpt lat="42.80671" lon="-0.03972">
        <ele>1984.5</ele>
        <time>2023-10-31T12:32:43Z</time>
      </trkpt>
      <trkpt lat="42.80671" lon="-0.03972">
        <ele>1984.4</ele>
        <time>2023-10-31T12:32:44Z</time>
      </trkpt>
      <trkpt lat="42.80671" lon="-0.03972">
        <ele>1984.4</ele>
        <time>2023-10-31T12:32:45Z</time>
      </trkpt>
      <trkpt lat="42.8067" lon="-0.03972">
        <ele>1984.4</ele>
        <time>2023-10-31T12:32:46Z</time>
      </trkpt>
      <trkpt lat="42.8067" lon="-0.03972">
        <ele>1984.3</ele>
        <time>2023-10-31T12:32:47Z</time>
      </trkpt>
      <trkpt lat="42.8067" lon="-0.03972">
        <ele>1984.3</ele>
        <time>2023-10-31T12:32:48Z</time>
      </trkpt>
      <trkpt lat="42.8067" lon="-0.03972">
        <ele>1984.3</ele>
        <time>2023-10-31T12:32:49Z</time>
      </trkpt>
      <trkpt lat="42.8067" lon="-0.03972">
        <ele>1984.2</ele>
        <time>2023-10-31T12:32:50Z</time>
      </trkpt>
      <trkpt lat="42.8067" lon="-0.03972">
        <ele>1984.2</ele>
        <time>2023-10-31T12:32:51Z</time>
      </trkpt>
      <trkpt lat="42.8067" lon="-0.03971">
        <ele>1984.2</ele>
        <time>2023-10-31T12:32:52Z</time>
      </trkpt>
      <trkpt lat="42.8067" lon="-0.03971">
        <ele>1984.1</ele>
        <time>2023-10-31T12:32:53Z</time>
      </trkpt>
      <trkpt lat="42.8067" lon="-0.03971">
        <ele>1984.1</ele>
        <time>2023-10-31T12:32:54Z</time>
      </trkpt>
      <trkpt lat="42.80669" lon="-0.03971">
        <ele>1984</ele>
        <time>2023-10-31T12:32:55Z</time>
      </trkpt>
      <trkpt lat="42.80669" lon="-0.03971">
        <ele>1984</ele>
        <time>2023-10-31T12:32:56Z</time>
      </trkpt>
      <trkpt lat="42.80669" lon="-0.03971">
        <ele>1984</ele>
        <time>2023-10-31T12:32:57Z</time>
      </trkpt>
      <trkpt lat="42.80669" lon="-0.03971">
        <ele>1984</ele>
        <time>2023-10-31T12:32:58Z</time>
      </trkpt>
      <trkpt lat="42.80669" lon="-0.03971">
        <ele>1983.9</ele>
        <time>2023-10-31T12:32:59Z</time>
      </trkpt>
      <trkpt lat="42.80669" lon="-0.03971">
        <ele>1983.9</ele>
        <time>2023-10-31T12:33:00Z</time>
      </trkpt>
      <trkpt lat="42.80669" lon="-0.0397">
        <ele>1983.8</ele>
        <time>2023-10-31T12:33:01Z</time>
      </trkpt>
      <trkpt lat="42.80669" lon="-0.0397">
        <ele>1983.8</ele>
        <time>2023-10-31T12:33:02Z</time>
      </trkpt>
      <trkpt lat="42.80669" lon="-0.0397">
        <ele>1983.8</ele>
        <time>2023-10-31T12:33:03Z</time>
      </trkpt>
      <trkpt lat="42.80668" lon="-0.0397">
        <ele>1983.7</ele>
        <time>2023-10-31T12:33:04Z</time>
      </trkpt>
      <trkpt lat="42.80668" lon="-0.0397">
        <ele>1983.7</ele>
        <time>2023-10-31T12:33:05Z</time>
      </trkpt>
      <trkpt lat="42.80668" lon="-0.0397">
        <ele>1983.6</ele>
        <time>2023-10-31T12:33:06Z</time>
      </trkpt>
      <trkpt lat="42.80668" lon="-0.0397">
        <ele>1983.6</ele>
        <time>2023-10-31T12:33:07Z</time>
      </trkpt>
      <trkpt lat="42.80667" lon="-0.03969">
        <ele>1983.4</ele>
        <time>2023-10-31T12:33:08Z</time>
      </trkpt>
      <trkpt lat="42.80667" lon="-0.03968">
        <ele>1983.2</ele>
        <time>2023-10-31T12:33:09Z</time>
      </trkpt>
      <trkpt lat="42.80666" lon="-0.03968">
        <ele>1983</ele>
        <time>2023-10-31T12:33:10Z</time>
      </trkpt>
      <trkpt lat="42.80666" lon="-0.03968">
        <ele>1982.9</ele>
        <time>2023-10-31T12:33:11Z</time>
      </trkpt>
      <trkpt lat="42.80665" lon="-0.03968">
        <ele>1982.7</ele>
        <time>2023-10-31T12:33:12Z</time>
      </trkpt>
      <trkpt lat="42.80664" lon="-0.03967">
        <ele>1982.5</ele>
        <time>2023-10-31T12:33:13Z</time>
      </trkpt>
      <trkpt lat="42.80664" lon="-0.03967">
        <ele>1982.4</ele>
        <time>2023-10-31T12:33:14Z</time>
      </trkpt>
      <trkpt lat="42.80664" lon="-0.03967">
        <ele>1982.2</ele>
        <time>2023-10-31T12:33:15Z</time>
      </trkpt>
      <trkpt lat="42.80663" lon="-0.03966">
        <ele>1982.1</ele>
        <time>2023-10-31T12:33:16Z</time>
      </trkpt>
      <trkpt lat="42.80662" lon="-0.03967">
        <ele>1981.8</ele>
        <time>2023-10-31T12:33:17Z</time>
      </trkpt>
      <trkpt lat="42.80662" lon="-0.03968">
        <ele>1981.6</ele>
        <time>2023-10-31T12:33:18Z</time>
      </trkpt>
      <trkpt lat="42.80662" lon="-0.03969">
        <ele>1981.5</ele>
        <time>2023-10-31T12:33:19Z</time>
      </trkpt>
      <trkpt lat="42.80661" lon="-0.03969">
        <ele>1981.3</ele>
        <time>2023-10-31T12:33:20Z</time>
      </trkpt>
      <trkpt lat="42.80661" lon="-0.0397">
        <ele>1981.1</ele>
        <time>2023-10-31T12:33:21Z</time>
      </trkpt>
      <trkpt lat="42.8066" lon="-0.03969">
        <ele>1980.7</ele>
        <time>2023-10-31T12:33:22Z</time>
      </trkpt>
      <trkpt lat="42.80659" lon="-0.03969">
        <ele>1980.5</ele>
        <time>2023-10-31T12:33:23Z</time>
      </trkpt>
      <trkpt lat="42.80658" lon="-0.03968">
        <ele>1980.3</ele>
        <time>2023-10-31T12:33:24Z</time>
      </trkpt>
      <trkpt lat="42.80658" lon="-0.03968">
        <ele>1980.1</ele>
        <time>2023-10-31T12:33:25Z</time>
      </trkpt>
      <trkpt lat="42.80657" lon="-0.03968">
        <ele>1979.9</ele>
        <time>2023-10-31T12:33:26Z</time>
      </trkpt>
      <trkpt lat="42.80656" lon="-0.03968">
        <ele>1979.7</ele>
        <time>2023-10-31T12:33:27Z</time>
      </trkpt>
      <trkpt lat="42.80655" lon="-0.03968">
        <ele>1979.5</ele>
        <time>2023-10-31T12:33:28Z</time>
      </trkpt>
      <trkpt lat="42.80654" lon="-0.03968">
        <ele>1979.3</ele>
        <time>2023-10-31T12:33:29Z</time>
      </trkpt>
      <trkpt lat="42.80653" lon="-0.03968">
        <ele>1979.1</ele>
        <time>2023-10-31T12:33:30Z</time>
      </trkpt>
      <trkpt lat="42.80653" lon="-0.03967">
        <ele>1978.8</ele>
        <time>2023-10-31T12:33:31Z</time>
      </trkpt>
      <trkpt lat="42.80652" lon="-0.03966">
        <ele>1978.5</ele>
        <time>2023-10-31T12:33:32Z</time>
      </trkpt>
      <trkpt lat="42.80651" lon="-0.03966">
        <ele>1978.3</ele>
        <time>2023-10-31T12:33:33Z</time>
      </trkpt>
      <trkpt lat="42.80651" lon="-0.03966">
        <ele>1978.2</ele>
        <time>2023-10-31T12:33:34Z</time>
      </trkpt>
      <trkpt lat="42.8065" lon="-0.03965">
        <ele>1978</ele>
        <time>2023-10-31T12:33:35Z</time>
      </trkpt>
      <trkpt lat="42.80649" lon="-0.03964">
        <ele>1977.7</ele>
        <time>2023-10-31T12:33:36Z</time>
      </trkpt>
      <trkpt lat="42.80648" lon="-0.03964">
        <ele>1977.5</ele>
        <time>2023-10-31T12:33:37Z</time>
      </trkpt>
      <trkpt lat="42.80647" lon="-0.03964">
        <ele>1977.3</ele>
        <time>2023-10-31T12:33:38Z</time>
      </trkpt>
      <trkpt lat="42.80646" lon="-0.03964">
        <ele>1977.1</ele>
        <time>2023-10-31T12:33:39Z</time>
      </trkpt>
      <trkpt lat="42.80645" lon="-0.03964">
        <ele>1976.7</ele>
        <time>2023-10-31T12:33:40Z</time>
      </trkpt>
      <trkpt lat="42.80644" lon="-0.03965">
        <ele>1976.5</ele>
        <time>2023-10-31T12:33:41Z</time>
      </trkpt>
      <trkpt lat="42.80643" lon="-0.03965">
        <ele>1976.3</ele>
        <time>2023-10-31T12:33:42Z</time>
      </trkpt>
      <trkpt lat="42.80642" lon="-0.03966">
        <ele>1976.2</ele>
        <time>2023-10-31T12:33:43Z</time>
      </trkpt>
      <trkpt lat="42.80642" lon="-0.03967">
        <ele>1975.9</ele>
        <time>2023-10-31T12:33:44Z</time>
      </trkpt>
      <trkpt lat="42.80641" lon="-0.03968">
        <ele>1975.7</ele>
        <time>2023-10-31T12:33:45Z</time>
      </trkpt>
      <trkpt lat="42.80641" lon="-0.03969">
        <ele>1975.5</ele>
        <time>2023-10-31T12:33:46Z</time>
      </trkpt>
      <trkpt lat="42.8064" lon="-0.03971">
        <ele>1975.2</ele>
        <time>2023-10-31T12:33:47Z</time>
      </trkpt>
      <trkpt lat="42.8064" lon="-0.03972">
        <ele>1975</ele>
        <time>2023-10-31T12:33:48Z</time>
      </trkpt>
      <trkpt lat="42.80639" lon="-0.03972">
        <ele>1974.8</ele>
        <time>2023-10-31T12:33:49Z</time>
      </trkpt>
      <trkpt lat="42.80638" lon="-0.03974">
        <ele>1974.6</ele>
        <time>2023-10-31T12:33:50Z</time>
      </trkpt>
      <trkpt lat="42.80637" lon="-0.03974">
        <ele>1974.4</ele>
        <time>2023-10-31T12:33:51Z</time>
      </trkpt>
      <trkpt lat="42.80636" lon="-0.03974">
        <ele>1974.3</ele>
        <time>2023-10-31T12:33:52Z</time>
      </trkpt>
      <trkpt lat="42.80635" lon="-0.03974">
        <ele>1974.1</ele>
        <time>2023-10-31T12:33:53Z</time>
      </trkpt>
      <trkpt lat="42.80634" lon="-0.03974">
        <ele>1973.9</ele>
        <time>2023-10-31T12:33:54Z</time>
      </trkpt>
      <trkpt lat="42.80633" lon="-0.03974">
        <ele>1973.7</ele>
        <time>2023-10-31T12:33:55Z</time>
      </trkpt>
      <trkpt lat="42.80632" lon="-0.03973">
        <ele>1973.4</ele>
        <time>2023-10-31T12:33:56Z</time>
      </trkpt>
      <trkpt lat="42.80631" lon="-0.03973">
        <ele>1973.3</ele>
        <time>2023-10-31T12:33:57Z</time>
      </trkpt>
      <trkpt lat="42.8063" lon="-0.03973">
        <ele>1973.2</ele>
        <time>2023-10-31T12:33:58Z</time>
      </trkpt>
      <trkpt lat="42.8063" lon="-0.03973">
        <ele>1973.1</ele>
        <time>2023-10-31T12:33:59Z</time>
      </trkpt>
      <trkpt lat="42.80629" lon="-0.03973">
        <ele>1973</ele>
        <time>2023-10-31T12:34:00Z</time>
      </trkpt>
      <trkpt lat="42.80629" lon="-0.03972">
        <ele>1972.9</ele>
        <time>2023-10-31T12:34:01Z</time>
      </trkpt>
      <trkpt lat="42.80628" lon="-0.03973">
        <ele>1972.7</ele>
        <time>2023-10-31T12:34:02Z</time>
      </trkpt>
      <trkpt lat="42.80627" lon="-0.03972">
        <ele>1972.7</ele>
        <time>2023-10-31T12:34:03Z</time>
      </trkpt>
      <trkpt lat="42.80627" lon="-0.03971">
        <ele>1972.5</ele>
        <time>2023-10-31T12:34:04Z</time>
      </trkpt>
      <trkpt lat="42.80626" lon="-0.03969">
        <ele>1972.3</ele>
        <time>2023-10-31T12:34:05Z</time>
      </trkpt>
      <trkpt lat="42.80625" lon="-0.03968">
        <ele>1972.1</ele>
        <time>2023-10-31T12:34:06Z</time>
      </trkpt>
      <trkpt lat="42.80623" lon="-0.03967">
        <ele>1971.9</ele>
        <time>2023-10-31T12:34:07Z</time>
      </trkpt>
      <trkpt lat="42.80622" lon="-0.03966">
        <ele>1971.7</ele>
        <time>2023-10-31T12:34:08Z</time>
      </trkpt>
      <trkpt lat="42.80621" lon="-0.03965">
        <ele>1971.5</ele>
        <time>2023-10-31T12:34:09Z</time>
      </trkpt>
      <trkpt lat="42.80619" lon="-0.03964">
        <ele>1971.4</ele>
        <time>2023-10-31T12:34:10Z</time>
      </trkpt>
      <trkpt lat="42.80618" lon="-0.03961">
        <ele>1971.2</ele>
        <time>2023-10-31T12:34:11Z</time>
      </trkpt>
      <trkpt lat="42.80618" lon="-0.0396">
        <ele>1971.1</ele>
        <time>2023-10-31T12:34:12Z</time>
      </trkpt>
      <trkpt lat="42.80618" lon="-0.03959">
        <ele>1971</ele>
        <time>2023-10-31T12:34:13Z</time>
      </trkpt>
      <trkpt lat="42.80616" lon="-0.03957">
        <ele>1970.8</ele>
        <time>2023-10-31T12:34:14Z</time>
      </trkpt>
      <trkpt lat="42.80616" lon="-0.03956">
        <ele>1970.7</ele>
        <time>2023-10-31T12:34:15Z</time>
      </trkpt>
      <trkpt lat="42.80615" lon="-0.03956">
        <ele>1970.7</ele>
        <time>2023-10-31T12:34:16Z</time>
      </trkpt>
      <trkpt lat="42.80615" lon="-0.03954">
        <ele>1970.6</ele>
        <time>2023-10-31T12:34:17Z</time>
      </trkpt>
      <trkpt lat="42.80614" lon="-0.03953">
        <ele>1970.5</ele>
        <time>2023-10-31T12:34:18Z</time>
      </trkpt>
      <trkpt lat="42.80613" lon="-0.03952">
        <ele>1970.4</ele>
        <time>2023-10-31T12:34:19Z</time>
      </trkpt>
      <trkpt lat="42.80612" lon="-0.0395">
        <ele>1970.2</ele>
        <time>2023-10-31T12:34:20Z</time>
      </trkpt>
      <trkpt lat="42.80611" lon="-0.03949">
        <ele>1970.1</ele>
        <time>2023-10-31T12:34:21Z</time>
      </trkpt>
      <trkpt lat="42.8061" lon="-0.03948">
        <ele>1970.1</ele>
        <time>2023-10-31T12:34:22Z</time>
      </trkpt>
      <trkpt lat="42.8061" lon="-0.03947">
        <ele>1970</ele>
        <time>2023-10-31T12:34:23Z</time>
      </trkpt>
      <trkpt lat="42.80609" lon="-0.03946">
        <ele>1969.9</ele>
        <time>2023-10-31T12:34:24Z</time>
      </trkpt>
      <trkpt lat="42.80608" lon="-0.03944">
        <ele>1969.8</ele>
        <time>2023-10-31T12:34:25Z</time>
      </trkpt>
      <trkpt lat="42.80608" lon="-0.03943">
        <ele>1969.7</ele>
        <time>2023-10-31T12:34:26Z</time>
      </trkpt>
      <trkpt lat="42.80608" lon="-0.03941">
        <ele>1969.6</ele>
        <time>2023-10-31T12:34:27Z</time>
      </trkpt>
      <trkpt lat="42.80607" lon="-0.0394">
        <ele>1969.5</ele>
        <time>2023-10-31T12:34:28Z</time>
      </trkpt>
      <trkpt lat="42.80607" lon="-0.03937">
        <ele>1969.3</ele>
        <time>2023-10-31T12:34:29Z</time>
      </trkpt>
      <trkpt lat="42.80607" lon="-0.03936">
        <ele>1969.3</ele>
        <time>2023-10-31T12:34:30Z</time>
      </trkpt>
      <trkpt lat="42.80607" lon="-0.03935">
        <ele>1969.2</ele>
        <time>2023-10-31T12:34:31Z</time>
      </trkpt>
      <trkpt lat="42.80606" lon="-0.03932">
        <ele>1969</ele>
        <time>2023-10-31T12:34:32Z</time>
      </trkpt>
      <trkpt lat="42.80606" lon="-0.03931">
        <ele>1968.9</ele>
        <time>2023-10-31T12:34:33Z</time>
      </trkpt>
      <trkpt lat="42.80606" lon="-0.0393">
        <ele>1968.9</ele>
        <time>2023-10-31T12:34:34Z</time>
      </trkpt>
      <trkpt lat="42.80605" lon="-0.03927">
        <ele>1968.8</ele>
        <time>2023-10-31T12:34:35Z</time>
      </trkpt>
      <trkpt lat="42.80605" lon="-0.03926">
        <ele>1968.8</ele>
        <time>2023-10-31T12:34:36Z</time>
      </trkpt>
      <trkpt lat="42.80605" lon="-0.03925">
        <ele>1968.7</ele>
        <time>2023-10-31T12:34:37Z</time>
      </trkpt>
      <trkpt lat="42.80604" lon="-0.03922">
        <ele>1968.7</ele>
        <time>2023-10-31T12:34:38Z</time>
      </trkpt>
      <trkpt lat="42.80604" lon="-0.03921">
        <ele>1968.7</ele>
        <time>2023-10-31T12:34:39Z</time>
      </trkpt>
      <trkpt lat="42.80604" lon="-0.0392">
        <ele>1968.6</ele>
        <time>2023-10-31T12:34:40Z</time>
      </trkpt>
      <trkpt lat="42.80604" lon="-0.03918">
        <ele>1968.6</ele>
        <time>2023-10-31T12:34:41Z</time>
      </trkpt>
      <trkpt lat="42.80605" lon="-0.03917">
        <ele>1968.6</ele>
        <time>2023-10-31T12:34:42Z</time>
      </trkpt>
      <trkpt lat="42.80605" lon="-0.03916">
        <ele>1968.5</ele>
        <time>2023-10-31T12:34:43Z</time>
      </trkpt>
      <trkpt lat="42.80605" lon="-0.03915">
        <ele>1968.5</ele>
        <time>2023-10-31T12:34:44Z</time>
      </trkpt>
      <trkpt lat="42.80605" lon="-0.03913">
        <ele>1968.5</ele>
        <time>2023-10-31T12:34:45Z</time>
      </trkpt>
      <trkpt lat="42.80605" lon="-0.03912">
        <ele>1968.4</ele>
        <time>2023-10-31T12:34:46Z</time>
      </trkpt>
      <trkpt lat="42.80605" lon="-0.0391">
        <ele>1968.4</ele>
        <time>2023-10-31T12:34:47Z</time>
      </trkpt>
      <trkpt lat="42.80604" lon="-0.03908">
        <ele>1968.3</ele>
        <time>2023-10-31T12:34:48Z</time>
      </trkpt>
      <trkpt lat="42.80604" lon="-0.03906">
        <ele>1968.3</ele>
        <time>2023-10-31T12:34:49Z</time>
      </trkpt>
      <trkpt lat="42.80605" lon="-0.03905">
        <ele>1968.3</ele>
        <time>2023-10-31T12:34:50Z</time>
      </trkpt>
      <trkpt lat="42.80605" lon="-0.03904">
        <ele>1968.2</ele>
        <time>2023-10-31T12:34:51Z</time>
      </trkpt>
      <trkpt lat="42.80605" lon="-0.03902">
        <ele>1968.2</ele>
        <time>2023-10-31T12:34:52Z</time>
      </trkpt>
      <trkpt lat="42.80606" lon="-0.03901">
        <ele>1968.2</ele>
        <time>2023-10-31T12:34:53Z</time>
      </trkpt>
      <trkpt lat="42.80606" lon="-0.039">
        <ele>1968.1</ele>
        <time>2023-10-31T12:34:54Z</time>
      </trkpt>
      <trkpt lat="42.80606" lon="-0.03897">
        <ele>1968.1</ele>
        <time>2023-10-31T12:34:55Z</time>
      </trkpt>
      <trkpt lat="42.80606" lon="-0.03896">
        <ele>1968</ele>
        <time>2023-10-31T12:34:56Z</time>
      </trkpt>
      <trkpt lat="42.80606" lon="-0.03895">
        <ele>1968</ele>
        <time>2023-10-31T12:34:57Z</time>
      </trkpt>
      <trkpt lat="42.80607" lon="-0.03893">
        <ele>1968</ele>
        <time>2023-10-31T12:34:58Z</time>
      </trkpt>
      <trkpt lat="42.80607" lon="-0.03892">
        <ele>1968</ele>
        <time>2023-10-31T12:34:59Z</time>
      </trkpt>
      <trkpt lat="42.80607" lon="-0.0389">
        <ele>1967.9</ele>
        <time>2023-10-31T12:35:00Z</time>
      </trkpt>
      <trkpt lat="42.80607" lon="-0.03889">
        <ele>1967.9</ele>
        <time>2023-10-31T12:35:01Z</time>
      </trkpt>
      <trkpt lat="42.80608" lon="-0.03888">
        <ele>1967.9</ele>
        <time>2023-10-31T12:35:02Z</time>
      </trkpt>
      <trkpt lat="42.80609" lon="-0.03887">
        <ele>1967.9</ele>
        <time>2023-10-31T12:35:03Z</time>
      </trkpt>
      <trkpt lat="42.8061" lon="-0.03886">
        <ele>1967.9</ele>
        <time>2023-10-31T12:35:04Z</time>
      </trkpt>
      <trkpt lat="42.8061" lon="-0.03884">
        <ele>1967.8</ele>
        <time>2023-10-31T12:35:05Z</time>
      </trkpt>
      <trkpt lat="42.80609" lon="-0.03883">
        <ele>1967.8</ele>
        <time>2023-10-31T12:35:06Z</time>
      </trkpt>
      <trkpt lat="42.8061" lon="-0.03881">
        <ele>1967.8</ele>
        <time>2023-10-31T12:35:07Z</time>
      </trkpt>
      <trkpt lat="42.80609" lon="-0.03881">
        <ele>1967.8</ele>
        <time>2023-10-31T12:35:08Z</time>
      </trkpt>
      <trkpt lat="42.80609" lon="-0.03881">
        <ele>1967.8</ele>
        <time>2023-10-31T12:35:09Z</time>
      </trkpt>
      <trkpt lat="42.80608" lon="-0.03879">
        <ele>1967.8</ele>
        <time>2023-10-31T12:35:10Z</time>
      </trkpt>
      <trkpt lat="42.80609" lon="-0.03878">
        <ele>1967.8</ele>
        <time>2023-10-31T12:35:11Z</time>
      </trkpt>
      <trkpt lat="42.80609" lon="-0.03875">
        <ele>1967.8</ele>
        <time>2023-10-31T12:35:12Z</time>
      </trkpt>
      <trkpt lat="42.80609" lon="-0.03874">
        <ele>1967.8</ele>
        <time>2023-10-31T12:35:13Z</time>
      </trkpt>
      <trkpt lat="42.80609" lon="-0.03873">
        <ele>1967.8</ele>
        <time>2023-10-31T12:35:14Z</time>
      </trkpt>
      <trkpt lat="42.80609" lon="-0.03872">
        <ele>1967.7</ele>
        <time>2023-10-31T12:35:15Z</time>
      </trkpt>
      <trkpt lat="42.80609" lon="-0.0387">
        <ele>1967.7</ele>
        <time>2023-10-31T12:35:16Z</time>
      </trkpt>
      <trkpt lat="42.80609" lon="-0.03869">
        <ele>1967.7</ele>
        <time>2023-10-31T12:35:17Z</time>
      </trkpt>
      <trkpt lat="42.80608" lon="-0.03869">
        <ele>1967.7</ele>
        <time>2023-10-31T12:35:18Z</time>
      </trkpt>
      <trkpt lat="42.80608" lon="-0.03867">
        <ele>1967.7</ele>
        <time>2023-10-31T12:35:19Z</time>
      </trkpt>
      <trkpt lat="42.80608" lon="-0.03866">
        <ele>1967.8</ele>
        <time>2023-10-31T12:35:20Z</time>
      </trkpt>
      <trkpt lat="42.80608" lon="-0.03865">
        <ele>1967.8</ele>
        <time>2023-10-31T12:35:21Z</time>
      </trkpt>
      <trkpt lat="42.80608" lon="-0.03863">
        <ele>1967.8</ele>
        <time>2023-10-31T12:35:22Z</time>
      </trkpt>
      <trkpt lat="42.80609" lon="-0.03862">
        <ele>1967.8</ele>
        <time>2023-10-31T12:35:23Z</time>
      </trkpt>
      <trkpt lat="42.80609" lon="-0.03861">
        <ele>1967.8</ele>
        <time>2023-10-31T12:35:24Z</time>
      </trkpt>
      <trkpt lat="42.80609" lon="-0.03858">
        <ele>1967.8</ele>
        <time>2023-10-31T12:35:25Z</time>
      </trkpt>
      <trkpt lat="42.80608" lon="-0.03857">
        <ele>1967.8</ele>
        <time>2023-10-31T12:35:26Z</time>
      </trkpt>
      <trkpt lat="42.80608" lon="-0.03856">
        <ele>1967.9</ele>
        <time>2023-10-31T12:35:27Z</time>
      </trkpt>
      <trkpt lat="42.80608" lon="-0.03854">
        <ele>1967.9</ele>
        <time>2023-10-31T12:35:28Z</time>
      </trkpt>
      <trkpt lat="42.80609" lon="-0.03853">
        <ele>1967.9</ele>
        <time>2023-10-31T12:35:29Z</time>
      </trkpt>
      <trkpt lat="42.80609" lon="-0.03852">
        <ele>1967.9</ele>
        <time>2023-10-31T12:35:30Z</time>
      </trkpt>
      <trkpt lat="42.80608" lon="-0.0385">
        <ele>1967.9</ele>
        <time>2023-10-31T12:35:31Z</time>
      </trkpt>
      <trkpt lat="42.80608" lon="-0.03849">
        <ele>1968</ele>
        <time>2023-10-31T12:35:32Z</time>
      </trkpt>
      <trkpt lat="42.80608" lon="-0.03847">
        <ele>1968</ele>
        <time>2023-10-31T12:35:33Z</time>
      </trkpt>
      <trkpt lat="42.80608" lon="-0.03846">
        <ele>1968</ele>
        <time>2023-10-31T12:35:34Z</time>
      </trkpt>
      <trkpt lat="42.80609" lon="-0.03845">
        <ele>1968.1</ele>
        <time>2023-10-31T12:35:35Z</time>
      </trkpt>
      <trkpt lat="42.80609" lon="-0.03843">
        <ele>1968.1</ele>
        <time>2023-10-31T12:35:36Z</time>
      </trkpt>
      <trkpt lat="42.80609" lon="-0.03842">
        <ele>1968.1</ele>
        <time>2023-10-31T12:35:37Z</time>
      </trkpt>
      <trkpt lat="42.80609" lon="-0.0384">
        <ele>1968.2</ele>
        <time>2023-10-31T12:35:38Z</time>
      </trkpt>
      <trkpt lat="42.80609" lon="-0.03839">
        <ele>1968.2</ele>
        <time>2023-10-31T12:35:39Z</time>
      </trkpt>
      <trkpt lat="42.80608" lon="-0.03837">
        <ele>1968.2</ele>
        <time>2023-10-31T12:35:40Z</time>
      </trkpt>
      <trkpt lat="42.80608" lon="-0.03836">
        <ele>1968.2</ele>
        <time>2023-10-31T12:35:41Z</time>
      </trkpt>
      <trkpt lat="42.80608" lon="-0.03835">
        <ele>1968.3</ele>
        <time>2023-10-31T12:35:42Z</time>
      </trkpt>
      <trkpt lat="42.80607" lon="-0.03833">
        <ele>1968.3</ele>
        <time>2023-10-31T12:35:43Z</time>
      </trkpt>
      <trkpt lat="42.80607" lon="-0.03832">
        <ele>1968.3</ele>
        <time>2023-10-31T12:35:44Z</time>
      </trkpt>
      <trkpt lat="42.80607" lon="-0.03831">
        <ele>1968.4</ele>
        <time>2023-10-31T12:35:45Z</time>
      </trkpt>
      <trkpt lat="42.80607" lon="-0.0383">
        <ele>1968.4</ele>
        <time>2023-10-31T12:35:46Z</time>
      </trkpt>
      <trkpt lat="42.80607" lon="-0.03828">
        <ele>1968.4</ele>
        <time>2023-10-31T12:35:47Z</time>
      </trkpt>
      <trkpt lat="42.80608" lon="-0.03828">
        <ele>1968.4</ele>
        <time>2023-10-31T12:35:48Z</time>
      </trkpt>
      <trkpt lat="42.80607" lon="-0.03828">
        <ele>1968.4</ele>
        <time>2023-10-31T12:35:49Z</time>
      </trkpt>
      <trkpt lat="42.80605" lon="-0.03827">
        <ele>1968.5</ele>
        <time>2023-10-31T12:35:50Z</time>
      </trkpt>
      <trkpt lat="42.80604" lon="-0.03826">
        <ele>1968.5</ele>
        <time>2023-10-31T12:35:51Z</time>
      </trkpt>
      <trkpt lat="42.80603" lon="-0.03824">
        <ele>1968.5</ele>
        <time>2023-10-31T12:35:52Z</time>
      </trkpt>
      <trkpt lat="42.80603" lon="-0.03822">
        <ele>1968.6</ele>
        <time>2023-10-31T12:35:53Z</time>
      </trkpt>
      <trkpt lat="42.80603" lon="-0.03821">
        <ele>1968.6</ele>
        <time>2023-10-31T12:35:54Z</time>
      </trkpt>
      <trkpt lat="42.80603" lon="-0.03819">
        <ele>1968.6</ele>
        <time>2023-10-31T12:35:55Z</time>
      </trkpt>
      <trkpt lat="42.80603" lon="-0.03818">
        <ele>1968.6</ele>
        <time>2023-10-31T12:35:56Z</time>
      </trkpt>
      <trkpt lat="42.80603" lon="-0.03817">
        <ele>1968.6</ele>
        <time>2023-10-31T12:35:57Z</time>
      </trkpt>
      <trkpt lat="42.80603" lon="-0.03816">
        <ele>1968.7</ele>
        <time>2023-10-31T12:35:58Z</time>
      </trkpt>
      <trkpt lat="42.80603" lon="-0.03814">
        <ele>1968.7</ele>
        <time>2023-10-31T12:35:59Z</time>
      </trkpt>
      <trkpt lat="42.80603" lon="-0.03814">
        <ele>1968.7</ele>
        <time>2023-10-31T12:36:00Z</time>
      </trkpt>
      <trkpt lat="42.80604" lon="-0.03813">
        <ele>1968.7</ele>
        <time>2023-10-31T12:36:01Z</time>
      </trkpt>
      <trkpt lat="42.80604" lon="-0.03811">
        <ele>1968.7</ele>
        <time>2023-10-31T12:36:02Z</time>
      </trkpt>
      <trkpt lat="42.80604" lon="-0.0381">
        <ele>1968.7</ele>
        <time>2023-10-31T12:36:03Z</time>
      </trkpt>
      <trkpt lat="42.80603" lon="-0.03808">
        <ele>1968.8</ele>
        <time>2023-10-31T12:36:04Z</time>
      </trkpt>
      <trkpt lat="42.80603" lon="-0.03807">
        <ele>1968.8</ele>
        <time>2023-10-31T12:36:05Z</time>
      </trkpt>
      <trkpt lat="42.80603" lon="-0.03806">
        <ele>1968.8</ele>
        <time>2023-10-31T12:36:06Z</time>
      </trkpt>
      <trkpt lat="42.80603" lon="-0.03804">
        <ele>1968.8</ele>
        <time>2023-10-31T12:36:07Z</time>
      </trkpt>
      <trkpt lat="42.80603" lon="-0.03804">
        <ele>1968.8</ele>
        <time>2023-10-31T12:36:08Z</time>
      </trkpt>
      <trkpt lat="42.80602" lon="-0.03803">
        <ele>1968.9</ele>
        <time>2023-10-31T12:36:09Z</time>
      </trkpt>
      <trkpt lat="42.80602" lon="-0.03801">
        <ele>1968.9</ele>
        <time>2023-10-31T12:36:10Z</time>
      </trkpt>
      <trkpt lat="42.80603" lon="-0.03799">
        <ele>1968.9</ele>
        <time>2023-10-31T12:36:11Z</time>
      </trkpt>
      <trkpt lat="42.80602" lon="-0.03798">
        <ele>1969</ele>
        <time>2023-10-31T12:36:12Z</time>
      </trkpt>
      <trkpt lat="42.80602" lon="-0.03797">
        <ele>1969</ele>
        <time>2023-10-31T12:36:13Z</time>
      </trkpt>
      <trkpt lat="42.80602" lon="-0.03795">
        <ele>1969</ele>
        <time>2023-10-31T12:36:14Z</time>
      </trkpt>
      <trkpt lat="42.80603" lon="-0.03794">
        <ele>1969</ele>
        <time>2023-10-31T12:36:15Z</time>
      </trkpt>
      <trkpt lat="42.80603" lon="-0.03793">
        <ele>1969.1</ele>
        <time>2023-10-31T12:36:16Z</time>
      </trkpt>
      <trkpt lat="42.80603" lon="-0.03792">
        <ele>1969.1</ele>
        <time>2023-10-31T12:36:17Z</time>
      </trkpt>
      <trkpt lat="42.80604" lon="-0.03789">
        <ele>1969.2</ele>
        <time>2023-10-31T12:36:18Z</time>
      </trkpt>
      <trkpt lat="42.80604" lon="-0.03788">
        <ele>1969.2</ele>
        <time>2023-10-31T12:36:19Z</time>
      </trkpt>
      <trkpt lat="42.80604" lon="-0.03787">
        <ele>1969.2</ele>
        <time>2023-10-31T12:36:20Z</time>
      </trkpt>
      <trkpt lat="42.80603" lon="-0.03786">
        <ele>1969.3</ele>
        <time>2023-10-31T12:36:21Z</time>
      </trkpt>
      <trkpt lat="42.80603" lon="-0.03784">
        <ele>1969.3</ele>
        <time>2023-10-31T12:36:22Z</time>
      </trkpt>
      <trkpt lat="42.80603" lon="-0.03783">
        <ele>1969.4</ele>
        <time>2023-10-31T12:36:23Z</time>
      </trkpt>
      <trkpt lat="42.80602" lon="-0.03781">
        <ele>1969.4</ele>
        <time>2023-10-31T12:36:24Z</time>
      </trkpt>
      <trkpt lat="42.80602" lon="-0.0378">
        <ele>1969.5</ele>
        <time>2023-10-31T12:36:25Z</time>
      </trkpt>
      <trkpt lat="42.80602" lon="-0.03779">
        <ele>1969.5</ele>
        <time>2023-10-31T12:36:26Z</time>
      </trkpt>
      <trkpt lat="42.80601" lon="-0.03777">
        <ele>1969.6</ele>
        <time>2023-10-31T12:36:27Z</time>
      </trkpt>
      <trkpt lat="42.80601" lon="-0.03776">
        <ele>1969.6</ele>
        <time>2023-10-31T12:36:28Z</time>
      </trkpt>
      <trkpt lat="42.80601" lon="-0.03774">
        <ele>1969.7</ele>
        <time>2023-10-31T12:36:29Z</time>
      </trkpt>
      <trkpt lat="42.80601" lon="-0.03774">
        <ele>1969.7</ele>
        <time>2023-10-31T12:36:30Z</time>
      </trkpt>
      <trkpt lat="42.80601" lon="-0.03772">
        <ele>1969.8</ele>
        <time>2023-10-31T12:36:31Z</time>
      </trkpt>
      <trkpt lat="42.80601" lon="-0.03771">
        <ele>1969.8</ele>
        <time>2023-10-31T12:36:32Z</time>
      </trkpt>
      <trkpt lat="42.806" lon="-0.0377">
        <ele>1969.9</ele>
        <time>2023-10-31T12:36:33Z</time>
      </trkpt>
      <trkpt lat="42.806" lon="-0.03769">
        <ele>1969.9</ele>
        <time>2023-10-31T12:36:34Z</time>
      </trkpt>
      <trkpt lat="42.80599" lon="-0.03768">
        <ele>1970</ele>
        <time>2023-10-31T12:36:35Z</time>
      </trkpt>
      <trkpt lat="42.80599" lon="-0.03767">
        <ele>1970</ele>
        <time>2023-10-31T12:36:36Z</time>
      </trkpt>
      <trkpt lat="42.80598" lon="-0.03766">
        <ele>1970.1</ele>
        <time>2023-10-31T12:36:37Z</time>
      </trkpt>
      <trkpt lat="42.80597" lon="-0.03765">
        <ele>1970.1</ele>
        <time>2023-10-31T12:36:38Z</time>
      </trkpt>
      <trkpt lat="42.80598" lon="-0.03764">
        <ele>1970.2</ele>
        <time>2023-10-31T12:36:39Z</time>
      </trkpt>
      <trkpt lat="42.80598" lon="-0.03762">
        <ele>1970.3</ele>
        <time>2023-10-31T12:36:40Z</time>
      </trkpt>
      <trkpt lat="42.80599" lon="-0.03761">
        <ele>1970.3</ele>
        <time>2023-10-31T12:36:41Z</time>
      </trkpt>
      <trkpt lat="42.80599" lon="-0.03759">
        <ele>1970.4</ele>
        <time>2023-10-31T12:36:42Z</time>
      </trkpt>
      <trkpt lat="42.80599" lon="-0.03758">
        <ele>1970.4</ele>
        <time>2023-10-31T12:36:43Z</time>
      </trkpt>
      <trkpt lat="42.80599" lon="-0.03757">
        <ele>1970.4</ele>
        <time>2023-10-31T12:36:44Z</time>
      </trkpt>
      <trkpt lat="42.80599" lon="-0.03755">
        <ele>1970.5</ele>
        <time>2023-10-31T12:36:45Z</time>
      </trkpt>
      <trkpt lat="42.80599" lon="-0.03753">
        <ele>1970.5</ele>
        <time>2023-10-31T12:36:46Z</time>
      </trkpt>
      <trkpt lat="42.80599" lon="-0.03751">
        <ele>1970.6</ele>
        <time>2023-10-31T12:36:47Z</time>
      </trkpt>
      <trkpt lat="42.80599" lon="-0.0375">
        <ele>1970.6</ele>
        <time>2023-10-31T12:36:48Z</time>
      </trkpt>
      <trkpt lat="42.80599" lon="-0.03748">
        <ele>1970.7</ele>
        <time>2023-10-31T12:36:49Z</time>
      </trkpt>
      <trkpt lat="42.806" lon="-0.03747">
        <ele>1970.7</ele>
        <time>2023-10-31T12:36:50Z</time>
      </trkpt>
      <trkpt lat="42.806" lon="-0.03745">
        <ele>1970.7</ele>
        <time>2023-10-31T12:36:51Z</time>
      </trkpt>
      <trkpt lat="42.806" lon="-0.03744">
        <ele>1970.8</ele>
        <time>2023-10-31T12:36:52Z</time>
      </trkpt>
      <trkpt lat="42.806" lon="-0.03742">
        <ele>1970.8</ele>
        <time>2023-10-31T12:36:53Z</time>
      </trkpt>
      <trkpt lat="42.80599" lon="-0.0374">
        <ele>1970.8</ele>
        <time>2023-10-31T12:36:54Z</time>
      </trkpt>
      <trkpt lat="42.80599" lon="-0.03737">
        <ele>1970.9</ele>
        <time>2023-10-31T12:36:55Z</time>
      </trkpt>
      <trkpt lat="42.80599" lon="-0.03736">
        <ele>1970.9</ele>
        <time>2023-10-31T12:36:56Z</time>
      </trkpt>
      <trkpt lat="42.80599" lon="-0.03735">
        <ele>1970.9</ele>
        <time>2023-10-31T12:36:57Z</time>
      </trkpt>
      <trkpt lat="42.806" lon="-0.03733">
        <ele>1970.9</ele>
        <time>2023-10-31T12:36:58Z</time>
      </trkpt>
      <trkpt lat="42.806" lon="-0.03731">
        <ele>1971</ele>
        <time>2023-10-31T12:36:59Z</time>
      </trkpt>
      <trkpt lat="42.806" lon="-0.03728">
        <ele>1971</ele>
        <time>2023-10-31T12:37:00Z</time>
      </trkpt>
      <trkpt lat="42.80601" lon="-0.03727">
        <ele>1971</ele>
        <time>2023-10-31T12:37:01Z</time>
      </trkpt>
      <trkpt lat="42.80601" lon="-0.03726">
        <ele>1971.1</ele>
        <time>2023-10-31T12:37:02Z</time>
      </trkpt>
      <trkpt lat="42.80601" lon="-0.03724">
        <ele>1971.1</ele>
        <time>2023-10-31T12:37:03Z</time>
      </trkpt>
      <trkpt lat="42.806" lon="-0.03722">
        <ele>1971.1</ele>
        <time>2023-10-31T12:37:04Z</time>
      </trkpt>
      <trkpt lat="42.806" lon="-0.0372">
        <ele>1971.2</ele>
        <time>2023-10-31T12:37:05Z</time>
      </trkpt>
      <trkpt lat="42.806" lon="-0.03718">
        <ele>1971.2</ele>
        <time>2023-10-31T12:37:06Z</time>
      </trkpt>
      <trkpt lat="42.806" lon="-0.03716">
        <ele>1971.2</ele>
        <time>2023-10-31T12:37:07Z</time>
      </trkpt>
      <trkpt lat="42.80601" lon="-0.03714">
        <ele>1971.2</ele>
        <time>2023-10-31T12:37:08Z</time>
      </trkpt>
      <trkpt lat="42.80601" lon="-0.03713">
        <ele>1971.3</ele>
        <time>2023-10-31T12:37:09Z</time>
      </trkpt>
      <trkpt lat="42.806" lon="-0.0371">
        <ele>1971.3</ele>
        <time>2023-10-31T12:37:10Z</time>
      </trkpt>
      <trkpt lat="42.80601" lon="-0.03709">
        <ele>1971.3</ele>
        <time>2023-10-31T12:37:11Z</time>
      </trkpt>
      <trkpt lat="42.80602" lon="-0.03707">
        <ele>1971.3</ele>
        <time>2023-10-31T12:37:12Z</time>
      </trkpt>
      <trkpt lat="42.80603" lon="-0.03705">
        <ele>1971.3</ele>
        <time>2023-10-31T12:37:13Z</time>
      </trkpt>
      <trkpt lat="42.80602" lon="-0.03703">
        <ele>1971.3</ele>
        <time>2023-10-31T12:37:14Z</time>
      </trkpt>
      <trkpt lat="42.80602" lon="-0.03701">
        <ele>1971.3</ele>
        <time>2023-10-31T12:37:15Z</time>
      </trkpt>
      <trkpt lat="42.80602" lon="-0.037">
        <ele>1971.3</ele>
        <time>2023-10-31T12:37:16Z</time>
      </trkpt>
      <trkpt lat="42.80602" lon="-0.03697">
        <ele>1971.3</ele>
        <time>2023-10-31T12:37:17Z</time>
      </trkpt>
      <trkpt lat="42.80603" lon="-0.03696">
        <ele>1971.3</ele>
        <time>2023-10-31T12:37:18Z</time>
      </trkpt>
      <trkpt lat="42.80603" lon="-0.03695">
        <ele>1971.3</ele>
        <time>2023-10-31T12:37:19Z</time>
      </trkpt>
      <trkpt lat="42.80603" lon="-0.03692">
        <ele>1971.3</ele>
        <time>2023-10-31T12:37:20Z</time>
      </trkpt>
      <trkpt lat="42.80603" lon="-0.0369">
        <ele>1971.3</ele>
        <time>2023-10-31T12:37:21Z</time>
      </trkpt>
      <trkpt lat="42.80603" lon="-0.03689">
        <ele>1971.3</ele>
        <time>2023-10-31T12:37:22Z</time>
      </trkpt>
      <trkpt lat="42.80604" lon="-0.03686">
        <ele>1971.2</ele>
        <time>2023-10-31T12:37:23Z</time>
      </trkpt>
      <trkpt lat="42.80604" lon="-0.03685">
        <ele>1971.2</ele>
        <time>2023-10-31T12:37:24Z</time>
      </trkpt>
      <trkpt lat="42.80605" lon="-0.03684">
        <ele>1971.2</ele>
        <time>2023-10-31T12:37:25Z</time>
      </trkpt>
      <trkpt lat="42.80605" lon="-0.03682">
        <ele>1971.2</ele>
        <time>2023-10-31T12:37:26Z</time>
      </trkpt>
      <trkpt lat="42.80606" lon="-0.0368">
        <ele>1971.2</ele>
        <time>2023-10-31T12:37:27Z</time>
      </trkpt>
      <trkpt lat="42.80606" lon="-0.03678">
        <ele>1971.2</ele>
        <time>2023-10-31T12:37:28Z</time>
      </trkpt>
      <trkpt lat="42.80606" lon="-0.03676">
        <ele>1971.2</ele>
        <time>2023-10-31T12:37:29Z</time>
      </trkpt>
      <trkpt lat="42.80607" lon="-0.03675">
        <ele>1971.2</ele>
        <time>2023-10-31T12:37:30Z</time>
      </trkpt>
      <trkpt lat="42.80607" lon="-0.03672">
        <ele>1971.2</ele>
        <time>2023-10-31T12:37:31Z</time>
      </trkpt>
      <trkpt lat="42.80607" lon="-0.03671">
        <ele>1971.2</ele>
        <time>2023-10-31T12:37:32Z</time>
      </trkpt>
      <trkpt lat="42.80607" lon="-0.0367">
        <ele>1971.2</ele>
        <time>2023-10-31T12:37:33Z</time>
      </trkpt>
      <trkpt lat="42.80608" lon="-0.03668">
        <ele>1971.2</ele>
        <time>2023-10-31T12:37:34Z</time>
      </trkpt>
      <trkpt lat="42.80608" lon="-0.03667">
        <ele>1971.2</ele>
        <time>2023-10-31T12:37:35Z</time>
      </trkpt>
      <trkpt lat="42.80608" lon="-0.03665">
        <ele>1971.2</ele>
        <time>2023-10-31T12:37:36Z</time>
      </trkpt>
      <trkpt lat="42.80609" lon="-0.03662">
        <ele>1971.2</ele>
        <time>2023-10-31T12:37:37Z</time>
      </trkpt>
      <trkpt lat="42.80609" lon="-0.03661">
        <ele>1971.2</ele>
        <time>2023-10-31T12:37:38Z</time>
      </trkpt>
      <trkpt lat="42.80609" lon="-0.0366">
        <ele>1971.2</ele>
        <time>2023-10-31T12:37:39Z</time>
      </trkpt>
      <trkpt lat="42.80609" lon="-0.03659">
        <ele>1971.2</ele>
        <time>2023-10-31T12:37:40Z</time>
      </trkpt>
      <trkpt lat="42.80609" lon="-0.03657">
        <ele>1971.2</ele>
        <time>2023-10-31T12:37:41Z</time>
      </trkpt>
      <trkpt lat="42.80609" lon="-0.03656">
        <ele>1971.2</ele>
        <time>2023-10-31T12:37:42Z</time>
      </trkpt>
      <trkpt lat="42.80609" lon="-0.03653">
        <ele>1971.2</ele>
        <time>2023-10-31T12:37:43Z</time>
      </trkpt>
      <trkpt lat="42.80609" lon="-0.03652">
        <ele>1971.2</ele>
        <time>2023-10-31T12:37:44Z</time>
      </trkpt>
      <trkpt lat="42.80609" lon="-0.0365">
        <ele>1971.2</ele>
        <time>2023-10-31T12:37:45Z</time>
      </trkpt>
      <trkpt lat="42.80609" lon="-0.03648">
        <ele>1971.2</ele>
        <time>2023-10-31T12:37:46Z</time>
      </trkpt>
      <trkpt lat="42.80609" lon="-0.03647">
        <ele>1971.1</ele>
        <time>2023-10-31T12:37:47Z</time>
      </trkpt>
      <trkpt lat="42.80609" lon="-0.03646">
        <ele>1971.1</ele>
        <time>2023-10-31T12:37:48Z</time>
      </trkpt>
      <trkpt lat="42.80609" lon="-0.03644">
        <ele>1971.1</ele>
        <time>2023-10-31T12:37:49Z</time>
      </trkpt>
      <trkpt lat="42.80609" lon="-0.03643">
        <ele>1971.1</ele>
        <time>2023-10-31T12:37:50Z</time>
      </trkpt>
      <trkpt lat="42.80609" lon="-0.03641">
        <ele>1971.1</ele>
        <time>2023-10-31T12:37:51Z</time>
      </trkpt>
      <trkpt lat="42.80609" lon="-0.03639">
        <ele>1971</ele>
        <time>2023-10-31T12:37:52Z</time>
      </trkpt>
      <trkpt lat="42.8061" lon="-0.03638">
        <ele>1971</ele>
        <time>2023-10-31T12:37:53Z</time>
      </trkpt>
      <trkpt lat="42.8061" lon="-0.03637">
        <ele>1971</ele>
        <time>2023-10-31T12:37:54Z</time>
      </trkpt>
      <trkpt lat="42.80611" lon="-0.03635">
        <ele>1970.9</ele>
        <time>2023-10-31T12:37:55Z</time>
      </trkpt>
      <trkpt lat="42.80611" lon="-0.03634">
        <ele>1970.9</ele>
        <time>2023-10-31T12:37:56Z</time>
      </trkpt>
      <trkpt lat="42.80612" lon="-0.03633">
        <ele>1970.9</ele>
        <time>2023-10-31T12:37:57Z</time>
      </trkpt>
      <trkpt lat="42.80612" lon="-0.03631">
        <ele>1970.9</ele>
        <time>2023-10-31T12:37:58Z</time>
      </trkpt>
      <trkpt lat="42.80612" lon="-0.03629">
        <ele>1970.8</ele>
        <time>2023-10-31T12:37:59Z</time>
      </trkpt>
      <trkpt lat="42.80612" lon="-0.03628">
        <ele>1970.8</ele>
        <time>2023-10-31T12:38:00Z</time>
      </trkpt>
      <trkpt lat="42.80613" lon="-0.03627">
        <ele>1970.8</ele>
        <time>2023-10-31T12:38:01Z</time>
      </trkpt>
      <trkpt lat="42.80613" lon="-0.03625">
        <ele>1970.8</ele>
        <time>2023-10-31T12:38:02Z</time>
      </trkpt>
      <trkpt lat="42.80614" lon="-0.03625">
        <ele>1970.7</ele>
        <time>2023-10-31T12:38:03Z</time>
      </trkpt>
      <trkpt lat="42.80615" lon="-0.03624">
        <ele>1970.7</ele>
        <time>2023-10-31T12:38:04Z</time>
      </trkpt>
      <trkpt lat="42.80615" lon="-0.03624">
        <ele>1970.7</ele>
        <time>2023-10-31T12:38:05Z</time>
      </trkpt>
      <trkpt lat="42.80617" lon="-0.03624">
        <ele>1970.7</ele>
        <time>2023-10-31T12:38:06Z</time>
      </trkpt>
      <trkpt lat="42.80617" lon="-0.03624">
        <ele>1970.7</ele>
        <time>2023-10-31T12:38:07Z</time>
      </trkpt>
      <trkpt lat="42.80617" lon="-0.03623">
        <ele>1970.7</ele>
        <time>2023-10-31T12:38:08Z</time>
      </trkpt>
      <trkpt lat="42.80616" lon="-0.03622">
        <ele>1970.7</ele>
        <time>2023-10-31T12:38:09Z</time>
      </trkpt>
      <trkpt lat="42.80616" lon="-0.03621">
        <ele>1970.7</ele>
        <time>2023-10-31T12:38:10Z</time>
      </trkpt>
      <trkpt lat="42.80615" lon="-0.03619">
        <ele>1970.7</ele>
        <time>2023-10-31T12:38:11Z</time>
      </trkpt>
      <trkpt lat="42.80615" lon="-0.03616">
        <ele>1970.7</ele>
        <time>2023-10-31T12:38:12Z</time>
      </trkpt>
      <trkpt lat="42.80615" lon="-0.03614">
        <ele>1970.7</ele>
        <time>2023-10-31T12:38:13Z</time>
      </trkpt>
      <trkpt lat="42.80615" lon="-0.03612">
        <ele>1970.6</ele>
        <time>2023-10-31T12:38:14Z</time>
      </trkpt>
      <trkpt lat="42.80615" lon="-0.03609">
        <ele>1970.6</ele>
        <time>2023-10-31T12:38:15Z</time>
      </trkpt>
      <trkpt lat="42.80615" lon="-0.03608">
        <ele>1970.5</ele>
        <time>2023-10-31T12:38:16Z</time>
      </trkpt>
      <trkpt lat="42.80615" lon="-0.03607">
        <ele>1970.5</ele>
        <time>2023-10-31T12:38:17Z</time>
      </trkpt>
      <trkpt lat="42.80615" lon="-0.03603">
        <ele>1970.3</ele>
        <time>2023-10-31T12:38:18Z</time>
      </trkpt>
      <trkpt lat="42.80614" lon="-0.03602">
        <ele>1970.2</ele>
        <time>2023-10-31T12:38:19Z</time>
      </trkpt>
      <trkpt lat="42.80614" lon="-0.03601">
        <ele>1970.1</ele>
        <time>2023-10-31T12:38:20Z</time>
      </trkpt>
      <trkpt lat="42.80613" lon="-0.036">
        <ele>1970</ele>
        <time>2023-10-31T12:38:21Z</time>
      </trkpt>
      <trkpt lat="42.80612" lon="-0.03599">
        <ele>1970</ele>
        <time>2023-10-31T12:38:22Z</time>
      </trkpt>
      <trkpt lat="42.80613" lon="-0.03599">
        <ele>1969.9</ele>
        <time>2023-10-31T12:38:23Z</time>
      </trkpt>
      <trkpt lat="42.80613" lon="-0.03597">
        <ele>1969.8</ele>
        <time>2023-10-31T12:38:24Z</time>
      </trkpt>
      <trkpt lat="42.80613" lon="-0.03597">
        <ele>1969.7</ele>
        <time>2023-10-31T12:38:25Z</time>
      </trkpt>
      <trkpt lat="42.80612" lon="-0.03596">
        <ele>1969.6</ele>
        <time>2023-10-31T12:38:26Z</time>
      </trkpt>
      <trkpt lat="42.80612" lon="-0.03596">
        <ele>1969.5</ele>
        <time>2023-10-31T12:38:27Z</time>
      </trkpt>
      <trkpt lat="42.80611" lon="-0.03594">
        <ele>1969.4</ele>
        <time>2023-10-31T12:38:28Z</time>
      </trkpt>
      <trkpt lat="42.80611" lon="-0.03593">
        <ele>1969.3</ele>
        <time>2023-10-31T12:38:29Z</time>
      </trkpt>
      <trkpt lat="42.80611" lon="-0.03592">
        <ele>1969.2</ele>
        <time>2023-10-31T12:38:30Z</time>
      </trkpt>
      <trkpt lat="42.80611" lon="-0.03591">
        <ele>1969.2</ele>
        <time>2023-10-31T12:38:31Z</time>
      </trkpt>
      <trkpt lat="42.80612" lon="-0.03589">
        <ele>1969</ele>
        <time>2023-10-31T12:38:32Z</time>
      </trkpt>
      <trkpt lat="42.80612" lon="-0.03588">
        <ele>1968.9</ele>
        <time>2023-10-31T12:38:33Z</time>
      </trkpt>
      <trkpt lat="42.80613" lon="-0.03587">
        <ele>1968.9</ele>
        <time>2023-10-31T12:38:34Z</time>
      </trkpt>
      <trkpt lat="42.80613" lon="-0.03586">
        <ele>1968.8</ele>
        <time>2023-10-31T12:38:35Z</time>
      </trkpt>
      <trkpt lat="42.80613" lon="-0.03585">
        <ele>1968.7</ele>
        <time>2023-10-31T12:38:36Z</time>
      </trkpt>
      <trkpt lat="42.80613" lon="-0.03584">
        <ele>1968.6</ele>
        <time>2023-10-31T12:38:37Z</time>
      </trkpt>
      <trkpt lat="42.80613" lon="-0.03583">
        <ele>1968.6</ele>
        <time>2023-10-31T12:38:38Z</time>
      </trkpt>
      <trkpt lat="42.80614" lon="-0.03582">
        <ele>1968.4</ele>
        <time>2023-10-31T12:38:39Z</time>
      </trkpt>
      <trkpt lat="42.80614" lon="-0.03579">
        <ele>1968.2</ele>
        <time>2023-10-31T12:38:40Z</time>
      </trkpt>
      <trkpt lat="42.80614" lon="-0.03578">
        <ele>1968.2</ele>
        <time>2023-10-31T12:38:41Z</time>
      </trkpt>
      <trkpt lat="42.80614" lon="-0.03577">
        <ele>1968.1</ele>
        <time>2023-10-31T12:38:42Z</time>
      </trkpt>
      <trkpt lat="42.80614" lon="-0.03575">
        <ele>1968</ele>
        <time>2023-10-31T12:38:43Z</time>
      </trkpt>
      <trkpt lat="42.80614" lon="-0.03574">
        <ele>1967.9</ele>
        <time>2023-10-31T12:38:44Z</time>
      </trkpt>
      <trkpt lat="42.80615" lon="-0.03573">
        <ele>1967.8</ele>
        <time>2023-10-31T12:38:45Z</time>
      </trkpt>
      <trkpt lat="42.80616" lon="-0.03571">
        <ele>1967.7</ele>
        <time>2023-10-31T12:38:46Z</time>
      </trkpt>
      <trkpt lat="42.80617" lon="-0.0357">
        <ele>1967.6</ele>
        <time>2023-10-31T12:38:47Z</time>
      </trkpt>
      <trkpt lat="42.80617" lon="-0.03569">
        <ele>1967.5</ele>
        <time>2023-10-31T12:38:48Z</time>
      </trkpt>
      <trkpt lat="42.80618" lon="-0.03567">
        <ele>1967.4</ele>
        <time>2023-10-31T12:38:49Z</time>
      </trkpt>
      <trkpt lat="42.80618" lon="-0.03566">
        <ele>1967.3</ele>
        <time>2023-10-31T12:38:50Z</time>
      </trkpt>
      <trkpt lat="42.80618" lon="-0.03564">
        <ele>1967.2</ele>
        <time>2023-10-31T12:38:51Z</time>
      </trkpt>
      <trkpt lat="42.80618" lon="-0.03563">
        <ele>1967.1</ele>
        <time>2023-10-31T12:38:52Z</time>
      </trkpt>
      <trkpt lat="42.80618" lon="-0.03561">
        <ele>1967</ele>
        <time>2023-10-31T12:38:53Z</time>
      </trkpt>
      <trkpt lat="42.80619" lon="-0.0356">
        <ele>1966.9</ele>
        <time>2023-10-31T12:38:54Z</time>
      </trkpt>
      <trkpt lat="42.80619" lon="-0.03559">
        <ele>1966.8</ele>
        <time>2023-10-31T12:38:55Z</time>
      </trkpt>
      <trkpt lat="42.8062" lon="-0.03558">
        <ele>1966.8</ele>
        <time>2023-10-31T12:38:56Z</time>
      </trkpt>
      <trkpt lat="42.8062" lon="-0.03556">
        <ele>1966.7</ele>
        <time>2023-10-31T12:38:57Z</time>
      </trkpt>
      <trkpt lat="42.8062" lon="-0.03554">
        <ele>1966.6</ele>
        <time>2023-10-31T12:38:58Z</time>
      </trkpt>
      <trkpt lat="42.80619" lon="-0.03553">
        <ele>1966.5</ele>
        <time>2023-10-31T12:38:59Z</time>
      </trkpt>
      <trkpt lat="42.80619" lon="-0.03552">
        <ele>1966.5</ele>
        <time>2023-10-31T12:39:00Z</time>
      </trkpt>
      <trkpt lat="42.80617" lon="-0.03549">
        <ele>1966.3</ele>
        <time>2023-10-31T12:39:01Z</time>
      </trkpt>
      <trkpt lat="42.80617" lon="-0.03549">
        <ele>1966.3</ele>
        <time>2023-10-31T12:39:02Z</time>
      </trkpt>
      <trkpt lat="42.80616" lon="-0.03548">
        <ele>1966.2</ele>
        <time>2023-10-31T12:39:03Z</time>
      </trkpt>
      <trkpt lat="42.80616" lon="-0.03545">
        <ele>1966.1</ele>
        <time>2023-10-31T12:39:04Z</time>
      </trkpt>
      <trkpt lat="42.80616" lon="-0.03544">
        <ele>1966.1</ele>
        <time>2023-10-31T12:39:05Z</time>
      </trkpt>
      <trkpt lat="42.80616" lon="-0.03543">
        <ele>1966</ele>
        <time>2023-10-31T12:39:06Z</time>
      </trkpt>
      <trkpt lat="42.80617" lon="-0.03541">
        <ele>1965.9</ele>
        <time>2023-10-31T12:39:07Z</time>
      </trkpt>
      <trkpt lat="42.80616" lon="-0.0354">
        <ele>1965.9</ele>
        <time>2023-10-31T12:39:08Z</time>
      </trkpt>
      <trkpt lat="42.80615" lon="-0.03539">
        <ele>1965.8</ele>
        <time>2023-10-31T12:39:09Z</time>
      </trkpt>
      <trkpt lat="42.80614" lon="-0.03538">
        <ele>1965.8</ele>
        <time>2023-10-31T12:39:10Z</time>
      </trkpt>
      <trkpt lat="42.80614" lon="-0.03536">
        <ele>1965.7</ele>
        <time>2023-10-31T12:39:11Z</time>
      </trkpt>
      <trkpt lat="42.80613" lon="-0.03535">
        <ele>1965.6</ele>
        <time>2023-10-31T12:39:12Z</time>
      </trkpt>
      <trkpt lat="42.80614" lon="-0.03533">
        <ele>1965.6</ele>
        <time>2023-10-31T12:39:13Z</time>
      </trkpt>
      <trkpt lat="42.80613" lon="-0.03532">
        <ele>1965.5</ele>
        <time>2023-10-31T12:39:14Z</time>
      </trkpt>
      <trkpt lat="42.80613" lon="-0.0353">
        <ele>1965.5</ele>
        <time>2023-10-31T12:39:15Z</time>
      </trkpt>
      <trkpt lat="42.80613" lon="-0.03529">
        <ele>1965.4</ele>
        <time>2023-10-31T12:39:16Z</time>
      </trkpt>
      <trkpt lat="42.80612" lon="-0.03528">
        <ele>1965.4</ele>
        <time>2023-10-31T12:39:17Z</time>
      </trkpt>
      <trkpt lat="42.80611" lon="-0.03526">
        <ele>1965.3</ele>
        <time>2023-10-31T12:39:18Z</time>
      </trkpt>
      <trkpt lat="42.80611" lon="-0.03525">
        <ele>1965.2</ele>
        <time>2023-10-31T12:39:19Z</time>
      </trkpt>
      <trkpt lat="42.8061" lon="-0.03525">
        <ele>1965.2</ele>
        <time>2023-10-31T12:39:20Z</time>
      </trkpt>
      <trkpt lat="42.8061" lon="-0.03523">
        <ele>1965.1</ele>
        <time>2023-10-31T12:39:21Z</time>
      </trkpt>
      <trkpt lat="42.80609" lon="-0.03522">
        <ele>1965</ele>
        <time>2023-10-31T12:39:22Z</time>
      </trkpt>
      <trkpt lat="42.80609" lon="-0.03521">
        <ele>1965</ele>
        <time>2023-10-31T12:39:23Z</time>
      </trkpt>
      <trkpt lat="42.80608" lon="-0.03519">
        <ele>1964.9</ele>
        <time>2023-10-31T12:39:24Z</time>
      </trkpt>
      <trkpt lat="42.80608" lon="-0.03518">
        <ele>1964.8</ele>
        <time>2023-10-31T12:39:25Z</time>
      </trkpt>
      <trkpt lat="42.80608" lon="-0.03517">
        <ele>1964.7</ele>
        <time>2023-10-31T12:39:26Z</time>
      </trkpt>
      <trkpt lat="42.80607" lon="-0.03516">
        <ele>1964.7</ele>
        <time>2023-10-31T12:39:27Z</time>
      </trkpt>
      <trkpt lat="42.80606" lon="-0.03516">
        <ele>1964.6</ele>
        <time>2023-10-31T12:39:28Z</time>
      </trkpt>
      <trkpt lat="42.80606" lon="-0.03515">
        <ele>1964.5</ele>
        <time>2023-10-31T12:39:29Z</time>
      </trkpt>
      <trkpt lat="42.80606" lon="-0.03513">
        <ele>1964.4</ele>
        <time>2023-10-31T12:39:30Z</time>
      </trkpt>
      <trkpt lat="42.80606" lon="-0.03512">
        <ele>1964.3</ele>
        <time>2023-10-31T12:39:31Z</time>
      </trkpt>
      <trkpt lat="42.80607" lon="-0.0351">
        <ele>1964.2</ele>
        <time>2023-10-31T12:39:32Z</time>
      </trkpt>
      <trkpt lat="42.80608" lon="-0.03509">
        <ele>1964.1</ele>
        <time>2023-10-31T12:39:33Z</time>
      </trkpt>
      <trkpt lat="42.80608" lon="-0.03508">
        <ele>1964</ele>
        <time>2023-10-31T12:39:34Z</time>
      </trkpt>
      <trkpt lat="42.80607" lon="-0.03507">
        <ele>1963.9</ele>
        <time>2023-10-31T12:39:35Z</time>
      </trkpt>
      <trkpt lat="42.80607" lon="-0.03505">
        <ele>1963.8</ele>
        <time>2023-10-31T12:39:36Z</time>
      </trkpt>
      <trkpt lat="42.80607" lon="-0.03504">
        <ele>1963.6</ele>
        <time>2023-10-31T12:39:37Z</time>
      </trkpt>
      <trkpt lat="42.80606" lon="-0.03503">
        <ele>1963.5</ele>
        <time>2023-10-31T12:39:38Z</time>
      </trkpt>
      <trkpt lat="42.80606" lon="-0.03501">
        <ele>1963.4</ele>
        <time>2023-10-31T12:39:39Z</time>
      </trkpt>
      <trkpt lat="42.80605" lon="-0.035">
        <ele>1963.3</ele>
        <time>2023-10-31T12:39:40Z</time>
      </trkpt>
      <trkpt lat="42.80604" lon="-0.03499">
        <ele>1963.1</ele>
        <time>2023-10-31T12:39:41Z</time>
      </trkpt>
      <trkpt lat="42.80603" lon="-0.03499">
        <ele>1963</ele>
        <time>2023-10-31T12:39:42Z</time>
      </trkpt>
      <trkpt lat="42.80603" lon="-0.03498">
        <ele>1962.9</ele>
        <time>2023-10-31T12:39:43Z</time>
      </trkpt>
      <trkpt lat="42.80601" lon="-0.03498">
        <ele>1962.7</ele>
        <time>2023-10-31T12:39:44Z</time>
      </trkpt>
      <trkpt lat="42.806" lon="-0.03501">
        <ele>1962.4</ele>
        <time>2023-10-31T12:39:45Z</time>
      </trkpt>
      <trkpt lat="42.806" lon="-0.03504">
        <ele>1962.1</ele>
        <time>2023-10-31T12:39:46Z</time>
      </trkpt>
      <trkpt lat="42.806" lon="-0.03505">
        <ele>1961.9</ele>
        <time>2023-10-31T12:39:47Z</time>
      </trkpt>
      <trkpt lat="42.806" lon="-0.03507">
        <ele>1961.7</ele>
        <time>2023-10-31T12:39:48Z</time>
      </trkpt>
      <trkpt lat="42.80599" lon="-0.03508">
        <ele>1961.5</ele>
        <time>2023-10-31T12:39:49Z</time>
      </trkpt>
      <trkpt lat="42.80597" lon="-0.03507">
        <ele>1961.3</ele>
        <time>2023-10-31T12:39:50Z</time>
      </trkpt>
      <trkpt lat="42.80596" lon="-0.03505">
        <ele>1961</ele>
        <time>2023-10-31T12:39:51Z</time>
      </trkpt>
      <trkpt lat="42.80596" lon="-0.03503">
        <ele>1960.7</ele>
        <time>2023-10-31T12:39:52Z</time>
      </trkpt>
      <trkpt lat="42.80597" lon="-0.03501">
        <ele>1960.5</ele>
        <time>2023-10-31T12:39:53Z</time>
      </trkpt>
      <trkpt lat="42.80598" lon="-0.035">
        <ele>1960.3</ele>
        <time>2023-10-31T12:39:54Z</time>
      </trkpt>
      <trkpt lat="42.80598" lon="-0.03499">
        <ele>1960.2</ele>
        <time>2023-10-31T12:39:55Z</time>
      </trkpt>
      <trkpt lat="42.80598" lon="-0.03497">
        <ele>1960</ele>
        <time>2023-10-31T12:39:56Z</time>
      </trkpt>
      <trkpt lat="42.80598" lon="-0.03496">
        <ele>1959.9</ele>
        <time>2023-10-31T12:39:57Z</time>
      </trkpt>
      <trkpt lat="42.80598" lon="-0.03495">
        <ele>1959.8</ele>
        <time>2023-10-31T12:39:58Z</time>
      </trkpt>
      <trkpt lat="42.80599" lon="-0.03494">
        <ele>1959.7</ele>
        <time>2023-10-31T12:39:59Z</time>
      </trkpt>
      <trkpt lat="42.80598" lon="-0.03493">
        <ele>1959.6</ele>
        <time>2023-10-31T12:40:00Z</time>
      </trkpt>
      <trkpt lat="42.80597" lon="-0.03492">
        <ele>1959.4</ele>
        <time>2023-10-31T12:40:01Z</time>
      </trkpt>
      <trkpt lat="42.80597" lon="-0.03492">
        <ele>1959.4</ele>
        <time>2023-10-31T12:40:02Z</time>
      </trkpt>
      <trkpt lat="42.80596" lon="-0.03492">
        <ele>1959.2</ele>
        <time>2023-10-31T12:40:03Z</time>
      </trkpt>
      <trkpt lat="42.80595" lon="-0.03491">
        <ele>1959.1</ele>
        <time>2023-10-31T12:40:04Z</time>
      </trkpt>
      <trkpt lat="42.80594" lon="-0.0349">
        <ele>1958.9</ele>
        <time>2023-10-31T12:40:05Z</time>
      </trkpt>
      <trkpt lat="42.80594" lon="-0.03489">
        <ele>1958.8</ele>
        <time>2023-10-31T12:40:06Z</time>
      </trkpt>
      <trkpt lat="42.80594" lon="-0.03487">
        <ele>1958.7</ele>
        <time>2023-10-31T12:40:07Z</time>
      </trkpt>
      <trkpt lat="42.80595" lon="-0.03485">
        <ele>1958.5</ele>
        <time>2023-10-31T12:40:08Z</time>
      </trkpt>
      <trkpt lat="42.80595" lon="-0.03484">
        <ele>1958.3</ele>
        <time>2023-10-31T12:40:09Z</time>
      </trkpt>
      <trkpt lat="42.80594" lon="-0.03482">
        <ele>1958.2</ele>
        <time>2023-10-31T12:40:10Z</time>
      </trkpt>
      <trkpt lat="42.80594" lon="-0.03481">
        <ele>1958.1</ele>
        <time>2023-10-31T12:40:11Z</time>
      </trkpt>
      <trkpt lat="42.80593" lon="-0.03479">
        <ele>1957.9</ele>
        <time>2023-10-31T12:40:12Z</time>
      </trkpt>
      <trkpt lat="42.80593" lon="-0.03478">
        <ele>1957.8</ele>
        <time>2023-10-31T12:40:13Z</time>
      </trkpt>
      <trkpt lat="42.80594" lon="-0.03476">
        <ele>1957.7</ele>
        <time>2023-10-31T12:40:14Z</time>
      </trkpt>
      <trkpt lat="42.80594" lon="-0.03475">
        <ele>1957.5</ele>
        <time>2023-10-31T12:40:15Z</time>
      </trkpt>
      <trkpt lat="42.80594" lon="-0.03474">
        <ele>1957.5</ele>
        <time>2023-10-31T12:40:16Z</time>
      </trkpt>
      <trkpt lat="42.80594" lon="-0.03473">
        <ele>1957.4</ele>
        <time>2023-10-31T12:40:17Z</time>
      </trkpt>
      <trkpt lat="42.80593" lon="-0.03472">
        <ele>1957.3</ele>
        <time>2023-10-31T12:40:18Z</time>
      </trkpt>
      <trkpt lat="42.80593" lon="-0.03472">
        <ele>1957.2</ele>
        <time>2023-10-31T12:40:19Z</time>
      </trkpt>
      <trkpt lat="42.80592" lon="-0.03471">
        <ele>1957.1</ele>
        <time>2023-10-31T12:40:20Z</time>
      </trkpt>
      <trkpt lat="42.80592" lon="-0.0347">
        <ele>1956.9</ele>
        <time>2023-10-31T12:40:21Z</time>
      </trkpt>
      <trkpt lat="42.80592" lon="-0.03469">
        <ele>1956.8</ele>
        <time>2023-10-31T12:40:22Z</time>
      </trkpt>
      <trkpt lat="42.80592" lon="-0.03467">
        <ele>1956.7</ele>
        <time>2023-10-31T12:40:23Z</time>
      </trkpt>
      <trkpt lat="42.80592" lon="-0.03467">
        <ele>1956.6</ele>
        <time>2023-10-31T12:40:24Z</time>
      </trkpt>
      <trkpt lat="42.80592" lon="-0.03466">
        <ele>1956.6</ele>
        <time>2023-10-31T12:40:25Z</time>
      </trkpt>
      <trkpt lat="42.80592" lon="-0.03465">
        <ele>1956.5</ele>
        <time>2023-10-31T12:40:26Z</time>
      </trkpt>
      <trkpt lat="42.80592" lon="-0.03465">
        <ele>1956.4</ele>
        <time>2023-10-31T12:40:27Z</time>
      </trkpt>
      <trkpt lat="42.80591" lon="-0.03465">
        <ele>1956.3</ele>
        <time>2023-10-31T12:40:28Z</time>
      </trkpt>
      <trkpt lat="42.80591" lon="-0.03465">
        <ele>1956.3</ele>
        <time>2023-10-31T12:40:29Z</time>
      </trkpt>
      <trkpt lat="42.80591" lon="-0.03465">
        <ele>1956.2</ele>
        <time>2023-10-31T12:40:30Z</time>
      </trkpt>
      <trkpt lat="42.8059" lon="-0.03465">
        <ele>1956.1</ele>
        <time>2023-10-31T12:40:31Z</time>
      </trkpt>
      <trkpt lat="42.80589" lon="-0.03464">
        <ele>1956</ele>
        <time>2023-10-31T12:40:32Z</time>
      </trkpt>
      <trkpt lat="42.8059" lon="-0.03463">
        <ele>1955.9</ele>
        <time>2023-10-31T12:40:33Z</time>
      </trkpt>
      <trkpt lat="42.8059" lon="-0.03462">
        <ele>1955.8</ele>
        <time>2023-10-31T12:40:34Z</time>
      </trkpt>
      <trkpt lat="42.8059" lon="-0.03462">
        <ele>1955.7</ele>
        <time>2023-10-31T12:40:35Z</time>
      </trkpt>
      <trkpt lat="42.8059" lon="-0.03459">
        <ele>1955.4</ele>
        <time>2023-10-31T12:40:36Z</time>
      </trkpt>
      <trkpt lat="42.8059" lon="-0.03458">
        <ele>1955.3</ele>
        <time>2023-10-31T12:40:37Z</time>
      </trkpt>
      <trkpt lat="42.8059" lon="-0.03457">
        <ele>1955.2</ele>
        <time>2023-10-31T12:40:38Z</time>
      </trkpt>
      <trkpt lat="42.8059" lon="-0.03456">
        <ele>1955.1</ele>
        <time>2023-10-31T12:40:39Z</time>
      </trkpt>
      <trkpt lat="42.8059" lon="-0.03455">
        <ele>1955</ele>
        <time>2023-10-31T12:40:40Z</time>
      </trkpt>
      <trkpt lat="42.8059" lon="-0.03455">
        <ele>1954.9</ele>
        <time>2023-10-31T12:40:41Z</time>
      </trkpt>
      <trkpt lat="42.8059" lon="-0.03454">
        <ele>1954.8</ele>
        <time>2023-10-31T12:40:42Z</time>
      </trkpt>
      <trkpt lat="42.80589" lon="-0.03454">
        <ele>1954.7</ele>
        <time>2023-10-31T12:40:43Z</time>
      </trkpt>
      <trkpt lat="42.80588" lon="-0.03454">
        <ele>1954.6</ele>
        <time>2023-10-31T12:40:44Z</time>
      </trkpt>
      <trkpt lat="42.80587" lon="-0.03455">
        <ele>1954.5</ele>
        <time>2023-10-31T12:40:45Z</time>
      </trkpt>
      <trkpt lat="42.80587" lon="-0.03455">
        <ele>1954.4</ele>
        <time>2023-10-31T12:40:46Z</time>
      </trkpt>
      <trkpt lat="42.80586" lon="-0.03455">
        <ele>1954.3</ele>
        <time>2023-10-31T12:40:47Z</time>
      </trkpt>
      <trkpt lat="42.80585" lon="-0.03457">
        <ele>1954</ele>
        <time>2023-10-31T12:40:48Z</time>
      </trkpt>
      <trkpt lat="42.80584" lon="-0.03458">
        <ele>1953.9</ele>
        <time>2023-10-31T12:40:49Z</time>
      </trkpt>
      <trkpt lat="42.80582" lon="-0.03459">
        <ele>1953.7</ele>
        <time>2023-10-31T12:40:50Z</time>
      </trkpt>
      <trkpt lat="42.80581" lon="-0.03458">
        <ele>1953.7</ele>
        <time>2023-10-31T12:40:51Z</time>
      </trkpt>
      <trkpt lat="42.8058" lon="-0.03458">
        <ele>1953.7</ele>
        <time>2023-10-31T12:40:52Z</time>
      </trkpt>
      <trkpt lat="42.80578" lon="-0.03458">
        <ele>1953.7</ele>
        <time>2023-10-31T12:40:53Z</time>
      </trkpt>
      <trkpt lat="42.80577" lon="-0.03458">
        <ele>1953.7</ele>
        <time>2023-10-31T12:40:54Z</time>
      </trkpt>
      <trkpt lat="42.80576" lon="-0.03458">
        <ele>1953.7</ele>
        <time>2023-10-31T12:40:55Z</time>
      </trkpt>
      <trkpt lat="42.80575" lon="-0.03458">
        <ele>1953.8</ele>
        <time>2023-10-31T12:40:56Z</time>
      </trkpt>
      <trkpt lat="42.80574" lon="-0.03458">
        <ele>1953.8</ele>
        <time>2023-10-31T12:40:57Z</time>
      </trkpt>
      <trkpt lat="42.80573" lon="-0.03457">
        <ele>1953.8</ele>
        <time>2023-10-31T12:40:58Z</time>
      </trkpt>
      <trkpt lat="42.80573" lon="-0.03456">
        <ele>1953.8</ele>
        <time>2023-10-31T12:40:59Z</time>
      </trkpt>
      <trkpt lat="42.80573" lon="-0.03455">
        <ele>1953.9</ele>
        <time>2023-10-31T12:41:00Z</time>
      </trkpt>
      <trkpt lat="42.80573" lon="-0.03453">
        <ele>1953.9</ele>
        <time>2023-10-31T12:41:01Z</time>
      </trkpt>
      <trkpt lat="42.80574" lon="-0.03451">
        <ele>1953.9</ele>
        <time>2023-10-31T12:41:02Z</time>
      </trkpt>
      <trkpt lat="42.80575" lon="-0.0345">
        <ele>1954</ele>
        <time>2023-10-31T12:41:03Z</time>
      </trkpt>
      <trkpt lat="42.80575" lon="-0.03449">
        <ele>1954</ele>
        <time>2023-10-31T12:41:04Z</time>
      </trkpt>
      <trkpt lat="42.80574" lon="-0.03447">
        <ele>1954</ele>
        <time>2023-10-31T12:41:05Z</time>
      </trkpt>
      <trkpt lat="42.80574" lon="-0.03445">
        <ele>1954.1</ele>
        <time>2023-10-31T12:41:06Z</time>
      </trkpt>
      <trkpt lat="42.80574" lon="-0.03443">
        <ele>1954.1</ele>
        <time>2023-10-31T12:41:07Z</time>
      </trkpt>
      <trkpt lat="42.80574" lon="-0.0344">
        <ele>1954.2</ele>
        <time>2023-10-31T12:41:08Z</time>
      </trkpt>
      <trkpt lat="42.80573" lon="-0.03439">
        <ele>1954.1</ele>
        <time>2023-10-31T12:41:09Z</time>
      </trkpt>
      <trkpt lat="42.80572" lon="-0.03437">
        <ele>1954</ele>
        <time>2023-10-31T12:41:10Z</time>
      </trkpt>
      <trkpt lat="42.80572" lon="-0.03435">
        <ele>1953.9</ele>
        <time>2023-10-31T12:41:11Z</time>
      </trkpt>
      <trkpt lat="42.80572" lon="-0.03434">
        <ele>1953.8</ele>
        <time>2023-10-31T12:41:12Z</time>
      </trkpt>
      <trkpt lat="42.80571" lon="-0.03433">
        <ele>1953.8</ele>
        <time>2023-10-31T12:41:13Z</time>
      </trkpt>
      <trkpt lat="42.80571" lon="-0.03431">
        <ele>1953.7</ele>
        <time>2023-10-31T12:41:14Z</time>
      </trkpt>
      <trkpt lat="42.80571" lon="-0.03429">
        <ele>1953.6</ele>
        <time>2023-10-31T12:41:15Z</time>
      </trkpt>
      <trkpt lat="42.8057" lon="-0.03427">
        <ele>1953.5</ele>
        <time>2023-10-31T12:41:16Z</time>
      </trkpt>
      <trkpt lat="42.8057" lon="-0.03426">
        <ele>1953.4</ele>
        <time>2023-10-31T12:41:17Z</time>
      </trkpt>
      <trkpt lat="42.8057" lon="-0.03424">
        <ele>1953.3</ele>
        <time>2023-10-31T12:41:18Z</time>
      </trkpt>
      <trkpt lat="42.80571" lon="-0.03422">
        <ele>1953.1</ele>
        <time>2023-10-31T12:41:19Z</time>
      </trkpt>
      <trkpt lat="42.80571" lon="-0.03421">
        <ele>1953</ele>
        <time>2023-10-31T12:41:20Z</time>
      </trkpt>
      <trkpt lat="42.80571" lon="-0.0342">
        <ele>1953</ele>
        <time>2023-10-31T12:41:21Z</time>
      </trkpt>
      <trkpt lat="42.80571" lon="-0.03418">
        <ele>1952.8</ele>
        <time>2023-10-31T12:41:22Z</time>
      </trkpt>
      <trkpt lat="42.80571" lon="-0.03417">
        <ele>1952.7</ele>
        <time>2023-10-31T12:41:23Z</time>
      </trkpt>
      <trkpt lat="42.80571" lon="-0.03415">
        <ele>1952.6</ele>
        <time>2023-10-31T12:41:25Z</time>
      </trkpt>
      <trkpt lat="42.80571" lon="-0.03413">
        <ele>1952.4</ele>
        <time>2023-10-31T12:41:26Z</time>
      </trkpt>
      <trkpt lat="42.8057" lon="-0.03413">
        <ele>1952.3</ele>
        <time>2023-10-31T12:41:27Z</time>
      </trkpt>
      <trkpt lat="42.80569" lon="-0.03412">
        <ele>1952.2</ele>
        <time>2023-10-31T12:41:28Z</time>
      </trkpt>
      <trkpt lat="42.80569" lon="-0.03411">
        <ele>1952.1</ele>
        <time>2023-10-31T12:41:29Z</time>
      </trkpt>
      <trkpt lat="42.80568" lon="-0.0341">
        <ele>1952</ele>
        <time>2023-10-31T12:41:31Z</time>
      </trkpt>
      <trkpt lat="42.8057" lon="-0.03413">
        <ele>1951.7</ele>
        <time>2023-10-31T12:41:32Z</time>
      </trkpt>
      <trkpt lat="42.8057" lon="-0.03412">
        <ele>1951.6</ele>
        <time>2023-10-31T12:41:33Z</time>
      </trkpt>
      <trkpt lat="42.8057" lon="-0.03411">
        <ele>1951.4</ele>
        <time>2023-10-31T12:41:34Z</time>
      </trkpt>
      <trkpt lat="42.8057" lon="-0.03411">
        <ele>1951.4</ele>
        <time>2023-10-31T12:41:35Z</time>
      </trkpt>
      <trkpt lat="42.8057" lon="-0.0341">
        <ele>1951.4</ele>
        <time>2023-10-31T12:41:36Z</time>
      </trkpt>
      <trkpt lat="42.8057" lon="-0.03409">
        <ele>1951.3</ele>
        <time>2023-10-31T12:41:37Z</time>
      </trkpt>
      <trkpt lat="42.80571" lon="-0.03409">
        <ele>1951.2</ele>
        <time>2023-10-31T12:41:38Z</time>
      </trkpt>
      <trkpt lat="42.80571" lon="-0.03408">
        <ele>1951.1</ele>
        <time>2023-10-31T12:41:39Z</time>
      </trkpt>
      <trkpt lat="42.80571" lon="-0.03407">
        <ele>1951</ele>
        <time>2023-10-31T12:41:40Z</time>
      </trkpt>
      <trkpt lat="42.8057" lon="-0.03406">
        <ele>1950.8</ele>
        <time>2023-10-31T12:41:41Z</time>
      </trkpt>
      <trkpt lat="42.8057" lon="-0.03405">
        <ele>1950.7</ele>
        <time>2023-10-31T12:41:42Z</time>
      </trkpt>
      <trkpt lat="42.8057" lon="-0.03404">
        <ele>1950.6</ele>
        <time>2023-10-31T12:41:43Z</time>
      </trkpt>
      <trkpt lat="42.80568" lon="-0.03404">
        <ele>1950.3</ele>
        <time>2023-10-31T12:41:44Z</time>
      </trkpt>
      <trkpt lat="42.80568" lon="-0.03403">
        <ele>1950.1</ele>
        <time>2023-10-31T12:41:45Z</time>
      </trkpt>
      <trkpt lat="42.80568" lon="-0.03402">
        <ele>1950</ele>
        <time>2023-10-31T12:41:46Z</time>
      </trkpt>
      <trkpt lat="42.80569" lon="-0.03401">
        <ele>1949.9</ele>
        <time>2023-10-31T12:41:47Z</time>
      </trkpt>
      <trkpt lat="42.80569" lon="-0.034">
        <ele>1949.7</ele>
        <time>2023-10-31T12:41:48Z</time>
      </trkpt>
      <trkpt lat="42.80569" lon="-0.03399">
        <ele>1949.6</ele>
        <time>2023-10-31T12:41:49Z</time>
      </trkpt>
      <trkpt lat="42.8057" lon="-0.03398">
        <ele>1949.5</ele>
        <time>2023-10-31T12:41:50Z</time>
      </trkpt>
      <trkpt lat="42.8057" lon="-0.03397">
        <ele>1949.3</ele>
        <time>2023-10-31T12:41:51Z</time>
      </trkpt>
      <trkpt lat="42.8057" lon="-0.03395">
        <ele>1949.2</ele>
        <time>2023-10-31T12:41:52Z</time>
      </trkpt>
      <trkpt lat="42.80569" lon="-0.03394">
        <ele>1949</ele>
        <time>2023-10-31T12:41:53Z</time>
      </trkpt>
      <trkpt lat="42.80569" lon="-0.03393">
        <ele>1948.8</ele>
        <time>2023-10-31T12:41:54Z</time>
      </trkpt>
      <trkpt lat="42.80569" lon="-0.03392">
        <ele>1948.8</ele>
        <time>2023-10-31T12:41:55Z</time>
      </trkpt>
      <trkpt lat="42.80569" lon="-0.03392">
        <ele>1948.7</ele>
        <time>2023-10-31T12:41:56Z</time>
      </trkpt>
      <trkpt lat="42.80568" lon="-0.03392">
        <ele>1948.6</ele>
        <time>2023-10-31T12:41:57Z</time>
      </trkpt>
      <trkpt lat="42.80567" lon="-0.03391">
        <ele>1948.4</ele>
        <time>2023-10-31T12:41:58Z</time>
      </trkpt>
      <trkpt lat="42.80567" lon="-0.0339">
        <ele>1948.3</ele>
        <time>2023-10-31T12:41:59Z</time>
      </trkpt>
      <trkpt lat="42.80566" lon="-0.03388">
        <ele>1948.1</ele>
        <time>2023-10-31T12:42:00Z</time>
      </trkpt>
      <trkpt lat="42.80566" lon="-0.03388">
        <ele>1948</ele>
        <time>2023-10-31T12:42:01Z</time>
      </trkpt>
      <trkpt lat="42.80566" lon="-0.03387">
        <ele>1947.9</ele>
        <time>2023-10-31T12:42:02Z</time>
      </trkpt>
      <trkpt lat="42.80566" lon="-0.03385">
        <ele>1947.8</ele>
        <time>2023-10-31T12:42:03Z</time>
      </trkpt>
      <trkpt lat="42.80565" lon="-0.03385">
        <ele>1947.6</ele>
        <time>2023-10-31T12:42:04Z</time>
      </trkpt>
      <trkpt lat="42.80564" lon="-0.03385">
        <ele>1947.5</ele>
        <time>2023-10-31T12:42:05Z</time>
      </trkpt>
      <trkpt lat="42.80564" lon="-0.03384">
        <ele>1947.5</ele>
        <time>2023-10-31T12:42:06Z</time>
      </trkpt>
      <trkpt lat="42.80563" lon="-0.03385">
        <ele>1947.3</ele>
        <time>2023-10-31T12:42:07Z</time>
      </trkpt>
      <trkpt lat="42.80562" lon="-0.03385">
        <ele>1947.2</ele>
        <time>2023-10-31T12:42:08Z</time>
      </trkpt>
      <trkpt lat="42.80562" lon="-0.03385">
        <ele>1947.1</ele>
        <time>2023-10-31T12:42:09Z</time>
      </trkpt>
      <trkpt lat="42.80561" lon="-0.03385">
        <ele>1947.1</ele>
        <time>2023-10-31T12:42:10Z</time>
      </trkpt>
      <trkpt lat="42.80561" lon="-0.03385">
        <ele>1947</ele>
        <time>2023-10-31T12:42:11Z</time>
      </trkpt>
      <trkpt lat="42.8056" lon="-0.03384">
        <ele>1946.9</ele>
        <time>2023-10-31T12:42:12Z</time>
      </trkpt>
      <trkpt lat="42.8056" lon="-0.03383">
        <ele>1946.7</ele>
        <time>2023-10-31T12:42:13Z</time>
      </trkpt>
      <trkpt lat="42.80559" lon="-0.03383">
        <ele>1946.5</ele>
        <time>2023-10-31T12:42:14Z</time>
      </trkpt>
      <trkpt lat="42.80557" lon="-0.03382">
        <ele>1946.4</ele>
        <time>2023-10-31T12:42:15Z</time>
      </trkpt>
      <trkpt lat="42.80558" lon="-0.03382">
        <ele>1946.3</ele>
        <time>2023-10-31T12:42:16Z</time>
      </trkpt>
      <trkpt lat="42.80557" lon="-0.03381">
        <ele>1946.1</ele>
        <time>2023-10-31T12:42:17Z</time>
      </trkpt>
      <trkpt lat="42.80556" lon="-0.03381">
        <ele>1946</ele>
        <time>2023-10-31T12:42:18Z</time>
      </trkpt>
      <trkpt lat="42.80556" lon="-0.0338">
        <ele>1945.9</ele>
        <time>2023-10-31T12:42:19Z</time>
      </trkpt>
      <trkpt lat="42.80555" lon="-0.03379">
        <ele>1945.8</ele>
        <time>2023-10-31T12:42:20Z</time>
      </trkpt>
      <trkpt lat="42.80555" lon="-0.03379">
        <ele>1945.7</ele>
        <time>2023-10-31T12:42:21Z</time>
      </trkpt>
      <trkpt lat="42.80555" lon="-0.0338">
        <ele>1945.7</ele>
        <time>2023-10-31T12:42:22Z</time>
      </trkpt>
      <trkpt lat="42.80555" lon="-0.03379">
        <ele>1945.6</ele>
        <time>2023-10-31T12:42:23Z</time>
      </trkpt>
      <trkpt lat="42.80554" lon="-0.03378">
        <ele>1945.4</ele>
        <time>2023-10-31T12:42:24Z</time>
      </trkpt>
      <trkpt lat="42.80554" lon="-0.03377">
        <ele>1945.3</ele>
        <time>2023-10-31T12:42:25Z</time>
      </trkpt>
      <trkpt lat="42.80554" lon="-0.03377">
        <ele>1945.2</ele>
        <time>2023-10-31T12:42:26Z</time>
      </trkpt>
      <trkpt lat="42.80553" lon="-0.03376">
        <ele>1945.1</ele>
        <time>2023-10-31T12:42:27Z</time>
      </trkpt>
      <trkpt lat="42.80553" lon="-0.03376">
        <ele>1945</ele>
        <time>2023-10-31T12:42:28Z</time>
      </trkpt>
      <trkpt lat="42.80553" lon="-0.03375">
        <ele>1945</ele>
        <time>2023-10-31T12:42:29Z</time>
      </trkpt>
      <trkpt lat="42.80553" lon="-0.03374">
        <ele>1944.8</ele>
        <time>2023-10-31T12:42:30Z</time>
      </trkpt>
      <trkpt lat="42.80553" lon="-0.03374">
        <ele>1944.8</ele>
        <time>2023-10-31T12:42:31Z</time>
      </trkpt>
      <trkpt lat="42.80552" lon="-0.03374">
        <ele>1944.7</ele>
        <time>2023-10-31T12:42:32Z</time>
      </trkpt>
      <trkpt lat="42.80552" lon="-0.03372">
        <ele>1944.5</ele>
        <time>2023-10-31T12:42:33Z</time>
      </trkpt>
      <trkpt lat="42.80552" lon="-0.03372">
        <ele>1944.4</ele>
        <time>2023-10-31T12:42:34Z</time>
      </trkpt>
      <trkpt lat="42.80552" lon="-0.03372">
        <ele>1944.4</ele>
        <time>2023-10-31T12:42:35Z</time>
      </trkpt>
      <trkpt lat="42.80551" lon="-0.03371">
        <ele>1944.2</ele>
        <time>2023-10-31T12:42:36Z</time>
      </trkpt>
      <trkpt lat="42.80551" lon="-0.0337">
        <ele>1944</ele>
        <time>2023-10-31T12:42:37Z</time>
      </trkpt>
      <trkpt lat="42.80552" lon="-0.0337">
        <ele>1943.9</ele>
        <time>2023-10-31T12:42:38Z</time>
      </trkpt>
      <trkpt lat="42.80552" lon="-0.03369">
        <ele>1943.7</ele>
        <time>2023-10-31T12:42:39Z</time>
      </trkpt>
      <trkpt lat="42.80553" lon="-0.03369">
        <ele>1943.6</ele>
        <time>2023-10-31T12:42:40Z</time>
      </trkpt>
      <trkpt lat="42.80553" lon="-0.03369">
        <ele>1943.4</ele>
        <time>2023-10-31T12:42:41Z</time>
      </trkpt>
      <trkpt lat="42.80553" lon="-0.03369">
        <ele>1943.4</ele>
        <time>2023-10-31T12:42:42Z</time>
      </trkpt>
      <trkpt lat="42.80553" lon="-0.03368">
        <ele>1943.1</ele>
        <time>2023-10-31T12:42:43Z</time>
      </trkpt>
      <trkpt lat="42.80554" lon="-0.03366">
        <ele>1942.8</ele>
        <time>2023-10-31T12:42:44Z</time>
      </trkpt>
      <trkpt lat="42.80553" lon="-0.03366">
        <ele>1942.7</ele>
        <time>2023-10-31T12:42:45Z</time>
      </trkpt>
      <trkpt lat="42.80552" lon="-0.03365">
        <ele>1942.4</ele>
        <time>2023-10-31T12:42:46Z</time>
      </trkpt>
      <trkpt lat="42.80553" lon="-0.03364">
        <ele>1942.3</ele>
        <time>2023-10-31T12:42:47Z</time>
      </trkpt>
      <trkpt lat="42.80553" lon="-0.03363">
        <ele>1942.1</ele>
        <time>2023-10-31T12:42:48Z</time>
      </trkpt>
      <trkpt lat="42.80554" lon="-0.03362">
        <ele>1941.7</ele>
        <time>2023-10-31T12:42:49Z</time>
      </trkpt>
      <trkpt lat="42.80554" lon="-0.03361">
        <ele>1941.5</ele>
        <time>2023-10-31T12:42:50Z</time>
      </trkpt>
      <trkpt lat="42.80554" lon="-0.0336">
        <ele>1941.3</ele>
        <time>2023-10-31T12:42:51Z</time>
      </trkpt>
      <trkpt lat="42.80554" lon="-0.03359">
        <ele>1941.1</ele>
        <time>2023-10-31T12:42:52Z</time>
      </trkpt>
      <trkpt lat="42.80553" lon="-0.03359">
        <ele>1940.9</ele>
        <time>2023-10-31T12:42:53Z</time>
      </trkpt>
      <trkpt lat="42.80552" lon="-0.03359">
        <ele>1940.6</ele>
        <time>2023-10-31T12:42:54Z</time>
      </trkpt>
      <trkpt lat="42.80551" lon="-0.03359">
        <ele>1940.5</ele>
        <time>2023-10-31T12:42:55Z</time>
      </trkpt>
      <trkpt lat="42.80551" lon="-0.03359">
        <ele>1940.3</ele>
        <time>2023-10-31T12:42:56Z</time>
      </trkpt>
      <trkpt lat="42.80551" lon="-0.03358">
        <ele>1940.2</ele>
        <time>2023-10-31T12:42:57Z</time>
      </trkpt>
      <trkpt lat="42.8055" lon="-0.03358">
        <ele>1940.1</ele>
        <time>2023-10-31T12:42:58Z</time>
      </trkpt>
      <trkpt lat="42.8055" lon="-0.03357">
        <ele>1939.9</ele>
        <time>2023-10-31T12:42:59Z</time>
      </trkpt>
      <trkpt lat="42.8055" lon="-0.03356">
        <ele>1939.7</ele>
        <time>2023-10-31T12:43:00Z</time>
      </trkpt>
      <trkpt lat="42.8055" lon="-0.03356">
        <ele>1939.6</ele>
        <time>2023-10-31T12:43:01Z</time>
      </trkpt>
      <trkpt lat="42.80549" lon="-0.03355">
        <ele>1939.4</ele>
        <time>2023-10-31T12:43:02Z</time>
      </trkpt>
      <trkpt lat="42.80549" lon="-0.03354">
        <ele>1939.2</ele>
        <time>2023-10-31T12:43:03Z</time>
      </trkpt>
      <trkpt lat="42.80548" lon="-0.03354">
        <ele>1939.1</ele>
        <time>2023-10-31T12:43:04Z</time>
      </trkpt>
      <trkpt lat="42.80548" lon="-0.03354">
        <ele>1938.9</ele>
        <time>2023-10-31T12:43:05Z</time>
      </trkpt>
      <trkpt lat="42.80548" lon="-0.03355">
        <ele>1938.7</ele>
        <time>2023-10-31T12:43:06Z</time>
      </trkpt>
      <trkpt lat="42.80546" lon="-0.03356">
        <ele>1938.2</ele>
        <time>2023-10-31T12:43:07Z</time>
      </trkpt>
      <trkpt lat="42.80546" lon="-0.03356">
        <ele>1938.2</ele>
        <time>2023-10-31T12:43:08Z</time>
      </trkpt>
      <trkpt lat="42.80547" lon="-0.03356">
        <ele>1938.2</ele>
        <time>2023-10-31T12:43:09Z</time>
      </trkpt>
      <trkpt lat="42.80546" lon="-0.03356">
        <ele>1938</ele>
        <time>2023-10-31T12:43:10Z</time>
      </trkpt>
      <trkpt lat="42.80546" lon="-0.03355">
        <ele>1938</ele>
        <time>2023-10-31T12:43:11Z</time>
      </trkpt>
      <trkpt lat="42.80546" lon="-0.03355">
        <ele>1937.9</ele>
        <time>2023-10-31T12:43:12Z</time>
      </trkpt>
      <trkpt lat="42.80546" lon="-0.03354">
        <ele>1937.7</ele>
        <time>2023-10-31T12:43:13Z</time>
      </trkpt>
      <trkpt lat="42.80546" lon="-0.03354">
        <ele>1937.6</ele>
        <time>2023-10-31T12:43:14Z</time>
      </trkpt>
      <trkpt lat="42.80546" lon="-0.03353">
        <ele>1937.4</ele>
        <time>2023-10-31T12:43:15Z</time>
      </trkpt>
      <trkpt lat="42.80545" lon="-0.03352">
        <ele>1937.2</ele>
        <time>2023-10-31T12:43:16Z</time>
      </trkpt>
      <trkpt lat="42.80546" lon="-0.03351">
        <ele>1937</ele>
        <time>2023-10-31T12:43:17Z</time>
      </trkpt>
      <trkpt lat="42.80546" lon="-0.0335">
        <ele>1936.7</ele>
        <time>2023-10-31T12:43:18Z</time>
      </trkpt>
      <trkpt lat="42.80546" lon="-0.03349">
        <ele>1936.5</ele>
        <time>2023-10-31T12:43:19Z</time>
      </trkpt>
      <trkpt lat="42.80547" lon="-0.03348">
        <ele>1936.2</ele>
        <time>2023-10-31T12:43:20Z</time>
      </trkpt>
      <trkpt lat="42.80546" lon="-0.03351">
        <ele>1935.6</ele>
        <time>2023-10-31T12:43:21Z</time>
      </trkpt>
      <trkpt lat="42.80548" lon="-0.03348">
        <ele>1935</ele>
        <time>2023-10-31T12:43:22Z</time>
      </trkpt>
      <trkpt lat="42.80549" lon="-0.03347">
        <ele>1934.6</ele>
        <time>2023-10-31T12:43:23Z</time>
      </trkpt>
      <trkpt lat="42.80549" lon="-0.03347">
        <ele>1934.6</ele>
        <time>2023-10-31T12:43:24Z</time>
      </trkpt>
      <trkpt lat="42.8055" lon="-0.03346">
        <ele>1934.3</ele>
        <time>2023-10-31T12:43:25Z</time>
      </trkpt>
      <trkpt lat="42.8055" lon="-0.03345">
        <ele>1934.2</ele>
        <time>2023-10-31T12:43:26Z</time>
      </trkpt>
      <trkpt lat="42.8055" lon="-0.03345">
        <ele>1934</ele>
        <time>2023-10-31T12:43:27Z</time>
      </trkpt>
      <trkpt lat="42.80551" lon="-0.03344">
        <ele>1933.8</ele>
        <time>2023-10-31T12:43:28Z</time>
      </trkpt>
      <trkpt lat="42.80552" lon="-0.03343">
        <ele>1933.6</ele>
        <time>2023-10-31T12:43:29Z</time>
      </trkpt>
      <trkpt lat="42.80552" lon="-0.03342">
        <ele>1933.4</ele>
        <time>2023-10-31T12:43:30Z</time>
      </trkpt>
      <trkpt lat="42.80553" lon="-0.03342">
        <ele>1933.2</ele>
        <time>2023-10-31T12:43:31Z</time>
      </trkpt>
      <trkpt lat="42.80553" lon="-0.03341">
        <ele>1933</ele>
        <time>2023-10-31T12:43:32Z</time>
      </trkpt>
      <trkpt lat="42.80553" lon="-0.0334">
        <ele>1932.9</ele>
        <time>2023-10-31T12:43:33Z</time>
      </trkpt>
      <trkpt lat="42.80552" lon="-0.0334">
        <ele>1932.6</ele>
        <time>2023-10-31T12:43:34Z</time>
      </trkpt>
      <trkpt lat="42.80551" lon="-0.03339">
        <ele>1932.4</ele>
        <time>2023-10-31T12:43:35Z</time>
      </trkpt>
      <trkpt lat="42.8055" lon="-0.03339">
        <ele>1932.2</ele>
        <time>2023-10-31T12:43:36Z</time>
      </trkpt>
      <trkpt lat="42.8055" lon="-0.03339">
        <ele>1932.1</ele>
        <time>2023-10-31T12:43:37Z</time>
      </trkpt>
      <trkpt lat="42.8055" lon="-0.03339">
        <ele>1932</ele>
        <time>2023-10-31T12:43:38Z</time>
      </trkpt>
      <trkpt lat="42.8055" lon="-0.03337">
        <ele>1931.8</ele>
        <time>2023-10-31T12:43:39Z</time>
      </trkpt>
      <trkpt lat="42.8055" lon="-0.03336">
        <ele>1931.5</ele>
        <time>2023-10-31T12:43:40Z</time>
      </trkpt>
      <trkpt lat="42.80551" lon="-0.03335">
        <ele>1931.4</ele>
        <time>2023-10-31T12:43:41Z</time>
      </trkpt>
      <trkpt lat="42.80551" lon="-0.03334">
        <ele>1931.1</ele>
        <time>2023-10-31T12:43:42Z</time>
      </trkpt>
      <trkpt lat="42.80551" lon="-0.03333">
        <ele>1931</ele>
        <time>2023-10-31T12:43:43Z</time>
      </trkpt>
      <trkpt lat="42.80551" lon="-0.03333">
        <ele>1930.9</ele>
        <time>2023-10-31T12:43:44Z</time>
      </trkpt>
      <trkpt lat="42.80552" lon="-0.03332">
        <ele>1930.8</ele>
        <time>2023-10-31T12:43:45Z</time>
      </trkpt>
      <trkpt lat="42.80552" lon="-0.03332">
        <ele>1930.7</ele>
        <time>2023-10-31T12:43:46Z</time>
      </trkpt>
      <trkpt lat="42.80552" lon="-0.03331">
        <ele>1930.6</ele>
        <time>2023-10-31T12:43:47Z</time>
      </trkpt>
      <trkpt lat="42.80552" lon="-0.03331">
        <ele>1930.5</ele>
        <time>2023-10-31T12:43:48Z</time>
      </trkpt>
      <trkpt lat="42.80552" lon="-0.03329">
        <ele>1930.4</ele>
        <time>2023-10-31T12:43:49Z</time>
      </trkpt>
      <trkpt lat="42.80552" lon="-0.03328">
        <ele>1930.2</ele>
        <time>2023-10-31T12:43:50Z</time>
      </trkpt>
      <trkpt lat="42.80552" lon="-0.03327">
        <ele>1930</ele>
        <time>2023-10-31T12:43:51Z</time>
      </trkpt>
      <trkpt lat="42.80552" lon="-0.03327">
        <ele>1930</ele>
        <time>2023-10-31T12:43:52Z</time>
      </trkpt>
      <trkpt lat="42.80552" lon="-0.03328">
        <ele>1929.9</ele>
        <time>2023-10-31T12:43:53Z</time>
      </trkpt>
      <trkpt lat="42.80552" lon="-0.03328">
        <ele>1929.9</ele>
        <time>2023-10-31T12:43:54Z</time>
      </trkpt>
      <trkpt lat="42.80552" lon="-0.03327">
        <ele>1929.8</ele>
        <time>2023-10-31T12:43:55Z</time>
      </trkpt>
      <trkpt lat="42.80552" lon="-0.03328">
        <ele>1929.8</ele>
        <time>2023-10-31T12:43:56Z</time>
      </trkpt>
      <trkpt lat="42.80552" lon="-0.03328">
        <ele>1929.7</ele>
        <time>2023-10-31T12:43:57Z</time>
      </trkpt>
      <trkpt lat="42.80552" lon="-0.03328">
        <ele>1929.7</ele>
        <time>2023-10-31T12:43:58Z</time>
      </trkpt>
      <trkpt lat="42.80552" lon="-0.03328">
        <ele>1929.7</ele>
        <time>2023-10-31T12:43:59Z</time>
      </trkpt>
      <trkpt lat="42.80552" lon="-0.03328">
        <ele>1929.7</ele>
        <time>2023-10-31T12:44:00Z</time>
      </trkpt>
      <trkpt lat="42.80552" lon="-0.03328">
        <ele>1929.7</ele>
        <time>2023-10-31T12:44:01Z</time>
      </trkpt>
      <trkpt lat="42.80552" lon="-0.03328">
        <ele>1929.7</ele>
        <time>2023-10-31T12:44:02Z</time>
      </trkpt>
      <trkpt lat="42.80552" lon="-0.03328">
        <ele>1929.7</ele>
        <time>2023-10-31T12:44:03Z</time>
      </trkpt>
      <trkpt lat="42.80551" lon="-0.03328">
        <ele>1929.6</ele>
        <time>2023-10-31T12:44:04Z</time>
      </trkpt>
      <trkpt lat="42.80552" lon="-0.03328">
        <ele>1929.6</ele>
        <time>2023-10-31T12:44:05Z</time>
      </trkpt>
      <trkpt lat="42.80552" lon="-0.03328">
        <ele>1929.6</ele>
        <time>2023-10-31T12:44:06Z</time>
      </trkpt>
      <trkpt lat="42.80552" lon="-0.03328">
        <ele>1929.6</ele>
        <time>2023-10-31T12:44:07Z</time>
      </trkpt>
      <trkpt lat="42.80552" lon="-0.03329">
        <ele>1929.5</ele>
        <time>2023-10-31T12:44:08Z</time>
      </trkpt>
      <trkpt lat="42.80552" lon="-0.03328">
        <ele>1929.5</ele>
        <time>2023-10-31T12:44:09Z</time>
      </trkpt>
      <trkpt lat="42.80552" lon="-0.03328">
        <ele>1929.3</ele>
        <time>2023-10-31T12:44:10Z</time>
      </trkpt>
      <trkpt lat="42.80552" lon="-0.03327">
        <ele>1929.2</ele>
        <time>2023-10-31T12:44:11Z</time>
      </trkpt>
      <trkpt lat="42.80551" lon="-0.03326">
        <ele>1929</ele>
        <time>2023-10-31T12:44:12Z</time>
      </trkpt>
      <trkpt lat="42.8055" lon="-0.03325">
        <ele>1928.8</ele>
        <time>2023-10-31T12:44:13Z</time>
      </trkpt>
      <trkpt lat="42.80549" lon="-0.03326">
        <ele>1928.6</ele>
        <time>2023-10-31T12:44:14Z</time>
      </trkpt>
      <trkpt lat="42.80549" lon="-0.03327">
        <ele>1928.6</ele>
        <time>2023-10-31T12:44:15Z</time>
      </trkpt>
      <trkpt lat="42.80549" lon="-0.03327">
        <ele>1928.5</ele>
        <time>2023-10-31T12:44:16Z</time>
      </trkpt>
      <trkpt lat="42.80548" lon="-0.03328">
        <ele>1928.3</ele>
        <time>2023-10-31T12:44:17Z</time>
      </trkpt>
      <trkpt lat="42.80547" lon="-0.0333">
        <ele>1928.1</ele>
        <time>2023-10-31T12:44:18Z</time>
      </trkpt>
      <trkpt lat="42.80547" lon="-0.03331">
        <ele>1927.9</ele>
        <time>2023-10-31T12:44:19Z</time>
      </trkpt>
      <trkpt lat="42.80547" lon="-0.03331">
        <ele>1927.8</ele>
        <time>2023-10-31T12:44:20Z</time>
      </trkpt>
      <trkpt lat="42.80546" lon="-0.03332">
        <ele>1927.7</ele>
        <time>2023-10-31T12:44:21Z</time>
      </trkpt>
      <trkpt lat="42.80546" lon="-0.03332">
        <ele>1927.7</ele>
        <time>2023-10-31T12:44:22Z</time>
      </trkpt>
      <trkpt lat="42.80545" lon="-0.03333">
        <ele>1927.5</ele>
        <time>2023-10-31T12:44:23Z</time>
      </trkpt>
      <trkpt lat="42.80545" lon="-0.03333">
        <ele>1927.5</ele>
        <time>2023-10-31T12:44:24Z</time>
      </trkpt>
      <trkpt lat="42.80545" lon="-0.03333">
        <ele>1927.4</ele>
        <time>2023-10-31T12:44:25Z</time>
      </trkpt>
      <trkpt lat="42.80545" lon="-0.03333">
        <ele>1927.4</ele>
        <time>2023-10-31T12:44:26Z</time>
      </trkpt>
      <trkpt lat="42.80544" lon="-0.03333">
        <ele>1927.2</ele>
        <time>2023-10-31T12:44:27Z</time>
      </trkpt>
      <trkpt lat="42.80543" lon="-0.03333">
        <ele>1927.1</ele>
        <time>2023-10-31T12:44:28Z</time>
      </trkpt>
      <trkpt lat="42.80542" lon="-0.03333">
        <ele>1927</ele>
        <time>2023-10-31T12:44:29Z</time>
      </trkpt>
      <trkpt lat="42.80542" lon="-0.03333">
        <ele>1926.9</ele>
        <time>2023-10-31T12:44:30Z</time>
      </trkpt>
      <trkpt lat="42.80541" lon="-0.03333">
        <ele>1926.8</ele>
        <time>2023-10-31T12:44:31Z</time>
      </trkpt>
      <trkpt lat="42.80541" lon="-0.03332">
        <ele>1926.6</ele>
        <time>2023-10-31T12:44:32Z</time>
      </trkpt>
      <trkpt lat="42.8054" lon="-0.03332">
        <ele>1926.5</ele>
        <time>2023-10-31T12:44:33Z</time>
      </trkpt>
      <trkpt lat="42.8054" lon="-0.03332">
        <ele>1926.4</ele>
        <time>2023-10-31T12:44:34Z</time>
      </trkpt>
      <trkpt lat="42.8054" lon="-0.03333">
        <ele>1926.3</ele>
        <time>2023-10-31T12:44:35Z</time>
      </trkpt>
      <trkpt lat="42.80539" lon="-0.03333">
        <ele>1926.2</ele>
        <time>2023-10-31T12:44:36Z</time>
      </trkpt>
      <trkpt lat="42.80539" lon="-0.03333">
        <ele>1926.2</ele>
        <time>2023-10-31T12:44:37Z</time>
      </trkpt>
      <trkpt lat="42.80538" lon="-0.03333">
        <ele>1926</ele>
        <time>2023-10-31T12:44:38Z</time>
      </trkpt>
      <trkpt lat="42.80538" lon="-0.03333">
        <ele>1925.9</ele>
        <time>2023-10-31T12:44:39Z</time>
      </trkpt>
      <trkpt lat="42.80538" lon="-0.03332">
        <ele>1925.9</ele>
        <time>2023-10-31T12:44:40Z</time>
      </trkpt>
      <trkpt lat="42.80538" lon="-0.03332">
        <ele>1925.9</ele>
        <time>2023-10-31T12:44:41Z</time>
      </trkpt>
      <trkpt lat="42.80538" lon="-0.03332">
        <ele>1925.8</ele>
        <time>2023-10-31T12:44:42Z</time>
      </trkpt>
      <trkpt lat="42.80538" lon="-0.03332">
        <ele>1925.8</ele>
        <time>2023-10-31T12:44:43Z</time>
      </trkpt>
      <trkpt lat="42.80537" lon="-0.03333">
        <ele>1925.7</ele>
        <time>2023-10-31T12:44:44Z</time>
      </trkpt>
      <trkpt lat="42.80537" lon="-0.03333">
        <ele>1925.7</ele>
        <time>2023-10-31T12:44:45Z</time>
      </trkpt>
      <trkpt lat="42.80537" lon="-0.03333">
        <ele>1925.6</ele>
        <time>2023-10-31T12:44:46Z</time>
      </trkpt>
      <trkpt lat="42.80535" lon="-0.03334">
        <ele>1925.4</ele>
        <time>2023-10-31T12:44:47Z</time>
      </trkpt>
      <trkpt lat="42.80535" lon="-0.03335">
        <ele>1925.2</ele>
        <time>2023-10-31T12:44:48Z</time>
      </trkpt>
      <trkpt lat="42.80534" lon="-0.03335">
        <ele>1925.1</ele>
        <time>2023-10-31T12:44:49Z</time>
      </trkpt>
      <trkpt lat="42.80533" lon="-0.03335">
        <ele>1925</ele>
        <time>2023-10-31T12:44:50Z</time>
      </trkpt>
      <trkpt lat="42.80532" lon="-0.03335">
        <ele>1924.8</ele>
        <time>2023-10-31T12:44:51Z</time>
      </trkpt>
      <trkpt lat="42.80532" lon="-0.03336">
        <ele>1924.8</ele>
        <time>2023-10-31T12:44:52Z</time>
      </trkpt>
      <trkpt lat="42.80531" lon="-0.03336">
        <ele>1924.6</ele>
        <time>2023-10-31T12:44:53Z</time>
      </trkpt>
      <trkpt lat="42.80532" lon="-0.03336">
        <ele>1924.5</ele>
        <time>2023-10-31T12:44:54Z</time>
      </trkpt>
      <trkpt lat="42.80532" lon="-0.03337">
        <ele>1924.5</ele>
        <time>2023-10-31T12:44:55Z</time>
      </trkpt>
      <trkpt lat="42.80531" lon="-0.03337">
        <ele>1924.4</ele>
        <time>2023-10-31T12:44:56Z</time>
      </trkpt>
      <trkpt lat="42.80532" lon="-0.03337">
        <ele>1924.3</ele>
        <time>2023-10-31T12:44:57Z</time>
      </trkpt>
      <trkpt lat="42.80531" lon="-0.03337">
        <ele>1924.2</ele>
        <time>2023-10-31T12:44:58Z</time>
      </trkpt>
      <trkpt lat="42.80531" lon="-0.03337">
        <ele>1924.2</ele>
        <time>2023-10-31T12:44:59Z</time>
      </trkpt>
      <trkpt lat="42.80531" lon="-0.03337">
        <ele>1924.1</ele>
        <time>2023-10-31T12:45:00Z</time>
      </trkpt>
      <trkpt lat="42.80531" lon="-0.03336">
        <ele>1924.1</ele>
        <time>2023-10-31T12:45:01Z</time>
      </trkpt>
      <trkpt lat="42.80531" lon="-0.03335">
        <ele>1923.9</ele>
        <time>2023-10-31T12:45:02Z</time>
      </trkpt>
      <trkpt lat="42.8053" lon="-0.03335">
        <ele>1923.8</ele>
        <time>2023-10-31T12:45:03Z</time>
      </trkpt>
      <trkpt lat="42.80529" lon="-0.03334">
        <ele>1923.6</ele>
        <time>2023-10-31T12:45:04Z</time>
      </trkpt>
      <trkpt lat="42.80528" lon="-0.03333">
        <ele>1923.4</ele>
        <time>2023-10-31T12:45:05Z</time>
      </trkpt>
      <trkpt lat="42.80527" lon="-0.03332">
        <ele>1923.3</ele>
        <time>2023-10-31T12:45:06Z</time>
      </trkpt>
      <trkpt lat="42.80526" lon="-0.03332">
        <ele>1923.1</ele>
        <time>2023-10-31T12:45:07Z</time>
      </trkpt>
      <trkpt lat="42.80526" lon="-0.03332">
        <ele>1923</ele>
        <time>2023-10-31T12:45:08Z</time>
      </trkpt>
      <trkpt lat="42.80525" lon="-0.03331">
        <ele>1922.8</ele>
        <time>2023-10-31T12:45:09Z</time>
      </trkpt>
      <trkpt lat="42.80524" lon="-0.03331">
        <ele>1922.6</ele>
        <time>2023-10-31T12:45:10Z</time>
      </trkpt>
      <trkpt lat="42.80523" lon="-0.0333">
        <ele>1922.5</ele>
        <time>2023-10-31T12:45:11Z</time>
      </trkpt>
      <trkpt lat="42.80522" lon="-0.0333">
        <ele>1922.4</ele>
        <time>2023-10-31T12:45:12Z</time>
      </trkpt>
      <trkpt lat="42.80522" lon="-0.03331">
        <ele>1922.3</ele>
        <time>2023-10-31T12:45:13Z</time>
      </trkpt>
      <trkpt lat="42.80522" lon="-0.0333">
        <ele>1922.2</ele>
        <time>2023-10-31T12:45:14Z</time>
      </trkpt>
      <trkpt lat="42.80521" lon="-0.03329">
        <ele>1922</ele>
        <time>2023-10-31T12:45:15Z</time>
      </trkpt>
      <trkpt lat="42.8052" lon="-0.03328">
        <ele>1921.8</ele>
        <time>2023-10-31T12:45:16Z</time>
      </trkpt>
      <trkpt lat="42.80519" lon="-0.03328">
        <ele>1921.7</ele>
        <time>2023-10-31T12:45:17Z</time>
      </trkpt>
      <trkpt lat="42.80518" lon="-0.03327">
        <ele>1921.5</ele>
        <time>2023-10-31T12:45:18Z</time>
      </trkpt>
      <trkpt lat="42.80517" lon="-0.03327">
        <ele>1921.3</ele>
        <time>2023-10-31T12:45:19Z</time>
      </trkpt>
      <trkpt lat="42.80516" lon="-0.03327">
        <ele>1921.1</ele>
        <time>2023-10-31T12:45:20Z</time>
      </trkpt>
      <trkpt lat="42.80516" lon="-0.03327">
        <ele>1921</ele>
        <time>2023-10-31T12:45:21Z</time>
      </trkpt>
      <trkpt lat="42.80514" lon="-0.03327">
        <ele>1920.8</ele>
        <time>2023-10-31T12:45:22Z</time>
      </trkpt>
      <trkpt lat="42.80513" lon="-0.03326">
        <ele>1920.6</ele>
        <time>2023-10-31T12:45:23Z</time>
      </trkpt>
      <trkpt lat="42.80513" lon="-0.03326">
        <ele>1920.5</ele>
        <time>2023-10-31T12:45:24Z</time>
      </trkpt>
      <trkpt lat="42.80512" lon="-0.03326">
        <ele>1920.4</ele>
        <time>2023-10-31T12:45:25Z</time>
      </trkpt>
      <trkpt lat="42.80511" lon="-0.03325">
        <ele>1920.2</ele>
        <time>2023-10-31T12:45:26Z</time>
      </trkpt>
      <trkpt lat="42.80512" lon="-0.03326">
        <ele>1920.1</ele>
        <time>2023-10-31T12:45:27Z</time>
      </trkpt>
      <trkpt lat="42.80511" lon="-0.03325">
        <ele>1920</ele>
        <time>2023-10-31T12:45:28Z</time>
      </trkpt>
      <trkpt lat="42.80511" lon="-0.03325">
        <ele>1919.9</ele>
        <time>2023-10-31T12:45:29Z</time>
      </trkpt>
      <trkpt lat="42.8051" lon="-0.03326">
        <ele>1919.7</ele>
        <time>2023-10-31T12:45:30Z</time>
      </trkpt>
      <trkpt lat="42.80509" lon="-0.03325">
        <ele>1919.5</ele>
        <time>2023-10-31T12:45:31Z</time>
      </trkpt>
      <trkpt lat="42.80508" lon="-0.03325">
        <ele>1919.4</ele>
        <time>2023-10-31T12:45:32Z</time>
      </trkpt>
      <trkpt lat="42.80507" lon="-0.03325">
        <ele>1919.3</ele>
        <time>2023-10-31T12:45:33Z</time>
      </trkpt>
      <trkpt lat="42.80507" lon="-0.03324">
        <ele>1919.2</ele>
        <time>2023-10-31T12:45:34Z</time>
      </trkpt>
      <trkpt lat="42.80506" lon="-0.03324">
        <ele>1919.1</ele>
        <time>2023-10-31T12:45:35Z</time>
      </trkpt>
      <trkpt lat="42.80506" lon="-0.03324">
        <ele>1919</ele>
        <time>2023-10-31T12:45:36Z</time>
      </trkpt>
      <trkpt lat="42.80505" lon="-0.03325">
        <ele>1918.8</ele>
        <time>2023-10-31T12:45:37Z</time>
      </trkpt>
      <trkpt lat="42.80504" lon="-0.03324">
        <ele>1918.6</ele>
        <time>2023-10-31T12:45:38Z</time>
      </trkpt>
      <trkpt lat="42.80504" lon="-0.03324">
        <ele>1918.5</ele>
        <time>2023-10-31T12:45:39Z</time>
      </trkpt>
      <trkpt lat="42.80503" lon="-0.03323">
        <ele>1918.4</ele>
        <time>2023-10-31T12:45:40Z</time>
      </trkpt>
      <trkpt lat="42.80503" lon="-0.03322">
        <ele>1918.3</ele>
        <time>2023-10-31T12:45:41Z</time>
      </trkpt>
      <trkpt lat="42.80502" lon="-0.03321">
        <ele>1918.2</ele>
        <time>2023-10-31T12:45:42Z</time>
      </trkpt>
      <trkpt lat="42.80502" lon="-0.03322">
        <ele>1918</ele>
        <time>2023-10-31T12:45:43Z</time>
      </trkpt>
      <trkpt lat="42.805" lon="-0.03321">
        <ele>1917.7</ele>
        <time>2023-10-31T12:45:44Z</time>
      </trkpt>
      <trkpt lat="42.80499" lon="-0.03322">
        <ele>1917.6</ele>
        <time>2023-10-31T12:45:45Z</time>
      </trkpt>
      <trkpt lat="42.80499" lon="-0.03322">
        <ele>1917.6</ele>
        <time>2023-10-31T12:45:46Z</time>
      </trkpt>
      <trkpt lat="42.80499" lon="-0.03323">
        <ele>1917.5</ele>
        <time>2023-10-31T12:45:47Z</time>
      </trkpt>
      <trkpt lat="42.80499" lon="-0.03323">
        <ele>1917.4</ele>
        <time>2023-10-31T12:45:48Z</time>
      </trkpt>
      <trkpt lat="42.80498" lon="-0.03323">
        <ele>1917.3</ele>
        <time>2023-10-31T12:45:49Z</time>
      </trkpt>
      <trkpt lat="42.80497" lon="-0.03322">
        <ele>1917.1</ele>
        <time>2023-10-31T12:45:50Z</time>
      </trkpt>
      <trkpt lat="42.80496" lon="-0.03322">
        <ele>1917</ele>
        <time>2023-10-31T12:45:51Z</time>
      </trkpt>
      <trkpt lat="42.80495" lon="-0.03321">
        <ele>1916.9</ele>
        <time>2023-10-31T12:45:52Z</time>
      </trkpt>
      <trkpt lat="42.80495" lon="-0.03321">
        <ele>1916.9</ele>
        <time>2023-10-31T12:45:53Z</time>
      </trkpt>
      <trkpt lat="42.80496" lon="-0.0332">
        <ele>1916.8</ele>
        <time>2023-10-31T12:45:54Z</time>
      </trkpt>
      <trkpt lat="42.80495" lon="-0.03319">
        <ele>1916.7</ele>
        <time>2023-10-31T12:45:55Z</time>
      </trkpt>
      <trkpt lat="42.80495" lon="-0.03319">
        <ele>1916.7</ele>
        <time>2023-10-31T12:45:56Z</time>
      </trkpt>
      <trkpt lat="42.80495" lon="-0.03317">
        <ele>1916.5</ele>
        <time>2023-10-31T12:45:57Z</time>
      </trkpt>
      <trkpt lat="42.80494" lon="-0.03316">
        <ele>1916.4</ele>
        <time>2023-10-31T12:45:58Z</time>
      </trkpt>
      <trkpt lat="42.80493" lon="-0.03316">
        <ele>1916.2</ele>
        <time>2023-10-31T12:45:59Z</time>
      </trkpt>
      <trkpt lat="42.80492" lon="-0.03316">
        <ele>1916.1</ele>
        <time>2023-10-31T12:46:00Z</time>
      </trkpt>
      <trkpt lat="42.8049" lon="-0.03317">
        <ele>1915.8</ele>
        <time>2023-10-31T12:46:01Z</time>
      </trkpt>
      <trkpt lat="42.80489" lon="-0.03317">
        <ele>1915.7</ele>
        <time>2023-10-31T12:46:02Z</time>
      </trkpt>
      <trkpt lat="42.80489" lon="-0.03317">
        <ele>1915.6</ele>
        <time>2023-10-31T12:46:03Z</time>
      </trkpt>
      <trkpt lat="42.80489" lon="-0.03316">
        <ele>1915.5</ele>
        <time>2023-10-31T12:46:04Z</time>
      </trkpt>
      <trkpt lat="42.80488" lon="-0.03315">
        <ele>1915.5</ele>
        <time>2023-10-31T12:46:05Z</time>
      </trkpt>
      <trkpt lat="42.80488" lon="-0.03314">
        <ele>1915.3</ele>
        <time>2023-10-31T12:46:06Z</time>
      </trkpt>
      <trkpt lat="42.80487" lon="-0.03314">
        <ele>1915.2</ele>
        <time>2023-10-31T12:46:07Z</time>
      </trkpt>
      <trkpt lat="42.80486" lon="-0.03314">
        <ele>1915.1</ele>
        <time>2023-10-31T12:46:08Z</time>
      </trkpt>
      <trkpt lat="42.80486" lon="-0.03314">
        <ele>1915</ele>
        <time>2023-10-31T12:46:09Z</time>
      </trkpt>
      <trkpt lat="42.80484" lon="-0.03313">
        <ele>1914.9</ele>
        <time>2023-10-31T12:46:10Z</time>
      </trkpt>
      <trkpt lat="42.80483" lon="-0.03313">
        <ele>1914.8</ele>
        <time>2023-10-31T12:46:11Z</time>
      </trkpt>
      <trkpt lat="42.80483" lon="-0.03314">
        <ele>1914.6</ele>
        <time>2023-10-31T12:46:12Z</time>
      </trkpt>
      <trkpt lat="42.80481" lon="-0.03314">
        <ele>1914.5</ele>
        <time>2023-10-31T12:46:13Z</time>
      </trkpt>
      <trkpt lat="42.8048" lon="-0.03315">
        <ele>1914.3</ele>
        <time>2023-10-31T12:46:14Z</time>
      </trkpt>
      <trkpt lat="42.80479" lon="-0.03315">
        <ele>1914.1</ele>
        <time>2023-10-31T12:46:15Z</time>
      </trkpt>
      <trkpt lat="42.80478" lon="-0.03315">
        <ele>1914</ele>
        <time>2023-10-31T12:46:16Z</time>
      </trkpt>
      <trkpt lat="42.80476" lon="-0.03316">
        <ele>1913.8</ele>
        <time>2023-10-31T12:46:17Z</time>
      </trkpt>
      <trkpt lat="42.80475" lon="-0.03317">
        <ele>1913.7</ele>
        <time>2023-10-31T12:46:18Z</time>
      </trkpt>
      <trkpt lat="42.80475" lon="-0.03318">
        <ele>1913.5</ele>
        <time>2023-10-31T12:46:19Z</time>
      </trkpt>
      <trkpt lat="42.80473" lon="-0.03319">
        <ele>1913.4</ele>
        <time>2023-10-31T12:46:20Z</time>
      </trkpt>
      <trkpt lat="42.80472" lon="-0.03319">
        <ele>1913.2</ele>
        <time>2023-10-31T12:46:21Z</time>
      </trkpt>
      <trkpt lat="42.8047" lon="-0.03319">
        <ele>1913</ele>
        <time>2023-10-31T12:46:22Z</time>
      </trkpt>
      <trkpt lat="42.80469" lon="-0.03319">
        <ele>1912.8</ele>
        <time>2023-10-31T12:46:23Z</time>
      </trkpt>
      <trkpt lat="42.80469" lon="-0.03318">
        <ele>1912.7</ele>
        <time>2023-10-31T12:46:24Z</time>
      </trkpt>
      <trkpt lat="42.80467" lon="-0.0332">
        <ele>1912.4</ele>
        <time>2023-10-31T12:46:25Z</time>
      </trkpt>
      <trkpt lat="42.80466" lon="-0.0332">
        <ele>1912.3</ele>
        <time>2023-10-31T12:46:26Z</time>
      </trkpt>
      <trkpt lat="42.80465" lon="-0.03321">
        <ele>1912.2</ele>
        <time>2023-10-31T12:46:27Z</time>
      </trkpt>
      <trkpt lat="42.80464" lon="-0.03323">
        <ele>1911.8</ele>
        <time>2023-10-31T12:46:28Z</time>
      </trkpt>
      <trkpt lat="42.80463" lon="-0.03324">
        <ele>1911.7</ele>
        <time>2023-10-31T12:46:29Z</time>
      </trkpt>
      <trkpt lat="42.80463" lon="-0.03325">
        <ele>1911.6</ele>
        <time>2023-10-31T12:46:30Z</time>
      </trkpt>
      <trkpt lat="42.80462" lon="-0.03326">
        <ele>1911.4</ele>
        <time>2023-10-31T12:46:31Z</time>
      </trkpt>
      <trkpt lat="42.80461" lon="-0.03327">
        <ele>1911.2</ele>
        <time>2023-10-31T12:46:32Z</time>
      </trkpt>
      <trkpt lat="42.8046" lon="-0.03328">
        <ele>1911.1</ele>
        <time>2023-10-31T12:46:33Z</time>
      </trkpt>
      <trkpt lat="42.80458" lon="-0.0333">
        <ele>1910.7</ele>
        <time>2023-10-31T12:46:34Z</time>
      </trkpt>
      <trkpt lat="42.80458" lon="-0.03331">
        <ele>1910.6</ele>
        <time>2023-10-31T12:46:35Z</time>
      </trkpt>
      <trkpt lat="42.80458" lon="-0.03332">
        <ele>1910.4</ele>
        <time>2023-10-31T12:46:36Z</time>
      </trkpt>
      <trkpt lat="42.80458" lon="-0.03333">
        <ele>1910.3</ele>
        <time>2023-10-31T12:46:37Z</time>
      </trkpt>
      <trkpt lat="42.80456" lon="-0.03333">
        <ele>1910</ele>
        <time>2023-10-31T12:46:38Z</time>
      </trkpt>
      <trkpt lat="42.80455" lon="-0.03333">
        <ele>1909.9</ele>
        <time>2023-10-31T12:46:39Z</time>
      </trkpt>
      <trkpt lat="42.80454" lon="-0.03333">
        <ele>1909.7</ele>
        <time>2023-10-31T12:46:40Z</time>
      </trkpt>
      <trkpt lat="42.80453" lon="-0.03334">
        <ele>1909.6</ele>
        <time>2023-10-31T12:46:41Z</time>
      </trkpt>
      <trkpt lat="42.80452" lon="-0.03333">
        <ele>1909.4</ele>
        <time>2023-10-31T12:46:42Z</time>
      </trkpt>
      <trkpt lat="42.80451" lon="-0.03333">
        <ele>1909.2</ele>
        <time>2023-10-31T12:46:43Z</time>
      </trkpt>
      <trkpt lat="42.8045" lon="-0.03333">
        <ele>1909</ele>
        <time>2023-10-31T12:46:44Z</time>
      </trkpt>
      <trkpt lat="42.8045" lon="-0.03333">
        <ele>1909</ele>
        <time>2023-10-31T12:46:45Z</time>
      </trkpt>
      <trkpt lat="42.8045" lon="-0.03334">
        <ele>1908.9</ele>
        <time>2023-10-31T12:46:46Z</time>
      </trkpt>
      <trkpt lat="42.80449" lon="-0.03334">
        <ele>1908.8</ele>
        <time>2023-10-31T12:46:47Z</time>
      </trkpt>
      <trkpt lat="42.80448" lon="-0.03334">
        <ele>1908.6</ele>
        <time>2023-10-31T12:46:48Z</time>
      </trkpt>
      <trkpt lat="42.80447" lon="-0.03334">
        <ele>1908.4</ele>
        <time>2023-10-31T12:46:49Z</time>
      </trkpt>
      <trkpt lat="42.80447" lon="-0.03335">
        <ele>1908.3</ele>
        <time>2023-10-31T12:46:50Z</time>
      </trkpt>
      <trkpt lat="42.80446" lon="-0.03334">
        <ele>1908.2</ele>
        <time>2023-10-31T12:46:51Z</time>
      </trkpt>
      <trkpt lat="42.80445" lon="-0.03335">
        <ele>1908</ele>
        <time>2023-10-31T12:46:52Z</time>
      </trkpt>
      <trkpt lat="42.80445" lon="-0.03335">
        <ele>1908</ele>
        <time>2023-10-31T12:46:53Z</time>
      </trkpt>
      <trkpt lat="42.80445" lon="-0.03335">
        <ele>1908</ele>
        <time>2023-10-31T12:46:54Z</time>
      </trkpt>
      <trkpt lat="42.80445" lon="-0.03335">
        <ele>1907.8</ele>
        <time>2023-10-31T12:46:55Z</time>
      </trkpt>
      <trkpt lat="42.80445" lon="-0.03335">
        <ele>1907.7</ele>
        <time>2023-10-31T12:46:56Z</time>
      </trkpt>
      <trkpt lat="42.80444" lon="-0.03335">
        <ele>1907.6</ele>
        <time>2023-10-31T12:46:57Z</time>
      </trkpt>
      <trkpt lat="42.80445" lon="-0.03334">
        <ele>1907.5</ele>
        <time>2023-10-31T12:46:58Z</time>
      </trkpt>
      <trkpt lat="42.80444" lon="-0.03334">
        <ele>1907.3</ele>
        <time>2023-10-31T12:46:59Z</time>
      </trkpt>
      <trkpt lat="42.80443" lon="-0.03335">
        <ele>1907.2</ele>
        <time>2023-10-31T12:47:00Z</time>
      </trkpt>
      <trkpt lat="42.80443" lon="-0.03335">
        <ele>1907.2</ele>
        <time>2023-10-31T12:47:01Z</time>
      </trkpt>
      <trkpt lat="42.80443" lon="-0.03334">
        <ele>1907.1</ele>
        <time>2023-10-31T12:47:02Z</time>
      </trkpt>
      <trkpt lat="42.80443" lon="-0.03333">
        <ele>1907</ele>
        <time>2023-10-31T12:47:03Z</time>
      </trkpt>
      <trkpt lat="42.80442" lon="-0.03332">
        <ele>1906.8</ele>
        <time>2023-10-31T12:47:04Z</time>
      </trkpt>
      <trkpt lat="42.80441" lon="-0.03332">
        <ele>1906.7</ele>
        <time>2023-10-31T12:47:05Z</time>
      </trkpt>
      <trkpt lat="42.8044" lon="-0.03332">
        <ele>1906.6</ele>
        <time>2023-10-31T12:47:06Z</time>
      </trkpt>
      <trkpt lat="42.80439" lon="-0.03333">
        <ele>1906.4</ele>
        <time>2023-10-31T12:47:07Z</time>
      </trkpt>
      <trkpt lat="42.80438" lon="-0.03333">
        <ele>1906.3</ele>
        <time>2023-10-31T12:47:08Z</time>
      </trkpt>
      <trkpt lat="42.80437" lon="-0.03333">
        <ele>1906.1</ele>
        <time>2023-10-31T12:47:09Z</time>
      </trkpt>
      <trkpt lat="42.80437" lon="-0.03333">
        <ele>1906</ele>
        <time>2023-10-31T12:47:10Z</time>
      </trkpt>
      <trkpt lat="42.80437" lon="-0.03332">
        <ele>1906</ele>
        <time>2023-10-31T12:47:11Z</time>
      </trkpt>
      <trkpt lat="42.80436" lon="-0.03331">
        <ele>1905.9</ele>
        <time>2023-10-31T12:47:12Z</time>
      </trkpt>
      <trkpt lat="42.80436" lon="-0.0333">
        <ele>1905.8</ele>
        <time>2023-10-31T12:47:13Z</time>
      </trkpt>
      <trkpt lat="42.80435" lon="-0.0333">
        <ele>1905.7</ele>
        <time>2023-10-31T12:47:14Z</time>
      </trkpt>
      <trkpt lat="42.80435" lon="-0.03328">
        <ele>1905.6</ele>
        <time>2023-10-31T12:47:15Z</time>
      </trkpt>
      <trkpt lat="42.80434" lon="-0.03328">
        <ele>1905.5</ele>
        <time>2023-10-31T12:47:16Z</time>
      </trkpt>
      <trkpt lat="42.80433" lon="-0.03328">
        <ele>1905.4</ele>
        <time>2023-10-31T12:47:17Z</time>
      </trkpt>
      <trkpt lat="42.80432" lon="-0.03327">
        <ele>1905.3</ele>
        <time>2023-10-31T12:47:18Z</time>
      </trkpt>
      <trkpt lat="42.80431" lon="-0.03327">
        <ele>1905.3</ele>
        <time>2023-10-31T12:47:19Z</time>
      </trkpt>
      <trkpt lat="42.8043" lon="-0.03327">
        <ele>1905.2</ele>
        <time>2023-10-31T12:47:20Z</time>
      </trkpt>
      <trkpt lat="42.8043" lon="-0.03326">
        <ele>1905.1</ele>
        <time>2023-10-31T12:47:21Z</time>
      </trkpt>
      <trkpt lat="42.80429" lon="-0.03325">
        <ele>1905</ele>
        <time>2023-10-31T12:47:22Z</time>
      </trkpt>
      <trkpt lat="42.80428" lon="-0.03324">
        <ele>1904.9</ele>
        <time>2023-10-31T12:47:23Z</time>
      </trkpt>
      <trkpt lat="42.80426" lon="-0.03324">
        <ele>1904.8</ele>
        <time>2023-10-31T12:47:24Z</time>
      </trkpt>
      <trkpt lat="42.80425" lon="-0.03324">
        <ele>1904.7</ele>
        <time>2023-10-31T12:47:25Z</time>
      </trkpt>
      <trkpt lat="42.80424" lon="-0.03324">
        <ele>1904.6</ele>
        <time>2023-10-31T12:47:26Z</time>
      </trkpt>
      <trkpt lat="42.80423" lon="-0.03325">
        <ele>1904.6</ele>
        <time>2023-10-31T12:47:27Z</time>
      </trkpt>
      <trkpt lat="42.80423" lon="-0.03326">
        <ele>1904.6</ele>
        <time>2023-10-31T12:47:28Z</time>
      </trkpt>
      <trkpt lat="42.80422" lon="-0.03325">
        <ele>1904.5</ele>
        <time>2023-10-31T12:47:29Z</time>
      </trkpt>
      <trkpt lat="42.80421" lon="-0.03324">
        <ele>1904.4</ele>
        <time>2023-10-31T12:47:30Z</time>
      </trkpt>
      <trkpt lat="42.80419" lon="-0.03323">
        <ele>1904.3</ele>
        <time>2023-10-31T12:47:31Z</time>
      </trkpt>
      <trkpt lat="42.80418" lon="-0.03323">
        <ele>1904.3</ele>
        <time>2023-10-31T12:47:32Z</time>
      </trkpt>
      <trkpt lat="42.80417" lon="-0.03323">
        <ele>1904.2</ele>
        <time>2023-10-31T12:47:33Z</time>
      </trkpt>
      <trkpt lat="42.80415" lon="-0.03324">
        <ele>1904.2</ele>
        <time>2023-10-31T12:47:34Z</time>
      </trkpt>
      <trkpt lat="42.80414" lon="-0.03325">
        <ele>1904.2</ele>
        <time>2023-10-31T12:47:35Z</time>
      </trkpt>
      <trkpt lat="42.80413" lon="-0.03325">
        <ele>1904.1</ele>
        <time>2023-10-31T12:47:36Z</time>
      </trkpt>
      <trkpt lat="42.80412" lon="-0.03326">
        <ele>1904.1</ele>
        <time>2023-10-31T12:47:37Z</time>
      </trkpt>
      <trkpt lat="42.80412" lon="-0.03326">
        <ele>1904.1</ele>
        <time>2023-10-31T12:47:38Z</time>
      </trkpt>
      <trkpt lat="42.80411" lon="-0.03326">
        <ele>1904.1</ele>
        <time>2023-10-31T12:47:39Z</time>
      </trkpt>
      <trkpt lat="42.80409" lon="-0.03327">
        <ele>1904.1</ele>
        <time>2023-10-31T12:47:40Z</time>
      </trkpt>
      <trkpt lat="42.80407" lon="-0.03328">
        <ele>1904.2</ele>
        <time>2023-10-31T12:47:41Z</time>
      </trkpt>
      <trkpt lat="42.80407" lon="-0.03329">
        <ele>1904.2</ele>
        <time>2023-10-31T12:47:42Z</time>
      </trkpt>
      <trkpt lat="42.80406" lon="-0.03329">
        <ele>1904.2</ele>
        <time>2023-10-31T12:47:43Z</time>
      </trkpt>
      <trkpt lat="42.80404" lon="-0.03329">
        <ele>1904.2</ele>
        <time>2023-10-31T12:47:44Z</time>
      </trkpt>
      <trkpt lat="42.80404" lon="-0.0333">
        <ele>1904.2</ele>
        <time>2023-10-31T12:47:45Z</time>
      </trkpt>
      <trkpt lat="42.80403" lon="-0.0333">
        <ele>1904.3</ele>
        <time>2023-10-31T12:47:46Z</time>
      </trkpt>
      <trkpt lat="42.80402" lon="-0.0333">
        <ele>1904.3</ele>
        <time>2023-10-31T12:47:47Z</time>
      </trkpt>
      <trkpt lat="42.804" lon="-0.0333">
        <ele>1904.4</ele>
        <time>2023-10-31T12:47:48Z</time>
      </trkpt>
      <trkpt lat="42.80399" lon="-0.0333">
        <ele>1904.4</ele>
        <time>2023-10-31T12:47:49Z</time>
      </trkpt>
      <trkpt lat="42.80399" lon="-0.03331">
        <ele>1904.4</ele>
        <time>2023-10-31T12:47:50Z</time>
      </trkpt>
      <trkpt lat="42.80397" lon="-0.03331">
        <ele>1904.5</ele>
        <time>2023-10-31T12:47:51Z</time>
      </trkpt>
      <trkpt lat="42.80397" lon="-0.03332">
        <ele>1904.5</ele>
        <time>2023-10-31T12:47:52Z</time>
      </trkpt>
      <trkpt lat="42.80397" lon="-0.03332">
        <ele>1904.5</ele>
        <time>2023-10-31T12:47:53Z</time>
      </trkpt>
      <trkpt lat="42.80396" lon="-0.03332">
        <ele>1904.6</ele>
        <time>2023-10-31T12:47:54Z</time>
      </trkpt>
      <trkpt lat="42.80394" lon="-0.03333">
        <ele>1904.7</ele>
        <time>2023-10-31T12:47:55Z</time>
      </trkpt>
      <trkpt lat="42.80394" lon="-0.03334">
        <ele>1904.7</ele>
        <time>2023-10-31T12:47:56Z</time>
      </trkpt>
      <trkpt lat="42.80393" lon="-0.03334">
        <ele>1904.8</ele>
        <time>2023-10-31T12:47:57Z</time>
      </trkpt>
      <trkpt lat="42.80392" lon="-0.03335">
        <ele>1904.8</ele>
        <time>2023-10-31T12:47:58Z</time>
      </trkpt>
      <trkpt lat="42.80392" lon="-0.03335">
        <ele>1904.8</ele>
        <time>2023-10-31T12:47:59Z</time>
      </trkpt>
      <trkpt lat="42.80391" lon="-0.03335">
        <ele>1904.9</ele>
        <time>2023-10-31T12:48:00Z</time>
      </trkpt>
      <trkpt lat="42.8039" lon="-0.03334">
        <ele>1905</ele>
        <time>2023-10-31T12:48:01Z</time>
      </trkpt>
      <trkpt lat="42.80389" lon="-0.03335">
        <ele>1905</ele>
        <time>2023-10-31T12:48:02Z</time>
      </trkpt>
      <trkpt lat="42.80388" lon="-0.03336">
        <ele>1905.1</ele>
        <time>2023-10-31T12:48:03Z</time>
      </trkpt>
      <trkpt lat="42.80388" lon="-0.03337">
        <ele>1905.1</ele>
        <time>2023-10-31T12:48:04Z</time>
      </trkpt>
      <trkpt lat="42.80387" lon="-0.03337">
        <ele>1905.2</ele>
        <time>2023-10-31T12:48:05Z</time>
      </trkpt>
      <trkpt lat="42.80386" lon="-0.03339">
        <ele>1905.3</ele>
        <time>2023-10-31T12:48:06Z</time>
      </trkpt>
      <trkpt lat="42.80386" lon="-0.0334">
        <ele>1905.3</ele>
        <time>2023-10-31T12:48:07Z</time>
      </trkpt>
      <trkpt lat="42.80385" lon="-0.0334">
        <ele>1905.4</ele>
        <time>2023-10-31T12:48:08Z</time>
      </trkpt>
      <trkpt lat="42.80384" lon="-0.03341">
        <ele>1905.4</ele>
        <time>2023-10-31T12:48:09Z</time>
      </trkpt>
      <trkpt lat="42.80383" lon="-0.03341">
        <ele>1905.5</ele>
        <time>2023-10-31T12:48:10Z</time>
      </trkpt>
      <trkpt lat="42.80383" lon="-0.03342">
        <ele>1905.6</ele>
        <time>2023-10-31T12:48:11Z</time>
      </trkpt>
      <trkpt lat="42.80382" lon="-0.03343">
        <ele>1905.6</ele>
        <time>2023-10-31T12:48:12Z</time>
      </trkpt>
      <trkpt lat="42.80381" lon="-0.03343">
        <ele>1905.7</ele>
        <time>2023-10-31T12:48:13Z</time>
      </trkpt>
      <trkpt lat="42.80381" lon="-0.03344">
        <ele>1905.8</ele>
        <time>2023-10-31T12:48:14Z</time>
      </trkpt>
      <trkpt lat="42.8038" lon="-0.03345">
        <ele>1905.8</ele>
        <time>2023-10-31T12:48:15Z</time>
      </trkpt>
      <trkpt lat="42.80379" lon="-0.03346">
        <ele>1905.9</ele>
        <time>2023-10-31T12:48:16Z</time>
      </trkpt>
      <trkpt lat="42.80378" lon="-0.03347">
        <ele>1906</ele>
        <time>2023-10-31T12:48:17Z</time>
      </trkpt>
      <trkpt lat="42.80377" lon="-0.03347">
        <ele>1906.1</ele>
        <time>2023-10-31T12:48:18Z</time>
      </trkpt>
      <trkpt lat="42.80377" lon="-0.03348">
        <ele>1906.2</ele>
        <time>2023-10-31T12:48:19Z</time>
      </trkpt>
      <trkpt lat="42.80376" lon="-0.03348">
        <ele>1906.2</ele>
        <time>2023-10-31T12:48:20Z</time>
      </trkpt>
      <trkpt lat="42.80375" lon="-0.03349">
        <ele>1906.3</ele>
        <time>2023-10-31T12:48:21Z</time>
      </trkpt>
      <trkpt lat="42.80375" lon="-0.0335">
        <ele>1906.4</ele>
        <time>2023-10-31T12:48:22Z</time>
      </trkpt>
      <trkpt lat="42.80374" lon="-0.03351">
        <ele>1906.5</ele>
        <time>2023-10-31T12:48:23Z</time>
      </trkpt>
      <trkpt lat="42.80374" lon="-0.03352">
        <ele>1906.5</ele>
        <time>2023-10-31T12:48:24Z</time>
      </trkpt>
      <trkpt lat="42.80373" lon="-0.03353">
        <ele>1906.6</ele>
        <time>2023-10-31T12:48:25Z</time>
      </trkpt>
      <trkpt lat="42.80373" lon="-0.03353">
        <ele>1906.7</ele>
        <time>2023-10-31T12:48:26Z</time>
      </trkpt>
      <trkpt lat="42.80372" lon="-0.03355">
        <ele>1906.8</ele>
        <time>2023-10-31T12:48:27Z</time>
      </trkpt>
      <trkpt lat="42.80372" lon="-0.03356">
        <ele>1906.8</ele>
        <time>2023-10-31T12:48:28Z</time>
      </trkpt>
      <trkpt lat="42.80371" lon="-0.03357">
        <ele>1906.9</ele>
        <time>2023-10-31T12:48:29Z</time>
      </trkpt>
      <trkpt lat="42.8037" lon="-0.03357">
        <ele>1907</ele>
        <time>2023-10-31T12:48:30Z</time>
      </trkpt>
      <trkpt lat="42.80369" lon="-0.03358">
        <ele>1907.1</ele>
        <time>2023-10-31T12:48:31Z</time>
      </trkpt>
      <trkpt lat="42.80369" lon="-0.03358">
        <ele>1907.1</ele>
        <time>2023-10-31T12:48:32Z</time>
      </trkpt>
      <trkpt lat="42.80369" lon="-0.03359">
        <ele>1907.2</ele>
        <time>2023-10-31T12:48:33Z</time>
      </trkpt>
      <trkpt lat="42.80369" lon="-0.03359">
        <ele>1907.2</ele>
        <time>2023-10-31T12:48:34Z</time>
      </trkpt>
      <trkpt lat="42.80368" lon="-0.0336">
        <ele>1907.3</ele>
        <time>2023-10-31T12:48:35Z</time>
      </trkpt>
      <trkpt lat="42.80367" lon="-0.0336">
        <ele>1907.4</ele>
        <time>2023-10-31T12:48:36Z</time>
      </trkpt>
      <trkpt lat="42.80367" lon="-0.03361">
        <ele>1907.4</ele>
        <time>2023-10-31T12:48:37Z</time>
      </trkpt>
      <trkpt lat="42.80366" lon="-0.03362">
        <ele>1907.5</ele>
        <time>2023-10-31T12:48:38Z</time>
      </trkpt>
      <trkpt lat="42.80365" lon="-0.03363">
        <ele>1907.6</ele>
        <time>2023-10-31T12:48:39Z</time>
      </trkpt>
      <trkpt lat="42.80364" lon="-0.03364">
        <ele>1907.7</ele>
        <time>2023-10-31T12:48:40Z</time>
      </trkpt>
      <trkpt lat="42.80364" lon="-0.03365">
        <ele>1907.8</ele>
        <time>2023-10-31T12:48:41Z</time>
      </trkpt>
      <trkpt lat="42.80363" lon="-0.03365">
        <ele>1907.8</ele>
        <time>2023-10-31T12:48:42Z</time>
      </trkpt>
      <trkpt lat="42.80363" lon="-0.03366">
        <ele>1907.9</ele>
        <time>2023-10-31T12:48:43Z</time>
      </trkpt>
      <trkpt lat="42.80363" lon="-0.03367">
        <ele>1907.9</ele>
        <time>2023-10-31T12:48:44Z</time>
      </trkpt>
      <trkpt lat="42.80362" lon="-0.03367">
        <ele>1908</ele>
        <time>2023-10-31T12:48:45Z</time>
      </trkpt>
      <trkpt lat="42.80361" lon="-0.03367">
        <ele>1908</ele>
        <time>2023-10-31T12:48:46Z</time>
      </trkpt>
      <trkpt lat="42.80361" lon="-0.03368">
        <ele>1908.1</ele>
        <time>2023-10-31T12:48:47Z</time>
      </trkpt>
      <trkpt lat="42.8036" lon="-0.03369">
        <ele>1908.2</ele>
        <time>2023-10-31T12:48:48Z</time>
      </trkpt>
      <trkpt lat="42.80359" lon="-0.03369">
        <ele>1908.3</ele>
        <time>2023-10-31T12:48:49Z</time>
      </trkpt>
      <trkpt lat="42.80358" lon="-0.0337">
        <ele>1908.3</ele>
        <time>2023-10-31T12:48:50Z</time>
      </trkpt>
      <trkpt lat="42.80358" lon="-0.0337">
        <ele>1908.4</ele>
        <time>2023-10-31T12:48:51Z</time>
      </trkpt>
      <trkpt lat="42.80357" lon="-0.03372">
        <ele>1908.5</ele>
        <time>2023-10-31T12:48:52Z</time>
      </trkpt>
      <trkpt lat="42.80356" lon="-0.03374">
        <ele>1908.6</ele>
        <time>2023-10-31T12:48:53Z</time>
      </trkpt>
      <trkpt lat="42.80356" lon="-0.03375">
        <ele>1908.7</ele>
        <time>2023-10-31T12:48:54Z</time>
      </trkpt>
      <trkpt lat="42.80355" lon="-0.03376">
        <ele>1908.7</ele>
        <time>2023-10-31T12:48:55Z</time>
      </trkpt>
      <trkpt lat="42.80355" lon="-0.03377">
        <ele>1908.8</ele>
        <time>2023-10-31T12:48:56Z</time>
      </trkpt>
      <trkpt lat="42.80354" lon="-0.03378">
        <ele>1908.8</ele>
        <time>2023-10-31T12:48:57Z</time>
      </trkpt>
      <trkpt lat="42.80354" lon="-0.03379">
        <ele>1908.9</ele>
        <time>2023-10-31T12:48:58Z</time>
      </trkpt>
      <trkpt lat="42.80353" lon="-0.0338">
        <ele>1908.9</ele>
        <time>2023-10-31T12:48:59Z</time>
      </trkpt>
      <trkpt lat="42.80353" lon="-0.03381">
        <ele>1909</ele>
        <time>2023-10-31T12:49:00Z</time>
      </trkpt>
      <trkpt lat="42.80352" lon="-0.03382">
        <ele>1909</ele>
        <time>2023-10-31T12:49:01Z</time>
      </trkpt>
      <trkpt lat="42.80351" lon="-0.03384">
        <ele>1909.1</ele>
        <time>2023-10-31T12:49:02Z</time>
      </trkpt>
      <trkpt lat="42.80351" lon="-0.03385">
        <ele>1909.1</ele>
        <time>2023-10-31T12:49:03Z</time>
      </trkpt>
      <trkpt lat="42.8035" lon="-0.03386">
        <ele>1909.2</ele>
        <time>2023-10-31T12:49:04Z</time>
      </trkpt>
      <trkpt lat="42.8035" lon="-0.03387">
        <ele>1909.2</ele>
        <time>2023-10-31T12:49:05Z</time>
      </trkpt>
      <trkpt lat="42.8035" lon="-0.03388">
        <ele>1909.3</ele>
        <time>2023-10-31T12:49:06Z</time>
      </trkpt>
      <trkpt lat="42.80349" lon="-0.03389">
        <ele>1909.3</ele>
        <time>2023-10-31T12:49:07Z</time>
      </trkpt>
      <trkpt lat="42.80348" lon="-0.0339">
        <ele>1909.3</ele>
        <time>2023-10-31T12:49:08Z</time>
      </trkpt>
      <trkpt lat="42.80347" lon="-0.03391">
        <ele>1909.4</ele>
        <time>2023-10-31T12:49:09Z</time>
      </trkpt>
      <trkpt lat="42.80347" lon="-0.03391">
        <ele>1909.4</ele>
        <time>2023-10-31T12:49:10Z</time>
      </trkpt>
      <trkpt lat="42.80346" lon="-0.03392">
        <ele>1909.4</ele>
        <time>2023-10-31T12:49:11Z</time>
      </trkpt>
      <trkpt lat="42.80345" lon="-0.03392">
        <ele>1909.4</ele>
        <time>2023-10-31T12:49:12Z</time>
      </trkpt>
      <trkpt lat="42.80345" lon="-0.03393">
        <ele>1909.5</ele>
        <time>2023-10-31T12:49:13Z</time>
      </trkpt>
      <trkpt lat="42.80345" lon="-0.03395">
        <ele>1909.5</ele>
        <time>2023-10-31T12:49:14Z</time>
      </trkpt>
      <trkpt lat="42.80344" lon="-0.03395">
        <ele>1909.5</ele>
        <time>2023-10-31T12:49:15Z</time>
      </trkpt>
      <trkpt lat="42.80343" lon="-0.03397">
        <ele>1909.6</ele>
        <time>2023-10-31T12:49:16Z</time>
      </trkpt>
      <trkpt lat="42.80342" lon="-0.03398">
        <ele>1909.6</ele>
        <time>2023-10-31T12:49:17Z</time>
      </trkpt>
      <trkpt lat="42.80341" lon="-0.03398">
        <ele>1909.6</ele>
        <time>2023-10-31T12:49:18Z</time>
      </trkpt>
      <trkpt lat="42.80341" lon="-0.03398">
        <ele>1909.6</ele>
        <time>2023-10-31T12:49:19Z</time>
      </trkpt>
      <trkpt lat="42.8034" lon="-0.03399">
        <ele>1909.7</ele>
        <time>2023-10-31T12:49:20Z</time>
      </trkpt>
      <trkpt lat="42.80339" lon="-0.034">
        <ele>1909.7</ele>
        <time>2023-10-31T12:49:21Z</time>
      </trkpt>
      <trkpt lat="42.80339" lon="-0.03401">
        <ele>1909.7</ele>
        <time>2023-10-31T12:49:22Z</time>
      </trkpt>
      <trkpt lat="42.80338" lon="-0.03402">
        <ele>1909.7</ele>
        <time>2023-10-31T12:49:23Z</time>
      </trkpt>
      <trkpt lat="42.80338" lon="-0.03402">
        <ele>1909.7</ele>
        <time>2023-10-31T12:49:24Z</time>
      </trkpt>
      <trkpt lat="42.80338" lon="-0.03403">
        <ele>1909.8</ele>
        <time>2023-10-31T12:49:25Z</time>
      </trkpt>
      <trkpt lat="42.80338" lon="-0.03404">
        <ele>1909.8</ele>
        <time>2023-10-31T12:49:26Z</time>
      </trkpt>
      <trkpt lat="42.80337" lon="-0.03404">
        <ele>1909.8</ele>
        <time>2023-10-31T12:49:27Z</time>
      </trkpt>
      <trkpt lat="42.80337" lon="-0.03405">
        <ele>1909.8</ele>
        <time>2023-10-31T12:49:28Z</time>
      </trkpt>
      <trkpt lat="42.80336" lon="-0.03407">
        <ele>1909.8</ele>
        <time>2023-10-31T12:49:29Z</time>
      </trkpt>
      <trkpt lat="42.80336" lon="-0.03408">
        <ele>1909.9</ele>
        <time>2023-10-31T12:49:30Z</time>
      </trkpt>
      <trkpt lat="42.80335" lon="-0.03409">
        <ele>1909.9</ele>
        <time>2023-10-31T12:49:31Z</time>
      </trkpt>
      <trkpt lat="42.80335" lon="-0.03409">
        <ele>1909.9</ele>
        <time>2023-10-31T12:49:32Z</time>
      </trkpt>
      <trkpt lat="42.80334" lon="-0.03409">
        <ele>1909.9</ele>
        <time>2023-10-31T12:49:33Z</time>
      </trkpt>
      <trkpt lat="42.80332" lon="-0.03409">
        <ele>1909.9</ele>
        <time>2023-10-31T12:49:34Z</time>
      </trkpt>
      <trkpt lat="42.80332" lon="-0.03408">
        <ele>1910</ele>
        <time>2023-10-31T12:49:35Z</time>
      </trkpt>
      <trkpt lat="42.80331" lon="-0.03408">
        <ele>1910</ele>
        <time>2023-10-31T12:49:36Z</time>
      </trkpt>
      <trkpt lat="42.8033" lon="-0.03408">
        <ele>1910</ele>
        <time>2023-10-31T12:49:37Z</time>
      </trkpt>
      <trkpt lat="42.8033" lon="-0.03408">
        <ele>1910</ele>
        <time>2023-10-31T12:49:38Z</time>
      </trkpt>
      <trkpt lat="42.80328" lon="-0.03407">
        <ele>1910</ele>
        <time>2023-10-31T12:49:39Z</time>
      </trkpt>
      <trkpt lat="42.80327" lon="-0.03407">
        <ele>1910.1</ele>
        <time>2023-10-31T12:49:40Z</time>
      </trkpt>
      <trkpt lat="42.80327" lon="-0.03406">
        <ele>1910.1</ele>
        <time>2023-10-31T12:49:41Z</time>
      </trkpt>
      <trkpt lat="42.80326" lon="-0.03406">
        <ele>1910.1</ele>
        <time>2023-10-31T12:49:42Z</time>
      </trkpt>
      <trkpt lat="42.80325" lon="-0.03406">
        <ele>1910.1</ele>
        <time>2023-10-31T12:49:43Z</time>
      </trkpt>
      <trkpt lat="42.80324" lon="-0.03406">
        <ele>1910.1</ele>
        <time>2023-10-31T12:49:44Z</time>
      </trkpt>
      <trkpt lat="42.80323" lon="-0.03406">
        <ele>1910.2</ele>
        <time>2023-10-31T12:49:45Z</time>
      </trkpt>
      <trkpt lat="42.80323" lon="-0.03407">
        <ele>1910.2</ele>
        <time>2023-10-31T12:49:46Z</time>
      </trkpt>
      <trkpt lat="42.80322" lon="-0.03408">
        <ele>1910.2</ele>
        <time>2023-10-31T12:49:47Z</time>
      </trkpt>
      <trkpt lat="42.80321" lon="-0.03408">
        <ele>1910.2</ele>
        <time>2023-10-31T12:49:48Z</time>
      </trkpt>
      <trkpt lat="42.8032" lon="-0.03408">
        <ele>1910.3</ele>
        <time>2023-10-31T12:49:49Z</time>
      </trkpt>
      <trkpt lat="42.80319" lon="-0.03408">
        <ele>1910.3</ele>
        <time>2023-10-31T12:49:50Z</time>
      </trkpt>
      <trkpt lat="42.80318" lon="-0.03407">
        <ele>1910.3</ele>
        <time>2023-10-31T12:49:51Z</time>
      </trkpt>
      <trkpt lat="42.80318" lon="-0.03407">
        <ele>1910.3</ele>
        <time>2023-10-31T12:49:52Z</time>
      </trkpt>
      <trkpt lat="42.80316" lon="-0.03406">
        <ele>1910.4</ele>
        <time>2023-10-31T12:49:53Z</time>
      </trkpt>
      <trkpt lat="42.80315" lon="-0.03405">
        <ele>1910.5</ele>
        <time>2023-10-31T12:49:54Z</time>
      </trkpt>
      <trkpt lat="42.80315" lon="-0.03406">
        <ele>1910.5</ele>
        <time>2023-10-31T12:49:55Z</time>
      </trkpt>
      <trkpt lat="42.80315" lon="-0.03408">
        <ele>1910.5</ele>
        <time>2023-10-31T12:49:56Z</time>
      </trkpt>
      <trkpt lat="42.80314" lon="-0.03408">
        <ele>1910.6</ele>
        <time>2023-10-31T12:49:57Z</time>
      </trkpt>
      <trkpt lat="42.80313" lon="-0.03408">
        <ele>1910.6</ele>
        <time>2023-10-31T12:49:58Z</time>
      </trkpt>
      <trkpt lat="42.80312" lon="-0.03408">
        <ele>1910.7</ele>
        <time>2023-10-31T12:49:59Z</time>
      </trkpt>
      <trkpt lat="42.8031" lon="-0.03407">
        <ele>1910.8</ele>
        <time>2023-10-31T12:50:00Z</time>
      </trkpt>
      <trkpt lat="42.8031" lon="-0.03408">
        <ele>1910.8</ele>
        <time>2023-10-31T12:50:01Z</time>
      </trkpt>
      <trkpt lat="42.80309" lon="-0.03408">
        <ele>1910.9</ele>
        <time>2023-10-31T12:50:02Z</time>
      </trkpt>
      <trkpt lat="42.80308" lon="-0.03409">
        <ele>1910.9</ele>
        <time>2023-10-31T12:50:03Z</time>
      </trkpt>
      <trkpt lat="42.80308" lon="-0.0341">
        <ele>1911</ele>
        <time>2023-10-31T12:50:04Z</time>
      </trkpt>
      <trkpt lat="42.80308" lon="-0.0341">
        <ele>1911</ele>
        <time>2023-10-31T12:50:05Z</time>
      </trkpt>
      <trkpt lat="42.80308" lon="-0.03411">
        <ele>1911</ele>
        <time>2023-10-31T12:50:06Z</time>
      </trkpt>
      <trkpt lat="42.80307" lon="-0.03411">
        <ele>1911.1</ele>
        <time>2023-10-31T12:50:07Z</time>
      </trkpt>
      <trkpt lat="42.80307" lon="-0.03412">
        <ele>1911.1</ele>
        <time>2023-10-31T12:50:08Z</time>
      </trkpt>
      <trkpt lat="42.80307" lon="-0.03412">
        <ele>1911.1</ele>
        <time>2023-10-31T12:50:09Z</time>
      </trkpt>
      <trkpt lat="42.80306" lon="-0.03413">
        <ele>1911.2</ele>
        <time>2023-10-31T12:50:10Z</time>
      </trkpt>
      <trkpt lat="42.80305" lon="-0.03413">
        <ele>1911.2</ele>
        <time>2023-10-31T12:50:11Z</time>
      </trkpt>
      <trkpt lat="42.80304" lon="-0.03413">
        <ele>1911.3</ele>
        <time>2023-10-31T12:50:12Z</time>
      </trkpt>
      <trkpt lat="42.80304" lon="-0.03414">
        <ele>1911.4</ele>
        <time>2023-10-31T12:50:13Z</time>
      </trkpt>
      <trkpt lat="42.80303" lon="-0.03414">
        <ele>1911.4</ele>
        <time>2023-10-31T12:50:14Z</time>
      </trkpt>
      <trkpt lat="42.80302" lon="-0.03414">
        <ele>1911.5</ele>
        <time>2023-10-31T12:50:15Z</time>
      </trkpt>
      <trkpt lat="42.80301" lon="-0.03415">
        <ele>1911.5</ele>
        <time>2023-10-31T12:50:16Z</time>
      </trkpt>
      <trkpt lat="42.803" lon="-0.03415">
        <ele>1911.6</ele>
        <time>2023-10-31T12:50:17Z</time>
      </trkpt>
      <trkpt lat="42.80299" lon="-0.03415">
        <ele>1911.7</ele>
        <time>2023-10-31T12:50:18Z</time>
      </trkpt>
      <trkpt lat="42.80298" lon="-0.03415">
        <ele>1911.8</ele>
        <time>2023-10-31T12:50:19Z</time>
      </trkpt>
      <trkpt lat="42.80297" lon="-0.03415">
        <ele>1911.9</ele>
        <time>2023-10-31T12:50:20Z</time>
      </trkpt>
      <trkpt lat="42.80297" lon="-0.03415">
        <ele>1911.9</ele>
        <time>2023-10-31T12:50:21Z</time>
      </trkpt>
      <trkpt lat="42.80295" lon="-0.03416">
        <ele>1912</ele>
        <time>2023-10-31T12:50:22Z</time>
      </trkpt>
      <trkpt lat="42.80295" lon="-0.03416">
        <ele>1912.1</ele>
        <time>2023-10-31T12:50:23Z</time>
      </trkpt>
      <trkpt lat="42.80294" lon="-0.03416">
        <ele>1912.2</ele>
        <time>2023-10-31T12:50:24Z</time>
      </trkpt>
      <trkpt lat="42.80293" lon="-0.03416">
        <ele>1912.3</ele>
        <time>2023-10-31T12:50:25Z</time>
      </trkpt>
      <trkpt lat="42.80292" lon="-0.03417">
        <ele>1912.3</ele>
        <time>2023-10-31T12:50:26Z</time>
      </trkpt>
      <trkpt lat="42.80292" lon="-0.03418">
        <ele>1912.4</ele>
        <time>2023-10-31T12:50:27Z</time>
      </trkpt>
      <trkpt lat="42.80291" lon="-0.03418">
        <ele>1912.4</ele>
        <time>2023-10-31T12:50:28Z</time>
      </trkpt>
      <trkpt lat="42.8029" lon="-0.03419">
        <ele>1912.5</ele>
        <time>2023-10-31T12:50:29Z</time>
      </trkpt>
      <trkpt lat="42.80289" lon="-0.03419">
        <ele>1912.6</ele>
        <time>2023-10-31T12:50:30Z</time>
      </trkpt>
      <trkpt lat="42.80289" lon="-0.0342">
        <ele>1912.6</ele>
        <time>2023-10-31T12:50:31Z</time>
      </trkpt>
      <trkpt lat="42.80288" lon="-0.0342">
        <ele>1912.7</ele>
        <time>2023-10-31T12:50:32Z</time>
      </trkpt>
      <trkpt lat="42.80288" lon="-0.03421">
        <ele>1912.7</ele>
        <time>2023-10-31T12:50:33Z</time>
      </trkpt>
      <trkpt lat="42.80288" lon="-0.03421">
        <ele>1912.8</ele>
        <time>2023-10-31T12:50:34Z</time>
      </trkpt>
      <trkpt lat="42.80287" lon="-0.03422">
        <ele>1912.8</ele>
        <time>2023-10-31T12:50:35Z</time>
      </trkpt>
      <trkpt lat="42.80287" lon="-0.03423">
        <ele>1912.9</ele>
        <time>2023-10-31T12:50:36Z</time>
      </trkpt>
      <trkpt lat="42.80286" lon="-0.03423">
        <ele>1912.9</ele>
        <time>2023-10-31T12:50:37Z</time>
      </trkpt>
      <trkpt lat="42.80285" lon="-0.03423">
        <ele>1913</ele>
        <time>2023-10-31T12:50:38Z</time>
      </trkpt>
      <trkpt lat="42.80284" lon="-0.03423">
        <ele>1913.1</ele>
        <time>2023-10-31T12:50:39Z</time>
      </trkpt>
      <trkpt lat="42.80283" lon="-0.03423">
        <ele>1913.2</ele>
        <time>2023-10-31T12:50:40Z</time>
      </trkpt>
      <trkpt lat="42.80282" lon="-0.03423">
        <ele>1913.3</ele>
        <time>2023-10-31T12:50:41Z</time>
      </trkpt>
      <trkpt lat="42.80282" lon="-0.03423">
        <ele>1913.3</ele>
        <time>2023-10-31T12:50:42Z</time>
      </trkpt>
      <trkpt lat="42.80281" lon="-0.03424">
        <ele>1913.4</ele>
        <time>2023-10-31T12:50:43Z</time>
      </trkpt>
      <trkpt lat="42.8028" lon="-0.03424">
        <ele>1913.6</ele>
        <time>2023-10-31T12:50:44Z</time>
      </trkpt>
      <trkpt lat="42.80279" lon="-0.03424">
        <ele>1913.7</ele>
        <time>2023-10-31T12:50:45Z</time>
      </trkpt>
      <trkpt lat="42.80278" lon="-0.03425">
        <ele>1913.8</ele>
        <time>2023-10-31T12:50:46Z</time>
      </trkpt>
      <trkpt lat="42.80278" lon="-0.03424">
        <ele>1913.8</ele>
        <time>2023-10-31T12:50:47Z</time>
      </trkpt>
      <trkpt lat="42.80277" lon="-0.03425">
        <ele>1913.9</ele>
        <time>2023-10-31T12:50:48Z</time>
      </trkpt>
      <trkpt lat="42.80277" lon="-0.03425">
        <ele>1914</ele>
        <time>2023-10-31T12:50:49Z</time>
      </trkpt>
      <trkpt lat="42.80276" lon="-0.03426">
        <ele>1914</ele>
        <time>2023-10-31T12:50:50Z</time>
      </trkpt>
      <trkpt lat="42.80276" lon="-0.03426">
        <ele>1914.1</ele>
        <time>2023-10-31T12:50:51Z</time>
      </trkpt>
      <trkpt lat="42.80275" lon="-0.03427">
        <ele>1914.2</ele>
        <time>2023-10-31T12:50:52Z</time>
      </trkpt>
      <trkpt lat="42.80275" lon="-0.03428">
        <ele>1914.3</ele>
        <time>2023-10-31T12:50:53Z</time>
      </trkpt>
      <trkpt lat="42.80274" lon="-0.03428">
        <ele>1914.4</ele>
        <time>2023-10-31T12:50:54Z</time>
      </trkpt>
      <trkpt lat="42.80273" lon="-0.03428">
        <ele>1914.5</ele>
        <time>2023-10-31T12:50:55Z</time>
      </trkpt>
      <trkpt lat="42.80272" lon="-0.03428">
        <ele>1914.6</ele>
        <time>2023-10-31T12:50:56Z</time>
      </trkpt>
      <trkpt lat="42.80271" lon="-0.03428">
        <ele>1914.7</ele>
        <time>2023-10-31T12:50:57Z</time>
      </trkpt>
      <trkpt lat="42.80271" lon="-0.03429">
        <ele>1914.8</ele>
        <time>2023-10-31T12:50:58Z</time>
      </trkpt>
      <trkpt lat="42.8027" lon="-0.03429">
        <ele>1914.9</ele>
        <time>2023-10-31T12:50:59Z</time>
      </trkpt>
      <trkpt lat="42.80269" lon="-0.03429">
        <ele>1915.1</ele>
        <time>2023-10-31T12:51:00Z</time>
      </trkpt>
      <trkpt lat="42.80268" lon="-0.03429">
        <ele>1915.2</ele>
        <time>2023-10-31T12:51:01Z</time>
      </trkpt>
      <trkpt lat="42.80267" lon="-0.03428">
        <ele>1915.3</ele>
        <time>2023-10-31T12:51:02Z</time>
      </trkpt>
      <trkpt lat="42.80266" lon="-0.03429">
        <ele>1915.4</ele>
        <time>2023-10-31T12:51:03Z</time>
      </trkpt>
      <trkpt lat="42.80266" lon="-0.0343">
        <ele>1915.5</ele>
        <time>2023-10-31T12:51:04Z</time>
      </trkpt>
      <trkpt lat="42.80265" lon="-0.0343">
        <ele>1915.5</ele>
        <time>2023-10-31T12:51:05Z</time>
      </trkpt>
      <trkpt lat="42.80265" lon="-0.03431">
        <ele>1915.6</ele>
        <time>2023-10-31T12:51:06Z</time>
      </trkpt>
      <trkpt lat="42.80264" lon="-0.03432">
        <ele>1915.8</ele>
        <time>2023-10-31T12:51:07Z</time>
      </trkpt>
      <trkpt lat="42.80263" lon="-0.03432">
        <ele>1915.9</ele>
        <time>2023-10-31T12:51:08Z</time>
      </trkpt>
      <trkpt lat="42.80263" lon="-0.03432">
        <ele>1916</ele>
        <time>2023-10-31T12:51:09Z</time>
      </trkpt>
      <trkpt lat="42.80263" lon="-0.03432">
        <ele>1916</ele>
        <time>2023-10-31T12:51:10Z</time>
      </trkpt>
      <trkpt lat="42.80263" lon="-0.03433">
        <ele>1916.1</ele>
        <time>2023-10-31T12:51:11Z</time>
      </trkpt>
      <trkpt lat="42.80262" lon="-0.03432">
        <ele>1916.2</ele>
        <time>2023-10-31T12:51:12Z</time>
      </trkpt>
      <trkpt lat="42.80261" lon="-0.03432">
        <ele>1916.4</ele>
        <time>2023-10-31T12:51:13Z</time>
      </trkpt>
      <trkpt lat="42.8026" lon="-0.03432">
        <ele>1916.5</ele>
        <time>2023-10-31T12:51:14Z</time>
      </trkpt>
      <trkpt lat="42.80259" lon="-0.03431">
        <ele>1916.7</ele>
        <time>2023-10-31T12:51:15Z</time>
      </trkpt>
      <trkpt lat="42.80258" lon="-0.03431">
        <ele>1916.9</ele>
        <time>2023-10-31T12:51:16Z</time>
      </trkpt>
      <trkpt lat="42.80257" lon="-0.0343">
        <ele>1917</ele>
        <time>2023-10-31T12:51:17Z</time>
      </trkpt>
      <trkpt lat="42.80255" lon="-0.0343">
        <ele>1917.2</ele>
        <time>2023-10-31T12:51:18Z</time>
      </trkpt>
      <trkpt lat="42.80254" lon="-0.0343">
        <ele>1917.4</ele>
        <time>2023-10-31T12:51:19Z</time>
      </trkpt>
      <trkpt lat="42.80253" lon="-0.03429">
        <ele>1917.5</ele>
        <time>2023-10-31T12:51:20Z</time>
      </trkpt>
      <trkpt lat="42.80253" lon="-0.03429">
        <ele>1917.6</ele>
        <time>2023-10-31T12:51:21Z</time>
      </trkpt>
      <trkpt lat="42.80252" lon="-0.03429">
        <ele>1917.7</ele>
        <time>2023-10-31T12:51:22Z</time>
      </trkpt>
      <trkpt lat="42.80251" lon="-0.03429">
        <ele>1917.8</ele>
        <time>2023-10-31T12:51:23Z</time>
      </trkpt>
      <trkpt lat="42.80251" lon="-0.03429">
        <ele>1917.8</ele>
        <time>2023-10-31T12:51:24Z</time>
      </trkpt>
      <trkpt lat="42.80249" lon="-0.03429">
        <ele>1918</ele>
        <time>2023-10-31T12:51:25Z</time>
      </trkpt>
      <trkpt lat="42.80249" lon="-0.03429">
        <ele>1918.1</ele>
        <time>2023-10-31T12:51:26Z</time>
      </trkpt>
      <trkpt lat="42.80249" lon="-0.03429">
        <ele>1918.2</ele>
        <time>2023-10-31T12:51:27Z</time>
      </trkpt>
      <trkpt lat="42.80248" lon="-0.03428">
        <ele>1918.3</ele>
        <time>2023-10-31T12:51:28Z</time>
      </trkpt>
      <trkpt lat="42.80248" lon="-0.03427">
        <ele>1918.4</ele>
        <time>2023-10-31T12:51:29Z</time>
      </trkpt>
      <trkpt lat="42.80247" lon="-0.03427">
        <ele>1918.4</ele>
        <time>2023-10-31T12:51:30Z</time>
      </trkpt>
      <trkpt lat="42.80246" lon="-0.03427">
        <ele>1918.6</ele>
        <time>2023-10-31T12:51:31Z</time>
      </trkpt>
      <trkpt lat="42.80246" lon="-0.03427">
        <ele>1918.7</ele>
        <time>2023-10-31T12:51:32Z</time>
      </trkpt>
      <trkpt lat="42.80247" lon="-0.03427">
        <ele>1918.8</ele>
        <time>2023-10-31T12:51:33Z</time>
      </trkpt>
      <trkpt lat="42.80247" lon="-0.03427">
        <ele>1918.8</ele>
        <time>2023-10-31T12:51:34Z</time>
      </trkpt>
      <trkpt lat="42.80247" lon="-0.03427">
        <ele>1918.8</ele>
        <time>2023-10-31T12:51:35Z</time>
      </trkpt>
      <trkpt lat="42.80247" lon="-0.03426">
        <ele>1918.9</ele>
        <time>2023-10-31T12:51:36Z</time>
      </trkpt>
      <trkpt lat="42.80247" lon="-0.03426">
        <ele>1918.9</ele>
        <time>2023-10-31T12:51:37Z</time>
      </trkpt>
      <trkpt lat="42.80247" lon="-0.03426">
        <ele>1918.9</ele>
        <time>2023-10-31T12:51:38Z</time>
      </trkpt>
      <trkpt lat="42.80247" lon="-0.03426">
        <ele>1918.9</ele>
        <time>2023-10-31T12:51:39Z</time>
      </trkpt>
      <trkpt lat="42.80247" lon="-0.03426">
        <ele>1918.9</ele>
        <time>2023-10-31T12:51:40Z</time>
      </trkpt>
      <trkpt lat="42.80247" lon="-0.03426">
        <ele>1918.9</ele>
        <time>2023-10-31T12:51:41Z</time>
      </trkpt>
      <trkpt lat="42.80247" lon="-0.03424">
        <ele>1919</ele>
        <time>2023-10-31T12:51:42Z</time>
      </trkpt>
      <trkpt lat="42.80247" lon="-0.03424">
        <ele>1919.1</ele>
        <time>2023-10-31T12:51:43Z</time>
      </trkpt>
      <trkpt lat="42.80246" lon="-0.03423">
        <ele>1919.3</ele>
        <time>2023-10-31T12:51:44Z</time>
      </trkpt>
      <trkpt lat="42.80245" lon="-0.03422">
        <ele>1919.5</ele>
        <time>2023-10-31T12:51:45Z</time>
      </trkpt>
      <trkpt lat="42.80244" lon="-0.03423">
        <ele>1919.6</ele>
        <time>2023-10-31T12:51:46Z</time>
      </trkpt>
      <trkpt lat="42.80244" lon="-0.03423">
        <ele>1919.7</ele>
        <time>2023-10-31T12:51:47Z</time>
      </trkpt>
      <trkpt lat="42.80243" lon="-0.03422">
        <ele>1919.9</ele>
        <time>2023-10-31T12:51:48Z</time>
      </trkpt>
      <trkpt lat="42.80242" lon="-0.03422">
        <ele>1920</ele>
        <time>2023-10-31T12:51:49Z</time>
      </trkpt>
      <trkpt lat="42.80241" lon="-0.03422">
        <ele>1920.1</ele>
        <time>2023-10-31T12:51:50Z</time>
      </trkpt>
      <trkpt lat="42.80241" lon="-0.03422">
        <ele>1920.2</ele>
        <time>2023-10-31T12:51:51Z</time>
      </trkpt>
      <trkpt lat="42.80241" lon="-0.03422">
        <ele>1920.2</ele>
        <time>2023-10-31T12:51:52Z</time>
      </trkpt>
      <trkpt lat="42.8024" lon="-0.03423">
        <ele>1920.4</ele>
        <time>2023-10-31T12:51:53Z</time>
      </trkpt>
      <trkpt lat="42.80239" lon="-0.03421">
        <ele>1920.5</ele>
        <time>2023-10-31T12:51:54Z</time>
      </trkpt>
      <trkpt lat="42.80238" lon="-0.0342">
        <ele>1920.7</ele>
        <time>2023-10-31T12:51:55Z</time>
      </trkpt>
      <trkpt lat="42.80238" lon="-0.0342">
        <ele>1920.8</ele>
        <time>2023-10-31T12:51:56Z</time>
      </trkpt>
      <trkpt lat="42.80237" lon="-0.0342">
        <ele>1920.9</ele>
        <time>2023-10-31T12:51:57Z</time>
      </trkpt>
      <trkpt lat="42.80236" lon="-0.03419">
        <ele>1921</ele>
        <time>2023-10-31T12:51:58Z</time>
      </trkpt>
      <trkpt lat="42.80236" lon="-0.03419">
        <ele>1921.1</ele>
        <time>2023-10-31T12:51:59Z</time>
      </trkpt>
      <trkpt lat="42.80235" lon="-0.03419">
        <ele>1921.2</ele>
        <time>2023-10-31T12:52:00Z</time>
      </trkpt>
      <trkpt lat="42.80234" lon="-0.03418">
        <ele>1921.3</ele>
        <time>2023-10-31T12:52:01Z</time>
      </trkpt>
      <trkpt lat="42.80234" lon="-0.03418">
        <ele>1921.5</ele>
        <time>2023-10-31T12:52:02Z</time>
      </trkpt>
      <trkpt lat="42.80233" lon="-0.03419">
        <ele>1921.6</ele>
        <time>2023-10-31T12:52:03Z</time>
      </trkpt>
      <trkpt lat="42.80232" lon="-0.03419">
        <ele>1921.7</ele>
        <time>2023-10-31T12:52:04Z</time>
      </trkpt>
      <trkpt lat="42.80232" lon="-0.03419">
        <ele>1921.7</ele>
        <time>2023-10-31T12:52:05Z</time>
      </trkpt>
      <trkpt lat="42.80231" lon="-0.0342">
        <ele>1921.9</ele>
        <time>2023-10-31T12:52:06Z</time>
      </trkpt>
      <trkpt lat="42.8023" lon="-0.03421">
        <ele>1922.1</ele>
        <time>2023-10-31T12:52:07Z</time>
      </trkpt>
      <trkpt lat="42.8023" lon="-0.03421">
        <ele>1922.1</ele>
        <time>2023-10-31T12:52:08Z</time>
      </trkpt>
      <trkpt lat="42.8023" lon="-0.03422">
        <ele>1922.2</ele>
        <time>2023-10-31T12:52:09Z</time>
      </trkpt>
      <trkpt lat="42.8023" lon="-0.03422">
        <ele>1922.2</ele>
        <time>2023-10-31T12:52:10Z</time>
      </trkpt>
      <trkpt lat="42.80229" lon="-0.03423">
        <ele>1922.3</ele>
        <time>2023-10-31T12:52:11Z</time>
      </trkpt>
      <trkpt lat="42.80229" lon="-0.03424">
        <ele>1922.4</ele>
        <time>2023-10-31T12:52:12Z</time>
      </trkpt>
      <trkpt lat="42.80229" lon="-0.03424">
        <ele>1922.4</ele>
        <time>2023-10-31T12:52:13Z</time>
      </trkpt>
      <trkpt lat="42.80229" lon="-0.03424">
        <ele>1922.5</ele>
        <time>2023-10-31T12:52:14Z</time>
      </trkpt>
      <trkpt lat="42.80229" lon="-0.03424">
        <ele>1922.5</ele>
        <time>2023-10-31T12:52:15Z</time>
      </trkpt>
      <trkpt lat="42.80228" lon="-0.03424">
        <ele>1922.6</ele>
        <time>2023-10-31T12:52:16Z</time>
      </trkpt>
      <trkpt lat="42.80227" lon="-0.03424">
        <ele>1922.8</ele>
        <time>2023-10-31T12:52:17Z</time>
      </trkpt>
      <trkpt lat="42.80226" lon="-0.03425">
        <ele>1922.9</ele>
        <time>2023-10-31T12:52:18Z</time>
      </trkpt>
      <trkpt lat="42.80225" lon="-0.03425">
        <ele>1923</ele>
        <time>2023-10-31T12:52:19Z</time>
      </trkpt>
      <trkpt lat="42.80224" lon="-0.03426">
        <ele>1923.1</ele>
        <time>2023-10-31T12:52:20Z</time>
      </trkpt>
      <trkpt lat="42.80223" lon="-0.03426">
        <ele>1923.2</ele>
        <time>2023-10-31T12:52:21Z</time>
      </trkpt>
      <trkpt lat="42.80222" lon="-0.03427">
        <ele>1923.4</ele>
        <time>2023-10-31T12:52:22Z</time>
      </trkpt>
      <trkpt lat="42.80221" lon="-0.03428">
        <ele>1923.5</ele>
        <time>2023-10-31T12:52:23Z</time>
      </trkpt>
      <trkpt lat="42.80221" lon="-0.03429">
        <ele>1923.6</ele>
        <time>2023-10-31T12:52:24Z</time>
      </trkpt>
      <trkpt lat="42.8022" lon="-0.0343">
        <ele>1923.7</ele>
        <time>2023-10-31T12:52:25Z</time>
      </trkpt>
      <trkpt lat="42.80219" lon="-0.03432">
        <ele>1923.8</ele>
        <time>2023-10-31T12:52:26Z</time>
      </trkpt>
      <trkpt lat="42.80219" lon="-0.03432">
        <ele>1923.8</ele>
        <time>2023-10-31T12:52:27Z</time>
      </trkpt>
      <trkpt lat="42.80219" lon="-0.03434">
        <ele>1923.9</ele>
        <time>2023-10-31T12:52:28Z</time>
      </trkpt>
      <trkpt lat="42.80218" lon="-0.03435">
        <ele>1924</ele>
        <time>2023-10-31T12:52:29Z</time>
      </trkpt>
      <trkpt lat="42.80218" lon="-0.03436">
        <ele>1924.1</ele>
        <time>2023-10-31T12:52:30Z</time>
      </trkpt>
      <trkpt lat="42.80218" lon="-0.03438">
        <ele>1924.2</ele>
        <time>2023-10-31T12:52:31Z</time>
      </trkpt>
      <trkpt lat="42.80218" lon="-0.03439">
        <ele>1924.2</ele>
        <time>2023-10-31T12:52:32Z</time>
      </trkpt>
      <trkpt lat="42.80217" lon="-0.0344">
        <ele>1924.3</ele>
        <time>2023-10-31T12:52:33Z</time>
      </trkpt>
      <trkpt lat="42.80217" lon="-0.03441">
        <ele>1924.3</ele>
        <time>2023-10-31T12:52:34Z</time>
      </trkpt>
      <trkpt lat="42.80217" lon="-0.03442">
        <ele>1924.4</ele>
        <time>2023-10-31T12:52:35Z</time>
      </trkpt>
      <trkpt lat="42.80217" lon="-0.03443">
        <ele>1924.4</ele>
        <time>2023-10-31T12:52:36Z</time>
      </trkpt>
      <trkpt lat="42.80216" lon="-0.03445">
        <ele>1924.5</ele>
        <time>2023-10-31T12:52:37Z</time>
      </trkpt>
      <trkpt lat="42.80216" lon="-0.03446">
        <ele>1924.5</ele>
        <time>2023-10-31T12:52:38Z</time>
      </trkpt>
      <trkpt lat="42.80216" lon="-0.03447">
        <ele>1924.5</ele>
        <time>2023-10-31T12:52:39Z</time>
      </trkpt>
      <trkpt lat="42.80215" lon="-0.03448">
        <ele>1924.6</ele>
        <time>2023-10-31T12:52:40Z</time>
      </trkpt>
      <trkpt lat="42.80214" lon="-0.03449">
        <ele>1924.6</ele>
        <time>2023-10-31T12:52:41Z</time>
      </trkpt>
      <trkpt lat="42.80214" lon="-0.0345">
        <ele>1924.7</ele>
        <time>2023-10-31T12:52:42Z</time>
      </trkpt>
      <trkpt lat="42.80213" lon="-0.0345">
        <ele>1924.7</ele>
        <time>2023-10-31T12:52:43Z</time>
      </trkpt>
      <trkpt lat="42.80212" lon="-0.03451">
        <ele>1924.8</ele>
        <time>2023-10-31T12:52:44Z</time>
      </trkpt>
      <trkpt lat="42.80212" lon="-0.03452">
        <ele>1924.8</ele>
        <time>2023-10-31T12:52:45Z</time>
      </trkpt>
      <trkpt lat="42.80212" lon="-0.03453">
        <ele>1924.8</ele>
        <time>2023-10-31T12:52:46Z</time>
      </trkpt>
      <trkpt lat="42.80212" lon="-0.03454">
        <ele>1924.9</ele>
        <time>2023-10-31T12:52:47Z</time>
      </trkpt>
      <trkpt lat="42.80212" lon="-0.03454">
        <ele>1924.9</ele>
        <time>2023-10-31T12:52:48Z</time>
      </trkpt>
      <trkpt lat="42.80212" lon="-0.03454">
        <ele>1924.9</ele>
        <time>2023-10-31T12:52:49Z</time>
      </trkpt>
      <trkpt lat="42.80212" lon="-0.03455">
        <ele>1924.9</ele>
        <time>2023-10-31T12:52:50Z</time>
      </trkpt>
      <trkpt lat="42.80212" lon="-0.03456">
        <ele>1924.9</ele>
        <time>2023-10-31T12:52:51Z</time>
      </trkpt>
      <trkpt lat="42.80212" lon="-0.03456">
        <ele>1925</ele>
        <time>2023-10-31T12:52:52Z</time>
      </trkpt>
      <trkpt lat="42.80211" lon="-0.03456">
        <ele>1925</ele>
        <time>2023-10-31T12:52:53Z</time>
      </trkpt>
      <trkpt lat="42.80211" lon="-0.03457">
        <ele>1925</ele>
        <time>2023-10-31T12:52:54Z</time>
      </trkpt>
      <trkpt lat="42.8021" lon="-0.03457">
        <ele>1925</ele>
        <time>2023-10-31T12:52:55Z</time>
      </trkpt>
      <trkpt lat="42.8021" lon="-0.03458">
        <ele>1925.1</ele>
        <time>2023-10-31T12:52:56Z</time>
      </trkpt>
      <trkpt lat="42.8021" lon="-0.03458">
        <ele>1925.1</ele>
        <time>2023-10-31T12:52:57Z</time>
      </trkpt>
      <trkpt lat="42.80209" lon="-0.03459">
        <ele>1925.2</ele>
        <time>2023-10-31T12:52:58Z</time>
      </trkpt>
      <trkpt lat="42.80208" lon="-0.03459">
        <ele>1925.2</ele>
        <time>2023-10-31T12:52:59Z</time>
      </trkpt>
      <trkpt lat="42.80208" lon="-0.03459">
        <ele>1925.3</ele>
        <time>2023-10-31T12:53:00Z</time>
      </trkpt>
      <trkpt lat="42.80207" lon="-0.0346">
        <ele>1925.3</ele>
        <time>2023-10-31T12:53:01Z</time>
      </trkpt>
      <trkpt lat="42.80207" lon="-0.0346">
        <ele>1925.3</ele>
        <time>2023-10-31T12:53:02Z</time>
      </trkpt>
      <trkpt lat="42.80207" lon="-0.03461">
        <ele>1925.4</ele>
        <time>2023-10-31T12:53:03Z</time>
      </trkpt>
      <trkpt lat="42.80207" lon="-0.03461">
        <ele>1925.4</ele>
        <time>2023-10-31T12:53:04Z</time>
      </trkpt>
      <trkpt lat="42.80206" lon="-0.03462">
        <ele>1925.5</ele>
        <time>2023-10-31T12:53:05Z</time>
      </trkpt>
      <trkpt lat="42.80206" lon="-0.03462">
        <ele>1925.5</ele>
        <time>2023-10-31T12:53:06Z</time>
      </trkpt>
      <trkpt lat="42.80206" lon="-0.03463">
        <ele>1925.6</ele>
        <time>2023-10-31T12:53:07Z</time>
      </trkpt>
      <trkpt lat="42.80205" lon="-0.03463">
        <ele>1925.6</ele>
        <time>2023-10-31T12:53:08Z</time>
      </trkpt>
      <trkpt lat="42.80205" lon="-0.03463">
        <ele>1925.7</ele>
        <time>2023-10-31T12:53:09Z</time>
      </trkpt>
      <trkpt lat="42.80205" lon="-0.03463">
        <ele>1925.7</ele>
        <time>2023-10-31T12:53:10Z</time>
      </trkpt>
      <trkpt lat="42.80205" lon="-0.03463">
        <ele>1925.7</ele>
        <time>2023-10-31T12:53:11Z</time>
      </trkpt>
      <trkpt lat="42.80205" lon="-0.03463">
        <ele>1925.7</ele>
        <time>2023-10-31T12:53:12Z</time>
      </trkpt>
      <trkpt lat="42.80205" lon="-0.03463">
        <ele>1925.7</ele>
        <time>2023-10-31T12:53:13Z</time>
      </trkpt>
      <trkpt lat="42.80205" lon="-0.03464">
        <ele>1925.8</ele>
        <time>2023-10-31T12:53:14Z</time>
      </trkpt>
      <trkpt lat="42.80205" lon="-0.03463">
        <ele>1925.8</ele>
        <time>2023-10-31T12:53:15Z</time>
      </trkpt>
      <trkpt lat="42.80204" lon="-0.03463">
        <ele>1925.9</ele>
        <time>2023-10-31T12:53:16Z</time>
      </trkpt>
      <trkpt lat="42.80203" lon="-0.03465">
        <ele>1926.1</ele>
        <time>2023-10-31T12:53:17Z</time>
      </trkpt>
      <trkpt lat="42.80203" lon="-0.03465">
        <ele>1926.1</ele>
        <time>2023-10-31T12:53:18Z</time>
      </trkpt>
      <trkpt lat="42.80203" lon="-0.03464">
        <ele>1926.2</ele>
        <time>2023-10-31T12:53:19Z</time>
      </trkpt>
      <trkpt lat="42.80203" lon="-0.03465">
        <ele>1926.3</ele>
        <time>2023-10-31T12:53:20Z</time>
      </trkpt>
      <trkpt lat="42.80202" lon="-0.03466">
        <ele>1926.4</ele>
        <time>2023-10-31T12:53:21Z</time>
      </trkpt>
      <trkpt lat="42.80201" lon="-0.03467">
        <ele>1926.5</ele>
        <time>2023-10-31T12:53:22Z</time>
      </trkpt>
      <trkpt lat="42.80201" lon="-0.03468">
        <ele>1926.7</ele>
        <time>2023-10-31T12:53:23Z</time>
      </trkpt>
      <trkpt lat="42.802" lon="-0.03469">
        <ele>1926.8</ele>
        <time>2023-10-31T12:53:24Z</time>
      </trkpt>
      <trkpt lat="42.802" lon="-0.03471">
        <ele>1926.9</ele>
        <time>2023-10-31T12:53:25Z</time>
      </trkpt>
      <trkpt lat="42.802" lon="-0.03471">
        <ele>1927</ele>
        <time>2023-10-31T12:53:26Z</time>
      </trkpt>
      <trkpt lat="42.802" lon="-0.03472">
        <ele>1927</ele>
        <time>2023-10-31T12:53:27Z</time>
      </trkpt>
      <trkpt lat="42.802" lon="-0.03473">
        <ele>1927.2</ele>
        <time>2023-10-31T12:53:28Z</time>
      </trkpt>
      <trkpt lat="42.802" lon="-0.03473">
        <ele>1927.2</ele>
        <time>2023-10-31T12:53:29Z</time>
      </trkpt>
      <trkpt lat="42.80199" lon="-0.03474">
        <ele>1927.3</ele>
        <time>2023-10-31T12:53:30Z</time>
      </trkpt>
      <trkpt lat="42.80199" lon="-0.03475">
        <ele>1927.4</ele>
        <time>2023-10-31T12:53:31Z</time>
      </trkpt>
      <trkpt lat="42.80199" lon="-0.03477">
        <ele>1927.6</ele>
        <time>2023-10-31T12:53:32Z</time>
      </trkpt>
      <trkpt lat="42.80198" lon="-0.03477">
        <ele>1927.7</ele>
        <time>2023-10-31T12:53:33Z</time>
      </trkpt>
      <trkpt lat="42.80197" lon="-0.03478">
        <ele>1927.8</ele>
        <time>2023-10-31T12:53:34Z</time>
      </trkpt>
      <trkpt lat="42.80196" lon="-0.03479">
        <ele>1927.9</ele>
        <time>2023-10-31T12:53:35Z</time>
      </trkpt>
      <trkpt lat="42.80195" lon="-0.03479">
        <ele>1928</ele>
        <time>2023-10-31T12:53:36Z</time>
      </trkpt>
      <trkpt lat="42.80194" lon="-0.03481">
        <ele>1928.2</ele>
        <time>2023-10-31T12:53:37Z</time>
      </trkpt>
      <trkpt lat="42.80194" lon="-0.03481">
        <ele>1928.2</ele>
        <time>2023-10-31T12:53:38Z</time>
      </trkpt>
      <trkpt lat="42.80193" lon="-0.03482">
        <ele>1928.3</ele>
        <time>2023-10-31T12:53:39Z</time>
      </trkpt>
      <trkpt lat="42.80193" lon="-0.03482">
        <ele>1928.4</ele>
        <time>2023-10-31T12:53:40Z</time>
      </trkpt>
      <trkpt lat="42.80191" lon="-0.03483">
        <ele>1928.5</ele>
        <time>2023-10-31T12:53:41Z</time>
      </trkpt>
      <trkpt lat="42.80191" lon="-0.03483">
        <ele>1928.5</ele>
        <time>2023-10-31T12:53:42Z</time>
      </trkpt>
      <trkpt lat="42.80189" lon="-0.03484">
        <ele>1928.6</ele>
        <time>2023-10-31T12:53:43Z</time>
      </trkpt>
      <trkpt lat="42.8019" lon="-0.03484">
        <ele>1928.6</ele>
        <time>2023-10-31T12:53:44Z</time>
      </trkpt>
      <trkpt lat="42.8019" lon="-0.03484">
        <ele>1928.7</ele>
        <time>2023-10-31T12:53:45Z</time>
      </trkpt>
      <trkpt lat="42.8019" lon="-0.03484">
        <ele>1928.7</ele>
        <time>2023-10-31T12:53:46Z</time>
      </trkpt>
      <trkpt lat="42.80189" lon="-0.03485">
        <ele>1928.7</ele>
        <time>2023-10-31T12:53:47Z</time>
      </trkpt>
      <trkpt lat="42.80189" lon="-0.03486">
        <ele>1928.8</ele>
        <time>2023-10-31T12:53:48Z</time>
      </trkpt>
      <trkpt lat="42.80188" lon="-0.03487">
        <ele>1928.8</ele>
        <time>2023-10-31T12:53:49Z</time>
      </trkpt>
      <trkpt lat="42.80188" lon="-0.03487">
        <ele>1928.8</ele>
        <time>2023-10-31T12:53:50Z</time>
      </trkpt>
      <trkpt lat="42.80188" lon="-0.03487">
        <ele>1928.8</ele>
        <time>2023-10-31T12:53:51Z</time>
      </trkpt>
      <trkpt lat="42.80187" lon="-0.03488">
        <ele>1928.8</ele>
        <time>2023-10-31T12:53:52Z</time>
      </trkpt>
      <trkpt lat="42.80187" lon="-0.03488">
        <ele>1928.8</ele>
        <time>2023-10-31T12:53:53Z</time>
      </trkpt>
      <trkpt lat="42.80187" lon="-0.03487">
        <ele>1928.8</ele>
        <time>2023-10-31T12:53:54Z</time>
      </trkpt>
      <trkpt lat="42.80187" lon="-0.03488">
        <ele>1928.8</ele>
        <time>2023-10-31T12:53:55Z</time>
      </trkpt>
      <trkpt lat="42.80187" lon="-0.03488">
        <ele>1928.8</ele>
        <time>2023-10-31T12:53:56Z</time>
      </trkpt>
      <trkpt lat="42.80187" lon="-0.03488">
        <ele>1928.8</ele>
        <time>2023-10-31T12:53:57Z</time>
      </trkpt>
      <trkpt lat="42.80187" lon="-0.03489">
        <ele>1928.8</ele>
        <time>2023-10-31T12:53:58Z</time>
      </trkpt>
      <trkpt lat="42.80187" lon="-0.03489">
        <ele>1928.9</ele>
        <time>2023-10-31T12:53:59Z</time>
      </trkpt>
      <trkpt lat="42.80187" lon="-0.0349">
        <ele>1928.9</ele>
        <time>2023-10-31T12:54:00Z</time>
      </trkpt>
      <trkpt lat="42.80187" lon="-0.0349">
        <ele>1928.9</ele>
        <time>2023-10-31T12:54:02Z</time>
      </trkpt>
      <trkpt lat="42.80187" lon="-0.0349">
        <ele>1928.8</ele>
        <time>2023-10-31T12:54:03Z</time>
      </trkpt>
      <trkpt lat="42.80187" lon="-0.03491">
        <ele>1928.8</ele>
        <time>2023-10-31T12:54:05Z</time>
      </trkpt>
      <trkpt lat="42.80186" lon="-0.03491">
        <ele>1928.8</ele>
        <time>2023-10-31T12:54:06Z</time>
      </trkpt>
      <trkpt lat="42.80187" lon="-0.03491">
        <ele>1928.8</ele>
        <time>2023-10-31T12:54:08Z</time>
      </trkpt>
      <trkpt lat="42.80187" lon="-0.03492">
        <ele>1928.8</ele>
        <time>2023-10-31T12:54:09Z</time>
      </trkpt>
      <trkpt lat="42.80187" lon="-0.03492">
        <ele>1928.8</ele>
        <time>2023-10-31T12:54:10Z</time>
      </trkpt>
      <trkpt lat="42.80187" lon="-0.03492">
        <ele>1928.8</ele>
        <time>2023-10-31T12:54:11Z</time>
      </trkpt>
      <trkpt lat="42.80187" lon="-0.03493">
        <ele>1928.8</ele>
        <time>2023-10-31T12:54:12Z</time>
      </trkpt>
      <trkpt lat="42.80187" lon="-0.03493">
        <ele>1928.8</ele>
        <time>2023-10-31T12:54:13Z</time>
      </trkpt>
      <trkpt lat="42.80187" lon="-0.03494">
        <ele>1928.8</ele>
        <time>2023-10-31T12:54:14Z</time>
      </trkpt>
      <trkpt lat="42.80187" lon="-0.03494">
        <ele>1928.8</ele>
        <time>2023-10-31T12:54:15Z</time>
      </trkpt>
      <trkpt lat="42.80187" lon="-0.03494">
        <ele>1928.8</ele>
        <time>2023-10-31T12:54:16Z</time>
      </trkpt>
      <trkpt lat="42.80188" lon="-0.03494">
        <ele>1928.8</ele>
        <time>2023-10-31T12:54:17Z</time>
      </trkpt>
      <trkpt lat="42.80187" lon="-0.03495">
        <ele>1928.7</ele>
        <time>2023-10-31T12:54:18Z</time>
      </trkpt>
      <trkpt lat="42.80187" lon="-0.03495">
        <ele>1928.7</ele>
        <time>2023-10-31T12:54:19Z</time>
      </trkpt>
      <trkpt lat="42.80187" lon="-0.03496">
        <ele>1928.6</ele>
        <time>2023-10-31T12:54:20Z</time>
      </trkpt>
      <trkpt lat="42.80187" lon="-0.03496">
        <ele>1928.6</ele>
        <time>2023-10-31T12:54:21Z</time>
      </trkpt>
      <trkpt lat="42.80187" lon="-0.03497">
        <ele>1928.5</ele>
        <time>2023-10-31T12:54:22Z</time>
      </trkpt>
      <trkpt lat="42.80187" lon="-0.03498">
        <ele>1928.5</ele>
        <time>2023-10-31T12:54:23Z</time>
      </trkpt>
      <trkpt lat="42.80186" lon="-0.03499">
        <ele>1928.4</ele>
        <time>2023-10-31T12:54:24Z</time>
      </trkpt>
      <trkpt lat="42.80186" lon="-0.03499">
        <ele>1928.4</ele>
        <time>2023-10-31T12:54:25Z</time>
      </trkpt>
      <trkpt lat="42.80185" lon="-0.035">
        <ele>1928.2</ele>
        <time>2023-10-31T12:54:26Z</time>
      </trkpt>
      <trkpt lat="42.80185" lon="-0.03501">
        <ele>1928.1</ele>
        <time>2023-10-31T12:54:27Z</time>
      </trkpt>
      <trkpt lat="42.80184" lon="-0.03501">
        <ele>1928.1</ele>
        <time>2023-10-31T12:54:28Z</time>
      </trkpt>
      <trkpt lat="42.80184" lon="-0.03501">
        <ele>1928</ele>
        <time>2023-10-31T12:54:29Z</time>
      </trkpt>
      <trkpt lat="42.80184" lon="-0.03501">
        <ele>1928</ele>
        <time>2023-10-31T12:54:30Z</time>
      </trkpt>
      <trkpt lat="42.80183" lon="-0.03501">
        <ele>1927.9</ele>
        <time>2023-10-31T12:54:31Z</time>
      </trkpt>
      <trkpt lat="42.80183" lon="-0.03502">
        <ele>1927.8</ele>
        <time>2023-10-31T12:54:32Z</time>
      </trkpt>
      <trkpt lat="42.80182" lon="-0.03502">
        <ele>1927.7</ele>
        <time>2023-10-31T12:54:33Z</time>
      </trkpt>
      <trkpt lat="42.80182" lon="-0.03503">
        <ele>1927.7</ele>
        <time>2023-10-31T12:54:34Z</time>
      </trkpt>
      <trkpt lat="42.80182" lon="-0.03502">
        <ele>1927.6</ele>
        <time>2023-10-31T12:54:35Z</time>
      </trkpt>
      <trkpt lat="42.80182" lon="-0.03502">
        <ele>1927.6</ele>
        <time>2023-10-31T12:54:36Z</time>
      </trkpt>
      <trkpt lat="42.80183" lon="-0.03502">
        <ele>1927.5</ele>
        <time>2023-10-31T12:54:37Z</time>
      </trkpt>
      <trkpt lat="42.80182" lon="-0.03502">
        <ele>1927.2</ele>
        <time>2023-10-31T12:54:38Z</time>
      </trkpt>
      <trkpt lat="42.80181" lon="-0.03503">
        <ele>1927.1</ele>
        <time>2023-10-31T12:54:39Z</time>
      </trkpt>
      <trkpt lat="42.80181" lon="-0.03504">
        <ele>1927</ele>
        <time>2023-10-31T12:54:40Z</time>
      </trkpt>
      <trkpt lat="42.80181" lon="-0.03505">
        <ele>1926.8</ele>
        <time>2023-10-31T12:54:41Z</time>
      </trkpt>
      <trkpt lat="42.80181" lon="-0.03505">
        <ele>1926.8</ele>
        <time>2023-10-31T12:54:42Z</time>
      </trkpt>
      <trkpt lat="42.8018" lon="-0.03505">
        <ele>1926.5</ele>
        <time>2023-10-31T12:54:43Z</time>
      </trkpt>
      <trkpt lat="42.80179" lon="-0.03506">
        <ele>1926.3</ele>
        <time>2023-10-31T12:54:44Z</time>
      </trkpt>
      <trkpt lat="42.80178" lon="-0.03506">
        <ele>1926.3</ele>
        <time>2023-10-31T12:54:45Z</time>
      </trkpt>
      <trkpt lat="42.80178" lon="-0.03506">
        <ele>1926.1</ele>
        <time>2023-10-31T12:54:46Z</time>
      </trkpt>
      <trkpt lat="42.80176" lon="-0.03507">
        <ele>1925.8</ele>
        <time>2023-10-31T12:54:47Z</time>
      </trkpt>
      <trkpt lat="42.80176" lon="-0.03507">
        <ele>1925.7</ele>
        <time>2023-10-31T12:54:48Z</time>
      </trkpt>
      <trkpt lat="42.80175" lon="-0.03507">
        <ele>1925.6</ele>
        <time>2023-10-31T12:54:49Z</time>
      </trkpt>
      <trkpt lat="42.80175" lon="-0.03508">
        <ele>1925.4</ele>
        <time>2023-10-31T12:54:50Z</time>
      </trkpt>
      <trkpt lat="42.80174" lon="-0.03508">
        <ele>1925.3</ele>
        <time>2023-10-31T12:54:51Z</time>
      </trkpt>
      <trkpt lat="42.80174" lon="-0.03509">
        <ele>1925.1</ele>
        <time>2023-10-31T12:54:52Z</time>
      </trkpt>
      <trkpt lat="42.80172" lon="-0.0351">
        <ele>1924.7</ele>
        <time>2023-10-31T12:54:53Z</time>
      </trkpt>
      <trkpt lat="42.80171" lon="-0.03511">
        <ele>1924.5</ele>
        <time>2023-10-31T12:54:54Z</time>
      </trkpt>
      <trkpt lat="42.80168" lon="-0.03514">
        <ele>1923.6</ele>
        <time>2023-10-31T12:54:55Z</time>
      </trkpt>
      <trkpt lat="42.80169" lon="-0.03513">
        <ele>1923.4</ele>
        <time>2023-10-31T12:54:56Z</time>
      </trkpt>
      <trkpt lat="42.80168" lon="-0.03512">
        <ele>1923.2</ele>
        <time>2023-10-31T12:54:57Z</time>
      </trkpt>
      <trkpt lat="42.80168" lon="-0.03513">
        <ele>1923.1</ele>
        <time>2023-10-31T12:54:58Z</time>
      </trkpt>
      <trkpt lat="42.80167" lon="-0.03513">
        <ele>1922.9</ele>
        <time>2023-10-31T12:54:59Z</time>
      </trkpt>
      <trkpt lat="42.80166" lon="-0.03514">
        <ele>1922.6</ele>
        <time>2023-10-31T12:55:00Z</time>
      </trkpt>
      <trkpt lat="42.80165" lon="-0.03514">
        <ele>1922.4</ele>
        <time>2023-10-31T12:55:01Z</time>
      </trkpt>
      <trkpt lat="42.80164" lon="-0.03514">
        <ele>1922.3</ele>
        <time>2023-10-31T12:55:02Z</time>
      </trkpt>
      <trkpt lat="42.80164" lon="-0.03515">
        <ele>1922.2</ele>
        <time>2023-10-31T12:55:03Z</time>
      </trkpt>
      <trkpt lat="42.80164" lon="-0.03515">
        <ele>1922.1</ele>
        <time>2023-10-31T12:55:04Z</time>
      </trkpt>
      <trkpt lat="42.80164" lon="-0.03515">
        <ele>1922</ele>
        <time>2023-10-31T12:55:05Z</time>
      </trkpt>
      <trkpt lat="42.80164" lon="-0.03515">
        <ele>1922</ele>
        <time>2023-10-31T12:55:06Z</time>
      </trkpt>
      <trkpt lat="42.80164" lon="-0.03516">
        <ele>1921.9</ele>
        <time>2023-10-31T12:55:07Z</time>
      </trkpt>
      <trkpt lat="42.80164" lon="-0.03515">
        <ele>1921.9</ele>
        <time>2023-10-31T12:55:08Z</time>
      </trkpt>
      <trkpt lat="42.80164" lon="-0.03515">
        <ele>1921.8</ele>
        <time>2023-10-31T12:55:09Z</time>
      </trkpt>
      <trkpt lat="42.80164" lon="-0.03514">
        <ele>1921.7</ele>
        <time>2023-10-31T12:55:10Z</time>
      </trkpt>
      <trkpt lat="42.80164" lon="-0.03514">
        <ele>1921.7</ele>
        <time>2023-10-31T12:55:11Z</time>
      </trkpt>
      <trkpt lat="42.80164" lon="-0.03514">
        <ele>1921.7</ele>
        <time>2023-10-31T12:55:12Z</time>
      </trkpt>
      <trkpt lat="42.80164" lon="-0.03514">
        <ele>1921.7</ele>
        <time>2023-10-31T12:55:13Z</time>
      </trkpt>
      <trkpt lat="42.80164" lon="-0.03514">
        <ele>1921.6</ele>
        <time>2023-10-31T12:55:14Z</time>
      </trkpt>
      <trkpt lat="42.80164" lon="-0.03514">
        <ele>1921.6</ele>
        <time>2023-10-31T12:55:15Z</time>
      </trkpt>
      <trkpt lat="42.80164" lon="-0.03514">
        <ele>1921.6</ele>
        <time>2023-10-31T12:55:16Z</time>
      </trkpt>
      <trkpt lat="42.80164" lon="-0.03514">
        <ele>1921.6</ele>
        <time>2023-10-31T12:55:17Z</time>
      </trkpt>
      <trkpt lat="42.80164" lon="-0.03514">
        <ele>1921.6</ele>
        <time>2023-10-31T12:55:18Z</time>
      </trkpt>
      <trkpt lat="42.80164" lon="-0.03514">
        <ele>1921.6</ele>
        <time>2023-10-31T12:55:19Z</time>
      </trkpt>
      <trkpt lat="42.80164" lon="-0.03514">
        <ele>1921.6</ele>
        <time>2023-10-31T12:55:20Z</time>
      </trkpt>
      <trkpt lat="42.80164" lon="-0.03514">
        <ele>1921.6</ele>
        <time>2023-10-31T12:55:21Z</time>
      </trkpt>
      <trkpt lat="42.80162" lon="-0.03515">
        <ele>1921.3</ele>
        <time>2023-10-31T12:55:22Z</time>
      </trkpt>
      <trkpt lat="42.80162" lon="-0.03515">
        <ele>1921.2</ele>
        <time>2023-10-31T12:55:23Z</time>
      </trkpt>
      <trkpt lat="42.80161" lon="-0.03515">
        <ele>1921.1</ele>
        <time>2023-10-31T12:55:24Z</time>
      </trkpt>
      <trkpt lat="42.80161" lon="-0.03515">
        <ele>1921.1</ele>
        <time>2023-10-31T12:55:25Z</time>
      </trkpt>
      <trkpt lat="42.8016" lon="-0.03516">
        <ele>1920.9</ele>
        <time>2023-10-31T12:55:26Z</time>
      </trkpt>
      <trkpt lat="42.80159" lon="-0.03516">
        <ele>1920.7</ele>
        <time>2023-10-31T12:55:27Z</time>
      </trkpt>
      <trkpt lat="42.80159" lon="-0.03517">
        <ele>1920.7</ele>
        <time>2023-10-31T12:55:28Z</time>
      </trkpt>
      <trkpt lat="42.80159" lon="-0.03517">
        <ele>1920.5</ele>
        <time>2023-10-31T12:55:29Z</time>
      </trkpt>
      <trkpt lat="42.80158" lon="-0.03518">
        <ele>1920.3</ele>
        <time>2023-10-31T12:55:30Z</time>
      </trkpt>
      <trkpt lat="42.80157" lon="-0.03518">
        <ele>1920.3</ele>
        <time>2023-10-31T12:55:31Z</time>
      </trkpt>
      <trkpt lat="42.80157" lon="-0.03519">
        <ele>1920.1</ele>
        <time>2023-10-31T12:55:32Z</time>
      </trkpt>
      <trkpt lat="42.80157" lon="-0.0352">
        <ele>1920.1</ele>
        <time>2023-10-31T12:55:33Z</time>
      </trkpt>
      <trkpt lat="42.80157" lon="-0.03518">
        <ele>1919.9</ele>
        <time>2023-10-31T12:55:34Z</time>
      </trkpt>
      <trkpt lat="42.80156" lon="-0.03519">
        <ele>1919.6</ele>
        <time>2023-10-31T12:55:35Z</time>
      </trkpt>
      <trkpt lat="42.80156" lon="-0.0352">
        <ele>1919.5</ele>
        <time>2023-10-31T12:55:36Z</time>
      </trkpt>
      <trkpt lat="42.80155" lon="-0.03521">
        <ele>1919.4</ele>
        <time>2023-10-31T12:55:37Z</time>
      </trkpt>
      <trkpt lat="42.80155" lon="-0.03521">
        <ele>1919.3</ele>
        <time>2023-10-31T12:55:38Z</time>
      </trkpt>
      <trkpt lat="42.80154" lon="-0.03521">
        <ele>1919.1</ele>
        <time>2023-10-31T12:55:39Z</time>
      </trkpt>
      <trkpt lat="42.80154" lon="-0.03521">
        <ele>1919.1</ele>
        <time>2023-10-31T12:55:40Z</time>
      </trkpt>
      <trkpt lat="42.80154" lon="-0.03521">
        <ele>1919.1</ele>
        <time>2023-10-31T12:55:41Z</time>
      </trkpt>
      <trkpt lat="42.80154" lon="-0.03521">
        <ele>1918.9</ele>
        <time>2023-10-31T12:55:42Z</time>
      </trkpt>
      <trkpt lat="42.80152" lon="-0.0352">
        <ele>1918.7</ele>
        <time>2023-10-31T12:55:43Z</time>
      </trkpt>
      <trkpt lat="42.80152" lon="-0.0352">
        <ele>1918.6</ele>
        <time>2023-10-31T12:55:44Z</time>
      </trkpt>
      <trkpt lat="42.80153" lon="-0.0352">
        <ele>1918.6</ele>
        <time>2023-10-31T12:55:45Z</time>
      </trkpt>
      <trkpt lat="42.80152" lon="-0.0352">
        <ele>1918.5</ele>
        <time>2023-10-31T12:55:46Z</time>
      </trkpt>
      <trkpt lat="42.80152" lon="-0.03519">
        <ele>1918.4</ele>
        <time>2023-10-31T12:55:47Z</time>
      </trkpt>
      <trkpt lat="42.80152" lon="-0.03519">
        <ele>1918.3</ele>
        <time>2023-10-31T12:55:48Z</time>
      </trkpt>
      <trkpt lat="42.80152" lon="-0.03519">
        <ele>1918.3</ele>
        <time>2023-10-31T12:55:49Z</time>
      </trkpt>
      <trkpt lat="42.80152" lon="-0.03518">
        <ele>1918.1</ele>
        <time>2023-10-31T12:55:50Z</time>
      </trkpt>
      <trkpt lat="42.80152" lon="-0.03518">
        <ele>1918.1</ele>
        <time>2023-10-31T12:55:51Z</time>
      </trkpt>
      <trkpt lat="42.80152" lon="-0.03518">
        <ele>1918</ele>
        <time>2023-10-31T12:55:52Z</time>
      </trkpt>
      <trkpt lat="42.80151" lon="-0.03518">
        <ele>1917.9</ele>
        <time>2023-10-31T12:55:53Z</time>
      </trkpt>
      <trkpt lat="42.80151" lon="-0.03518">
        <ele>1917.8</ele>
        <time>2023-10-31T12:55:54Z</time>
      </trkpt>
      <trkpt lat="42.80152" lon="-0.03518">
        <ele>1917.7</ele>
        <time>2023-10-31T12:55:55Z</time>
      </trkpt>
      <trkpt lat="42.80153" lon="-0.03516">
        <ele>1917.2</ele>
        <time>2023-10-31T12:55:56Z</time>
      </trkpt>
      <trkpt lat="42.80152" lon="-0.03516">
        <ele>1917.1</ele>
        <time>2023-10-31T12:55:57Z</time>
      </trkpt>
      <trkpt lat="42.80151" lon="-0.03515">
        <ele>1916.9</ele>
        <time>2023-10-31T12:55:58Z</time>
      </trkpt>
      <trkpt lat="42.80151" lon="-0.03515">
        <ele>1916.7</ele>
        <time>2023-10-31T12:55:59Z</time>
      </trkpt>
      <trkpt lat="42.8015" lon="-0.03515">
        <ele>1916.6</ele>
        <time>2023-10-31T12:56:00Z</time>
      </trkpt>
      <trkpt lat="42.80149" lon="-0.03515">
        <ele>1916.3</ele>
        <time>2023-10-31T12:56:01Z</time>
      </trkpt>
      <trkpt lat="42.80149" lon="-0.03515">
        <ele>1916.2</ele>
        <time>2023-10-31T12:56:02Z</time>
      </trkpt>
      <trkpt lat="42.80149" lon="-0.03514">
        <ele>1916</ele>
        <time>2023-10-31T12:56:03Z</time>
      </trkpt>
      <trkpt lat="42.80148" lon="-0.03514">
        <ele>1915.9</ele>
        <time>2023-10-31T12:56:04Z</time>
      </trkpt>
      <trkpt lat="42.80148" lon="-0.03513">
        <ele>1915.6</ele>
        <time>2023-10-31T12:56:05Z</time>
      </trkpt>
      <trkpt lat="42.80148" lon="-0.03514">
        <ele>1915.5</ele>
        <time>2023-10-31T12:56:07Z</time>
      </trkpt>
      <trkpt lat="42.80147" lon="-0.03515">
        <ele>1915.3</ele>
        <time>2023-10-31T12:56:08Z</time>
      </trkpt>
      <trkpt lat="42.80147" lon="-0.03515">
        <ele>1915.2</ele>
        <time>2023-10-31T12:56:10Z</time>
      </trkpt>
      <trkpt lat="42.80147" lon="-0.03515">
        <ele>1915</ele>
        <time>2023-10-31T12:56:11Z</time>
      </trkpt>
      <trkpt lat="42.80147" lon="-0.03515">
        <ele>1914.9</ele>
        <time>2023-10-31T12:56:13Z</time>
      </trkpt>
      <trkpt lat="42.80147" lon="-0.03514">
        <ele>1914.8</ele>
        <time>2023-10-31T12:56:14Z</time>
      </trkpt>
      <trkpt lat="42.80146" lon="-0.03514">
        <ele>1914.7</ele>
        <time>2023-10-31T12:56:15Z</time>
      </trkpt>
      <trkpt lat="42.80146" lon="-0.03515">
        <ele>1914.5</ele>
        <time>2023-10-31T12:56:17Z</time>
      </trkpt>
      <trkpt lat="42.80146" lon="-0.03515">
        <ele>1914.5</ele>
        <time>2023-10-31T12:56:18Z</time>
      </trkpt>
      <trkpt lat="42.80145" lon="-0.03515">
        <ele>1914.3</ele>
        <time>2023-10-31T12:56:19Z</time>
      </trkpt>
      <trkpt lat="42.80145" lon="-0.03515">
        <ele>1914.2</ele>
        <time>2023-10-31T12:56:20Z</time>
      </trkpt>
      <trkpt lat="42.80145" lon="-0.03515">
        <ele>1914.1</ele>
        <time>2023-10-31T12:56:21Z</time>
      </trkpt>
      <trkpt lat="42.80145" lon="-0.03515">
        <ele>1914</ele>
        <time>2023-10-31T12:56:22Z</time>
      </trkpt>
      <trkpt lat="42.80145" lon="-0.03515">
        <ele>1913.9</ele>
        <time>2023-10-31T12:56:23Z</time>
      </trkpt>
      <trkpt lat="42.80144" lon="-0.03514">
        <ele>1913.5</ele>
        <time>2023-10-31T12:56:24Z</time>
      </trkpt>
      <trkpt lat="42.80143" lon="-0.03514">
        <ele>1913.3</ele>
        <time>2023-10-31T12:56:25Z</time>
      </trkpt>
      <trkpt lat="42.80143" lon="-0.03514">
        <ele>1913</ele>
        <time>2023-10-31T12:56:26Z</time>
      </trkpt>
      <trkpt lat="42.80142" lon="-0.03513">
        <ele>1912.7</ele>
        <time>2023-10-31T12:56:27Z</time>
      </trkpt>
      <trkpt lat="42.80142" lon="-0.03512">
        <ele>1912.5</ele>
        <time>2023-10-31T12:56:28Z</time>
      </trkpt>
      <trkpt lat="42.80141" lon="-0.03511">
        <ele>1912.1</ele>
        <time>2023-10-31T12:56:29Z</time>
      </trkpt>
      <trkpt lat="42.8014" lon="-0.03511">
        <ele>1911.7</ele>
        <time>2023-10-31T12:56:30Z</time>
      </trkpt>
      <trkpt lat="42.80139" lon="-0.03513">
        <ele>1911.1</ele>
        <time>2023-10-31T12:56:31Z</time>
      </trkpt>
      <trkpt lat="42.80138" lon="-0.03513">
        <ele>1910.9</ele>
        <time>2023-10-31T12:56:32Z</time>
      </trkpt>
      <trkpt lat="42.80137" lon="-0.03512">
        <ele>1910.7</ele>
        <time>2023-10-31T12:56:33Z</time>
      </trkpt>
      <trkpt lat="42.80137" lon="-0.03512">
        <ele>1910.5</ele>
        <time>2023-10-31T12:56:34Z</time>
      </trkpt>
      <trkpt lat="42.80136" lon="-0.03512">
        <ele>1910.3</ele>
        <time>2023-10-31T12:56:35Z</time>
      </trkpt>
      <trkpt lat="42.80136" lon="-0.03511">
        <ele>1910</ele>
        <time>2023-10-31T12:56:36Z</time>
      </trkpt>
      <trkpt lat="42.80135" lon="-0.0351">
        <ele>1909.8</ele>
        <time>2023-10-31T12:56:37Z</time>
      </trkpt>
      <trkpt lat="42.80135" lon="-0.0351">
        <ele>1909.8</ele>
        <time>2023-10-31T12:56:38Z</time>
      </trkpt>
      <trkpt lat="42.80134" lon="-0.0351">
        <ele>1909.4</ele>
        <time>2023-10-31T12:56:39Z</time>
      </trkpt>
      <trkpt lat="42.80134" lon="-0.03509">
        <ele>1909.3</ele>
        <time>2023-10-31T12:56:40Z</time>
      </trkpt>
      <trkpt lat="42.80134" lon="-0.03509">
        <ele>1909.2</ele>
        <time>2023-10-31T12:56:41Z</time>
      </trkpt>
      <trkpt lat="42.80134" lon="-0.03509">
        <ele>1909.1</ele>
        <time>2023-10-31T12:56:42Z</time>
      </trkpt>
      <trkpt lat="42.80134" lon="-0.03508">
        <ele>1909</ele>
        <time>2023-10-31T12:56:43Z</time>
      </trkpt>
      <trkpt lat="42.80133" lon="-0.03508">
        <ele>1908.8</ele>
        <time>2023-10-31T12:56:44Z</time>
      </trkpt>
      <trkpt lat="42.80132" lon="-0.03507">
        <ele>1908.6</ele>
        <time>2023-10-31T12:56:45Z</time>
      </trkpt>
      <trkpt lat="42.80131" lon="-0.03507">
        <ele>1908.2</ele>
        <time>2023-10-31T12:56:46Z</time>
      </trkpt>
      <trkpt lat="42.8013" lon="-0.03507">
        <ele>1908</ele>
        <time>2023-10-31T12:56:47Z</time>
      </trkpt>
      <trkpt lat="42.80129" lon="-0.03507">
        <ele>1907.8</ele>
        <time>2023-10-31T12:56:48Z</time>
      </trkpt>
      <trkpt lat="42.80129" lon="-0.03507">
        <ele>1907.6</ele>
        <time>2023-10-31T12:56:49Z</time>
      </trkpt>
      <trkpt lat="42.80128" lon="-0.03507">
        <ele>1907.4</ele>
        <time>2023-10-31T12:56:50Z</time>
      </trkpt>
      <trkpt lat="42.80127" lon="-0.03508">
        <ele>1907.1</ele>
        <time>2023-10-31T12:56:51Z</time>
      </trkpt>
      <trkpt lat="42.80126" lon="-0.0351">
        <ele>1906.8</ele>
        <time>2023-10-31T12:56:52Z</time>
      </trkpt>
      <trkpt lat="42.80125" lon="-0.03511">
        <ele>1906.6</ele>
        <time>2023-10-31T12:56:53Z</time>
      </trkpt>
      <trkpt lat="42.80124" lon="-0.03512">
        <ele>1906.4</ele>
        <time>2023-10-31T12:56:54Z</time>
      </trkpt>
      <trkpt lat="42.80123" lon="-0.03513">
        <ele>1906.3</ele>
        <time>2023-10-31T12:56:55Z</time>
      </trkpt>
      <trkpt lat="42.80122" lon="-0.03513">
        <ele>1906.1</ele>
        <time>2023-10-31T12:56:56Z</time>
      </trkpt>
      <trkpt lat="42.80121" lon="-0.03514">
        <ele>1906</ele>
        <time>2023-10-31T12:56:57Z</time>
      </trkpt>
      <trkpt lat="42.8012" lon="-0.03514">
        <ele>1905.8</ele>
        <time>2023-10-31T12:56:58Z</time>
      </trkpt>
      <trkpt lat="42.80119" lon="-0.03516">
        <ele>1905.7</ele>
        <time>2023-10-31T12:56:59Z</time>
      </trkpt>
      <trkpt lat="42.80118" lon="-0.03516">
        <ele>1905.6</ele>
        <time>2023-10-31T12:57:00Z</time>
      </trkpt>
      <trkpt lat="42.80118" lon="-0.03516">
        <ele>1905.5</ele>
        <time>2023-10-31T12:57:01Z</time>
      </trkpt>
      <trkpt lat="42.80118" lon="-0.03517">
        <ele>1905.5</ele>
        <time>2023-10-31T12:57:02Z</time>
      </trkpt>
      <trkpt lat="42.80118" lon="-0.03517">
        <ele>1905.5</ele>
        <time>2023-10-31T12:57:03Z</time>
      </trkpt>
      <trkpt lat="42.80118" lon="-0.03517">
        <ele>1905.5</ele>
        <time>2023-10-31T12:57:04Z</time>
      </trkpt>
      <trkpt lat="42.80118" lon="-0.03517">
        <ele>1905.4</ele>
        <time>2023-10-31T12:57:05Z</time>
      </trkpt>
      <trkpt lat="42.80118" lon="-0.03517">
        <ele>1905.4</ele>
        <time>2023-10-31T12:57:06Z</time>
      </trkpt>
      <trkpt lat="42.80117" lon="-0.03517">
        <ele>1905.4</ele>
        <time>2023-10-31T12:57:07Z</time>
      </trkpt>
      <trkpt lat="42.80115" lon="-0.03517">
        <ele>1905.2</ele>
        <time>2023-10-31T12:57:08Z</time>
      </trkpt>
      <trkpt lat="42.80115" lon="-0.03517">
        <ele>1905.1</ele>
        <time>2023-10-31T12:57:09Z</time>
      </trkpt>
      <trkpt lat="42.80114" lon="-0.03516">
        <ele>1905</ele>
        <time>2023-10-31T12:57:10Z</time>
      </trkpt>
      <trkpt lat="42.80113" lon="-0.03516">
        <ele>1904.9</ele>
        <time>2023-10-31T12:57:11Z</time>
      </trkpt>
      <trkpt lat="42.80112" lon="-0.03514">
        <ele>1904.8</ele>
        <time>2023-10-31T12:57:12Z</time>
      </trkpt>
      <trkpt lat="42.80111" lon="-0.03513">
        <ele>1904.7</ele>
        <time>2023-10-31T12:57:13Z</time>
      </trkpt>
      <trkpt lat="42.80111" lon="-0.03513">
        <ele>1904.7</ele>
        <time>2023-10-31T12:57:14Z</time>
      </trkpt>
      <trkpt lat="42.80111" lon="-0.03512">
        <ele>1904.6</ele>
        <time>2023-10-31T12:57:15Z</time>
      </trkpt>
      <trkpt lat="42.8011" lon="-0.03511">
        <ele>1904.5</ele>
        <time>2023-10-31T12:57:16Z</time>
      </trkpt>
      <trkpt lat="42.8011" lon="-0.0351">
        <ele>1904.5</ele>
        <time>2023-10-31T12:57:17Z</time>
      </trkpt>
      <trkpt lat="42.80108" lon="-0.0351">
        <ele>1904.3</ele>
        <time>2023-10-31T12:57:18Z</time>
      </trkpt>
      <trkpt lat="42.80108" lon="-0.03509">
        <ele>1904.3</ele>
        <time>2023-10-31T12:57:19Z</time>
      </trkpt>
      <trkpt lat="42.80107" lon="-0.03509">
        <ele>1904.1</ele>
        <time>2023-10-31T12:57:20Z</time>
      </trkpt>
      <trkpt lat="42.80106" lon="-0.03509">
        <ele>1904</ele>
        <time>2023-10-31T12:57:21Z</time>
      </trkpt>
      <trkpt lat="42.80104" lon="-0.03508">
        <ele>1903.9</ele>
        <time>2023-10-31T12:57:22Z</time>
      </trkpt>
      <trkpt lat="42.80103" lon="-0.03509">
        <ele>1903.8</ele>
        <time>2023-10-31T12:57:23Z</time>
      </trkpt>
      <trkpt lat="42.80102" lon="-0.03509">
        <ele>1903.6</ele>
        <time>2023-10-31T12:57:24Z</time>
      </trkpt>
      <trkpt lat="42.80102" lon="-0.03509">
        <ele>1903.6</ele>
        <time>2023-10-31T12:57:25Z</time>
      </trkpt>
      <trkpt lat="42.80102" lon="-0.03509">
        <ele>1903.5</ele>
        <time>2023-10-31T12:57:26Z</time>
      </trkpt>
      <trkpt lat="42.80102" lon="-0.03509">
        <ele>1903.5</ele>
        <time>2023-10-31T12:57:27Z</time>
      </trkpt>
      <trkpt lat="42.80102" lon="-0.03509">
        <ele>1903.5</ele>
        <time>2023-10-31T12:57:28Z</time>
      </trkpt>
      <trkpt lat="42.80101" lon="-0.03508">
        <ele>1903.4</ele>
        <time>2023-10-31T12:57:29Z</time>
      </trkpt>
      <trkpt lat="42.801" lon="-0.03509">
        <ele>1903.3</ele>
        <time>2023-10-31T12:57:30Z</time>
      </trkpt>
      <trkpt lat="42.80101" lon="-0.03507">
        <ele>1903.2</ele>
        <time>2023-10-31T12:57:31Z</time>
      </trkpt>
      <trkpt lat="42.801" lon="-0.03506">
        <ele>1902.9</ele>
        <time>2023-10-31T12:57:32Z</time>
      </trkpt>
      <trkpt lat="42.80099" lon="-0.03505">
        <ele>1902.8</ele>
        <time>2023-10-31T12:57:33Z</time>
      </trkpt>
      <trkpt lat="42.80098" lon="-0.03505">
        <ele>1902.7</ele>
        <time>2023-10-31T12:57:34Z</time>
      </trkpt>
      <trkpt lat="42.80098" lon="-0.03505">
        <ele>1902.6</ele>
        <time>2023-10-31T12:57:35Z</time>
      </trkpt>
      <trkpt lat="42.80097" lon="-0.03505">
        <ele>1902.5</ele>
        <time>2023-10-31T12:57:36Z</time>
      </trkpt>
      <trkpt lat="42.80096" lon="-0.03505">
        <ele>1902.3</ele>
        <time>2023-10-31T12:57:37Z</time>
      </trkpt>
      <trkpt lat="42.80095" lon="-0.03505">
        <ele>1902.2</ele>
        <time>2023-10-31T12:57:38Z</time>
      </trkpt>
      <trkpt lat="42.80094" lon="-0.03505">
        <ele>1902.1</ele>
        <time>2023-10-31T12:57:39Z</time>
      </trkpt>
      <trkpt lat="42.80093" lon="-0.03505">
        <ele>1901.9</ele>
        <time>2023-10-31T12:57:40Z</time>
      </trkpt>
      <trkpt lat="42.80093" lon="-0.03504">
        <ele>1901.8</ele>
        <time>2023-10-31T12:57:41Z</time>
      </trkpt>
      <trkpt lat="42.80092" lon="-0.03504">
        <ele>1901.7</ele>
        <time>2023-10-31T12:57:42Z</time>
      </trkpt>
      <trkpt lat="42.80091" lon="-0.03505">
        <ele>1901.5</ele>
        <time>2023-10-31T12:57:43Z</time>
      </trkpt>
      <trkpt lat="42.80091" lon="-0.03505">
        <ele>1901.5</ele>
        <time>2023-10-31T12:57:44Z</time>
      </trkpt>
      <trkpt lat="42.80091" lon="-0.03505">
        <ele>1901.4</ele>
        <time>2023-10-31T12:57:45Z</time>
      </trkpt>
      <trkpt lat="42.80091" lon="-0.03505">
        <ele>1901.4</ele>
        <time>2023-10-31T12:57:46Z</time>
      </trkpt>
      <trkpt lat="42.8009" lon="-0.03503">
        <ele>1901.1</ele>
        <time>2023-10-31T12:57:47Z</time>
      </trkpt>
      <trkpt lat="42.80089" lon="-0.03503">
        <ele>1901</ele>
        <time>2023-10-31T12:57:48Z</time>
      </trkpt>
      <trkpt lat="42.80089" lon="-0.03503">
        <ele>1900.9</ele>
        <time>2023-10-31T12:57:49Z</time>
      </trkpt>
      <trkpt lat="42.80089" lon="-0.03502">
        <ele>1900.9</ele>
        <time>2023-10-31T12:57:50Z</time>
      </trkpt>
      <trkpt lat="42.80088" lon="-0.03502">
        <ele>1900.7</ele>
        <time>2023-10-31T12:57:51Z</time>
      </trkpt>
      <trkpt lat="42.80089" lon="-0.03503">
        <ele>1900.7</ele>
        <time>2023-10-31T12:57:52Z</time>
      </trkpt>
      <trkpt lat="42.80088" lon="-0.03502">
        <ele>1900.5</ele>
        <time>2023-10-31T12:57:53Z</time>
      </trkpt>
      <trkpt lat="42.80088" lon="-0.03501">
        <ele>1900.4</ele>
        <time>2023-10-31T12:57:54Z</time>
      </trkpt>
      <trkpt lat="42.80087" lon="-0.035">
        <ele>1900.2</ele>
        <time>2023-10-31T12:57:55Z</time>
      </trkpt>
      <trkpt lat="42.80086" lon="-0.035">
        <ele>1900</ele>
        <time>2023-10-31T12:57:56Z</time>
      </trkpt>
      <trkpt lat="42.80085" lon="-0.035">
        <ele>1899.7</ele>
        <time>2023-10-31T12:57:57Z</time>
      </trkpt>
      <trkpt lat="42.80085" lon="-0.03501">
        <ele>1899.6</ele>
        <time>2023-10-31T12:57:58Z</time>
      </trkpt>
      <trkpt lat="42.80084" lon="-0.03501">
        <ele>1899.4</ele>
        <time>2023-10-31T12:57:59Z</time>
      </trkpt>
      <trkpt lat="42.80082" lon="-0.03501">
        <ele>1899</ele>
        <time>2023-10-31T12:58:00Z</time>
      </trkpt>
      <trkpt lat="42.80081" lon="-0.035">
        <ele>1898.7</ele>
        <time>2023-10-31T12:58:01Z</time>
      </trkpt>
      <trkpt lat="42.8008" lon="-0.03499">
        <ele>1898.5</ele>
        <time>2023-10-31T12:58:02Z</time>
      </trkpt>
      <trkpt lat="42.8008" lon="-0.03499">
        <ele>1898.4</ele>
        <time>2023-10-31T12:58:03Z</time>
      </trkpt>
      <trkpt lat="42.80079" lon="-0.03499">
        <ele>1898.2</ele>
        <time>2023-10-31T12:58:04Z</time>
      </trkpt>
      <trkpt lat="42.80078" lon="-0.03498">
        <ele>1898</ele>
        <time>2023-10-31T12:58:05Z</time>
      </trkpt>
      <trkpt lat="42.80077" lon="-0.03497">
        <ele>1897.7</ele>
        <time>2023-10-31T12:58:06Z</time>
      </trkpt>
      <trkpt lat="42.80076" lon="-0.03497">
        <ele>1897.6</ele>
        <time>2023-10-31T12:58:07Z</time>
      </trkpt>
      <trkpt lat="42.80075" lon="-0.03497">
        <ele>1897.4</ele>
        <time>2023-10-31T12:58:08Z</time>
      </trkpt>
      <trkpt lat="42.80075" lon="-0.03496">
        <ele>1897.2</ele>
        <time>2023-10-31T12:58:09Z</time>
      </trkpt>
      <trkpt lat="42.80074" lon="-0.03495">
        <ele>1897</ele>
        <time>2023-10-31T12:58:10Z</time>
      </trkpt>
      <trkpt lat="42.80073" lon="-0.03495">
        <ele>1896.7</ele>
        <time>2023-10-31T12:58:11Z</time>
      </trkpt>
      <trkpt lat="42.80073" lon="-0.03495">
        <ele>1896.7</ele>
        <time>2023-10-31T12:58:12Z</time>
      </trkpt>
      <trkpt lat="42.80072" lon="-0.03495">
        <ele>1896.5</ele>
        <time>2023-10-31T12:58:13Z</time>
      </trkpt>
      <trkpt lat="42.80071" lon="-0.03494">
        <ele>1896.2</ele>
        <time>2023-10-31T12:58:14Z</time>
      </trkpt>
      <trkpt lat="42.8007" lon="-0.03493">
        <ele>1895.9</ele>
        <time>2023-10-31T12:58:15Z</time>
      </trkpt>
      <trkpt lat="42.80069" lon="-0.03493">
        <ele>1895.6</ele>
        <time>2023-10-31T12:58:16Z</time>
      </trkpt>
      <trkpt lat="42.80068" lon="-0.03492">
        <ele>1895.5</ele>
        <time>2023-10-31T12:58:17Z</time>
      </trkpt>
      <trkpt lat="42.80067" lon="-0.03493">
        <ele>1895.3</ele>
        <time>2023-10-31T12:58:18Z</time>
      </trkpt>
      <trkpt lat="42.80065" lon="-0.03492">
        <ele>1894.9</ele>
        <time>2023-10-31T12:58:19Z</time>
      </trkpt>
      <trkpt lat="42.80064" lon="-0.03492">
        <ele>1894.7</ele>
        <time>2023-10-31T12:58:20Z</time>
      </trkpt>
      <trkpt lat="42.80063" lon="-0.03492">
        <ele>1894.5</ele>
        <time>2023-10-31T12:58:21Z</time>
      </trkpt>
      <trkpt lat="42.80062" lon="-0.03493">
        <ele>1894.3</ele>
        <time>2023-10-31T12:58:22Z</time>
      </trkpt>
      <trkpt lat="42.80061" lon="-0.03492">
        <ele>1894.2</ele>
        <time>2023-10-31T12:58:23Z</time>
      </trkpt>
      <trkpt lat="42.8006" lon="-0.03492">
        <ele>1893.9</ele>
        <time>2023-10-31T12:58:24Z</time>
      </trkpt>
      <trkpt lat="42.80058" lon="-0.03492">
        <ele>1893.7</ele>
        <time>2023-10-31T12:58:25Z</time>
      </trkpt>
      <trkpt lat="42.80057" lon="-0.03491">
        <ele>1893.4</ele>
        <time>2023-10-31T12:58:26Z</time>
      </trkpt>
      <trkpt lat="42.80056" lon="-0.0349">
        <ele>1893.2</ele>
        <time>2023-10-31T12:58:27Z</time>
      </trkpt>
      <trkpt lat="42.80055" lon="-0.0349">
        <ele>1893</ele>
        <time>2023-10-31T12:58:28Z</time>
      </trkpt>
      <trkpt lat="42.80054" lon="-0.03489">
        <ele>1892.8</ele>
        <time>2023-10-31T12:58:29Z</time>
      </trkpt>
      <trkpt lat="42.80052" lon="-0.03487">
        <ele>1892.5</ele>
        <time>2023-10-31T12:58:30Z</time>
      </trkpt>
      <trkpt lat="42.80052" lon="-0.03486">
        <ele>1892.3</ele>
        <time>2023-10-31T12:58:31Z</time>
      </trkpt>
      <trkpt lat="42.80051" lon="-0.03485">
        <ele>1892.2</ele>
        <time>2023-10-31T12:58:32Z</time>
      </trkpt>
      <trkpt lat="42.80049" lon="-0.03483">
        <ele>1891.8</ele>
        <time>2023-10-31T12:58:33Z</time>
      </trkpt>
      <trkpt lat="42.80049" lon="-0.03483">
        <ele>1891.7</ele>
        <time>2023-10-31T12:58:34Z</time>
      </trkpt>
      <trkpt lat="42.80048" lon="-0.03482">
        <ele>1891.5</ele>
        <time>2023-10-31T12:58:35Z</time>
      </trkpt>
      <trkpt lat="42.80048" lon="-0.03482">
        <ele>1891.5</ele>
        <time>2023-10-31T12:58:36Z</time>
      </trkpt>
      <trkpt lat="42.80047" lon="-0.03481">
        <ele>1891.3</ele>
        <time>2023-10-31T12:58:37Z</time>
      </trkpt>
      <trkpt lat="42.80046" lon="-0.0348">
        <ele>1891.1</ele>
        <time>2023-10-31T12:58:38Z</time>
      </trkpt>
      <trkpt lat="42.80046" lon="-0.03479">
        <ele>1891</ele>
        <time>2023-10-31T12:58:39Z</time>
      </trkpt>
      <trkpt lat="42.80045" lon="-0.03479">
        <ele>1890.9</ele>
        <time>2023-10-31T12:58:40Z</time>
      </trkpt>
      <trkpt lat="42.80045" lon="-0.03478">
        <ele>1890.8</ele>
        <time>2023-10-31T12:58:41Z</time>
      </trkpt>
      <trkpt lat="42.80044" lon="-0.03477">
        <ele>1890.6</ele>
        <time>2023-10-31T12:58:42Z</time>
      </trkpt>
      <trkpt lat="42.80044" lon="-0.03477">
        <ele>1890.5</ele>
        <time>2023-10-31T12:58:43Z</time>
      </trkpt>
      <trkpt lat="42.80042" lon="-0.03476">
        <ele>1890.2</ele>
        <time>2023-10-31T12:58:44Z</time>
      </trkpt>
      <trkpt lat="42.80041" lon="-0.03476">
        <ele>1890.1</ele>
        <time>2023-10-31T12:58:45Z</time>
      </trkpt>
      <trkpt lat="42.80041" lon="-0.03476">
        <ele>1890</ele>
        <time>2023-10-31T12:58:46Z</time>
      </trkpt>
      <trkpt lat="42.80042" lon="-0.03475">
        <ele>1889.9</ele>
        <time>2023-10-31T12:58:47Z</time>
      </trkpt>
      <trkpt lat="42.80042" lon="-0.03475">
        <ele>1889.9</ele>
        <time>2023-10-31T12:58:48Z</time>
      </trkpt>
      <trkpt lat="42.80042" lon="-0.03475">
        <ele>1889.9</ele>
        <time>2023-10-31T12:58:49Z</time>
      </trkpt>
      <trkpt lat="42.80042" lon="-0.03474">
        <ele>1889.8</ele>
        <time>2023-10-31T12:58:50Z</time>
      </trkpt>
      <trkpt lat="42.80042" lon="-0.03474">
        <ele>1889.8</ele>
        <time>2023-10-31T12:58:51Z</time>
      </trkpt>
      <trkpt lat="42.80042" lon="-0.03474">
        <ele>1889.7</ele>
        <time>2023-10-31T12:58:52Z</time>
      </trkpt>
      <trkpt lat="42.80041" lon="-0.03475">
        <ele>1889.7</ele>
        <time>2023-10-31T12:58:53Z</time>
      </trkpt>
      <trkpt lat="42.80041" lon="-0.03475">
        <ele>1889.6</ele>
        <time>2023-10-31T12:58:54Z</time>
      </trkpt>
      <trkpt lat="42.80041" lon="-0.03475">
        <ele>1889.6</ele>
        <time>2023-10-31T12:58:55Z</time>
      </trkpt>
      <trkpt lat="42.80041" lon="-0.03475">
        <ele>1889.6</ele>
        <time>2023-10-31T12:58:56Z</time>
      </trkpt>
      <trkpt lat="42.80041" lon="-0.03475">
        <ele>1889.6</ele>
        <time>2023-10-31T12:58:57Z</time>
      </trkpt>
      <trkpt lat="42.80041" lon="-0.03475">
        <ele>1889.5</ele>
        <time>2023-10-31T12:58:58Z</time>
      </trkpt>
      <trkpt lat="42.80042" lon="-0.03475">
        <ele>1889.5</ele>
        <time>2023-10-31T12:58:59Z</time>
      </trkpt>
      <trkpt lat="42.80042" lon="-0.03475">
        <ele>1889.4</ele>
        <time>2023-10-31T12:59:00Z</time>
      </trkpt>
      <trkpt lat="42.80041" lon="-0.03475">
        <ele>1889.3</ele>
        <time>2023-10-31T12:59:01Z</time>
      </trkpt>
      <trkpt lat="42.80041" lon="-0.03475">
        <ele>1889.3</ele>
        <time>2023-10-31T12:59:02Z</time>
      </trkpt>
      <trkpt lat="42.80041" lon="-0.03475">
        <ele>1889.3</ele>
        <time>2023-10-31T12:59:03Z</time>
      </trkpt>
      <trkpt lat="42.80041" lon="-0.03475">
        <ele>1889.2</ele>
        <time>2023-10-31T12:59:04Z</time>
      </trkpt>
      <trkpt lat="42.80041" lon="-0.03475">
        <ele>1889.2</ele>
        <time>2023-10-31T12:59:05Z</time>
      </trkpt>
      <trkpt lat="42.80042" lon="-0.03475">
        <ele>1889.1</ele>
        <time>2023-10-31T12:59:06Z</time>
      </trkpt>
      <trkpt lat="42.80042" lon="-0.03475">
        <ele>1889.1</ele>
        <time>2023-10-31T12:59:07Z</time>
      </trkpt>
      <trkpt lat="42.80042" lon="-0.03475">
        <ele>1889.1</ele>
        <time>2023-10-31T12:59:08Z</time>
      </trkpt>
      <trkpt lat="42.80042" lon="-0.03475">
        <ele>1889.1</ele>
        <time>2023-10-31T12:59:09Z</time>
      </trkpt>
      <trkpt lat="42.80042" lon="-0.03475">
        <ele>1889.1</ele>
        <time>2023-10-31T12:59:10Z</time>
      </trkpt>
      <trkpt lat="42.80042" lon="-0.03475">
        <ele>1889.1</ele>
        <time>2023-10-31T12:59:11Z</time>
      </trkpt>
      <trkpt lat="42.80042" lon="-0.03475">
        <ele>1889.1</ele>
        <time>2023-10-31T12:59:12Z</time>
      </trkpt>
      <trkpt lat="42.80042" lon="-0.03475">
        <ele>1889.1</ele>
        <time>2023-10-31T12:59:13Z</time>
      </trkpt>
      <trkpt lat="42.80042" lon="-0.03475">
        <ele>1889.1</ele>
        <time>2023-10-31T12:59:14Z</time>
      </trkpt>
      <trkpt lat="42.80042" lon="-0.03475">
        <ele>1889.1</ele>
        <time>2023-10-31T12:59:15Z</time>
      </trkpt>
      <trkpt lat="42.80042" lon="-0.03475">
        <ele>1889.1</ele>
        <time>2023-10-31T12:59:16Z</time>
      </trkpt>
      <trkpt lat="42.80042" lon="-0.03475">
        <ele>1889.1</ele>
        <time>2023-10-31T12:59:17Z</time>
      </trkpt>
      <trkpt lat="42.80042" lon="-0.03475">
        <ele>1889.1</ele>
        <time>2023-10-31T12:59:18Z</time>
      </trkpt>
      <trkpt lat="42.80042" lon="-0.03475">
        <ele>1889.1</ele>
        <time>2023-10-31T12:59:19Z</time>
      </trkpt>
      <trkpt lat="42.80042" lon="-0.03475">
        <ele>1889.1</ele>
        <time>2023-10-31T12:59:20Z</time>
      </trkpt>
      <trkpt lat="42.80042" lon="-0.03475">
        <ele>1889.1</ele>
        <time>2023-10-31T12:59:21Z</time>
      </trkpt>
      <trkpt lat="42.80042" lon="-0.03475">
        <ele>1889.1</ele>
        <time>2023-10-31T12:59:22Z</time>
      </trkpt>
      <trkpt lat="42.80042" lon="-0.03475">
        <ele>1889</ele>
        <time>2023-10-31T12:59:23Z</time>
      </trkpt>
      <trkpt lat="42.80042" lon="-0.03475">
        <ele>1889</ele>
        <time>2023-10-31T12:59:24Z</time>
      </trkpt>
      <trkpt lat="42.80042" lon="-0.03475">
        <ele>1889</ele>
        <time>2023-10-31T12:59:25Z</time>
      </trkpt>
      <trkpt lat="42.80042" lon="-0.03474">
        <ele>1888.8</ele>
        <time>2023-10-31T12:59:26Z</time>
      </trkpt>
      <trkpt lat="42.80041" lon="-0.03473">
        <ele>1888.6</ele>
        <time>2023-10-31T12:59:27Z</time>
      </trkpt>
      <trkpt lat="42.80041" lon="-0.03472">
        <ele>1888.5</ele>
        <time>2023-10-31T12:59:28Z</time>
      </trkpt>
      <trkpt lat="42.8004" lon="-0.03472">
        <ele>1888.2</ele>
        <time>2023-10-31T12:59:29Z</time>
      </trkpt>
      <trkpt lat="42.80039" lon="-0.03471">
        <ele>1888.1</ele>
        <time>2023-10-31T12:59:30Z</time>
      </trkpt>
      <trkpt lat="42.80038" lon="-0.03471">
        <ele>1888</ele>
        <time>2023-10-31T12:59:31Z</time>
      </trkpt>
      <trkpt lat="42.80038" lon="-0.0347">
        <ele>1887.9</ele>
        <time>2023-10-31T12:59:32Z</time>
      </trkpt>
      <trkpt lat="42.80037" lon="-0.0347">
        <ele>1887.7</ele>
        <time>2023-10-31T12:59:33Z</time>
      </trkpt>
      <trkpt lat="42.80037" lon="-0.03469">
        <ele>1887.6</ele>
        <time>2023-10-31T12:59:34Z</time>
      </trkpt>
      <trkpt lat="42.80037" lon="-0.03468">
        <ele>1887.5</ele>
        <time>2023-10-31T12:59:35Z</time>
      </trkpt>
      <trkpt lat="42.80036" lon="-0.03468">
        <ele>1887.4</ele>
        <time>2023-10-31T12:59:36Z</time>
      </trkpt>
      <trkpt lat="42.80036" lon="-0.03467">
        <ele>1887.2</ele>
        <time>2023-10-31T12:59:37Z</time>
      </trkpt>
      <trkpt lat="42.80037" lon="-0.03466">
        <ele>1887.1</ele>
        <time>2023-10-31T12:59:38Z</time>
      </trkpt>
      <trkpt lat="42.80038" lon="-0.03466">
        <ele>1886.9</ele>
        <time>2023-10-31T12:59:39Z</time>
      </trkpt>
      <trkpt lat="42.80039" lon="-0.03466">
        <ele>1886.7</ele>
        <time>2023-10-31T12:59:40Z</time>
      </trkpt>
      <trkpt lat="42.8004" lon="-0.03467">
        <ele>1886.4</ele>
        <time>2023-10-31T12:59:41Z</time>
      </trkpt>
      <trkpt lat="42.80041" lon="-0.03467">
        <ele>1886.2</ele>
        <time>2023-10-31T12:59:42Z</time>
      </trkpt>
      <trkpt lat="42.80041" lon="-0.03468">
        <ele>1886.1</ele>
        <time>2023-10-31T12:59:43Z</time>
      </trkpt>
      <trkpt lat="42.80043" lon="-0.03468">
        <ele>1885.8</ele>
        <time>2023-10-31T12:59:44Z</time>
      </trkpt>
      <trkpt lat="42.80044" lon="-0.03468">
        <ele>1885.5</ele>
        <time>2023-10-31T12:59:45Z</time>
      </trkpt>
      <trkpt lat="42.80046" lon="-0.03468">
        <ele>1885.2</ele>
        <time>2023-10-31T12:59:46Z</time>
      </trkpt>
      <trkpt lat="42.80046" lon="-0.03468">
        <ele>1885.1</ele>
        <time>2023-10-31T12:59:47Z</time>
      </trkpt>
      <trkpt lat="42.80047" lon="-0.03468">
        <ele>1884.9</ele>
        <time>2023-10-31T12:59:48Z</time>
      </trkpt>
      <trkpt lat="42.80048" lon="-0.03468">
        <ele>1884.8</ele>
        <time>2023-10-31T12:59:49Z</time>
      </trkpt>
      <trkpt lat="42.8005" lon="-0.03467">
        <ele>1884.4</ele>
        <time>2023-10-31T12:59:50Z</time>
      </trkpt>
      <trkpt lat="42.80051" lon="-0.03467">
        <ele>1884.3</ele>
        <time>2023-10-31T12:59:51Z</time>
      </trkpt>
      <trkpt lat="42.80051" lon="-0.03467">
        <ele>1884.1</ele>
        <time>2023-10-31T12:59:52Z</time>
      </trkpt>
      <trkpt lat="42.80053" lon="-0.03467">
        <ele>1883.9</ele>
        <time>2023-10-31T12:59:53Z</time>
      </trkpt>
      <trkpt lat="42.80054" lon="-0.03468">
        <ele>1883.6</ele>
        <time>2023-10-31T12:59:54Z</time>
      </trkpt>
      <trkpt lat="42.80055" lon="-0.03469">
        <ele>1883.4</ele>
        <time>2023-10-31T12:59:55Z</time>
      </trkpt>
      <trkpt lat="42.80056" lon="-0.03469">
        <ele>1883.3</ele>
        <time>2023-10-31T12:59:56Z</time>
      </trkpt>
      <trkpt lat="42.80057" lon="-0.03469">
        <ele>1883.1</ele>
        <time>2023-10-31T12:59:57Z</time>
      </trkpt>
      <trkpt lat="42.80059" lon="-0.03469">
        <ele>1882.7</ele>
        <time>2023-10-31T12:59:58Z</time>
      </trkpt>
      <trkpt lat="42.8006" lon="-0.03468">
        <ele>1882.5</ele>
        <time>2023-10-31T12:59:59Z</time>
      </trkpt>
      <trkpt lat="42.80062" lon="-0.03468">
        <ele>1882.3</ele>
        <time>2023-10-31T13:00:00Z</time>
      </trkpt>
      <trkpt lat="42.80062" lon="-0.03468">
        <ele>1882.2</ele>
        <time>2023-10-31T13:00:01Z</time>
      </trkpt>
      <trkpt lat="42.80063" lon="-0.03467">
        <ele>1882</ele>
        <time>2023-10-31T13:00:02Z</time>
      </trkpt>
      <trkpt lat="42.80064" lon="-0.03466">
        <ele>1881.9</ele>
        <time>2023-10-31T13:00:03Z</time>
      </trkpt>
      <trkpt lat="42.80064" lon="-0.03465">
        <ele>1881.8</ele>
        <time>2023-10-31T13:00:04Z</time>
      </trkpt>
      <trkpt lat="42.80065" lon="-0.03465">
        <ele>1881.6</ele>
        <time>2023-10-31T13:00:05Z</time>
      </trkpt>
      <trkpt lat="42.80066" lon="-0.03465">
        <ele>1881.5</ele>
        <time>2023-10-31T13:00:06Z</time>
      </trkpt>
      <trkpt lat="42.80067" lon="-0.03465">
        <ele>1881.2</ele>
        <time>2023-10-31T13:00:07Z</time>
      </trkpt>
      <trkpt lat="42.80068" lon="-0.03464">
        <ele>1881.1</ele>
        <time>2023-10-31T13:00:08Z</time>
      </trkpt>
      <trkpt lat="42.80069" lon="-0.03464">
        <ele>1880.9</ele>
        <time>2023-10-31T13:00:09Z</time>
      </trkpt>
      <trkpt lat="42.80071" lon="-0.03464">
        <ele>1880.7</ele>
        <time>2023-10-31T13:00:10Z</time>
      </trkpt>
      <trkpt lat="42.80072" lon="-0.03464">
        <ele>1880.6</ele>
        <time>2023-10-31T13:00:11Z</time>
      </trkpt>
      <trkpt lat="42.80072" lon="-0.03463">
        <ele>1880.5</ele>
        <time>2023-10-31T13:00:12Z</time>
      </trkpt>
      <trkpt lat="42.80073" lon="-0.03462">
        <ele>1880.3</ele>
        <time>2023-10-31T13:00:13Z</time>
      </trkpt>
      <trkpt lat="42.80075" lon="-0.03462">
        <ele>1880.1</ele>
        <time>2023-10-31T13:00:14Z</time>
      </trkpt>
      <trkpt lat="42.80076" lon="-0.03462">
        <ele>1880</ele>
        <time>2023-10-31T13:00:15Z</time>
      </trkpt>
      <trkpt lat="42.80076" lon="-0.03462">
        <ele>1879.9</ele>
        <time>2023-10-31T13:00:16Z</time>
      </trkpt>
      <trkpt lat="42.80077" lon="-0.03461">
        <ele>1879.8</ele>
        <time>2023-10-31T13:00:17Z</time>
      </trkpt>
      <trkpt lat="42.80077" lon="-0.03461">
        <ele>1879.7</ele>
        <time>2023-10-31T13:00:19Z</time>
      </trkpt>
      <trkpt lat="42.80078" lon="-0.03461">
        <ele>1879.6</ele>
        <time>2023-10-31T13:00:20Z</time>
      </trkpt>
      <trkpt lat="42.80079" lon="-0.03461">
        <ele>1879.5</ele>
        <time>2023-10-31T13:00:21Z</time>
      </trkpt>
      <trkpt lat="42.80079" lon="-0.03461">
        <ele>1879.4</ele>
        <time>2023-10-31T13:00:22Z</time>
      </trkpt>
      <trkpt lat="42.8008" lon="-0.03461">
        <ele>1879.4</ele>
        <time>2023-10-31T13:00:23Z</time>
      </trkpt>
      <trkpt lat="42.80081" lon="-0.0346">
        <ele>1879.2</ele>
        <time>2023-10-31T13:00:24Z</time>
      </trkpt>
      <trkpt lat="42.80081" lon="-0.03459">
        <ele>1879.1</ele>
        <time>2023-10-31T13:00:25Z</time>
      </trkpt>
      <trkpt lat="42.80082" lon="-0.03457">
        <ele>1878.9</ele>
        <time>2023-10-31T13:00:26Z</time>
      </trkpt>
      <trkpt lat="42.80083" lon="-0.03457">
        <ele>1878.8</ele>
        <time>2023-10-31T13:00:28Z</time>
      </trkpt>
      <trkpt lat="42.80084" lon="-0.03455">
        <ele>1878.5</ele>
        <time>2023-10-31T13:00:29Z</time>
      </trkpt>
      <trkpt lat="42.80085" lon="-0.03454">
        <ele>1878.4</ele>
        <time>2023-10-31T13:00:30Z</time>
      </trkpt>
      <trkpt lat="42.80087" lon="-0.03452">
        <ele>1878.1</ele>
        <time>2023-10-31T13:00:32Z</time>
      </trkpt>
      <trkpt lat="42.80089" lon="-0.03451">
        <ele>1877.9</ele>
        <time>2023-10-31T13:00:33Z</time>
      </trkpt>
      <trkpt lat="42.80089" lon="-0.03451">
        <ele>1877.8</ele>
        <time>2023-10-31T13:00:34Z</time>
      </trkpt>
      <trkpt lat="42.80091" lon="-0.03451">
        <ele>1877.7</ele>
        <time>2023-10-31T13:00:35Z</time>
      </trkpt>
      <trkpt lat="42.80091" lon="-0.0345">
        <ele>1877.6</ele>
        <time>2023-10-31T13:00:36Z</time>
      </trkpt>
      <trkpt lat="42.80092" lon="-0.03449">
        <ele>1877.4</ele>
        <time>2023-10-31T13:00:37Z</time>
      </trkpt>
      <trkpt lat="42.80093" lon="-0.03449">
        <ele>1877.3</ele>
        <time>2023-10-31T13:00:38Z</time>
      </trkpt>
      <trkpt lat="42.80094" lon="-0.03449">
        <ele>1877.2</ele>
        <time>2023-10-31T13:00:39Z</time>
      </trkpt>
      <trkpt lat="42.80095" lon="-0.03449">
        <ele>1877.1</ele>
        <time>2023-10-31T13:00:40Z</time>
      </trkpt>
      <trkpt lat="42.80096" lon="-0.03449">
        <ele>1876.9</ele>
        <time>2023-10-31T13:00:41Z</time>
      </trkpt>
      <trkpt lat="42.80096" lon="-0.03449">
        <ele>1876.9</ele>
        <time>2023-10-31T13:00:42Z</time>
      </trkpt>
      <trkpt lat="42.80096" lon="-0.0345">
        <ele>1876.8</ele>
        <time>2023-10-31T13:00:43Z</time>
      </trkpt>
      <trkpt lat="42.80096" lon="-0.0345">
        <ele>1876.8</ele>
        <time>2023-10-31T13:00:44Z</time>
      </trkpt>
      <trkpt lat="42.80097" lon="-0.03449">
        <ele>1876.7</ele>
        <time>2023-10-31T13:00:45Z</time>
      </trkpt>
      <trkpt lat="42.80098" lon="-0.03447">
        <ele>1876.5</ele>
        <time>2023-10-31T13:00:46Z</time>
      </trkpt>
      <trkpt lat="42.80098" lon="-0.03447">
        <ele>1876.4</ele>
        <time>2023-10-31T13:00:47Z</time>
      </trkpt>
      <trkpt lat="42.80099" lon="-0.03448">
        <ele>1876.3</ele>
        <time>2023-10-31T13:00:48Z</time>
      </trkpt>
      <trkpt lat="42.801" lon="-0.03448">
        <ele>1876.2</ele>
        <time>2023-10-31T13:00:49Z</time>
      </trkpt>
      <trkpt lat="42.80101" lon="-0.03449">
        <ele>1876.1</ele>
        <time>2023-10-31T13:00:50Z</time>
      </trkpt>
      <trkpt lat="42.80101" lon="-0.03449">
        <ele>1876.1</ele>
        <time>2023-10-31T13:00:51Z</time>
      </trkpt>
      <trkpt lat="42.80102" lon="-0.03449">
        <ele>1875.9</ele>
        <time>2023-10-31T13:00:52Z</time>
      </trkpt>
      <trkpt lat="42.80104" lon="-0.0345">
        <ele>1875.7</ele>
        <time>2023-10-31T13:00:53Z</time>
      </trkpt>
      <trkpt lat="42.80105" lon="-0.03449">
        <ele>1875.5</ele>
        <time>2023-10-31T13:00:54Z</time>
      </trkpt>
      <trkpt lat="42.80106" lon="-0.03449">
        <ele>1875.4</ele>
        <time>2023-10-31T13:00:55Z</time>
      </trkpt>
      <trkpt lat="42.80107" lon="-0.03449">
        <ele>1875.3</ele>
        <time>2023-10-31T13:00:56Z</time>
      </trkpt>
      <trkpt lat="42.80108" lon="-0.03449">
        <ele>1875.1</ele>
        <time>2023-10-31T13:00:57Z</time>
      </trkpt>
      <trkpt lat="42.80108" lon="-0.03449">
        <ele>1875.1</ele>
        <time>2023-10-31T13:00:58Z</time>
      </trkpt>
      <trkpt lat="42.80109" lon="-0.03449">
        <ele>1875</ele>
        <time>2023-10-31T13:00:59Z</time>
      </trkpt>
      <trkpt lat="42.80109" lon="-0.03448">
        <ele>1874.9</ele>
        <time>2023-10-31T13:01:00Z</time>
      </trkpt>
      <trkpt lat="42.80109" lon="-0.03448">
        <ele>1874.8</ele>
        <time>2023-10-31T13:01:01Z</time>
      </trkpt>
      <trkpt lat="42.80109" lon="-0.03448">
        <ele>1874.8</ele>
        <time>2023-10-31T13:01:02Z</time>
      </trkpt>
      <trkpt lat="42.8011" lon="-0.03447">
        <ele>1874.7</ele>
        <time>2023-10-31T13:01:03Z</time>
      </trkpt>
      <trkpt lat="42.80109" lon="-0.03446">
        <ele>1874.5</ele>
        <time>2023-10-31T13:01:04Z</time>
      </trkpt>
      <trkpt lat="42.80107" lon="-0.03445">
        <ele>1874.3</ele>
        <time>2023-10-31T13:01:05Z</time>
      </trkpt>
      <trkpt lat="42.80106" lon="-0.03444">
        <ele>1874.1</ele>
        <time>2023-10-31T13:01:06Z</time>
      </trkpt>
      <trkpt lat="42.80106" lon="-0.03444">
        <ele>1874</ele>
        <time>2023-10-31T13:01:07Z</time>
      </trkpt>
      <trkpt lat="42.80105" lon="-0.03444">
        <ele>1873.8</ele>
        <time>2023-10-31T13:01:08Z</time>
      </trkpt>
      <trkpt lat="42.80104" lon="-0.03443">
        <ele>1873.6</ele>
        <time>2023-10-31T13:01:09Z</time>
      </trkpt>
      <trkpt lat="42.80103" lon="-0.03442">
        <ele>1873.3</ele>
        <time>2023-10-31T13:01:10Z</time>
      </trkpt>
      <trkpt lat="42.80102" lon="-0.03442">
        <ele>1873.2</ele>
        <time>2023-10-31T13:01:11Z</time>
      </trkpt>
      <trkpt lat="42.80102" lon="-0.03442">
        <ele>1873.1</ele>
        <time>2023-10-31T13:01:12Z</time>
      </trkpt>
      <trkpt lat="42.80102" lon="-0.03442">
        <ele>1873.1</ele>
        <time>2023-10-31T13:01:13Z</time>
      </trkpt>
      <trkpt lat="42.80102" lon="-0.03442">
        <ele>1873</ele>
        <time>2023-10-31T13:01:14Z</time>
      </trkpt>
      <trkpt lat="42.80102" lon="-0.03441">
        <ele>1872.9</ele>
        <time>2023-10-31T13:01:15Z</time>
      </trkpt>
      <trkpt lat="42.80102" lon="-0.0344">
        <ele>1872.8</ele>
        <time>2023-10-31T13:01:16Z</time>
      </trkpt>
      <trkpt lat="42.80103" lon="-0.0344">
        <ele>1872.7</ele>
        <time>2023-10-31T13:01:17Z</time>
      </trkpt>
      <trkpt lat="42.80103" lon="-0.03439">
        <ele>1872.5</ele>
        <time>2023-10-31T13:01:18Z</time>
      </trkpt>
      <trkpt lat="42.80102" lon="-0.03439">
        <ele>1872.4</ele>
        <time>2023-10-31T13:01:19Z</time>
      </trkpt>
      <trkpt lat="42.80102" lon="-0.03439">
        <ele>1872.4</ele>
        <time>2023-10-31T13:01:20Z</time>
      </trkpt>
      <trkpt lat="42.80103" lon="-0.03439">
        <ele>1872.3</ele>
        <time>2023-10-31T13:01:21Z</time>
      </trkpt>
      <trkpt lat="42.80103" lon="-0.03438">
        <ele>1872.1</ele>
        <time>2023-10-31T13:01:22Z</time>
      </trkpt>
      <trkpt lat="42.80103" lon="-0.03436">
        <ele>1871.8</ele>
        <time>2023-10-31T13:01:23Z</time>
      </trkpt>
      <trkpt lat="42.80103" lon="-0.03436">
        <ele>1871.7</ele>
        <time>2023-10-31T13:01:24Z</time>
      </trkpt>
      <trkpt lat="42.80103" lon="-0.03436">
        <ele>1871.7</ele>
        <time>2023-10-31T13:01:25Z</time>
      </trkpt>
      <trkpt lat="42.80103" lon="-0.03436">
        <ele>1871.5</ele>
        <time>2023-10-31T13:01:26Z</time>
      </trkpt>
      <trkpt lat="42.80104" lon="-0.03436">
        <ele>1871.4</ele>
        <time>2023-10-31T13:01:27Z</time>
      </trkpt>
      <trkpt lat="42.80104" lon="-0.03436">
        <ele>1871.2</ele>
        <time>2023-10-31T13:01:28Z</time>
      </trkpt>
      <trkpt lat="42.80105" lon="-0.03435">
        <ele>1871.1</ele>
        <time>2023-10-31T13:01:29Z</time>
      </trkpt>
      <trkpt lat="42.80105" lon="-0.03434">
        <ele>1870.8</ele>
        <time>2023-10-31T13:01:30Z</time>
      </trkpt>
      <trkpt lat="42.80105" lon="-0.03434">
        <ele>1870.7</ele>
        <time>2023-10-31T13:01:31Z</time>
      </trkpt>
      <trkpt lat="42.80105" lon="-0.03433">
        <ele>1870.4</ele>
        <time>2023-10-31T13:01:32Z</time>
      </trkpt>
      <trkpt lat="42.80105" lon="-0.03433">
        <ele>1870.3</ele>
        <time>2023-10-31T13:01:33Z</time>
      </trkpt>
      <trkpt lat="42.80104" lon="-0.03432">
        <ele>1870.1</ele>
        <time>2023-10-31T13:01:34Z</time>
      </trkpt>
      <trkpt lat="42.80105" lon="-0.03431">
        <ele>1869.8</ele>
        <time>2023-10-31T13:01:35Z</time>
      </trkpt>
      <trkpt lat="42.80105" lon="-0.0343">
        <ele>1869.7</ele>
        <time>2023-10-31T13:01:36Z</time>
      </trkpt>
      <trkpt lat="42.80105" lon="-0.0343">
        <ele>1869.6</ele>
        <time>2023-10-31T13:01:37Z</time>
      </trkpt>
      <trkpt lat="42.80105" lon="-0.0343">
        <ele>1869.6</ele>
        <time>2023-10-31T13:01:38Z</time>
      </trkpt>
      <trkpt lat="42.80105" lon="-0.0343">
        <ele>1869.6</ele>
        <time>2023-10-31T13:01:39Z</time>
      </trkpt>
      <trkpt lat="42.80105" lon="-0.0343">
        <ele>1869.5</ele>
        <time>2023-10-31T13:01:40Z</time>
      </trkpt>
      <trkpt lat="42.80105" lon="-0.0343">
        <ele>1869.4</ele>
        <time>2023-10-31T13:01:41Z</time>
      </trkpt>
      <trkpt lat="42.80105" lon="-0.0343">
        <ele>1869.3</ele>
        <time>2023-10-31T13:01:42Z</time>
      </trkpt>
      <trkpt lat="42.80105" lon="-0.0343">
        <ele>1869.2</ele>
        <time>2023-10-31T13:01:43Z</time>
      </trkpt>
      <trkpt lat="42.80106" lon="-0.03429">
        <ele>1868.9</ele>
        <time>2023-10-31T13:01:44Z</time>
      </trkpt>
      <trkpt lat="42.80106" lon="-0.03429">
        <ele>1868.9</ele>
        <time>2023-10-31T13:01:45Z</time>
      </trkpt>
      <trkpt lat="42.80106" lon="-0.03428">
        <ele>1868.7</ele>
        <time>2023-10-31T13:01:46Z</time>
      </trkpt>
      <trkpt lat="42.80106" lon="-0.03429">
        <ele>1868.6</ele>
        <time>2023-10-31T13:01:47Z</time>
      </trkpt>
      <trkpt lat="42.80106" lon="-0.03429">
        <ele>1868.6</ele>
        <time>2023-10-31T13:01:48Z</time>
      </trkpt>
      <trkpt lat="42.80106" lon="-0.03428">
        <ele>1868.6</ele>
        <time>2023-10-31T13:01:49Z</time>
      </trkpt>
      <trkpt lat="42.80106" lon="-0.03428">
        <ele>1868.5</ele>
        <time>2023-10-31T13:01:50Z</time>
      </trkpt>
      <trkpt lat="42.80107" lon="-0.03427">
        <ele>1868</ele>
        <time>2023-10-31T13:01:51Z</time>
      </trkpt>
      <trkpt lat="42.80108" lon="-0.03426">
        <ele>1867.6</ele>
        <time>2023-10-31T13:01:52Z</time>
      </trkpt>
      <trkpt lat="42.80109" lon="-0.03427">
        <ele>1867.4</ele>
        <time>2023-10-31T13:01:53Z</time>
      </trkpt>
      <trkpt lat="42.80109" lon="-0.03427">
        <ele>1867.2</ele>
        <time>2023-10-31T13:01:54Z</time>
      </trkpt>
      <trkpt lat="42.8011" lon="-0.03428">
        <ele>1867</ele>
        <time>2023-10-31T13:01:55Z</time>
      </trkpt>
      <trkpt lat="42.8011" lon="-0.03428">
        <ele>1866.9</ele>
        <time>2023-10-31T13:01:56Z</time>
      </trkpt>
      <trkpt lat="42.8011" lon="-0.03428">
        <ele>1866.7</ele>
        <time>2023-10-31T13:01:57Z</time>
      </trkpt>
      <trkpt lat="42.80111" lon="-0.03427">
        <ele>1866.4</ele>
        <time>2023-10-31T13:01:58Z</time>
      </trkpt>
      <trkpt lat="42.80113" lon="-0.03426">
        <ele>1865.9</ele>
        <time>2023-10-31T13:01:59Z</time>
      </trkpt>
      <trkpt lat="42.80112" lon="-0.03425">
        <ele>1865.7</ele>
        <time>2023-10-31T13:02:00Z</time>
      </trkpt>
      <trkpt lat="42.80112" lon="-0.03425">
        <ele>1865.6</ele>
        <time>2023-10-31T13:02:01Z</time>
      </trkpt>
      <trkpt lat="42.80112" lon="-0.03424">
        <ele>1865.4</ele>
        <time>2023-10-31T13:02:02Z</time>
      </trkpt>
      <trkpt lat="42.80113" lon="-0.03423">
        <ele>1865.2</ele>
        <time>2023-10-31T13:02:03Z</time>
      </trkpt>
      <trkpt lat="42.80113" lon="-0.03422">
        <ele>1864.9</ele>
        <time>2023-10-31T13:02:04Z</time>
      </trkpt>
      <trkpt lat="42.80114" lon="-0.03421">
        <ele>1864.7</ele>
        <time>2023-10-31T13:02:05Z</time>
      </trkpt>
      <trkpt lat="42.80115" lon="-0.0342">
        <ele>1864.5</ele>
        <time>2023-10-31T13:02:06Z</time>
      </trkpt>
      <trkpt lat="42.80116" lon="-0.0342">
        <ele>1864.3</ele>
        <time>2023-10-31T13:02:07Z</time>
      </trkpt>
      <trkpt lat="42.80116" lon="-0.03419">
        <ele>1864.2</ele>
        <time>2023-10-31T13:02:08Z</time>
      </trkpt>
      <trkpt lat="42.80116" lon="-0.03419">
        <ele>1864</ele>
        <time>2023-10-31T13:02:09Z</time>
      </trkpt>
      <trkpt lat="42.80117" lon="-0.03419">
        <ele>1863.9</ele>
        <time>2023-10-31T13:02:10Z</time>
      </trkpt>
      <trkpt lat="42.80118" lon="-0.03418">
        <ele>1863.6</ele>
        <time>2023-10-31T13:02:11Z</time>
      </trkpt>
      <trkpt lat="42.80119" lon="-0.03418">
        <ele>1863.3</ele>
        <time>2023-10-31T13:02:12Z</time>
      </trkpt>
      <trkpt lat="42.8012" lon="-0.03417">
        <ele>1863.2</ele>
        <time>2023-10-31T13:02:13Z</time>
      </trkpt>
      <trkpt lat="42.80121" lon="-0.03418">
        <ele>1863</ele>
        <time>2023-10-31T13:02:14Z</time>
      </trkpt>
      <trkpt lat="42.80121" lon="-0.03417">
        <ele>1862.9</ele>
        <time>2023-10-31T13:02:15Z</time>
      </trkpt>
      <trkpt lat="42.80121" lon="-0.03417">
        <ele>1862.8</ele>
        <time>2023-10-31T13:02:16Z</time>
      </trkpt>
      <trkpt lat="42.80122" lon="-0.03417">
        <ele>1862.7</ele>
        <time>2023-10-31T13:02:17Z</time>
      </trkpt>
      <trkpt lat="42.80122" lon="-0.03416">
        <ele>1862.6</ele>
        <time>2023-10-31T13:02:18Z</time>
      </trkpt>
      <trkpt lat="42.80122" lon="-0.03414">
        <ele>1862.4</ele>
        <time>2023-10-31T13:02:19Z</time>
      </trkpt>
      <trkpt lat="42.80123" lon="-0.03413">
        <ele>1862.1</ele>
        <time>2023-10-31T13:02:20Z</time>
      </trkpt>
      <trkpt lat="42.80123" lon="-0.03413">
        <ele>1862.1</ele>
        <time>2023-10-31T13:02:21Z</time>
      </trkpt>
      <trkpt lat="42.80123" lon="-0.03413">
        <ele>1862</ele>
        <time>2023-10-31T13:02:22Z</time>
      </trkpt>
      <trkpt lat="42.80124" lon="-0.03413">
        <ele>1862</ele>
        <time>2023-10-31T13:02:23Z</time>
      </trkpt>
      <trkpt lat="42.80124" lon="-0.03413">
        <ele>1861.8</ele>
        <time>2023-10-31T13:02:25Z</time>
      </trkpt>
      <trkpt lat="42.80124" lon="-0.03412">
        <ele>1861.7</ele>
        <time>2023-10-31T13:02:26Z</time>
      </trkpt>
      <trkpt lat="42.80125" lon="-0.03411">
        <ele>1861.5</ele>
        <time>2023-10-31T13:02:27Z</time>
      </trkpt>
      <trkpt lat="42.80124" lon="-0.03411">
        <ele>1861.4</ele>
        <time>2023-10-31T13:02:28Z</time>
      </trkpt>
      <trkpt lat="42.80124" lon="-0.0341">
        <ele>1861.3</ele>
        <time>2023-10-31T13:02:29Z</time>
      </trkpt>
      <trkpt lat="42.80124" lon="-0.03408">
        <ele>1861</ele>
        <time>2023-10-31T13:02:30Z</time>
      </trkpt>
      <trkpt lat="42.80125" lon="-0.03408">
        <ele>1860.9</ele>
        <time>2023-10-31T13:02:31Z</time>
      </trkpt>
      <trkpt lat="42.80124" lon="-0.03409">
        <ele>1860.8</ele>
        <time>2023-10-31T13:02:32Z</time>
      </trkpt>
      <trkpt lat="42.80125" lon="-0.03409">
        <ele>1860.8</ele>
        <time>2023-10-31T13:02:33Z</time>
      </trkpt>
      <trkpt lat="42.80125" lon="-0.03409">
        <ele>1860.8</ele>
        <time>2023-10-31T13:02:34Z</time>
      </trkpt>
      <trkpt lat="42.80124" lon="-0.03409">
        <ele>1860.7</ele>
        <time>2023-10-31T13:02:35Z</time>
      </trkpt>
      <trkpt lat="42.80124" lon="-0.03409">
        <ele>1860.7</ele>
        <time>2023-10-31T13:02:36Z</time>
      </trkpt>
      <trkpt lat="42.80124" lon="-0.03409">
        <ele>1860.7</ele>
        <time>2023-10-31T13:02:37Z</time>
      </trkpt>
      <trkpt lat="42.80124" lon="-0.03409">
        <ele>1860.7</ele>
        <time>2023-10-31T13:02:38Z</time>
      </trkpt>
      <trkpt lat="42.80125" lon="-0.03408">
        <ele>1860.4</ele>
        <time>2023-10-31T13:02:39Z</time>
      </trkpt>
      <trkpt lat="42.80126" lon="-0.03407">
        <ele>1860.2</ele>
        <time>2023-10-31T13:02:40Z</time>
      </trkpt>
      <trkpt lat="42.80127" lon="-0.03407">
        <ele>1859.9</ele>
        <time>2023-10-31T13:02:41Z</time>
      </trkpt>
      <trkpt lat="42.80128" lon="-0.03406">
        <ele>1859.7</ele>
        <time>2023-10-31T13:02:42Z</time>
      </trkpt>
      <trkpt lat="42.80128" lon="-0.03405">
        <ele>1859.6</ele>
        <time>2023-10-31T13:02:43Z</time>
      </trkpt>
      <trkpt lat="42.80128" lon="-0.03404">
        <ele>1859.4</ele>
        <time>2023-10-31T13:02:44Z</time>
      </trkpt>
      <trkpt lat="42.80129" lon="-0.03404">
        <ele>1859.3</ele>
        <time>2023-10-31T13:02:45Z</time>
      </trkpt>
      <trkpt lat="42.80129" lon="-0.03403">
        <ele>1859.1</ele>
        <time>2023-10-31T13:02:46Z</time>
      </trkpt>
      <trkpt lat="42.80129" lon="-0.03403">
        <ele>1859</ele>
        <time>2023-10-31T13:02:47Z</time>
      </trkpt>
      <trkpt lat="42.8013" lon="-0.03403">
        <ele>1859</ele>
        <time>2023-10-31T13:02:48Z</time>
      </trkpt>
      <trkpt lat="42.8013" lon="-0.03403">
        <ele>1859</ele>
        <time>2023-10-31T13:02:49Z</time>
      </trkpt>
      <trkpt lat="42.8013" lon="-0.03403">
        <ele>1859</ele>
        <time>2023-10-31T13:02:50Z</time>
      </trkpt>
      <trkpt lat="42.8013" lon="-0.03403">
        <ele>1858.8</ele>
        <time>2023-10-31T13:02:51Z</time>
      </trkpt>
      <trkpt lat="42.80131" lon="-0.03401">
        <ele>1858.5</ele>
        <time>2023-10-31T13:02:52Z</time>
      </trkpt>
      <trkpt lat="42.80131" lon="-0.034">
        <ele>1858.4</ele>
        <time>2023-10-31T13:02:53Z</time>
      </trkpt>
      <trkpt lat="42.80132" lon="-0.034">
        <ele>1858.2</ele>
        <time>2023-10-31T13:02:54Z</time>
      </trkpt>
      <trkpt lat="42.80132" lon="-0.034">
        <ele>1858.1</ele>
        <time>2023-10-31T13:02:55Z</time>
      </trkpt>
      <trkpt lat="42.80133" lon="-0.03399">
        <ele>1857.9</ele>
        <time>2023-10-31T13:02:56Z</time>
      </trkpt>
      <trkpt lat="42.80134" lon="-0.03399">
        <ele>1857.6</ele>
        <time>2023-10-31T13:02:57Z</time>
      </trkpt>
      <trkpt lat="42.80135" lon="-0.03398">
        <ele>1857.4</ele>
        <time>2023-10-31T13:02:58Z</time>
      </trkpt>
      <trkpt lat="42.80136" lon="-0.03396">
        <ele>1856.9</ele>
        <time>2023-10-31T13:02:59Z</time>
      </trkpt>
      <trkpt lat="42.80136" lon="-0.03396">
        <ele>1856.8</ele>
        <time>2023-10-31T13:03:00Z</time>
      </trkpt>
      <trkpt lat="42.80137" lon="-0.03395">
        <ele>1856.7</ele>
        <time>2023-10-31T13:03:01Z</time>
      </trkpt>
      <trkpt lat="42.80138" lon="-0.03395">
        <ele>1856.4</ele>
        <time>2023-10-31T13:03:02Z</time>
      </trkpt>
      <trkpt lat="42.80139" lon="-0.03394">
        <ele>1856.1</ele>
        <time>2023-10-31T13:03:03Z</time>
      </trkpt>
      <trkpt lat="42.80139" lon="-0.03394">
        <ele>1856</ele>
        <time>2023-10-31T13:03:04Z</time>
      </trkpt>
      <trkpt lat="42.8014" lon="-0.03393">
        <ele>1855.9</ele>
        <time>2023-10-31T13:03:05Z</time>
      </trkpt>
      <trkpt lat="42.8014" lon="-0.03393">
        <ele>1855.7</ele>
        <time>2023-10-31T13:03:06Z</time>
      </trkpt>
      <trkpt lat="42.80141" lon="-0.03392">
        <ele>1855.5</ele>
        <time>2023-10-31T13:03:07Z</time>
      </trkpt>
      <trkpt lat="42.80142" lon="-0.03392">
        <ele>1855.2</ele>
        <time>2023-10-31T13:03:08Z</time>
      </trkpt>
      <trkpt lat="42.80143" lon="-0.03392">
        <ele>1855</ele>
        <time>2023-10-31T13:03:09Z</time>
      </trkpt>
      <trkpt lat="42.80144" lon="-0.03392">
        <ele>1854.8</ele>
        <time>2023-10-31T13:03:10Z</time>
      </trkpt>
      <trkpt lat="42.80145" lon="-0.03391">
        <ele>1854.7</ele>
        <time>2023-10-31T13:03:11Z</time>
      </trkpt>
      <trkpt lat="42.80145" lon="-0.03391">
        <ele>1854.5</ele>
        <time>2023-10-31T13:03:12Z</time>
      </trkpt>
      <trkpt lat="42.80145" lon="-0.03388">
        <ele>1854.1</ele>
        <time>2023-10-31T13:03:13Z</time>
      </trkpt>
      <trkpt lat="42.80147" lon="-0.03387">
        <ele>1853.7</ele>
        <time>2023-10-31T13:03:14Z</time>
      </trkpt>
      <trkpt lat="42.80148" lon="-0.03386">
        <ele>1853.4</ele>
        <time>2023-10-31T13:03:15Z</time>
      </trkpt>
      <trkpt lat="42.80149" lon="-0.03386">
        <ele>1853.2</ele>
        <time>2023-10-31T13:03:16Z</time>
      </trkpt>
      <trkpt lat="42.8015" lon="-0.03385">
        <ele>1853</ele>
        <time>2023-10-31T13:03:17Z</time>
      </trkpt>
      <trkpt lat="42.80151" lon="-0.03385">
        <ele>1852.8</ele>
        <time>2023-10-31T13:03:18Z</time>
      </trkpt>
      <trkpt lat="42.80152" lon="-0.03385">
        <ele>1852.5</ele>
        <time>2023-10-31T13:03:19Z</time>
      </trkpt>
      <trkpt lat="42.80153" lon="-0.03387">
        <ele>1852.2</ele>
        <time>2023-10-31T13:03:20Z</time>
      </trkpt>
      <trkpt lat="42.80153" lon="-0.03387">
        <ele>1852.1</ele>
        <time>2023-10-31T13:03:21Z</time>
      </trkpt>
      <trkpt lat="42.80154" lon="-0.03386">
        <ele>1852</ele>
        <time>2023-10-31T13:03:22Z</time>
      </trkpt>
      <trkpt lat="42.80154" lon="-0.03386">
        <ele>1851.9</ele>
        <time>2023-10-31T13:03:23Z</time>
      </trkpt>
      <trkpt lat="42.80154" lon="-0.03385">
        <ele>1851.8</ele>
        <time>2023-10-31T13:03:24Z</time>
      </trkpt>
      <trkpt lat="42.80154" lon="-0.03385">
        <ele>1851.7</ele>
        <time>2023-10-31T13:03:25Z</time>
      </trkpt>
      <trkpt lat="42.80155" lon="-0.03384">
        <ele>1851.6</ele>
        <time>2023-10-31T13:03:26Z</time>
      </trkpt>
      <trkpt lat="42.80155" lon="-0.03383">
        <ele>1851.4</ele>
        <time>2023-10-31T13:03:27Z</time>
      </trkpt>
      <trkpt lat="42.80155" lon="-0.03383">
        <ele>1851.4</ele>
        <time>2023-10-31T13:03:28Z</time>
      </trkpt>
      <trkpt lat="42.80156" lon="-0.03382">
        <ele>1851.3</ele>
        <time>2023-10-31T13:03:29Z</time>
      </trkpt>
      <trkpt lat="42.80156" lon="-0.03382">
        <ele>1851.1</ele>
        <time>2023-10-31T13:03:30Z</time>
      </trkpt>
      <trkpt lat="42.80156" lon="-0.03381">
        <ele>1851.1</ele>
        <time>2023-10-31T13:03:31Z</time>
      </trkpt>
      <trkpt lat="42.80157" lon="-0.03381">
        <ele>1850.9</ele>
        <time>2023-10-31T13:03:32Z</time>
      </trkpt>
      <trkpt lat="42.80157" lon="-0.03381">
        <ele>1850.9</ele>
        <time>2023-10-31T13:03:33Z</time>
      </trkpt>
      <trkpt lat="42.80159" lon="-0.0338">
        <ele>1850.5</ele>
        <time>2023-10-31T13:03:34Z</time>
      </trkpt>
      <trkpt lat="42.80159" lon="-0.0338">
        <ele>1850.4</ele>
        <time>2023-10-31T13:03:35Z</time>
      </trkpt>
      <trkpt lat="42.8016" lon="-0.03379">
        <ele>1850.3</ele>
        <time>2023-10-31T13:03:36Z</time>
      </trkpt>
      <trkpt lat="42.8016" lon="-0.03379">
        <ele>1850.3</ele>
        <time>2023-10-31T13:03:37Z</time>
      </trkpt>
      <trkpt lat="42.8016" lon="-0.03379">
        <ele>1850.2</ele>
        <time>2023-10-31T13:03:38Z</time>
      </trkpt>
      <trkpt lat="42.8016" lon="-0.03379">
        <ele>1850.2</ele>
        <time>2023-10-31T13:03:39Z</time>
      </trkpt>
      <trkpt lat="42.80161" lon="-0.03378">
        <ele>1850.1</ele>
        <time>2023-10-31T13:03:40Z</time>
      </trkpt>
      <trkpt lat="42.80161" lon="-0.03378">
        <ele>1850.1</ele>
        <time>2023-10-31T13:03:41Z</time>
      </trkpt>
      <trkpt lat="42.80161" lon="-0.03378">
        <ele>1850</ele>
        <time>2023-10-31T13:03:42Z</time>
      </trkpt>
      <trkpt lat="42.80161" lon="-0.03378">
        <ele>1850</ele>
        <time>2023-10-31T13:03:43Z</time>
      </trkpt>
      <trkpt lat="42.80161" lon="-0.03378">
        <ele>1849.9</ele>
        <time>2023-10-31T13:03:44Z</time>
      </trkpt>
      <trkpt lat="42.80162" lon="-0.03377">
        <ele>1849.9</ele>
        <time>2023-10-31T13:03:45Z</time>
      </trkpt>
      <trkpt lat="42.80162" lon="-0.03377">
        <ele>1849.8</ele>
        <time>2023-10-31T13:03:46Z</time>
      </trkpt>
      <trkpt lat="42.80162" lon="-0.03377">
        <ele>1849.8</ele>
        <time>2023-10-31T13:03:47Z</time>
      </trkpt>
      <trkpt lat="42.80162" lon="-0.03377">
        <ele>1849.7</ele>
        <time>2023-10-31T13:03:48Z</time>
      </trkpt>
      <trkpt lat="42.80163" lon="-0.03376">
        <ele>1849.6</ele>
        <time>2023-10-31T13:03:49Z</time>
      </trkpt>
      <trkpt lat="42.80163" lon="-0.03374">
        <ele>1849.4</ele>
        <time>2023-10-31T13:03:50Z</time>
      </trkpt>
      <trkpt lat="42.80164" lon="-0.03373">
        <ele>1849.2</ele>
        <time>2023-10-31T13:03:51Z</time>
      </trkpt>
      <trkpt lat="42.80164" lon="-0.03372">
        <ele>1849</ele>
        <time>2023-10-31T13:03:52Z</time>
      </trkpt>
      <trkpt lat="42.80165" lon="-0.03372">
        <ele>1848.9</ele>
        <time>2023-10-31T13:03:53Z</time>
      </trkpt>
      <trkpt lat="42.80166" lon="-0.03371">
        <ele>1848.7</ele>
        <time>2023-10-31T13:03:54Z</time>
      </trkpt>
      <trkpt lat="42.80167" lon="-0.03371">
        <ele>1848.5</ele>
        <time>2023-10-31T13:03:55Z</time>
      </trkpt>
      <trkpt lat="42.80168" lon="-0.03371">
        <ele>1848.4</ele>
        <time>2023-10-31T13:03:56Z</time>
      </trkpt>
      <trkpt lat="42.80169" lon="-0.0337">
        <ele>1848.2</ele>
        <time>2023-10-31T13:03:57Z</time>
      </trkpt>
      <trkpt lat="42.8017" lon="-0.0337">
        <ele>1848.1</ele>
        <time>2023-10-31T13:03:58Z</time>
      </trkpt>
      <trkpt lat="42.8017" lon="-0.03369">
        <ele>1848</ele>
        <time>2023-10-31T13:03:59Z</time>
      </trkpt>
      <trkpt lat="42.80171" lon="-0.03369">
        <ele>1847.9</ele>
        <time>2023-10-31T13:04:00Z</time>
      </trkpt>
      <trkpt lat="42.80171" lon="-0.03368">
        <ele>1847.8</ele>
        <time>2023-10-31T13:04:01Z</time>
      </trkpt>
      <trkpt lat="42.80172" lon="-0.03368">
        <ele>1847.7</ele>
        <time>2023-10-31T13:04:02Z</time>
      </trkpt>
      <trkpt lat="42.80172" lon="-0.03367">
        <ele>1847.5</ele>
        <time>2023-10-31T13:04:03Z</time>
      </trkpt>
      <trkpt lat="42.80173" lon="-0.03366">
        <ele>1847.4</ele>
        <time>2023-10-31T13:04:04Z</time>
      </trkpt>
      <trkpt lat="42.80174" lon="-0.03366">
        <ele>1847.3</ele>
        <time>2023-10-31T13:04:05Z</time>
      </trkpt>
      <trkpt lat="42.80174" lon="-0.03365">
        <ele>1847.3</ele>
        <time>2023-10-31T13:04:06Z</time>
      </trkpt>
      <trkpt lat="42.80174" lon="-0.03365">
        <ele>1847.2</ele>
        <time>2023-10-31T13:04:07Z</time>
      </trkpt>
      <trkpt lat="42.80175" lon="-0.03364">
        <ele>1847</ele>
        <time>2023-10-31T13:04:08Z</time>
      </trkpt>
      <trkpt lat="42.80176" lon="-0.03362">
        <ele>1846.7</ele>
        <time>2023-10-31T13:04:09Z</time>
      </trkpt>
      <trkpt lat="42.80176" lon="-0.03362">
        <ele>1846.7</ele>
        <time>2023-10-31T13:04:10Z</time>
      </trkpt>
      <trkpt lat="42.80175" lon="-0.03363">
        <ele>1846.6</ele>
        <time>2023-10-31T13:04:11Z</time>
      </trkpt>
      <trkpt lat="42.80175" lon="-0.03363">
        <ele>1846.6</ele>
        <time>2023-10-31T13:04:12Z</time>
      </trkpt>
      <trkpt lat="42.80175" lon="-0.03363">
        <ele>1846.6</ele>
        <time>2023-10-31T13:04:13Z</time>
      </trkpt>
      <trkpt lat="42.80175" lon="-0.03362">
        <ele>1846.6</ele>
        <time>2023-10-31T13:04:14Z</time>
      </trkpt>
      <trkpt lat="42.80175" lon="-0.03362">
        <ele>1846.5</ele>
        <time>2023-10-31T13:04:15Z</time>
      </trkpt>
      <trkpt lat="42.80175" lon="-0.03362">
        <ele>1846.5</ele>
        <time>2023-10-31T13:04:16Z</time>
      </trkpt>
      <trkpt lat="42.80175" lon="-0.03362">
        <ele>1846.5</ele>
        <time>2023-10-31T13:04:17Z</time>
      </trkpt>
      <trkpt lat="42.80175" lon="-0.03362">
        <ele>1846.5</ele>
        <time>2023-10-31T13:04:18Z</time>
      </trkpt>
      <trkpt lat="42.80176" lon="-0.03363">
        <ele>1846.5</ele>
        <time>2023-10-31T13:04:19Z</time>
      </trkpt>
      <trkpt lat="42.80175" lon="-0.03363">
        <ele>1846.5</ele>
        <time>2023-10-31T13:04:20Z</time>
      </trkpt>
      <trkpt lat="42.80175" lon="-0.03363">
        <ele>1846.4</ele>
        <time>2023-10-31T13:04:21Z</time>
      </trkpt>
      <trkpt lat="42.80176" lon="-0.03362">
        <ele>1846.3</ele>
        <time>2023-10-31T13:04:22Z</time>
      </trkpt>
      <trkpt lat="42.80176" lon="-0.03361">
        <ele>1846.3</ele>
        <time>2023-10-31T13:04:23Z</time>
      </trkpt>
      <trkpt lat="42.80176" lon="-0.03361">
        <ele>1846.3</ele>
        <time>2023-10-31T13:04:24Z</time>
      </trkpt>
      <trkpt lat="42.80176" lon="-0.03361">
        <ele>1846.3</ele>
        <time>2023-10-31T13:04:25Z</time>
      </trkpt>
      <trkpt lat="42.80176" lon="-0.03361">
        <ele>1846.3</ele>
        <time>2023-10-31T13:04:26Z</time>
      </trkpt>
      <trkpt lat="42.80176" lon="-0.03361">
        <ele>1846.3</ele>
        <time>2023-10-31T13:04:27Z</time>
      </trkpt>
      <trkpt lat="42.80176" lon="-0.03361">
        <ele>1846.3</ele>
        <time>2023-10-31T13:04:28Z</time>
      </trkpt>
      <trkpt lat="42.80177" lon="-0.03362">
        <ele>1846.1</ele>
        <time>2023-10-31T13:04:29Z</time>
      </trkpt>
      <trkpt lat="42.80177" lon="-0.03361">
        <ele>1845.9</ele>
        <time>2023-10-31T13:04:30Z</time>
      </trkpt>
      <trkpt lat="42.80177" lon="-0.03361">
        <ele>1845.9</ele>
        <time>2023-10-31T13:04:32Z</time>
      </trkpt>
      <trkpt lat="42.80177" lon="-0.03361">
        <ele>1845.9</ele>
        <time>2023-10-31T13:04:33Z</time>
      </trkpt>
      <trkpt lat="42.80177" lon="-0.03361">
        <ele>1845.9</ele>
        <time>2023-10-31T13:04:35Z</time>
      </trkpt>
      <trkpt lat="42.80177" lon="-0.03361">
        <ele>1845.9</ele>
        <time>2023-10-31T13:04:36Z</time>
      </trkpt>
      <trkpt lat="42.80177" lon="-0.03362">
        <ele>1845.8</ele>
        <time>2023-10-31T13:04:38Z</time>
      </trkpt>
      <trkpt lat="42.80177" lon="-0.03362">
        <ele>1845.8</ele>
        <time>2023-10-31T13:04:39Z</time>
      </trkpt>
      <trkpt lat="42.80177" lon="-0.03361">
        <ele>1845.7</ele>
        <time>2023-10-31T13:04:41Z</time>
      </trkpt>
      <trkpt lat="42.80177" lon="-0.03361">
        <ele>1845.7</ele>
        <time>2023-10-31T13:04:42Z</time>
      </trkpt>
      <trkpt lat="42.80176" lon="-0.03361">
        <ele>1845.7</ele>
        <time>2023-10-31T13:04:43Z</time>
      </trkpt>
      <trkpt lat="42.80177" lon="-0.0336">
        <ele>1845.5</ele>
        <time>2023-10-31T13:04:44Z</time>
      </trkpt>
      <trkpt lat="42.80177" lon="-0.0336">
        <ele>1845.5</ele>
        <time>2023-10-31T13:04:45Z</time>
      </trkpt>
      <trkpt lat="42.80177" lon="-0.0336">
        <ele>1845.5</ele>
        <time>2023-10-31T13:04:46Z</time>
      </trkpt>
      <trkpt lat="42.80177" lon="-0.03361">
        <ele>1845.4</ele>
        <time>2023-10-31T13:04:47Z</time>
      </trkpt>
      <trkpt lat="42.80178" lon="-0.0336">
        <ele>1845.2</ele>
        <time>2023-10-31T13:04:48Z</time>
      </trkpt>
      <trkpt lat="42.80178" lon="-0.0336">
        <ele>1845.1</ele>
        <time>2023-10-31T13:04:49Z</time>
      </trkpt>
      <trkpt lat="42.80179" lon="-0.03359">
        <ele>1845</ele>
        <time>2023-10-31T13:04:50Z</time>
      </trkpt>
      <trkpt lat="42.8018" lon="-0.03359">
        <ele>1844.9</ele>
        <time>2023-10-31T13:04:51Z</time>
      </trkpt>
      <trkpt lat="42.80181" lon="-0.03358">
        <ele>1844.7</ele>
        <time>2023-10-31T13:04:52Z</time>
      </trkpt>
      <trkpt lat="42.80182" lon="-0.03358">
        <ele>1844.6</ele>
        <time>2023-10-31T13:04:53Z</time>
      </trkpt>
      <trkpt lat="42.80183" lon="-0.03357">
        <ele>1844.5</ele>
        <time>2023-10-31T13:04:54Z</time>
      </trkpt>
      <trkpt lat="42.80184" lon="-0.03356">
        <ele>1844.4</ele>
        <time>2023-10-31T13:04:55Z</time>
      </trkpt>
      <trkpt lat="42.80184" lon="-0.03355">
        <ele>1844.3</ele>
        <time>2023-10-31T13:04:56Z</time>
      </trkpt>
      <trkpt lat="42.80185" lon="-0.03355">
        <ele>1844.2</ele>
        <time>2023-10-31T13:04:57Z</time>
      </trkpt>
      <trkpt lat="42.80185" lon="-0.03354">
        <ele>1844.1</ele>
        <time>2023-10-31T13:04:58Z</time>
      </trkpt>
      <trkpt lat="42.80186" lon="-0.03353">
        <ele>1844</ele>
        <time>2023-10-31T13:04:59Z</time>
      </trkpt>
      <trkpt lat="42.80187" lon="-0.03353">
        <ele>1843.9</ele>
        <time>2023-10-31T13:05:00Z</time>
      </trkpt>
      <trkpt lat="42.80187" lon="-0.03352">
        <ele>1843.8</ele>
        <time>2023-10-31T13:05:01Z</time>
      </trkpt>
      <trkpt lat="42.80188" lon="-0.03351">
        <ele>1843.6</ele>
        <time>2023-10-31T13:05:02Z</time>
      </trkpt>
      <trkpt lat="42.80189" lon="-0.0335">
        <ele>1843.6</ele>
        <time>2023-10-31T13:05:03Z</time>
      </trkpt>
      <trkpt lat="42.80189" lon="-0.0335">
        <ele>1843.5</ele>
        <time>2023-10-31T13:05:04Z</time>
      </trkpt>
      <trkpt lat="42.80189" lon="-0.0335">
        <ele>1843.5</ele>
        <time>2023-10-31T13:05:05Z</time>
      </trkpt>
      <trkpt lat="42.80189" lon="-0.0335">
        <ele>1843.5</ele>
        <time>2023-10-31T13:05:06Z</time>
      </trkpt>
      <trkpt lat="42.80189" lon="-0.03349">
        <ele>1843.3</ele>
        <time>2023-10-31T13:05:07Z</time>
      </trkpt>
      <trkpt lat="42.80189" lon="-0.03348">
        <ele>1843.3</ele>
        <time>2023-10-31T13:05:08Z</time>
      </trkpt>
      <trkpt lat="42.80189" lon="-0.03348">
        <ele>1843.3</ele>
        <time>2023-10-31T13:05:09Z</time>
      </trkpt>
      <trkpt lat="42.80189" lon="-0.03348">
        <ele>1843.3</ele>
        <time>2023-10-31T13:05:10Z</time>
      </trkpt>
      <trkpt lat="42.80189" lon="-0.03348">
        <ele>1843.2</ele>
        <time>2023-10-31T13:05:11Z</time>
      </trkpt>
      <trkpt lat="42.80188" lon="-0.03348">
        <ele>1843</ele>
        <time>2023-10-31T13:05:12Z</time>
      </trkpt>
      <trkpt lat="42.80189" lon="-0.03348">
        <ele>1842.9</ele>
        <time>2023-10-31T13:05:13Z</time>
      </trkpt>
      <trkpt lat="42.80188" lon="-0.03348">
        <ele>1842.7</ele>
        <time>2023-10-31T13:05:14Z</time>
      </trkpt>
      <trkpt lat="42.80188" lon="-0.03348">
        <ele>1842.5</ele>
        <time>2023-10-31T13:05:15Z</time>
      </trkpt>
      <trkpt lat="42.80187" lon="-0.03348">
        <ele>1842.2</ele>
        <time>2023-10-31T13:05:16Z</time>
      </trkpt>
      <trkpt lat="42.80186" lon="-0.03348">
        <ele>1841.7</ele>
        <time>2023-10-31T13:05:17Z</time>
      </trkpt>
      <trkpt lat="42.80186" lon="-0.03348">
        <ele>1841.6</ele>
        <time>2023-10-31T13:05:18Z</time>
      </trkpt>
      <trkpt lat="42.80184" lon="-0.03349">
        <ele>1840.8</ele>
        <time>2023-10-31T13:05:19Z</time>
      </trkpt>
      <trkpt lat="42.80182" lon="-0.03351">
        <ele>1839.8</ele>
        <time>2023-10-31T13:05:20Z</time>
      </trkpt>
      <trkpt lat="42.80182" lon="-0.03351">
        <ele>1839.5</ele>
        <time>2023-10-31T13:05:21Z</time>
      </trkpt>
      <trkpt lat="42.80181" lon="-0.03351">
        <ele>1839.2</ele>
        <time>2023-10-31T13:05:22Z</time>
      </trkpt>
      <trkpt lat="42.8018" lon="-0.03352">
        <ele>1838.9</ele>
        <time>2023-10-31T13:05:23Z</time>
      </trkpt>
      <trkpt lat="42.8018" lon="-0.03351">
        <ele>1838.6</ele>
        <time>2023-10-31T13:05:24Z</time>
      </trkpt>
      <trkpt lat="42.8018" lon="-0.0335">
        <ele>1838.3</ele>
        <time>2023-10-31T13:05:25Z</time>
      </trkpt>
      <trkpt lat="42.8018" lon="-0.0335">
        <ele>1838.1</ele>
        <time>2023-10-31T13:05:26Z</time>
      </trkpt>
      <trkpt lat="42.8018" lon="-0.0335">
        <ele>1837.9</ele>
        <time>2023-10-31T13:05:27Z</time>
      </trkpt>
      <trkpt lat="42.80179" lon="-0.03349">
        <ele>1837.6</ele>
        <time>2023-10-31T13:05:28Z</time>
      </trkpt>
      <trkpt lat="42.80178" lon="-0.03348">
        <ele>1837</ele>
        <time>2023-10-31T13:05:29Z</time>
      </trkpt>
      <trkpt lat="42.80177" lon="-0.03347">
        <ele>1836.5</ele>
        <time>2023-10-31T13:05:30Z</time>
      </trkpt>
      <trkpt lat="42.80177" lon="-0.03347">
        <ele>1836.3</ele>
        <time>2023-10-31T13:05:31Z</time>
      </trkpt>
      <trkpt lat="42.80177" lon="-0.03347">
        <ele>1836.1</ele>
        <time>2023-10-31T13:05:32Z</time>
      </trkpt>
      <trkpt lat="42.80176" lon="-0.03347">
        <ele>1835.6</ele>
        <time>2023-10-31T13:05:33Z</time>
      </trkpt>
      <trkpt lat="42.80175" lon="-0.03348">
        <ele>1835.2</ele>
        <time>2023-10-31T13:05:34Z</time>
      </trkpt>
      <trkpt lat="42.80175" lon="-0.03347">
        <ele>1834.9</ele>
        <time>2023-10-31T13:05:35Z</time>
      </trkpt>
      <trkpt lat="42.80175" lon="-0.03346">
        <ele>1834.4</ele>
        <time>2023-10-31T13:05:36Z</time>
      </trkpt>
      <trkpt lat="42.80174" lon="-0.03346">
        <ele>1834.2</ele>
        <time>2023-10-31T13:05:37Z</time>
      </trkpt>
      <trkpt lat="42.80174" lon="-0.03347">
        <ele>1833.8</ele>
        <time>2023-10-31T13:05:38Z</time>
      </trkpt>
      <trkpt lat="42.80173" lon="-0.03347">
        <ele>1833.6</ele>
        <time>2023-10-31T13:05:39Z</time>
      </trkpt>
      <trkpt lat="42.80173" lon="-0.03347">
        <ele>1833.4</ele>
        <time>2023-10-31T13:05:40Z</time>
      </trkpt>
      <trkpt lat="42.80172" lon="-0.03347">
        <ele>1833.1</ele>
        <time>2023-10-31T13:05:41Z</time>
      </trkpt>
      <trkpt lat="42.80172" lon="-0.03346">
        <ele>1832.7</ele>
        <time>2023-10-31T13:05:42Z</time>
      </trkpt>
      <trkpt lat="42.80171" lon="-0.03346">
        <ele>1832.2</ele>
        <time>2023-10-31T13:05:43Z</time>
      </trkpt>
      <trkpt lat="42.8017" lon="-0.03346">
        <ele>1831.8</ele>
        <time>2023-10-31T13:05:44Z</time>
      </trkpt>
      <trkpt lat="42.8017" lon="-0.03346">
        <ele>1831.6</ele>
        <time>2023-10-31T13:05:45Z</time>
      </trkpt>
      <trkpt lat="42.8017" lon="-0.03346">
        <ele>1831.3</ele>
        <time>2023-10-31T13:05:46Z</time>
      </trkpt>
      <trkpt lat="42.8017" lon="-0.03346">
        <ele>1831.2</ele>
        <time>2023-10-31T13:05:47Z</time>
      </trkpt>
      <trkpt lat="42.80169" lon="-0.03346">
        <ele>1830.8</ele>
        <time>2023-10-31T13:05:48Z</time>
      </trkpt>
      <trkpt lat="42.80169" lon="-0.03345">
        <ele>1830.6</ele>
        <time>2023-10-31T13:05:49Z</time>
      </trkpt>
      <trkpt lat="42.80168" lon="-0.03344">
        <ele>1829.9</ele>
        <time>2023-10-31T13:05:50Z</time>
      </trkpt>
      <trkpt lat="42.80167" lon="-0.03343">
        <ele>1829.4</ele>
        <time>2023-10-31T13:05:51Z</time>
      </trkpt>
      <trkpt lat="42.80167" lon="-0.03344">
        <ele>1829.2</ele>
        <time>2023-10-31T13:05:52Z</time>
      </trkpt>
      <trkpt lat="42.80168" lon="-0.03344">
        <ele>1828.7</ele>
        <time>2023-10-31T13:05:53Z</time>
      </trkpt>
      <trkpt lat="42.80167" lon="-0.03343">
        <ele>1827.9</ele>
        <time>2023-10-31T13:05:54Z</time>
      </trkpt>
      <trkpt lat="42.80167" lon="-0.03343">
        <ele>1827.8</ele>
        <time>2023-10-31T13:05:55Z</time>
      </trkpt>
      <trkpt lat="42.80166" lon="-0.03343">
        <ele>1827.3</ele>
        <time>2023-10-31T13:05:56Z</time>
      </trkpt>
      <trkpt lat="42.80165" lon="-0.03343">
        <ele>1826.9</ele>
        <time>2023-10-31T13:05:57Z</time>
      </trkpt>
      <trkpt lat="42.80165" lon="-0.03343">
        <ele>1826.6</ele>
        <time>2023-10-31T13:05:58Z</time>
      </trkpt>
      <trkpt lat="42.80164" lon="-0.03343">
        <ele>1826.1</ele>
        <time>2023-10-31T13:05:59Z</time>
      </trkpt>
      <trkpt lat="42.80163" lon="-0.03343">
        <ele>1826</ele>
        <time>2023-10-31T13:06:00Z</time>
      </trkpt>
      <trkpt lat="42.80163" lon="-0.03342">
        <ele>1825.6</ele>
        <time>2023-10-31T13:06:01Z</time>
      </trkpt>
      <trkpt lat="42.80162" lon="-0.03341">
        <ele>1825</ele>
        <time>2023-10-31T13:06:02Z</time>
      </trkpt>
      <trkpt lat="42.80161" lon="-0.0334">
        <ele>1824.4</ele>
        <time>2023-10-31T13:06:03Z</time>
      </trkpt>
      <trkpt lat="42.8016" lon="-0.0334">
        <ele>1823.9</ele>
        <time>2023-10-31T13:06:04Z</time>
      </trkpt>
      <trkpt lat="42.8016" lon="-0.03339">
        <ele>1823.5</ele>
        <time>2023-10-31T13:06:05Z</time>
      </trkpt>
      <trkpt lat="42.80159" lon="-0.03339">
        <ele>1823.2</ele>
        <time>2023-10-31T13:06:06Z</time>
      </trkpt>
      <trkpt lat="42.80159" lon="-0.03338">
        <ele>1822.8</ele>
        <time>2023-10-31T13:06:07Z</time>
      </trkpt>
      <trkpt lat="42.80158" lon="-0.03339">
        <ele>1822.4</ele>
        <time>2023-10-31T13:06:08Z</time>
      </trkpt>
      <trkpt lat="42.80157" lon="-0.03339">
        <ele>1822.1</ele>
        <time>2023-10-31T13:06:09Z</time>
      </trkpt>
      <trkpt lat="42.80158" lon="-0.03339">
        <ele>1821.8</ele>
        <time>2023-10-31T13:06:10Z</time>
      </trkpt>
      <trkpt lat="42.80157" lon="-0.03337">
        <ele>1821.2</ele>
        <time>2023-10-31T13:06:11Z</time>
      </trkpt>
      <trkpt lat="42.80156" lon="-0.03335">
        <ele>1820.3</ele>
        <time>2023-10-31T13:06:12Z</time>
      </trkpt>
      <trkpt lat="42.80155" lon="-0.03335">
        <ele>1819.8</ele>
        <time>2023-10-31T13:06:13Z</time>
      </trkpt>
      <trkpt lat="42.80155" lon="-0.03335">
        <ele>1819.5</ele>
        <time>2023-10-31T13:06:14Z</time>
      </trkpt>
      <trkpt lat="42.80155" lon="-0.03335">
        <ele>1819.3</ele>
        <time>2023-10-31T13:06:15Z</time>
      </trkpt>
      <trkpt lat="42.80154" lon="-0.03334">
        <ele>1818.9</ele>
        <time>2023-10-31T13:06:16Z</time>
      </trkpt>
      <trkpt lat="42.80153" lon="-0.03333">
        <ele>1818.6</ele>
        <time>2023-10-31T13:06:17Z</time>
      </trkpt>
      <trkpt lat="42.80154" lon="-0.0333">
        <ele>1817.7</ele>
        <time>2023-10-31T13:06:18Z</time>
      </trkpt>
      <trkpt lat="42.80154" lon="-0.03329">
        <ele>1817.2</ele>
        <time>2023-10-31T13:06:19Z</time>
      </trkpt>
      <trkpt lat="42.80155" lon="-0.03329">
        <ele>1816.9</ele>
        <time>2023-10-31T13:06:20Z</time>
      </trkpt>
      <trkpt lat="42.80156" lon="-0.03329">
        <ele>1816.5</ele>
        <time>2023-10-31T13:06:21Z</time>
      </trkpt>
      <trkpt lat="42.80157" lon="-0.03329">
        <ele>1816.1</ele>
        <time>2023-10-31T13:06:22Z</time>
      </trkpt>
      <trkpt lat="42.80157" lon="-0.03328">
        <ele>1815.8</ele>
        <time>2023-10-31T13:06:23Z</time>
      </trkpt>
      <trkpt lat="42.80158" lon="-0.03328">
        <ele>1815.6</ele>
        <time>2023-10-31T13:06:24Z</time>
      </trkpt>
      <trkpt lat="42.80158" lon="-0.03328">
        <ele>1815.5</ele>
        <time>2023-10-31T13:06:25Z</time>
      </trkpt>
      <trkpt lat="42.80158" lon="-0.03327">
        <ele>1815.3</ele>
        <time>2023-10-31T13:06:26Z</time>
      </trkpt>
      <trkpt lat="42.80158" lon="-0.03326">
        <ele>1815</ele>
        <time>2023-10-31T13:06:27Z</time>
      </trkpt>
      <trkpt lat="42.80159" lon="-0.03325">
        <ele>1814.5</ele>
        <time>2023-10-31T13:06:28Z</time>
      </trkpt>
      <trkpt lat="42.80159" lon="-0.03324">
        <ele>1814.2</ele>
        <time>2023-10-31T13:06:29Z</time>
      </trkpt>
      <trkpt lat="42.80159" lon="-0.03324">
        <ele>1814.1</ele>
        <time>2023-10-31T13:06:30Z</time>
      </trkpt>
      <trkpt lat="42.80159" lon="-0.03324">
        <ele>1814.1</ele>
        <time>2023-10-31T13:06:31Z</time>
      </trkpt>
      <trkpt lat="42.8016" lon="-0.03324">
        <ele>1813.8</ele>
        <time>2023-10-31T13:06:32Z</time>
      </trkpt>
      <trkpt lat="42.80159" lon="-0.03323">
        <ele>1813.7</ele>
        <time>2023-10-31T13:06:33Z</time>
      </trkpt>
      <trkpt lat="42.80159" lon="-0.03323">
        <ele>1813.5</ele>
        <time>2023-10-31T13:06:34Z</time>
      </trkpt>
      <trkpt lat="42.80159" lon="-0.03322">
        <ele>1813.4</ele>
        <time>2023-10-31T13:06:35Z</time>
      </trkpt>
      <trkpt lat="42.80159" lon="-0.03322">
        <ele>1813.2</ele>
        <time>2023-10-31T13:06:36Z</time>
      </trkpt>
      <trkpt lat="42.80158" lon="-0.03322">
        <ele>1812.9</ele>
        <time>2023-10-31T13:06:37Z</time>
      </trkpt>
      <trkpt lat="42.80158" lon="-0.03322">
        <ele>1812.8</ele>
        <time>2023-10-31T13:06:38Z</time>
      </trkpt>
      <trkpt lat="42.80158" lon="-0.03322">
        <ele>1812.7</ele>
        <time>2023-10-31T13:06:39Z</time>
      </trkpt>
      <trkpt lat="42.80158" lon="-0.03322">
        <ele>1812.5</ele>
        <time>2023-10-31T13:06:40Z</time>
      </trkpt>
      <trkpt lat="42.80157" lon="-0.03323">
        <ele>1812.3</ele>
        <time>2023-10-31T13:06:41Z</time>
      </trkpt>
      <trkpt lat="42.80156" lon="-0.03322">
        <ele>1811.9</ele>
        <time>2023-10-31T13:06:42Z</time>
      </trkpt>
      <trkpt lat="42.80157" lon="-0.03322">
        <ele>1811.7</ele>
        <time>2023-10-31T13:06:43Z</time>
      </trkpt>
      <trkpt lat="42.80157" lon="-0.03321">
        <ele>1811.5</ele>
        <time>2023-10-31T13:06:44Z</time>
      </trkpt>
      <trkpt lat="42.80157" lon="-0.0332">
        <ele>1811.1</ele>
        <time>2023-10-31T13:06:45Z</time>
      </trkpt>
      <trkpt lat="42.80156" lon="-0.0332">
        <ele>1810.5</ele>
        <time>2023-10-31T13:06:47Z</time>
      </trkpt>
      <trkpt lat="42.80156" lon="-0.03319">
        <ele>1810.3</ele>
        <time>2023-10-31T13:06:48Z</time>
      </trkpt>
      <trkpt lat="42.80156" lon="-0.03319">
        <ele>1810.2</ele>
        <time>2023-10-31T13:06:49Z</time>
      </trkpt>
      <trkpt lat="42.80155" lon="-0.03318">
        <ele>1809.8</ele>
        <time>2023-10-31T13:06:50Z</time>
      </trkpt>
      <trkpt lat="42.80155" lon="-0.03317">
        <ele>1809.5</ele>
        <time>2023-10-31T13:06:51Z</time>
      </trkpt>
      <trkpt lat="42.80154" lon="-0.03315">
        <ele>1809</ele>
        <time>2023-10-31T13:06:52Z</time>
      </trkpt>
      <trkpt lat="42.80154" lon="-0.03315">
        <ele>1808.9</ele>
        <time>2023-10-31T13:06:53Z</time>
      </trkpt>
      <trkpt lat="42.80154" lon="-0.03314">
        <ele>1808.5</ele>
        <time>2023-10-31T13:06:54Z</time>
      </trkpt>
      <trkpt lat="42.80153" lon="-0.03313">
        <ele>1808.4</ele>
        <time>2023-10-31T13:06:55Z</time>
      </trkpt>
      <trkpt lat="42.80152" lon="-0.03313">
        <ele>1808</ele>
        <time>2023-10-31T13:06:56Z</time>
      </trkpt>
      <trkpt lat="42.80152" lon="-0.03313">
        <ele>1807.8</ele>
        <time>2023-10-31T13:06:57Z</time>
      </trkpt>
      <trkpt lat="42.80151" lon="-0.03312">
        <ele>1807.5</ele>
        <time>2023-10-31T13:06:58Z</time>
      </trkpt>
      <trkpt lat="42.8015" lon="-0.03313">
        <ele>1807.1</ele>
        <time>2023-10-31T13:06:59Z</time>
      </trkpt>
      <trkpt lat="42.80149" lon="-0.03313">
        <ele>1806.6</ele>
        <time>2023-10-31T13:07:00Z</time>
      </trkpt>
      <trkpt lat="42.80147" lon="-0.03313">
        <ele>1806.1</ele>
        <time>2023-10-31T13:07:01Z</time>
      </trkpt>
      <trkpt lat="42.80147" lon="-0.03313">
        <ele>1806</ele>
        <time>2023-10-31T13:07:02Z</time>
      </trkpt>
      <trkpt lat="42.80146" lon="-0.03312">
        <ele>1805.5</ele>
        <time>2023-10-31T13:07:03Z</time>
      </trkpt>
      <trkpt lat="42.80146" lon="-0.03311">
        <ele>1805</ele>
        <time>2023-10-31T13:07:04Z</time>
      </trkpt>
      <trkpt lat="42.80147" lon="-0.0331">
        <ele>1804.7</ele>
        <time>2023-10-31T13:07:05Z</time>
      </trkpt>
      <trkpt lat="42.80148" lon="-0.03309">
        <ele>1804.4</ele>
        <time>2023-10-31T13:07:06Z</time>
      </trkpt>
      <trkpt lat="42.80149" lon="-0.03309">
        <ele>1804.2</ele>
        <time>2023-10-31T13:07:07Z</time>
      </trkpt>
      <trkpt lat="42.80149" lon="-0.03308">
        <ele>1804</ele>
        <time>2023-10-31T13:07:08Z</time>
      </trkpt>
      <trkpt lat="42.8015" lon="-0.03309">
        <ele>1803.8</ele>
        <time>2023-10-31T13:07:09Z</time>
      </trkpt>
      <trkpt lat="42.8015" lon="-0.03309">
        <ele>1803.6</ele>
        <time>2023-10-31T13:07:10Z</time>
      </trkpt>
      <trkpt lat="42.8015" lon="-0.03308">
        <ele>1803.4</ele>
        <time>2023-10-31T13:07:11Z</time>
      </trkpt>
      <trkpt lat="42.80151" lon="-0.03307">
        <ele>1803</ele>
        <time>2023-10-31T13:07:12Z</time>
      </trkpt>
      <trkpt lat="42.80152" lon="-0.03306">
        <ele>1802.7</ele>
        <time>2023-10-31T13:07:13Z</time>
      </trkpt>
      <trkpt lat="42.80152" lon="-0.03306">
        <ele>1802.5</ele>
        <time>2023-10-31T13:07:14Z</time>
      </trkpt>
      <trkpt lat="42.80153" lon="-0.03306">
        <ele>1802.4</ele>
        <time>2023-10-31T13:07:15Z</time>
      </trkpt>
      <trkpt lat="42.80152" lon="-0.03306">
        <ele>1802.3</ele>
        <time>2023-10-31T13:07:16Z</time>
      </trkpt>
      <trkpt lat="42.80153" lon="-0.03305">
        <ele>1802.1</ele>
        <time>2023-10-31T13:07:17Z</time>
      </trkpt>
      <trkpt lat="42.80152" lon="-0.03304">
        <ele>1801.9</ele>
        <time>2023-10-31T13:07:18Z</time>
      </trkpt>
      <trkpt lat="42.80152" lon="-0.03304">
        <ele>1801.6</ele>
        <time>2023-10-31T13:07:19Z</time>
      </trkpt>
      <trkpt lat="42.80151" lon="-0.03303">
        <ele>1801.4</ele>
        <time>2023-10-31T13:07:20Z</time>
      </trkpt>
      <trkpt lat="42.80151" lon="-0.03303">
        <ele>1801.3</ele>
        <time>2023-10-31T13:07:21Z</time>
      </trkpt>
      <trkpt lat="42.80151" lon="-0.03303">
        <ele>1801.3</ele>
        <time>2023-10-31T13:07:22Z</time>
      </trkpt>
      <trkpt lat="42.80151" lon="-0.03303">
        <ele>1801.2</ele>
        <time>2023-10-31T13:07:23Z</time>
      </trkpt>
      <trkpt lat="42.80151" lon="-0.03302">
        <ele>1800.9</ele>
        <time>2023-10-31T13:07:24Z</time>
      </trkpt>
      <trkpt lat="42.8015" lon="-0.03301">
        <ele>1800.7</ele>
        <time>2023-10-31T13:07:25Z</time>
      </trkpt>
      <trkpt lat="42.80149" lon="-0.03301">
        <ele>1800.4</ele>
        <time>2023-10-31T13:07:26Z</time>
      </trkpt>
      <trkpt lat="42.80149" lon="-0.033">
        <ele>1800.3</ele>
        <time>2023-10-31T13:07:27Z</time>
      </trkpt>
      <trkpt lat="42.80148" lon="-0.033">
        <ele>1800.1</ele>
        <time>2023-10-31T13:07:28Z</time>
      </trkpt>
      <trkpt lat="42.80147" lon="-0.03299">
        <ele>1799.7</ele>
        <time>2023-10-31T13:07:29Z</time>
      </trkpt>
      <trkpt lat="42.80146" lon="-0.03299">
        <ele>1799.5</ele>
        <time>2023-10-31T13:07:30Z</time>
      </trkpt>
      <trkpt lat="42.80146" lon="-0.03299">
        <ele>1799.2</ele>
        <time>2023-10-31T13:07:31Z</time>
      </trkpt>
      <trkpt lat="42.80145" lon="-0.03298">
        <ele>1799</ele>
        <time>2023-10-31T13:07:32Z</time>
      </trkpt>
      <trkpt lat="42.80144" lon="-0.03298">
        <ele>1798.6</ele>
        <time>2023-10-31T13:07:33Z</time>
      </trkpt>
      <trkpt lat="42.80144" lon="-0.03298">
        <ele>1798.6</ele>
        <time>2023-10-31T13:07:34Z</time>
      </trkpt>
      <trkpt lat="42.80144" lon="-0.03298">
        <ele>1798.3</ele>
        <time>2023-10-31T13:07:35Z</time>
      </trkpt>
      <trkpt lat="42.80145" lon="-0.03297">
        <ele>1798.1</ele>
        <time>2023-10-31T13:07:36Z</time>
      </trkpt>
      <trkpt lat="42.80146" lon="-0.03297">
        <ele>1797.9</ele>
        <time>2023-10-31T13:07:37Z</time>
      </trkpt>
      <trkpt lat="42.80146" lon="-0.03296">
        <ele>1797.8</ele>
        <time>2023-10-31T13:07:38Z</time>
      </trkpt>
      <trkpt lat="42.80146" lon="-0.03295">
        <ele>1797.5</ele>
        <time>2023-10-31T13:07:39Z</time>
      </trkpt>
      <trkpt lat="42.80148" lon="-0.03295">
        <ele>1797.2</ele>
        <time>2023-10-31T13:07:40Z</time>
      </trkpt>
      <trkpt lat="42.80148" lon="-0.03295">
        <ele>1797</ele>
        <time>2023-10-31T13:07:41Z</time>
      </trkpt>
      <trkpt lat="42.80149" lon="-0.03295">
        <ele>1796.8</ele>
        <time>2023-10-31T13:07:42Z</time>
      </trkpt>
      <trkpt lat="42.80149" lon="-0.03294">
        <ele>1796.7</ele>
        <time>2023-10-31T13:07:43Z</time>
      </trkpt>
      <trkpt lat="42.80149" lon="-0.03294">
        <ele>1796.6</ele>
        <time>2023-10-31T13:07:44Z</time>
      </trkpt>
      <trkpt lat="42.80149" lon="-0.03293">
        <ele>1796.4</ele>
        <time>2023-10-31T13:07:45Z</time>
      </trkpt>
      <trkpt lat="42.80149" lon="-0.03293">
        <ele>1796.4</ele>
        <time>2023-10-31T13:07:46Z</time>
      </trkpt>
      <trkpt lat="42.80149" lon="-0.03293">
        <ele>1796.4</ele>
        <time>2023-10-31T13:07:47Z</time>
      </trkpt>
      <trkpt lat="42.80149" lon="-0.03293">
        <ele>1796.4</ele>
        <time>2023-10-31T13:07:48Z</time>
      </trkpt>
      <trkpt lat="42.80149" lon="-0.03293">
        <ele>1796.4</ele>
        <time>2023-10-31T13:07:49Z</time>
      </trkpt>
      <trkpt lat="42.80149" lon="-0.03293">
        <ele>1796.4</ele>
        <time>2023-10-31T13:07:50Z</time>
      </trkpt>
      <trkpt lat="42.80149" lon="-0.03293">
        <ele>1796.4</ele>
        <time>2023-10-31T13:07:51Z</time>
      </trkpt>
      <trkpt lat="42.80149" lon="-0.03293">
        <ele>1796.4</ele>
        <time>2023-10-31T13:07:52Z</time>
      </trkpt>
      <trkpt lat="42.80149" lon="-0.03293">
        <ele>1796.4</ele>
        <time>2023-10-31T13:07:53Z</time>
      </trkpt>
      <trkpt lat="42.80149" lon="-0.03293">
        <ele>1796.4</ele>
        <time>2023-10-31T13:07:54Z</time>
      </trkpt>
      <trkpt lat="42.80149" lon="-0.03293">
        <ele>1796.4</ele>
        <time>2023-10-31T13:07:55Z</time>
      </trkpt>
      <trkpt lat="42.80149" lon="-0.03293">
        <ele>1796.4</ele>
        <time>2023-10-31T13:07:56Z</time>
      </trkpt>
      <trkpt lat="42.8015" lon="-0.03293">
        <ele>1796.3</ele>
        <time>2023-10-31T13:07:57Z</time>
      </trkpt>
      <trkpt lat="42.8015" lon="-0.03293">
        <ele>1796.3</ele>
        <time>2023-10-31T13:07:58Z</time>
      </trkpt>
      <trkpt lat="42.80149" lon="-0.03293">
        <ele>1796.2</ele>
        <time>2023-10-31T13:07:59Z</time>
      </trkpt>
      <trkpt lat="42.80149" lon="-0.03293">
        <ele>1796.2</ele>
        <time>2023-10-31T13:08:00Z</time>
      </trkpt>
      <trkpt lat="42.80149" lon="-0.03293">
        <ele>1796.1</ele>
        <time>2023-10-31T13:08:01Z</time>
      </trkpt>
      <trkpt lat="42.80149" lon="-0.03292">
        <ele>1796</ele>
        <time>2023-10-31T13:08:02Z</time>
      </trkpt>
      <trkpt lat="42.80149" lon="-0.03293">
        <ele>1795.8</ele>
        <time>2023-10-31T13:08:03Z</time>
      </trkpt>
      <trkpt lat="42.80149" lon="-0.03293">
        <ele>1795.8</ele>
        <time>2023-10-31T13:08:04Z</time>
      </trkpt>
      <trkpt lat="42.80148" lon="-0.03293">
        <ele>1795.7</ele>
        <time>2023-10-31T13:08:05Z</time>
      </trkpt>
      <trkpt lat="42.80148" lon="-0.03293">
        <ele>1795.6</ele>
        <time>2023-10-31T13:08:06Z</time>
      </trkpt>
      <trkpt lat="42.80148" lon="-0.03291">
        <ele>1795.4</ele>
        <time>2023-10-31T13:08:07Z</time>
      </trkpt>
      <trkpt lat="42.80147" lon="-0.03292">
        <ele>1795.2</ele>
        <time>2023-10-31T13:08:08Z</time>
      </trkpt>
      <trkpt lat="42.80146" lon="-0.03292">
        <ele>1795</ele>
        <time>2023-10-31T13:08:09Z</time>
      </trkpt>
      <trkpt lat="42.80145" lon="-0.03292">
        <ele>1794.8</ele>
        <time>2023-10-31T13:08:10Z</time>
      </trkpt>
      <trkpt lat="42.80145" lon="-0.03292">
        <ele>1794.7</ele>
        <time>2023-10-31T13:08:11Z</time>
      </trkpt>
      <trkpt lat="42.80145" lon="-0.03293">
        <ele>1794.7</ele>
        <time>2023-10-31T13:08:12Z</time>
      </trkpt>
      <trkpt lat="42.80145" lon="-0.03292">
        <ele>1794.6</ele>
        <time>2023-10-31T13:08:13Z</time>
      </trkpt>
      <trkpt lat="42.80145" lon="-0.03292">
        <ele>1794.4</ele>
        <time>2023-10-31T13:08:14Z</time>
      </trkpt>
      <trkpt lat="42.80144" lon="-0.03291">
        <ele>1794.3</ele>
        <time>2023-10-31T13:08:15Z</time>
      </trkpt>
      <trkpt lat="42.80144" lon="-0.0329">
        <ele>1794.1</ele>
        <time>2023-10-31T13:08:16Z</time>
      </trkpt>
      <trkpt lat="42.80143" lon="-0.0329">
        <ele>1794</ele>
        <time>2023-10-31T13:08:17Z</time>
      </trkpt>
      <trkpt lat="42.80142" lon="-0.03289">
        <ele>1793.8</ele>
        <time>2023-10-31T13:08:18Z</time>
      </trkpt>
      <trkpt lat="42.80141" lon="-0.03288">
        <ele>1793.6</ele>
        <time>2023-10-31T13:08:19Z</time>
      </trkpt>
      <trkpt lat="42.80141" lon="-0.03288">
        <ele>1793.6</ele>
        <time>2023-10-31T13:08:20Z</time>
      </trkpt>
      <trkpt lat="42.80139" lon="-0.03287">
        <ele>1793.3</ele>
        <time>2023-10-31T13:08:21Z</time>
      </trkpt>
      <trkpt lat="42.80139" lon="-0.03288">
        <ele>1793.3</ele>
        <time>2023-10-31T13:08:22Z</time>
      </trkpt>
      <trkpt lat="42.80138" lon="-0.03287">
        <ele>1793.1</ele>
        <time>2023-10-31T13:08:23Z</time>
      </trkpt>
      <trkpt lat="42.80137" lon="-0.03287">
        <ele>1792.9</ele>
        <time>2023-10-31T13:08:24Z</time>
      </trkpt>
      <trkpt lat="42.80136" lon="-0.03287">
        <ele>1792.8</ele>
        <time>2023-10-31T13:08:25Z</time>
      </trkpt>
      <trkpt lat="42.80135" lon="-0.03286">
        <ele>1792.6</ele>
        <time>2023-10-31T13:08:26Z</time>
      </trkpt>
      <trkpt lat="42.80134" lon="-0.03285">
        <ele>1792.3</ele>
        <time>2023-10-31T13:08:27Z</time>
      </trkpt>
      <trkpt lat="42.80134" lon="-0.03286">
        <ele>1792.2</ele>
        <time>2023-10-31T13:08:28Z</time>
      </trkpt>
      <trkpt lat="42.80133" lon="-0.03286">
        <ele>1792.1</ele>
        <time>2023-10-31T13:08:29Z</time>
      </trkpt>
      <trkpt lat="42.80132" lon="-0.03287">
        <ele>1792</ele>
        <time>2023-10-31T13:08:30Z</time>
      </trkpt>
      <trkpt lat="42.80132" lon="-0.03286">
        <ele>1791.9</ele>
        <time>2023-10-31T13:08:31Z</time>
      </trkpt>
      <trkpt lat="42.80132" lon="-0.03285">
        <ele>1791.7</ele>
        <time>2023-10-31T13:08:32Z</time>
      </trkpt>
      <trkpt lat="42.8013" lon="-0.03284">
        <ele>1791.5</ele>
        <time>2023-10-31T13:08:33Z</time>
      </trkpt>
      <trkpt lat="42.8013" lon="-0.03284">
        <ele>1791.4</ele>
        <time>2023-10-31T13:08:34Z</time>
      </trkpt>
      <trkpt lat="42.80129" lon="-0.03283">
        <ele>1791.3</ele>
        <time>2023-10-31T13:08:35Z</time>
      </trkpt>
      <trkpt lat="42.80128" lon="-0.03282">
        <ele>1791.1</ele>
        <time>2023-10-31T13:08:36Z</time>
      </trkpt>
      <trkpt lat="42.80128" lon="-0.03282">
        <ele>1791</ele>
        <time>2023-10-31T13:08:37Z</time>
      </trkpt>
      <trkpt lat="42.80127" lon="-0.03282">
        <ele>1790.9</ele>
        <time>2023-10-31T13:08:38Z</time>
      </trkpt>
      <trkpt lat="42.80126" lon="-0.03282">
        <ele>1790.8</ele>
        <time>2023-10-31T13:08:39Z</time>
      </trkpt>
      <trkpt lat="42.80125" lon="-0.03281">
        <ele>1790.5</ele>
        <time>2023-10-31T13:08:40Z</time>
      </trkpt>
      <trkpt lat="42.80124" lon="-0.0328">
        <ele>1790.4</ele>
        <time>2023-10-31T13:08:41Z</time>
      </trkpt>
      <trkpt lat="42.80122" lon="-0.0328">
        <ele>1790.1</ele>
        <time>2023-10-31T13:08:43Z</time>
      </trkpt>
      <trkpt lat="42.80122" lon="-0.0328">
        <ele>1790</ele>
        <time>2023-10-31T13:08:44Z</time>
      </trkpt>
      <trkpt lat="42.80121" lon="-0.0328">
        <ele>1789.8</ele>
        <time>2023-10-31T13:08:45Z</time>
      </trkpt>
      <trkpt lat="42.80119" lon="-0.03279">
        <ele>1789.5</ele>
        <time>2023-10-31T13:08:46Z</time>
      </trkpt>
      <trkpt lat="42.80118" lon="-0.03279">
        <ele>1789.3</ele>
        <time>2023-10-31T13:08:47Z</time>
      </trkpt>
      <trkpt lat="42.80117" lon="-0.03278">
        <ele>1789.2</ele>
        <time>2023-10-31T13:08:48Z</time>
      </trkpt>
      <trkpt lat="42.80116" lon="-0.03277">
        <ele>1789</ele>
        <time>2023-10-31T13:08:49Z</time>
      </trkpt>
      <trkpt lat="42.80115" lon="-0.03277">
        <ele>1788.8</ele>
        <time>2023-10-31T13:08:50Z</time>
      </trkpt>
      <trkpt lat="42.80114" lon="-0.03278">
        <ele>1788.7</ele>
        <time>2023-10-31T13:08:51Z</time>
      </trkpt>
      <trkpt lat="42.80113" lon="-0.03277">
        <ele>1788.4</ele>
        <time>2023-10-31T13:08:52Z</time>
      </trkpt>
      <trkpt lat="42.80111" lon="-0.03276">
        <ele>1788.1</ele>
        <time>2023-10-31T13:08:53Z</time>
      </trkpt>
      <trkpt lat="42.8011" lon="-0.03275">
        <ele>1787.8</ele>
        <time>2023-10-31T13:08:54Z</time>
      </trkpt>
      <trkpt lat="42.80109" lon="-0.03275">
        <ele>1787.7</ele>
        <time>2023-10-31T13:08:55Z</time>
      </trkpt>
      <trkpt lat="42.80108" lon="-0.03275">
        <ele>1787.6</ele>
        <time>2023-10-31T13:08:56Z</time>
      </trkpt>
      <trkpt lat="42.80108" lon="-0.03274">
        <ele>1787.5</ele>
        <time>2023-10-31T13:08:57Z</time>
      </trkpt>
      <trkpt lat="42.80107" lon="-0.03274">
        <ele>1787.4</ele>
        <time>2023-10-31T13:08:58Z</time>
      </trkpt>
      <trkpt lat="42.80107" lon="-0.03274">
        <ele>1787.3</ele>
        <time>2023-10-31T13:08:59Z</time>
      </trkpt>
      <trkpt lat="42.80106" lon="-0.03273">
        <ele>1787</ele>
        <time>2023-10-31T13:09:00Z</time>
      </trkpt>
      <trkpt lat="42.80105" lon="-0.03273">
        <ele>1786.9</ele>
        <time>2023-10-31T13:09:01Z</time>
      </trkpt>
      <trkpt lat="42.80105" lon="-0.03273">
        <ele>1786.8</ele>
        <time>2023-10-31T13:09:02Z</time>
      </trkpt>
      <trkpt lat="42.80105" lon="-0.03272">
        <ele>1786.7</ele>
        <time>2023-10-31T13:09:03Z</time>
      </trkpt>
      <trkpt lat="42.80104" lon="-0.03271">
        <ele>1786.5</ele>
        <time>2023-10-31T13:09:04Z</time>
      </trkpt>
      <trkpt lat="42.80103" lon="-0.03271">
        <ele>1786.4</ele>
        <time>2023-10-31T13:09:05Z</time>
      </trkpt>
      <trkpt lat="42.80102" lon="-0.03271">
        <ele>1786.2</ele>
        <time>2023-10-31T13:09:06Z</time>
      </trkpt>
      <trkpt lat="42.80101" lon="-0.0327">
        <ele>1786</ele>
        <time>2023-10-31T13:09:07Z</time>
      </trkpt>
      <trkpt lat="42.80101" lon="-0.03269">
        <ele>1785.8</ele>
        <time>2023-10-31T13:09:08Z</time>
      </trkpt>
      <trkpt lat="42.80101" lon="-0.03268">
        <ele>1785.7</ele>
        <time>2023-10-31T13:09:09Z</time>
      </trkpt>
      <trkpt lat="42.801" lon="-0.03268">
        <ele>1785.6</ele>
        <time>2023-10-31T13:09:10Z</time>
      </trkpt>
      <trkpt lat="42.801" lon="-0.03267">
        <ele>1785.4</ele>
        <time>2023-10-31T13:09:11Z</time>
      </trkpt>
      <trkpt lat="42.80099" lon="-0.03267">
        <ele>1785.2</ele>
        <time>2023-10-31T13:09:12Z</time>
      </trkpt>
      <trkpt lat="42.80098" lon="-0.03266">
        <ele>1785</ele>
        <time>2023-10-31T13:09:13Z</time>
      </trkpt>
      <trkpt lat="42.80097" lon="-0.03265">
        <ele>1784.7</ele>
        <time>2023-10-31T13:09:14Z</time>
      </trkpt>
      <trkpt lat="42.80096" lon="-0.03265">
        <ele>1784.5</ele>
        <time>2023-10-31T13:09:15Z</time>
      </trkpt>
      <trkpt lat="42.80096" lon="-0.03265">
        <ele>1784.5</ele>
        <time>2023-10-31T13:09:16Z</time>
      </trkpt>
      <trkpt lat="42.80096" lon="-0.03265">
        <ele>1784.5</ele>
        <time>2023-10-31T13:09:17Z</time>
      </trkpt>
      <trkpt lat="42.80096" lon="-0.03265">
        <ele>1784.4</ele>
        <time>2023-10-31T13:09:18Z</time>
      </trkpt>
      <trkpt lat="42.80096" lon="-0.03265">
        <ele>1784.4</ele>
        <time>2023-10-31T13:09:19Z</time>
      </trkpt>
      <trkpt lat="42.80095" lon="-0.03265">
        <ele>1784.4</ele>
        <time>2023-10-31T13:09:20Z</time>
      </trkpt>
      <trkpt lat="42.80095" lon="-0.03265">
        <ele>1784.3</ele>
        <time>2023-10-31T13:09:21Z</time>
      </trkpt>
      <trkpt lat="42.80095" lon="-0.03265">
        <ele>1784.3</ele>
        <time>2023-10-31T13:09:22Z</time>
      </trkpt>
      <trkpt lat="42.80095" lon="-0.03265">
        <ele>1784.3</ele>
        <time>2023-10-31T13:09:23Z</time>
      </trkpt>
      <trkpt lat="42.80095" lon="-0.03265">
        <ele>1784.3</ele>
        <time>2023-10-31T13:09:24Z</time>
      </trkpt>
      <trkpt lat="42.80095" lon="-0.03265">
        <ele>1784.2</ele>
        <time>2023-10-31T13:09:25Z</time>
      </trkpt>
      <trkpt lat="42.80095" lon="-0.03265">
        <ele>1784.2</ele>
        <time>2023-10-31T13:09:26Z</time>
      </trkpt>
      <trkpt lat="42.80095" lon="-0.03265">
        <ele>1784.2</ele>
        <time>2023-10-31T13:09:27Z</time>
      </trkpt>
      <trkpt lat="42.80095" lon="-0.03264">
        <ele>1784.1</ele>
        <time>2023-10-31T13:09:28Z</time>
      </trkpt>
      <trkpt lat="42.80094" lon="-0.03264">
        <ele>1784.1</ele>
        <time>2023-10-31T13:09:29Z</time>
      </trkpt>
      <trkpt lat="42.80094" lon="-0.03264">
        <ele>1784.1</ele>
        <time>2023-10-31T13:09:30Z</time>
      </trkpt>
      <trkpt lat="42.80094" lon="-0.03264">
        <ele>1784.1</ele>
        <time>2023-10-31T13:09:31Z</time>
      </trkpt>
      <trkpt lat="42.80094" lon="-0.03264">
        <ele>1784</ele>
        <time>2023-10-31T13:09:32Z</time>
      </trkpt>
      <trkpt lat="42.80094" lon="-0.03264">
        <ele>1784</ele>
        <time>2023-10-31T13:09:33Z</time>
      </trkpt>
      <trkpt lat="42.80094" lon="-0.03264">
        <ele>1784</ele>
        <time>2023-10-31T13:09:34Z</time>
      </trkpt>
      <trkpt lat="42.80094" lon="-0.03264">
        <ele>1783.9</ele>
        <time>2023-10-31T13:09:35Z</time>
      </trkpt>
      <trkpt lat="42.80094" lon="-0.03264">
        <ele>1783.9</ele>
        <time>2023-10-31T13:09:36Z</time>
      </trkpt>
      <trkpt lat="42.80094" lon="-0.03264">
        <ele>1783.9</ele>
        <time>2023-10-31T13:09:37Z</time>
      </trkpt>
      <trkpt lat="42.80093" lon="-0.03264">
        <ele>1783.9</ele>
        <time>2023-10-31T13:09:38Z</time>
      </trkpt>
      <trkpt lat="42.80093" lon="-0.03264">
        <ele>1783.8</ele>
        <time>2023-10-31T13:09:39Z</time>
      </trkpt>
      <trkpt lat="42.80093" lon="-0.03264">
        <ele>1783.8</ele>
        <time>2023-10-31T13:09:40Z</time>
      </trkpt>
      <trkpt lat="42.80091" lon="-0.03262">
        <ele>1783.3</ele>
        <time>2023-10-31T13:09:41Z</time>
      </trkpt>
      <trkpt lat="42.80091" lon="-0.03262">
        <ele>1783.1</ele>
        <time>2023-10-31T13:09:42Z</time>
      </trkpt>
      <trkpt lat="42.8009" lon="-0.03262">
        <ele>1782.9</ele>
        <time>2023-10-31T13:09:43Z</time>
      </trkpt>
      <trkpt lat="42.80089" lon="-0.03263">
        <ele>1782.7</ele>
        <time>2023-10-31T13:09:44Z</time>
      </trkpt>
      <trkpt lat="42.80088" lon="-0.03263">
        <ele>1782.5</ele>
        <time>2023-10-31T13:09:45Z</time>
      </trkpt>
      <trkpt lat="42.80087" lon="-0.03263">
        <ele>1782.2</ele>
        <time>2023-10-31T13:09:46Z</time>
      </trkpt>
      <trkpt lat="42.80086" lon="-0.03262">
        <ele>1782</ele>
        <time>2023-10-31T13:09:47Z</time>
      </trkpt>
      <trkpt lat="42.80086" lon="-0.0326">
        <ele>1781.7</ele>
        <time>2023-10-31T13:09:48Z</time>
      </trkpt>
      <trkpt lat="42.80087" lon="-0.03259">
        <ele>1781.5</ele>
        <time>2023-10-31T13:09:49Z</time>
      </trkpt>
      <trkpt lat="42.80087" lon="-0.03258">
        <ele>1781.3</ele>
        <time>2023-10-31T13:09:50Z</time>
      </trkpt>
      <trkpt lat="42.80088" lon="-0.03257">
        <ele>1781.1</ele>
        <time>2023-10-31T13:09:51Z</time>
      </trkpt>
      <trkpt lat="42.80088" lon="-0.03254">
        <ele>1780.6</ele>
        <time>2023-10-31T13:09:52Z</time>
      </trkpt>
      <trkpt lat="42.80088" lon="-0.03253">
        <ele>1780.4</ele>
        <time>2023-10-31T13:09:53Z</time>
      </trkpt>
      <trkpt lat="42.80089" lon="-0.03252">
        <ele>1780.1</ele>
        <time>2023-10-31T13:09:54Z</time>
      </trkpt>
      <trkpt lat="42.8009" lon="-0.03251">
        <ele>1779.9</ele>
        <time>2023-10-31T13:09:55Z</time>
      </trkpt>
      <trkpt lat="42.8009" lon="-0.03251">
        <ele>1779.9</ele>
        <time>2023-10-31T13:09:56Z</time>
      </trkpt>
      <trkpt lat="42.8009" lon="-0.0325">
        <ele>1779.7</ele>
        <time>2023-10-31T13:09:57Z</time>
      </trkpt>
      <trkpt lat="42.8009" lon="-0.03248">
        <ele>1779.4</ele>
        <time>2023-10-31T13:09:58Z</time>
      </trkpt>
      <trkpt lat="42.80091" lon="-0.03247">
        <ele>1779.1</ele>
        <time>2023-10-31T13:09:59Z</time>
      </trkpt>
      <trkpt lat="42.80091" lon="-0.03247">
        <ele>1779</ele>
        <time>2023-10-31T13:10:00Z</time>
      </trkpt>
      <trkpt lat="42.80092" lon="-0.03246">
        <ele>1778.7</ele>
        <time>2023-10-31T13:10:01Z</time>
      </trkpt>
      <trkpt lat="42.80092" lon="-0.03245">
        <ele>1778.6</ele>
        <time>2023-10-31T13:10:02Z</time>
      </trkpt>
      <trkpt lat="42.80093" lon="-0.03244">
        <ele>1778.4</ele>
        <time>2023-10-31T13:10:03Z</time>
      </trkpt>
      <trkpt lat="42.80094" lon="-0.03244">
        <ele>1778.2</ele>
        <time>2023-10-31T13:10:04Z</time>
      </trkpt>
      <trkpt lat="42.80094" lon="-0.03243">
        <ele>1778</ele>
        <time>2023-10-31T13:10:05Z</time>
      </trkpt>
      <trkpt lat="42.80095" lon="-0.03241">
        <ele>1777.7</ele>
        <time>2023-10-31T13:10:06Z</time>
      </trkpt>
      <trkpt lat="42.80096" lon="-0.0324">
        <ele>1777.4</ele>
        <time>2023-10-31T13:10:07Z</time>
      </trkpt>
      <trkpt lat="42.80096" lon="-0.03239">
        <ele>1777.2</ele>
        <time>2023-10-31T13:10:08Z</time>
      </trkpt>
      <trkpt lat="42.80097" lon="-0.0324">
        <ele>1777.1</ele>
        <time>2023-10-31T13:10:09Z</time>
      </trkpt>
      <trkpt lat="42.80098" lon="-0.03239">
        <ele>1776.8</ele>
        <time>2023-10-31T13:10:10Z</time>
      </trkpt>
      <trkpt lat="42.80099" lon="-0.03239">
        <ele>1776.6</ele>
        <time>2023-10-31T13:10:11Z</time>
      </trkpt>
      <trkpt lat="42.80099" lon="-0.03237">
        <ele>1776.4</ele>
        <time>2023-10-31T13:10:12Z</time>
      </trkpt>
      <trkpt lat="42.801" lon="-0.03236">
        <ele>1776.1</ele>
        <time>2023-10-31T13:10:13Z</time>
      </trkpt>
      <trkpt lat="42.801" lon="-0.03235">
        <ele>1775.9</ele>
        <time>2023-10-31T13:10:14Z</time>
      </trkpt>
      <trkpt lat="42.80101" lon="-0.03235">
        <ele>1775.8</ele>
        <time>2023-10-31T13:10:15Z</time>
      </trkpt>
      <trkpt lat="42.80101" lon="-0.03234">
        <ele>1775.6</ele>
        <time>2023-10-31T13:10:16Z</time>
      </trkpt>
      <trkpt lat="42.80102" lon="-0.03232">
        <ele>1775.2</ele>
        <time>2023-10-31T13:10:17Z</time>
      </trkpt>
      <trkpt lat="42.80103" lon="-0.03231">
        <ele>1775</ele>
        <time>2023-10-31T13:10:18Z</time>
      </trkpt>
      <trkpt lat="42.80103" lon="-0.03231">
        <ele>1774.9</ele>
        <time>2023-10-31T13:10:19Z</time>
      </trkpt>
      <trkpt lat="42.80104" lon="-0.0323">
        <ele>1774.7</ele>
        <time>2023-10-31T13:10:20Z</time>
      </trkpt>
      <trkpt lat="42.80104" lon="-0.03229">
        <ele>1774.6</ele>
        <time>2023-10-31T13:10:21Z</time>
      </trkpt>
      <trkpt lat="42.80104" lon="-0.03229">
        <ele>1774.4</ele>
        <time>2023-10-31T13:10:22Z</time>
      </trkpt>
      <trkpt lat="42.80106" lon="-0.03228">
        <ele>1774.1</ele>
        <time>2023-10-31T13:10:23Z</time>
      </trkpt>
      <trkpt lat="42.80106" lon="-0.03228">
        <ele>1773.9</ele>
        <time>2023-10-31T13:10:24Z</time>
      </trkpt>
      <trkpt lat="42.80107" lon="-0.03228">
        <ele>1773.7</ele>
        <time>2023-10-31T13:10:25Z</time>
      </trkpt>
      <trkpt lat="42.80108" lon="-0.03228">
        <ele>1773.5</ele>
        <time>2023-10-31T13:10:26Z</time>
      </trkpt>
      <trkpt lat="42.80108" lon="-0.03227">
        <ele>1773.3</ele>
        <time>2023-10-31T13:10:27Z</time>
      </trkpt>
      <trkpt lat="42.80107" lon="-0.03226">
        <ele>1773.1</ele>
        <time>2023-10-31T13:10:28Z</time>
      </trkpt>
      <trkpt lat="42.80106" lon="-0.03226">
        <ele>1772.9</ele>
        <time>2023-10-31T13:10:29Z</time>
      </trkpt>
      <trkpt lat="42.80106" lon="-0.03225">
        <ele>1772.8</ele>
        <time>2023-10-31T13:10:30Z</time>
      </trkpt>
      <trkpt lat="42.80106" lon="-0.03224">
        <ele>1772.6</ele>
        <time>2023-10-31T13:10:31Z</time>
      </trkpt>
      <trkpt lat="42.80105" lon="-0.03223">
        <ele>1772.3</ele>
        <time>2023-10-31T13:10:32Z</time>
      </trkpt>
      <trkpt lat="42.80105" lon="-0.03222">
        <ele>1772.2</ele>
        <time>2023-10-31T13:10:33Z</time>
      </trkpt>
      <trkpt lat="42.80106" lon="-0.03221">
        <ele>1771.9</ele>
        <time>2023-10-31T13:10:34Z</time>
      </trkpt>
      <trkpt lat="42.80107" lon="-0.03221">
        <ele>1771.7</ele>
        <time>2023-10-31T13:10:35Z</time>
      </trkpt>
      <trkpt lat="42.80107" lon="-0.03219">
        <ele>1771.3</ele>
        <time>2023-10-31T13:10:36Z</time>
      </trkpt>
      <trkpt lat="42.80107" lon="-0.03218">
        <ele>1771.2</ele>
        <time>2023-10-31T13:10:37Z</time>
      </trkpt>
      <trkpt lat="42.80107" lon="-0.03217">
        <ele>1771</ele>
        <time>2023-10-31T13:10:38Z</time>
      </trkpt>
      <trkpt lat="42.80106" lon="-0.03216">
        <ele>1770.8</ele>
        <time>2023-10-31T13:10:39Z</time>
      </trkpt>
      <trkpt lat="42.80106" lon="-0.03215">
        <ele>1770.6</ele>
        <time>2023-10-31T13:10:40Z</time>
      </trkpt>
      <trkpt lat="42.80106" lon="-0.03214">
        <ele>1770.4</ele>
        <time>2023-10-31T13:10:41Z</time>
      </trkpt>
      <trkpt lat="42.80105" lon="-0.03213">
        <ele>1770.1</ele>
        <time>2023-10-31T13:10:42Z</time>
      </trkpt>
      <trkpt lat="42.80105" lon="-0.03212">
        <ele>1770</ele>
        <time>2023-10-31T13:10:43Z</time>
      </trkpt>
      <trkpt lat="42.80105" lon="-0.03211">
        <ele>1769.8</ele>
        <time>2023-10-31T13:10:44Z</time>
      </trkpt>
      <trkpt lat="42.80105" lon="-0.0321">
        <ele>1769.6</ele>
        <time>2023-10-31T13:10:45Z</time>
      </trkpt>
      <trkpt lat="42.80105" lon="-0.0321">
        <ele>1769.6</ele>
        <time>2023-10-31T13:10:46Z</time>
      </trkpt>
      <trkpt lat="42.80105" lon="-0.0321">
        <ele>1769.4</ele>
        <time>2023-10-31T13:10:47Z</time>
      </trkpt>
      <trkpt lat="42.80105" lon="-0.03208">
        <ele>1769.2</ele>
        <time>2023-10-31T13:10:49Z</time>
      </trkpt>
      <trkpt lat="42.80105" lon="-0.03208">
        <ele>1769</ele>
        <time>2023-10-31T13:10:50Z</time>
      </trkpt>
      <trkpt lat="42.80106" lon="-0.03207">
        <ele>1768.8</ele>
        <time>2023-10-31T13:10:51Z</time>
      </trkpt>
      <trkpt lat="42.80105" lon="-0.03206">
        <ele>1768.7</ele>
        <time>2023-10-31T13:10:52Z</time>
      </trkpt>
      <trkpt lat="42.80105" lon="-0.03204">
        <ele>1768.2</ele>
        <time>2023-10-31T13:10:53Z</time>
      </trkpt>
      <trkpt lat="42.80104" lon="-0.03202">
        <ele>1767.8</ele>
        <time>2023-10-31T13:10:55Z</time>
      </trkpt>
      <trkpt lat="42.80103" lon="-0.032">
        <ele>1767.4</ele>
        <time>2023-10-31T13:10:56Z</time>
      </trkpt>
      <trkpt lat="42.80103" lon="-0.03197">
        <ele>1766.9</ele>
        <time>2023-10-31T13:10:57Z</time>
      </trkpt>
      <trkpt lat="42.80102" lon="-0.03196">
        <ele>1766.6</ele>
        <time>2023-10-31T13:10:59Z</time>
      </trkpt>
      <trkpt lat="42.80102" lon="-0.03195">
        <ele>1766.4</ele>
        <time>2023-10-31T13:11:00Z</time>
      </trkpt>
      <trkpt lat="42.80102" lon="-0.03193">
        <ele>1766</ele>
        <time>2023-10-31T13:11:02Z</time>
      </trkpt>
      <trkpt lat="42.80102" lon="-0.03191">
        <ele>1765.7</ele>
        <time>2023-10-31T13:11:03Z</time>
      </trkpt>
      <trkpt lat="42.80103" lon="-0.03191">
        <ele>1765.5</ele>
        <time>2023-10-31T13:11:04Z</time>
      </trkpt>
      <trkpt lat="42.80104" lon="-0.03189">
        <ele>1765</ele>
        <time>2023-10-31T13:11:05Z</time>
      </trkpt>
      <trkpt lat="42.80105" lon="-0.03188">
        <ele>1764.9</ele>
        <time>2023-10-31T13:11:06Z</time>
      </trkpt>
      <trkpt lat="42.80105" lon="-0.03187">
        <ele>1764.7</ele>
        <time>2023-10-31T13:11:07Z</time>
      </trkpt>
      <trkpt lat="42.80104" lon="-0.03186">
        <ele>1764.5</ele>
        <time>2023-10-31T13:11:08Z</time>
      </trkpt>
      <trkpt lat="42.80105" lon="-0.03185">
        <ele>1764.3</ele>
        <time>2023-10-31T13:11:09Z</time>
      </trkpt>
      <trkpt lat="42.80104" lon="-0.03185">
        <ele>1764.2</ele>
        <time>2023-10-31T13:11:10Z</time>
      </trkpt>
      <trkpt lat="42.80103" lon="-0.03184">
        <ele>1764</ele>
        <time>2023-10-31T13:11:11Z</time>
      </trkpt>
      <trkpt lat="42.80103" lon="-0.03183">
        <ele>1763.8</ele>
        <time>2023-10-31T13:11:12Z</time>
      </trkpt>
      <trkpt lat="42.80103" lon="-0.03181">
        <ele>1763.5</ele>
        <time>2023-10-31T13:11:13Z</time>
      </trkpt>
      <trkpt lat="42.80102" lon="-0.0318">
        <ele>1763.3</ele>
        <time>2023-10-31T13:11:14Z</time>
      </trkpt>
      <trkpt lat="42.80102" lon="-0.03179">
        <ele>1763.1</ele>
        <time>2023-10-31T13:11:15Z</time>
      </trkpt>
      <trkpt lat="42.80101" lon="-0.03177">
        <ele>1762.8</ele>
        <time>2023-10-31T13:11:16Z</time>
      </trkpt>
      <trkpt lat="42.80101" lon="-0.03175">
        <ele>1762.4</ele>
        <time>2023-10-31T13:11:17Z</time>
      </trkpt>
      <trkpt lat="42.80101" lon="-0.03173">
        <ele>1762.3</ele>
        <time>2023-10-31T13:11:18Z</time>
      </trkpt>
      <trkpt lat="42.801" lon="-0.03172">
        <ele>1762.1</ele>
        <time>2023-10-31T13:11:19Z</time>
      </trkpt>
      <trkpt lat="42.80101" lon="-0.0317">
        <ele>1761.8</ele>
        <time>2023-10-31T13:11:20Z</time>
      </trkpt>
      <trkpt lat="42.80102" lon="-0.03169">
        <ele>1761.6</ele>
        <time>2023-10-31T13:11:21Z</time>
      </trkpt>
      <trkpt lat="42.80102" lon="-0.03167">
        <ele>1761.3</ele>
        <time>2023-10-31T13:11:22Z</time>
      </trkpt>
      <trkpt lat="42.80102" lon="-0.03165">
        <ele>1761.1</ele>
        <time>2023-10-31T13:11:23Z</time>
      </trkpt>
      <trkpt lat="42.80101" lon="-0.03162">
        <ele>1760.8</ele>
        <time>2023-10-31T13:11:24Z</time>
      </trkpt>
      <trkpt lat="42.80101" lon="-0.0316">
        <ele>1760.6</ele>
        <time>2023-10-31T13:11:25Z</time>
      </trkpt>
      <trkpt lat="42.80101" lon="-0.03159">
        <ele>1760.5</ele>
        <time>2023-10-31T13:11:26Z</time>
      </trkpt>
      <trkpt lat="42.80101" lon="-0.03158">
        <ele>1760.3</ele>
        <time>2023-10-31T13:11:27Z</time>
      </trkpt>
      <trkpt lat="42.801" lon="-0.03157">
        <ele>1760.2</ele>
        <time>2023-10-31T13:11:28Z</time>
      </trkpt>
      <trkpt lat="42.80099" lon="-0.03155">
        <ele>1759.9</ele>
        <time>2023-10-31T13:11:29Z</time>
      </trkpt>
      <trkpt lat="42.80099" lon="-0.03153">
        <ele>1759.7</ele>
        <time>2023-10-31T13:11:30Z</time>
      </trkpt>
      <trkpt lat="42.801" lon="-0.03151">
        <ele>1759.4</ele>
        <time>2023-10-31T13:11:31Z</time>
      </trkpt>
      <trkpt lat="42.80102" lon="-0.03149">
        <ele>1759.1</ele>
        <time>2023-10-31T13:11:32Z</time>
      </trkpt>
      <trkpt lat="42.80103" lon="-0.03148">
        <ele>1759</ele>
        <time>2023-10-31T13:11:33Z</time>
      </trkpt>
      <trkpt lat="42.80103" lon="-0.03148">
        <ele>1758.9</ele>
        <time>2023-10-31T13:11:34Z</time>
      </trkpt>
      <trkpt lat="42.80103" lon="-0.03146">
        <ele>1758.6</ele>
        <time>2023-10-31T13:11:35Z</time>
      </trkpt>
      <trkpt lat="42.80104" lon="-0.03143">
        <ele>1758.3</ele>
        <time>2023-10-31T13:11:36Z</time>
      </trkpt>
      <trkpt lat="42.80104" lon="-0.03141">
        <ele>1758</ele>
        <time>2023-10-31T13:11:37Z</time>
      </trkpt>
      <trkpt lat="42.80104" lon="-0.0314">
        <ele>1757.8</ele>
        <time>2023-10-31T13:11:38Z</time>
      </trkpt>
      <trkpt lat="42.80103" lon="-0.03139">
        <ele>1757.7</ele>
        <time>2023-10-31T13:11:39Z</time>
      </trkpt>
      <trkpt lat="42.80102" lon="-0.03138">
        <ele>1757.5</ele>
        <time>2023-10-31T13:11:40Z</time>
      </trkpt>
      <trkpt lat="42.80101" lon="-0.03137">
        <ele>1757.2</ele>
        <time>2023-10-31T13:11:41Z</time>
      </trkpt>
      <trkpt lat="42.80098" lon="-0.03137">
        <ele>1756.8</ele>
        <time>2023-10-31T13:11:42Z</time>
      </trkpt>
      <trkpt lat="42.80097" lon="-0.03137">
        <ele>1756.7</ele>
        <time>2023-10-31T13:11:43Z</time>
      </trkpt>
      <trkpt lat="42.80096" lon="-0.03137">
        <ele>1756.5</ele>
        <time>2023-10-31T13:11:44Z</time>
      </trkpt>
      <trkpt lat="42.80095" lon="-0.03136">
        <ele>1756.2</ele>
        <time>2023-10-31T13:11:45Z</time>
      </trkpt>
      <trkpt lat="42.80094" lon="-0.03135">
        <ele>1756.1</ele>
        <time>2023-10-31T13:11:46Z</time>
      </trkpt>
      <trkpt lat="42.80093" lon="-0.03135">
        <ele>1755.9</ele>
        <time>2023-10-31T13:11:47Z</time>
      </trkpt>
      <trkpt lat="42.80093" lon="-0.03133">
        <ele>1755.8</ele>
        <time>2023-10-31T13:11:48Z</time>
      </trkpt>
      <trkpt lat="42.80093" lon="-0.03132">
        <ele>1755.7</ele>
        <time>2023-10-31T13:11:49Z</time>
      </trkpt>
      <trkpt lat="42.80092" lon="-0.03131">
        <ele>1755.4</ele>
        <time>2023-10-31T13:11:50Z</time>
      </trkpt>
      <trkpt lat="42.80091" lon="-0.0313">
        <ele>1755.3</ele>
        <time>2023-10-31T13:11:51Z</time>
      </trkpt>
      <trkpt lat="42.8009" lon="-0.03129">
        <ele>1755.1</ele>
        <time>2023-10-31T13:11:52Z</time>
      </trkpt>
      <trkpt lat="42.8009" lon="-0.03128">
        <ele>1754.9</ele>
        <time>2023-10-31T13:11:53Z</time>
      </trkpt>
      <trkpt lat="42.80089" lon="-0.03127">
        <ele>1754.8</ele>
        <time>2023-10-31T13:11:54Z</time>
      </trkpt>
      <trkpt lat="42.80088" lon="-0.03127">
        <ele>1754.6</ele>
        <time>2023-10-31T13:11:55Z</time>
      </trkpt>
      <trkpt lat="42.80087" lon="-0.03127">
        <ele>1754.4</ele>
        <time>2023-10-31T13:11:56Z</time>
      </trkpt>
      <trkpt lat="42.80086" lon="-0.03129">
        <ele>1754.1</ele>
        <time>2023-10-31T13:11:57Z</time>
      </trkpt>
      <trkpt lat="42.80086" lon="-0.0313">
        <ele>1753.9</ele>
        <time>2023-10-31T13:11:58Z</time>
      </trkpt>
      <trkpt lat="42.80086" lon="-0.03131">
        <ele>1753.8</ele>
        <time>2023-10-31T13:11:59Z</time>
      </trkpt>
      <trkpt lat="42.80086" lon="-0.03132">
        <ele>1753.7</ele>
        <time>2023-10-31T13:12:00Z</time>
      </trkpt>
      <trkpt lat="42.80085" lon="-0.03132">
        <ele>1753.5</ele>
        <time>2023-10-31T13:12:01Z</time>
      </trkpt>
      <trkpt lat="42.80084" lon="-0.03131">
        <ele>1753.3</ele>
        <time>2023-10-31T13:12:02Z</time>
      </trkpt>
      <trkpt lat="42.80083" lon="-0.0313">
        <ele>1753.1</ele>
        <time>2023-10-31T13:12:03Z</time>
      </trkpt>
      <trkpt lat="42.80082" lon="-0.0313">
        <ele>1752.9</ele>
        <time>2023-10-31T13:12:04Z</time>
      </trkpt>
      <trkpt lat="42.80081" lon="-0.0313">
        <ele>1752.6</ele>
        <time>2023-10-31T13:12:05Z</time>
      </trkpt>
      <trkpt lat="42.80081" lon="-0.0313">
        <ele>1752.5</ele>
        <time>2023-10-31T13:12:06Z</time>
      </trkpt>
      <trkpt lat="42.80081" lon="-0.0313">
        <ele>1752.5</ele>
        <time>2023-10-31T13:12:07Z</time>
      </trkpt>
      <trkpt lat="42.8008" lon="-0.0313">
        <ele>1752.4</ele>
        <time>2023-10-31T13:12:08Z</time>
      </trkpt>
      <trkpt lat="42.80079" lon="-0.03129">
        <ele>1752.1</ele>
        <time>2023-10-31T13:12:09Z</time>
      </trkpt>
      <trkpt lat="42.80079" lon="-0.03129">
        <ele>1752</ele>
        <time>2023-10-31T13:12:10Z</time>
      </trkpt>
      <trkpt lat="42.80078" lon="-0.03128">
        <ele>1751.8</ele>
        <time>2023-10-31T13:12:11Z</time>
      </trkpt>
      <trkpt lat="42.80078" lon="-0.03128">
        <ele>1751.7</ele>
        <time>2023-10-31T13:12:12Z</time>
      </trkpt>
      <trkpt lat="42.80077" lon="-0.03127">
        <ele>1751.5</ele>
        <time>2023-10-31T13:12:13Z</time>
      </trkpt>
      <trkpt lat="42.80077" lon="-0.03127">
        <ele>1751.3</ele>
        <time>2023-10-31T13:12:14Z</time>
      </trkpt>
      <trkpt lat="42.80076" lon="-0.03124">
        <ele>1750.8</ele>
        <time>2023-10-31T13:12:15Z</time>
      </trkpt>
      <trkpt lat="42.80076" lon="-0.03123">
        <ele>1750.6</ele>
        <time>2023-10-31T13:12:16Z</time>
      </trkpt>
      <trkpt lat="42.80075" lon="-0.03122">
        <ele>1750.4</ele>
        <time>2023-10-31T13:12:17Z</time>
      </trkpt>
      <trkpt lat="42.80076" lon="-0.03121">
        <ele>1750.2</ele>
        <time>2023-10-31T13:12:18Z</time>
      </trkpt>
      <trkpt lat="42.80076" lon="-0.03119">
        <ele>1749.9</ele>
        <time>2023-10-31T13:12:19Z</time>
      </trkpt>
      <trkpt lat="42.80076" lon="-0.03117">
        <ele>1749.5</ele>
        <time>2023-10-31T13:12:20Z</time>
      </trkpt>
      <trkpt lat="42.80077" lon="-0.03116">
        <ele>1749.2</ele>
        <time>2023-10-31T13:12:21Z</time>
      </trkpt>
      <trkpt lat="42.80078" lon="-0.03116">
        <ele>1749</ele>
        <time>2023-10-31T13:12:22Z</time>
      </trkpt>
      <trkpt lat="42.80078" lon="-0.03115">
        <ele>1748.7</ele>
        <time>2023-10-31T13:12:23Z</time>
      </trkpt>
      <trkpt lat="42.80079" lon="-0.03115">
        <ele>1748.5</ele>
        <time>2023-10-31T13:12:24Z</time>
      </trkpt>
      <trkpt lat="42.80079" lon="-0.03116">
        <ele>1748.3</ele>
        <time>2023-10-31T13:12:25Z</time>
      </trkpt>
      <trkpt lat="42.8008" lon="-0.03115">
        <ele>1748.2</ele>
        <time>2023-10-31T13:12:26Z</time>
      </trkpt>
      <trkpt lat="42.8008" lon="-0.03116">
        <ele>1748</ele>
        <time>2023-10-31T13:12:27Z</time>
      </trkpt>
      <trkpt lat="42.8008" lon="-0.03116">
        <ele>1748</ele>
        <time>2023-10-31T13:12:28Z</time>
      </trkpt>
      <trkpt lat="42.8008" lon="-0.03116">
        <ele>1748</ele>
        <time>2023-10-31T13:12:29Z</time>
      </trkpt>
      <trkpt lat="42.8008" lon="-0.03116">
        <ele>1747.9</ele>
        <time>2023-10-31T13:12:30Z</time>
      </trkpt>
      <trkpt lat="42.8008" lon="-0.03116">
        <ele>1747.9</ele>
        <time>2023-10-31T13:12:31Z</time>
      </trkpt>
      <trkpt lat="42.8008" lon="-0.03116">
        <ele>1747.9</ele>
        <time>2023-10-31T13:12:32Z</time>
      </trkpt>
      <trkpt lat="42.8008" lon="-0.03115">
        <ele>1747.8</ele>
        <time>2023-10-31T13:12:33Z</time>
      </trkpt>
      <trkpt lat="42.8008" lon="-0.03116">
        <ele>1747.6</ele>
        <time>2023-10-31T13:12:34Z</time>
      </trkpt>
      <trkpt lat="42.8008" lon="-0.03116">
        <ele>1747.6</ele>
        <time>2023-10-31T13:12:35Z</time>
      </trkpt>
      <trkpt lat="42.8008" lon="-0.03116">
        <ele>1747.6</ele>
        <time>2023-10-31T13:12:36Z</time>
      </trkpt>
      <trkpt lat="42.8008" lon="-0.03117">
        <ele>1747.4</ele>
        <time>2023-10-31T13:12:37Z</time>
      </trkpt>
      <trkpt lat="42.8008" lon="-0.03116">
        <ele>1747.3</ele>
        <time>2023-10-31T13:12:38Z</time>
      </trkpt>
      <trkpt lat="42.8008" lon="-0.03117">
        <ele>1747.3</ele>
        <time>2023-10-31T13:12:39Z</time>
      </trkpt>
      <trkpt lat="42.80081" lon="-0.03117">
        <ele>1747.1</ele>
        <time>2023-10-31T13:12:40Z</time>
      </trkpt>
      <trkpt lat="42.80081" lon="-0.03117">
        <ele>1747</ele>
        <time>2023-10-31T13:12:41Z</time>
      </trkpt>
      <trkpt lat="42.80082" lon="-0.03117">
        <ele>1746.9</ele>
        <time>2023-10-31T13:12:42Z</time>
      </trkpt>
      <trkpt lat="42.80081" lon="-0.03117">
        <ele>1746.8</ele>
        <time>2023-10-31T13:12:43Z</time>
      </trkpt>
      <trkpt lat="42.80082" lon="-0.03117">
        <ele>1746.7</ele>
        <time>2023-10-31T13:12:44Z</time>
      </trkpt>
      <trkpt lat="42.80082" lon="-0.03117">
        <ele>1746.7</ele>
        <time>2023-10-31T13:12:45Z</time>
      </trkpt>
      <trkpt lat="42.80082" lon="-0.03117">
        <ele>1746.7</ele>
        <time>2023-10-31T13:12:46Z</time>
      </trkpt>
      <trkpt lat="42.80082" lon="-0.03116">
        <ele>1746.6</ele>
        <time>2023-10-31T13:12:47Z</time>
      </trkpt>
      <trkpt lat="42.80082" lon="-0.03116">
        <ele>1746.6</ele>
        <time>2023-10-31T13:12:48Z</time>
      </trkpt>
      <trkpt lat="42.80082" lon="-0.03116">
        <ele>1746.5</ele>
        <time>2023-10-31T13:12:49Z</time>
      </trkpt>
      <trkpt lat="42.80082" lon="-0.03116">
        <ele>1746.5</ele>
        <time>2023-10-31T13:12:50Z</time>
      </trkpt>
      <trkpt lat="42.80082" lon="-0.03115">
        <ele>1746.2</ele>
        <time>2023-10-31T13:12:51Z</time>
      </trkpt>
      <trkpt lat="42.80082" lon="-0.03114">
        <ele>1745.9</ele>
        <time>2023-10-31T13:12:52Z</time>
      </trkpt>
      <trkpt lat="42.80082" lon="-0.03113">
        <ele>1745.8</ele>
        <time>2023-10-31T13:12:53Z</time>
      </trkpt>
      <trkpt lat="42.80082" lon="-0.03113">
        <ele>1745.7</ele>
        <time>2023-10-31T13:12:55Z</time>
      </trkpt>
      <trkpt lat="42.80082" lon="-0.03112">
        <ele>1745.5</ele>
        <time>2023-10-31T13:12:56Z</time>
      </trkpt>
      <trkpt lat="42.80081" lon="-0.03111">
        <ele>1745.2</ele>
        <time>2023-10-31T13:12:57Z</time>
      </trkpt>
      <trkpt lat="42.80081" lon="-0.03111">
        <ele>1745.1</ele>
        <time>2023-10-31T13:12:58Z</time>
      </trkpt>
      <trkpt lat="42.80081" lon="-0.0311">
        <ele>1744.9</ele>
        <time>2023-10-31T13:12:59Z</time>
      </trkpt>
      <trkpt lat="42.80082" lon="-0.03109">
        <ele>1744.5</ele>
        <time>2023-10-31T13:13:00Z</time>
      </trkpt>
      <trkpt lat="42.80082" lon="-0.03108">
        <ele>1744.4</ele>
        <time>2023-10-31T13:13:01Z</time>
      </trkpt>
      <trkpt lat="42.80082" lon="-0.03107">
        <ele>1744.2</ele>
        <time>2023-10-31T13:13:02Z</time>
      </trkpt>
      <trkpt lat="42.80082" lon="-0.03107">
        <ele>1744</ele>
        <time>2023-10-31T13:13:03Z</time>
      </trkpt>
      <trkpt lat="42.80082" lon="-0.03106">
        <ele>1743.9</ele>
        <time>2023-10-31T13:13:04Z</time>
      </trkpt>
      <trkpt lat="42.80082" lon="-0.03105">
        <ele>1743.7</ele>
        <time>2023-10-31T13:13:05Z</time>
      </trkpt>
      <trkpt lat="42.80082" lon="-0.03106">
        <ele>1743.5</ele>
        <time>2023-10-31T13:13:06Z</time>
      </trkpt>
      <trkpt lat="42.80082" lon="-0.03105">
        <ele>1743.4</ele>
        <time>2023-10-31T13:13:07Z</time>
      </trkpt>
      <trkpt lat="42.80082" lon="-0.03105">
        <ele>1743.3</ele>
        <time>2023-10-31T13:13:08Z</time>
      </trkpt>
      <trkpt lat="42.80083" lon="-0.03104">
        <ele>1743</ele>
        <time>2023-10-31T13:13:09Z</time>
      </trkpt>
      <trkpt lat="42.80083" lon="-0.03102">
        <ele>1742.6</ele>
        <time>2023-10-31T13:13:10Z</time>
      </trkpt>
      <trkpt lat="42.80083" lon="-0.03102">
        <ele>1742.5</ele>
        <time>2023-10-31T13:13:11Z</time>
      </trkpt>
      <trkpt lat="42.80083" lon="-0.03101">
        <ele>1742.2</ele>
        <time>2023-10-31T13:13:12Z</time>
      </trkpt>
      <trkpt lat="42.80083" lon="-0.031">
        <ele>1741.9</ele>
        <time>2023-10-31T13:13:13Z</time>
      </trkpt>
      <trkpt lat="42.80083" lon="-0.031">
        <ele>1741.9</ele>
        <time>2023-10-31T13:13:14Z</time>
      </trkpt>
      <trkpt lat="42.80083" lon="-0.031">
        <ele>1741.8</ele>
        <time>2023-10-31T13:13:15Z</time>
      </trkpt>
      <trkpt lat="42.80082" lon="-0.03101">
        <ele>1741.6</ele>
        <time>2023-10-31T13:13:16Z</time>
      </trkpt>
      <trkpt lat="42.80082" lon="-0.03101">
        <ele>1741.5</ele>
        <time>2023-10-31T13:13:17Z</time>
      </trkpt>
      <trkpt lat="42.80082" lon="-0.03101">
        <ele>1741.4</ele>
        <time>2023-10-31T13:13:18Z</time>
      </trkpt>
      <trkpt lat="42.80082" lon="-0.03101">
        <ele>1741.3</ele>
        <time>2023-10-31T13:13:19Z</time>
      </trkpt>
      <trkpt lat="42.80081" lon="-0.031">
        <ele>1741</ele>
        <time>2023-10-31T13:13:20Z</time>
      </trkpt>
      <trkpt lat="42.80081" lon="-0.03099">
        <ele>1740.7</ele>
        <time>2023-10-31T13:13:21Z</time>
      </trkpt>
      <trkpt lat="42.8008" lon="-0.03098">
        <ele>1740.5</ele>
        <time>2023-10-31T13:13:22Z</time>
      </trkpt>
      <trkpt lat="42.80079" lon="-0.03096">
        <ele>1739.9</ele>
        <time>2023-10-31T13:13:23Z</time>
      </trkpt>
      <trkpt lat="42.80079" lon="-0.03095">
        <ele>1739.6</ele>
        <time>2023-10-31T13:13:24Z</time>
      </trkpt>
      <trkpt lat="42.8008" lon="-0.03093">
        <ele>1739.2</ele>
        <time>2023-10-31T13:13:25Z</time>
      </trkpt>
      <trkpt lat="42.80082" lon="-0.03093">
        <ele>1738.7</ele>
        <time>2023-10-31T13:13:26Z</time>
      </trkpt>
      <trkpt lat="42.80082" lon="-0.03092">
        <ele>1738.5</ele>
        <time>2023-10-31T13:13:27Z</time>
      </trkpt>
      <trkpt lat="42.80082" lon="-0.03093">
        <ele>1738.3</ele>
        <time>2023-10-31T13:13:28Z</time>
      </trkpt>
      <trkpt lat="42.80082" lon="-0.03093">
        <ele>1738.2</ele>
        <time>2023-10-31T13:13:29Z</time>
      </trkpt>
      <trkpt lat="42.80081" lon="-0.03093">
        <ele>1737.9</ele>
        <time>2023-10-31T13:13:30Z</time>
      </trkpt>
      <trkpt lat="42.80081" lon="-0.03091">
        <ele>1737.3</ele>
        <time>2023-10-31T13:13:31Z</time>
      </trkpt>
      <trkpt lat="42.80082" lon="-0.03089">
        <ele>1736.9</ele>
        <time>2023-10-31T13:13:32Z</time>
      </trkpt>
      <trkpt lat="42.80082" lon="-0.03088">
        <ele>1736.6</ele>
        <time>2023-10-31T13:13:33Z</time>
      </trkpt>
      <trkpt lat="42.80081" lon="-0.03086">
        <ele>1736.2</ele>
        <time>2023-10-31T13:13:34Z</time>
      </trkpt>
      <trkpt lat="42.8008" lon="-0.03087">
        <ele>1735.8</ele>
        <time>2023-10-31T13:13:35Z</time>
      </trkpt>
      <trkpt lat="42.80078" lon="-0.03088">
        <ele>1735.3</ele>
        <time>2023-10-31T13:13:36Z</time>
      </trkpt>
      <trkpt lat="42.80077" lon="-0.03089">
        <ele>1734.9</ele>
        <time>2023-10-31T13:13:37Z</time>
      </trkpt>
      <trkpt lat="42.80076" lon="-0.0309">
        <ele>1734.6</ele>
        <time>2023-10-31T13:13:38Z</time>
      </trkpt>
      <trkpt lat="42.80075" lon="-0.0309">
        <ele>1734.3</ele>
        <time>2023-10-31T13:13:39Z</time>
      </trkpt>
      <trkpt lat="42.80073" lon="-0.0309">
        <ele>1734.1</ele>
        <time>2023-10-31T13:13:40Z</time>
      </trkpt>
      <trkpt lat="42.80073" lon="-0.03091">
        <ele>1733.8</ele>
        <time>2023-10-31T13:13:41Z</time>
      </trkpt>
      <trkpt lat="42.80072" lon="-0.03091">
        <ele>1733.7</ele>
        <time>2023-10-31T13:13:42Z</time>
      </trkpt>
      <trkpt lat="42.80072" lon="-0.03091">
        <ele>1733.6</ele>
        <time>2023-10-31T13:13:43Z</time>
      </trkpt>
      <trkpt lat="42.80071" lon="-0.0309">
        <ele>1733.4</ele>
        <time>2023-10-31T13:13:44Z</time>
      </trkpt>
      <trkpt lat="42.80071" lon="-0.03089">
        <ele>1733.2</ele>
        <time>2023-10-31T13:13:45Z</time>
      </trkpt>
      <trkpt lat="42.8007" lon="-0.03089">
        <ele>1733</ele>
        <time>2023-10-31T13:13:46Z</time>
      </trkpt>
      <trkpt lat="42.80069" lon="-0.03088">
        <ele>1732.8</ele>
        <time>2023-10-31T13:13:47Z</time>
      </trkpt>
      <trkpt lat="42.80069" lon="-0.03086">
        <ele>1732.5</ele>
        <time>2023-10-31T13:13:48Z</time>
      </trkpt>
      <trkpt lat="42.80067" lon="-0.03087">
        <ele>1732.1</ele>
        <time>2023-10-31T13:13:49Z</time>
      </trkpt>
      <trkpt lat="42.80066" lon="-0.03087">
        <ele>1731.9</ele>
        <time>2023-10-31T13:13:50Z</time>
      </trkpt>
      <trkpt lat="42.80065" lon="-0.03087">
        <ele>1731.7</ele>
        <time>2023-10-31T13:13:51Z</time>
      </trkpt>
      <trkpt lat="42.80064" lon="-0.03092">
        <ele>1731.1</ele>
        <time>2023-10-31T13:13:52Z</time>
      </trkpt>
      <trkpt lat="42.80064" lon="-0.03093">
        <ele>1730.8</ele>
        <time>2023-10-31T13:13:53Z</time>
      </trkpt>
      <trkpt lat="42.80062" lon="-0.03093">
        <ele>1730.6</ele>
        <time>2023-10-31T13:13:54Z</time>
      </trkpt>
      <trkpt lat="42.80061" lon="-0.03092">
        <ele>1730.3</ele>
        <time>2023-10-31T13:13:55Z</time>
      </trkpt>
      <trkpt lat="42.80059" lon="-0.03093">
        <ele>1729.9</ele>
        <time>2023-10-31T13:13:56Z</time>
      </trkpt>
      <trkpt lat="42.80059" lon="-0.03094">
        <ele>1729.8</ele>
        <time>2023-10-31T13:13:57Z</time>
      </trkpt>
      <trkpt lat="42.80058" lon="-0.03095">
        <ele>1729.7</ele>
        <time>2023-10-31T13:13:58Z</time>
      </trkpt>
      <trkpt lat="42.80057" lon="-0.03095">
        <ele>1729.4</ele>
        <time>2023-10-31T13:13:59Z</time>
      </trkpt>
      <trkpt lat="42.80055" lon="-0.03096">
        <ele>1729.2</ele>
        <time>2023-10-31T13:14:00Z</time>
      </trkpt>
      <trkpt lat="42.80054" lon="-0.03096">
        <ele>1729</ele>
        <time>2023-10-31T13:14:01Z</time>
      </trkpt>
      <trkpt lat="42.80053" lon="-0.03096">
        <ele>1728.8</ele>
        <time>2023-10-31T13:14:02Z</time>
      </trkpt>
      <trkpt lat="42.80052" lon="-0.03096">
        <ele>1728.6</ele>
        <time>2023-10-31T13:14:03Z</time>
      </trkpt>
      <trkpt lat="42.80051" lon="-0.03097">
        <ele>1728.4</ele>
        <time>2023-10-31T13:14:04Z</time>
      </trkpt>
      <trkpt lat="42.8005" lon="-0.03096">
        <ele>1728.2</ele>
        <time>2023-10-31T13:14:05Z</time>
      </trkpt>
      <trkpt lat="42.80049" lon="-0.03095">
        <ele>1728</ele>
        <time>2023-10-31T13:14:06Z</time>
      </trkpt>
      <trkpt lat="42.80048" lon="-0.03095">
        <ele>1727.8</ele>
        <time>2023-10-31T13:14:07Z</time>
      </trkpt>
      <trkpt lat="42.80047" lon="-0.03096">
        <ele>1727.6</ele>
        <time>2023-10-31T13:14:08Z</time>
      </trkpt>
      <trkpt lat="42.80047" lon="-0.03099">
        <ele>1727.2</ele>
        <time>2023-10-31T13:14:09Z</time>
      </trkpt>
      <trkpt lat="42.80047" lon="-0.03101">
        <ele>1726.9</ele>
        <time>2023-10-31T13:14:10Z</time>
      </trkpt>
      <trkpt lat="42.80048" lon="-0.03102">
        <ele>1726.7</ele>
        <time>2023-10-31T13:14:11Z</time>
      </trkpt>
      <trkpt lat="42.80047" lon="-0.03103">
        <ele>1726.5</ele>
        <time>2023-10-31T13:14:12Z</time>
      </trkpt>
      <trkpt lat="42.80047" lon="-0.03104">
        <ele>1726.3</ele>
        <time>2023-10-31T13:14:13Z</time>
      </trkpt>
      <trkpt lat="42.80045" lon="-0.03105">
        <ele>1725.9</ele>
        <time>2023-10-31T13:14:14Z</time>
      </trkpt>
      <trkpt lat="42.80044" lon="-0.03105">
        <ele>1725.6</ele>
        <time>2023-10-31T13:14:15Z</time>
      </trkpt>
      <trkpt lat="42.80044" lon="-0.03106">
        <ele>1725.5</ele>
        <time>2023-10-31T13:14:16Z</time>
      </trkpt>
      <trkpt lat="42.80043" lon="-0.03107">
        <ele>1725.1</ele>
        <time>2023-10-31T13:14:17Z</time>
      </trkpt>
      <trkpt lat="42.80043" lon="-0.03109">
        <ele>1724.8</ele>
        <time>2023-10-31T13:14:18Z</time>
      </trkpt>
      <trkpt lat="42.80043" lon="-0.03111">
        <ele>1724.5</ele>
        <time>2023-10-31T13:14:19Z</time>
      </trkpt>
      <trkpt lat="42.80042" lon="-0.03112">
        <ele>1724.2</ele>
        <time>2023-10-31T13:14:20Z</time>
      </trkpt>
      <trkpt lat="42.80042" lon="-0.03113">
        <ele>1724</ele>
        <time>2023-10-31T13:14:21Z</time>
      </trkpt>
      <trkpt lat="42.80041" lon="-0.03114">
        <ele>1723.7</ele>
        <time>2023-10-31T13:14:22Z</time>
      </trkpt>
      <trkpt lat="42.80041" lon="-0.03114">
        <ele>1723.7</ele>
        <time>2023-10-31T13:14:23Z</time>
      </trkpt>
      <trkpt lat="42.80041" lon="-0.03114">
        <ele>1723.6</ele>
        <time>2023-10-31T13:14:24Z</time>
      </trkpt>
      <trkpt lat="42.8004" lon="-0.03114">
        <ele>1723.5</ele>
        <time>2023-10-31T13:14:25Z</time>
      </trkpt>
      <trkpt lat="42.8004" lon="-0.03114">
        <ele>1723.4</ele>
        <time>2023-10-31T13:14:26Z</time>
      </trkpt>
      <trkpt lat="42.8004" lon="-0.03115">
        <ele>1723.3</ele>
        <time>2023-10-31T13:14:27Z</time>
      </trkpt>
      <trkpt lat="42.80039" lon="-0.03115">
        <ele>1723.3</ele>
        <time>2023-10-31T13:14:28Z</time>
      </trkpt>
      <trkpt lat="42.80039" lon="-0.03115">
        <ele>1723.2</ele>
        <time>2023-10-31T13:14:29Z</time>
      </trkpt>
      <trkpt lat="42.80039" lon="-0.03115">
        <ele>1723.1</ele>
        <time>2023-10-31T13:14:30Z</time>
      </trkpt>
      <trkpt lat="42.80039" lon="-0.03115">
        <ele>1723.1</ele>
        <time>2023-10-31T13:14:31Z</time>
      </trkpt>
      <trkpt lat="42.80038" lon="-0.03115">
        <ele>1723</ele>
        <time>2023-10-31T13:14:32Z</time>
      </trkpt>
      <trkpt lat="42.80038" lon="-0.03116">
        <ele>1722.8</ele>
        <time>2023-10-31T13:14:33Z</time>
      </trkpt>
      <trkpt lat="42.80038" lon="-0.03117">
        <ele>1722.5</ele>
        <time>2023-10-31T13:14:34Z</time>
      </trkpt>
      <trkpt lat="42.80038" lon="-0.03118">
        <ele>1722.3</ele>
        <time>2023-10-31T13:14:35Z</time>
      </trkpt>
      <trkpt lat="42.80038" lon="-0.03119">
        <ele>1722.1</ele>
        <time>2023-10-31T13:14:36Z</time>
      </trkpt>
      <trkpt lat="42.80037" lon="-0.03119">
        <ele>1721.8</ele>
        <time>2023-10-31T13:14:37Z</time>
      </trkpt>
      <trkpt lat="42.80037" lon="-0.03118">
        <ele>1721.6</ele>
        <time>2023-10-31T13:14:38Z</time>
      </trkpt>
      <trkpt lat="42.80036" lon="-0.03117">
        <ele>1721.4</ele>
        <time>2023-10-31T13:14:39Z</time>
      </trkpt>
      <trkpt lat="42.80035" lon="-0.03117">
        <ele>1721.1</ele>
        <time>2023-10-31T13:14:40Z</time>
      </trkpt>
      <trkpt lat="42.80034" lon="-0.03116">
        <ele>1720.9</ele>
        <time>2023-10-31T13:14:41Z</time>
      </trkpt>
      <trkpt lat="42.80034" lon="-0.03116">
        <ele>1720.9</ele>
        <time>2023-10-31T13:14:42Z</time>
      </trkpt>
      <trkpt lat="42.80034" lon="-0.03117">
        <ele>1720.7</ele>
        <time>2023-10-31T13:14:43Z</time>
      </trkpt>
      <trkpt lat="42.80035" lon="-0.03117">
        <ele>1720.6</ele>
        <time>2023-10-31T13:14:44Z</time>
      </trkpt>
      <trkpt lat="42.80035" lon="-0.03117">
        <ele>1720.6</ele>
        <time>2023-10-31T13:14:45Z</time>
      </trkpt>
      <trkpt lat="42.80034" lon="-0.03117">
        <ele>1720.5</ele>
        <time>2023-10-31T13:14:46Z</time>
      </trkpt>
      <trkpt lat="42.80034" lon="-0.03117">
        <ele>1720.3</ele>
        <time>2023-10-31T13:14:47Z</time>
      </trkpt>
      <trkpt lat="42.80033" lon="-0.03117">
        <ele>1720.2</ele>
        <time>2023-10-31T13:14:48Z</time>
      </trkpt>
      <trkpt lat="42.80032" lon="-0.03116">
        <ele>1719.9</ele>
        <time>2023-10-31T13:14:49Z</time>
      </trkpt>
      <trkpt lat="42.80031" lon="-0.03117">
        <ele>1719.7</ele>
        <time>2023-10-31T13:14:50Z</time>
      </trkpt>
      <trkpt lat="42.8003" lon="-0.03116">
        <ele>1719.4</ele>
        <time>2023-10-31T13:14:51Z</time>
      </trkpt>
      <trkpt lat="42.8003" lon="-0.03116">
        <ele>1719.4</ele>
        <time>2023-10-31T13:14:52Z</time>
      </trkpt>
      <trkpt lat="42.80031" lon="-0.03116">
        <ele>1719.3</ele>
        <time>2023-10-31T13:14:53Z</time>
      </trkpt>
      <trkpt lat="42.8003" lon="-0.03116">
        <ele>1719.2</ele>
        <time>2023-10-31T13:14:54Z</time>
      </trkpt>
      <trkpt lat="42.8003" lon="-0.03116">
        <ele>1719.1</ele>
        <time>2023-10-31T13:14:55Z</time>
      </trkpt>
      <trkpt lat="42.8003" lon="-0.03115">
        <ele>1718.9</ele>
        <time>2023-10-31T13:14:56Z</time>
      </trkpt>
      <trkpt lat="42.80029" lon="-0.03114">
        <ele>1718.7</ele>
        <time>2023-10-31T13:14:57Z</time>
      </trkpt>
      <trkpt lat="42.80029" lon="-0.03114">
        <ele>1718.6</ele>
        <time>2023-10-31T13:14:58Z</time>
      </trkpt>
      <trkpt lat="42.80028" lon="-0.03113">
        <ele>1718.4</ele>
        <time>2023-10-31T13:14:59Z</time>
      </trkpt>
      <trkpt lat="42.80028" lon="-0.03113">
        <ele>1718.3</ele>
        <time>2023-10-31T13:15:00Z</time>
      </trkpt>
      <trkpt lat="42.80027" lon="-0.03113">
        <ele>1718.2</ele>
        <time>2023-10-31T13:15:01Z</time>
      </trkpt>
      <trkpt lat="42.80027" lon="-0.03112">
        <ele>1718.1</ele>
        <time>2023-10-31T13:15:02Z</time>
      </trkpt>
      <trkpt lat="42.80027" lon="-0.03112">
        <ele>1717.9</ele>
        <time>2023-10-31T13:15:03Z</time>
      </trkpt>
      <trkpt lat="42.80025" lon="-0.03114">
        <ele>1717.5</ele>
        <time>2023-10-31T13:15:04Z</time>
      </trkpt>
      <trkpt lat="42.80025" lon="-0.03114">
        <ele>1717.3</ele>
        <time>2023-10-31T13:15:05Z</time>
      </trkpt>
      <trkpt lat="42.80024" lon="-0.03115">
        <ele>1717.1</ele>
        <time>2023-10-31T13:15:06Z</time>
      </trkpt>
      <trkpt lat="42.80024" lon="-0.03115">
        <ele>1717</ele>
        <time>2023-10-31T13:15:07Z</time>
      </trkpt>
      <trkpt lat="42.80023" lon="-0.03116">
        <ele>1716.8</ele>
        <time>2023-10-31T13:15:08Z</time>
      </trkpt>
      <trkpt lat="42.80023" lon="-0.03117">
        <ele>1716.6</ele>
        <time>2023-10-31T13:15:09Z</time>
      </trkpt>
      <trkpt lat="42.80022" lon="-0.03118">
        <ele>1716.3</ele>
        <time>2023-10-31T13:15:10Z</time>
      </trkpt>
      <trkpt lat="42.80021" lon="-0.03118">
        <ele>1716.1</ele>
        <time>2023-10-31T13:15:11Z</time>
      </trkpt>
      <trkpt lat="42.8002" lon="-0.03119">
        <ele>1715.8</ele>
        <time>2023-10-31T13:15:12Z</time>
      </trkpt>
      <trkpt lat="42.80019" lon="-0.03119">
        <ele>1715.6</ele>
        <time>2023-10-31T13:15:13Z</time>
      </trkpt>
      <trkpt lat="42.80018" lon="-0.03119">
        <ele>1715.4</ele>
        <time>2023-10-31T13:15:14Z</time>
      </trkpt>
      <trkpt lat="42.80018" lon="-0.03119">
        <ele>1715.3</ele>
        <time>2023-10-31T13:15:15Z</time>
      </trkpt>
      <trkpt lat="42.80016" lon="-0.03119">
        <ele>1715</ele>
        <time>2023-10-31T13:15:16Z</time>
      </trkpt>
      <trkpt lat="42.80016" lon="-0.0312">
        <ele>1714.8</ele>
        <time>2023-10-31T13:15:17Z</time>
      </trkpt>
      <trkpt lat="42.80016" lon="-0.03122">
        <ele>1714.5</ele>
        <time>2023-10-31T13:15:18Z</time>
      </trkpt>
      <trkpt lat="42.80015" lon="-0.03122">
        <ele>1714.4</ele>
        <time>2023-10-31T13:15:19Z</time>
      </trkpt>
      <trkpt lat="42.80015" lon="-0.03122">
        <ele>1714.4</ele>
        <time>2023-10-31T13:15:20Z</time>
      </trkpt>
      <trkpt lat="42.80015" lon="-0.03122">
        <ele>1714.2</ele>
        <time>2023-10-31T13:15:21Z</time>
      </trkpt>
      <trkpt lat="42.80015" lon="-0.03121">
        <ele>1714.1</ele>
        <time>2023-10-31T13:15:22Z</time>
      </trkpt>
      <trkpt lat="42.80014" lon="-0.03119">
        <ele>1713.8</ele>
        <time>2023-10-31T13:15:23Z</time>
      </trkpt>
      <trkpt lat="42.80014" lon="-0.03118">
        <ele>1713.5</ele>
        <time>2023-10-31T13:15:24Z</time>
      </trkpt>
      <trkpt lat="42.80015" lon="-0.03115">
        <ele>1713</ele>
        <time>2023-10-31T13:15:25Z</time>
      </trkpt>
      <trkpt lat="42.80015" lon="-0.03114">
        <ele>1712.8</ele>
        <time>2023-10-31T13:15:26Z</time>
      </trkpt>
      <trkpt lat="42.80015" lon="-0.03113">
        <ele>1712.7</ele>
        <time>2023-10-31T13:15:27Z</time>
      </trkpt>
      <trkpt lat="42.80015" lon="-0.03112">
        <ele>1712.5</ele>
        <time>2023-10-31T13:15:28Z</time>
      </trkpt>
      <trkpt lat="42.80015" lon="-0.0311">
        <ele>1712.2</ele>
        <time>2023-10-31T13:15:29Z</time>
      </trkpt>
      <trkpt lat="42.80015" lon="-0.0311">
        <ele>1712.2</ele>
        <time>2023-10-31T13:15:30Z</time>
      </trkpt>
      <trkpt lat="42.80016" lon="-0.03109">
        <ele>1712</ele>
        <time>2023-10-31T13:15:31Z</time>
      </trkpt>
      <trkpt lat="42.80016" lon="-0.03108">
        <ele>1711.9</ele>
        <time>2023-10-31T13:15:32Z</time>
      </trkpt>
      <trkpt lat="42.80016" lon="-0.03108">
        <ele>1711.9</ele>
        <time>2023-10-31T13:15:33Z</time>
      </trkpt>
      <trkpt lat="42.80015" lon="-0.03107">
        <ele>1711.6</ele>
        <time>2023-10-31T13:15:34Z</time>
      </trkpt>
      <trkpt lat="42.80015" lon="-0.03105">
        <ele>1711.4</ele>
        <time>2023-10-31T13:15:35Z</time>
      </trkpt>
      <trkpt lat="42.80015" lon="-0.03104">
        <ele>1711.2</ele>
        <time>2023-10-31T13:15:36Z</time>
      </trkpt>
      <trkpt lat="42.80015" lon="-0.03103">
        <ele>1711.1</ele>
        <time>2023-10-31T13:15:37Z</time>
      </trkpt>
      <trkpt lat="42.80015" lon="-0.03103">
        <ele>1711</ele>
        <time>2023-10-31T13:15:38Z</time>
      </trkpt>
      <trkpt lat="42.80014" lon="-0.03102">
        <ele>1710.8</ele>
        <time>2023-10-31T13:15:39Z</time>
      </trkpt>
      <trkpt lat="42.80014" lon="-0.03101">
        <ele>1710.7</ele>
        <time>2023-10-31T13:15:40Z</time>
      </trkpt>
      <trkpt lat="42.80014" lon="-0.031">
        <ele>1710.6</ele>
        <time>2023-10-31T13:15:41Z</time>
      </trkpt>
      <trkpt lat="42.80014" lon="-0.03099">
        <ele>1710.4</ele>
        <time>2023-10-31T13:15:42Z</time>
      </trkpt>
      <trkpt lat="42.80014" lon="-0.03098">
        <ele>1710.2</ele>
        <time>2023-10-31T13:15:43Z</time>
      </trkpt>
      <trkpt lat="42.80015" lon="-0.03096">
        <ele>1710</ele>
        <time>2023-10-31T13:15:44Z</time>
      </trkpt>
      <trkpt lat="42.80014" lon="-0.03096">
        <ele>1709.8</ele>
        <time>2023-10-31T13:15:45Z</time>
      </trkpt>
      <trkpt lat="42.80014" lon="-0.03095">
        <ele>1709.7</ele>
        <time>2023-10-31T13:15:46Z</time>
      </trkpt>
      <trkpt lat="42.80013" lon="-0.03095">
        <ele>1709.5</ele>
        <time>2023-10-31T13:15:47Z</time>
      </trkpt>
      <trkpt lat="42.80012" lon="-0.03096">
        <ele>1709.3</ele>
        <time>2023-10-31T13:15:48Z</time>
      </trkpt>
      <trkpt lat="42.80011" lon="-0.03097">
        <ele>1709.1</ele>
        <time>2023-10-31T13:15:49Z</time>
      </trkpt>
      <trkpt lat="42.8001" lon="-0.03099">
        <ele>1708.7</ele>
        <time>2023-10-31T13:15:50Z</time>
      </trkpt>
      <trkpt lat="42.80009" lon="-0.031">
        <ele>1708.4</ele>
        <time>2023-10-31T13:15:51Z</time>
      </trkpt>
      <trkpt lat="42.80008" lon="-0.03103">
        <ele>1708</ele>
        <time>2023-10-31T13:15:52Z</time>
      </trkpt>
      <trkpt lat="42.80007" lon="-0.03104">
        <ele>1707.8</ele>
        <time>2023-10-31T13:15:53Z</time>
      </trkpt>
      <trkpt lat="42.80007" lon="-0.03105">
        <ele>1707.7</ele>
        <time>2023-10-31T13:15:54Z</time>
      </trkpt>
      <trkpt lat="42.80005" lon="-0.03106">
        <ele>1707.3</ele>
        <time>2023-10-31T13:15:55Z</time>
      </trkpt>
      <trkpt lat="42.80005" lon="-0.03107">
        <ele>1707.1</ele>
        <time>2023-10-31T13:15:56Z</time>
      </trkpt>
      <trkpt lat="42.80004" lon="-0.03107">
        <ele>1706.9</ele>
        <time>2023-10-31T13:15:57Z</time>
      </trkpt>
      <trkpt lat="42.80003" lon="-0.03108">
        <ele>1706.7</ele>
        <time>2023-10-31T13:15:58Z</time>
      </trkpt>
      <trkpt lat="42.80002" lon="-0.03108">
        <ele>1706.5</ele>
        <time>2023-10-31T13:15:59Z</time>
      </trkpt>
      <trkpt lat="42.80001" lon="-0.0311">
        <ele>1706.2</ele>
        <time>2023-10-31T13:16:00Z</time>
      </trkpt>
      <trkpt lat="42.8" lon="-0.03111">
        <ele>1706</ele>
        <time>2023-10-31T13:16:01Z</time>
      </trkpt>
      <trkpt lat="42.8" lon="-0.03112">
        <ele>1705.8</ele>
        <time>2023-10-31T13:16:02Z</time>
      </trkpt>
      <trkpt lat="42.8" lon="-0.03113">
        <ele>1705.6</ele>
        <time>2023-10-31T13:16:03Z</time>
      </trkpt>
      <trkpt lat="42.79998" lon="-0.03114">
        <ele>1705.2</ele>
        <time>2023-10-31T13:16:04Z</time>
      </trkpt>
      <trkpt lat="42.79997" lon="-0.03113">
        <ele>1705</ele>
        <time>2023-10-31T13:16:05Z</time>
      </trkpt>
      <trkpt lat="42.79997" lon="-0.03113">
        <ele>1704.8</ele>
        <time>2023-10-31T13:16:06Z</time>
      </trkpt>
      <trkpt lat="42.79996" lon="-0.03113">
        <ele>1704.6</ele>
        <time>2023-10-31T13:16:07Z</time>
      </trkpt>
      <trkpt lat="42.79995" lon="-0.03113">
        <ele>1704.3</ele>
        <time>2023-10-31T13:16:08Z</time>
      </trkpt>
      <trkpt lat="42.79993" lon="-0.03113">
        <ele>1704</ele>
        <time>2023-10-31T13:16:09Z</time>
      </trkpt>
      <trkpt lat="42.79992" lon="-0.03112">
        <ele>1703.7</ele>
        <time>2023-10-31T13:16:10Z</time>
      </trkpt>
      <trkpt lat="42.79991" lon="-0.03111">
        <ele>1703.3</ele>
        <time>2023-10-31T13:16:11Z</time>
      </trkpt>
      <trkpt lat="42.7999" lon="-0.03111">
        <ele>1703</ele>
        <time>2023-10-31T13:16:12Z</time>
      </trkpt>
      <trkpt lat="42.79989" lon="-0.03111">
        <ele>1702.8</ele>
        <time>2023-10-31T13:16:13Z</time>
      </trkpt>
      <trkpt lat="42.79989" lon="-0.03112">
        <ele>1702.6</ele>
        <time>2023-10-31T13:16:14Z</time>
      </trkpt>
      <trkpt lat="42.79989" lon="-0.03114">
        <ele>1702.2</ele>
        <time>2023-10-31T13:16:15Z</time>
      </trkpt>
      <trkpt lat="42.79989" lon="-0.03114">
        <ele>1702.1</ele>
        <time>2023-10-31T13:16:16Z</time>
      </trkpt>
      <trkpt lat="42.7999" lon="-0.03113">
        <ele>1702</ele>
        <time>2023-10-31T13:16:17Z</time>
      </trkpt>
      <trkpt lat="42.7999" lon="-0.03113">
        <ele>1702</ele>
        <time>2023-10-31T13:16:18Z</time>
      </trkpt>
      <trkpt lat="42.7999" lon="-0.03113">
        <ele>1702</ele>
        <time>2023-10-31T13:16:19Z</time>
      </trkpt>
      <trkpt lat="42.7999" lon="-0.03113">
        <ele>1702</ele>
        <time>2023-10-31T13:16:20Z</time>
      </trkpt>
      <trkpt lat="42.7999" lon="-0.03113">
        <ele>1701.9</ele>
        <time>2023-10-31T13:16:21Z</time>
      </trkpt>
      <trkpt lat="42.7999" lon="-0.03112">
        <ele>1701.7</ele>
        <time>2023-10-31T13:16:22Z</time>
      </trkpt>
      <trkpt lat="42.7999" lon="-0.03112">
        <ele>1701.7</ele>
        <time>2023-10-31T13:16:23Z</time>
      </trkpt>
      <trkpt lat="42.7999" lon="-0.03111">
        <ele>1701.5</ele>
        <time>2023-10-31T13:16:24Z</time>
      </trkpt>
      <trkpt lat="42.7999" lon="-0.0311">
        <ele>1701.3</ele>
        <time>2023-10-31T13:16:25Z</time>
      </trkpt>
      <trkpt lat="42.7999" lon="-0.0311">
        <ele>1701.1</ele>
        <time>2023-10-31T13:16:26Z</time>
      </trkpt>
      <trkpt lat="42.79991" lon="-0.03108">
        <ele>1700.7</ele>
        <time>2023-10-31T13:16:27Z</time>
      </trkpt>
      <trkpt lat="42.7999" lon="-0.03107">
        <ele>1700.5</ele>
        <time>2023-10-31T13:16:28Z</time>
      </trkpt>
      <trkpt lat="42.79991" lon="-0.03106">
        <ele>1700.3</ele>
        <time>2023-10-31T13:16:29Z</time>
      </trkpt>
      <trkpt lat="42.7999" lon="-0.03105">
        <ele>1700</ele>
        <time>2023-10-31T13:16:30Z</time>
      </trkpt>
      <trkpt lat="42.79989" lon="-0.03106">
        <ele>1699.8</ele>
        <time>2023-10-31T13:16:31Z</time>
      </trkpt>
      <trkpt lat="42.79988" lon="-0.03106">
        <ele>1699.5</ele>
        <time>2023-10-31T13:16:32Z</time>
      </trkpt>
      <trkpt lat="42.79988" lon="-0.03106">
        <ele>1699.3</ele>
        <time>2023-10-31T13:16:33Z</time>
      </trkpt>
      <trkpt lat="42.79987" lon="-0.03106">
        <ele>1699.1</ele>
        <time>2023-10-31T13:16:34Z</time>
      </trkpt>
      <trkpt lat="42.79986" lon="-0.03107">
        <ele>1698.9</ele>
        <time>2023-10-31T13:16:35Z</time>
      </trkpt>
      <trkpt lat="42.79986" lon="-0.03107">
        <ele>1698.8</ele>
        <time>2023-10-31T13:16:36Z</time>
      </trkpt>
      <trkpt lat="42.79986" lon="-0.03107">
        <ele>1698.6</ele>
        <time>2023-10-31T13:16:37Z</time>
      </trkpt>
      <trkpt lat="42.79985" lon="-0.03108">
        <ele>1698.4</ele>
        <time>2023-10-31T13:16:38Z</time>
      </trkpt>
      <trkpt lat="42.79984" lon="-0.03108">
        <ele>1698.2</ele>
        <time>2023-10-31T13:16:39Z</time>
      </trkpt>
      <trkpt lat="42.79983" lon="-0.03108">
        <ele>1697.8</ele>
        <time>2023-10-31T13:16:40Z</time>
      </trkpt>
      <trkpt lat="42.79983" lon="-0.03109">
        <ele>1697.6</ele>
        <time>2023-10-31T13:16:41Z</time>
      </trkpt>
      <trkpt lat="42.79983" lon="-0.03109">
        <ele>1697.6</ele>
        <time>2023-10-31T13:16:42Z</time>
      </trkpt>
      <trkpt lat="42.79983" lon="-0.03109">
        <ele>1697.5</ele>
        <time>2023-10-31T13:16:43Z</time>
      </trkpt>
      <trkpt lat="42.79983" lon="-0.0311">
        <ele>1697.3</ele>
        <time>2023-10-31T13:16:44Z</time>
      </trkpt>
      <trkpt lat="42.79982" lon="-0.03111">
        <ele>1697.1</ele>
        <time>2023-10-31T13:16:45Z</time>
      </trkpt>
      <trkpt lat="42.79982" lon="-0.03111">
        <ele>1697</ele>
        <time>2023-10-31T13:16:46Z</time>
      </trkpt>
      <trkpt lat="42.79982" lon="-0.03112">
        <ele>1696.8</ele>
        <time>2023-10-31T13:16:47Z</time>
      </trkpt>
      <trkpt lat="42.79982" lon="-0.03113">
        <ele>1696.7</ele>
        <time>2023-10-31T13:16:48Z</time>
      </trkpt>
      <trkpt lat="42.79982" lon="-0.03112">
        <ele>1696.6</ele>
        <time>2023-10-31T13:16:49Z</time>
      </trkpt>
      <trkpt lat="42.79981" lon="-0.03112">
        <ele>1696.5</ele>
        <time>2023-10-31T13:16:50Z</time>
      </trkpt>
      <trkpt lat="42.7998" lon="-0.03113">
        <ele>1696</ele>
        <time>2023-10-31T13:16:51Z</time>
      </trkpt>
      <trkpt lat="42.79979" lon="-0.03112">
        <ele>1695.8</ele>
        <time>2023-10-31T13:16:52Z</time>
      </trkpt>
      <trkpt lat="42.7998" lon="-0.03111">
        <ele>1695.5</ele>
        <time>2023-10-31T13:16:53Z</time>
      </trkpt>
      <trkpt lat="42.79979" lon="-0.0311">
        <ele>1695.2</ele>
        <time>2023-10-31T13:16:54Z</time>
      </trkpt>
      <trkpt lat="42.79979" lon="-0.0311">
        <ele>1695.2</ele>
        <time>2023-10-31T13:16:55Z</time>
      </trkpt>
      <trkpt lat="42.79979" lon="-0.03109">
        <ele>1695</ele>
        <time>2023-10-31T13:16:56Z</time>
      </trkpt>
      <trkpt lat="42.79979" lon="-0.03109">
        <ele>1694.9</ele>
        <time>2023-10-31T13:16:57Z</time>
      </trkpt>
      <trkpt lat="42.79978" lon="-0.0311">
        <ele>1694.9</ele>
        <time>2023-10-31T13:16:58Z</time>
      </trkpt>
      <trkpt lat="42.79978" lon="-0.03109">
        <ele>1694.7</ele>
        <time>2023-10-31T13:16:59Z</time>
      </trkpt>
      <trkpt lat="42.79977" lon="-0.03111">
        <ele>1694.2</ele>
        <time>2023-10-31T13:17:00Z</time>
      </trkpt>
      <trkpt lat="42.79978" lon="-0.03109">
        <ele>1693.9</ele>
        <time>2023-10-31T13:17:01Z</time>
      </trkpt>
      <trkpt lat="42.79978" lon="-0.03109">
        <ele>1693.8</ele>
        <time>2023-10-31T13:17:02Z</time>
      </trkpt>
      <trkpt lat="42.79976" lon="-0.03108">
        <ele>1693.3</ele>
        <time>2023-10-31T13:17:03Z</time>
      </trkpt>
      <trkpt lat="42.79977" lon="-0.0311">
        <ele>1693</ele>
        <time>2023-10-31T13:17:04Z</time>
      </trkpt>
      <trkpt lat="42.79977" lon="-0.03111">
        <ele>1692.8</ele>
        <time>2023-10-31T13:17:05Z</time>
      </trkpt>
      <trkpt lat="42.79977" lon="-0.03111">
        <ele>1692.6</ele>
        <time>2023-10-31T13:17:06Z</time>
      </trkpt>
      <trkpt lat="42.79976" lon="-0.03112">
        <ele>1692.5</ele>
        <time>2023-10-31T13:17:07Z</time>
      </trkpt>
      <trkpt lat="42.79976" lon="-0.03111">
        <ele>1692.4</ele>
        <time>2023-10-31T13:17:08Z</time>
      </trkpt>
      <trkpt lat="42.79977" lon="-0.03109">
        <ele>1692</ele>
        <time>2023-10-31T13:17:09Z</time>
      </trkpt>
      <trkpt lat="42.79976" lon="-0.0311">
        <ele>1691.9</ele>
        <time>2023-10-31T13:17:10Z</time>
      </trkpt>
      <trkpt lat="42.79976" lon="-0.03109">
        <ele>1691.7</ele>
        <time>2023-10-31T13:17:11Z</time>
      </trkpt>
      <trkpt lat="42.79976" lon="-0.03109">
        <ele>1691.5</ele>
        <time>2023-10-31T13:17:12Z</time>
      </trkpt>
      <trkpt lat="42.79975" lon="-0.03108">
        <ele>1691.3</ele>
        <time>2023-10-31T13:17:13Z</time>
      </trkpt>
      <trkpt lat="42.79974" lon="-0.03106">
        <ele>1690.8</ele>
        <time>2023-10-31T13:17:14Z</time>
      </trkpt>
      <trkpt lat="42.79973" lon="-0.03106">
        <ele>1690.6</ele>
        <time>2023-10-31T13:17:15Z</time>
      </trkpt>
      <trkpt lat="42.79972" lon="-0.03105">
        <ele>1690.4</ele>
        <time>2023-10-31T13:17:16Z</time>
      </trkpt>
      <trkpt lat="42.79972" lon="-0.03106">
        <ele>1690.3</ele>
        <time>2023-10-31T13:17:17Z</time>
      </trkpt>
      <trkpt lat="42.79972" lon="-0.03105">
        <ele>1690.2</ele>
        <time>2023-10-31T13:17:18Z</time>
      </trkpt>
      <trkpt lat="42.79971" lon="-0.03105">
        <ele>1690</ele>
        <time>2023-10-31T13:17:19Z</time>
      </trkpt>
      <trkpt lat="42.79971" lon="-0.03103">
        <ele>1689.7</ele>
        <time>2023-10-31T13:17:20Z</time>
      </trkpt>
      <trkpt lat="42.79971" lon="-0.03103">
        <ele>1689.7</ele>
        <time>2023-10-31T13:17:21Z</time>
      </trkpt>
      <trkpt lat="42.7997" lon="-0.03104">
        <ele>1689.5</ele>
        <time>2023-10-31T13:17:22Z</time>
      </trkpt>
      <trkpt lat="42.7997" lon="-0.03104">
        <ele>1689.4</ele>
        <time>2023-10-31T13:17:23Z</time>
      </trkpt>
      <trkpt lat="42.79969" lon="-0.03104">
        <ele>1689.2</ele>
        <time>2023-10-31T13:17:24Z</time>
      </trkpt>
      <trkpt lat="42.79968" lon="-0.03104">
        <ele>1689</ele>
        <time>2023-10-31T13:17:25Z</time>
      </trkpt>
      <trkpt lat="42.79968" lon="-0.03104">
        <ele>1689</ele>
        <time>2023-10-31T13:17:26Z</time>
      </trkpt>
      <trkpt lat="42.79968" lon="-0.03105">
        <ele>1688.8</ele>
        <time>2023-10-31T13:17:27Z</time>
      </trkpt>
      <trkpt lat="42.79967" lon="-0.03105">
        <ele>1688.5</ele>
        <time>2023-10-31T13:17:28Z</time>
      </trkpt>
      <trkpt lat="42.79966" lon="-0.03106">
        <ele>1688.4</ele>
        <time>2023-10-31T13:17:29Z</time>
      </trkpt>
      <trkpt lat="42.79966" lon="-0.03105">
        <ele>1688.4</ele>
        <time>2023-10-31T13:17:30Z</time>
      </trkpt>
      <trkpt lat="42.79965" lon="-0.03105">
        <ele>1688.1</ele>
        <time>2023-10-31T13:17:31Z</time>
      </trkpt>
      <trkpt lat="42.79965" lon="-0.03105">
        <ele>1687.9</ele>
        <time>2023-10-31T13:17:32Z</time>
      </trkpt>
      <trkpt lat="42.79965" lon="-0.03105">
        <ele>1687.9</ele>
        <time>2023-10-31T13:17:33Z</time>
      </trkpt>
      <trkpt lat="42.79965" lon="-0.03105">
        <ele>1687.8</ele>
        <time>2023-10-31T13:17:34Z</time>
      </trkpt>
      <trkpt lat="42.79965" lon="-0.03104">
        <ele>1687.6</ele>
        <time>2023-10-31T13:17:35Z</time>
      </trkpt>
      <trkpt lat="42.79965" lon="-0.03104">
        <ele>1687.6</ele>
        <time>2023-10-31T13:17:36Z</time>
      </trkpt>
      <trkpt lat="42.79965" lon="-0.03104">
        <ele>1687.6</ele>
        <time>2023-10-31T13:17:37Z</time>
      </trkpt>
      <trkpt lat="42.79964" lon="-0.03105">
        <ele>1687.3</ele>
        <time>2023-10-31T13:17:38Z</time>
      </trkpt>
      <trkpt lat="42.79964" lon="-0.03105">
        <ele>1687.2</ele>
        <time>2023-10-31T13:17:39Z</time>
      </trkpt>
      <trkpt lat="42.79963" lon="-0.03105">
        <ele>1687.1</ele>
        <time>2023-10-31T13:17:40Z</time>
      </trkpt>
      <trkpt lat="42.79963" lon="-0.03105">
        <ele>1687</ele>
        <time>2023-10-31T13:17:41Z</time>
      </trkpt>
      <trkpt lat="42.79963" lon="-0.03104">
        <ele>1686.9</ele>
        <time>2023-10-31T13:17:42Z</time>
      </trkpt>
      <trkpt lat="42.79963" lon="-0.03104">
        <ele>1686.9</ele>
        <time>2023-10-31T13:17:43Z</time>
      </trkpt>
      <trkpt lat="42.79963" lon="-0.03103">
        <ele>1686.7</ele>
        <time>2023-10-31T13:17:44Z</time>
      </trkpt>
      <trkpt lat="42.79962" lon="-0.03104">
        <ele>1686.4</ele>
        <time>2023-10-31T13:17:45Z</time>
      </trkpt>
      <trkpt lat="42.79961" lon="-0.03104">
        <ele>1686.3</ele>
        <time>2023-10-31T13:17:46Z</time>
      </trkpt>
      <trkpt lat="42.79961" lon="-0.03103">
        <ele>1686.2</ele>
        <time>2023-10-31T13:17:47Z</time>
      </trkpt>
      <trkpt lat="42.79961" lon="-0.03103">
        <ele>1686.1</ele>
        <time>2023-10-31T13:17:48Z</time>
      </trkpt>
      <trkpt lat="42.7996" lon="-0.03103">
        <ele>1686</ele>
        <time>2023-10-31T13:17:49Z</time>
      </trkpt>
      <trkpt lat="42.7996" lon="-0.03103">
        <ele>1685.8</ele>
        <time>2023-10-31T13:17:50Z</time>
      </trkpt>
      <trkpt lat="42.79959" lon="-0.03102">
        <ele>1685.6</ele>
        <time>2023-10-31T13:17:51Z</time>
      </trkpt>
      <trkpt lat="42.79958" lon="-0.03102">
        <ele>1685.4</ele>
        <time>2023-10-31T13:17:52Z</time>
      </trkpt>
      <trkpt lat="42.79958" lon="-0.03101">
        <ele>1685.2</ele>
        <time>2023-10-31T13:17:53Z</time>
      </trkpt>
      <trkpt lat="42.79958" lon="-0.03099">
        <ele>1684.7</ele>
        <time>2023-10-31T13:17:54Z</time>
      </trkpt>
      <trkpt lat="42.79958" lon="-0.03097">
        <ele>1684.5</ele>
        <time>2023-10-31T13:17:55Z</time>
      </trkpt>
      <trkpt lat="42.79958" lon="-0.03096">
        <ele>1684.2</ele>
        <time>2023-10-31T13:17:56Z</time>
      </trkpt>
      <trkpt lat="42.79956" lon="-0.03094">
        <ele>1683.7</ele>
        <time>2023-10-31T13:17:57Z</time>
      </trkpt>
      <trkpt lat="42.79956" lon="-0.03093">
        <ele>1683.6</ele>
        <time>2023-10-31T13:17:58Z</time>
      </trkpt>
      <trkpt lat="42.79956" lon="-0.03093">
        <ele>1683.5</ele>
        <time>2023-10-31T13:17:59Z</time>
      </trkpt>
      <trkpt lat="42.79955" lon="-0.03092">
        <ele>1683.3</ele>
        <time>2023-10-31T13:18:00Z</time>
      </trkpt>
      <trkpt lat="42.79955" lon="-0.03091">
        <ele>1683.2</ele>
        <time>2023-10-31T13:18:01Z</time>
      </trkpt>
      <trkpt lat="42.79955" lon="-0.03091">
        <ele>1683.1</ele>
        <time>2023-10-31T13:18:02Z</time>
      </trkpt>
      <trkpt lat="42.79955" lon="-0.0309">
        <ele>1682.9</ele>
        <time>2023-10-31T13:18:03Z</time>
      </trkpt>
      <trkpt lat="42.79955" lon="-0.0309">
        <ele>1682.7</ele>
        <time>2023-10-31T13:18:04Z</time>
      </trkpt>
      <trkpt lat="42.79954" lon="-0.0309">
        <ele>1682.6</ele>
        <time>2023-10-31T13:18:05Z</time>
      </trkpt>
      <trkpt lat="42.79954" lon="-0.03091">
        <ele>1682.4</ele>
        <time>2023-10-31T13:18:06Z</time>
      </trkpt>
      <trkpt lat="42.79954" lon="-0.03091">
        <ele>1682.4</ele>
        <time>2023-10-31T13:18:07Z</time>
      </trkpt>
      <trkpt lat="42.79954" lon="-0.03091">
        <ele>1682.3</ele>
        <time>2023-10-31T13:18:08Z</time>
      </trkpt>
      <trkpt lat="42.79953" lon="-0.03091">
        <ele>1682.2</ele>
        <time>2023-10-31T13:18:09Z</time>
      </trkpt>
      <trkpt lat="42.79953" lon="-0.0309">
        <ele>1682</ele>
        <time>2023-10-31T13:18:10Z</time>
      </trkpt>
      <trkpt lat="42.79952" lon="-0.03089">
        <ele>1681.8</ele>
        <time>2023-10-31T13:18:11Z</time>
      </trkpt>
      <trkpt lat="42.79951" lon="-0.03089">
        <ele>1681.6</ele>
        <time>2023-10-31T13:18:12Z</time>
      </trkpt>
      <trkpt lat="42.7995" lon="-0.03088">
        <ele>1681.3</ele>
        <time>2023-10-31T13:18:13Z</time>
      </trkpt>
      <trkpt lat="42.79949" lon="-0.03089">
        <ele>1681</ele>
        <time>2023-10-31T13:18:14Z</time>
      </trkpt>
      <trkpt lat="42.79949" lon="-0.0309">
        <ele>1680.8</ele>
        <time>2023-10-31T13:18:15Z</time>
      </trkpt>
      <trkpt lat="42.79948" lon="-0.0309">
        <ele>1680.6</ele>
        <time>2023-10-31T13:18:16Z</time>
      </trkpt>
      <trkpt lat="42.79948" lon="-0.03089">
        <ele>1680.6</ele>
        <time>2023-10-31T13:18:17Z</time>
      </trkpt>
      <trkpt lat="42.79947" lon="-0.03089">
        <ele>1680.4</ele>
        <time>2023-10-31T13:18:18Z</time>
      </trkpt>
      <trkpt lat="42.79947" lon="-0.03088">
        <ele>1680.3</ele>
        <time>2023-10-31T13:18:19Z</time>
      </trkpt>
      <trkpt lat="42.79947" lon="-0.03087">
        <ele>1680.1</ele>
        <time>2023-10-31T13:18:20Z</time>
      </trkpt>
      <trkpt lat="42.79947" lon="-0.03086">
        <ele>1679.9</ele>
        <time>2023-10-31T13:18:21Z</time>
      </trkpt>
      <trkpt lat="42.79948" lon="-0.03085">
        <ele>1679.7</ele>
        <time>2023-10-31T13:18:22Z</time>
      </trkpt>
      <trkpt lat="42.79947" lon="-0.03084">
        <ele>1679.6</ele>
        <time>2023-10-31T13:18:23Z</time>
      </trkpt>
      <trkpt lat="42.79947" lon="-0.03083">
        <ele>1679.3</ele>
        <time>2023-10-31T13:18:24Z</time>
      </trkpt>
      <trkpt lat="42.79947" lon="-0.03082">
        <ele>1679.2</ele>
        <time>2023-10-31T13:18:25Z</time>
      </trkpt>
      <trkpt lat="42.79946" lon="-0.03083">
        <ele>1678.9</ele>
        <time>2023-10-31T13:18:26Z</time>
      </trkpt>
      <trkpt lat="42.79945" lon="-0.03084">
        <ele>1678.7</ele>
        <time>2023-10-31T13:18:27Z</time>
      </trkpt>
      <trkpt lat="42.79945" lon="-0.03083">
        <ele>1678.6</ele>
        <time>2023-10-31T13:18:28Z</time>
      </trkpt>
      <trkpt lat="42.79945" lon="-0.03083">
        <ele>1678.5</ele>
        <time>2023-10-31T13:18:29Z</time>
      </trkpt>
      <trkpt lat="42.79944" lon="-0.03082">
        <ele>1678.2</ele>
        <time>2023-10-31T13:18:30Z</time>
      </trkpt>
      <trkpt lat="42.79943" lon="-0.03082">
        <ele>1678</ele>
        <time>2023-10-31T13:18:31Z</time>
      </trkpt>
      <trkpt lat="42.79942" lon="-0.03082">
        <ele>1677.8</ele>
        <time>2023-10-31T13:18:32Z</time>
      </trkpt>
      <trkpt lat="42.79942" lon="-0.03081">
        <ele>1677.6</ele>
        <time>2023-10-31T13:18:33Z</time>
      </trkpt>
      <trkpt lat="42.79941" lon="-0.03081">
        <ele>1677.4</ele>
        <time>2023-10-31T13:18:34Z</time>
      </trkpt>
      <trkpt lat="42.7994" lon="-0.03081">
        <ele>1677.2</ele>
        <time>2023-10-31T13:18:35Z</time>
      </trkpt>
      <trkpt lat="42.79939" lon="-0.03081">
        <ele>1677</ele>
        <time>2023-10-31T13:18:36Z</time>
      </trkpt>
      <trkpt lat="42.79939" lon="-0.0308">
        <ele>1676.8</ele>
        <time>2023-10-31T13:18:37Z</time>
      </trkpt>
      <trkpt lat="42.79938" lon="-0.0308">
        <ele>1676.6</ele>
        <time>2023-10-31T13:18:38Z</time>
      </trkpt>
      <trkpt lat="42.79937" lon="-0.03079">
        <ele>1676.4</ele>
        <time>2023-10-31T13:18:39Z</time>
      </trkpt>
      <trkpt lat="42.79937" lon="-0.03079">
        <ele>1676.2</ele>
        <time>2023-10-31T13:18:40Z</time>
      </trkpt>
      <trkpt lat="42.79936" lon="-0.03079">
        <ele>1676.1</ele>
        <time>2023-10-31T13:18:41Z</time>
      </trkpt>
      <trkpt lat="42.79935" lon="-0.03078">
        <ele>1675.9</ele>
        <time>2023-10-31T13:18:42Z</time>
      </trkpt>
      <trkpt lat="42.79934" lon="-0.03076">
        <ele>1675.4</ele>
        <time>2023-10-31T13:18:43Z</time>
      </trkpt>
      <trkpt lat="42.79933" lon="-0.03075">
        <ele>1675.2</ele>
        <time>2023-10-31T13:18:44Z</time>
      </trkpt>
      <trkpt lat="42.79932" lon="-0.03075">
        <ele>1674.9</ele>
        <time>2023-10-31T13:18:45Z</time>
      </trkpt>
      <trkpt lat="42.79931" lon="-0.03075">
        <ele>1674.6</ele>
        <time>2023-10-31T13:18:46Z</time>
      </trkpt>
      <trkpt lat="42.7993" lon="-0.03075">
        <ele>1674.4</ele>
        <time>2023-10-31T13:18:47Z</time>
      </trkpt>
      <trkpt lat="42.7993" lon="-0.03075">
        <ele>1674.3</ele>
        <time>2023-10-31T13:18:48Z</time>
      </trkpt>
      <trkpt lat="42.79929" lon="-0.03075">
        <ele>1674.2</ele>
        <time>2023-10-31T13:18:49Z</time>
      </trkpt>
      <trkpt lat="42.7993" lon="-0.03075">
        <ele>1674.1</ele>
        <time>2023-10-31T13:18:50Z</time>
      </trkpt>
      <trkpt lat="42.79929" lon="-0.03075">
        <ele>1674.1</ele>
        <time>2023-10-31T13:18:51Z</time>
      </trkpt>
      <trkpt lat="42.79929" lon="-0.03075">
        <ele>1674</ele>
        <time>2023-10-31T13:18:52Z</time>
      </trkpt>
      <trkpt lat="42.79929" lon="-0.03075">
        <ele>1673.9</ele>
        <time>2023-10-31T13:18:53Z</time>
      </trkpt>
      <trkpt lat="42.79928" lon="-0.03075">
        <ele>1673.6</ele>
        <time>2023-10-31T13:18:54Z</time>
      </trkpt>
      <trkpt lat="42.79928" lon="-0.03075">
        <ele>1673.5</ele>
        <time>2023-10-31T13:18:55Z</time>
      </trkpt>
      <trkpt lat="42.79928" lon="-0.03075">
        <ele>1673.4</ele>
        <time>2023-10-31T13:18:56Z</time>
      </trkpt>
      <trkpt lat="42.79927" lon="-0.03075">
        <ele>1673.3</ele>
        <time>2023-10-31T13:18:57Z</time>
      </trkpt>
      <trkpt lat="42.79927" lon="-0.03075">
        <ele>1673.2</ele>
        <time>2023-10-31T13:18:58Z</time>
      </trkpt>
      <trkpt lat="42.79927" lon="-0.03074">
        <ele>1673.1</ele>
        <time>2023-10-31T13:18:59Z</time>
      </trkpt>
      <trkpt lat="42.79927" lon="-0.03074">
        <ele>1673</ele>
        <time>2023-10-31T13:19:00Z</time>
      </trkpt>
      <trkpt lat="42.79927" lon="-0.03073">
        <ele>1672.9</ele>
        <time>2023-10-31T13:19:01Z</time>
      </trkpt>
      <trkpt lat="42.79926" lon="-0.03073">
        <ele>1672.8</ele>
        <time>2023-10-31T13:19:02Z</time>
      </trkpt>
      <trkpt lat="42.79926" lon="-0.03073">
        <ele>1672.7</ele>
        <time>2023-10-31T13:19:03Z</time>
      </trkpt>
      <trkpt lat="42.79925" lon="-0.03072">
        <ele>1672.5</ele>
        <time>2023-10-31T13:19:04Z</time>
      </trkpt>
      <trkpt lat="42.79924" lon="-0.03073">
        <ele>1672.2</ele>
        <time>2023-10-31T13:19:05Z</time>
      </trkpt>
      <trkpt lat="42.79924" lon="-0.03074">
        <ele>1672</ele>
        <time>2023-10-31T13:19:06Z</time>
      </trkpt>
      <trkpt lat="42.79923" lon="-0.03075">
        <ele>1671.8</ele>
        <time>2023-10-31T13:19:07Z</time>
      </trkpt>
      <trkpt lat="42.79923" lon="-0.03075">
        <ele>1671.6</ele>
        <time>2023-10-31T13:19:08Z</time>
      </trkpt>
      <trkpt lat="42.79922" lon="-0.03077">
        <ele>1671.2</ele>
        <time>2023-10-31T13:19:09Z</time>
      </trkpt>
      <trkpt lat="42.79921" lon="-0.03078">
        <ele>1670.9</ele>
        <time>2023-10-31T13:19:10Z</time>
      </trkpt>
      <trkpt lat="42.7992" lon="-0.03079">
        <ele>1670.7</ele>
        <time>2023-10-31T13:19:11Z</time>
      </trkpt>
      <trkpt lat="42.7992" lon="-0.0308">
        <ele>1670.5</ele>
        <time>2023-10-31T13:19:12Z</time>
      </trkpt>
      <trkpt lat="42.79919" lon="-0.0308">
        <ele>1670.3</ele>
        <time>2023-10-31T13:19:13Z</time>
      </trkpt>
      <trkpt lat="42.79919" lon="-0.0308">
        <ele>1670.2</ele>
        <time>2023-10-31T13:19:14Z</time>
      </trkpt>
      <trkpt lat="42.79919" lon="-0.03081">
        <ele>1670.1</ele>
        <time>2023-10-31T13:19:15Z</time>
      </trkpt>
      <trkpt lat="42.79919" lon="-0.03082">
        <ele>1669.9</ele>
        <time>2023-10-31T13:19:16Z</time>
      </trkpt>
      <trkpt lat="42.79919" lon="-0.03082">
        <ele>1669.6</ele>
        <time>2023-10-31T13:19:17Z</time>
      </trkpt>
      <trkpt lat="42.79918" lon="-0.03083">
        <ele>1669.4</ele>
        <time>2023-10-31T13:19:18Z</time>
      </trkpt>
      <trkpt lat="42.79917" lon="-0.03084">
        <ele>1669</ele>
        <time>2023-10-31T13:19:19Z</time>
      </trkpt>
      <trkpt lat="42.79916" lon="-0.03084">
        <ele>1668.8</ele>
        <time>2023-10-31T13:19:20Z</time>
      </trkpt>
      <trkpt lat="42.79916" lon="-0.03084">
        <ele>1668.8</ele>
        <time>2023-10-31T13:19:21Z</time>
      </trkpt>
      <trkpt lat="42.79916" lon="-0.03084">
        <ele>1668.7</ele>
        <time>2023-10-31T13:19:22Z</time>
      </trkpt>
      <trkpt lat="42.79914" lon="-0.03085">
        <ele>1668.3</ele>
        <time>2023-10-31T13:19:23Z</time>
      </trkpt>
      <trkpt lat="42.79915" lon="-0.03084">
        <ele>1668.1</ele>
        <time>2023-10-31T13:19:24Z</time>
      </trkpt>
      <trkpt lat="42.79914" lon="-0.03083">
        <ele>1667.6</ele>
        <time>2023-10-31T13:19:25Z</time>
      </trkpt>
      <trkpt lat="42.79913" lon="-0.03083">
        <ele>1667.4</ele>
        <time>2023-10-31T13:19:26Z</time>
      </trkpt>
      <trkpt lat="42.79912" lon="-0.03083">
        <ele>1667.2</ele>
        <time>2023-10-31T13:19:27Z</time>
      </trkpt>
      <trkpt lat="42.79912" lon="-0.03083">
        <ele>1667.1</ele>
        <time>2023-10-31T13:19:28Z</time>
      </trkpt>
      <trkpt lat="42.79912" lon="-0.03084">
        <ele>1667.1</ele>
        <time>2023-10-31T13:19:29Z</time>
      </trkpt>
      <trkpt lat="42.79912" lon="-0.03083">
        <ele>1667</ele>
        <time>2023-10-31T13:19:30Z</time>
      </trkpt>
      <trkpt lat="42.79912" lon="-0.03083">
        <ele>1666.9</ele>
        <time>2023-10-31T13:19:31Z</time>
      </trkpt>
      <trkpt lat="42.79911" lon="-0.03083">
        <ele>1666.8</ele>
        <time>2023-10-31T13:19:32Z</time>
      </trkpt>
      <trkpt lat="42.7991" lon="-0.03082">
        <ele>1666.4</ele>
        <time>2023-10-31T13:19:33Z</time>
      </trkpt>
      <trkpt lat="42.7991" lon="-0.0308">
        <ele>1666</ele>
        <time>2023-10-31T13:19:34Z</time>
      </trkpt>
      <trkpt lat="42.79909" lon="-0.03079">
        <ele>1665.7</ele>
        <time>2023-10-31T13:19:35Z</time>
      </trkpt>
      <trkpt lat="42.79909" lon="-0.03079">
        <ele>1665.7</ele>
        <time>2023-10-31T13:19:36Z</time>
      </trkpt>
      <trkpt lat="42.79909" lon="-0.0308">
        <ele>1665.5</ele>
        <time>2023-10-31T13:19:37Z</time>
      </trkpt>
      <trkpt lat="42.79908" lon="-0.0308">
        <ele>1665.4</ele>
        <time>2023-10-31T13:19:38Z</time>
      </trkpt>
      <trkpt lat="42.79908" lon="-0.0308">
        <ele>1665.4</ele>
        <time>2023-10-31T13:19:39Z</time>
      </trkpt>
      <trkpt lat="42.79908" lon="-0.0308">
        <ele>1665.3</ele>
        <time>2023-10-31T13:19:40Z</time>
      </trkpt>
      <trkpt lat="42.79908" lon="-0.0308">
        <ele>1665.3</ele>
        <time>2023-10-31T13:19:41Z</time>
      </trkpt>
      <trkpt lat="42.79908" lon="-0.03079">
        <ele>1665.1</ele>
        <time>2023-10-31T13:19:42Z</time>
      </trkpt>
      <trkpt lat="42.79908" lon="-0.03079">
        <ele>1665</ele>
        <time>2023-10-31T13:19:43Z</time>
      </trkpt>
      <trkpt lat="42.79908" lon="-0.03078">
        <ele>1664.9</ele>
        <time>2023-10-31T13:19:44Z</time>
      </trkpt>
      <trkpt lat="42.79908" lon="-0.03077">
        <ele>1664.7</ele>
        <time>2023-10-31T13:19:45Z</time>
      </trkpt>
      <trkpt lat="42.79908" lon="-0.03077">
        <ele>1664.4</ele>
        <time>2023-10-31T13:19:46Z</time>
      </trkpt>
      <trkpt lat="42.79907" lon="-0.03076">
        <ele>1664.1</ele>
        <time>2023-10-31T13:19:47Z</time>
      </trkpt>
      <trkpt lat="42.79906" lon="-0.03074">
        <ele>1663.7</ele>
        <time>2023-10-31T13:19:48Z</time>
      </trkpt>
      <trkpt lat="42.79906" lon="-0.03074">
        <ele>1663.6</ele>
        <time>2023-10-31T13:19:49Z</time>
      </trkpt>
      <trkpt lat="42.79906" lon="-0.03074">
        <ele>1663.5</ele>
        <time>2023-10-31T13:19:50Z</time>
      </trkpt>
      <trkpt lat="42.79906" lon="-0.03074">
        <ele>1663.5</ele>
        <time>2023-10-31T13:19:51Z</time>
      </trkpt>
      <trkpt lat="42.79906" lon="-0.03073">
        <ele>1663.3</ele>
        <time>2023-10-31T13:19:52Z</time>
      </trkpt>
      <trkpt lat="42.79905" lon="-0.03073">
        <ele>1663</ele>
        <time>2023-10-31T13:19:53Z</time>
      </trkpt>
      <trkpt lat="42.79905" lon="-0.03072">
        <ele>1662.8</ele>
        <time>2023-10-31T13:19:54Z</time>
      </trkpt>
      <trkpt lat="42.79906" lon="-0.03071">
        <ele>1662.6</ele>
        <time>2023-10-31T13:19:55Z</time>
      </trkpt>
      <trkpt lat="42.79906" lon="-0.03071">
        <ele>1662.4</ele>
        <time>2023-10-31T13:19:56Z</time>
      </trkpt>
      <trkpt lat="42.79907" lon="-0.0307">
        <ele>1662.3</ele>
        <time>2023-10-31T13:19:57Z</time>
      </trkpt>
      <trkpt lat="42.79907" lon="-0.03069">
        <ele>1662</ele>
        <time>2023-10-31T13:19:58Z</time>
      </trkpt>
      <trkpt lat="42.79907" lon="-0.0307">
        <ele>1661.9</ele>
        <time>2023-10-31T13:19:59Z</time>
      </trkpt>
      <trkpt lat="42.79908" lon="-0.03069">
        <ele>1661.6</ele>
        <time>2023-10-31T13:20:00Z</time>
      </trkpt>
      <trkpt lat="42.79909" lon="-0.0307">
        <ele>1661.5</ele>
        <time>2023-10-31T13:20:01Z</time>
      </trkpt>
      <trkpt lat="42.79908" lon="-0.03069">
        <ele>1661.2</ele>
        <time>2023-10-31T13:20:02Z</time>
      </trkpt>
      <trkpt lat="42.79908" lon="-0.03068">
        <ele>1661</ele>
        <time>2023-10-31T13:20:03Z</time>
      </trkpt>
      <trkpt lat="42.79908" lon="-0.03067">
        <ele>1660.8</ele>
        <time>2023-10-31T13:20:04Z</time>
      </trkpt>
      <trkpt lat="42.79908" lon="-0.03066">
        <ele>1660.6</ele>
        <time>2023-10-31T13:20:05Z</time>
      </trkpt>
      <trkpt lat="42.79907" lon="-0.03066">
        <ele>1660.5</ele>
        <time>2023-10-31T13:20:06Z</time>
      </trkpt>
      <trkpt lat="42.79907" lon="-0.03065">
        <ele>1660.3</ele>
        <time>2023-10-31T13:20:07Z</time>
      </trkpt>
      <trkpt lat="42.79907" lon="-0.03065">
        <ele>1660.2</ele>
        <time>2023-10-31T13:20:08Z</time>
      </trkpt>
      <trkpt lat="42.79908" lon="-0.03065">
        <ele>1660.1</ele>
        <time>2023-10-31T13:20:09Z</time>
      </trkpt>
      <trkpt lat="42.79908" lon="-0.03065">
        <ele>1660.1</ele>
        <time>2023-10-31T13:20:10Z</time>
      </trkpt>
      <trkpt lat="42.79908" lon="-0.03065">
        <ele>1660</ele>
        <time>2023-10-31T13:20:11Z</time>
      </trkpt>
      <trkpt lat="42.79908" lon="-0.03065">
        <ele>1660</ele>
        <time>2023-10-31T13:20:12Z</time>
      </trkpt>
      <trkpt lat="42.79908" lon="-0.03065">
        <ele>1660</ele>
        <time>2023-10-31T13:20:13Z</time>
      </trkpt>
      <trkpt lat="42.79907" lon="-0.03066">
        <ele>1659.6</ele>
        <time>2023-10-31T13:20:14Z</time>
      </trkpt>
      <trkpt lat="42.79907" lon="-0.03066">
        <ele>1659.6</ele>
        <time>2023-10-31T13:20:15Z</time>
      </trkpt>
      <trkpt lat="42.79907" lon="-0.03065">
        <ele>1659.6</ele>
        <time>2023-10-31T13:20:16Z</time>
      </trkpt>
      <trkpt lat="42.79906" lon="-0.03065">
        <ele>1659.4</ele>
        <time>2023-10-31T13:20:17Z</time>
      </trkpt>
      <trkpt lat="42.79906" lon="-0.03065">
        <ele>1659.3</ele>
        <time>2023-10-31T13:20:18Z</time>
      </trkpt>
      <trkpt lat="42.79906" lon="-0.03064">
        <ele>1659.2</ele>
        <time>2023-10-31T13:20:19Z</time>
      </trkpt>
      <trkpt lat="42.79905" lon="-0.03063">
        <ele>1658.9</ele>
        <time>2023-10-31T13:20:20Z</time>
      </trkpt>
      <trkpt lat="42.79906" lon="-0.03063">
        <ele>1658.7</ele>
        <time>2023-10-31T13:20:21Z</time>
      </trkpt>
      <trkpt lat="42.79906" lon="-0.03062">
        <ele>1658.5</ele>
        <time>2023-10-31T13:20:22Z</time>
      </trkpt>
      <trkpt lat="42.79906" lon="-0.03062">
        <ele>1658.4</ele>
        <time>2023-10-31T13:20:23Z</time>
      </trkpt>
      <trkpt lat="42.79906" lon="-0.03061">
        <ele>1658.2</ele>
        <time>2023-10-31T13:20:24Z</time>
      </trkpt>
      <trkpt lat="42.79905" lon="-0.03061">
        <ele>1658.1</ele>
        <time>2023-10-31T13:20:25Z</time>
      </trkpt>
      <trkpt lat="42.79906" lon="-0.0306">
        <ele>1658</ele>
        <time>2023-10-31T13:20:26Z</time>
      </trkpt>
      <trkpt lat="42.79906" lon="-0.03058">
        <ele>1657.6</ele>
        <time>2023-10-31T13:20:27Z</time>
      </trkpt>
      <trkpt lat="42.79906" lon="-0.03057">
        <ele>1657.3</ele>
        <time>2023-10-31T13:20:28Z</time>
      </trkpt>
      <trkpt lat="42.79907" lon="-0.03056">
        <ele>1657</ele>
        <time>2023-10-31T13:20:29Z</time>
      </trkpt>
      <trkpt lat="42.79906" lon="-0.03056">
        <ele>1656.9</ele>
        <time>2023-10-31T13:20:30Z</time>
      </trkpt>
      <trkpt lat="42.79906" lon="-0.03056">
        <ele>1656.8</ele>
        <time>2023-10-31T13:20:31Z</time>
      </trkpt>
      <trkpt lat="42.79906" lon="-0.03055">
        <ele>1656.5</ele>
        <time>2023-10-31T13:20:32Z</time>
      </trkpt>
      <trkpt lat="42.79905" lon="-0.03054">
        <ele>1656.2</ele>
        <time>2023-10-31T13:20:33Z</time>
      </trkpt>
      <trkpt lat="42.79905" lon="-0.03053">
        <ele>1655.9</ele>
        <time>2023-10-31T13:20:34Z</time>
      </trkpt>
      <trkpt lat="42.79904" lon="-0.03053">
        <ele>1655.8</ele>
        <time>2023-10-31T13:20:35Z</time>
      </trkpt>
      <trkpt lat="42.79904" lon="-0.03052">
        <ele>1655.6</ele>
        <time>2023-10-31T13:20:36Z</time>
      </trkpt>
      <trkpt lat="42.79904" lon="-0.03051">
        <ele>1655.3</ele>
        <time>2023-10-31T13:20:37Z</time>
      </trkpt>
      <trkpt lat="42.79904" lon="-0.03049">
        <ele>1655</ele>
        <time>2023-10-31T13:20:38Z</time>
      </trkpt>
      <trkpt lat="42.79903" lon="-0.03049">
        <ele>1654.8</ele>
        <time>2023-10-31T13:20:39Z</time>
      </trkpt>
      <trkpt lat="42.79902" lon="-0.03048">
        <ele>1654.6</ele>
        <time>2023-10-31T13:20:40Z</time>
      </trkpt>
      <trkpt lat="42.79902" lon="-0.03048">
        <ele>1654.3</ele>
        <time>2023-10-31T13:20:41Z</time>
      </trkpt>
      <trkpt lat="42.79901" lon="-0.03047">
        <ele>1654</ele>
        <time>2023-10-31T13:20:42Z</time>
      </trkpt>
      <trkpt lat="42.799" lon="-0.03046">
        <ele>1653.7</ele>
        <time>2023-10-31T13:20:43Z</time>
      </trkpt>
      <trkpt lat="42.799" lon="-0.03045">
        <ele>1653.4</ele>
        <time>2023-10-31T13:20:44Z</time>
      </trkpt>
      <trkpt lat="42.79899" lon="-0.03045">
        <ele>1653.3</ele>
        <time>2023-10-31T13:20:45Z</time>
      </trkpt>
      <trkpt lat="42.79899" lon="-0.03045">
        <ele>1653.1</ele>
        <time>2023-10-31T13:20:46Z</time>
      </trkpt>
      <trkpt lat="42.79898" lon="-0.03045">
        <ele>1652.7</ele>
        <time>2023-10-31T13:20:47Z</time>
      </trkpt>
      <trkpt lat="42.79898" lon="-0.03045">
        <ele>1652.6</ele>
        <time>2023-10-31T13:20:48Z</time>
      </trkpt>
      <trkpt lat="42.79897" lon="-0.03044">
        <ele>1652.3</ele>
        <time>2023-10-31T13:20:49Z</time>
      </trkpt>
      <trkpt lat="42.79896" lon="-0.03044">
        <ele>1652.1</ele>
        <time>2023-10-31T13:20:50Z</time>
      </trkpt>
      <trkpt lat="42.79896" lon="-0.03044">
        <ele>1652</ele>
        <time>2023-10-31T13:20:51Z</time>
      </trkpt>
      <trkpt lat="42.79896" lon="-0.03044">
        <ele>1651.7</ele>
        <time>2023-10-31T13:20:52Z</time>
      </trkpt>
      <trkpt lat="42.79895" lon="-0.03045">
        <ele>1651.4</ele>
        <time>2023-10-31T13:20:53Z</time>
      </trkpt>
      <trkpt lat="42.79895" lon="-0.03045">
        <ele>1651.4</ele>
        <time>2023-10-31T13:20:54Z</time>
      </trkpt>
      <trkpt lat="42.79894" lon="-0.03044">
        <ele>1651.2</ele>
        <time>2023-10-31T13:20:55Z</time>
      </trkpt>
      <trkpt lat="42.79894" lon="-0.03044">
        <ele>1651</ele>
        <time>2023-10-31T13:20:56Z</time>
      </trkpt>
      <trkpt lat="42.79893" lon="-0.03044">
        <ele>1650.8</ele>
        <time>2023-10-31T13:20:57Z</time>
      </trkpt>
      <trkpt lat="42.79892" lon="-0.03044">
        <ele>1650.6</ele>
        <time>2023-10-31T13:20:58Z</time>
      </trkpt>
      <trkpt lat="42.79892" lon="-0.03044">
        <ele>1650.4</ele>
        <time>2023-10-31T13:20:59Z</time>
      </trkpt>
      <trkpt lat="42.79891" lon="-0.03044">
        <ele>1650.3</ele>
        <time>2023-10-31T13:21:00Z</time>
      </trkpt>
      <trkpt lat="42.79891" lon="-0.03044">
        <ele>1650.2</ele>
        <time>2023-10-31T13:21:01Z</time>
      </trkpt>
      <trkpt lat="42.79891" lon="-0.03043">
        <ele>1650.1</ele>
        <time>2023-10-31T13:21:02Z</time>
      </trkpt>
      <trkpt lat="42.7989" lon="-0.03043">
        <ele>1649.9</ele>
        <time>2023-10-31T13:21:03Z</time>
      </trkpt>
      <trkpt lat="42.7989" lon="-0.03042">
        <ele>1649.7</ele>
        <time>2023-10-31T13:21:04Z</time>
      </trkpt>
      <trkpt lat="42.7989" lon="-0.03043">
        <ele>1649.5</ele>
        <time>2023-10-31T13:21:05Z</time>
      </trkpt>
      <trkpt lat="42.7989" lon="-0.03043">
        <ele>1649.5</ele>
        <time>2023-10-31T13:21:06Z</time>
      </trkpt>
      <trkpt lat="42.7989" lon="-0.03043">
        <ele>1649.5</ele>
        <time>2023-10-31T13:21:07Z</time>
      </trkpt>
      <trkpt lat="42.7989" lon="-0.03042">
        <ele>1649.4</ele>
        <time>2023-10-31T13:21:08Z</time>
      </trkpt>
      <trkpt lat="42.7989" lon="-0.03042">
        <ele>1649.4</ele>
        <time>2023-10-31T13:21:09Z</time>
      </trkpt>
      <trkpt lat="42.7989" lon="-0.03042">
        <ele>1649.4</ele>
        <time>2023-10-31T13:21:10Z</time>
      </trkpt>
      <trkpt lat="42.7989" lon="-0.03042">
        <ele>1649.3</ele>
        <time>2023-10-31T13:21:11Z</time>
      </trkpt>
      <trkpt lat="42.7989" lon="-0.03042">
        <ele>1649.2</ele>
        <time>2023-10-31T13:21:12Z</time>
      </trkpt>
      <trkpt lat="42.7989" lon="-0.03042">
        <ele>1649.2</ele>
        <time>2023-10-31T13:21:13Z</time>
      </trkpt>
      <trkpt lat="42.79889" lon="-0.03042">
        <ele>1649</ele>
        <time>2023-10-31T13:21:14Z</time>
      </trkpt>
      <trkpt lat="42.79889" lon="-0.03042">
        <ele>1649</ele>
        <time>2023-10-31T13:21:15Z</time>
      </trkpt>
      <trkpt lat="42.79889" lon="-0.03042">
        <ele>1648.9</ele>
        <time>2023-10-31T13:21:16Z</time>
      </trkpt>
      <trkpt lat="42.79889" lon="-0.03041">
        <ele>1648.7</ele>
        <time>2023-10-31T13:21:17Z</time>
      </trkpt>
      <trkpt lat="42.79889" lon="-0.03042">
        <ele>1648.7</ele>
        <time>2023-10-31T13:21:19Z</time>
      </trkpt>
      <trkpt lat="42.79888" lon="-0.0304">
        <ele>1648.3</ele>
        <time>2023-10-31T13:21:20Z</time>
      </trkpt>
      <trkpt lat="42.79889" lon="-0.03039">
        <ele>1647.9</ele>
        <time>2023-10-31T13:21:21Z</time>
      </trkpt>
      <trkpt lat="42.7989" lon="-0.03038">
        <ele>1647.5</ele>
        <time>2023-10-31T13:21:23Z</time>
      </trkpt>
      <trkpt lat="42.79891" lon="-0.03037">
        <ele>1647.3</ele>
        <time>2023-10-31T13:21:24Z</time>
      </trkpt>
      <trkpt lat="42.79891" lon="-0.03037">
        <ele>1647.2</ele>
        <time>2023-10-31T13:21:26Z</time>
      </trkpt>
      <trkpt lat="42.79891" lon="-0.03037">
        <ele>1647.2</ele>
        <time>2023-10-31T13:21:27Z</time>
      </trkpt>
      <trkpt lat="42.79891" lon="-0.03037">
        <ele>1647.2</ele>
        <time>2023-10-31T13:21:28Z</time>
      </trkpt>
      <trkpt lat="42.79891" lon="-0.03037">
        <ele>1647.2</ele>
        <time>2023-10-31T13:21:29Z</time>
      </trkpt>
      <trkpt lat="42.79891" lon="-0.03037">
        <ele>1647.2</ele>
        <time>2023-10-31T13:21:30Z</time>
      </trkpt>
      <trkpt lat="42.79891" lon="-0.03038">
        <ele>1647</ele>
        <time>2023-10-31T13:21:31Z</time>
      </trkpt>
      <trkpt lat="42.79891" lon="-0.03038">
        <ele>1647</ele>
        <time>2023-10-31T13:21:32Z</time>
      </trkpt>
      <trkpt lat="42.79891" lon="-0.03037">
        <ele>1646.9</ele>
        <time>2023-10-31T13:21:33Z</time>
      </trkpt>
      <trkpt lat="42.7989" lon="-0.03037">
        <ele>1646.8</ele>
        <time>2023-10-31T13:21:34Z</time>
      </trkpt>
      <trkpt lat="42.7989" lon="-0.03037">
        <ele>1646.7</ele>
        <time>2023-10-31T13:21:35Z</time>
      </trkpt>
      <trkpt lat="42.7989" lon="-0.03036">
        <ele>1646.5</ele>
        <time>2023-10-31T13:21:36Z</time>
      </trkpt>
      <trkpt lat="42.79889" lon="-0.03036">
        <ele>1646.4</ele>
        <time>2023-10-31T13:21:37Z</time>
      </trkpt>
      <trkpt lat="42.79889" lon="-0.03035">
        <ele>1646.2</ele>
        <time>2023-10-31T13:21:38Z</time>
      </trkpt>
      <trkpt lat="42.79888" lon="-0.03035">
        <ele>1646</ele>
        <time>2023-10-31T13:21:39Z</time>
      </trkpt>
      <trkpt lat="42.79888" lon="-0.03035">
        <ele>1645.9</ele>
        <time>2023-10-31T13:21:40Z</time>
      </trkpt>
      <trkpt lat="42.79888" lon="-0.03034">
        <ele>1645.6</ele>
        <time>2023-10-31T13:21:41Z</time>
      </trkpt>
      <trkpt lat="42.79887" lon="-0.03033">
        <ele>1645.5</ele>
        <time>2023-10-31T13:21:42Z</time>
      </trkpt>
      <trkpt lat="42.79887" lon="-0.03033">
        <ele>1645.4</ele>
        <time>2023-10-31T13:21:43Z</time>
      </trkpt>
      <trkpt lat="42.79887" lon="-0.03033">
        <ele>1645.2</ele>
        <time>2023-10-31T13:21:44Z</time>
      </trkpt>
      <trkpt lat="42.79886" lon="-0.03032">
        <ele>1645.2</ele>
        <time>2023-10-31T13:21:45Z</time>
      </trkpt>
      <trkpt lat="42.79886" lon="-0.03032">
        <ele>1645</ele>
        <time>2023-10-31T13:21:46Z</time>
      </trkpt>
      <trkpt lat="42.79885" lon="-0.03032">
        <ele>1644.8</ele>
        <time>2023-10-31T13:21:47Z</time>
      </trkpt>
      <trkpt lat="42.79884" lon="-0.03032">
        <ele>1644.6</ele>
        <time>2023-10-31T13:21:48Z</time>
      </trkpt>
      <trkpt lat="42.79884" lon="-0.03032">
        <ele>1644.4</ele>
        <time>2023-10-31T13:21:49Z</time>
      </trkpt>
      <trkpt lat="42.79883" lon="-0.03033">
        <ele>1644.1</ele>
        <time>2023-10-31T13:21:50Z</time>
      </trkpt>
      <trkpt lat="42.79883" lon="-0.03032">
        <ele>1644</ele>
        <time>2023-10-31T13:21:51Z</time>
      </trkpt>
      <trkpt lat="42.79882" lon="-0.03032">
        <ele>1643.9</ele>
        <time>2023-10-31T13:21:52Z</time>
      </trkpt>
      <trkpt lat="42.79881" lon="-0.03031">
        <ele>1643.5</ele>
        <time>2023-10-31T13:21:53Z</time>
      </trkpt>
      <trkpt lat="42.7988" lon="-0.03031">
        <ele>1643.4</ele>
        <time>2023-10-31T13:21:54Z</time>
      </trkpt>
      <trkpt lat="42.7988" lon="-0.03031">
        <ele>1643.3</ele>
        <time>2023-10-31T13:21:55Z</time>
      </trkpt>
      <trkpt lat="42.79879" lon="-0.03032">
        <ele>1643.1</ele>
        <time>2023-10-31T13:21:56Z</time>
      </trkpt>
      <trkpt lat="42.79879" lon="-0.03032">
        <ele>1643</ele>
        <time>2023-10-31T13:21:57Z</time>
      </trkpt>
      <trkpt lat="42.79879" lon="-0.03031">
        <ele>1642.9</ele>
        <time>2023-10-31T13:21:58Z</time>
      </trkpt>
      <trkpt lat="42.79879" lon="-0.03031">
        <ele>1642.9</ele>
        <time>2023-10-31T13:21:59Z</time>
      </trkpt>
      <trkpt lat="42.79879" lon="-0.03031">
        <ele>1642.8</ele>
        <time>2023-10-31T13:22:00Z</time>
      </trkpt>
      <trkpt lat="42.79879" lon="-0.03031">
        <ele>1642.8</ele>
        <time>2023-10-31T13:22:01Z</time>
      </trkpt>
      <trkpt lat="42.79879" lon="-0.03031">
        <ele>1642.7</ele>
        <time>2023-10-31T13:22:02Z</time>
      </trkpt>
      <trkpt lat="42.79878" lon="-0.03031">
        <ele>1642.6</ele>
        <time>2023-10-31T13:22:03Z</time>
      </trkpt>
      <trkpt lat="42.79878" lon="-0.03032">
        <ele>1642.6</ele>
        <time>2023-10-31T13:22:04Z</time>
      </trkpt>
      <trkpt lat="42.79878" lon="-0.03032">
        <ele>1642.4</ele>
        <time>2023-10-31T13:22:05Z</time>
      </trkpt>
      <trkpt lat="42.79877" lon="-0.03033">
        <ele>1642.3</ele>
        <time>2023-10-31T13:22:06Z</time>
      </trkpt>
      <trkpt lat="42.79877" lon="-0.03032">
        <ele>1642.2</ele>
        <time>2023-10-31T13:22:07Z</time>
      </trkpt>
      <trkpt lat="42.79877" lon="-0.03033">
        <ele>1642.1</ele>
        <time>2023-10-31T13:22:08Z</time>
      </trkpt>
      <trkpt lat="42.79876" lon="-0.03033">
        <ele>1641.9</ele>
        <time>2023-10-31T13:22:09Z</time>
      </trkpt>
      <trkpt lat="42.79876" lon="-0.03033">
        <ele>1641.8</ele>
        <time>2023-10-31T13:22:10Z</time>
      </trkpt>
      <trkpt lat="42.79875" lon="-0.03033">
        <ele>1641.8</ele>
        <time>2023-10-31T13:22:11Z</time>
      </trkpt>
      <trkpt lat="42.79875" lon="-0.03033">
        <ele>1641.6</ele>
        <time>2023-10-31T13:22:12Z</time>
      </trkpt>
      <trkpt lat="42.79874" lon="-0.03033">
        <ele>1641.5</ele>
        <time>2023-10-31T13:22:13Z</time>
      </trkpt>
      <trkpt lat="42.79873" lon="-0.03032">
        <ele>1641.2</ele>
        <time>2023-10-31T13:22:14Z</time>
      </trkpt>
      <trkpt lat="42.79872" lon="-0.03031">
        <ele>1641</ele>
        <time>2023-10-31T13:22:15Z</time>
      </trkpt>
      <trkpt lat="42.79871" lon="-0.03032">
        <ele>1640.9</ele>
        <time>2023-10-31T13:22:16Z</time>
      </trkpt>
      <trkpt lat="42.79871" lon="-0.03032">
        <ele>1640.9</ele>
        <time>2023-10-31T13:22:17Z</time>
      </trkpt>
      <trkpt lat="42.79871" lon="-0.03032">
        <ele>1640.9</ele>
        <time>2023-10-31T13:22:18Z</time>
      </trkpt>
      <trkpt lat="42.79871" lon="-0.03032">
        <ele>1640.8</ele>
        <time>2023-10-31T13:22:19Z</time>
      </trkpt>
      <trkpt lat="42.79871" lon="-0.03032">
        <ele>1640.8</ele>
        <time>2023-10-31T13:22:20Z</time>
      </trkpt>
      <trkpt lat="42.79871" lon="-0.03032">
        <ele>1640.8</ele>
        <time>2023-10-31T13:22:21Z</time>
      </trkpt>
      <trkpt lat="42.79871" lon="-0.03032">
        <ele>1640.7</ele>
        <time>2023-10-31T13:22:22Z</time>
      </trkpt>
      <trkpt lat="42.79871" lon="-0.03032">
        <ele>1640.7</ele>
        <time>2023-10-31T13:22:23Z</time>
      </trkpt>
      <trkpt lat="42.79871" lon="-0.03032">
        <ele>1640.7</ele>
        <time>2023-10-31T13:22:24Z</time>
      </trkpt>
      <trkpt lat="42.79871" lon="-0.03032">
        <ele>1640.6</ele>
        <time>2023-10-31T13:22:25Z</time>
      </trkpt>
      <trkpt lat="42.7987" lon="-0.03031">
        <ele>1640.6</ele>
        <time>2023-10-31T13:22:26Z</time>
      </trkpt>
      <trkpt lat="42.7987" lon="-0.03031">
        <ele>1640.6</ele>
        <time>2023-10-31T13:22:27Z</time>
      </trkpt>
      <trkpt lat="42.7987" lon="-0.03031">
        <ele>1640.5</ele>
        <time>2023-10-31T13:22:28Z</time>
      </trkpt>
      <trkpt lat="42.7987" lon="-0.03031">
        <ele>1640.4</ele>
        <time>2023-10-31T13:22:29Z</time>
      </trkpt>
      <trkpt lat="42.7987" lon="-0.0303">
        <ele>1640.3</ele>
        <time>2023-10-31T13:22:30Z</time>
      </trkpt>
      <trkpt lat="42.79871" lon="-0.0303">
        <ele>1640.3</ele>
        <time>2023-10-31T13:22:31Z</time>
      </trkpt>
      <trkpt lat="42.79871" lon="-0.03029">
        <ele>1640.2</ele>
        <time>2023-10-31T13:22:32Z</time>
      </trkpt>
      <trkpt lat="42.7987" lon="-0.03029">
        <ele>1640.1</ele>
        <time>2023-10-31T13:22:33Z</time>
      </trkpt>
      <trkpt lat="42.79869" lon="-0.03029">
        <ele>1640</ele>
        <time>2023-10-31T13:22:34Z</time>
      </trkpt>
      <trkpt lat="42.79869" lon="-0.03029">
        <ele>1639.8</ele>
        <time>2023-10-31T13:22:35Z</time>
      </trkpt>
      <trkpt lat="42.79868" lon="-0.03029">
        <ele>1639.8</ele>
        <time>2023-10-31T13:22:36Z</time>
      </trkpt>
      <trkpt lat="42.79869" lon="-0.03029">
        <ele>1639.7</ele>
        <time>2023-10-31T13:22:37Z</time>
      </trkpt>
      <trkpt lat="42.79869" lon="-0.03028">
        <ele>1639.7</ele>
        <time>2023-10-31T13:22:38Z</time>
      </trkpt>
      <trkpt lat="42.79868" lon="-0.03028">
        <ele>1639.6</ele>
        <time>2023-10-31T13:22:39Z</time>
      </trkpt>
      <trkpt lat="42.79868" lon="-0.03027">
        <ele>1639.6</ele>
        <time>2023-10-31T13:22:40Z</time>
      </trkpt>
      <trkpt lat="42.79868" lon="-0.03027">
        <ele>1639.5</ele>
        <time>2023-10-31T13:22:41Z</time>
      </trkpt>
      <trkpt lat="42.79867" lon="-0.03027">
        <ele>1639.5</ele>
        <time>2023-10-31T13:22:42Z</time>
      </trkpt>
      <trkpt lat="42.79867" lon="-0.03028">
        <ele>1639.4</ele>
        <time>2023-10-31T13:22:43Z</time>
      </trkpt>
      <trkpt lat="42.79867" lon="-0.03028">
        <ele>1639.4</ele>
        <time>2023-10-31T13:22:44Z</time>
      </trkpt>
      <trkpt lat="42.79867" lon="-0.03028">
        <ele>1639.3</ele>
        <time>2023-10-31T13:22:45Z</time>
      </trkpt>
      <trkpt lat="42.79867" lon="-0.03028">
        <ele>1639.3</ele>
        <time>2023-10-31T13:22:46Z</time>
      </trkpt>
      <trkpt lat="42.79867" lon="-0.03029">
        <ele>1639.3</ele>
        <time>2023-10-31T13:22:47Z</time>
      </trkpt>
      <trkpt lat="42.79867" lon="-0.03028">
        <ele>1639.2</ele>
        <time>2023-10-31T13:22:48Z</time>
      </trkpt>
      <trkpt lat="42.79867" lon="-0.03028">
        <ele>1639.2</ele>
        <time>2023-10-31T13:22:49Z</time>
      </trkpt>
      <trkpt lat="42.79867" lon="-0.03028">
        <ele>1639.2</ele>
        <time>2023-10-31T13:22:50Z</time>
      </trkpt>
      <trkpt lat="42.79866" lon="-0.03028">
        <ele>1639.1</ele>
        <time>2023-10-31T13:22:51Z</time>
      </trkpt>
      <trkpt lat="42.79866" lon="-0.03028">
        <ele>1639</ele>
        <time>2023-10-31T13:22:52Z</time>
      </trkpt>
      <trkpt lat="42.79867" lon="-0.03027">
        <ele>1638.9</ele>
        <time>2023-10-31T13:22:53Z</time>
      </trkpt>
      <trkpt lat="42.79866" lon="-0.03027">
        <ele>1638.9</ele>
        <time>2023-10-31T13:22:54Z</time>
      </trkpt>
      <trkpt lat="42.79866" lon="-0.03025">
        <ele>1638.7</ele>
        <time>2023-10-31T13:22:55Z</time>
      </trkpt>
      <trkpt lat="42.79866" lon="-0.03024">
        <ele>1638.6</ele>
        <time>2023-10-31T13:22:56Z</time>
      </trkpt>
      <trkpt lat="42.79865" lon="-0.03024">
        <ele>1638.4</ele>
        <time>2023-10-31T13:22:57Z</time>
      </trkpt>
      <trkpt lat="42.79864" lon="-0.03025">
        <ele>1638.3</ele>
        <time>2023-10-31T13:22:58Z</time>
      </trkpt>
      <trkpt lat="42.79864" lon="-0.03025">
        <ele>1638.3</ele>
        <time>2023-10-31T13:22:59Z</time>
      </trkpt>
      <trkpt lat="42.79864" lon="-0.03025">
        <ele>1638.2</ele>
        <time>2023-10-31T13:23:00Z</time>
      </trkpt>
      <trkpt lat="42.79864" lon="-0.03025">
        <ele>1638.2</ele>
        <time>2023-10-31T13:23:01Z</time>
      </trkpt>
      <trkpt lat="42.79864" lon="-0.03023">
        <ele>1638</ele>
        <time>2023-10-31T13:23:02Z</time>
      </trkpt>
      <trkpt lat="42.79864" lon="-0.03022">
        <ele>1638</ele>
        <time>2023-10-31T13:23:03Z</time>
      </trkpt>
      <trkpt lat="42.79865" lon="-0.03022">
        <ele>1637.9</ele>
        <time>2023-10-31T13:23:04Z</time>
      </trkpt>
      <trkpt lat="42.79865" lon="-0.03021">
        <ele>1637.8</ele>
        <time>2023-10-31T13:23:05Z</time>
      </trkpt>
      <trkpt lat="42.79865" lon="-0.0302">
        <ele>1637.7</ele>
        <time>2023-10-31T13:23:06Z</time>
      </trkpt>
      <trkpt lat="42.79865" lon="-0.03019">
        <ele>1637.6</ele>
        <time>2023-10-31T13:23:07Z</time>
      </trkpt>
      <trkpt lat="42.79865" lon="-0.03018">
        <ele>1637.5</ele>
        <time>2023-10-31T13:23:08Z</time>
      </trkpt>
      <trkpt lat="42.79865" lon="-0.03017">
        <ele>1637.5</ele>
        <time>2023-10-31T13:23:09Z</time>
      </trkpt>
      <trkpt lat="42.79865" lon="-0.0302">
        <ele>1637.2</ele>
        <time>2023-10-31T13:23:10Z</time>
      </trkpt>
      <trkpt lat="42.79866" lon="-0.0302">
        <ele>1637.1</ele>
        <time>2023-10-31T13:23:11Z</time>
      </trkpt>
      <trkpt lat="42.79866" lon="-0.0302">
        <ele>1637.1</ele>
        <time>2023-10-31T13:23:12Z</time>
      </trkpt>
      <trkpt lat="42.79866" lon="-0.0302">
        <ele>1637.1</ele>
        <time>2023-10-31T13:23:13Z</time>
      </trkpt>
      <trkpt lat="42.79866" lon="-0.03019">
        <ele>1637</ele>
        <time>2023-10-31T13:23:14Z</time>
      </trkpt>
      <trkpt lat="42.79866" lon="-0.03019">
        <ele>1637</ele>
        <time>2023-10-31T13:23:15Z</time>
      </trkpt>
      <trkpt lat="42.79866" lon="-0.03019">
        <ele>1637</ele>
        <time>2023-10-31T13:23:16Z</time>
      </trkpt>
      <trkpt lat="42.79866" lon="-0.0302">
        <ele>1637</ele>
        <time>2023-10-31T13:23:17Z</time>
      </trkpt>
      <trkpt lat="42.79867" lon="-0.0302">
        <ele>1636.9</ele>
        <time>2023-10-31T13:23:18Z</time>
      </trkpt>
      <trkpt lat="42.79866" lon="-0.0302">
        <ele>1636.9</ele>
        <time>2023-10-31T13:23:19Z</time>
      </trkpt>
      <trkpt lat="42.79867" lon="-0.0302">
        <ele>1636.8</ele>
        <time>2023-10-31T13:23:20Z</time>
      </trkpt>
      <trkpt lat="42.79866" lon="-0.03019">
        <ele>1636.8</ele>
        <time>2023-10-31T13:23:21Z</time>
      </trkpt>
      <trkpt lat="42.79866" lon="-0.03019">
        <ele>1636.8</ele>
        <time>2023-10-31T13:23:22Z</time>
      </trkpt>
      <trkpt lat="42.79866" lon="-0.03019">
        <ele>1636.6</ele>
        <time>2023-10-31T13:23:23Z</time>
      </trkpt>
      <trkpt lat="42.79864" lon="-0.03019">
        <ele>1636.5</ele>
        <time>2023-10-31T13:23:25Z</time>
      </trkpt>
      <trkpt lat="42.79863" lon="-0.03019">
        <ele>1636.3</ele>
        <time>2023-10-31T13:23:26Z</time>
      </trkpt>
      <trkpt lat="42.79861" lon="-0.0302">
        <ele>1636.1</ele>
        <time>2023-10-31T13:23:27Z</time>
      </trkpt>
      <trkpt lat="42.7986" lon="-0.03021">
        <ele>1636</ele>
        <time>2023-10-31T13:23:28Z</time>
      </trkpt>
      <trkpt lat="42.79859" lon="-0.03021">
        <ele>1635.9</ele>
        <time>2023-10-31T13:23:29Z</time>
      </trkpt>
      <trkpt lat="42.79858" lon="-0.03021">
        <ele>1635.7</ele>
        <time>2023-10-31T13:23:30Z</time>
      </trkpt>
      <trkpt lat="42.79857" lon="-0.03021">
        <ele>1635.6</ele>
        <time>2023-10-31T13:23:31Z</time>
      </trkpt>
      <trkpt lat="42.79856" lon="-0.0302">
        <ele>1635.5</ele>
        <time>2023-10-31T13:23:32Z</time>
      </trkpt>
      <trkpt lat="42.79855" lon="-0.03021">
        <ele>1635.3</ele>
        <time>2023-10-31T13:23:33Z</time>
      </trkpt>
      <trkpt lat="42.79853" lon="-0.0302">
        <ele>1635.1</ele>
        <time>2023-10-31T13:23:34Z</time>
      </trkpt>
      <trkpt lat="42.79852" lon="-0.0302">
        <ele>1635</ele>
        <time>2023-10-31T13:23:35Z</time>
      </trkpt>
      <trkpt lat="42.79851" lon="-0.0302">
        <ele>1634.9</ele>
        <time>2023-10-31T13:23:36Z</time>
      </trkpt>
      <trkpt lat="42.79849" lon="-0.03019">
        <ele>1634.5</ele>
        <time>2023-10-31T13:23:38Z</time>
      </trkpt>
      <trkpt lat="42.79848" lon="-0.03019">
        <ele>1634.4</ele>
        <time>2023-10-31T13:23:39Z</time>
      </trkpt>
      <trkpt lat="42.79847" lon="-0.03018">
        <ele>1634.3</ele>
        <time>2023-10-31T13:23:40Z</time>
      </trkpt>
      <trkpt lat="42.79846" lon="-0.03018">
        <ele>1634.2</ele>
        <time>2023-10-31T13:23:41Z</time>
      </trkpt>
      <trkpt lat="42.79846" lon="-0.03018">
        <ele>1634.2</ele>
        <time>2023-10-31T13:23:42Z</time>
      </trkpt>
      <trkpt lat="42.79845" lon="-0.03018">
        <ele>1634.1</ele>
        <time>2023-10-31T13:23:43Z</time>
      </trkpt>
      <trkpt lat="42.79845" lon="-0.03018">
        <ele>1634</ele>
        <time>2023-10-31T13:23:44Z</time>
      </trkpt>
      <trkpt lat="42.79844" lon="-0.03018">
        <ele>1633.9</ele>
        <time>2023-10-31T13:23:45Z</time>
      </trkpt>
      <trkpt lat="42.79844" lon="-0.03017">
        <ele>1633.9</ele>
        <time>2023-10-31T13:23:46Z</time>
      </trkpt>
      <trkpt lat="42.79843" lon="-0.03017">
        <ele>1633.8</ele>
        <time>2023-10-31T13:23:47Z</time>
      </trkpt>
      <trkpt lat="42.79842" lon="-0.03017">
        <ele>1633.7</ele>
        <time>2023-10-31T13:23:48Z</time>
      </trkpt>
      <trkpt lat="42.79841" lon="-0.03017">
        <ele>1633.6</ele>
        <time>2023-10-31T13:23:49Z</time>
      </trkpt>
      <trkpt lat="42.79841" lon="-0.03017">
        <ele>1633.5</ele>
        <time>2023-10-31T13:23:50Z</time>
      </trkpt>
      <trkpt lat="42.79839" lon="-0.03015">
        <ele>1633.3</ele>
        <time>2023-10-31T13:23:51Z</time>
      </trkpt>
      <trkpt lat="42.79838" lon="-0.03015">
        <ele>1633.1</ele>
        <time>2023-10-31T13:23:52Z</time>
      </trkpt>
      <trkpt lat="42.79837" lon="-0.03014">
        <ele>1633</ele>
        <time>2023-10-31T13:23:53Z</time>
      </trkpt>
      <trkpt lat="42.79836" lon="-0.03014">
        <ele>1632.9</ele>
        <time>2023-10-31T13:23:54Z</time>
      </trkpt>
      <trkpt lat="42.79836" lon="-0.03013">
        <ele>1632.8</ele>
        <time>2023-10-31T13:23:55Z</time>
      </trkpt>
      <trkpt lat="42.79835" lon="-0.03013">
        <ele>1632.7</ele>
        <time>2023-10-31T13:23:56Z</time>
      </trkpt>
      <trkpt lat="42.79834" lon="-0.03013">
        <ele>1632.6</ele>
        <time>2023-10-31T13:23:57Z</time>
      </trkpt>
      <trkpt lat="42.79834" lon="-0.03012">
        <ele>1632.5</ele>
        <time>2023-10-31T13:23:58Z</time>
      </trkpt>
      <trkpt lat="42.79833" lon="-0.03011">
        <ele>1632.3</ele>
        <time>2023-10-31T13:23:59Z</time>
      </trkpt>
      <trkpt lat="42.79832" lon="-0.0301">
        <ele>1632.1</ele>
        <time>2023-10-31T13:24:00Z</time>
      </trkpt>
      <trkpt lat="42.79831" lon="-0.03011">
        <ele>1632</ele>
        <time>2023-10-31T13:24:01Z</time>
      </trkpt>
      <trkpt lat="42.7983" lon="-0.0301">
        <ele>1631.9</ele>
        <time>2023-10-31T13:24:02Z</time>
      </trkpt>
      <trkpt lat="42.79829" lon="-0.0301">
        <ele>1631.7</ele>
        <time>2023-10-31T13:24:03Z</time>
      </trkpt>
      <trkpt lat="42.79827" lon="-0.03009">
        <ele>1631.4</ele>
        <time>2023-10-31T13:24:04Z</time>
      </trkpt>
      <trkpt lat="42.79826" lon="-0.03008">
        <ele>1631.2</ele>
        <time>2023-10-31T13:24:05Z</time>
      </trkpt>
      <trkpt lat="42.79825" lon="-0.03008">
        <ele>1631.1</ele>
        <time>2023-10-31T13:24:06Z</time>
      </trkpt>
      <trkpt lat="42.79824" lon="-0.03008">
        <ele>1630.9</ele>
        <time>2023-10-31T13:24:07Z</time>
      </trkpt>
      <trkpt lat="42.79823" lon="-0.03007">
        <ele>1630.8</ele>
        <time>2023-10-31T13:24:08Z</time>
      </trkpt>
      <trkpt lat="42.79822" lon="-0.03005">
        <ele>1630.5</ele>
        <time>2023-10-31T13:24:09Z</time>
      </trkpt>
      <trkpt lat="42.79821" lon="-0.03004">
        <ele>1630.3</ele>
        <time>2023-10-31T13:24:10Z</time>
      </trkpt>
      <trkpt lat="42.7982" lon="-0.03003">
        <ele>1630.2</ele>
        <time>2023-10-31T13:24:11Z</time>
      </trkpt>
      <trkpt lat="42.7982" lon="-0.03003">
        <ele>1630.1</ele>
        <time>2023-10-31T13:24:12Z</time>
      </trkpt>
      <trkpt lat="42.79819" lon="-0.03003">
        <ele>1629.9</ele>
        <time>2023-10-31T13:24:13Z</time>
      </trkpt>
      <trkpt lat="42.79818" lon="-0.03002">
        <ele>1629.7</ele>
        <time>2023-10-31T13:24:14Z</time>
      </trkpt>
      <trkpt lat="42.79816" lon="-0.03001">
        <ele>1629.4</ele>
        <time>2023-10-31T13:24:15Z</time>
      </trkpt>
      <trkpt lat="42.79815" lon="-0.03001">
        <ele>1629.3</ele>
        <time>2023-10-31T13:24:16Z</time>
      </trkpt>
      <trkpt lat="42.79814" lon="-0.03">
        <ele>1629.1</ele>
        <time>2023-10-31T13:24:17Z</time>
      </trkpt>
      <trkpt lat="42.79813" lon="-0.03001">
        <ele>1628.9</ele>
        <time>2023-10-31T13:24:18Z</time>
      </trkpt>
      <trkpt lat="42.79812" lon="-0.03">
        <ele>1628.8</ele>
        <time>2023-10-31T13:24:19Z</time>
      </trkpt>
      <trkpt lat="42.79811" lon="-0.03">
        <ele>1628.6</ele>
        <time>2023-10-31T13:24:20Z</time>
      </trkpt>
      <trkpt lat="42.79809" lon="-0.03">
        <ele>1628.2</ele>
        <time>2023-10-31T13:24:21Z</time>
      </trkpt>
      <trkpt lat="42.79808" lon="-0.03">
        <ele>1628.1</ele>
        <time>2023-10-31T13:24:22Z</time>
      </trkpt>
      <trkpt lat="42.79807" lon="-0.03">
        <ele>1628</ele>
        <time>2023-10-31T13:24:23Z</time>
      </trkpt>
      <trkpt lat="42.79807" lon="-0.03">
        <ele>1627.9</ele>
        <time>2023-10-31T13:24:24Z</time>
      </trkpt>
      <trkpt lat="42.79807" lon="-0.03">
        <ele>1627.8</ele>
        <time>2023-10-31T13:24:25Z</time>
      </trkpt>
      <trkpt lat="42.79806" lon="-0.03">
        <ele>1627.8</ele>
        <time>2023-10-31T13:24:26Z</time>
      </trkpt>
      <trkpt lat="42.79806" lon="-0.03">
        <ele>1627.8</ele>
        <time>2023-10-31T13:24:27Z</time>
      </trkpt>
      <trkpt lat="42.79806" lon="-0.03">
        <ele>1627.7</ele>
        <time>2023-10-31T13:24:28Z</time>
      </trkpt>
      <trkpt lat="42.79806" lon="-0.03">
        <ele>1627.7</ele>
        <time>2023-10-31T13:24:29Z</time>
      </trkpt>
      <trkpt lat="42.79806" lon="-0.03">
        <ele>1627.6</ele>
        <time>2023-10-31T13:24:30Z</time>
      </trkpt>
      <trkpt lat="42.79805" lon="-0.03001">
        <ele>1627.6</ele>
        <time>2023-10-31T13:24:31Z</time>
      </trkpt>
      <trkpt lat="42.79805" lon="-0.03001">
        <ele>1627.5</ele>
        <time>2023-10-31T13:24:32Z</time>
      </trkpt>
      <trkpt lat="42.79805" lon="-0.03001">
        <ele>1627.5</ele>
        <time>2023-10-31T13:24:33Z</time>
      </trkpt>
      <trkpt lat="42.79805" lon="-0.03001">
        <ele>1627.5</ele>
        <time>2023-10-31T13:24:34Z</time>
      </trkpt>
      <trkpt lat="42.79804" lon="-0.03001">
        <ele>1627.4</ele>
        <time>2023-10-31T13:24:35Z</time>
      </trkpt>
      <trkpt lat="42.79804" lon="-0.03001">
        <ele>1627.4</ele>
        <time>2023-10-31T13:24:36Z</time>
      </trkpt>
      <trkpt lat="42.79804" lon="-0.03001">
        <ele>1627.4</ele>
        <time>2023-10-31T13:24:37Z</time>
      </trkpt>
      <trkpt lat="42.79804" lon="-0.03002">
        <ele>1627.3</ele>
        <time>2023-10-31T13:24:38Z</time>
      </trkpt>
      <trkpt lat="42.79804" lon="-0.03002">
        <ele>1627.2</ele>
        <time>2023-10-31T13:24:39Z</time>
      </trkpt>
      <trkpt lat="42.79804" lon="-0.03002">
        <ele>1627.2</ele>
        <time>2023-10-31T13:24:40Z</time>
      </trkpt>
      <trkpt lat="42.79805" lon="-0.03002">
        <ele>1627.1</ele>
        <time>2023-10-31T13:24:41Z</time>
      </trkpt>
      <trkpt lat="42.79805" lon="-0.03002">
        <ele>1627.1</ele>
        <time>2023-10-31T13:24:42Z</time>
      </trkpt>
      <trkpt lat="42.79805" lon="-0.03002">
        <ele>1627.1</ele>
        <time>2023-10-31T13:24:43Z</time>
      </trkpt>
      <trkpt lat="42.79805" lon="-0.03002">
        <ele>1627.1</ele>
        <time>2023-10-31T13:24:44Z</time>
      </trkpt>
      <trkpt lat="42.79805" lon="-0.03003">
        <ele>1626.9</ele>
        <time>2023-10-31T13:24:45Z</time>
      </trkpt>
      <trkpt lat="42.79804" lon="-0.03004">
        <ele>1626.9</ele>
        <time>2023-10-31T13:24:46Z</time>
      </trkpt>
      <trkpt lat="42.79804" lon="-0.03003">
        <ele>1626.8</ele>
        <time>2023-10-31T13:24:47Z</time>
      </trkpt>
      <trkpt lat="42.79804" lon="-0.03003">
        <ele>1626.8</ele>
        <time>2023-10-31T13:24:48Z</time>
      </trkpt>
      <trkpt lat="42.79803" lon="-0.03003">
        <ele>1626.6</ele>
        <time>2023-10-31T13:24:49Z</time>
      </trkpt>
      <trkpt lat="42.79803" lon="-0.03003">
        <ele>1626.5</ele>
        <time>2023-10-31T13:24:50Z</time>
      </trkpt>
      <trkpt lat="42.79803" lon="-0.03003">
        <ele>1626.4</ele>
        <time>2023-10-31T13:24:51Z</time>
      </trkpt>
      <trkpt lat="42.79803" lon="-0.03004">
        <ele>1626.3</ele>
        <time>2023-10-31T13:24:52Z</time>
      </trkpt>
      <trkpt lat="42.79803" lon="-0.03004">
        <ele>1626.3</ele>
        <time>2023-10-31T13:24:53Z</time>
      </trkpt>
      <trkpt lat="42.79803" lon="-0.03003">
        <ele>1626.2</ele>
        <time>2023-10-31T13:24:54Z</time>
      </trkpt>
      <trkpt lat="42.79803" lon="-0.03003">
        <ele>1626.2</ele>
        <time>2023-10-31T13:24:55Z</time>
      </trkpt>
      <trkpt lat="42.79803" lon="-0.03004">
        <ele>1626.1</ele>
        <time>2023-10-31T13:24:56Z</time>
      </trkpt>
      <trkpt lat="42.79803" lon="-0.03003">
        <ele>1626</ele>
        <time>2023-10-31T13:24:57Z</time>
      </trkpt>
      <trkpt lat="42.79803" lon="-0.03003">
        <ele>1626</ele>
        <time>2023-10-31T13:24:58Z</time>
      </trkpt>
      <trkpt lat="42.79803" lon="-0.03004">
        <ele>1625.9</ele>
        <time>2023-10-31T13:24:59Z</time>
      </trkpt>
      <trkpt lat="42.79803" lon="-0.03004">
        <ele>1625.9</ele>
        <time>2023-10-31T13:25:00Z</time>
      </trkpt>
      <trkpt lat="42.79803" lon="-0.03003">
        <ele>1625.8</ele>
        <time>2023-10-31T13:25:01Z</time>
      </trkpt>
      <trkpt lat="42.79803" lon="-0.03003">
        <ele>1625.7</ele>
        <time>2023-10-31T13:25:02Z</time>
      </trkpt>
      <trkpt lat="42.79803" lon="-0.03003">
        <ele>1625.6</ele>
        <time>2023-10-31T13:25:03Z</time>
      </trkpt>
      <trkpt lat="42.79803" lon="-0.03002">
        <ele>1625.5</ele>
        <time>2023-10-31T13:25:04Z</time>
      </trkpt>
      <trkpt lat="42.79802" lon="-0.03001">
        <ele>1625.4</ele>
        <time>2023-10-31T13:25:05Z</time>
      </trkpt>
      <trkpt lat="42.79802" lon="-0.03001">
        <ele>1625.3</ele>
        <time>2023-10-31T13:25:06Z</time>
      </trkpt>
      <trkpt lat="42.79801" lon="-0.03001">
        <ele>1625.1</ele>
        <time>2023-10-31T13:25:07Z</time>
      </trkpt>
      <trkpt lat="42.798" lon="-0.03001">
        <ele>1625</ele>
        <time>2023-10-31T13:25:08Z</time>
      </trkpt>
      <trkpt lat="42.798" lon="-0.03">
        <ele>1624.9</ele>
        <time>2023-10-31T13:25:09Z</time>
      </trkpt>
      <trkpt lat="42.79799" lon="-0.03">
        <ele>1624.7</ele>
        <time>2023-10-31T13:25:10Z</time>
      </trkpt>
      <trkpt lat="42.79798" lon="-0.02999">
        <ele>1624.5</ele>
        <time>2023-10-31T13:25:11Z</time>
      </trkpt>
      <trkpt lat="42.79797" lon="-0.02999">
        <ele>1624.3</ele>
        <time>2023-10-31T13:25:12Z</time>
      </trkpt>
      <trkpt lat="42.79796" lon="-0.02999">
        <ele>1624.2</ele>
        <time>2023-10-31T13:25:13Z</time>
      </trkpt>
      <trkpt lat="42.79796" lon="-0.02999">
        <ele>1624.1</ele>
        <time>2023-10-31T13:25:14Z</time>
      </trkpt>
      <trkpt lat="42.79796" lon="-0.02998">
        <ele>1624</ele>
        <time>2023-10-31T13:25:15Z</time>
      </trkpt>
      <trkpt lat="42.79795" lon="-0.02997">
        <ele>1623.8</ele>
        <time>2023-10-31T13:25:16Z</time>
      </trkpt>
      <trkpt lat="42.79793" lon="-0.02996">
        <ele>1623.3</ele>
        <time>2023-10-31T13:25:17Z</time>
      </trkpt>
      <trkpt lat="42.79792" lon="-0.02996">
        <ele>1623.2</ele>
        <time>2023-10-31T13:25:18Z</time>
      </trkpt>
      <trkpt lat="42.79791" lon="-0.02995">
        <ele>1623</ele>
        <time>2023-10-31T13:25:19Z</time>
      </trkpt>
      <trkpt lat="42.79789" lon="-0.02996">
        <ele>1622.7</ele>
        <time>2023-10-31T13:25:20Z</time>
      </trkpt>
      <trkpt lat="42.79788" lon="-0.02996">
        <ele>1622.6</ele>
        <time>2023-10-31T13:25:21Z</time>
      </trkpt>
      <trkpt lat="42.79787" lon="-0.02996">
        <ele>1622.4</ele>
        <time>2023-10-31T13:25:22Z</time>
      </trkpt>
      <trkpt lat="42.79786" lon="-0.02996">
        <ele>1622.1</ele>
        <time>2023-10-31T13:25:23Z</time>
      </trkpt>
      <trkpt lat="42.79785" lon="-0.02996">
        <ele>1622</ele>
        <time>2023-10-31T13:25:24Z</time>
      </trkpt>
      <trkpt lat="42.79784" lon="-0.02996">
        <ele>1621.9</ele>
        <time>2023-10-31T13:25:25Z</time>
      </trkpt>
      <trkpt lat="42.79783" lon="-0.02995">
        <ele>1621.8</ele>
        <time>2023-10-31T13:25:26Z</time>
      </trkpt>
      <trkpt lat="42.79782" lon="-0.02995">
        <ele>1621.7</ele>
        <time>2023-10-31T13:25:27Z</time>
      </trkpt>
      <trkpt lat="42.79782" lon="-0.02995">
        <ele>1621.6</ele>
        <time>2023-10-31T13:25:28Z</time>
      </trkpt>
      <trkpt lat="42.79781" lon="-0.02995">
        <ele>1621.5</ele>
        <time>2023-10-31T13:25:29Z</time>
      </trkpt>
      <trkpt lat="42.79781" lon="-0.02995">
        <ele>1621.4</ele>
        <time>2023-10-31T13:25:30Z</time>
      </trkpt>
      <trkpt lat="42.7978" lon="-0.02993">
        <ele>1621.2</ele>
        <time>2023-10-31T13:25:32Z</time>
      </trkpt>
      <trkpt lat="42.79779" lon="-0.02993">
        <ele>1621.1</ele>
        <time>2023-10-31T13:25:33Z</time>
      </trkpt>
      <trkpt lat="42.79777" lon="-0.02994">
        <ele>1620.9</ele>
        <time>2023-10-31T13:25:34Z</time>
      </trkpt>
      <trkpt lat="42.79776" lon="-0.02995">
        <ele>1620.8</ele>
        <time>2023-10-31T13:25:35Z</time>
      </trkpt>
      <trkpt lat="42.79775" lon="-0.02995">
        <ele>1620.7</ele>
        <time>2023-10-31T13:25:36Z</time>
      </trkpt>
      <trkpt lat="42.79774" lon="-0.02995">
        <ele>1620.5</ele>
        <time>2023-10-31T13:25:37Z</time>
      </trkpt>
      <trkpt lat="42.79774" lon="-0.02995">
        <ele>1620.5</ele>
        <time>2023-10-31T13:25:38Z</time>
      </trkpt>
      <trkpt lat="42.79774" lon="-0.02995">
        <ele>1620.5</ele>
        <time>2023-10-31T13:25:39Z</time>
      </trkpt>
      <trkpt lat="42.79774" lon="-0.02995">
        <ele>1620.4</ele>
        <time>2023-10-31T13:25:40Z</time>
      </trkpt>
      <trkpt lat="42.79774" lon="-0.02994">
        <ele>1620.4</ele>
        <time>2023-10-31T13:25:41Z</time>
      </trkpt>
      <trkpt lat="42.79774" lon="-0.02994">
        <ele>1620.3</ele>
        <time>2023-10-31T13:25:42Z</time>
      </trkpt>
      <trkpt lat="42.79773" lon="-0.02993">
        <ele>1620.2</ele>
        <time>2023-10-31T13:25:43Z</time>
      </trkpt>
      <trkpt lat="42.79772" lon="-0.02992">
        <ele>1620.1</ele>
        <time>2023-10-31T13:25:44Z</time>
      </trkpt>
      <trkpt lat="42.79772" lon="-0.02992">
        <ele>1620</ele>
        <time>2023-10-31T13:25:45Z</time>
      </trkpt>
      <trkpt lat="42.79771" lon="-0.02991">
        <ele>1620</ele>
        <time>2023-10-31T13:25:46Z</time>
      </trkpt>
      <trkpt lat="42.79771" lon="-0.02991">
        <ele>1619.9</ele>
        <time>2023-10-31T13:25:47Z</time>
      </trkpt>
      <trkpt lat="42.7977" lon="-0.0299">
        <ele>1619.8</ele>
        <time>2023-10-31T13:25:48Z</time>
      </trkpt>
      <trkpt lat="42.7977" lon="-0.0299">
        <ele>1619.8</ele>
        <time>2023-10-31T13:25:49Z</time>
      </trkpt>
      <trkpt lat="42.7977" lon="-0.02989">
        <ele>1619.7</ele>
        <time>2023-10-31T13:25:50Z</time>
      </trkpt>
      <trkpt lat="42.7977" lon="-0.02989">
        <ele>1619.7</ele>
        <time>2023-10-31T13:25:51Z</time>
      </trkpt>
      <trkpt lat="42.7977" lon="-0.02988">
        <ele>1619.6</ele>
        <time>2023-10-31T13:25:52Z</time>
      </trkpt>
      <trkpt lat="42.79769" lon="-0.02988">
        <ele>1619.5</ele>
        <time>2023-10-31T13:25:53Z</time>
      </trkpt>
      <trkpt lat="42.79769" lon="-0.02988">
        <ele>1619.5</ele>
        <time>2023-10-31T13:25:54Z</time>
      </trkpt>
      <trkpt lat="42.79769" lon="-0.02988">
        <ele>1619.5</ele>
        <time>2023-10-31T13:25:55Z</time>
      </trkpt>
      <trkpt lat="42.79769" lon="-0.02988">
        <ele>1619.5</ele>
        <time>2023-10-31T13:25:56Z</time>
      </trkpt>
      <trkpt lat="42.79769" lon="-0.02988">
        <ele>1619.5</ele>
        <time>2023-10-31T13:25:57Z</time>
      </trkpt>
      <trkpt lat="42.79769" lon="-0.02988">
        <ele>1619.5</ele>
        <time>2023-10-31T13:25:58Z</time>
      </trkpt>
      <trkpt lat="42.79769" lon="-0.02988">
        <ele>1619.5</ele>
        <time>2023-10-31T13:25:59Z</time>
      </trkpt>
      <trkpt lat="42.79769" lon="-0.02988">
        <ele>1619.5</ele>
        <time>2023-10-31T13:26:00Z</time>
      </trkpt>
      <trkpt lat="42.79769" lon="-0.02988">
        <ele>1619.4</ele>
        <time>2023-10-31T13:26:01Z</time>
      </trkpt>
      <trkpt lat="42.79769" lon="-0.02987">
        <ele>1619.4</ele>
        <time>2023-10-31T13:26:02Z</time>
      </trkpt>
      <trkpt lat="42.79769" lon="-0.02987">
        <ele>1619.4</ele>
        <time>2023-10-31T13:26:03Z</time>
      </trkpt>
      <trkpt lat="42.79768" lon="-0.02987">
        <ele>1619.4</ele>
        <time>2023-10-31T13:26:04Z</time>
      </trkpt>
      <trkpt lat="42.79768" lon="-0.02987">
        <ele>1619.4</ele>
        <time>2023-10-31T13:26:05Z</time>
      </trkpt>
      <trkpt lat="42.79768" lon="-0.02987">
        <ele>1619.4</ele>
        <time>2023-10-31T13:26:06Z</time>
      </trkpt>
      <trkpt lat="42.79768" lon="-0.02987">
        <ele>1619.4</ele>
        <time>2023-10-31T13:26:07Z</time>
      </trkpt>
      <trkpt lat="42.79768" lon="-0.02987">
        <ele>1619.4</ele>
        <time>2023-10-31T13:26:08Z</time>
      </trkpt>
      <trkpt lat="42.79768" lon="-0.02987">
        <ele>1619.4</ele>
        <time>2023-10-31T13:26:09Z</time>
      </trkpt>
      <trkpt lat="42.79768" lon="-0.02987">
        <ele>1619.4</ele>
        <time>2023-10-31T13:26:10Z</time>
      </trkpt>
      <trkpt lat="42.79768" lon="-0.02987">
        <ele>1619.3</ele>
        <time>2023-10-31T13:26:11Z</time>
      </trkpt>
      <trkpt lat="42.79768" lon="-0.02987">
        <ele>1619.3</ele>
        <time>2023-10-31T13:26:12Z</time>
      </trkpt>
      <trkpt lat="42.79768" lon="-0.02987">
        <ele>1619.3</ele>
        <time>2023-10-31T13:26:13Z</time>
      </trkpt>
      <trkpt lat="42.79768" lon="-0.02987">
        <ele>1619.3</ele>
        <time>2023-10-31T13:26:14Z</time>
      </trkpt>
      <trkpt lat="42.79768" lon="-0.02987">
        <ele>1619.3</ele>
        <time>2023-10-31T13:26:15Z</time>
      </trkpt>
      <trkpt lat="42.79768" lon="-0.02987">
        <ele>1619.3</ele>
        <time>2023-10-31T13:26:16Z</time>
      </trkpt>
      <trkpt lat="42.79768" lon="-0.02987">
        <ele>1619.3</ele>
        <time>2023-10-31T13:26:17Z</time>
      </trkpt>
      <trkpt lat="42.79768" lon="-0.02987">
        <ele>1619.3</ele>
        <time>2023-10-31T13:26:18Z</time>
      </trkpt>
      <trkpt lat="42.79767" lon="-0.02987">
        <ele>1619.3</ele>
        <time>2023-10-31T13:26:19Z</time>
      </trkpt>
      <trkpt lat="42.79767" lon="-0.02986">
        <ele>1619.3</ele>
        <time>2023-10-31T13:26:20Z</time>
      </trkpt>
      <trkpt lat="42.79767" lon="-0.02986">
        <ele>1619.2</ele>
        <time>2023-10-31T13:26:21Z</time>
      </trkpt>
      <trkpt lat="42.79767" lon="-0.02986">
        <ele>1619.2</ele>
        <time>2023-10-31T13:26:22Z</time>
      </trkpt>
      <trkpt lat="42.79767" lon="-0.02986">
        <ele>1619.2</ele>
        <time>2023-10-31T13:26:23Z</time>
      </trkpt>
      <trkpt lat="42.79767" lon="-0.02986">
        <ele>1619.2</ele>
        <time>2023-10-31T13:26:24Z</time>
      </trkpt>
      <trkpt lat="42.79767" lon="-0.02986">
        <ele>1619.2</ele>
        <time>2023-10-31T13:26:25Z</time>
      </trkpt>
      <trkpt lat="42.79767" lon="-0.02986">
        <ele>1619.2</ele>
        <time>2023-10-31T13:26:26Z</time>
      </trkpt>
      <trkpt lat="42.79767" lon="-0.02986">
        <ele>1619.2</ele>
        <time>2023-10-31T13:26:27Z</time>
      </trkpt>
      <trkpt lat="42.79767" lon="-0.02986">
        <ele>1619.2</ele>
        <time>2023-10-31T13:26:28Z</time>
      </trkpt>
      <trkpt lat="42.79767" lon="-0.02986">
        <ele>1619.1</ele>
        <time>2023-10-31T13:26:29Z</time>
      </trkpt>
      <trkpt lat="42.79767" lon="-0.02986">
        <ele>1619.1</ele>
        <time>2023-10-31T13:26:30Z</time>
      </trkpt>
      <trkpt lat="42.79767" lon="-0.02986">
        <ele>1619.1</ele>
        <time>2023-10-31T13:26:31Z</time>
      </trkpt>
      <trkpt lat="42.79767" lon="-0.02986">
        <ele>1619.1</ele>
        <time>2023-10-31T13:26:32Z</time>
      </trkpt>
      <trkpt lat="42.79767" lon="-0.02986">
        <ele>1619.1</ele>
        <time>2023-10-31T13:26:33Z</time>
      </trkpt>
      <trkpt lat="42.79766" lon="-0.02986">
        <ele>1619.1</ele>
        <time>2023-10-31T13:26:34Z</time>
      </trkpt>
      <trkpt lat="42.79766" lon="-0.02986">
        <ele>1619.1</ele>
        <time>2023-10-31T13:26:35Z</time>
      </trkpt>
      <trkpt lat="42.79766" lon="-0.02986">
        <ele>1619.1</ele>
        <time>2023-10-31T13:26:36Z</time>
      </trkpt>
      <trkpt lat="42.79766" lon="-0.02986">
        <ele>1619.1</ele>
        <time>2023-10-31T13:26:37Z</time>
      </trkpt>
      <trkpt lat="42.79766" lon="-0.02985">
        <ele>1619.1</ele>
        <time>2023-10-31T13:26:38Z</time>
      </trkpt>
      <trkpt lat="42.79766" lon="-0.02985">
        <ele>1619.1</ele>
        <time>2023-10-31T13:26:39Z</time>
      </trkpt>
      <trkpt lat="42.79766" lon="-0.02985">
        <ele>1619</ele>
        <time>2023-10-31T13:26:40Z</time>
      </trkpt>
      <trkpt lat="42.79766" lon="-0.02985">
        <ele>1619</ele>
        <time>2023-10-31T13:26:41Z</time>
      </trkpt>
      <trkpt lat="42.79766" lon="-0.02985">
        <ele>1619</ele>
        <time>2023-10-31T13:26:42Z</time>
      </trkpt>
      <trkpt lat="42.79766" lon="-0.02985">
        <ele>1619</ele>
        <time>2023-10-31T13:26:43Z</time>
      </trkpt>
      <trkpt lat="42.79766" lon="-0.02985">
        <ele>1619</ele>
        <time>2023-10-31T13:26:44Z</time>
      </trkpt>
      <trkpt lat="42.79766" lon="-0.02985">
        <ele>1619</ele>
        <time>2023-10-31T13:26:45Z</time>
      </trkpt>
      <trkpt lat="42.79766" lon="-0.02985">
        <ele>1619</ele>
        <time>2023-10-31T13:26:46Z</time>
      </trkpt>
      <trkpt lat="42.79766" lon="-0.02985">
        <ele>1619</ele>
        <time>2023-10-31T13:26:47Z</time>
      </trkpt>
      <trkpt lat="42.79766" lon="-0.02985">
        <ele>1619</ele>
        <time>2023-10-31T13:26:48Z</time>
      </trkpt>
      <trkpt lat="42.79765" lon="-0.02985">
        <ele>1618.9</ele>
        <time>2023-10-31T13:26:49Z</time>
      </trkpt>
      <trkpt lat="42.79765" lon="-0.02985">
        <ele>1618.9</ele>
        <time>2023-10-31T13:26:50Z</time>
      </trkpt>
      <trkpt lat="42.79765" lon="-0.02985">
        <ele>1618.9</ele>
        <time>2023-10-31T13:26:51Z</time>
      </trkpt>
      <trkpt lat="42.79765" lon="-0.02984">
        <ele>1618.8</ele>
        <time>2023-10-31T13:26:52Z</time>
      </trkpt>
      <trkpt lat="42.79764" lon="-0.02984">
        <ele>1618.7</ele>
        <time>2023-10-31T13:26:53Z</time>
      </trkpt>
      <trkpt lat="42.79764" lon="-0.02985">
        <ele>1618.6</ele>
        <time>2023-10-31T13:26:54Z</time>
      </trkpt>
      <trkpt lat="42.79763" lon="-0.02984">
        <ele>1618.5</ele>
        <time>2023-10-31T13:26:55Z</time>
      </trkpt>
      <trkpt lat="42.79763" lon="-0.02984">
        <ele>1618.4</ele>
        <time>2023-10-31T13:26:56Z</time>
      </trkpt>
      <trkpt lat="42.79763" lon="-0.02984">
        <ele>1618.4</ele>
        <time>2023-10-31T13:26:57Z</time>
      </trkpt>
      <trkpt lat="42.79763" lon="-0.02983">
        <ele>1618.3</ele>
        <time>2023-10-31T13:26:58Z</time>
      </trkpt>
      <trkpt lat="42.79762" lon="-0.02983">
        <ele>1618.2</ele>
        <time>2023-10-31T13:26:59Z</time>
      </trkpt>
      <trkpt lat="42.79762" lon="-0.02982">
        <ele>1618.1</ele>
        <time>2023-10-31T13:27:00Z</time>
      </trkpt>
      <trkpt lat="42.7976" lon="-0.02982">
        <ele>1617.9</ele>
        <time>2023-10-31T13:27:01Z</time>
      </trkpt>
      <trkpt lat="42.7976" lon="-0.02982">
        <ele>1617.8</ele>
        <time>2023-10-31T13:27:02Z</time>
      </trkpt>
      <trkpt lat="42.79758" lon="-0.02983">
        <ele>1617.6</ele>
        <time>2023-10-31T13:27:03Z</time>
      </trkpt>
      <trkpt lat="42.79758" lon="-0.02983">
        <ele>1617.5</ele>
        <time>2023-10-31T13:27:04Z</time>
      </trkpt>
      <trkpt lat="42.79757" lon="-0.02983">
        <ele>1617.5</ele>
        <time>2023-10-31T13:27:05Z</time>
      </trkpt>
      <trkpt lat="42.79756" lon="-0.02983">
        <ele>1617.3</ele>
        <time>2023-10-31T13:27:06Z</time>
      </trkpt>
      <trkpt lat="42.79755" lon="-0.02983">
        <ele>1617.2</ele>
        <time>2023-10-31T13:27:07Z</time>
      </trkpt>
      <trkpt lat="42.79754" lon="-0.02983">
        <ele>1617</ele>
        <time>2023-10-31T13:27:08Z</time>
      </trkpt>
      <trkpt lat="42.79753" lon="-0.02983">
        <ele>1616.8</ele>
        <time>2023-10-31T13:27:09Z</time>
      </trkpt>
      <trkpt lat="42.79752" lon="-0.02983">
        <ele>1616.7</ele>
        <time>2023-10-31T13:27:10Z</time>
      </trkpt>
      <trkpt lat="42.79751" lon="-0.02982">
        <ele>1616.5</ele>
        <time>2023-10-31T13:27:11Z</time>
      </trkpt>
      <trkpt lat="42.7975" lon="-0.02982">
        <ele>1616.4</ele>
        <time>2023-10-31T13:27:12Z</time>
      </trkpt>
      <trkpt lat="42.79748" lon="-0.02982">
        <ele>1616.1</ele>
        <time>2023-10-31T13:27:13Z</time>
      </trkpt>
      <trkpt lat="42.79747" lon="-0.02981">
        <ele>1615.9</ele>
        <time>2023-10-31T13:27:14Z</time>
      </trkpt>
      <trkpt lat="42.79747" lon="-0.02981">
        <ele>1615.8</ele>
        <time>2023-10-31T13:27:15Z</time>
      </trkpt>
      <trkpt lat="42.79746" lon="-0.0298">
        <ele>1615.7</ele>
        <time>2023-10-31T13:27:16Z</time>
      </trkpt>
      <trkpt lat="42.79745" lon="-0.0298">
        <ele>1615.6</ele>
        <time>2023-10-31T13:27:17Z</time>
      </trkpt>
      <trkpt lat="42.79745" lon="-0.02979">
        <ele>1615.5</ele>
        <time>2023-10-31T13:27:18Z</time>
      </trkpt>
      <trkpt lat="42.79745" lon="-0.02979">
        <ele>1615.4</ele>
        <time>2023-10-31T13:27:19Z</time>
      </trkpt>
      <trkpt lat="42.79744" lon="-0.02978">
        <ele>1615.3</ele>
        <time>2023-10-31T13:27:20Z</time>
      </trkpt>
      <trkpt lat="42.79744" lon="-0.02978">
        <ele>1615.3</ele>
        <time>2023-10-31T13:27:21Z</time>
      </trkpt>
      <trkpt lat="42.79743" lon="-0.02977">
        <ele>1615.2</ele>
        <time>2023-10-31T13:27:22Z</time>
      </trkpt>
      <trkpt lat="42.79742" lon="-0.02977">
        <ele>1615</ele>
        <time>2023-10-31T13:27:23Z</time>
      </trkpt>
      <trkpt lat="42.79741" lon="-0.02977">
        <ele>1614.8</ele>
        <time>2023-10-31T13:27:24Z</time>
      </trkpt>
      <trkpt lat="42.79739" lon="-0.02977">
        <ele>1614.6</ele>
        <time>2023-10-31T13:27:25Z</time>
      </trkpt>
      <trkpt lat="42.79739" lon="-0.02977">
        <ele>1614.5</ele>
        <time>2023-10-31T13:27:26Z</time>
      </trkpt>
      <trkpt lat="42.79738" lon="-0.02977">
        <ele>1614.3</ele>
        <time>2023-10-31T13:27:27Z</time>
      </trkpt>
      <trkpt lat="42.79736" lon="-0.02975">
        <ele>1614</ele>
        <time>2023-10-31T13:27:28Z</time>
      </trkpt>
      <trkpt lat="42.79736" lon="-0.02974">
        <ele>1613.9</ele>
        <time>2023-10-31T13:27:29Z</time>
      </trkpt>
      <trkpt lat="42.79735" lon="-0.02974">
        <ele>1613.8</ele>
        <time>2023-10-31T13:27:30Z</time>
      </trkpt>
      <trkpt lat="42.79734" lon="-0.02973">
        <ele>1613.6</ele>
        <time>2023-10-31T13:27:31Z</time>
      </trkpt>
      <trkpt lat="42.79733" lon="-0.02973">
        <ele>1613.4</ele>
        <time>2023-10-31T13:27:32Z</time>
      </trkpt>
      <trkpt lat="42.79733" lon="-0.02972">
        <ele>1613.3</ele>
        <time>2023-10-31T13:27:33Z</time>
      </trkpt>
      <trkpt lat="42.79732" lon="-0.02972">
        <ele>1613.3</ele>
        <time>2023-10-31T13:27:34Z</time>
      </trkpt>
      <trkpt lat="42.79732" lon="-0.02971">
        <ele>1613.1</ele>
        <time>2023-10-31T13:27:35Z</time>
      </trkpt>
      <trkpt lat="42.79731" lon="-0.0297">
        <ele>1613</ele>
        <time>2023-10-31T13:27:36Z</time>
      </trkpt>
      <trkpt lat="42.7973" lon="-0.02969">
        <ele>1612.9</ele>
        <time>2023-10-31T13:27:37Z</time>
      </trkpt>
      <trkpt lat="42.7973" lon="-0.02969">
        <ele>1612.8</ele>
        <time>2023-10-31T13:27:38Z</time>
      </trkpt>
      <trkpt lat="42.7973" lon="-0.02967">
        <ele>1612.7</ele>
        <time>2023-10-31T13:27:39Z</time>
      </trkpt>
      <trkpt lat="42.79729" lon="-0.02967">
        <ele>1612.6</ele>
        <time>2023-10-31T13:27:40Z</time>
      </trkpt>
      <trkpt lat="42.79728" lon="-0.02967">
        <ele>1612.5</ele>
        <time>2023-10-31T13:27:41Z</time>
      </trkpt>
      <trkpt lat="42.79728" lon="-0.02966">
        <ele>1612.4</ele>
        <time>2023-10-31T13:27:42Z</time>
      </trkpt>
      <trkpt lat="42.79727" lon="-0.02966">
        <ele>1612.3</ele>
        <time>2023-10-31T13:27:43Z</time>
      </trkpt>
      <trkpt lat="42.79727" lon="-0.02965">
        <ele>1612.2</ele>
        <time>2023-10-31T13:27:44Z</time>
      </trkpt>
      <trkpt lat="42.79726" lon="-0.02964">
        <ele>1612</ele>
        <time>2023-10-31T13:27:45Z</time>
      </trkpt>
      <trkpt lat="42.79725" lon="-0.02963">
        <ele>1611.9</ele>
        <time>2023-10-31T13:27:46Z</time>
      </trkpt>
      <trkpt lat="42.79725" lon="-0.02962">
        <ele>1611.7</ele>
        <time>2023-10-31T13:27:47Z</time>
      </trkpt>
      <trkpt lat="42.79724" lon="-0.02961">
        <ele>1611.6</ele>
        <time>2023-10-31T13:27:48Z</time>
      </trkpt>
      <trkpt lat="42.79724" lon="-0.02961">
        <ele>1611.6</ele>
        <time>2023-10-31T13:27:49Z</time>
      </trkpt>
      <trkpt lat="42.79724" lon="-0.02959">
        <ele>1611.4</ele>
        <time>2023-10-31T13:27:50Z</time>
      </trkpt>
      <trkpt lat="42.79722" lon="-0.02958">
        <ele>1611.2</ele>
        <time>2023-10-31T13:27:51Z</time>
      </trkpt>
      <trkpt lat="42.79721" lon="-0.02958">
        <ele>1611</ele>
        <time>2023-10-31T13:27:52Z</time>
      </trkpt>
      <trkpt lat="42.7972" lon="-0.02958">
        <ele>1610.9</ele>
        <time>2023-10-31T13:27:53Z</time>
      </trkpt>
      <trkpt lat="42.79719" lon="-0.02958">
        <ele>1610.8</ele>
        <time>2023-10-31T13:27:54Z</time>
      </trkpt>
      <trkpt lat="42.79719" lon="-0.02958">
        <ele>1610.7</ele>
        <time>2023-10-31T13:27:55Z</time>
      </trkpt>
      <trkpt lat="42.79718" lon="-0.02957">
        <ele>1610.5</ele>
        <time>2023-10-31T13:27:56Z</time>
      </trkpt>
      <trkpt lat="42.79717" lon="-0.02956">
        <ele>1610.3</ele>
        <time>2023-10-31T13:27:57Z</time>
      </trkpt>
      <trkpt lat="42.79715" lon="-0.02956">
        <ele>1610.1</ele>
        <time>2023-10-31T13:27:58Z</time>
      </trkpt>
      <trkpt lat="42.79715" lon="-0.02956">
        <ele>1610.1</ele>
        <time>2023-10-31T13:27:59Z</time>
      </trkpt>
      <trkpt lat="42.79715" lon="-0.02956">
        <ele>1610</ele>
        <time>2023-10-31T13:28:00Z</time>
      </trkpt>
      <trkpt lat="42.79714" lon="-0.02955">
        <ele>1610</ele>
        <time>2023-10-31T13:28:01Z</time>
      </trkpt>
      <trkpt lat="42.79714" lon="-0.02955">
        <ele>1609.8</ele>
        <time>2023-10-31T13:28:02Z</time>
      </trkpt>
      <trkpt lat="42.79713" lon="-0.02954">
        <ele>1609.7</ele>
        <time>2023-10-31T13:28:03Z</time>
      </trkpt>
      <trkpt lat="42.79713" lon="-0.02953">
        <ele>1609.6</ele>
        <time>2023-10-31T13:28:04Z</time>
      </trkpt>
      <trkpt lat="42.79713" lon="-0.02952">
        <ele>1609.5</ele>
        <time>2023-10-31T13:28:05Z</time>
      </trkpt>
      <trkpt lat="42.79712" lon="-0.02951">
        <ele>1609.3</ele>
        <time>2023-10-31T13:28:06Z</time>
      </trkpt>
      <trkpt lat="42.79711" lon="-0.0295">
        <ele>1609.1</ele>
        <time>2023-10-31T13:28:07Z</time>
      </trkpt>
      <trkpt lat="42.7971" lon="-0.0295">
        <ele>1608.9</ele>
        <time>2023-10-31T13:28:08Z</time>
      </trkpt>
      <trkpt lat="42.7971" lon="-0.02949">
        <ele>1608.8</ele>
        <time>2023-10-31T13:28:09Z</time>
      </trkpt>
      <trkpt lat="42.79709" lon="-0.02949">
        <ele>1608.7</ele>
        <time>2023-10-31T13:28:10Z</time>
      </trkpt>
      <trkpt lat="42.79708" lon="-0.02948">
        <ele>1608.5</ele>
        <time>2023-10-31T13:28:11Z</time>
      </trkpt>
      <trkpt lat="42.79707" lon="-0.02948">
        <ele>1608.3</ele>
        <time>2023-10-31T13:28:12Z</time>
      </trkpt>
      <trkpt lat="42.79706" lon="-0.02947">
        <ele>1608.2</ele>
        <time>2023-10-31T13:28:13Z</time>
      </trkpt>
      <trkpt lat="42.79705" lon="-0.02946">
        <ele>1607.9</ele>
        <time>2023-10-31T13:28:14Z</time>
      </trkpt>
      <trkpt lat="42.79705" lon="-0.02945">
        <ele>1607.8</ele>
        <time>2023-10-31T13:28:15Z</time>
      </trkpt>
      <trkpt lat="42.79704" lon="-0.02944">
        <ele>1607.6</ele>
        <time>2023-10-31T13:28:16Z</time>
      </trkpt>
      <trkpt lat="42.79703" lon="-0.02942">
        <ele>1607.3</ele>
        <time>2023-10-31T13:28:17Z</time>
      </trkpt>
      <trkpt lat="42.79702" lon="-0.02942">
        <ele>1607.1</ele>
        <time>2023-10-31T13:28:18Z</time>
      </trkpt>
      <trkpt lat="42.79702" lon="-0.02941">
        <ele>1607</ele>
        <time>2023-10-31T13:28:19Z</time>
      </trkpt>
      <trkpt lat="42.79701" lon="-0.0294">
        <ele>1606.8</ele>
        <time>2023-10-31T13:28:20Z</time>
      </trkpt>
      <trkpt lat="42.797" lon="-0.0294">
        <ele>1606.6</ele>
        <time>2023-10-31T13:28:21Z</time>
      </trkpt>
      <trkpt lat="42.79699" lon="-0.02939">
        <ele>1606.4</ele>
        <time>2023-10-31T13:28:22Z</time>
      </trkpt>
      <trkpt lat="42.79699" lon="-0.02938">
        <ele>1606.2</ele>
        <time>2023-10-31T13:28:23Z</time>
      </trkpt>
      <trkpt lat="42.79698" lon="-0.02937">
        <ele>1606.1</ele>
        <time>2023-10-31T13:28:24Z</time>
      </trkpt>
      <trkpt lat="42.79698" lon="-0.02936">
        <ele>1605.9</ele>
        <time>2023-10-31T13:28:25Z</time>
      </trkpt>
      <trkpt lat="42.79697" lon="-0.02935">
        <ele>1605.7</ele>
        <time>2023-10-31T13:28:26Z</time>
      </trkpt>
      <trkpt lat="42.79697" lon="-0.02934">
        <ele>1605.6</ele>
        <time>2023-10-31T13:28:27Z</time>
      </trkpt>
      <trkpt lat="42.79697" lon="-0.02933">
        <ele>1605.4</ele>
        <time>2023-10-31T13:28:28Z</time>
      </trkpt>
      <trkpt lat="42.79696" lon="-0.02932">
        <ele>1605.2</ele>
        <time>2023-10-31T13:28:29Z</time>
      </trkpt>
      <trkpt lat="42.79695" lon="-0.02931">
        <ele>1605</ele>
        <time>2023-10-31T13:28:30Z</time>
      </trkpt>
      <trkpt lat="42.79695" lon="-0.02931">
        <ele>1604.9</ele>
        <time>2023-10-31T13:28:31Z</time>
      </trkpt>
      <trkpt lat="42.79694" lon="-0.0293">
        <ele>1604.8</ele>
        <time>2023-10-31T13:28:32Z</time>
      </trkpt>
      <trkpt lat="42.79694" lon="-0.0293">
        <ele>1604.7</ele>
        <time>2023-10-31T13:28:33Z</time>
      </trkpt>
      <trkpt lat="42.79693" lon="-0.02929">
        <ele>1604.4</ele>
        <time>2023-10-31T13:28:34Z</time>
      </trkpt>
      <trkpt lat="42.79693" lon="-0.02928">
        <ele>1604.3</ele>
        <time>2023-10-31T13:28:35Z</time>
      </trkpt>
      <trkpt lat="42.79693" lon="-0.02927">
        <ele>1604.1</ele>
        <time>2023-10-31T13:28:36Z</time>
      </trkpt>
      <trkpt lat="42.79692" lon="-0.02926">
        <ele>1603.8</ele>
        <time>2023-10-31T13:28:37Z</time>
      </trkpt>
      <trkpt lat="42.79691" lon="-0.02925">
        <ele>1603.6</ele>
        <time>2023-10-31T13:28:38Z</time>
      </trkpt>
      <trkpt lat="42.7969" lon="-0.02924">
        <ele>1603.3</ele>
        <time>2023-10-31T13:28:39Z</time>
      </trkpt>
      <trkpt lat="42.79689" lon="-0.02924">
        <ele>1603.1</ele>
        <time>2023-10-31T13:28:40Z</time>
      </trkpt>
      <trkpt lat="42.79688" lon="-0.02923">
        <ele>1602.9</ele>
        <time>2023-10-31T13:28:41Z</time>
      </trkpt>
      <trkpt lat="42.79688" lon="-0.02922">
        <ele>1602.7</ele>
        <time>2023-10-31T13:28:42Z</time>
      </trkpt>
      <trkpt lat="42.79687" lon="-0.02922">
        <ele>1602.5</ele>
        <time>2023-10-31T13:28:43Z</time>
      </trkpt>
      <trkpt lat="42.79686" lon="-0.02921">
        <ele>1602.3</ele>
        <time>2023-10-31T13:28:44Z</time>
      </trkpt>
      <trkpt lat="42.79687" lon="-0.0292">
        <ele>1602.2</ele>
        <time>2023-10-31T13:28:45Z</time>
      </trkpt>
      <trkpt lat="42.79686" lon="-0.0292">
        <ele>1602.1</ele>
        <time>2023-10-31T13:28:46Z</time>
      </trkpt>
      <trkpt lat="42.79686" lon="-0.0292">
        <ele>1602</ele>
        <time>2023-10-31T13:28:47Z</time>
      </trkpt>
      <trkpt lat="42.79686" lon="-0.0292">
        <ele>1602</ele>
        <time>2023-10-31T13:28:48Z</time>
      </trkpt>
      <trkpt lat="42.79686" lon="-0.02921">
        <ele>1601.9</ele>
        <time>2023-10-31T13:28:49Z</time>
      </trkpt>
      <trkpt lat="42.79687" lon="-0.0292">
        <ele>1601.8</ele>
        <time>2023-10-31T13:28:50Z</time>
      </trkpt>
      <trkpt lat="42.79687" lon="-0.0292">
        <ele>1601.7</ele>
        <time>2023-10-31T13:28:51Z</time>
      </trkpt>
      <trkpt lat="42.79687" lon="-0.0292">
        <ele>1601.6</ele>
        <time>2023-10-31T13:28:52Z</time>
      </trkpt>
      <trkpt lat="42.79686" lon="-0.02919">
        <ele>1601.6</ele>
        <time>2023-10-31T13:28:53Z</time>
      </trkpt>
      <trkpt lat="42.79686" lon="-0.02918">
        <ele>1601.4</ele>
        <time>2023-10-31T13:28:54Z</time>
      </trkpt>
      <trkpt lat="42.79685" lon="-0.02918">
        <ele>1601.2</ele>
        <time>2023-10-31T13:28:55Z</time>
      </trkpt>
      <trkpt lat="42.79685" lon="-0.02917">
        <ele>1601</ele>
        <time>2023-10-31T13:28:56Z</time>
      </trkpt>
      <trkpt lat="42.79685" lon="-0.02915">
        <ele>1600.7</ele>
        <time>2023-10-31T13:28:57Z</time>
      </trkpt>
      <trkpt lat="42.79684" lon="-0.02915">
        <ele>1600.6</ele>
        <time>2023-10-31T13:28:58Z</time>
      </trkpt>
      <trkpt lat="42.79684" lon="-0.02914">
        <ele>1600.4</ele>
        <time>2023-10-31T13:28:59Z</time>
      </trkpt>
      <trkpt lat="42.79683" lon="-0.02914">
        <ele>1600.2</ele>
        <time>2023-10-31T13:29:00Z</time>
      </trkpt>
      <trkpt lat="42.79683" lon="-0.02914">
        <ele>1600.2</ele>
        <time>2023-10-31T13:29:01Z</time>
      </trkpt>
      <trkpt lat="42.79682" lon="-0.02914">
        <ele>1600.1</ele>
        <time>2023-10-31T13:29:02Z</time>
      </trkpt>
      <trkpt lat="42.79683" lon="-0.02914">
        <ele>1600</ele>
        <time>2023-10-31T13:29:03Z</time>
      </trkpt>
      <trkpt lat="42.79683" lon="-0.02913">
        <ele>1599.9</ele>
        <time>2023-10-31T13:29:04Z</time>
      </trkpt>
      <trkpt lat="42.79682" lon="-0.02913">
        <ele>1599.8</ele>
        <time>2023-10-31T13:29:05Z</time>
      </trkpt>
      <trkpt lat="42.79682" lon="-0.02913">
        <ele>1599.7</ele>
        <time>2023-10-31T13:29:06Z</time>
      </trkpt>
      <trkpt lat="42.79682" lon="-0.02913">
        <ele>1599.7</ele>
        <time>2023-10-31T13:29:07Z</time>
      </trkpt>
      <trkpt lat="42.79681" lon="-0.02912">
        <ele>1599.4</ele>
        <time>2023-10-31T13:29:08Z</time>
      </trkpt>
      <trkpt lat="42.79681" lon="-0.02911">
        <ele>1599.3</ele>
        <time>2023-10-31T13:29:09Z</time>
      </trkpt>
      <trkpt lat="42.79681" lon="-0.02911">
        <ele>1599.2</ele>
        <time>2023-10-31T13:29:10Z</time>
      </trkpt>
      <trkpt lat="42.7968" lon="-0.02911">
        <ele>1599.1</ele>
        <time>2023-10-31T13:29:11Z</time>
      </trkpt>
      <trkpt lat="42.79681" lon="-0.02911">
        <ele>1599</ele>
        <time>2023-10-31T13:29:12Z</time>
      </trkpt>
      <trkpt lat="42.79682" lon="-0.02911">
        <ele>1598.8</ele>
        <time>2023-10-31T13:29:13Z</time>
      </trkpt>
      <trkpt lat="42.79681" lon="-0.02911">
        <ele>1598.7</ele>
        <time>2023-10-31T13:29:14Z</time>
      </trkpt>
      <trkpt lat="42.79682" lon="-0.02911">
        <ele>1598.6</ele>
        <time>2023-10-31T13:29:15Z</time>
      </trkpt>
      <trkpt lat="42.79682" lon="-0.02911">
        <ele>1598.5</ele>
        <time>2023-10-31T13:29:16Z</time>
      </trkpt>
      <trkpt lat="42.79682" lon="-0.02911">
        <ele>1598.5</ele>
        <time>2023-10-31T13:29:17Z</time>
      </trkpt>
      <trkpt lat="42.79682" lon="-0.0291">
        <ele>1598.3</ele>
        <time>2023-10-31T13:29:18Z</time>
      </trkpt>
      <trkpt lat="42.79681" lon="-0.0291">
        <ele>1598.1</ele>
        <time>2023-10-31T13:29:19Z</time>
      </trkpt>
      <trkpt lat="42.7968" lon="-0.0291">
        <ele>1597.9</ele>
        <time>2023-10-31T13:29:20Z</time>
      </trkpt>
      <trkpt lat="42.7968" lon="-0.02909">
        <ele>1597.8</ele>
        <time>2023-10-31T13:29:21Z</time>
      </trkpt>
      <trkpt lat="42.7968" lon="-0.02909">
        <ele>1597.6</ele>
        <time>2023-10-31T13:29:22Z</time>
      </trkpt>
      <trkpt lat="42.79679" lon="-0.02909">
        <ele>1597.5</ele>
        <time>2023-10-31T13:29:23Z</time>
      </trkpt>
      <trkpt lat="42.79679" lon="-0.02908">
        <ele>1597.4</ele>
        <time>2023-10-31T13:29:24Z</time>
      </trkpt>
      <trkpt lat="42.79678" lon="-0.02908">
        <ele>1597.2</ele>
        <time>2023-10-31T13:29:25Z</time>
      </trkpt>
      <trkpt lat="42.79678" lon="-0.02907">
        <ele>1597.2</ele>
        <time>2023-10-31T13:29:26Z</time>
      </trkpt>
      <trkpt lat="42.79678" lon="-0.02908">
        <ele>1597.1</ele>
        <time>2023-10-31T13:29:27Z</time>
      </trkpt>
      <trkpt lat="42.79677" lon="-0.02907">
        <ele>1596.9</ele>
        <time>2023-10-31T13:29:28Z</time>
      </trkpt>
      <trkpt lat="42.79677" lon="-0.02907">
        <ele>1596.8</ele>
        <time>2023-10-31T13:29:29Z</time>
      </trkpt>
      <trkpt lat="42.79676" lon="-0.02906">
        <ele>1596.5</ele>
        <time>2023-10-31T13:29:30Z</time>
      </trkpt>
      <trkpt lat="42.79675" lon="-0.02906">
        <ele>1596.4</ele>
        <time>2023-10-31T13:29:31Z</time>
      </trkpt>
      <trkpt lat="42.79675" lon="-0.02906">
        <ele>1596.2</ele>
        <time>2023-10-31T13:29:32Z</time>
      </trkpt>
      <trkpt lat="42.79675" lon="-0.02905">
        <ele>1596.2</ele>
        <time>2023-10-31T13:29:33Z</time>
      </trkpt>
      <trkpt lat="42.79675" lon="-0.02905">
        <ele>1596.1</ele>
        <time>2023-10-31T13:29:34Z</time>
      </trkpt>
      <trkpt lat="42.79675" lon="-0.02904">
        <ele>1596</ele>
        <time>2023-10-31T13:29:35Z</time>
      </trkpt>
      <trkpt lat="42.79675" lon="-0.02904">
        <ele>1595.9</ele>
        <time>2023-10-31T13:29:36Z</time>
      </trkpt>
      <trkpt lat="42.79675" lon="-0.02903">
        <ele>1595.7</ele>
        <time>2023-10-31T13:29:37Z</time>
      </trkpt>
      <trkpt lat="42.79675" lon="-0.02902">
        <ele>1595.5</ele>
        <time>2023-10-31T13:29:38Z</time>
      </trkpt>
      <trkpt lat="42.79674" lon="-0.02901">
        <ele>1595.2</ele>
        <time>2023-10-31T13:29:39Z</time>
      </trkpt>
      <trkpt lat="42.79674" lon="-0.029">
        <ele>1595</ele>
        <time>2023-10-31T13:29:40Z</time>
      </trkpt>
      <trkpt lat="42.79673" lon="-0.02899">
        <ele>1594.8</ele>
        <time>2023-10-31T13:29:41Z</time>
      </trkpt>
      <trkpt lat="42.79672" lon="-0.02898">
        <ele>1594.6</ele>
        <time>2023-10-31T13:29:42Z</time>
      </trkpt>
      <trkpt lat="42.79673" lon="-0.02898">
        <ele>1594.4</ele>
        <time>2023-10-31T13:29:43Z</time>
      </trkpt>
      <trkpt lat="42.79673" lon="-0.02897">
        <ele>1594.3</ele>
        <time>2023-10-31T13:29:44Z</time>
      </trkpt>
      <trkpt lat="42.79672" lon="-0.02897">
        <ele>1594.1</ele>
        <time>2023-10-31T13:29:45Z</time>
      </trkpt>
      <trkpt lat="42.79672" lon="-0.02896">
        <ele>1594.1</ele>
        <time>2023-10-31T13:29:46Z</time>
      </trkpt>
      <trkpt lat="42.79673" lon="-0.02896">
        <ele>1593.9</ele>
        <time>2023-10-31T13:29:47Z</time>
      </trkpt>
      <trkpt lat="42.79673" lon="-0.02895">
        <ele>1593.8</ele>
        <time>2023-10-31T13:29:48Z</time>
      </trkpt>
      <trkpt lat="42.79673" lon="-0.02895">
        <ele>1593.7</ele>
        <time>2023-10-31T13:29:49Z</time>
      </trkpt>
      <trkpt lat="42.79672" lon="-0.02894">
        <ele>1593.6</ele>
        <time>2023-10-31T13:29:50Z</time>
      </trkpt>
      <trkpt lat="42.79671" lon="-0.02894">
        <ele>1593.4</ele>
        <time>2023-10-31T13:29:51Z</time>
      </trkpt>
      <trkpt lat="42.7967" lon="-0.02894">
        <ele>1593.1</ele>
        <time>2023-10-31T13:29:52Z</time>
      </trkpt>
      <trkpt lat="42.79669" lon="-0.02893">
        <ele>1592.9</ele>
        <time>2023-10-31T13:29:53Z</time>
      </trkpt>
      <trkpt lat="42.79669" lon="-0.02892">
        <ele>1592.7</ele>
        <time>2023-10-31T13:29:54Z</time>
      </trkpt>
      <trkpt lat="42.79668" lon="-0.02891">
        <ele>1592.5</ele>
        <time>2023-10-31T13:29:55Z</time>
      </trkpt>
      <trkpt lat="42.79667" lon="-0.0289">
        <ele>1592.4</ele>
        <time>2023-10-31T13:29:56Z</time>
      </trkpt>
      <trkpt lat="42.79667" lon="-0.0289">
        <ele>1592.2</ele>
        <time>2023-10-31T13:29:57Z</time>
      </trkpt>
      <trkpt lat="42.79667" lon="-0.02889">
        <ele>1592.1</ele>
        <time>2023-10-31T13:29:58Z</time>
      </trkpt>
      <trkpt lat="42.79666" lon="-0.02889">
        <ele>1591.9</ele>
        <time>2023-10-31T13:29:59Z</time>
      </trkpt>
      <trkpt lat="42.79666" lon="-0.02888">
        <ele>1591.8</ele>
        <time>2023-10-31T13:30:00Z</time>
      </trkpt>
      <trkpt lat="42.79665" lon="-0.02888">
        <ele>1591.7</ele>
        <time>2023-10-31T13:30:01Z</time>
      </trkpt>
      <trkpt lat="42.79666" lon="-0.02888">
        <ele>1591.7</ele>
        <time>2023-10-31T13:30:02Z</time>
      </trkpt>
      <trkpt lat="42.79665" lon="-0.02886">
        <ele>1591.4</ele>
        <time>2023-10-31T13:30:03Z</time>
      </trkpt>
      <trkpt lat="42.79665" lon="-0.02884">
        <ele>1591.2</ele>
        <time>2023-10-31T13:30:04Z</time>
      </trkpt>
      <trkpt lat="42.79665" lon="-0.02883">
        <ele>1591.1</ele>
        <time>2023-10-31T13:30:05Z</time>
      </trkpt>
      <trkpt lat="42.79665" lon="-0.02882">
        <ele>1590.9</ele>
        <time>2023-10-31T13:30:06Z</time>
      </trkpt>
      <trkpt lat="42.79664" lon="-0.02882">
        <ele>1590.9</ele>
        <time>2023-10-31T13:30:07Z</time>
      </trkpt>
      <trkpt lat="42.79664" lon="-0.02881">
        <ele>1590.8</ele>
        <time>2023-10-31T13:30:08Z</time>
      </trkpt>
      <trkpt lat="42.79664" lon="-0.0288">
        <ele>1590.7</ele>
        <time>2023-10-31T13:30:09Z</time>
      </trkpt>
      <trkpt lat="42.79664" lon="-0.02879">
        <ele>1590.5</ele>
        <time>2023-10-31T13:30:10Z</time>
      </trkpt>
      <trkpt lat="42.79664" lon="-0.02878">
        <ele>1590.4</ele>
        <time>2023-10-31T13:30:11Z</time>
      </trkpt>
      <trkpt lat="42.79663" lon="-0.02877">
        <ele>1590.3</ele>
        <time>2023-10-31T13:30:12Z</time>
      </trkpt>
      <trkpt lat="42.79663" lon="-0.02877">
        <ele>1590.2</ele>
        <time>2023-10-31T13:30:13Z</time>
      </trkpt>
      <trkpt lat="42.79663" lon="-0.02876">
        <ele>1590.1</ele>
        <time>2023-10-31T13:30:14Z</time>
      </trkpt>
      <trkpt lat="42.79663" lon="-0.02877">
        <ele>1590.1</ele>
        <time>2023-10-31T13:30:15Z</time>
      </trkpt>
      <trkpt lat="42.79664" lon="-0.02877">
        <ele>1590.1</ele>
        <time>2023-10-31T13:30:16Z</time>
      </trkpt>
      <trkpt lat="42.79664" lon="-0.02876">
        <ele>1590</ele>
        <time>2023-10-31T13:30:17Z</time>
      </trkpt>
      <trkpt lat="42.79664" lon="-0.02876">
        <ele>1589.9</ele>
        <time>2023-10-31T13:30:18Z</time>
      </trkpt>
      <trkpt lat="42.79664" lon="-0.02876">
        <ele>1589.9</ele>
        <time>2023-10-31T13:30:19Z</time>
      </trkpt>
      <trkpt lat="42.79664" lon="-0.02875">
        <ele>1589.9</ele>
        <time>2023-10-31T13:30:20Z</time>
      </trkpt>
      <trkpt lat="42.79664" lon="-0.02875">
        <ele>1589.8</ele>
        <time>2023-10-31T13:30:21Z</time>
      </trkpt>
      <trkpt lat="42.79664" lon="-0.02876">
        <ele>1589.8</ele>
        <time>2023-10-31T13:30:22Z</time>
      </trkpt>
      <trkpt lat="42.79663" lon="-0.02875">
        <ele>1589.6</ele>
        <time>2023-10-31T13:30:23Z</time>
      </trkpt>
      <trkpt lat="42.79662" lon="-0.02874">
        <ele>1589.5</ele>
        <time>2023-10-31T13:30:24Z</time>
      </trkpt>
      <trkpt lat="42.79661" lon="-0.02873">
        <ele>1589.3</ele>
        <time>2023-10-31T13:30:25Z</time>
      </trkpt>
      <trkpt lat="42.7966" lon="-0.02872">
        <ele>1589.2</ele>
        <time>2023-10-31T13:30:26Z</time>
      </trkpt>
      <trkpt lat="42.79659" lon="-0.02871">
        <ele>1589.1</ele>
        <time>2023-10-31T13:30:27Z</time>
      </trkpt>
      <trkpt lat="42.79659" lon="-0.02871">
        <ele>1589</ele>
        <time>2023-10-31T13:30:28Z</time>
      </trkpt>
      <trkpt lat="42.79659" lon="-0.0287">
        <ele>1588.9</ele>
        <time>2023-10-31T13:30:29Z</time>
      </trkpt>
      <trkpt lat="42.79658" lon="-0.0287">
        <ele>1588.9</ele>
        <time>2023-10-31T13:30:30Z</time>
      </trkpt>
      <trkpt lat="42.79658" lon="-0.02869">
        <ele>1588.9</ele>
        <time>2023-10-31T13:30:31Z</time>
      </trkpt>
      <trkpt lat="42.79657" lon="-0.02869">
        <ele>1588.8</ele>
        <time>2023-10-31T13:30:32Z</time>
      </trkpt>
      <trkpt lat="42.79656" lon="-0.02869">
        <ele>1588.7</ele>
        <time>2023-10-31T13:30:33Z</time>
      </trkpt>
      <trkpt lat="42.79655" lon="-0.02869">
        <ele>1588.6</ele>
        <time>2023-10-31T13:30:34Z</time>
      </trkpt>
      <trkpt lat="42.79653" lon="-0.02868">
        <ele>1588.5</ele>
        <time>2023-10-31T13:30:35Z</time>
      </trkpt>
      <trkpt lat="42.79653" lon="-0.02867">
        <ele>1588.4</ele>
        <time>2023-10-31T13:30:36Z</time>
      </trkpt>
      <trkpt lat="42.79652" lon="-0.02867">
        <ele>1588.3</ele>
        <time>2023-10-31T13:30:37Z</time>
      </trkpt>
      <trkpt lat="42.79651" lon="-0.02866">
        <ele>1588.3</ele>
        <time>2023-10-31T13:30:38Z</time>
      </trkpt>
      <trkpt lat="42.79651" lon="-0.02865">
        <ele>1588.2</ele>
        <time>2023-10-31T13:30:39Z</time>
      </trkpt>
      <trkpt lat="42.7965" lon="-0.02865">
        <ele>1588.2</ele>
        <time>2023-10-31T13:30:40Z</time>
      </trkpt>
      <trkpt lat="42.7965" lon="-0.02863">
        <ele>1588.1</ele>
        <time>2023-10-31T13:30:41Z</time>
      </trkpt>
      <trkpt lat="42.79649" lon="-0.02861">
        <ele>1587.9</ele>
        <time>2023-10-31T13:30:42Z</time>
      </trkpt>
      <trkpt lat="42.79649" lon="-0.0286">
        <ele>1587.9</ele>
        <time>2023-10-31T13:30:43Z</time>
      </trkpt>
      <trkpt lat="42.79649" lon="-0.0286">
        <ele>1587.8</ele>
        <time>2023-10-31T13:30:44Z</time>
      </trkpt>
      <trkpt lat="42.79648" lon="-0.02857">
        <ele>1587.7</ele>
        <time>2023-10-31T13:30:45Z</time>
      </trkpt>
      <trkpt lat="42.79648" lon="-0.02856">
        <ele>1587.6</ele>
        <time>2023-10-31T13:30:46Z</time>
      </trkpt>
      <trkpt lat="42.79647" lon="-0.02855">
        <ele>1587.5</ele>
        <time>2023-10-31T13:30:47Z</time>
      </trkpt>
      <trkpt lat="42.79646" lon="-0.02854">
        <ele>1587.4</ele>
        <time>2023-10-31T13:30:48Z</time>
      </trkpt>
      <trkpt lat="42.79645" lon="-0.02853">
        <ele>1587.3</ele>
        <time>2023-10-31T13:30:49Z</time>
      </trkpt>
      <trkpt lat="42.79646" lon="-0.02851">
        <ele>1587.2</ele>
        <time>2023-10-31T13:30:50Z</time>
      </trkpt>
      <trkpt lat="42.79647" lon="-0.02849">
        <ele>1587</ele>
        <time>2023-10-31T13:30:51Z</time>
      </trkpt>
      <trkpt lat="42.79648" lon="-0.02848">
        <ele>1586.8</ele>
        <time>2023-10-31T13:30:52Z</time>
      </trkpt>
      <trkpt lat="42.79649" lon="-0.02846">
        <ele>1586.7</ele>
        <time>2023-10-31T13:30:53Z</time>
      </trkpt>
      <trkpt lat="42.79649" lon="-0.02844">
        <ele>1586.5</ele>
        <time>2023-10-31T13:30:54Z</time>
      </trkpt>
      <trkpt lat="42.7965" lon="-0.02842">
        <ele>1586.3</ele>
        <time>2023-10-31T13:30:55Z</time>
      </trkpt>
      <trkpt lat="42.7965" lon="-0.02841">
        <ele>1586.2</ele>
        <time>2023-10-31T13:30:56Z</time>
      </trkpt>
      <trkpt lat="42.7965" lon="-0.0284">
        <ele>1586.1</ele>
        <time>2023-10-31T13:30:57Z</time>
      </trkpt>
      <trkpt lat="42.7965" lon="-0.02838">
        <ele>1586</ele>
        <time>2023-10-31T13:30:58Z</time>
      </trkpt>
      <trkpt lat="42.7965" lon="-0.02837">
        <ele>1585.9</ele>
        <time>2023-10-31T13:30:59Z</time>
      </trkpt>
      <trkpt lat="42.79649" lon="-0.02836">
        <ele>1585.8</ele>
        <time>2023-10-31T13:31:00Z</time>
      </trkpt>
      <trkpt lat="42.7965" lon="-0.02835">
        <ele>1585.7</ele>
        <time>2023-10-31T13:31:01Z</time>
      </trkpt>
      <trkpt lat="42.79649" lon="-0.02833">
        <ele>1585.5</ele>
        <time>2023-10-31T13:31:02Z</time>
      </trkpt>
      <trkpt lat="42.79648" lon="-0.02833">
        <ele>1585.4</ele>
        <time>2023-10-31T13:31:03Z</time>
      </trkpt>
      <trkpt lat="42.79648" lon="-0.02832">
        <ele>1585.3</ele>
        <time>2023-10-31T13:31:04Z</time>
      </trkpt>
      <trkpt lat="42.79647" lon="-0.02832">
        <ele>1585.2</ele>
        <time>2023-10-31T13:31:05Z</time>
      </trkpt>
      <trkpt lat="42.79646" lon="-0.0283">
        <ele>1585.1</ele>
        <time>2023-10-31T13:31:06Z</time>
      </trkpt>
      <trkpt lat="42.79646" lon="-0.02829">
        <ele>1584.9</ele>
        <time>2023-10-31T13:31:07Z</time>
      </trkpt>
      <trkpt lat="42.79645" lon="-0.02828">
        <ele>1584.8</ele>
        <time>2023-10-31T13:31:08Z</time>
      </trkpt>
      <trkpt lat="42.79644" lon="-0.02828">
        <ele>1584.7</ele>
        <time>2023-10-31T13:31:09Z</time>
      </trkpt>
      <trkpt lat="42.79644" lon="-0.02827">
        <ele>1584.6</ele>
        <time>2023-10-31T13:31:10Z</time>
      </trkpt>
      <trkpt lat="42.79643" lon="-0.02826">
        <ele>1584.5</ele>
        <time>2023-10-31T13:31:11Z</time>
      </trkpt>
      <trkpt lat="42.79643" lon="-0.02825">
        <ele>1584.3</ele>
        <time>2023-10-31T13:31:12Z</time>
      </trkpt>
      <trkpt lat="42.79642" lon="-0.02824">
        <ele>1584.2</ele>
        <time>2023-10-31T13:31:13Z</time>
      </trkpt>
      <trkpt lat="42.79641" lon="-0.02823">
        <ele>1584</ele>
        <time>2023-10-31T13:31:14Z</time>
      </trkpt>
      <trkpt lat="42.79641" lon="-0.02822">
        <ele>1583.9</ele>
        <time>2023-10-31T13:31:15Z</time>
      </trkpt>
      <trkpt lat="42.79641" lon="-0.02821">
        <ele>1583.8</ele>
        <time>2023-10-31T13:31:16Z</time>
      </trkpt>
      <trkpt lat="42.79641" lon="-0.0282">
        <ele>1583.7</ele>
        <time>2023-10-31T13:31:17Z</time>
      </trkpt>
      <trkpt lat="42.79641" lon="-0.02819">
        <ele>1583.6</ele>
        <time>2023-10-31T13:31:18Z</time>
      </trkpt>
      <trkpt lat="42.7964" lon="-0.02818">
        <ele>1583.5</ele>
        <time>2023-10-31T13:31:19Z</time>
      </trkpt>
      <trkpt lat="42.7964" lon="-0.02816">
        <ele>1583.3</ele>
        <time>2023-10-31T13:31:20Z</time>
      </trkpt>
      <trkpt lat="42.7964" lon="-0.02815">
        <ele>1583.2</ele>
        <time>2023-10-31T13:31:21Z</time>
      </trkpt>
      <trkpt lat="42.79639" lon="-0.02814">
        <ele>1583.1</ele>
        <time>2023-10-31T13:31:22Z</time>
      </trkpt>
      <trkpt lat="42.79639" lon="-0.02813">
        <ele>1583</ele>
        <time>2023-10-31T13:31:23Z</time>
      </trkpt>
      <trkpt lat="42.79638" lon="-0.02812">
        <ele>1582.8</ele>
        <time>2023-10-31T13:31:24Z</time>
      </trkpt>
      <trkpt lat="42.79638" lon="-0.02811">
        <ele>1582.7</ele>
        <time>2023-10-31T13:31:25Z</time>
      </trkpt>
      <trkpt lat="42.79637" lon="-0.02809">
        <ele>1582.5</ele>
        <time>2023-10-31T13:31:26Z</time>
      </trkpt>
      <trkpt lat="42.79636" lon="-0.02808">
        <ele>1582.3</ele>
        <time>2023-10-31T13:31:27Z</time>
      </trkpt>
      <trkpt lat="42.79635" lon="-0.02807">
        <ele>1582.2</ele>
        <time>2023-10-31T13:31:28Z</time>
      </trkpt>
      <trkpt lat="42.79634" lon="-0.02806">
        <ele>1582</ele>
        <time>2023-10-31T13:31:29Z</time>
      </trkpt>
      <trkpt lat="42.79633" lon="-0.02806">
        <ele>1581.9</ele>
        <time>2023-10-31T13:31:30Z</time>
      </trkpt>
      <trkpt lat="42.79633" lon="-0.02804">
        <ele>1581.7</ele>
        <time>2023-10-31T13:31:31Z</time>
      </trkpt>
      <trkpt lat="42.79632" lon="-0.02803">
        <ele>1581.6</ele>
        <time>2023-10-31T13:31:32Z</time>
      </trkpt>
      <trkpt lat="42.79631" lon="-0.02802">
        <ele>1581.4</ele>
        <time>2023-10-31T13:31:33Z</time>
      </trkpt>
      <trkpt lat="42.7963" lon="-0.02802">
        <ele>1581.3</ele>
        <time>2023-10-31T13:31:34Z</time>
      </trkpt>
      <trkpt lat="42.79629" lon="-0.02801">
        <ele>1581.1</ele>
        <time>2023-10-31T13:31:35Z</time>
      </trkpt>
      <trkpt lat="42.79628" lon="-0.02801">
        <ele>1581</ele>
        <time>2023-10-31T13:31:36Z</time>
      </trkpt>
      <trkpt lat="42.79627" lon="-0.028">
        <ele>1580.9</ele>
        <time>2023-10-31T13:31:37Z</time>
      </trkpt>
      <trkpt lat="42.79627" lon="-0.028">
        <ele>1580.8</ele>
        <time>2023-10-31T13:31:38Z</time>
      </trkpt>
      <trkpt lat="42.79626" lon="-0.02801">
        <ele>1580.8</ele>
        <time>2023-10-31T13:31:39Z</time>
      </trkpt>
      <trkpt lat="42.79627" lon="-0.02801">
        <ele>1580.7</ele>
        <time>2023-10-31T13:31:40Z</time>
      </trkpt>
      <trkpt lat="42.79627" lon="-0.02801">
        <ele>1580.7</ele>
        <time>2023-10-31T13:31:41Z</time>
      </trkpt>
      <trkpt lat="42.79626" lon="-0.02799">
        <ele>1580.6</ele>
        <time>2023-10-31T13:31:42Z</time>
      </trkpt>
      <trkpt lat="42.79625" lon="-0.02798">
        <ele>1580.4</ele>
        <time>2023-10-31T13:31:43Z</time>
      </trkpt>
      <trkpt lat="42.79624" lon="-0.02797">
        <ele>1580.2</ele>
        <time>2023-10-31T13:31:44Z</time>
      </trkpt>
      <trkpt lat="42.79623" lon="-0.02797">
        <ele>1580.1</ele>
        <time>2023-10-31T13:31:45Z</time>
      </trkpt>
      <trkpt lat="42.79623" lon="-0.02796">
        <ele>1580</ele>
        <time>2023-10-31T13:31:46Z</time>
      </trkpt>
      <trkpt lat="42.79622" lon="-0.02795">
        <ele>1579.9</ele>
        <time>2023-10-31T13:31:47Z</time>
      </trkpt>
      <trkpt lat="42.79622" lon="-0.02794">
        <ele>1579.7</ele>
        <time>2023-10-31T13:31:48Z</time>
      </trkpt>
      <trkpt lat="42.79622" lon="-0.02792">
        <ele>1579.6</ele>
        <time>2023-10-31T13:31:49Z</time>
      </trkpt>
      <trkpt lat="42.79622" lon="-0.0279">
        <ele>1579.4</ele>
        <time>2023-10-31T13:31:50Z</time>
      </trkpt>
      <trkpt lat="42.79621" lon="-0.02789">
        <ele>1579.3</ele>
        <time>2023-10-31T13:31:51Z</time>
      </trkpt>
      <trkpt lat="42.79621" lon="-0.02788">
        <ele>1579.2</ele>
        <time>2023-10-31T13:31:52Z</time>
      </trkpt>
      <trkpt lat="42.7962" lon="-0.02787">
        <ele>1579.1</ele>
        <time>2023-10-31T13:31:53Z</time>
      </trkpt>
      <trkpt lat="42.7962" lon="-0.02786">
        <ele>1579</ele>
        <time>2023-10-31T13:31:54Z</time>
      </trkpt>
      <trkpt lat="42.79619" lon="-0.02785">
        <ele>1578.9</ele>
        <time>2023-10-31T13:31:55Z</time>
      </trkpt>
      <trkpt lat="42.79619" lon="-0.02785">
        <ele>1578.8</ele>
        <time>2023-10-31T13:31:56Z</time>
      </trkpt>
      <trkpt lat="42.79618" lon="-0.02784">
        <ele>1578.7</ele>
        <time>2023-10-31T13:31:57Z</time>
      </trkpt>
      <trkpt lat="42.79617" lon="-0.02784">
        <ele>1578.7</ele>
        <time>2023-10-31T13:31:58Z</time>
      </trkpt>
      <trkpt lat="42.79617" lon="-0.02783">
        <ele>1578.6</ele>
        <time>2023-10-31T13:31:59Z</time>
      </trkpt>
      <trkpt lat="42.79617" lon="-0.02782">
        <ele>1578.5</ele>
        <time>2023-10-31T13:32:00Z</time>
      </trkpt>
      <trkpt lat="42.79617" lon="-0.0278">
        <ele>1578.4</ele>
        <time>2023-10-31T13:32:01Z</time>
      </trkpt>
      <trkpt lat="42.79616" lon="-0.0278">
        <ele>1578.3</ele>
        <time>2023-10-31T13:32:02Z</time>
      </trkpt>
      <trkpt lat="42.79615" lon="-0.0278">
        <ele>1578.3</ele>
        <time>2023-10-31T13:32:03Z</time>
      </trkpt>
      <trkpt lat="42.79615" lon="-0.0278">
        <ele>1578.3</ele>
        <time>2023-10-31T13:32:04Z</time>
      </trkpt>
      <trkpt lat="42.79615" lon="-0.0278">
        <ele>1578.2</ele>
        <time>2023-10-31T13:32:05Z</time>
      </trkpt>
      <trkpt lat="42.79615" lon="-0.0278">
        <ele>1578.2</ele>
        <time>2023-10-31T13:32:06Z</time>
      </trkpt>
      <trkpt lat="42.79615" lon="-0.0278">
        <ele>1578.2</ele>
        <time>2023-10-31T13:32:07Z</time>
      </trkpt>
      <trkpt lat="42.79615" lon="-0.02779">
        <ele>1578.2</ele>
        <time>2023-10-31T13:32:08Z</time>
      </trkpt>
      <trkpt lat="42.79615" lon="-0.02779">
        <ele>1578.2</ele>
        <time>2023-10-31T13:32:09Z</time>
      </trkpt>
      <trkpt lat="42.79615" lon="-0.02779">
        <ele>1578.1</ele>
        <time>2023-10-31T13:32:10Z</time>
      </trkpt>
      <trkpt lat="42.79614" lon="-0.02779">
        <ele>1578.1</ele>
        <time>2023-10-31T13:32:11Z</time>
      </trkpt>
      <trkpt lat="42.79615" lon="-0.02779">
        <ele>1578</ele>
        <time>2023-10-31T13:32:12Z</time>
      </trkpt>
      <trkpt lat="42.79615" lon="-0.02779">
        <ele>1578</ele>
        <time>2023-10-31T13:32:13Z</time>
      </trkpt>
      <trkpt lat="42.79614" lon="-0.02778">
        <ele>1577.9</ele>
        <time>2023-10-31T13:32:14Z</time>
      </trkpt>
      <trkpt lat="42.79614" lon="-0.02777">
        <ele>1577.8</ele>
        <time>2023-10-31T13:32:15Z</time>
      </trkpt>
      <trkpt lat="42.79613" lon="-0.02775">
        <ele>1577.6</ele>
        <time>2023-10-31T13:32:16Z</time>
      </trkpt>
      <trkpt lat="42.79613" lon="-0.02773">
        <ele>1577.4</ele>
        <time>2023-10-31T13:32:17Z</time>
      </trkpt>
      <trkpt lat="42.79612" lon="-0.02771">
        <ele>1577.3</ele>
        <time>2023-10-31T13:32:18Z</time>
      </trkpt>
      <trkpt lat="42.7961" lon="-0.0277">
        <ele>1577.1</ele>
        <time>2023-10-31T13:32:19Z</time>
      </trkpt>
      <trkpt lat="42.79608" lon="-0.0277">
        <ele>1576.9</ele>
        <time>2023-10-31T13:32:20Z</time>
      </trkpt>
      <trkpt lat="42.79607" lon="-0.0277">
        <ele>1576.8</ele>
        <time>2023-10-31T13:32:21Z</time>
      </trkpt>
      <trkpt lat="42.79606" lon="-0.02769">
        <ele>1576.7</ele>
        <time>2023-10-31T13:32:22Z</time>
      </trkpt>
      <trkpt lat="42.79606" lon="-0.02769">
        <ele>1576.6</ele>
        <time>2023-10-31T13:32:23Z</time>
      </trkpt>
      <trkpt lat="42.79605" lon="-0.02769">
        <ele>1576.5</ele>
        <time>2023-10-31T13:32:24Z</time>
      </trkpt>
      <trkpt lat="42.79604" lon="-0.02768">
        <ele>1576.4</ele>
        <time>2023-10-31T13:32:25Z</time>
      </trkpt>
      <trkpt lat="42.79604" lon="-0.02768">
        <ele>1576.4</ele>
        <time>2023-10-31T13:32:26Z</time>
      </trkpt>
      <trkpt lat="42.79603" lon="-0.02767">
        <ele>1576.3</ele>
        <time>2023-10-31T13:32:27Z</time>
      </trkpt>
      <trkpt lat="42.79603" lon="-0.02766">
        <ele>1576.2</ele>
        <time>2023-10-31T13:32:28Z</time>
      </trkpt>
      <trkpt lat="42.79602" lon="-0.02766">
        <ele>1576.1</ele>
        <time>2023-10-31T13:32:29Z</time>
      </trkpt>
      <trkpt lat="42.79602" lon="-0.02767">
        <ele>1576.1</ele>
        <time>2023-10-31T13:32:30Z</time>
      </trkpt>
      <trkpt lat="42.79601" lon="-0.02766">
        <ele>1575.9</ele>
        <time>2023-10-31T13:32:31Z</time>
      </trkpt>
      <trkpt lat="42.796" lon="-0.02765">
        <ele>1575.8</ele>
        <time>2023-10-31T13:32:32Z</time>
      </trkpt>
      <trkpt lat="42.79599" lon="-0.02764">
        <ele>1575.7</ele>
        <time>2023-10-31T13:32:33Z</time>
      </trkpt>
      <trkpt lat="42.79598" lon="-0.02764">
        <ele>1575.6</ele>
        <time>2023-10-31T13:32:34Z</time>
      </trkpt>
      <trkpt lat="42.79597" lon="-0.02764">
        <ele>1575.5</ele>
        <time>2023-10-31T13:32:35Z</time>
      </trkpt>
      <trkpt lat="42.79595" lon="-0.02764">
        <ele>1575.4</ele>
        <time>2023-10-31T13:32:36Z</time>
      </trkpt>
      <trkpt lat="42.79595" lon="-0.02764">
        <ele>1575.3</ele>
        <time>2023-10-31T13:32:37Z</time>
      </trkpt>
      <trkpt lat="42.79593" lon="-0.02765">
        <ele>1575.2</ele>
        <time>2023-10-31T13:32:38Z</time>
      </trkpt>
      <trkpt lat="42.79592" lon="-0.02765">
        <ele>1575.1</ele>
        <time>2023-10-31T13:32:39Z</time>
      </trkpt>
      <trkpt lat="42.7959" lon="-0.02765">
        <ele>1575</ele>
        <time>2023-10-31T13:32:40Z</time>
      </trkpt>
      <trkpt lat="42.79589" lon="-0.02765">
        <ele>1574.9</ele>
        <time>2023-10-31T13:32:41Z</time>
      </trkpt>
      <trkpt lat="42.79588" lon="-0.02765">
        <ele>1574.8</ele>
        <time>2023-10-31T13:32:42Z</time>
      </trkpt>
      <trkpt lat="42.79587" lon="-0.02766">
        <ele>1574.8</ele>
        <time>2023-10-31T13:32:43Z</time>
      </trkpt>
      <trkpt lat="42.79586" lon="-0.02767">
        <ele>1574.7</ele>
        <time>2023-10-31T13:32:44Z</time>
      </trkpt>
      <trkpt lat="42.79585" lon="-0.02767">
        <ele>1574.7</ele>
        <time>2023-10-31T13:32:45Z</time>
      </trkpt>
      <trkpt lat="42.79584" lon="-0.02767">
        <ele>1574.6</ele>
        <time>2023-10-31T13:32:46Z</time>
      </trkpt>
      <trkpt lat="42.79583" lon="-0.02768">
        <ele>1574.6</ele>
        <time>2023-10-31T13:32:47Z</time>
      </trkpt>
      <trkpt lat="42.79583" lon="-0.02769">
        <ele>1574.6</ele>
        <time>2023-10-31T13:32:48Z</time>
      </trkpt>
      <trkpt lat="42.79582" lon="-0.02769">
        <ele>1574.5</ele>
        <time>2023-10-31T13:32:49Z</time>
      </trkpt>
      <trkpt lat="42.79581" lon="-0.02769">
        <ele>1574.5</ele>
        <time>2023-10-31T13:32:50Z</time>
      </trkpt>
      <trkpt lat="42.7958" lon="-0.02769">
        <ele>1574.5</ele>
        <time>2023-10-31T13:32:51Z</time>
      </trkpt>
      <trkpt lat="42.79579" lon="-0.02768">
        <ele>1574.4</ele>
        <time>2023-10-31T13:32:52Z</time>
      </trkpt>
      <trkpt lat="42.79578" lon="-0.02769">
        <ele>1574.4</ele>
        <time>2023-10-31T13:32:53Z</time>
      </trkpt>
      <trkpt lat="42.79577" lon="-0.02769">
        <ele>1574.4</ele>
        <time>2023-10-31T13:32:54Z</time>
      </trkpt>
      <trkpt lat="42.79576" lon="-0.02769">
        <ele>1574.4</ele>
        <time>2023-10-31T13:32:55Z</time>
      </trkpt>
      <trkpt lat="42.79575" lon="-0.0277">
        <ele>1574.4</ele>
        <time>2023-10-31T13:32:56Z</time>
      </trkpt>
      <trkpt lat="42.79574" lon="-0.0277">
        <ele>1574.4</ele>
        <time>2023-10-31T13:32:57Z</time>
      </trkpt>
      <trkpt lat="42.79573" lon="-0.02771">
        <ele>1574.3</ele>
        <time>2023-10-31T13:32:58Z</time>
      </trkpt>
      <trkpt lat="42.79573" lon="-0.02771">
        <ele>1574.3</ele>
        <time>2023-10-31T13:32:59Z</time>
      </trkpt>
      <trkpt lat="42.79572" lon="-0.02772">
        <ele>1574.3</ele>
        <time>2023-10-31T13:33:00Z</time>
      </trkpt>
      <trkpt lat="42.79572" lon="-0.02772">
        <ele>1574.3</ele>
        <time>2023-10-31T13:33:01Z</time>
      </trkpt>
      <trkpt lat="42.79572" lon="-0.02773">
        <ele>1574.3</ele>
        <time>2023-10-31T13:33:02Z</time>
      </trkpt>
      <trkpt lat="42.79571" lon="-0.02773">
        <ele>1574.3</ele>
        <time>2023-10-31T13:33:03Z</time>
      </trkpt>
      <trkpt lat="42.7957" lon="-0.02772">
        <ele>1574.3</ele>
        <time>2023-10-31T13:33:04Z</time>
      </trkpt>
      <trkpt lat="42.79569" lon="-0.02771">
        <ele>1574.2</ele>
        <time>2023-10-31T13:33:05Z</time>
      </trkpt>
      <trkpt lat="42.79568" lon="-0.0277">
        <ele>1574.2</ele>
        <time>2023-10-31T13:33:06Z</time>
      </trkpt>
      <trkpt lat="42.79568" lon="-0.02768">
        <ele>1574.2</ele>
        <time>2023-10-31T13:33:07Z</time>
      </trkpt>
      <trkpt lat="42.79567" lon="-0.02767">
        <ele>1574.2</ele>
        <time>2023-10-31T13:33:08Z</time>
      </trkpt>
      <trkpt lat="42.79567" lon="-0.02767">
        <ele>1574.2</ele>
        <time>2023-10-31T13:33:09Z</time>
      </trkpt>
      <trkpt lat="42.79567" lon="-0.02767">
        <ele>1574.2</ele>
        <time>2023-10-31T13:33:10Z</time>
      </trkpt>
      <trkpt lat="42.79568" lon="-0.02767">
        <ele>1574.2</ele>
        <time>2023-10-31T13:33:11Z</time>
      </trkpt>
      <trkpt lat="42.79568" lon="-0.02768">
        <ele>1574.2</ele>
        <time>2023-10-31T13:33:12Z</time>
      </trkpt>
      <trkpt lat="42.79568" lon="-0.02767">
        <ele>1574.2</ele>
        <time>2023-10-31T13:33:13Z</time>
      </trkpt>
      <trkpt lat="42.79568" lon="-0.02768">
        <ele>1574.2</ele>
        <time>2023-10-31T13:33:14Z</time>
      </trkpt>
      <trkpt lat="42.79568" lon="-0.02767">
        <ele>1574.2</ele>
        <time>2023-10-31T13:33:15Z</time>
      </trkpt>
      <trkpt lat="42.79568" lon="-0.02767">
        <ele>1574.2</ele>
        <time>2023-10-31T13:33:16Z</time>
      </trkpt>
      <trkpt lat="42.79568" lon="-0.02768">
        <ele>1574.2</ele>
        <time>2023-10-31T13:33:17Z</time>
      </trkpt>
      <trkpt lat="42.79569" lon="-0.02769">
        <ele>1574.2</ele>
        <time>2023-10-31T13:33:18Z</time>
      </trkpt>
      <trkpt lat="42.79568" lon="-0.0277">
        <ele>1574.2</ele>
        <time>2023-10-31T13:33:19Z</time>
      </trkpt>
      <trkpt lat="42.79568" lon="-0.02771">
        <ele>1574.2</ele>
        <time>2023-10-31T13:33:20Z</time>
      </trkpt>
      <trkpt lat="42.79568" lon="-0.02771">
        <ele>1574.2</ele>
        <time>2023-10-31T13:33:21Z</time>
      </trkpt>
      <trkpt lat="42.79568" lon="-0.02771">
        <ele>1574.2</ele>
        <time>2023-10-31T13:33:22Z</time>
      </trkpt>
      <trkpt lat="42.79567" lon="-0.02771">
        <ele>1574.2</ele>
        <time>2023-10-31T13:33:23Z</time>
      </trkpt>
      <trkpt lat="42.79567" lon="-0.02771">
        <ele>1574.2</ele>
        <time>2023-10-31T13:33:24Z</time>
      </trkpt>
      <trkpt lat="42.79567" lon="-0.02772">
        <ele>1574.2</ele>
        <time>2023-10-31T13:33:25Z</time>
      </trkpt>
      <trkpt lat="42.79567" lon="-0.02771">
        <ele>1574.2</ele>
        <time>2023-10-31T13:33:26Z</time>
      </trkpt>
      <trkpt lat="42.79568" lon="-0.02769">
        <ele>1574.2</ele>
        <time>2023-10-31T13:33:27Z</time>
      </trkpt>
      <trkpt lat="42.79568" lon="-0.02767">
        <ele>1574.2</ele>
        <time>2023-10-31T13:33:28Z</time>
      </trkpt>
      <trkpt lat="42.79568" lon="-0.02767">
        <ele>1574.2</ele>
        <time>2023-10-31T13:33:29Z</time>
      </trkpt>
      <trkpt lat="42.79566" lon="-0.02765">
        <ele>1574.2</ele>
        <time>2023-10-31T13:33:30Z</time>
      </trkpt>
      <trkpt lat="42.79566" lon="-0.02764">
        <ele>1574.2</ele>
        <time>2023-10-31T13:33:31Z</time>
      </trkpt>
      <trkpt lat="42.79565" lon="-0.02763">
        <ele>1574.1</ele>
        <time>2023-10-31T13:33:32Z</time>
      </trkpt>
      <trkpt lat="42.79564" lon="-0.02762">
        <ele>1573.9</ele>
        <time>2023-10-31T13:33:33Z</time>
      </trkpt>
      <trkpt lat="42.79564" lon="-0.02761">
        <ele>1573.7</ele>
        <time>2023-10-31T13:33:34Z</time>
      </trkpt>
      <trkpt lat="42.79563" lon="-0.0276">
        <ele>1573.6</ele>
        <time>2023-10-31T13:33:35Z</time>
      </trkpt>
      <trkpt lat="42.79563" lon="-0.02759">
        <ele>1573.4</ele>
        <time>2023-10-31T13:33:36Z</time>
      </trkpt>
      <trkpt lat="42.79564" lon="-0.02758">
        <ele>1573.2</ele>
        <time>2023-10-31T13:33:37Z</time>
      </trkpt>
      <trkpt lat="42.79565" lon="-0.02757">
        <ele>1573</ele>
        <time>2023-10-31T13:33:38Z</time>
      </trkpt>
      <trkpt lat="42.79565" lon="-0.02756">
        <ele>1572.9</ele>
        <time>2023-10-31T13:33:39Z</time>
      </trkpt>
      <trkpt lat="42.79565" lon="-0.02755">
        <ele>1572.7</ele>
        <time>2023-10-31T13:33:40Z</time>
      </trkpt>
      <trkpt lat="42.79565" lon="-0.02755">
        <ele>1572.7</ele>
        <time>2023-10-31T13:33:41Z</time>
      </trkpt>
      <trkpt lat="42.79565" lon="-0.02755">
        <ele>1572.6</ele>
        <time>2023-10-31T13:33:42Z</time>
      </trkpt>
      <trkpt lat="42.79566" lon="-0.02755">
        <ele>1572.6</ele>
        <time>2023-10-31T13:33:43Z</time>
      </trkpt>
      <trkpt lat="42.79566" lon="-0.02755">
        <ele>1572.5</ele>
        <time>2023-10-31T13:33:44Z</time>
      </trkpt>
      <trkpt lat="42.79565" lon="-0.02755">
        <ele>1572.5</ele>
        <time>2023-10-31T13:33:45Z</time>
      </trkpt>
      <trkpt lat="42.79566" lon="-0.02754">
        <ele>1572.4</ele>
        <time>2023-10-31T13:33:46Z</time>
      </trkpt>
      <trkpt lat="42.79566" lon="-0.02753">
        <ele>1572.2</ele>
        <time>2023-10-31T13:33:47Z</time>
      </trkpt>
      <trkpt lat="42.79566" lon="-0.02753">
        <ele>1572.1</ele>
        <time>2023-10-31T13:33:48Z</time>
      </trkpt>
      <trkpt lat="42.79566" lon="-0.02752">
        <ele>1572.1</ele>
        <time>2023-10-31T13:33:49Z</time>
      </trkpt>
      <trkpt lat="42.79567" lon="-0.02752">
        <ele>1572</ele>
        <time>2023-10-31T13:33:50Z</time>
      </trkpt>
      <trkpt lat="42.79567" lon="-0.02751">
        <ele>1571.9</ele>
        <time>2023-10-31T13:33:51Z</time>
      </trkpt>
      <trkpt lat="42.79567" lon="-0.02751">
        <ele>1571.8</ele>
        <time>2023-10-31T13:33:52Z</time>
      </trkpt>
      <trkpt lat="42.79567" lon="-0.0275">
        <ele>1571.7</ele>
        <time>2023-10-31T13:33:53Z</time>
      </trkpt>
      <trkpt lat="42.79567" lon="-0.0275">
        <ele>1571.6</ele>
        <time>2023-10-31T13:33:54Z</time>
      </trkpt>
      <trkpt lat="42.79568" lon="-0.02749">
        <ele>1571.5</ele>
        <time>2023-10-31T13:33:55Z</time>
      </trkpt>
      <trkpt lat="42.79567" lon="-0.02748">
        <ele>1571.4</ele>
        <time>2023-10-31T13:33:56Z</time>
      </trkpt>
      <trkpt lat="42.79568" lon="-0.02748">
        <ele>1571.2</ele>
        <time>2023-10-31T13:33:57Z</time>
      </trkpt>
      <trkpt lat="42.79568" lon="-0.02747">
        <ele>1571.1</ele>
        <time>2023-10-31T13:33:58Z</time>
      </trkpt>
      <trkpt lat="42.79568" lon="-0.02745">
        <ele>1570.9</ele>
        <time>2023-10-31T13:33:59Z</time>
      </trkpt>
      <trkpt lat="42.79568" lon="-0.02745">
        <ele>1570.8</ele>
        <time>2023-10-31T13:34:00Z</time>
      </trkpt>
      <trkpt lat="42.79569" lon="-0.02745">
        <ele>1570.7</ele>
        <time>2023-10-31T13:34:01Z</time>
      </trkpt>
      <trkpt lat="42.7957" lon="-0.02744">
        <ele>1570.4</ele>
        <time>2023-10-31T13:34:02Z</time>
      </trkpt>
      <trkpt lat="42.79571" lon="-0.02743">
        <ele>1570.2</ele>
        <time>2023-10-31T13:34:03Z</time>
      </trkpt>
      <trkpt lat="42.79571" lon="-0.02744">
        <ele>1570</ele>
        <time>2023-10-31T13:34:04Z</time>
      </trkpt>
      <trkpt lat="42.79572" lon="-0.02743">
        <ele>1569.8</ele>
        <time>2023-10-31T13:34:05Z</time>
      </trkpt>
      <trkpt lat="42.79574" lon="-0.02741">
        <ele>1569.4</ele>
        <time>2023-10-31T13:34:06Z</time>
      </trkpt>
      <trkpt lat="42.79573" lon="-0.0274">
        <ele>1569.2</ele>
        <time>2023-10-31T13:34:07Z</time>
      </trkpt>
      <trkpt lat="42.79574" lon="-0.02739">
        <ele>1569</ele>
        <time>2023-10-31T13:34:08Z</time>
      </trkpt>
      <trkpt lat="42.79574" lon="-0.02739">
        <ele>1569</ele>
        <time>2023-10-31T13:34:09Z</time>
      </trkpt>
      <trkpt lat="42.79574" lon="-0.02738">
        <ele>1568.8</ele>
        <time>2023-10-31T13:34:10Z</time>
      </trkpt>
      <trkpt lat="42.79575" lon="-0.02737">
        <ele>1568.6</ele>
        <time>2023-10-31T13:34:11Z</time>
      </trkpt>
      <trkpt lat="42.79576" lon="-0.02736">
        <ele>1568.4</ele>
        <time>2023-10-31T13:34:12Z</time>
      </trkpt>
      <trkpt lat="42.79576" lon="-0.02735">
        <ele>1568.2</ele>
        <time>2023-10-31T13:34:13Z</time>
      </trkpt>
      <trkpt lat="42.79577" lon="-0.02735">
        <ele>1568</ele>
        <time>2023-10-31T13:34:14Z</time>
      </trkpt>
      <trkpt lat="42.79577" lon="-0.02734">
        <ele>1567.9</ele>
        <time>2023-10-31T13:34:15Z</time>
      </trkpt>
      <trkpt lat="42.79577" lon="-0.02735">
        <ele>1567.8</ele>
        <time>2023-10-31T13:34:16Z</time>
      </trkpt>
      <trkpt lat="42.79576" lon="-0.02735">
        <ele>1567.7</ele>
        <time>2023-10-31T13:34:17Z</time>
      </trkpt>
      <trkpt lat="42.79577" lon="-0.02736">
        <ele>1567.7</ele>
        <time>2023-10-31T13:34:18Z</time>
      </trkpt>
      <trkpt lat="42.79576" lon="-0.02736">
        <ele>1567.6</ele>
        <time>2023-10-31T13:34:19Z</time>
      </trkpt>
      <trkpt lat="42.79577" lon="-0.02735">
        <ele>1567.4</ele>
        <time>2023-10-31T13:34:20Z</time>
      </trkpt>
      <trkpt lat="42.79577" lon="-0.02734">
        <ele>1567.2</ele>
        <time>2023-10-31T13:34:21Z</time>
      </trkpt>
      <trkpt lat="42.79578" lon="-0.02734">
        <ele>1567.1</ele>
        <time>2023-10-31T13:34:22Z</time>
      </trkpt>
      <trkpt lat="42.79578" lon="-0.02734">
        <ele>1567.1</ele>
        <time>2023-10-31T13:34:23Z</time>
      </trkpt>
      <trkpt lat="42.79578" lon="-0.02733">
        <ele>1566.9</ele>
        <time>2023-10-31T13:34:24Z</time>
      </trkpt>
      <trkpt lat="42.79579" lon="-0.02733">
        <ele>1566.7</ele>
        <time>2023-10-31T13:34:25Z</time>
      </trkpt>
      <trkpt lat="42.79579" lon="-0.02733">
        <ele>1566.7</ele>
        <time>2023-10-31T13:34:26Z</time>
      </trkpt>
      <trkpt lat="42.79579" lon="-0.02732">
        <ele>1566.5</ele>
        <time>2023-10-31T13:34:27Z</time>
      </trkpt>
      <trkpt lat="42.7958" lon="-0.02731">
        <ele>1566.3</ele>
        <time>2023-10-31T13:34:28Z</time>
      </trkpt>
      <trkpt lat="42.79581" lon="-0.0273">
        <ele>1566</ele>
        <time>2023-10-31T13:34:29Z</time>
      </trkpt>
      <trkpt lat="42.79581" lon="-0.02729">
        <ele>1565.9</ele>
        <time>2023-10-31T13:34:30Z</time>
      </trkpt>
      <trkpt lat="42.79582" lon="-0.02729">
        <ele>1565.8</ele>
        <time>2023-10-31T13:34:31Z</time>
      </trkpt>
      <trkpt lat="42.79583" lon="-0.02728">
        <ele>1565.6</ele>
        <time>2023-10-31T13:34:32Z</time>
      </trkpt>
      <trkpt lat="42.79583" lon="-0.02727">
        <ele>1565.4</ele>
        <time>2023-10-31T13:34:33Z</time>
      </trkpt>
      <trkpt lat="42.79584" lon="-0.02726">
        <ele>1565.3</ele>
        <time>2023-10-31T13:34:34Z</time>
      </trkpt>
      <trkpt lat="42.79584" lon="-0.02726">
        <ele>1565.2</ele>
        <time>2023-10-31T13:34:35Z</time>
      </trkpt>
      <trkpt lat="42.79584" lon="-0.02725">
        <ele>1565.2</ele>
        <time>2023-10-31T13:34:36Z</time>
      </trkpt>
      <trkpt lat="42.79584" lon="-0.02726">
        <ele>1565.1</ele>
        <time>2023-10-31T13:34:37Z</time>
      </trkpt>
      <trkpt lat="42.79586" lon="-0.02724">
        <ele>1564.7</ele>
        <time>2023-10-31T13:34:38Z</time>
      </trkpt>
      <trkpt lat="42.79587" lon="-0.02723">
        <ele>1564.5</ele>
        <time>2023-10-31T13:34:39Z</time>
      </trkpt>
      <trkpt lat="42.79588" lon="-0.02722">
        <ele>1564.2</ele>
        <time>2023-10-31T13:34:40Z</time>
      </trkpt>
      <trkpt lat="42.79589" lon="-0.02721">
        <ele>1564</ele>
        <time>2023-10-31T13:34:41Z</time>
      </trkpt>
      <trkpt lat="42.79589" lon="-0.02719">
        <ele>1563.8</ele>
        <time>2023-10-31T13:34:42Z</time>
      </trkpt>
      <trkpt lat="42.7959" lon="-0.02718">
        <ele>1563.7</ele>
        <time>2023-10-31T13:34:43Z</time>
      </trkpt>
      <trkpt lat="42.7959" lon="-0.02718">
        <ele>1563.6</ele>
        <time>2023-10-31T13:34:44Z</time>
      </trkpt>
      <trkpt lat="42.79592" lon="-0.02716">
        <ele>1563.3</ele>
        <time>2023-10-31T13:34:45Z</time>
      </trkpt>
      <trkpt lat="42.79593" lon="-0.02715">
        <ele>1563.1</ele>
        <time>2023-10-31T13:34:46Z</time>
      </trkpt>
      <trkpt lat="42.79594" lon="-0.02715">
        <ele>1563</ele>
        <time>2023-10-31T13:34:47Z</time>
      </trkpt>
      <trkpt lat="42.79595" lon="-0.02713">
        <ele>1562.8</ele>
        <time>2023-10-31T13:34:48Z</time>
      </trkpt>
      <trkpt lat="42.79595" lon="-0.02712">
        <ele>1562.7</ele>
        <time>2023-10-31T13:34:49Z</time>
      </trkpt>
      <trkpt lat="42.79595" lon="-0.02711">
        <ele>1562.6</ele>
        <time>2023-10-31T13:34:50Z</time>
      </trkpt>
      <trkpt lat="42.79596" lon="-0.02709">
        <ele>1562.3</ele>
        <time>2023-10-31T13:34:51Z</time>
      </trkpt>
      <trkpt lat="42.79596" lon="-0.02708">
        <ele>1562.2</ele>
        <time>2023-10-31T13:34:52Z</time>
      </trkpt>
      <trkpt lat="42.79597" lon="-0.02707">
        <ele>1562.1</ele>
        <time>2023-10-31T13:34:53Z</time>
      </trkpt>
      <trkpt lat="42.79597" lon="-0.02705">
        <ele>1562</ele>
        <time>2023-10-31T13:34:54Z</time>
      </trkpt>
      <trkpt lat="42.79598" lon="-0.02704">
        <ele>1561.8</ele>
        <time>2023-10-31T13:34:55Z</time>
      </trkpt>
      <trkpt lat="42.79598" lon="-0.02702">
        <ele>1561.7</ele>
        <time>2023-10-31T13:34:56Z</time>
      </trkpt>
      <trkpt lat="42.79599" lon="-0.02701">
        <ele>1561.5</ele>
        <time>2023-10-31T13:34:57Z</time>
      </trkpt>
      <trkpt lat="42.796" lon="-0.027">
        <ele>1561.4</ele>
        <time>2023-10-31T13:34:58Z</time>
      </trkpt>
      <trkpt lat="42.796" lon="-0.02698">
        <ele>1561.3</ele>
        <time>2023-10-31T13:34:59Z</time>
      </trkpt>
      <trkpt lat="42.796" lon="-0.02697">
        <ele>1561.2</ele>
        <time>2023-10-31T13:35:00Z</time>
      </trkpt>
      <trkpt lat="42.79599" lon="-0.02696">
        <ele>1561.1</ele>
        <time>2023-10-31T13:35:01Z</time>
      </trkpt>
      <trkpt lat="42.79599" lon="-0.02695">
        <ele>1561</ele>
        <time>2023-10-31T13:35:02Z</time>
      </trkpt>
      <trkpt lat="42.79598" lon="-0.02694">
        <ele>1560.9</ele>
        <time>2023-10-31T13:35:03Z</time>
      </trkpt>
      <trkpt lat="42.79599" lon="-0.02694">
        <ele>1560.8</ele>
        <time>2023-10-31T13:35:04Z</time>
      </trkpt>
      <trkpt lat="42.79599" lon="-0.02694">
        <ele>1560.8</ele>
        <time>2023-10-31T13:35:05Z</time>
      </trkpt>
      <trkpt lat="42.79599" lon="-0.02694">
        <ele>1560.8</ele>
        <time>2023-10-31T13:35:06Z</time>
      </trkpt>
      <trkpt lat="42.79599" lon="-0.02694">
        <ele>1560.8</ele>
        <time>2023-10-31T13:35:07Z</time>
      </trkpt>
      <trkpt lat="42.79598" lon="-0.02692">
        <ele>1560.7</ele>
        <time>2023-10-31T13:35:08Z</time>
      </trkpt>
      <trkpt lat="42.79598" lon="-0.02691">
        <ele>1560.6</ele>
        <time>2023-10-31T13:35:09Z</time>
      </trkpt>
      <trkpt lat="42.79599" lon="-0.0269">
        <ele>1560.5</ele>
        <time>2023-10-31T13:35:10Z</time>
      </trkpt>
      <trkpt lat="42.79598" lon="-0.0269">
        <ele>1560.4</ele>
        <time>2023-10-31T13:35:11Z</time>
      </trkpt>
      <trkpt lat="42.79599" lon="-0.02687">
        <ele>1560.2</ele>
        <time>2023-10-31T13:35:12Z</time>
      </trkpt>
      <trkpt lat="42.796" lon="-0.02686">
        <ele>1560.1</ele>
        <time>2023-10-31T13:35:13Z</time>
      </trkpt>
      <trkpt lat="42.796" lon="-0.02685">
        <ele>1560.1</ele>
        <time>2023-10-31T13:35:14Z</time>
      </trkpt>
      <trkpt lat="42.796" lon="-0.02684">
        <ele>1560</ele>
        <time>2023-10-31T13:35:15Z</time>
      </trkpt>
      <trkpt lat="42.79601" lon="-0.02683">
        <ele>1559.9</ele>
        <time>2023-10-31T13:35:16Z</time>
      </trkpt>
      <trkpt lat="42.796" lon="-0.02681">
        <ele>1559.8</ele>
        <time>2023-10-31T13:35:17Z</time>
      </trkpt>
      <trkpt lat="42.79599" lon="-0.0268">
        <ele>1559.6</ele>
        <time>2023-10-31T13:35:18Z</time>
      </trkpt>
      <trkpt lat="42.796" lon="-0.02679">
        <ele>1559.5</ele>
        <time>2023-10-31T13:35:19Z</time>
      </trkpt>
      <trkpt lat="42.796" lon="-0.02677">
        <ele>1559.4</ele>
        <time>2023-10-31T13:35:20Z</time>
      </trkpt>
      <trkpt lat="42.796" lon="-0.02676">
        <ele>1559.3</ele>
        <time>2023-10-31T13:35:21Z</time>
      </trkpt>
      <trkpt lat="42.796" lon="-0.02675">
        <ele>1559.3</ele>
        <time>2023-10-31T13:35:22Z</time>
      </trkpt>
      <trkpt lat="42.79601" lon="-0.02673">
        <ele>1559.2</ele>
        <time>2023-10-31T13:35:23Z</time>
      </trkpt>
      <trkpt lat="42.79601" lon="-0.0267">
        <ele>1559</ele>
        <time>2023-10-31T13:35:24Z</time>
      </trkpt>
      <trkpt lat="42.796" lon="-0.02669">
        <ele>1558.9</ele>
        <time>2023-10-31T13:35:25Z</time>
      </trkpt>
      <trkpt lat="42.796" lon="-0.02668">
        <ele>1558.8</ele>
        <time>2023-10-31T13:35:26Z</time>
      </trkpt>
      <trkpt lat="42.796" lon="-0.02667">
        <ele>1558.8</ele>
        <time>2023-10-31T13:35:27Z</time>
      </trkpt>
      <trkpt lat="42.796" lon="-0.02665">
        <ele>1558.7</ele>
        <time>2023-10-31T13:35:28Z</time>
      </trkpt>
      <trkpt lat="42.79599" lon="-0.02664">
        <ele>1558.6</ele>
        <time>2023-10-31T13:35:29Z</time>
      </trkpt>
      <trkpt lat="42.79599" lon="-0.02663">
        <ele>1558.5</ele>
        <time>2023-10-31T13:35:30Z</time>
      </trkpt>
      <trkpt lat="42.79599" lon="-0.02661">
        <ele>1558.4</ele>
        <time>2023-10-31T13:35:31Z</time>
      </trkpt>
      <trkpt lat="42.79598" lon="-0.0266">
        <ele>1558.4</ele>
        <time>2023-10-31T13:35:32Z</time>
      </trkpt>
      <trkpt lat="42.79598" lon="-0.02659">
        <ele>1558.3</ele>
        <time>2023-10-31T13:35:33Z</time>
      </trkpt>
      <trkpt lat="42.79598" lon="-0.02658">
        <ele>1558.3</ele>
        <time>2023-10-31T13:35:34Z</time>
      </trkpt>
      <trkpt lat="42.79598" lon="-0.02656">
        <ele>1558.2</ele>
        <time>2023-10-31T13:35:35Z</time>
      </trkpt>
      <trkpt lat="42.79597" lon="-0.02654">
        <ele>1558.1</ele>
        <time>2023-10-31T13:35:36Z</time>
      </trkpt>
      <trkpt lat="42.79597" lon="-0.02652">
        <ele>1558</ele>
        <time>2023-10-31T13:35:37Z</time>
      </trkpt>
      <trkpt lat="42.79597" lon="-0.02651">
        <ele>1557.9</ele>
        <time>2023-10-31T13:35:38Z</time>
      </trkpt>
      <trkpt lat="42.79597" lon="-0.0265">
        <ele>1557.9</ele>
        <time>2023-10-31T13:35:39Z</time>
      </trkpt>
      <trkpt lat="42.79596" lon="-0.02649">
        <ele>1557.8</ele>
        <time>2023-10-31T13:35:40Z</time>
      </trkpt>
      <trkpt lat="42.79595" lon="-0.02647">
        <ele>1557.8</ele>
        <time>2023-10-31T13:35:41Z</time>
      </trkpt>
      <trkpt lat="42.79595" lon="-0.02646">
        <ele>1557.7</ele>
        <time>2023-10-31T13:35:42Z</time>
      </trkpt>
      <trkpt lat="42.79595" lon="-0.02644">
        <ele>1557.6</ele>
        <time>2023-10-31T13:35:43Z</time>
      </trkpt>
      <trkpt lat="42.79594" lon="-0.02643">
        <ele>1557.6</ele>
        <time>2023-10-31T13:35:44Z</time>
      </trkpt>
      <trkpt lat="42.79593" lon="-0.02642">
        <ele>1557.6</ele>
        <time>2023-10-31T13:35:45Z</time>
      </trkpt>
      <trkpt lat="42.79593" lon="-0.02642">
        <ele>1557.5</ele>
        <time>2023-10-31T13:35:46Z</time>
      </trkpt>
      <trkpt lat="42.79592" lon="-0.02642">
        <ele>1557.5</ele>
        <time>2023-10-31T13:35:47Z</time>
      </trkpt>
      <trkpt lat="42.79592" lon="-0.0264">
        <ele>1557.4</ele>
        <time>2023-10-31T13:35:48Z</time>
      </trkpt>
      <trkpt lat="42.79592" lon="-0.02639">
        <ele>1557.4</ele>
        <time>2023-10-31T13:35:49Z</time>
      </trkpt>
      <trkpt lat="42.79592" lon="-0.02638">
        <ele>1557.4</ele>
        <time>2023-10-31T13:35:50Z</time>
      </trkpt>
      <trkpt lat="42.79591" lon="-0.02637">
        <ele>1557.3</ele>
        <time>2023-10-31T13:35:51Z</time>
      </trkpt>
      <trkpt lat="42.79591" lon="-0.02635">
        <ele>1557.3</ele>
        <time>2023-10-31T13:35:52Z</time>
      </trkpt>
      <trkpt lat="42.7959" lon="-0.02634">
        <ele>1557.3</ele>
        <time>2023-10-31T13:35:53Z</time>
      </trkpt>
      <trkpt lat="42.79589" lon="-0.02633">
        <ele>1557.2</ele>
        <time>2023-10-31T13:35:54Z</time>
      </trkpt>
      <trkpt lat="42.79589" lon="-0.02631">
        <ele>1557.2</ele>
        <time>2023-10-31T13:35:55Z</time>
      </trkpt>
      <trkpt lat="42.79589" lon="-0.0263">
        <ele>1557.2</ele>
        <time>2023-10-31T13:35:56Z</time>
      </trkpt>
      <trkpt lat="42.79588" lon="-0.02629">
        <ele>1557.2</ele>
        <time>2023-10-31T13:35:57Z</time>
      </trkpt>
      <trkpt lat="42.79587" lon="-0.02628">
        <ele>1557.1</ele>
        <time>2023-10-31T13:35:58Z</time>
      </trkpt>
      <trkpt lat="42.79587" lon="-0.02627">
        <ele>1557.1</ele>
        <time>2023-10-31T13:35:59Z</time>
      </trkpt>
      <trkpt lat="42.79586" lon="-0.02627">
        <ele>1557.1</ele>
        <time>2023-10-31T13:36:00Z</time>
      </trkpt>
      <trkpt lat="42.79586" lon="-0.02626">
        <ele>1557.1</ele>
        <time>2023-10-31T13:36:01Z</time>
      </trkpt>
      <trkpt lat="42.79585" lon="-0.02625">
        <ele>1557.1</ele>
        <time>2023-10-31T13:36:02Z</time>
      </trkpt>
      <trkpt lat="42.79585" lon="-0.02623">
        <ele>1557.1</ele>
        <time>2023-10-31T13:36:03Z</time>
      </trkpt>
      <trkpt lat="42.79586" lon="-0.02621">
        <ele>1557</ele>
        <time>2023-10-31T13:36:04Z</time>
      </trkpt>
      <trkpt lat="42.79585" lon="-0.0262">
        <ele>1557</ele>
        <time>2023-10-31T13:36:05Z</time>
      </trkpt>
      <trkpt lat="42.79585" lon="-0.02619">
        <ele>1557</ele>
        <time>2023-10-31T13:36:06Z</time>
      </trkpt>
      <trkpt lat="42.79584" lon="-0.02618">
        <ele>1557</ele>
        <time>2023-10-31T13:36:07Z</time>
      </trkpt>
      <trkpt lat="42.79584" lon="-0.02616">
        <ele>1557</ele>
        <time>2023-10-31T13:36:08Z</time>
      </trkpt>
      <trkpt lat="42.79584" lon="-0.02614">
        <ele>1557</ele>
        <time>2023-10-31T13:36:09Z</time>
      </trkpt>
      <trkpt lat="42.79583" lon="-0.02613">
        <ele>1557</ele>
        <time>2023-10-31T13:36:10Z</time>
      </trkpt>
      <trkpt lat="42.79583" lon="-0.02612">
        <ele>1557</ele>
        <time>2023-10-31T13:36:11Z</time>
      </trkpt>
      <trkpt lat="42.79582" lon="-0.02612">
        <ele>1557</ele>
        <time>2023-10-31T13:36:12Z</time>
      </trkpt>
      <trkpt lat="42.79582" lon="-0.02611">
        <ele>1557</ele>
        <time>2023-10-31T13:36:13Z</time>
      </trkpt>
      <trkpt lat="42.79581" lon="-0.0261">
        <ele>1557</ele>
        <time>2023-10-31T13:36:14Z</time>
      </trkpt>
      <trkpt lat="42.79581" lon="-0.02608">
        <ele>1557</ele>
        <time>2023-10-31T13:36:15Z</time>
      </trkpt>
      <trkpt lat="42.79581" lon="-0.02606">
        <ele>1557</ele>
        <time>2023-10-31T13:36:16Z</time>
      </trkpt>
      <trkpt lat="42.79581" lon="-0.02605">
        <ele>1557</ele>
        <time>2023-10-31T13:36:17Z</time>
      </trkpt>
      <trkpt lat="42.79581" lon="-0.02603">
        <ele>1557</ele>
        <time>2023-10-31T13:36:18Z</time>
      </trkpt>
      <trkpt lat="42.7958" lon="-0.02601">
        <ele>1557</ele>
        <time>2023-10-31T13:36:19Z</time>
      </trkpt>
      <trkpt lat="42.79579" lon="-0.026">
        <ele>1557</ele>
        <time>2023-10-31T13:36:20Z</time>
      </trkpt>
      <trkpt lat="42.79579" lon="-0.026">
        <ele>1557</ele>
        <time>2023-10-31T13:36:21Z</time>
      </trkpt>
      <trkpt lat="42.79578" lon="-0.02598">
        <ele>1557</ele>
        <time>2023-10-31T13:36:22Z</time>
      </trkpt>
      <trkpt lat="42.79578" lon="-0.02597">
        <ele>1557</ele>
        <time>2023-10-31T13:36:23Z</time>
      </trkpt>
      <trkpt lat="42.79577" lon="-0.02596">
        <ele>1556.9</ele>
        <time>2023-10-31T13:36:24Z</time>
      </trkpt>
      <trkpt lat="42.79577" lon="-0.02595">
        <ele>1556.9</ele>
        <time>2023-10-31T13:36:25Z</time>
      </trkpt>
      <trkpt lat="42.79576" lon="-0.02594">
        <ele>1556.9</ele>
        <time>2023-10-31T13:36:26Z</time>
      </trkpt>
      <trkpt lat="42.79576" lon="-0.02593">
        <ele>1556.9</ele>
        <time>2023-10-31T13:36:27Z</time>
      </trkpt>
      <trkpt lat="42.79574" lon="-0.02593">
        <ele>1556.9</ele>
        <time>2023-10-31T13:36:28Z</time>
      </trkpt>
      <trkpt lat="42.79574" lon="-0.02593">
        <ele>1556.9</ele>
        <time>2023-10-31T13:36:29Z</time>
      </trkpt>
      <trkpt lat="42.79574" lon="-0.02592">
        <ele>1556.8</ele>
        <time>2023-10-31T13:36:30Z</time>
      </trkpt>
      <trkpt lat="42.79575" lon="-0.02591">
        <ele>1556.8</ele>
        <time>2023-10-31T13:36:31Z</time>
      </trkpt>
      <trkpt lat="42.79575" lon="-0.02589">
        <ele>1556.8</ele>
        <time>2023-10-31T13:36:32Z</time>
      </trkpt>
      <trkpt lat="42.79574" lon="-0.02588">
        <ele>1556.7</ele>
        <time>2023-10-31T13:36:33Z</time>
      </trkpt>
      <trkpt lat="42.79574" lon="-0.02587">
        <ele>1556.7</ele>
        <time>2023-10-31T13:36:34Z</time>
      </trkpt>
      <trkpt lat="42.79574" lon="-0.02586">
        <ele>1556.7</ele>
        <time>2023-10-31T13:36:35Z</time>
      </trkpt>
      <trkpt lat="42.79573" lon="-0.02583">
        <ele>1556.6</ele>
        <time>2023-10-31T13:36:36Z</time>
      </trkpt>
      <trkpt lat="42.79573" lon="-0.02582">
        <ele>1556.5</ele>
        <time>2023-10-31T13:36:37Z</time>
      </trkpt>
      <trkpt lat="42.79573" lon="-0.02582">
        <ele>1556.5</ele>
        <time>2023-10-31T13:36:38Z</time>
      </trkpt>
      <trkpt lat="42.79572" lon="-0.02581">
        <ele>1556.5</ele>
        <time>2023-10-31T13:36:39Z</time>
      </trkpt>
      <trkpt lat="42.79572" lon="-0.02579">
        <ele>1556.4</ele>
        <time>2023-10-31T13:36:40Z</time>
      </trkpt>
      <trkpt lat="42.79572" lon="-0.02578">
        <ele>1556.3</ele>
        <time>2023-10-31T13:36:41Z</time>
      </trkpt>
      <trkpt lat="42.79572" lon="-0.02577">
        <ele>1556.3</ele>
        <time>2023-10-31T13:36:42Z</time>
      </trkpt>
      <trkpt lat="42.79571" lon="-0.02576">
        <ele>1556.2</ele>
        <time>2023-10-31T13:36:43Z</time>
      </trkpt>
      <trkpt lat="42.79572" lon="-0.02576">
        <ele>1556.2</ele>
        <time>2023-10-31T13:36:44Z</time>
      </trkpt>
      <trkpt lat="42.79571" lon="-0.02574">
        <ele>1556.1</ele>
        <time>2023-10-31T13:36:45Z</time>
      </trkpt>
      <trkpt lat="42.7957" lon="-0.02572">
        <ele>1556</ele>
        <time>2023-10-31T13:36:46Z</time>
      </trkpt>
      <trkpt lat="42.7957" lon="-0.0257">
        <ele>1555.9</ele>
        <time>2023-10-31T13:36:47Z</time>
      </trkpt>
      <trkpt lat="42.79569" lon="-0.02568">
        <ele>1555.7</ele>
        <time>2023-10-31T13:36:48Z</time>
      </trkpt>
      <trkpt lat="42.79568" lon="-0.02567">
        <ele>1555.6</ele>
        <time>2023-10-31T13:36:49Z</time>
      </trkpt>
      <trkpt lat="42.79568" lon="-0.02565">
        <ele>1555.4</ele>
        <time>2023-10-31T13:36:50Z</time>
      </trkpt>
      <trkpt lat="42.79568" lon="-0.02563">
        <ele>1555.3</ele>
        <time>2023-10-31T13:36:51Z</time>
      </trkpt>
      <trkpt lat="42.79568" lon="-0.02562">
        <ele>1555.2</ele>
        <time>2023-10-31T13:36:52Z</time>
      </trkpt>
      <trkpt lat="42.79567" lon="-0.0256">
        <ele>1555.1</ele>
        <time>2023-10-31T13:36:53Z</time>
      </trkpt>
      <trkpt lat="42.79567" lon="-0.0256">
        <ele>1555</ele>
        <time>2023-10-31T13:36:54Z</time>
      </trkpt>
      <trkpt lat="42.79567" lon="-0.02558">
        <ele>1554.9</ele>
        <time>2023-10-31T13:36:55Z</time>
      </trkpt>
      <trkpt lat="42.79566" lon="-0.02557">
        <ele>1554.7</ele>
        <time>2023-10-31T13:36:56Z</time>
      </trkpt>
      <trkpt lat="42.79565" lon="-0.02556">
        <ele>1554.6</ele>
        <time>2023-10-31T13:36:57Z</time>
      </trkpt>
      <trkpt lat="42.79565" lon="-0.02554">
        <ele>1554.5</ele>
        <time>2023-10-31T13:36:58Z</time>
      </trkpt>
      <trkpt lat="42.79564" lon="-0.02553">
        <ele>1554.3</ele>
        <time>2023-10-31T13:36:59Z</time>
      </trkpt>
      <trkpt lat="42.79564" lon="-0.02552">
        <ele>1554.2</ele>
        <time>2023-10-31T13:37:00Z</time>
      </trkpt>
      <trkpt lat="42.79564" lon="-0.02551">
        <ele>1554.1</ele>
        <time>2023-10-31T13:37:01Z</time>
      </trkpt>
      <trkpt lat="42.79565" lon="-0.0255">
        <ele>1554</ele>
        <time>2023-10-31T13:37:02Z</time>
      </trkpt>
      <trkpt lat="42.79565" lon="-0.02549">
        <ele>1553.9</ele>
        <time>2023-10-31T13:37:03Z</time>
      </trkpt>
      <trkpt lat="42.79565" lon="-0.02548">
        <ele>1553.8</ele>
        <time>2023-10-31T13:37:04Z</time>
      </trkpt>
      <trkpt lat="42.79566" lon="-0.02547">
        <ele>1553.6</ele>
        <time>2023-10-31T13:37:05Z</time>
      </trkpt>
      <trkpt lat="42.79566" lon="-0.02545">
        <ele>1553.5</ele>
        <time>2023-10-31T13:37:06Z</time>
      </trkpt>
      <trkpt lat="42.79567" lon="-0.02544">
        <ele>1553.3</ele>
        <time>2023-10-31T13:37:07Z</time>
      </trkpt>
      <trkpt lat="42.79567" lon="-0.02543">
        <ele>1553.2</ele>
        <time>2023-10-31T13:37:08Z</time>
      </trkpt>
      <trkpt lat="42.79568" lon="-0.02541">
        <ele>1553</ele>
        <time>2023-10-31T13:37:09Z</time>
      </trkpt>
      <trkpt lat="42.79568" lon="-0.02539">
        <ele>1552.9</ele>
        <time>2023-10-31T13:37:10Z</time>
      </trkpt>
      <trkpt lat="42.79568" lon="-0.02538">
        <ele>1552.8</ele>
        <time>2023-10-31T13:37:11Z</time>
      </trkpt>
      <trkpt lat="42.79568" lon="-0.02536">
        <ele>1552.7</ele>
        <time>2023-10-31T13:37:12Z</time>
      </trkpt>
      <trkpt lat="42.79568" lon="-0.02535">
        <ele>1552.5</ele>
        <time>2023-10-31T13:37:13Z</time>
      </trkpt>
      <trkpt lat="42.79568" lon="-0.02533">
        <ele>1552.4</ele>
        <time>2023-10-31T13:37:14Z</time>
      </trkpt>
      <trkpt lat="42.79569" lon="-0.02532">
        <ele>1552.3</ele>
        <time>2023-10-31T13:37:15Z</time>
      </trkpt>
      <trkpt lat="42.7957" lon="-0.02531">
        <ele>1552.2</ele>
        <time>2023-10-31T13:37:16Z</time>
      </trkpt>
      <trkpt lat="42.79569" lon="-0.0253">
        <ele>1552.1</ele>
        <time>2023-10-31T13:37:17Z</time>
      </trkpt>
      <trkpt lat="42.79569" lon="-0.02529">
        <ele>1552</ele>
        <time>2023-10-31T13:37:18Z</time>
      </trkpt>
      <trkpt lat="42.79569" lon="-0.02528">
        <ele>1551.9</ele>
        <time>2023-10-31T13:37:19Z</time>
      </trkpt>
      <trkpt lat="42.79569" lon="-0.02527">
        <ele>1551.8</ele>
        <time>2023-10-31T13:37:20Z</time>
      </trkpt>
      <trkpt lat="42.79569" lon="-0.02525">
        <ele>1551.7</ele>
        <time>2023-10-31T13:37:21Z</time>
      </trkpt>
      <trkpt lat="42.79568" lon="-0.02524">
        <ele>1551.6</ele>
        <time>2023-10-31T13:37:22Z</time>
      </trkpt>
      <trkpt lat="42.79568" lon="-0.02523">
        <ele>1551.6</ele>
        <time>2023-10-31T13:37:23Z</time>
      </trkpt>
      <trkpt lat="42.79568" lon="-0.02522">
        <ele>1551.5</ele>
        <time>2023-10-31T13:37:24Z</time>
      </trkpt>
      <trkpt lat="42.79567" lon="-0.02521">
        <ele>1551.5</ele>
        <time>2023-10-31T13:37:25Z</time>
      </trkpt>
      <trkpt lat="42.79566" lon="-0.02521">
        <ele>1551.4</ele>
        <time>2023-10-31T13:37:26Z</time>
      </trkpt>
      <trkpt lat="42.79565" lon="-0.0252">
        <ele>1551.3</ele>
        <time>2023-10-31T13:37:27Z</time>
      </trkpt>
      <trkpt lat="42.79565" lon="-0.02519">
        <ele>1551.3</ele>
        <time>2023-10-31T13:37:28Z</time>
      </trkpt>
      <trkpt lat="42.79565" lon="-0.02518">
        <ele>1551.2</ele>
        <time>2023-10-31T13:37:29Z</time>
      </trkpt>
      <trkpt lat="42.79565" lon="-0.02517">
        <ele>1551.2</ele>
        <time>2023-10-31T13:37:30Z</time>
      </trkpt>
      <trkpt lat="42.79564" lon="-0.02516">
        <ele>1551.1</ele>
        <time>2023-10-31T13:37:31Z</time>
      </trkpt>
      <trkpt lat="42.79564" lon="-0.02515">
        <ele>1551.1</ele>
        <time>2023-10-31T13:37:32Z</time>
      </trkpt>
      <trkpt lat="42.79564" lon="-0.02515">
        <ele>1551</ele>
        <time>2023-10-31T13:37:33Z</time>
      </trkpt>
      <trkpt lat="42.79564" lon="-0.02513">
        <ele>1551</ele>
        <time>2023-10-31T13:37:34Z</time>
      </trkpt>
      <trkpt lat="42.79563" lon="-0.02513">
        <ele>1550.9</ele>
        <time>2023-10-31T13:37:35Z</time>
      </trkpt>
      <trkpt lat="42.79563" lon="-0.02512">
        <ele>1550.9</ele>
        <time>2023-10-31T13:37:36Z</time>
      </trkpt>
      <trkpt lat="42.79562" lon="-0.02512">
        <ele>1550.8</ele>
        <time>2023-10-31T13:37:37Z</time>
      </trkpt>
      <trkpt lat="42.79561" lon="-0.02511">
        <ele>1550.8</ele>
        <time>2023-10-31T13:37:38Z</time>
      </trkpt>
      <trkpt lat="42.7956" lon="-0.02511">
        <ele>1550.7</ele>
        <time>2023-10-31T13:37:39Z</time>
      </trkpt>
      <trkpt lat="42.7956" lon="-0.0251">
        <ele>1550.7</ele>
        <time>2023-10-31T13:37:40Z</time>
      </trkpt>
      <trkpt lat="42.79559" lon="-0.02508">
        <ele>1550.6</ele>
        <time>2023-10-31T13:37:41Z</time>
      </trkpt>
      <trkpt lat="42.79558" lon="-0.02507">
        <ele>1550.5</ele>
        <time>2023-10-31T13:37:42Z</time>
      </trkpt>
      <trkpt lat="42.79557" lon="-0.02506">
        <ele>1550.4</ele>
        <time>2023-10-31T13:37:43Z</time>
      </trkpt>
      <trkpt lat="42.79557" lon="-0.02505">
        <ele>1550.4</ele>
        <time>2023-10-31T13:37:44Z</time>
      </trkpt>
      <trkpt lat="42.79557" lon="-0.02504">
        <ele>1550.3</ele>
        <time>2023-10-31T13:37:45Z</time>
      </trkpt>
      <trkpt lat="42.79556" lon="-0.02502">
        <ele>1550.3</ele>
        <time>2023-10-31T13:37:46Z</time>
      </trkpt>
      <trkpt lat="42.79557" lon="-0.02501">
        <ele>1550.2</ele>
        <time>2023-10-31T13:37:47Z</time>
      </trkpt>
      <trkpt lat="42.79557" lon="-0.02498">
        <ele>1550</ele>
        <time>2023-10-31T13:37:48Z</time>
      </trkpt>
      <trkpt lat="42.79557" lon="-0.02497">
        <ele>1550</ele>
        <time>2023-10-31T13:37:49Z</time>
      </trkpt>
      <trkpt lat="42.79557" lon="-0.02496">
        <ele>1549.9</ele>
        <time>2023-10-31T13:37:50Z</time>
      </trkpt>
      <trkpt lat="42.79557" lon="-0.02493">
        <ele>1549.8</ele>
        <time>2023-10-31T13:37:51Z</time>
      </trkpt>
      <trkpt lat="42.79558" lon="-0.02492">
        <ele>1549.7</ele>
        <time>2023-10-31T13:37:52Z</time>
      </trkpt>
      <trkpt lat="42.79558" lon="-0.0249">
        <ele>1549.6</ele>
        <time>2023-10-31T13:37:53Z</time>
      </trkpt>
      <trkpt lat="42.79557" lon="-0.02489">
        <ele>1549.5</ele>
        <time>2023-10-31T13:37:54Z</time>
      </trkpt>
      <trkpt lat="42.79557" lon="-0.02488">
        <ele>1549.4</ele>
        <time>2023-10-31T13:37:55Z</time>
      </trkpt>
      <trkpt lat="42.79556" lon="-0.02487">
        <ele>1549.3</ele>
        <time>2023-10-31T13:37:56Z</time>
      </trkpt>
      <trkpt lat="42.79556" lon="-0.02486">
        <ele>1549.2</ele>
        <time>2023-10-31T13:37:57Z</time>
      </trkpt>
      <trkpt lat="42.79557" lon="-0.02484">
        <ele>1549.1</ele>
        <time>2023-10-31T13:37:58Z</time>
      </trkpt>
      <trkpt lat="42.79557" lon="-0.02482">
        <ele>1549</ele>
        <time>2023-10-31T13:37:59Z</time>
      </trkpt>
      <trkpt lat="42.79556" lon="-0.02481">
        <ele>1548.9</ele>
        <time>2023-10-31T13:38:00Z</time>
      </trkpt>
      <trkpt lat="42.79556" lon="-0.0248">
        <ele>1548.8</ele>
        <time>2023-10-31T13:38:01Z</time>
      </trkpt>
      <trkpt lat="42.79556" lon="-0.0248">
        <ele>1548.8</ele>
        <time>2023-10-31T13:38:02Z</time>
      </trkpt>
      <trkpt lat="42.79555" lon="-0.02479">
        <ele>1548.6</ele>
        <time>2023-10-31T13:38:03Z</time>
      </trkpt>
      <trkpt lat="42.79555" lon="-0.02477">
        <ele>1548.5</ele>
        <time>2023-10-31T13:38:04Z</time>
      </trkpt>
      <trkpt lat="42.79555" lon="-0.02475">
        <ele>1548.3</ele>
        <time>2023-10-31T13:38:05Z</time>
      </trkpt>
      <trkpt lat="42.79554" lon="-0.02474">
        <ele>1548.2</ele>
        <time>2023-10-31T13:38:06Z</time>
      </trkpt>
      <trkpt lat="42.79554" lon="-0.02473">
        <ele>1548.1</ele>
        <time>2023-10-31T13:38:07Z</time>
      </trkpt>
      <trkpt lat="42.79554" lon="-0.02472">
        <ele>1548</ele>
        <time>2023-10-31T13:38:08Z</time>
      </trkpt>
      <trkpt lat="42.79553" lon="-0.02471">
        <ele>1547.9</ele>
        <time>2023-10-31T13:38:09Z</time>
      </trkpt>
      <trkpt lat="42.79552" lon="-0.02469">
        <ele>1547.7</ele>
        <time>2023-10-31T13:38:10Z</time>
      </trkpt>
      <trkpt lat="42.79552" lon="-0.02468">
        <ele>1547.5</ele>
        <time>2023-10-31T13:38:11Z</time>
      </trkpt>
      <trkpt lat="42.79552" lon="-0.02467">
        <ele>1547.5</ele>
        <time>2023-10-31T13:38:12Z</time>
      </trkpt>
      <trkpt lat="42.79552" lon="-0.02468">
        <ele>1547.4</ele>
        <time>2023-10-31T13:38:13Z</time>
      </trkpt>
      <trkpt lat="42.79553" lon="-0.02468">
        <ele>1547.3</ele>
        <time>2023-10-31T13:38:14Z</time>
      </trkpt>
      <trkpt lat="42.79553" lon="-0.02469">
        <ele>1547.3</ele>
        <time>2023-10-31T13:38:15Z</time>
      </trkpt>
      <trkpt lat="42.79553" lon="-0.02471">
        <ele>1547.1</ele>
        <time>2023-10-31T13:38:16Z</time>
      </trkpt>
      <trkpt lat="42.79554" lon="-0.02472">
        <ele>1547</ele>
        <time>2023-10-31T13:38:17Z</time>
      </trkpt>
      <trkpt lat="42.79554" lon="-0.02471">
        <ele>1546.9</ele>
        <time>2023-10-31T13:38:18Z</time>
      </trkpt>
      <trkpt lat="42.79554" lon="-0.02471">
        <ele>1546.9</ele>
        <time>2023-10-31T13:38:19Z</time>
      </trkpt>
      <trkpt lat="42.79554" lon="-0.02471">
        <ele>1546.9</ele>
        <time>2023-10-31T13:38:20Z</time>
      </trkpt>
      <trkpt lat="42.79554" lon="-0.02471">
        <ele>1546.9</ele>
        <time>2023-10-31T13:38:21Z</time>
      </trkpt>
      <trkpt lat="42.79554" lon="-0.02471">
        <ele>1546.9</ele>
        <time>2023-10-31T13:38:22Z</time>
      </trkpt>
      <trkpt lat="42.79554" lon="-0.02471">
        <ele>1546.9</ele>
        <time>2023-10-31T13:38:23Z</time>
      </trkpt>
      <trkpt lat="42.79554" lon="-0.02471">
        <ele>1546.9</ele>
        <time>2023-10-31T13:38:24Z</time>
      </trkpt>
      <trkpt lat="42.79554" lon="-0.02471">
        <ele>1546.9</ele>
        <time>2023-10-31T13:38:25Z</time>
      </trkpt>
      <trkpt lat="42.79554" lon="-0.02471">
        <ele>1546.9</ele>
        <time>2023-10-31T13:38:26Z</time>
      </trkpt>
      <trkpt lat="42.79554" lon="-0.02471">
        <ele>1546.9</ele>
        <time>2023-10-31T13:38:27Z</time>
      </trkpt>
      <trkpt lat="42.79554" lon="-0.02471">
        <ele>1546.9</ele>
        <time>2023-10-31T13:38:28Z</time>
      </trkpt>
      <trkpt lat="42.79554" lon="-0.02471">
        <ele>1546.9</ele>
        <time>2023-10-31T13:38:29Z</time>
      </trkpt>
      <trkpt lat="42.79554" lon="-0.02471">
        <ele>1546.9</ele>
        <time>2023-10-31T13:38:30Z</time>
      </trkpt>
      <trkpt lat="42.79555" lon="-0.02472">
        <ele>1546.8</ele>
        <time>2023-10-31T13:38:31Z</time>
      </trkpt>
      <trkpt lat="42.79555" lon="-0.02472">
        <ele>1546.8</ele>
        <time>2023-10-31T13:38:32Z</time>
      </trkpt>
      <trkpt lat="42.79555" lon="-0.02472">
        <ele>1546.8</ele>
        <time>2023-10-31T13:38:33Z</time>
      </trkpt>
      <trkpt lat="42.79555" lon="-0.02472">
        <ele>1546.8</ele>
        <time>2023-10-31T13:38:34Z</time>
      </trkpt>
      <trkpt lat="42.79555" lon="-0.02472">
        <ele>1546.7</ele>
        <time>2023-10-31T13:38:35Z</time>
      </trkpt>
      <trkpt lat="42.79555" lon="-0.02472">
        <ele>1546.7</ele>
        <time>2023-10-31T13:38:36Z</time>
      </trkpt>
      <trkpt lat="42.79555" lon="-0.02472">
        <ele>1546.7</ele>
        <time>2023-10-31T13:38:37Z</time>
      </trkpt>
      <trkpt lat="42.79555" lon="-0.02472">
        <ele>1546.7</ele>
        <time>2023-10-31T13:38:38Z</time>
      </trkpt>
      <trkpt lat="42.79555" lon="-0.02472">
        <ele>1546.7</ele>
        <time>2023-10-31T13:38:39Z</time>
      </trkpt>
      <trkpt lat="42.79555" lon="-0.02472">
        <ele>1546.7</ele>
        <time>2023-10-31T13:38:40Z</time>
      </trkpt>
      <trkpt lat="42.79555" lon="-0.02472">
        <ele>1546.7</ele>
        <time>2023-10-31T13:38:41Z</time>
      </trkpt>
      <trkpt lat="42.79555" lon="-0.02472">
        <ele>1546.7</ele>
        <time>2023-10-31T13:38:42Z</time>
      </trkpt>
      <trkpt lat="42.79554" lon="-0.02471">
        <ele>1546.7</ele>
        <time>2023-10-31T13:38:43Z</time>
      </trkpt>
      <trkpt lat="42.79554" lon="-0.02471">
        <ele>1546.7</ele>
        <time>2023-10-31T13:38:44Z</time>
      </trkpt>
      <trkpt lat="42.79554" lon="-0.02471">
        <ele>1546.6</ele>
        <time>2023-10-31T13:38:45Z</time>
      </trkpt>
      <trkpt lat="42.79554" lon="-0.02471">
        <ele>1546.6</ele>
        <time>2023-10-31T13:38:46Z</time>
      </trkpt>
      <trkpt lat="42.79554" lon="-0.02471">
        <ele>1546.6</ele>
        <time>2023-10-31T13:38:47Z</time>
      </trkpt>
      <trkpt lat="42.79554" lon="-0.02471">
        <ele>1546.6</ele>
        <time>2023-10-31T13:38:48Z</time>
      </trkpt>
      <trkpt lat="42.79554" lon="-0.02471">
        <ele>1546.6</ele>
        <time>2023-10-31T13:38:49Z</time>
      </trkpt>
      <trkpt lat="42.79554" lon="-0.02471">
        <ele>1546.5</ele>
        <time>2023-10-31T13:38:50Z</time>
      </trkpt>
      <trkpt lat="42.79554" lon="-0.02471">
        <ele>1546.5</ele>
        <time>2023-10-31T13:38:51Z</time>
      </trkpt>
      <trkpt lat="42.79554" lon="-0.02471">
        <ele>1546.5</ele>
        <time>2023-10-31T13:38:52Z</time>
      </trkpt>
      <trkpt lat="42.79554" lon="-0.02471">
        <ele>1546.5</ele>
        <time>2023-10-31T13:38:53Z</time>
      </trkpt>
      <trkpt lat="42.79554" lon="-0.0247">
        <ele>1546.5</ele>
        <time>2023-10-31T13:38:54Z</time>
      </trkpt>
      <trkpt lat="42.79554" lon="-0.0247">
        <ele>1546.5</ele>
        <time>2023-10-31T13:38:55Z</time>
      </trkpt>
      <trkpt lat="42.79554" lon="-0.0247">
        <ele>1546.5</ele>
        <time>2023-10-31T13:38:56Z</time>
      </trkpt>
      <trkpt lat="42.79554" lon="-0.0247">
        <ele>1546.5</ele>
        <time>2023-10-31T13:38:57Z</time>
      </trkpt>
      <trkpt lat="42.79554" lon="-0.0247">
        <ele>1546.5</ele>
        <time>2023-10-31T13:38:58Z</time>
      </trkpt>
      <trkpt lat="42.79554" lon="-0.0247">
        <ele>1546.5</ele>
        <time>2023-10-31T13:38:59Z</time>
      </trkpt>
      <trkpt lat="42.79554" lon="-0.0247">
        <ele>1546.5</ele>
        <time>2023-10-31T13:39:00Z</time>
      </trkpt>
      <trkpt lat="42.79554" lon="-0.0247">
        <ele>1546.5</ele>
        <time>2023-10-31T13:39:01Z</time>
      </trkpt>
      <trkpt lat="42.79554" lon="-0.0247">
        <ele>1546.5</ele>
        <time>2023-10-31T13:39:02Z</time>
      </trkpt>
      <trkpt lat="42.79554" lon="-0.0247">
        <ele>1546.5</ele>
        <time>2023-10-31T13:39:03Z</time>
      </trkpt>
      <trkpt lat="42.79554" lon="-0.0247">
        <ele>1546.5</ele>
        <time>2023-10-31T13:39:04Z</time>
      </trkpt>
      <trkpt lat="42.79554" lon="-0.0247">
        <ele>1546.5</ele>
        <time>2023-10-31T13:39:05Z</time>
      </trkpt>
      <trkpt lat="42.79554" lon="-0.0247">
        <ele>1546.5</ele>
        <time>2023-10-31T13:39:06Z</time>
      </trkpt>
      <trkpt lat="42.79554" lon="-0.0247">
        <ele>1546.5</ele>
        <time>2023-10-31T13:39:07Z</time>
      </trkpt>
      <trkpt lat="42.79554" lon="-0.0247">
        <ele>1546.5</ele>
        <time>2023-10-31T13:39:08Z</time>
      </trkpt>
      <trkpt lat="42.79554" lon="-0.0247">
        <ele>1546.5</ele>
        <time>2023-10-31T13:39:09Z</time>
      </trkpt>
      <trkpt lat="42.79554" lon="-0.0247">
        <ele>1546.5</ele>
        <time>2023-10-31T13:39:10Z</time>
      </trkpt>
      <trkpt lat="42.79554" lon="-0.0247">
        <ele>1546.5</ele>
        <time>2023-10-31T13:39:11Z</time>
      </trkpt>
      <trkpt lat="42.79554" lon="-0.0247">
        <ele>1546.5</ele>
        <time>2023-10-31T13:39:12Z</time>
      </trkpt>
      <trkpt lat="42.79554" lon="-0.0247">
        <ele>1546.5</ele>
        <time>2023-10-31T13:39:13Z</time>
      </trkpt>
      <trkpt lat="42.79554" lon="-0.0247">
        <ele>1546.5</ele>
        <time>2023-10-31T13:39:14Z</time>
      </trkpt>
      <trkpt lat="42.79554" lon="-0.0247">
        <ele>1546.5</ele>
        <time>2023-10-31T13:39:15Z</time>
      </trkpt>
      <trkpt lat="42.79554" lon="-0.0247">
        <ele>1546.4</ele>
        <time>2023-10-31T13:39:16Z</time>
      </trkpt>
      <trkpt lat="42.79554" lon="-0.0247">
        <ele>1546.4</ele>
        <time>2023-10-31T13:39:17Z</time>
      </trkpt>
      <trkpt lat="42.79554" lon="-0.0247">
        <ele>1546.4</ele>
        <time>2023-10-31T13:39:18Z</time>
      </trkpt>
      <trkpt lat="42.79554" lon="-0.0247">
        <ele>1546.4</ele>
        <time>2023-10-31T13:39:19Z</time>
      </trkpt>
      <trkpt lat="42.79554" lon="-0.0247">
        <ele>1546.4</ele>
        <time>2023-10-31T13:39:20Z</time>
      </trkpt>
      <trkpt lat="42.79554" lon="-0.0247">
        <ele>1546.4</ele>
        <time>2023-10-31T13:39:21Z</time>
      </trkpt>
      <trkpt lat="42.79554" lon="-0.0247">
        <ele>1546.4</ele>
        <time>2023-10-31T13:39:22Z</time>
      </trkpt>
      <trkpt lat="42.79554" lon="-0.0247">
        <ele>1546.4</ele>
        <time>2023-10-31T13:39:23Z</time>
      </trkpt>
      <trkpt lat="42.79554" lon="-0.02469">
        <ele>1546.3</ele>
        <time>2023-10-31T13:39:24Z</time>
      </trkpt>
      <trkpt lat="42.79554" lon="-0.02469">
        <ele>1546.3</ele>
        <time>2023-10-31T13:39:25Z</time>
      </trkpt>
      <trkpt lat="42.79554" lon="-0.0247">
        <ele>1546.3</ele>
        <time>2023-10-31T13:39:26Z</time>
      </trkpt>
      <trkpt lat="42.79554" lon="-0.0247">
        <ele>1546.3</ele>
        <time>2023-10-31T13:39:27Z</time>
      </trkpt>
      <trkpt lat="42.79554" lon="-0.0247">
        <ele>1546.2</ele>
        <time>2023-10-31T13:39:28Z</time>
      </trkpt>
      <trkpt lat="42.79554" lon="-0.0247">
        <ele>1546.2</ele>
        <time>2023-10-31T13:39:29Z</time>
      </trkpt>
      <trkpt lat="42.79554" lon="-0.0247">
        <ele>1546.2</ele>
        <time>2023-10-31T13:39:30Z</time>
      </trkpt>
      <trkpt lat="42.79554" lon="-0.0247">
        <ele>1546.2</ele>
        <time>2023-10-31T13:39:31Z</time>
      </trkpt>
      <trkpt lat="42.79554" lon="-0.0247">
        <ele>1546.2</ele>
        <time>2023-10-31T13:39:32Z</time>
      </trkpt>
      <trkpt lat="42.79554" lon="-0.0247">
        <ele>1546.2</ele>
        <time>2023-10-31T13:39:33Z</time>
      </trkpt>
      <trkpt lat="42.79554" lon="-0.0247">
        <ele>1546.2</ele>
        <time>2023-10-31T13:39:34Z</time>
      </trkpt>
      <trkpt lat="42.79554" lon="-0.0247">
        <ele>1546.2</ele>
        <time>2023-10-31T13:39:35Z</time>
      </trkpt>
      <trkpt lat="42.79554" lon="-0.0247">
        <ele>1546.2</ele>
        <time>2023-10-31T13:39:36Z</time>
      </trkpt>
      <trkpt lat="42.79554" lon="-0.0247">
        <ele>1546.2</ele>
        <time>2023-10-31T13:39:37Z</time>
      </trkpt>
      <trkpt lat="42.79554" lon="-0.0247">
        <ele>1546.2</ele>
        <time>2023-10-31T13:39:38Z</time>
      </trkpt>
      <trkpt lat="42.79554" lon="-0.0247">
        <ele>1546.2</ele>
        <time>2023-10-31T13:39:39Z</time>
      </trkpt>
      <trkpt lat="42.79554" lon="-0.0247">
        <ele>1546.2</ele>
        <time>2023-10-31T13:39:40Z</time>
      </trkpt>
      <trkpt lat="42.79554" lon="-0.0247">
        <ele>1546.1</ele>
        <time>2023-10-31T13:39:41Z</time>
      </trkpt>
      <trkpt lat="42.79554" lon="-0.0247">
        <ele>1546.1</ele>
        <time>2023-10-31T13:39:42Z</time>
      </trkpt>
      <trkpt lat="42.79554" lon="-0.02469">
        <ele>1546</ele>
        <time>2023-10-31T13:39:43Z</time>
      </trkpt>
      <trkpt lat="42.79554" lon="-0.02468">
        <ele>1545.9</ele>
        <time>2023-10-31T13:39:44Z</time>
      </trkpt>
      <trkpt lat="42.79553" lon="-0.02467">
        <ele>1545.8</ele>
        <time>2023-10-31T13:39:45Z</time>
      </trkpt>
      <trkpt lat="42.79552" lon="-0.02464">
        <ele>1545.6</ele>
        <time>2023-10-31T13:39:46Z</time>
      </trkpt>
      <trkpt lat="42.79551" lon="-0.02464">
        <ele>1545.5</ele>
        <time>2023-10-31T13:39:47Z</time>
      </trkpt>
      <trkpt lat="42.79551" lon="-0.02463">
        <ele>1545.4</ele>
        <time>2023-10-31T13:39:48Z</time>
      </trkpt>
      <trkpt lat="42.7955" lon="-0.02462">
        <ele>1545.3</ele>
        <time>2023-10-31T13:39:49Z</time>
      </trkpt>
      <trkpt lat="42.7955" lon="-0.02461">
        <ele>1545.2</ele>
        <time>2023-10-31T13:39:50Z</time>
      </trkpt>
      <trkpt lat="42.79549" lon="-0.0246">
        <ele>1545.1</ele>
        <time>2023-10-31T13:39:51Z</time>
      </trkpt>
      <trkpt lat="42.79549" lon="-0.02459">
        <ele>1545.1</ele>
        <time>2023-10-31T13:39:52Z</time>
      </trkpt>
      <trkpt lat="42.79548" lon="-0.02458">
        <ele>1545</ele>
        <time>2023-10-31T13:39:53Z</time>
      </trkpt>
      <trkpt lat="42.79548" lon="-0.02457">
        <ele>1544.8</ele>
        <time>2023-10-31T13:39:54Z</time>
      </trkpt>
      <trkpt lat="42.79547" lon="-0.02455">
        <ele>1544.7</ele>
        <time>2023-10-31T13:39:55Z</time>
      </trkpt>
      <trkpt lat="42.79547" lon="-0.02454">
        <ele>1544.6</ele>
        <time>2023-10-31T13:39:56Z</time>
      </trkpt>
      <trkpt lat="42.79547" lon="-0.02453">
        <ele>1544.6</ele>
        <time>2023-10-31T13:39:57Z</time>
      </trkpt>
      <trkpt lat="42.79546" lon="-0.02453">
        <ele>1544.5</ele>
        <time>2023-10-31T13:39:58Z</time>
      </trkpt>
      <trkpt lat="42.79546" lon="-0.02452">
        <ele>1544.5</ele>
        <time>2023-10-31T13:39:59Z</time>
      </trkpt>
      <trkpt lat="42.79546" lon="-0.02453">
        <ele>1544.4</ele>
        <time>2023-10-31T13:40:00Z</time>
      </trkpt>
      <trkpt lat="42.79547" lon="-0.02453">
        <ele>1544.4</ele>
        <time>2023-10-31T13:40:01Z</time>
      </trkpt>
      <trkpt lat="42.79547" lon="-0.02453">
        <ele>1544.4</ele>
        <time>2023-10-31T13:40:02Z</time>
      </trkpt>
      <trkpt lat="42.79547" lon="-0.02453">
        <ele>1544.4</ele>
        <time>2023-10-31T13:40:03Z</time>
      </trkpt>
      <trkpt lat="42.79547" lon="-0.02453">
        <ele>1544.4</ele>
        <time>2023-10-31T13:40:04Z</time>
      </trkpt>
      <trkpt lat="42.79547" lon="-0.02453">
        <ele>1544.4</ele>
        <time>2023-10-31T13:40:05Z</time>
      </trkpt>
      <trkpt lat="42.79547" lon="-0.02453">
        <ele>1544.4</ele>
        <time>2023-10-31T13:40:06Z</time>
      </trkpt>
      <trkpt lat="42.79547" lon="-0.02453">
        <ele>1544.4</ele>
        <time>2023-10-31T13:40:07Z</time>
      </trkpt>
      <trkpt lat="42.79547" lon="-0.02453">
        <ele>1544.4</ele>
        <time>2023-10-31T13:40:08Z</time>
      </trkpt>
      <trkpt lat="42.79547" lon="-0.02453">
        <ele>1544.4</ele>
        <time>2023-10-31T13:40:09Z</time>
      </trkpt>
      <trkpt lat="42.79547" lon="-0.02453">
        <ele>1544.4</ele>
        <time>2023-10-31T13:40:10Z</time>
      </trkpt>
      <trkpt lat="42.79547" lon="-0.02453">
        <ele>1544.4</ele>
        <time>2023-10-31T13:40:11Z</time>
      </trkpt>
      <trkpt lat="42.79547" lon="-0.02453">
        <ele>1544.4</ele>
        <time>2023-10-31T13:40:12Z</time>
      </trkpt>
      <trkpt lat="42.79547" lon="-0.02453">
        <ele>1544.4</ele>
        <time>2023-10-31T13:40:13Z</time>
      </trkpt>
      <trkpt lat="42.79547" lon="-0.02452">
        <ele>1544.4</ele>
        <time>2023-10-31T13:40:14Z</time>
      </trkpt>
      <trkpt lat="42.79547" lon="-0.02453">
        <ele>1544.4</ele>
        <time>2023-10-31T13:40:15Z</time>
      </trkpt>
      <trkpt lat="42.79547" lon="-0.02452">
        <ele>1544.3</ele>
        <time>2023-10-31T13:40:16Z</time>
      </trkpt>
      <trkpt lat="42.79547" lon="-0.02453">
        <ele>1544.3</ele>
        <time>2023-10-31T13:40:17Z</time>
      </trkpt>
      <trkpt lat="42.79547" lon="-0.02452">
        <ele>1544.3</ele>
        <time>2023-10-31T13:40:18Z</time>
      </trkpt>
      <trkpt lat="42.79547" lon="-0.02452">
        <ele>1544.3</ele>
        <time>2023-10-31T13:40:19Z</time>
      </trkpt>
      <trkpt lat="42.79547" lon="-0.02451">
        <ele>1544.2</ele>
        <time>2023-10-31T13:40:20Z</time>
      </trkpt>
      <trkpt lat="42.79548" lon="-0.02451">
        <ele>1544.2</ele>
        <time>2023-10-31T13:40:21Z</time>
      </trkpt>
      <trkpt lat="42.79548" lon="-0.02451">
        <ele>1544.1</ele>
        <time>2023-10-31T13:40:22Z</time>
      </trkpt>
      <trkpt lat="42.79548" lon="-0.02452">
        <ele>1544.1</ele>
        <time>2023-10-31T13:40:23Z</time>
      </trkpt>
      <trkpt lat="42.79548" lon="-0.02454">
        <ele>1544</ele>
        <time>2023-10-31T13:40:24Z</time>
      </trkpt>
      <trkpt lat="42.79548" lon="-0.02452">
        <ele>1543.9</ele>
        <time>2023-10-31T13:40:25Z</time>
      </trkpt>
      <trkpt lat="42.79548" lon="-0.02453">
        <ele>1543.8</ele>
        <time>2023-10-31T13:40:26Z</time>
      </trkpt>
      <trkpt lat="42.79547" lon="-0.02452">
        <ele>1543.8</ele>
        <time>2023-10-31T13:40:27Z</time>
      </trkpt>
      <trkpt lat="42.79548" lon="-0.02453">
        <ele>1543.7</ele>
        <time>2023-10-31T13:40:28Z</time>
      </trkpt>
      <trkpt lat="42.79549" lon="-0.02453">
        <ele>1543.7</ele>
        <time>2023-10-31T13:40:29Z</time>
      </trkpt>
      <trkpt lat="42.79548" lon="-0.02453">
        <ele>1543.7</ele>
        <time>2023-10-31T13:40:30Z</time>
      </trkpt>
      <trkpt lat="42.79548" lon="-0.02453">
        <ele>1543.7</ele>
        <time>2023-10-31T13:40:31Z</time>
      </trkpt>
      <trkpt lat="42.79548" lon="-0.02453">
        <ele>1543.7</ele>
        <time>2023-10-31T13:40:32Z</time>
      </trkpt>
      <trkpt lat="42.79549" lon="-0.02453">
        <ele>1543.6</ele>
        <time>2023-10-31T13:40:33Z</time>
      </trkpt>
      <trkpt lat="42.7955" lon="-0.02453">
        <ele>1543.6</ele>
        <time>2023-10-31T13:40:34Z</time>
      </trkpt>
      <trkpt lat="42.7955" lon="-0.02452">
        <ele>1543.6</ele>
        <time>2023-10-31T13:40:35Z</time>
      </trkpt>
      <trkpt lat="42.79548" lon="-0.02452">
        <ele>1543.6</ele>
        <time>2023-10-31T13:40:36Z</time>
      </trkpt>
      <trkpt lat="42.79549" lon="-0.02452">
        <ele>1543.6</ele>
        <time>2023-10-31T13:40:37Z</time>
      </trkpt>
      <trkpt lat="42.79548" lon="-0.02452">
        <ele>1543.5</ele>
        <time>2023-10-31T13:40:38Z</time>
      </trkpt>
      <trkpt lat="42.79549" lon="-0.0245">
        <ele>1543.5</ele>
        <time>2023-10-31T13:40:39Z</time>
      </trkpt>
      <trkpt lat="42.79549" lon="-0.02451">
        <ele>1543.5</ele>
        <time>2023-10-31T13:40:40Z</time>
      </trkpt>
      <trkpt lat="42.79548" lon="-0.02452">
        <ele>1543.5</ele>
        <time>2023-10-31T13:40:41Z</time>
      </trkpt>
      <trkpt lat="42.79547" lon="-0.02453">
        <ele>1543.4</ele>
        <time>2023-10-31T13:40:42Z</time>
      </trkpt>
      <trkpt lat="42.79548" lon="-0.02452">
        <ele>1543.4</ele>
        <time>2023-10-31T13:40:43Z</time>
      </trkpt>
      <trkpt lat="42.79549" lon="-0.02453">
        <ele>1543.4</ele>
        <time>2023-10-31T13:40:44Z</time>
      </trkpt>
      <trkpt lat="42.79549" lon="-0.0245">
        <ele>1543.4</ele>
        <time>2023-10-31T13:40:58Z</time>
      </trkpt>
      <trkpt lat="42.79548" lon="-0.02449">
        <ele>1543.4</ele>
        <time>2023-10-31T13:40:59Z</time>
      </trkpt>
      <trkpt lat="42.79548" lon="-0.02448">
        <ele>1543.5</ele>
        <time>2023-10-31T13:41:00Z</time>
      </trkpt>
      <trkpt lat="42.79548" lon="-0.02446">
        <ele>1543.5</ele>
        <time>2023-10-31T13:41:01Z</time>
      </trkpt>
      <trkpt lat="42.79547" lon="-0.02445">
        <ele>1543.5</ele>
        <time>2023-10-31T13:41:02Z</time>
      </trkpt>
      <trkpt lat="42.79546" lon="-0.02443">
        <ele>1543.5</ele>
        <time>2023-10-31T13:41:03Z</time>
      </trkpt>
      <trkpt lat="42.79546" lon="-0.02441">
        <ele>1543.5</ele>
        <time>2023-10-31T13:41:04Z</time>
      </trkpt>
      <trkpt lat="42.79546" lon="-0.0244">
        <ele>1543.5</ele>
        <time>2023-10-31T13:41:05Z</time>
      </trkpt>
      <trkpt lat="42.79545" lon="-0.02439">
        <ele>1543.6</ele>
        <time>2023-10-31T13:41:06Z</time>
      </trkpt>
      <trkpt lat="42.79545" lon="-0.02438">
        <ele>1543.6</ele>
        <time>2023-10-31T13:41:07Z</time>
      </trkpt>
      <trkpt lat="42.79544" lon="-0.02436">
        <ele>1543.6</ele>
        <time>2023-10-31T13:41:08Z</time>
      </trkpt>
      <trkpt lat="42.79544" lon="-0.02435">
        <ele>1543.6</ele>
        <time>2023-10-31T13:41:09Z</time>
      </trkpt>
      <trkpt lat="42.79544" lon="-0.02434">
        <ele>1543.7</ele>
        <time>2023-10-31T13:41:10Z</time>
      </trkpt>
      <trkpt lat="42.79543" lon="-0.02432">
        <ele>1543.7</ele>
        <time>2023-10-31T13:41:11Z</time>
      </trkpt>
      <trkpt lat="42.79543" lon="-0.02431">
        <ele>1543.8</ele>
        <time>2023-10-31T13:41:12Z</time>
      </trkpt>
      <trkpt lat="42.79542" lon="-0.02429">
        <ele>1543.8</ele>
        <time>2023-10-31T13:41:13Z</time>
      </trkpt>
      <trkpt lat="42.79542" lon="-0.02429">
        <ele>1543.9</ele>
        <time>2023-10-31T13:41:14Z</time>
      </trkpt>
      <trkpt lat="42.79541" lon="-0.02428">
        <ele>1543.9</ele>
        <time>2023-10-31T13:41:15Z</time>
      </trkpt>
      <trkpt lat="42.79541" lon="-0.02427">
        <ele>1543.9</ele>
        <time>2023-10-31T13:41:16Z</time>
      </trkpt>
      <trkpt lat="42.7954" lon="-0.02426">
        <ele>1544</ele>
        <time>2023-10-31T13:41:17Z</time>
      </trkpt>
      <trkpt lat="42.79539" lon="-0.02426">
        <ele>1544.1</ele>
        <time>2023-10-31T13:41:18Z</time>
      </trkpt>
      <trkpt lat="42.79539" lon="-0.02425">
        <ele>1544.1</ele>
        <time>2023-10-31T13:41:19Z</time>
      </trkpt>
      <trkpt lat="42.79538" lon="-0.02425">
        <ele>1544.1</ele>
        <time>2023-10-31T13:41:20Z</time>
      </trkpt>
      <trkpt lat="42.79538" lon="-0.02424">
        <ele>1544.2</ele>
        <time>2023-10-31T13:41:21Z</time>
      </trkpt>
      <trkpt lat="42.79537" lon="-0.02421">
        <ele>1544.3</ele>
        <time>2023-10-31T13:41:22Z</time>
      </trkpt>
      <trkpt lat="42.79537" lon="-0.02422">
        <ele>1544.4</ele>
        <time>2023-10-31T13:41:23Z</time>
      </trkpt>
      <trkpt lat="42.79536" lon="-0.02422">
        <ele>1544.4</ele>
        <time>2023-10-31T13:41:24Z</time>
      </trkpt>
      <trkpt lat="42.79536" lon="-0.02422">
        <ele>1544.4</ele>
        <time>2023-10-31T13:41:25Z</time>
      </trkpt>
      <trkpt lat="42.79535" lon="-0.02421">
        <ele>1544.5</ele>
        <time>2023-10-31T13:41:26Z</time>
      </trkpt>
      <trkpt lat="42.79535" lon="-0.02419">
        <ele>1544.6</ele>
        <time>2023-10-31T13:41:27Z</time>
      </trkpt>
      <trkpt lat="42.79535" lon="-0.02419">
        <ele>1544.6</ele>
        <time>2023-10-31T13:41:28Z</time>
      </trkpt>
      <trkpt lat="42.79534" lon="-0.02419">
        <ele>1544.7</ele>
        <time>2023-10-31T13:41:29Z</time>
      </trkpt>
      <trkpt lat="42.79534" lon="-0.02419">
        <ele>1544.7</ele>
        <time>2023-10-31T13:41:30Z</time>
      </trkpt>
      <trkpt lat="42.79534" lon="-0.02419">
        <ele>1544.8</ele>
        <time>2023-10-31T13:41:31Z</time>
      </trkpt>
      <trkpt lat="42.79533" lon="-0.02419">
        <ele>1544.8</ele>
        <time>2023-10-31T13:41:32Z</time>
      </trkpt>
      <trkpt lat="42.79533" lon="-0.02419">
        <ele>1544.9</ele>
        <time>2023-10-31T13:41:33Z</time>
      </trkpt>
      <trkpt lat="42.79533" lon="-0.02418">
        <ele>1544.9</ele>
        <time>2023-10-31T13:41:34Z</time>
      </trkpt>
      <trkpt lat="42.79533" lon="-0.02418">
        <ele>1544.9</ele>
        <time>2023-10-31T13:41:35Z</time>
      </trkpt>
      <trkpt lat="42.79534" lon="-0.02416">
        <ele>1545.1</ele>
        <time>2023-10-31T13:41:36Z</time>
      </trkpt>
      <trkpt lat="42.79534" lon="-0.02416">
        <ele>1545.1</ele>
        <time>2023-10-31T13:41:37Z</time>
      </trkpt>
      <trkpt lat="42.79534" lon="-0.02413">
        <ele>1545.3</ele>
        <time>2023-10-31T13:41:38Z</time>
      </trkpt>
      <trkpt lat="42.79534" lon="-0.02412">
        <ele>1545.4</ele>
        <time>2023-10-31T13:41:39Z</time>
      </trkpt>
      <trkpt lat="42.79535" lon="-0.0241">
        <ele>1545.5</ele>
        <time>2023-10-31T13:41:40Z</time>
      </trkpt>
      <trkpt lat="42.79535" lon="-0.02411">
        <ele>1545.5</ele>
        <time>2023-10-31T13:41:41Z</time>
      </trkpt>
      <trkpt lat="42.79535" lon="-0.0241">
        <ele>1545.5</ele>
        <time>2023-10-31T13:41:42Z</time>
      </trkpt>
      <trkpt lat="42.79535" lon="-0.0241">
        <ele>1545.6</ele>
        <time>2023-10-31T13:41:43Z</time>
      </trkpt>
      <trkpt lat="42.79535" lon="-0.02409">
        <ele>1545.7</ele>
        <time>2023-10-31T13:41:44Z</time>
      </trkpt>
      <trkpt lat="42.79533" lon="-0.02406">
        <ele>1545.9</ele>
        <time>2023-10-31T13:41:45Z</time>
      </trkpt>
      <trkpt lat="42.79533" lon="-0.02408">
        <ele>1546</ele>
        <time>2023-10-31T13:41:46Z</time>
      </trkpt>
      <trkpt lat="42.79532" lon="-0.02409">
        <ele>1546.1</ele>
        <time>2023-10-31T13:41:47Z</time>
      </trkpt>
      <trkpt lat="42.79533" lon="-0.02408">
        <ele>1546.1</ele>
        <time>2023-10-31T13:41:48Z</time>
      </trkpt>
      <trkpt lat="42.79531" lon="-0.02406">
        <ele>1546.3</ele>
        <time>2023-10-31T13:41:49Z</time>
      </trkpt>
      <trkpt lat="42.79532" lon="-0.02406">
        <ele>1546.4</ele>
        <time>2023-10-31T13:41:50Z</time>
      </trkpt>
      <trkpt lat="42.79532" lon="-0.02406">
        <ele>1546.4</ele>
        <time>2023-10-31T13:41:51Z</time>
      </trkpt>
      <trkpt lat="42.79533" lon="-0.02406">
        <ele>1546.4</ele>
        <time>2023-10-31T13:41:52Z</time>
      </trkpt>
      <trkpt lat="42.79532" lon="-0.02403">
        <ele>1546.6</ele>
        <time>2023-10-31T13:41:53Z</time>
      </trkpt>
      <trkpt lat="42.79533" lon="-0.02403">
        <ele>1546.6</ele>
        <time>2023-10-31T13:41:54Z</time>
      </trkpt>
      <trkpt lat="42.79533" lon="-0.02402">
        <ele>1546.6</ele>
        <time>2023-10-31T13:41:55Z</time>
      </trkpt>
      <trkpt lat="42.79532" lon="-0.02402">
        <ele>1546.7</ele>
        <time>2023-10-31T13:41:56Z</time>
      </trkpt>
      <trkpt lat="42.79532" lon="-0.02401">
        <ele>1546.7</ele>
        <time>2023-10-31T13:41:57Z</time>
      </trkpt>
      <trkpt lat="42.79532" lon="-0.02401">
        <ele>1546.7</ele>
        <time>2023-10-31T13:41:58Z</time>
      </trkpt>
      <trkpt lat="42.79532" lon="-0.02401">
        <ele>1546.7</ele>
        <time>2023-10-31T13:41:59Z</time>
      </trkpt>
      <trkpt lat="42.79532" lon="-0.024">
        <ele>1546.8</ele>
        <time>2023-10-31T13:42:00Z</time>
      </trkpt>
      <trkpt lat="42.79532" lon="-0.024">
        <ele>1546.8</ele>
        <time>2023-10-31T13:42:01Z</time>
      </trkpt>
      <trkpt lat="42.79531" lon="-0.02399">
        <ele>1546.8</ele>
        <time>2023-10-31T13:42:02Z</time>
      </trkpt>
      <trkpt lat="42.79531" lon="-0.02399">
        <ele>1546.8</ele>
        <time>2023-10-31T13:42:03Z</time>
      </trkpt>
      <trkpt lat="42.79531" lon="-0.02399">
        <ele>1546.8</ele>
        <time>2023-10-31T13:42:04Z</time>
      </trkpt>
      <trkpt lat="42.79531" lon="-0.02398">
        <ele>1546.9</ele>
        <time>2023-10-31T13:42:05Z</time>
      </trkpt>
      <trkpt lat="42.7953" lon="-0.02397">
        <ele>1546.9</ele>
        <time>2023-10-31T13:42:06Z</time>
      </trkpt>
      <trkpt lat="42.7953" lon="-0.02397">
        <ele>1546.9</ele>
        <time>2023-10-31T13:42:07Z</time>
      </trkpt>
      <trkpt lat="42.7953" lon="-0.02397">
        <ele>1546.9</ele>
        <time>2023-10-31T13:42:08Z</time>
      </trkpt>
      <trkpt lat="42.79529" lon="-0.02396">
        <ele>1547</ele>
        <time>2023-10-31T13:42:09Z</time>
      </trkpt>
      <trkpt lat="42.79529" lon="-0.02397">
        <ele>1547</ele>
        <time>2023-10-31T13:42:10Z</time>
      </trkpt>
      <trkpt lat="42.79528" lon="-0.02397">
        <ele>1547</ele>
        <time>2023-10-31T13:42:11Z</time>
      </trkpt>
      <trkpt lat="42.79528" lon="-0.02398">
        <ele>1547</ele>
        <time>2023-10-31T13:42:12Z</time>
      </trkpt>
      <trkpt lat="42.79528" lon="-0.02398">
        <ele>1547.1</ele>
        <time>2023-10-31T13:42:13Z</time>
      </trkpt>
      <trkpt lat="42.79528" lon="-0.02398">
        <ele>1547.1</ele>
        <time>2023-10-31T13:42:14Z</time>
      </trkpt>
      <trkpt lat="42.79527" lon="-0.02399">
        <ele>1547.1</ele>
        <time>2023-10-31T13:42:15Z</time>
      </trkpt>
      <trkpt lat="42.79528" lon="-0.024">
        <ele>1547.1</ele>
        <time>2023-10-31T13:42:16Z</time>
      </trkpt>
      <trkpt lat="42.79528" lon="-0.02399">
        <ele>1547.1</ele>
        <time>2023-10-31T13:42:17Z</time>
      </trkpt>
      <trkpt lat="42.79528" lon="-0.02399">
        <ele>1547.1</ele>
        <time>2023-10-31T13:42:18Z</time>
      </trkpt>
      <trkpt lat="42.79528" lon="-0.024">
        <ele>1547.1</ele>
        <time>2023-10-31T13:42:19Z</time>
      </trkpt>
    </trkseg>
  </trk>
</gpx>